<?xml version="1.0" encoding="UTF-8" standalone="no" ?>
<gpx xmlns="http://www.topografix.com/GPX/1/1" xmlns:xsi="http://www.w3.org/2001/XMLSchema-instance" xsi:schemaLocation="http://www.topografix.com/GPX/1/1 http://www.topografix.com/GPX/1/1/gpx.xsd" version="1.1" creator="VisuGPX - https://www.visugpx.com">
  <metadata>
    <name>Marche ACC du 21/01/2021</name>
    <desc><![CDATA[Circuit au départ du parking du château de l'Hôpitau, le rond point de la rivière, boulevard Einstein, Gymnase de La Geraudière, rue des Renards, chêne des anglais, parc de l'amande, rue du moulin des rochettes, chemin des marais du Cens, Vallée du Cens, arrêt parc de La Gaudinière, le Petit Port, les bords de l'Erdre jusqu'à Port Barbe et retour point de départ]]></desc>
  </metadata>
  <trk>
    <name><![CDATA[20220120_135422.gpx]]></name>
    <trkseg>
      <trkpt lat="47.26983" lon="-1.55228">
        <ele>74</ele>
        <time>2022-01-20T13:00:00Z</time>
      </trkpt>
      <trkpt lat="47.26979" lon="-1.5523">
        <ele>71</ele>
        <time>2022-01-20T13:02:44Z</time>
      </trkpt>
      <trkpt lat="47.26977" lon="-1.55229">
        <ele>71</ele>
        <time>2022-01-20T13:02:46Z</time>
      </trkpt>
      <trkpt lat="47.26975" lon="-1.55228">
        <ele>71</ele>
        <time>2022-01-20T13:02:48Z</time>
      </trkpt>
      <trkpt lat="47.26974" lon="-1.55228">
        <ele>71</ele>
        <time>2022-01-20T13:02:49Z</time>
      </trkpt>
      <trkpt lat="47.26973" lon="-1.55228">
        <ele>72</ele>
        <time>2022-01-20T13:02:50Z</time>
      </trkpt>
      <trkpt lat="47.26973" lon="-1.55227">
        <ele>72</ele>
        <time>2022-01-20T13:02:51Z</time>
      </trkpt>
      <trkpt lat="47.26972" lon="-1.55227">
        <ele>72</ele>
        <time>2022-01-20T13:02:52Z</time>
      </trkpt>
      <trkpt lat="47.26971" lon="-1.55228">
        <ele>72</ele>
        <time>2022-01-20T13:02:53Z</time>
      </trkpt>
      <trkpt lat="47.2697" lon="-1.55228">
        <ele>72</ele>
        <time>2022-01-20T13:02:54Z</time>
      </trkpt>
      <trkpt lat="47.26969" lon="-1.55228">
        <ele>72</ele>
        <time>2022-01-20T13:02:55Z</time>
      </trkpt>
      <trkpt lat="47.26969" lon="-1.55228">
        <ele>72</ele>
        <time>2022-01-20T13:02:56Z</time>
      </trkpt>
      <trkpt lat="47.26968" lon="-1.55229">
        <ele>72</ele>
        <time>2022-01-20T13:02:57Z</time>
      </trkpt>
      <trkpt lat="47.26967" lon="-1.55229">
        <ele>72</ele>
        <time>2022-01-20T13:02:58Z</time>
      </trkpt>
      <trkpt lat="47.26966" lon="-1.55229">
        <ele>72</ele>
        <time>2022-01-20T13:02:59Z</time>
      </trkpt>
      <trkpt lat="47.26966" lon="-1.55229">
        <ele>72</ele>
        <time>2022-01-20T13:03:00Z</time>
      </trkpt>
      <trkpt lat="47.26965" lon="-1.55229">
        <ele>72</ele>
        <time>2022-01-20T13:03:01Z</time>
      </trkpt>
      <trkpt lat="47.26965" lon="-1.55229">
        <ele>72</ele>
        <time>2022-01-20T13:03:02Z</time>
      </trkpt>
      <trkpt lat="47.26965" lon="-1.55229">
        <ele>72</ele>
        <time>2022-01-20T13:03:03Z</time>
      </trkpt>
      <trkpt lat="47.26965" lon="-1.55229">
        <ele>72</ele>
        <time>2022-01-20T13:03:04Z</time>
      </trkpt>
      <trkpt lat="47.26962" lon="-1.55229">
        <ele>72</ele>
        <time>2022-01-20T13:03:05Z</time>
      </trkpt>
      <trkpt lat="47.26961" lon="-1.55229">
        <ele>72</ele>
        <time>2022-01-20T13:03:06Z</time>
      </trkpt>
      <trkpt lat="47.2696" lon="-1.5523">
        <ele>71</ele>
        <time>2022-01-20T13:03:07Z</time>
      </trkpt>
      <trkpt lat="47.26957" lon="-1.55232">
        <ele>72</ele>
        <time>2022-01-20T13:03:09Z</time>
      </trkpt>
      <trkpt lat="47.26955" lon="-1.55233">
        <ele>71</ele>
        <time>2022-01-20T13:03:11Z</time>
      </trkpt>
      <trkpt lat="47.26952" lon="-1.55235">
        <ele>71</ele>
        <time>2022-01-20T13:03:13Z</time>
      </trkpt>
      <trkpt lat="47.26951" lon="-1.55236">
        <ele>72</ele>
        <time>2022-01-20T13:03:14Z</time>
      </trkpt>
      <trkpt lat="47.2695" lon="-1.55236">
        <ele>72</ele>
        <time>2022-01-20T13:03:15Z</time>
      </trkpt>
      <trkpt lat="47.26949" lon="-1.55237">
        <ele>72</ele>
        <time>2022-01-20T13:03:16Z</time>
      </trkpt>
      <trkpt lat="47.26948" lon="-1.55238">
        <ele>71</ele>
        <time>2022-01-20T13:03:17Z</time>
      </trkpt>
      <trkpt lat="47.26946" lon="-1.55238">
        <ele>71</ele>
        <time>2022-01-20T13:03:18Z</time>
      </trkpt>
      <trkpt lat="47.26945" lon="-1.55239">
        <ele>71</ele>
        <time>2022-01-20T13:03:19Z</time>
      </trkpt>
      <trkpt lat="47.26943" lon="-1.55239">
        <ele>72</ele>
        <time>2022-01-20T13:03:20Z</time>
      </trkpt>
      <trkpt lat="47.26942" lon="-1.5524">
        <ele>72</ele>
        <time>2022-01-20T13:03:21Z</time>
      </trkpt>
      <trkpt lat="47.26941" lon="-1.55241">
        <ele>72</ele>
        <time>2022-01-20T13:03:22Z</time>
      </trkpt>
      <trkpt lat="47.26938" lon="-1.55242">
        <ele>72</ele>
        <time>2022-01-20T13:03:24Z</time>
      </trkpt>
      <trkpt lat="47.26936" lon="-1.55243">
        <ele>72</ele>
        <time>2022-01-20T13:03:26Z</time>
      </trkpt>
      <trkpt lat="47.26934" lon="-1.55243">
        <ele>72</ele>
        <time>2022-01-20T13:03:27Z</time>
      </trkpt>
      <trkpt lat="47.26933" lon="-1.55244">
        <ele>71</ele>
        <time>2022-01-20T13:03:28Z</time>
      </trkpt>
      <trkpt lat="47.26931" lon="-1.55244">
        <ele>72</ele>
        <time>2022-01-20T13:03:29Z</time>
      </trkpt>
      <trkpt lat="47.2693" lon="-1.55245">
        <ele>72</ele>
        <time>2022-01-20T13:03:30Z</time>
      </trkpt>
      <trkpt lat="47.26929" lon="-1.55246">
        <ele>72</ele>
        <time>2022-01-20T13:03:31Z</time>
      </trkpt>
      <trkpt lat="47.26928" lon="-1.55246">
        <ele>71</ele>
        <time>2022-01-20T13:03:32Z</time>
      </trkpt>
      <trkpt lat="47.26926" lon="-1.55247">
        <ele>71</ele>
        <time>2022-01-20T13:03:33Z</time>
      </trkpt>
      <trkpt lat="47.26925" lon="-1.55248">
        <ele>70</ele>
        <time>2022-01-20T13:03:34Z</time>
      </trkpt>
      <trkpt lat="47.26924" lon="-1.55248">
        <ele>70</ele>
        <time>2022-01-20T13:03:35Z</time>
      </trkpt>
      <trkpt lat="47.26923" lon="-1.55249">
        <ele>70</ele>
        <time>2022-01-20T13:03:36Z</time>
      </trkpt>
      <trkpt lat="47.26921" lon="-1.55249">
        <ele>70</ele>
        <time>2022-01-20T13:03:37Z</time>
      </trkpt>
      <trkpt lat="47.2692" lon="-1.5525">
        <ele>70</ele>
        <time>2022-01-20T13:03:38Z</time>
      </trkpt>
      <trkpt lat="47.26918" lon="-1.55251">
        <ele>70</ele>
        <time>2022-01-20T13:03:39Z</time>
      </trkpt>
      <trkpt lat="47.26917" lon="-1.55251">
        <ele>70</ele>
        <time>2022-01-20T13:03:40Z</time>
      </trkpt>
      <trkpt lat="47.26916" lon="-1.55251">
        <ele>71</ele>
        <time>2022-01-20T13:03:41Z</time>
      </trkpt>
      <trkpt lat="47.26914" lon="-1.55251">
        <ele>70</ele>
        <time>2022-01-20T13:03:42Z</time>
      </trkpt>
      <trkpt lat="47.26913" lon="-1.55251">
        <ele>70</ele>
        <time>2022-01-20T13:03:43Z</time>
      </trkpt>
      <trkpt lat="47.26912" lon="-1.55252">
        <ele>70</ele>
        <time>2022-01-20T13:03:44Z</time>
      </trkpt>
      <trkpt lat="47.26911" lon="-1.55252">
        <ele>70</ele>
        <time>2022-01-20T13:03:45Z</time>
      </trkpt>
      <trkpt lat="47.26909" lon="-1.55253">
        <ele>70</ele>
        <time>2022-01-20T13:03:46Z</time>
      </trkpt>
      <trkpt lat="47.26908" lon="-1.55253">
        <ele>70</ele>
        <time>2022-01-20T13:03:47Z</time>
      </trkpt>
      <trkpt lat="47.26904" lon="-1.55254">
        <ele>69</ele>
        <time>2022-01-20T13:03:49Z</time>
      </trkpt>
      <trkpt lat="47.26901" lon="-1.55255">
        <ele>69</ele>
        <time>2022-01-20T13:03:51Z</time>
      </trkpt>
      <trkpt lat="47.26899" lon="-1.55256">
        <ele>69</ele>
        <time>2022-01-20T13:03:53Z</time>
      </trkpt>
      <trkpt lat="47.26898" lon="-1.55256">
        <ele>69</ele>
        <time>2022-01-20T13:03:54Z</time>
      </trkpt>
      <trkpt lat="47.26897" lon="-1.55257">
        <ele>69</ele>
        <time>2022-01-20T13:03:55Z</time>
      </trkpt>
      <trkpt lat="47.26896" lon="-1.55257">
        <ele>69</ele>
        <time>2022-01-20T13:03:56Z</time>
      </trkpt>
      <trkpt lat="47.26894" lon="-1.55258">
        <ele>69</ele>
        <time>2022-01-20T13:03:57Z</time>
      </trkpt>
      <trkpt lat="47.26893" lon="-1.55258">
        <ele>70</ele>
        <time>2022-01-20T13:03:58Z</time>
      </trkpt>
      <trkpt lat="47.26892" lon="-1.55259">
        <ele>70</ele>
        <time>2022-01-20T13:03:59Z</time>
      </trkpt>
      <trkpt lat="47.26891" lon="-1.5526">
        <ele>70</ele>
        <time>2022-01-20T13:04:00Z</time>
      </trkpt>
      <trkpt lat="47.26889" lon="-1.5526">
        <ele>70</ele>
        <time>2022-01-20T13:04:01Z</time>
      </trkpt>
      <trkpt lat="47.26888" lon="-1.55261">
        <ele>70</ele>
        <time>2022-01-20T13:04:02Z</time>
      </trkpt>
      <trkpt lat="47.26887" lon="-1.55261">
        <ele>70</ele>
        <time>2022-01-20T13:04:03Z</time>
      </trkpt>
      <trkpt lat="47.26885" lon="-1.55262">
        <ele>70</ele>
        <time>2022-01-20T13:04:04Z</time>
      </trkpt>
      <trkpt lat="47.26884" lon="-1.55262">
        <ele>70</ele>
        <time>2022-01-20T13:04:05Z</time>
      </trkpt>
      <trkpt lat="47.26883" lon="-1.55263">
        <ele>69</ele>
        <time>2022-01-20T13:04:06Z</time>
      </trkpt>
      <trkpt lat="47.26882" lon="-1.55264">
        <ele>69</ele>
        <time>2022-01-20T13:04:07Z</time>
      </trkpt>
      <trkpt lat="47.26881" lon="-1.55265">
        <ele>69</ele>
        <time>2022-01-20T13:04:08Z</time>
      </trkpt>
      <trkpt lat="47.2688" lon="-1.55265">
        <ele>70</ele>
        <time>2022-01-20T13:04:09Z</time>
      </trkpt>
      <trkpt lat="47.26879" lon="-1.55265">
        <ele>69</ele>
        <time>2022-01-20T13:04:10Z</time>
      </trkpt>
      <trkpt lat="47.26878" lon="-1.55265">
        <ele>69</ele>
        <time>2022-01-20T13:04:11Z</time>
      </trkpt>
      <trkpt lat="47.26876" lon="-1.55266">
        <ele>70</ele>
        <time>2022-01-20T13:04:12Z</time>
      </trkpt>
      <trkpt lat="47.26876" lon="-1.55267">
        <ele>70</ele>
        <time>2022-01-20T13:04:13Z</time>
      </trkpt>
      <trkpt lat="47.26875" lon="-1.55267">
        <ele>70</ele>
        <time>2022-01-20T13:04:14Z</time>
      </trkpt>
      <trkpt lat="47.26873" lon="-1.55268">
        <ele>70</ele>
        <time>2022-01-20T13:04:15Z</time>
      </trkpt>
      <trkpt lat="47.26873" lon="-1.55269">
        <ele>70</ele>
        <time>2022-01-20T13:04:16Z</time>
      </trkpt>
      <trkpt lat="47.26872" lon="-1.5527">
        <ele>70</ele>
        <time>2022-01-20T13:04:17Z</time>
      </trkpt>
      <trkpt lat="47.2687" lon="-1.55271">
        <ele>70</ele>
        <time>2022-01-20T13:04:18Z</time>
      </trkpt>
      <trkpt lat="47.26869" lon="-1.55272">
        <ele>70</ele>
        <time>2022-01-20T13:04:19Z</time>
      </trkpt>
      <trkpt lat="47.26868" lon="-1.55273">
        <ele>70</ele>
        <time>2022-01-20T13:04:20Z</time>
      </trkpt>
      <trkpt lat="47.26867" lon="-1.55274">
        <ele>70</ele>
        <time>2022-01-20T13:04:21Z</time>
      </trkpt>
      <trkpt lat="47.26865" lon="-1.55274">
        <ele>70</ele>
        <time>2022-01-20T13:04:22Z</time>
      </trkpt>
      <trkpt lat="47.26864" lon="-1.55275">
        <ele>70</ele>
        <time>2022-01-20T13:04:23Z</time>
      </trkpt>
      <trkpt lat="47.26862" lon="-1.55276">
        <ele>70</ele>
        <time>2022-01-20T13:04:24Z</time>
      </trkpt>
      <trkpt lat="47.2686" lon="-1.55276">
        <ele>70</ele>
        <time>2022-01-20T13:04:25Z</time>
      </trkpt>
      <trkpt lat="47.26859" lon="-1.55277">
        <ele>70</ele>
        <time>2022-01-20T13:04:26Z</time>
      </trkpt>
      <trkpt lat="47.26858" lon="-1.55277">
        <ele>70</ele>
        <time>2022-01-20T13:04:27Z</time>
      </trkpt>
      <trkpt lat="47.26857" lon="-1.55278">
        <ele>69</ele>
        <time>2022-01-20T13:04:28Z</time>
      </trkpt>
      <trkpt lat="47.26855" lon="-1.55278">
        <ele>70</ele>
        <time>2022-01-20T13:04:29Z</time>
      </trkpt>
      <trkpt lat="47.26854" lon="-1.55279">
        <ele>70</ele>
        <time>2022-01-20T13:04:30Z</time>
      </trkpt>
      <trkpt lat="47.26853" lon="-1.55278">
        <ele>69</ele>
        <time>2022-01-20T13:04:31Z</time>
      </trkpt>
      <trkpt lat="47.26851" lon="-1.55278">
        <ele>69</ele>
        <time>2022-01-20T13:04:32Z</time>
      </trkpt>
      <trkpt lat="47.2685" lon="-1.55279">
        <ele>69</ele>
        <time>2022-01-20T13:04:33Z</time>
      </trkpt>
      <trkpt lat="47.26849" lon="-1.55279">
        <ele>69</ele>
        <time>2022-01-20T13:04:34Z</time>
      </trkpt>
      <trkpt lat="47.26848" lon="-1.55279">
        <ele>69</ele>
        <time>2022-01-20T13:04:35Z</time>
      </trkpt>
      <trkpt lat="47.26846" lon="-1.5528">
        <ele>69</ele>
        <time>2022-01-20T13:04:36Z</time>
      </trkpt>
      <trkpt lat="47.26845" lon="-1.5528">
        <ele>69</ele>
        <time>2022-01-20T13:04:37Z</time>
      </trkpt>
      <trkpt lat="47.26844" lon="-1.5528">
        <ele>69</ele>
        <time>2022-01-20T13:04:38Z</time>
      </trkpt>
      <trkpt lat="47.26843" lon="-1.55281">
        <ele>69</ele>
        <time>2022-01-20T13:04:39Z</time>
      </trkpt>
      <trkpt lat="47.26842" lon="-1.55282">
        <ele>70</ele>
        <time>2022-01-20T13:04:40Z</time>
      </trkpt>
      <trkpt lat="47.26841" lon="-1.55282">
        <ele>69</ele>
        <time>2022-01-20T13:04:41Z</time>
      </trkpt>
      <trkpt lat="47.26839" lon="-1.55283">
        <ele>68</ele>
        <time>2022-01-20T13:04:42Z</time>
      </trkpt>
      <trkpt lat="47.26838" lon="-1.55283">
        <ele>68</ele>
        <time>2022-01-20T13:04:43Z</time>
      </trkpt>
      <trkpt lat="47.26837" lon="-1.55284">
        <ele>68</ele>
        <time>2022-01-20T13:04:44Z</time>
      </trkpt>
      <trkpt lat="47.26836" lon="-1.55285">
        <ele>68</ele>
        <time>2022-01-20T13:04:45Z</time>
      </trkpt>
      <trkpt lat="47.26835" lon="-1.55285">
        <ele>67</ele>
        <time>2022-01-20T13:04:46Z</time>
      </trkpt>
      <trkpt lat="47.26833" lon="-1.55286">
        <ele>67</ele>
        <time>2022-01-20T13:04:47Z</time>
      </trkpt>
      <trkpt lat="47.26832" lon="-1.55286">
        <ele>66</ele>
        <time>2022-01-20T13:04:48Z</time>
      </trkpt>
      <trkpt lat="47.26831" lon="-1.55287">
        <ele>66</ele>
        <time>2022-01-20T13:04:49Z</time>
      </trkpt>
      <trkpt lat="47.2683" lon="-1.55288">
        <ele>66</ele>
        <time>2022-01-20T13:04:50Z</time>
      </trkpt>
      <trkpt lat="47.26829" lon="-1.55288">
        <ele>66</ele>
        <time>2022-01-20T13:04:51Z</time>
      </trkpt>
      <trkpt lat="47.26828" lon="-1.55289">
        <ele>66</ele>
        <time>2022-01-20T13:04:52Z</time>
      </trkpt>
      <trkpt lat="47.26827" lon="-1.5529">
        <ele>67</ele>
        <time>2022-01-20T13:04:53Z</time>
      </trkpt>
      <trkpt lat="47.26826" lon="-1.5529">
        <ele>67</ele>
        <time>2022-01-20T13:04:54Z</time>
      </trkpt>
      <trkpt lat="47.26825" lon="-1.55291">
        <ele>67</ele>
        <time>2022-01-20T13:04:55Z</time>
      </trkpt>
      <trkpt lat="47.26824" lon="-1.55292">
        <ele>66</ele>
        <time>2022-01-20T13:04:56Z</time>
      </trkpt>
      <trkpt lat="47.26823" lon="-1.55292">
        <ele>66</ele>
        <time>2022-01-20T13:04:57Z</time>
      </trkpt>
      <trkpt lat="47.26821" lon="-1.55293">
        <ele>66</ele>
        <time>2022-01-20T13:04:58Z</time>
      </trkpt>
      <trkpt lat="47.2682" lon="-1.55293">
        <ele>66</ele>
        <time>2022-01-20T13:04:59Z</time>
      </trkpt>
      <trkpt lat="47.26819" lon="-1.55294">
        <ele>66</ele>
        <time>2022-01-20T13:05:00Z</time>
      </trkpt>
      <trkpt lat="47.26819" lon="-1.55295">
        <ele>66</ele>
        <time>2022-01-20T13:05:01Z</time>
      </trkpt>
      <trkpt lat="47.26817" lon="-1.55295">
        <ele>66</ele>
        <time>2022-01-20T13:05:02Z</time>
      </trkpt>
      <trkpt lat="47.26816" lon="-1.55296">
        <ele>66</ele>
        <time>2022-01-20T13:05:03Z</time>
      </trkpt>
      <trkpt lat="47.26815" lon="-1.55297">
        <ele>67</ele>
        <time>2022-01-20T13:05:04Z</time>
      </trkpt>
      <trkpt lat="47.26814" lon="-1.55299">
        <ele>67</ele>
        <time>2022-01-20T13:05:05Z</time>
      </trkpt>
      <trkpt lat="47.26812" lon="-1.553">
        <ele>67</ele>
        <time>2022-01-20T13:05:06Z</time>
      </trkpt>
      <trkpt lat="47.26811" lon="-1.55301">
        <ele>67</ele>
        <time>2022-01-20T13:05:07Z</time>
      </trkpt>
      <trkpt lat="47.2681" lon="-1.55302">
        <ele>67</ele>
        <time>2022-01-20T13:05:08Z</time>
      </trkpt>
      <trkpt lat="47.26809" lon="-1.55302">
        <ele>67</ele>
        <time>2022-01-20T13:05:09Z</time>
      </trkpt>
      <trkpt lat="47.26807" lon="-1.55304">
        <ele>66</ele>
        <time>2022-01-20T13:05:10Z</time>
      </trkpt>
      <trkpt lat="47.26806" lon="-1.55305">
        <ele>66</ele>
        <time>2022-01-20T13:05:11Z</time>
      </trkpt>
      <trkpt lat="47.26805" lon="-1.55306">
        <ele>65</ele>
        <time>2022-01-20T13:05:12Z</time>
      </trkpt>
      <trkpt lat="47.26803" lon="-1.55307">
        <ele>65</ele>
        <time>2022-01-20T13:05:13Z</time>
      </trkpt>
      <trkpt lat="47.26802" lon="-1.55308">
        <ele>65</ele>
        <time>2022-01-20T13:05:14Z</time>
      </trkpt>
      <trkpt lat="47.26801" lon="-1.55309">
        <ele>65</ele>
        <time>2022-01-20T13:05:15Z</time>
      </trkpt>
      <trkpt lat="47.268" lon="-1.5531">
        <ele>64</ele>
        <time>2022-01-20T13:05:16Z</time>
      </trkpt>
      <trkpt lat="47.26799" lon="-1.55311">
        <ele>65</ele>
        <time>2022-01-20T13:05:17Z</time>
      </trkpt>
      <trkpt lat="47.26798" lon="-1.55313">
        <ele>65</ele>
        <time>2022-01-20T13:05:18Z</time>
      </trkpt>
      <trkpt lat="47.26797" lon="-1.55314">
        <ele>65</ele>
        <time>2022-01-20T13:05:19Z</time>
      </trkpt>
      <trkpt lat="47.26796" lon="-1.55316">
        <ele>65</ele>
        <time>2022-01-20T13:05:20Z</time>
      </trkpt>
      <trkpt lat="47.26795" lon="-1.55317">
        <ele>66</ele>
        <time>2022-01-20T13:05:21Z</time>
      </trkpt>
      <trkpt lat="47.26794" lon="-1.55319">
        <ele>66</ele>
        <time>2022-01-20T13:05:22Z</time>
      </trkpt>
      <trkpt lat="47.26793" lon="-1.5532">
        <ele>65</ele>
        <time>2022-01-20T13:05:23Z</time>
      </trkpt>
      <trkpt lat="47.26792" lon="-1.55321">
        <ele>66</ele>
        <time>2022-01-20T13:05:24Z</time>
      </trkpt>
      <trkpt lat="47.26791" lon="-1.55323">
        <ele>66</ele>
        <time>2022-01-20T13:05:25Z</time>
      </trkpt>
      <trkpt lat="47.26791" lon="-1.55324">
        <ele>66</ele>
        <time>2022-01-20T13:05:26Z</time>
      </trkpt>
      <trkpt lat="47.2679" lon="-1.55325">
        <ele>66</ele>
        <time>2022-01-20T13:05:27Z</time>
      </trkpt>
      <trkpt lat="47.26789" lon="-1.55326">
        <ele>66</ele>
        <time>2022-01-20T13:05:28Z</time>
      </trkpt>
      <trkpt lat="47.26788" lon="-1.55327">
        <ele>66</ele>
        <time>2022-01-20T13:05:29Z</time>
      </trkpt>
      <trkpt lat="47.26787" lon="-1.55328">
        <ele>66</ele>
        <time>2022-01-20T13:05:30Z</time>
      </trkpt>
      <trkpt lat="47.26786" lon="-1.55329">
        <ele>66</ele>
        <time>2022-01-20T13:05:31Z</time>
      </trkpt>
      <trkpt lat="47.26785" lon="-1.5533">
        <ele>66</ele>
        <time>2022-01-20T13:05:32Z</time>
      </trkpt>
      <trkpt lat="47.26785" lon="-1.55331">
        <ele>66</ele>
        <time>2022-01-20T13:05:33Z</time>
      </trkpt>
      <trkpt lat="47.26784" lon="-1.55332">
        <ele>66</ele>
        <time>2022-01-20T13:05:34Z</time>
      </trkpt>
      <trkpt lat="47.26783" lon="-1.55333">
        <ele>67</ele>
        <time>2022-01-20T13:05:35Z</time>
      </trkpt>
      <trkpt lat="47.26782" lon="-1.55335">
        <ele>67</ele>
        <time>2022-01-20T13:05:36Z</time>
      </trkpt>
      <trkpt lat="47.26781" lon="-1.55336">
        <ele>66</ele>
        <time>2022-01-20T13:05:37Z</time>
      </trkpt>
      <trkpt lat="47.2678" lon="-1.55337">
        <ele>66</ele>
        <time>2022-01-20T13:05:38Z</time>
      </trkpt>
      <trkpt lat="47.26778" lon="-1.55337">
        <ele>66</ele>
        <time>2022-01-20T13:05:39Z</time>
      </trkpt>
      <trkpt lat="47.26777" lon="-1.55337">
        <ele>66</ele>
        <time>2022-01-20T13:05:40Z</time>
      </trkpt>
      <trkpt lat="47.26775" lon="-1.55337">
        <ele>65</ele>
        <time>2022-01-20T13:05:41Z</time>
      </trkpt>
      <trkpt lat="47.26774" lon="-1.55337">
        <ele>65</ele>
        <time>2022-01-20T13:05:42Z</time>
      </trkpt>
      <trkpt lat="47.26772" lon="-1.55336">
        <ele>64</ele>
        <time>2022-01-20T13:05:43Z</time>
      </trkpt>
      <trkpt lat="47.26771" lon="-1.55335">
        <ele>65</ele>
        <time>2022-01-20T13:05:44Z</time>
      </trkpt>
      <trkpt lat="47.2677" lon="-1.55334">
        <ele>64</ele>
        <time>2022-01-20T13:05:45Z</time>
      </trkpt>
      <trkpt lat="47.26768" lon="-1.55333">
        <ele>65</ele>
        <time>2022-01-20T13:05:46Z</time>
      </trkpt>
      <trkpt lat="47.26767" lon="-1.55332">
        <ele>66</ele>
        <time>2022-01-20T13:05:47Z</time>
      </trkpt>
      <trkpt lat="47.26765" lon="-1.55331">
        <ele>66</ele>
        <time>2022-01-20T13:05:48Z</time>
      </trkpt>
      <trkpt lat="47.26764" lon="-1.5533">
        <ele>66</ele>
        <time>2022-01-20T13:05:49Z</time>
      </trkpt>
      <trkpt lat="47.26762" lon="-1.55329">
        <ele>66</ele>
        <time>2022-01-20T13:05:50Z</time>
      </trkpt>
      <trkpt lat="47.26762" lon="-1.55328">
        <ele>66</ele>
        <time>2022-01-20T13:05:51Z</time>
      </trkpt>
      <trkpt lat="47.2676" lon="-1.55328">
        <ele>66</ele>
        <time>2022-01-20T13:05:52Z</time>
      </trkpt>
      <trkpt lat="47.26759" lon="-1.55327">
        <ele>66</ele>
        <time>2022-01-20T13:05:53Z</time>
      </trkpt>
      <trkpt lat="47.26758" lon="-1.55327">
        <ele>66</ele>
        <time>2022-01-20T13:05:54Z</time>
      </trkpt>
      <trkpt lat="47.26757" lon="-1.55327">
        <ele>66</ele>
        <time>2022-01-20T13:05:55Z</time>
      </trkpt>
      <trkpt lat="47.26756" lon="-1.55326">
        <ele>65</ele>
        <time>2022-01-20T13:05:56Z</time>
      </trkpt>
      <trkpt lat="47.26755" lon="-1.55325">
        <ele>66</ele>
        <time>2022-01-20T13:05:57Z</time>
      </trkpt>
      <trkpt lat="47.26754" lon="-1.55325">
        <ele>65</ele>
        <time>2022-01-20T13:05:58Z</time>
      </trkpt>
      <trkpt lat="47.26754" lon="-1.55324">
        <ele>65</ele>
        <time>2022-01-20T13:05:59Z</time>
      </trkpt>
      <trkpt lat="47.26752" lon="-1.55324">
        <ele>66</ele>
        <time>2022-01-20T13:06:00Z</time>
      </trkpt>
      <trkpt lat="47.26751" lon="-1.55324">
        <ele>66</ele>
        <time>2022-01-20T13:06:01Z</time>
      </trkpt>
      <trkpt lat="47.2675" lon="-1.55324">
        <ele>66</ele>
        <time>2022-01-20T13:06:02Z</time>
      </trkpt>
      <trkpt lat="47.26749" lon="-1.55323">
        <ele>66</ele>
        <time>2022-01-20T13:06:03Z</time>
      </trkpt>
      <trkpt lat="47.26748" lon="-1.55323">
        <ele>66</ele>
        <time>2022-01-20T13:06:04Z</time>
      </trkpt>
      <trkpt lat="47.26747" lon="-1.55322">
        <ele>66</ele>
        <time>2022-01-20T13:06:05Z</time>
      </trkpt>
      <trkpt lat="47.26746" lon="-1.55322">
        <ele>66</ele>
        <time>2022-01-20T13:06:06Z</time>
      </trkpt>
      <trkpt lat="47.26745" lon="-1.55321">
        <ele>66</ele>
        <time>2022-01-20T13:06:07Z</time>
      </trkpt>
      <trkpt lat="47.26744" lon="-1.5532">
        <ele>66</ele>
        <time>2022-01-20T13:06:08Z</time>
      </trkpt>
      <trkpt lat="47.26743" lon="-1.5532">
        <ele>65</ele>
        <time>2022-01-20T13:06:09Z</time>
      </trkpt>
      <trkpt lat="47.26742" lon="-1.55319">
        <ele>65</ele>
        <time>2022-01-20T13:06:10Z</time>
      </trkpt>
      <trkpt lat="47.26741" lon="-1.55318">
        <ele>64</ele>
        <time>2022-01-20T13:06:11Z</time>
      </trkpt>
      <trkpt lat="47.2674" lon="-1.55317">
        <ele>64</ele>
        <time>2022-01-20T13:06:12Z</time>
      </trkpt>
      <trkpt lat="47.26739" lon="-1.55316">
        <ele>64</ele>
        <time>2022-01-20T13:06:13Z</time>
      </trkpt>
      <trkpt lat="47.26738" lon="-1.55316">
        <ele>63</ele>
        <time>2022-01-20T13:06:14Z</time>
      </trkpt>
      <trkpt lat="47.26737" lon="-1.55315">
        <ele>63</ele>
        <time>2022-01-20T13:06:15Z</time>
      </trkpt>
      <trkpt lat="47.26735" lon="-1.55315">
        <ele>63</ele>
        <time>2022-01-20T13:06:16Z</time>
      </trkpt>
      <trkpt lat="47.26735" lon="-1.55315">
        <ele>63</ele>
        <time>2022-01-20T13:06:17Z</time>
      </trkpt>
      <trkpt lat="47.26733" lon="-1.55314">
        <ele>63</ele>
        <time>2022-01-20T13:06:18Z</time>
      </trkpt>
      <trkpt lat="47.26732" lon="-1.55314">
        <ele>63</ele>
        <time>2022-01-20T13:06:19Z</time>
      </trkpt>
      <trkpt lat="47.2673" lon="-1.55313">
        <ele>63</ele>
        <time>2022-01-20T13:06:20Z</time>
      </trkpt>
      <trkpt lat="47.26729" lon="-1.55313">
        <ele>63</ele>
        <time>2022-01-20T13:06:21Z</time>
      </trkpt>
      <trkpt lat="47.26728" lon="-1.55312">
        <ele>63</ele>
        <time>2022-01-20T13:06:22Z</time>
      </trkpt>
      <trkpt lat="47.26727" lon="-1.55311">
        <ele>63</ele>
        <time>2022-01-20T13:06:23Z</time>
      </trkpt>
      <trkpt lat="47.26725" lon="-1.55311">
        <ele>63</ele>
        <time>2022-01-20T13:06:24Z</time>
      </trkpt>
      <trkpt lat="47.26724" lon="-1.55311">
        <ele>63</ele>
        <time>2022-01-20T13:06:25Z</time>
      </trkpt>
      <trkpt lat="47.26722" lon="-1.5531">
        <ele>63</ele>
        <time>2022-01-20T13:06:26Z</time>
      </trkpt>
      <trkpt lat="47.26721" lon="-1.5531">
        <ele>63</ele>
        <time>2022-01-20T13:06:27Z</time>
      </trkpt>
      <trkpt lat="47.2672" lon="-1.5531">
        <ele>63</ele>
        <time>2022-01-20T13:06:28Z</time>
      </trkpt>
      <trkpt lat="47.26719" lon="-1.5531">
        <ele>63</ele>
        <time>2022-01-20T13:06:29Z</time>
      </trkpt>
      <trkpt lat="47.26719" lon="-1.5531">
        <ele>64</ele>
        <time>2022-01-20T13:06:30Z</time>
      </trkpt>
      <trkpt lat="47.26717" lon="-1.55309">
        <ele>65</ele>
        <time>2022-01-20T13:06:31Z</time>
      </trkpt>
      <trkpt lat="47.26717" lon="-1.55309">
        <ele>64</ele>
        <time>2022-01-20T13:06:32Z</time>
      </trkpt>
      <trkpt lat="47.26715" lon="-1.55308">
        <ele>64</ele>
        <time>2022-01-20T13:06:33Z</time>
      </trkpt>
      <trkpt lat="47.26714" lon="-1.55308">
        <ele>64</ele>
        <time>2022-01-20T13:06:34Z</time>
      </trkpt>
      <trkpt lat="47.26712" lon="-1.55308">
        <ele>64</ele>
        <time>2022-01-20T13:06:35Z</time>
      </trkpt>
      <trkpt lat="47.26711" lon="-1.55308">
        <ele>64</ele>
        <time>2022-01-20T13:06:36Z</time>
      </trkpt>
      <trkpt lat="47.2671" lon="-1.55307">
        <ele>64</ele>
        <time>2022-01-20T13:06:37Z</time>
      </trkpt>
      <trkpt lat="47.26709" lon="-1.55307">
        <ele>64</ele>
        <time>2022-01-20T13:06:38Z</time>
      </trkpt>
      <trkpt lat="47.26707" lon="-1.55307">
        <ele>63</ele>
        <time>2022-01-20T13:06:39Z</time>
      </trkpt>
      <trkpt lat="47.26705" lon="-1.55306">
        <ele>63</ele>
        <time>2022-01-20T13:06:40Z</time>
      </trkpt>
      <trkpt lat="47.26704" lon="-1.55306">
        <ele>63</ele>
        <time>2022-01-20T13:06:41Z</time>
      </trkpt>
      <trkpt lat="47.26703" lon="-1.55305">
        <ele>63</ele>
        <time>2022-01-20T13:06:42Z</time>
      </trkpt>
      <trkpt lat="47.26701" lon="-1.55305">
        <ele>63</ele>
        <time>2022-01-20T13:06:43Z</time>
      </trkpt>
      <trkpt lat="47.26701" lon="-1.55305">
        <ele>63</ele>
        <time>2022-01-20T13:06:44Z</time>
      </trkpt>
      <trkpt lat="47.26699" lon="-1.55304">
        <ele>63</ele>
        <time>2022-01-20T13:06:45Z</time>
      </trkpt>
      <trkpt lat="47.26698" lon="-1.55304">
        <ele>63</ele>
        <time>2022-01-20T13:06:46Z</time>
      </trkpt>
      <trkpt lat="47.26698" lon="-1.55304">
        <ele>63</ele>
        <time>2022-01-20T13:06:47Z</time>
      </trkpt>
      <trkpt lat="47.26698" lon="-1.55304">
        <ele>63</ele>
        <time>2022-01-20T13:06:48Z</time>
      </trkpt>
      <trkpt lat="47.26697" lon="-1.55303">
        <ele>63</ele>
        <time>2022-01-20T13:06:49Z</time>
      </trkpt>
      <trkpt lat="47.26695" lon="-1.55303">
        <ele>63</ele>
        <time>2022-01-20T13:06:50Z</time>
      </trkpt>
      <trkpt lat="47.26694" lon="-1.55303">
        <ele>63</ele>
        <time>2022-01-20T13:06:51Z</time>
      </trkpt>
      <trkpt lat="47.26693" lon="-1.55303">
        <ele>62</ele>
        <time>2022-01-20T13:06:52Z</time>
      </trkpt>
      <trkpt lat="47.26692" lon="-1.55303">
        <ele>63</ele>
        <time>2022-01-20T13:06:53Z</time>
      </trkpt>
      <trkpt lat="47.26691" lon="-1.55302">
        <ele>62</ele>
        <time>2022-01-20T13:06:54Z</time>
      </trkpt>
      <trkpt lat="47.2669" lon="-1.55302">
        <ele>63</ele>
        <time>2022-01-20T13:06:55Z</time>
      </trkpt>
      <trkpt lat="47.26688" lon="-1.55302">
        <ele>63</ele>
        <time>2022-01-20T13:06:56Z</time>
      </trkpt>
      <trkpt lat="47.26687" lon="-1.55302">
        <ele>63</ele>
        <time>2022-01-20T13:06:57Z</time>
      </trkpt>
      <trkpt lat="47.26686" lon="-1.55301">
        <ele>63</ele>
        <time>2022-01-20T13:06:58Z</time>
      </trkpt>
      <trkpt lat="47.26685" lon="-1.55301">
        <ele>63</ele>
        <time>2022-01-20T13:06:59Z</time>
      </trkpt>
      <trkpt lat="47.26683" lon="-1.553">
        <ele>63</ele>
        <time>2022-01-20T13:07:00Z</time>
      </trkpt>
      <trkpt lat="47.26682" lon="-1.55299">
        <ele>63</ele>
        <time>2022-01-20T13:07:01Z</time>
      </trkpt>
      <trkpt lat="47.2668" lon="-1.55298">
        <ele>63</ele>
        <time>2022-01-20T13:07:02Z</time>
      </trkpt>
      <trkpt lat="47.26679" lon="-1.55297">
        <ele>64</ele>
        <time>2022-01-20T13:07:03Z</time>
      </trkpt>
      <trkpt lat="47.26677" lon="-1.55297">
        <ele>64</ele>
        <time>2022-01-20T13:07:04Z</time>
      </trkpt>
      <trkpt lat="47.26676" lon="-1.55295">
        <ele>64</ele>
        <time>2022-01-20T13:07:05Z</time>
      </trkpt>
      <trkpt lat="47.26675" lon="-1.55294">
        <ele>65</ele>
        <time>2022-01-20T13:07:06Z</time>
      </trkpt>
      <trkpt lat="47.26673" lon="-1.55294">
        <ele>65</ele>
        <time>2022-01-20T13:07:07Z</time>
      </trkpt>
      <trkpt lat="47.26672" lon="-1.55293">
        <ele>65</ele>
        <time>2022-01-20T13:07:08Z</time>
      </trkpt>
      <trkpt lat="47.26671" lon="-1.55292">
        <ele>65</ele>
        <time>2022-01-20T13:07:09Z</time>
      </trkpt>
      <trkpt lat="47.2667" lon="-1.55291">
        <ele>65</ele>
        <time>2022-01-20T13:07:10Z</time>
      </trkpt>
      <trkpt lat="47.26669" lon="-1.5529">
        <ele>65</ele>
        <time>2022-01-20T13:07:11Z</time>
      </trkpt>
      <trkpt lat="47.26667" lon="-1.5529">
        <ele>65</ele>
        <time>2022-01-20T13:07:12Z</time>
      </trkpt>
      <trkpt lat="47.26666" lon="-1.55289">
        <ele>64</ele>
        <time>2022-01-20T13:07:13Z</time>
      </trkpt>
      <trkpt lat="47.26664" lon="-1.55288">
        <ele>64</ele>
        <time>2022-01-20T13:07:14Z</time>
      </trkpt>
      <trkpt lat="47.26663" lon="-1.55287">
        <ele>64</ele>
        <time>2022-01-20T13:07:15Z</time>
      </trkpt>
      <trkpt lat="47.26662" lon="-1.55286">
        <ele>64</ele>
        <time>2022-01-20T13:07:16Z</time>
      </trkpt>
      <trkpt lat="47.26661" lon="-1.55285">
        <ele>64</ele>
        <time>2022-01-20T13:07:17Z</time>
      </trkpt>
      <trkpt lat="47.2666" lon="-1.55284">
        <ele>64</ele>
        <time>2022-01-20T13:07:18Z</time>
      </trkpt>
      <trkpt lat="47.26659" lon="-1.55283">
        <ele>63</ele>
        <time>2022-01-20T13:07:19Z</time>
      </trkpt>
      <trkpt lat="47.26658" lon="-1.55281">
        <ele>63</ele>
        <time>2022-01-20T13:07:20Z</time>
      </trkpt>
      <trkpt lat="47.26656" lon="-1.5528">
        <ele>63</ele>
        <time>2022-01-20T13:07:21Z</time>
      </trkpt>
      <trkpt lat="47.26654" lon="-1.55279">
        <ele>62</ele>
        <time>2022-01-20T13:07:22Z</time>
      </trkpt>
      <trkpt lat="47.26654" lon="-1.55279">
        <ele>63</ele>
        <time>2022-01-20T13:07:23Z</time>
      </trkpt>
      <trkpt lat="47.26653" lon="-1.55278">
        <ele>63</ele>
        <time>2022-01-20T13:07:24Z</time>
      </trkpt>
      <trkpt lat="47.26651" lon="-1.55277">
        <ele>63</ele>
        <time>2022-01-20T13:07:25Z</time>
      </trkpt>
      <trkpt lat="47.2665" lon="-1.55276">
        <ele>63</ele>
        <time>2022-01-20T13:07:26Z</time>
      </trkpt>
      <trkpt lat="47.26649" lon="-1.55276">
        <ele>63</ele>
        <time>2022-01-20T13:07:27Z</time>
      </trkpt>
      <trkpt lat="47.26647" lon="-1.55275">
        <ele>64</ele>
        <time>2022-01-20T13:07:28Z</time>
      </trkpt>
      <trkpt lat="47.26646" lon="-1.55275">
        <ele>64</ele>
        <time>2022-01-20T13:07:29Z</time>
      </trkpt>
      <trkpt lat="47.26645" lon="-1.55274">
        <ele>64</ele>
        <time>2022-01-20T13:07:30Z</time>
      </trkpt>
      <trkpt lat="47.26643" lon="-1.55273">
        <ele>64</ele>
        <time>2022-01-20T13:07:31Z</time>
      </trkpt>
      <trkpt lat="47.26642" lon="-1.55273">
        <ele>64</ele>
        <time>2022-01-20T13:07:32Z</time>
      </trkpt>
      <trkpt lat="47.2664" lon="-1.55272">
        <ele>64</ele>
        <time>2022-01-20T13:07:33Z</time>
      </trkpt>
      <trkpt lat="47.26639" lon="-1.55271">
        <ele>64</ele>
        <time>2022-01-20T13:07:34Z</time>
      </trkpt>
      <trkpt lat="47.26638" lon="-1.5527">
        <ele>64</ele>
        <time>2022-01-20T13:07:35Z</time>
      </trkpt>
      <trkpt lat="47.26637" lon="-1.55269">
        <ele>64</ele>
        <time>2022-01-20T13:07:36Z</time>
      </trkpt>
      <trkpt lat="47.26636" lon="-1.55268">
        <ele>64</ele>
        <time>2022-01-20T13:07:37Z</time>
      </trkpt>
      <trkpt lat="47.26634" lon="-1.55267">
        <ele>64</ele>
        <time>2022-01-20T13:07:38Z</time>
      </trkpt>
      <trkpt lat="47.26632" lon="-1.55265">
        <ele>63</ele>
        <time>2022-01-20T13:07:39Z</time>
      </trkpt>
      <trkpt lat="47.26631" lon="-1.55264">
        <ele>63</ele>
        <time>2022-01-20T13:07:40Z</time>
      </trkpt>
      <trkpt lat="47.26629" lon="-1.55262">
        <ele>63</ele>
        <time>2022-01-20T13:07:41Z</time>
      </trkpt>
      <trkpt lat="47.26628" lon="-1.55261">
        <ele>64</ele>
        <time>2022-01-20T13:07:42Z</time>
      </trkpt>
      <trkpt lat="47.26626" lon="-1.5526">
        <ele>64</ele>
        <time>2022-01-20T13:07:43Z</time>
      </trkpt>
      <trkpt lat="47.26624" lon="-1.55259">
        <ele>64</ele>
        <time>2022-01-20T13:07:44Z</time>
      </trkpt>
      <trkpt lat="47.26622" lon="-1.55258">
        <ele>64</ele>
        <time>2022-01-20T13:07:45Z</time>
      </trkpt>
      <trkpt lat="47.26621" lon="-1.55257">
        <ele>64</ele>
        <time>2022-01-20T13:07:46Z</time>
      </trkpt>
      <trkpt lat="47.2662" lon="-1.55256">
        <ele>63</ele>
        <time>2022-01-20T13:07:47Z</time>
      </trkpt>
      <trkpt lat="47.26618" lon="-1.55255">
        <ele>64</ele>
        <time>2022-01-20T13:07:48Z</time>
      </trkpt>
      <trkpt lat="47.26617" lon="-1.55255">
        <ele>64</ele>
        <time>2022-01-20T13:07:49Z</time>
      </trkpt>
      <trkpt lat="47.26616" lon="-1.55254">
        <ele>64</ele>
        <time>2022-01-20T13:07:50Z</time>
      </trkpt>
      <trkpt lat="47.26615" lon="-1.55253">
        <ele>64</ele>
        <time>2022-01-20T13:07:51Z</time>
      </trkpt>
      <trkpt lat="47.26614" lon="-1.55252">
        <ele>64</ele>
        <time>2022-01-20T13:07:52Z</time>
      </trkpt>
      <trkpt lat="47.26613" lon="-1.55251">
        <ele>65</ele>
        <time>2022-01-20T13:07:53Z</time>
      </trkpt>
      <trkpt lat="47.26612" lon="-1.5525">
        <ele>65</ele>
        <time>2022-01-20T13:07:54Z</time>
      </trkpt>
      <trkpt lat="47.26611" lon="-1.5525">
        <ele>64</ele>
        <time>2022-01-20T13:07:55Z</time>
      </trkpt>
      <trkpt lat="47.26609" lon="-1.5525">
        <ele>64</ele>
        <time>2022-01-20T13:07:56Z</time>
      </trkpt>
      <trkpt lat="47.26608" lon="-1.55249">
        <ele>65</ele>
        <time>2022-01-20T13:07:57Z</time>
      </trkpt>
      <trkpt lat="47.26607" lon="-1.55249">
        <ele>65</ele>
        <time>2022-01-20T13:07:58Z</time>
      </trkpt>
      <trkpt lat="47.26606" lon="-1.55248">
        <ele>65</ele>
        <time>2022-01-20T13:07:59Z</time>
      </trkpt>
      <trkpt lat="47.26605" lon="-1.55247">
        <ele>65</ele>
        <time>2022-01-20T13:08:00Z</time>
      </trkpt>
      <trkpt lat="47.26604" lon="-1.55247">
        <ele>65</ele>
        <time>2022-01-20T13:08:01Z</time>
      </trkpt>
      <trkpt lat="47.26603" lon="-1.55246">
        <ele>65</ele>
        <time>2022-01-20T13:08:02Z</time>
      </trkpt>
      <trkpt lat="47.26602" lon="-1.55246">
        <ele>64</ele>
        <time>2022-01-20T13:08:03Z</time>
      </trkpt>
      <trkpt lat="47.26602" lon="-1.55246">
        <ele>64</ele>
        <time>2022-01-20T13:08:04Z</time>
      </trkpt>
      <trkpt lat="47.26602" lon="-1.55246">
        <ele>64</ele>
        <time>2022-01-20T13:08:05Z</time>
      </trkpt>
      <trkpt lat="47.26601" lon="-1.55245">
        <ele>64</ele>
        <time>2022-01-20T13:08:06Z</time>
      </trkpt>
      <trkpt lat="47.266" lon="-1.55244">
        <ele>64</ele>
        <time>2022-01-20T13:08:07Z</time>
      </trkpt>
      <trkpt lat="47.26599" lon="-1.55244">
        <ele>64</ele>
        <time>2022-01-20T13:08:08Z</time>
      </trkpt>
      <trkpt lat="47.26598" lon="-1.55243">
        <ele>64</ele>
        <time>2022-01-20T13:08:09Z</time>
      </trkpt>
      <trkpt lat="47.26597" lon="-1.55242">
        <ele>64</ele>
        <time>2022-01-20T13:08:10Z</time>
      </trkpt>
      <trkpt lat="47.26595" lon="-1.55242">
        <ele>65</ele>
        <time>2022-01-20T13:08:11Z</time>
      </trkpt>
      <trkpt lat="47.26593" lon="-1.55241">
        <ele>65</ele>
        <time>2022-01-20T13:08:12Z</time>
      </trkpt>
      <trkpt lat="47.26593" lon="-1.5524">
        <ele>65</ele>
        <time>2022-01-20T13:08:13Z</time>
      </trkpt>
      <trkpt lat="47.26592" lon="-1.5524">
        <ele>65</ele>
        <time>2022-01-20T13:08:14Z</time>
      </trkpt>
      <trkpt lat="47.26591" lon="-1.55239">
        <ele>65</ele>
        <time>2022-01-20T13:08:15Z</time>
      </trkpt>
      <trkpt lat="47.2659" lon="-1.55239">
        <ele>65</ele>
        <time>2022-01-20T13:08:16Z</time>
      </trkpt>
      <trkpt lat="47.26588" lon="-1.55238">
        <ele>65</ele>
        <time>2022-01-20T13:08:17Z</time>
      </trkpt>
      <trkpt lat="47.26587" lon="-1.55237">
        <ele>65</ele>
        <time>2022-01-20T13:08:18Z</time>
      </trkpt>
      <trkpt lat="47.26586" lon="-1.55236">
        <ele>66</ele>
        <time>2022-01-20T13:08:19Z</time>
      </trkpt>
      <trkpt lat="47.26585" lon="-1.55235">
        <ele>66</ele>
        <time>2022-01-20T13:08:20Z</time>
      </trkpt>
      <trkpt lat="47.26583" lon="-1.55235">
        <ele>65</ele>
        <time>2022-01-20T13:08:21Z</time>
      </trkpt>
      <trkpt lat="47.26582" lon="-1.55235">
        <ele>65</ele>
        <time>2022-01-20T13:08:22Z</time>
      </trkpt>
      <trkpt lat="47.2658" lon="-1.55235">
        <ele>64</ele>
        <time>2022-01-20T13:08:23Z</time>
      </trkpt>
      <trkpt lat="47.26579" lon="-1.55235">
        <ele>64</ele>
        <time>2022-01-20T13:08:24Z</time>
      </trkpt>
      <trkpt lat="47.26577" lon="-1.55235">
        <ele>64</ele>
        <time>2022-01-20T13:08:25Z</time>
      </trkpt>
      <trkpt lat="47.26576" lon="-1.55236">
        <ele>64</ele>
        <time>2022-01-20T13:08:26Z</time>
      </trkpt>
      <trkpt lat="47.26576" lon="-1.55237">
        <ele>64</ele>
        <time>2022-01-20T13:08:27Z</time>
      </trkpt>
      <trkpt lat="47.26575" lon="-1.55237">
        <ele>64</ele>
        <time>2022-01-20T13:08:28Z</time>
      </trkpt>
      <trkpt lat="47.26574" lon="-1.55237">
        <ele>64</ele>
        <time>2022-01-20T13:08:29Z</time>
      </trkpt>
      <trkpt lat="47.26574" lon="-1.55237">
        <ele>64</ele>
        <time>2022-01-20T13:08:30Z</time>
      </trkpt>
      <trkpt lat="47.26573" lon="-1.55237">
        <ele>65</ele>
        <time>2022-01-20T13:08:31Z</time>
      </trkpt>
      <trkpt lat="47.26572" lon="-1.55238">
        <ele>64</ele>
        <time>2022-01-20T13:08:32Z</time>
      </trkpt>
      <trkpt lat="47.26572" lon="-1.55239">
        <ele>64</ele>
        <time>2022-01-20T13:08:33Z</time>
      </trkpt>
      <trkpt lat="47.26571" lon="-1.55239">
        <ele>64</ele>
        <time>2022-01-20T13:08:34Z</time>
      </trkpt>
      <trkpt lat="47.2657" lon="-1.55241">
        <ele>63</ele>
        <time>2022-01-20T13:08:35Z</time>
      </trkpt>
      <trkpt lat="47.26569" lon="-1.55242">
        <ele>63</ele>
        <time>2022-01-20T13:08:36Z</time>
      </trkpt>
      <trkpt lat="47.26568" lon="-1.55244">
        <ele>63</ele>
        <time>2022-01-20T13:08:37Z</time>
      </trkpt>
      <trkpt lat="47.26568" lon="-1.55245">
        <ele>62</ele>
        <time>2022-01-20T13:08:38Z</time>
      </trkpt>
      <trkpt lat="47.26567" lon="-1.55247">
        <ele>62</ele>
        <time>2022-01-20T13:08:39Z</time>
      </trkpt>
      <trkpt lat="47.26566" lon="-1.55249">
        <ele>62</ele>
        <time>2022-01-20T13:08:40Z</time>
      </trkpt>
      <trkpt lat="47.26565" lon="-1.5525">
        <ele>62</ele>
        <time>2022-01-20T13:08:41Z</time>
      </trkpt>
      <trkpt lat="47.26565" lon="-1.55252">
        <ele>63</ele>
        <time>2022-01-20T13:08:42Z</time>
      </trkpt>
      <trkpt lat="47.26564" lon="-1.55253">
        <ele>63</ele>
        <time>2022-01-20T13:08:43Z</time>
      </trkpt>
      <trkpt lat="47.26563" lon="-1.55255">
        <ele>63</ele>
        <time>2022-01-20T13:08:44Z</time>
      </trkpt>
      <trkpt lat="47.26563" lon="-1.55257">
        <ele>62</ele>
        <time>2022-01-20T13:08:45Z</time>
      </trkpt>
      <trkpt lat="47.26561" lon="-1.55259">
        <ele>62</ele>
        <time>2022-01-20T13:08:46Z</time>
      </trkpt>
      <trkpt lat="47.26561" lon="-1.55261">
        <ele>62</ele>
        <time>2022-01-20T13:08:47Z</time>
      </trkpt>
      <trkpt lat="47.2656" lon="-1.55263">
        <ele>62</ele>
        <time>2022-01-20T13:08:48Z</time>
      </trkpt>
      <trkpt lat="47.26559" lon="-1.55264">
        <ele>62</ele>
        <time>2022-01-20T13:08:49Z</time>
      </trkpt>
      <trkpt lat="47.26559" lon="-1.55266">
        <ele>63</ele>
        <time>2022-01-20T13:08:50Z</time>
      </trkpt>
      <trkpt lat="47.26559" lon="-1.55268">
        <ele>63</ele>
        <time>2022-01-20T13:08:51Z</time>
      </trkpt>
      <trkpt lat="47.26558" lon="-1.55269">
        <ele>63</ele>
        <time>2022-01-20T13:08:52Z</time>
      </trkpt>
      <trkpt lat="47.26558" lon="-1.55271">
        <ele>63</ele>
        <time>2022-01-20T13:08:53Z</time>
      </trkpt>
      <trkpt lat="47.26557" lon="-1.55273">
        <ele>63</ele>
        <time>2022-01-20T13:08:54Z</time>
      </trkpt>
      <trkpt lat="47.26557" lon="-1.55276">
        <ele>63</ele>
        <time>2022-01-20T13:08:55Z</time>
      </trkpt>
      <trkpt lat="47.26556" lon="-1.55278">
        <ele>62</ele>
        <time>2022-01-20T13:08:56Z</time>
      </trkpt>
      <trkpt lat="47.26555" lon="-1.5528">
        <ele>62</ele>
        <time>2022-01-20T13:08:57Z</time>
      </trkpt>
      <trkpt lat="47.26554" lon="-1.55282">
        <ele>62</ele>
        <time>2022-01-20T13:08:58Z</time>
      </trkpt>
      <trkpt lat="47.26553" lon="-1.55284">
        <ele>61</ele>
        <time>2022-01-20T13:08:59Z</time>
      </trkpt>
      <trkpt lat="47.26553" lon="-1.55285">
        <ele>61</ele>
        <time>2022-01-20T13:09:00Z</time>
      </trkpt>
      <trkpt lat="47.26552" lon="-1.55287">
        <ele>61</ele>
        <time>2022-01-20T13:09:01Z</time>
      </trkpt>
      <trkpt lat="47.26551" lon="-1.55289">
        <ele>61</ele>
        <time>2022-01-20T13:09:02Z</time>
      </trkpt>
      <trkpt lat="47.2655" lon="-1.5529">
        <ele>61</ele>
        <time>2022-01-20T13:09:03Z</time>
      </trkpt>
      <trkpt lat="47.2655" lon="-1.55292">
        <ele>61</ele>
        <time>2022-01-20T13:09:04Z</time>
      </trkpt>
      <trkpt lat="47.26549" lon="-1.55294">
        <ele>61</ele>
        <time>2022-01-20T13:09:05Z</time>
      </trkpt>
      <trkpt lat="47.26548" lon="-1.55296">
        <ele>61</ele>
        <time>2022-01-20T13:09:06Z</time>
      </trkpt>
      <trkpt lat="47.26547" lon="-1.55297">
        <ele>61</ele>
        <time>2022-01-20T13:09:07Z</time>
      </trkpt>
      <trkpt lat="47.26547" lon="-1.55299">
        <ele>61</ele>
        <time>2022-01-20T13:09:08Z</time>
      </trkpt>
      <trkpt lat="47.26545" lon="-1.55301">
        <ele>60</ele>
        <time>2022-01-20T13:09:09Z</time>
      </trkpt>
      <trkpt lat="47.26545" lon="-1.55303">
        <ele>60</ele>
        <time>2022-01-20T13:09:10Z</time>
      </trkpt>
      <trkpt lat="47.26544" lon="-1.55304">
        <ele>60</ele>
        <time>2022-01-20T13:09:11Z</time>
      </trkpt>
      <trkpt lat="47.26543" lon="-1.55306">
        <ele>60</ele>
        <time>2022-01-20T13:09:12Z</time>
      </trkpt>
      <trkpt lat="47.26542" lon="-1.55308">
        <ele>60</ele>
        <time>2022-01-20T13:09:13Z</time>
      </trkpt>
      <trkpt lat="47.26541" lon="-1.5531">
        <ele>61</ele>
        <time>2022-01-20T13:09:14Z</time>
      </trkpt>
      <trkpt lat="47.2654" lon="-1.55312">
        <ele>61</ele>
        <time>2022-01-20T13:09:15Z</time>
      </trkpt>
      <trkpt lat="47.2654" lon="-1.55314">
        <ele>61</ele>
        <time>2022-01-20T13:09:16Z</time>
      </trkpt>
      <trkpt lat="47.26539" lon="-1.55316">
        <ele>61</ele>
        <time>2022-01-20T13:09:17Z</time>
      </trkpt>
      <trkpt lat="47.26539" lon="-1.55317">
        <ele>62</ele>
        <time>2022-01-20T13:09:18Z</time>
      </trkpt>
      <trkpt lat="47.26537" lon="-1.55319">
        <ele>62</ele>
        <time>2022-01-20T13:09:19Z</time>
      </trkpt>
      <trkpt lat="47.26537" lon="-1.55321">
        <ele>62</ele>
        <time>2022-01-20T13:09:20Z</time>
      </trkpt>
      <trkpt lat="47.26537" lon="-1.55323">
        <ele>62</ele>
        <time>2022-01-20T13:09:21Z</time>
      </trkpt>
      <trkpt lat="47.26536" lon="-1.55325">
        <ele>62</ele>
        <time>2022-01-20T13:09:22Z</time>
      </trkpt>
      <trkpt lat="47.26535" lon="-1.55326">
        <ele>63</ele>
        <time>2022-01-20T13:09:23Z</time>
      </trkpt>
      <trkpt lat="47.26534" lon="-1.55327">
        <ele>63</ele>
        <time>2022-01-20T13:09:24Z</time>
      </trkpt>
      <trkpt lat="47.26532" lon="-1.55327">
        <ele>63</ele>
        <time>2022-01-20T13:09:25Z</time>
      </trkpt>
      <trkpt lat="47.26531" lon="-1.55328">
        <ele>63</ele>
        <time>2022-01-20T13:09:26Z</time>
      </trkpt>
      <trkpt lat="47.26529" lon="-1.55328">
        <ele>63</ele>
        <time>2022-01-20T13:09:27Z</time>
      </trkpt>
      <trkpt lat="47.26527" lon="-1.55329">
        <ele>63</ele>
        <time>2022-01-20T13:09:28Z</time>
      </trkpt>
      <trkpt lat="47.26526" lon="-1.55329">
        <ele>63</ele>
        <time>2022-01-20T13:09:29Z</time>
      </trkpt>
      <trkpt lat="47.26523" lon="-1.55329">
        <ele>63</ele>
        <time>2022-01-20T13:09:30Z</time>
      </trkpt>
      <trkpt lat="47.26522" lon="-1.55328">
        <ele>62</ele>
        <time>2022-01-20T13:09:31Z</time>
      </trkpt>
      <trkpt lat="47.26519" lon="-1.55328">
        <ele>63</ele>
        <time>2022-01-20T13:09:32Z</time>
      </trkpt>
      <trkpt lat="47.26518" lon="-1.55327">
        <ele>63</ele>
        <time>2022-01-20T13:09:33Z</time>
      </trkpt>
      <trkpt lat="47.26516" lon="-1.55326">
        <ele>63</ele>
        <time>2022-01-20T13:09:34Z</time>
      </trkpt>
      <trkpt lat="47.26515" lon="-1.55326">
        <ele>62</ele>
        <time>2022-01-20T13:09:35Z</time>
      </trkpt>
      <trkpt lat="47.26513" lon="-1.55325">
        <ele>63</ele>
        <time>2022-01-20T13:09:36Z</time>
      </trkpt>
      <trkpt lat="47.26512" lon="-1.55324">
        <ele>63</ele>
        <time>2022-01-20T13:09:37Z</time>
      </trkpt>
      <trkpt lat="47.26511" lon="-1.55323">
        <ele>63</ele>
        <time>2022-01-20T13:09:38Z</time>
      </trkpt>
      <trkpt lat="47.2651" lon="-1.55322">
        <ele>63</ele>
        <time>2022-01-20T13:09:39Z</time>
      </trkpt>
      <trkpt lat="47.26508" lon="-1.55321">
        <ele>63</ele>
        <time>2022-01-20T13:09:40Z</time>
      </trkpt>
      <trkpt lat="47.26506" lon="-1.5532">
        <ele>64</ele>
        <time>2022-01-20T13:09:41Z</time>
      </trkpt>
      <trkpt lat="47.26505" lon="-1.55319">
        <ele>65</ele>
        <time>2022-01-20T13:09:42Z</time>
      </trkpt>
      <trkpt lat="47.26503" lon="-1.55319">
        <ele>65</ele>
        <time>2022-01-20T13:09:43Z</time>
      </trkpt>
      <trkpt lat="47.26501" lon="-1.55318">
        <ele>65</ele>
        <time>2022-01-20T13:09:44Z</time>
      </trkpt>
      <trkpt lat="47.265" lon="-1.55317">
        <ele>66</ele>
        <time>2022-01-20T13:09:45Z</time>
      </trkpt>
      <trkpt lat="47.26498" lon="-1.55316">
        <ele>67</ele>
        <time>2022-01-20T13:09:46Z</time>
      </trkpt>
      <trkpt lat="47.26497" lon="-1.55315">
        <ele>67</ele>
        <time>2022-01-20T13:09:47Z</time>
      </trkpt>
      <trkpt lat="47.26496" lon="-1.55314">
        <ele>68</ele>
        <time>2022-01-20T13:09:48Z</time>
      </trkpt>
      <trkpt lat="47.26494" lon="-1.55312">
        <ele>68</ele>
        <time>2022-01-20T13:09:49Z</time>
      </trkpt>
      <trkpt lat="47.26493" lon="-1.55311">
        <ele>68</ele>
        <time>2022-01-20T13:09:50Z</time>
      </trkpt>
      <trkpt lat="47.26492" lon="-1.5531">
        <ele>68</ele>
        <time>2022-01-20T13:09:51Z</time>
      </trkpt>
      <trkpt lat="47.2649" lon="-1.55308">
        <ele>68</ele>
        <time>2022-01-20T13:09:52Z</time>
      </trkpt>
      <trkpt lat="47.26487" lon="-1.55305">
        <ele>67</ele>
        <time>2022-01-20T13:09:54Z</time>
      </trkpt>
      <trkpt lat="47.26485" lon="-1.55304">
        <ele>67</ele>
        <time>2022-01-20T13:09:56Z</time>
      </trkpt>
      <trkpt lat="47.26483" lon="-1.55303">
        <ele>68</ele>
        <time>2022-01-20T13:09:57Z</time>
      </trkpt>
      <trkpt lat="47.26482" lon="-1.55303">
        <ele>68</ele>
        <time>2022-01-20T13:09:58Z</time>
      </trkpt>
      <trkpt lat="47.2648" lon="-1.55303">
        <ele>68</ele>
        <time>2022-01-20T13:09:59Z</time>
      </trkpt>
      <trkpt lat="47.26479" lon="-1.55302">
        <ele>69</ele>
        <time>2022-01-20T13:10:00Z</time>
      </trkpt>
      <trkpt lat="47.26478" lon="-1.55302">
        <ele>70</ele>
        <time>2022-01-20T13:10:01Z</time>
      </trkpt>
      <trkpt lat="47.26477" lon="-1.55303">
        <ele>71</ele>
        <time>2022-01-20T13:10:02Z</time>
      </trkpt>
      <trkpt lat="47.26476" lon="-1.55302">
        <ele>71</ele>
        <time>2022-01-20T13:10:03Z</time>
      </trkpt>
      <trkpt lat="47.26475" lon="-1.55302">
        <ele>72</ele>
        <time>2022-01-20T13:10:04Z</time>
      </trkpt>
      <trkpt lat="47.26473" lon="-1.55302">
        <ele>74</ele>
        <time>2022-01-20T13:10:05Z</time>
      </trkpt>
      <trkpt lat="47.26472" lon="-1.55302">
        <ele>75</ele>
        <time>2022-01-20T13:10:06Z</time>
      </trkpt>
      <trkpt lat="47.26471" lon="-1.55302">
        <ele>76</ele>
        <time>2022-01-20T13:10:07Z</time>
      </trkpt>
      <trkpt lat="47.2647" lon="-1.55302">
        <ele>77</ele>
        <time>2022-01-20T13:10:08Z</time>
      </trkpt>
      <trkpt lat="47.26468" lon="-1.55301">
        <ele>77</ele>
        <time>2022-01-20T13:10:09Z</time>
      </trkpt>
      <trkpt lat="47.26467" lon="-1.553">
        <ele>78</ele>
        <time>2022-01-20T13:10:10Z</time>
      </trkpt>
      <trkpt lat="47.26466" lon="-1.55299">
        <ele>78</ele>
        <time>2022-01-20T13:10:11Z</time>
      </trkpt>
      <trkpt lat="47.26465" lon="-1.55298">
        <ele>79</ele>
        <time>2022-01-20T13:10:12Z</time>
      </trkpt>
      <trkpt lat="47.26465" lon="-1.55298">
        <ele>80</ele>
        <time>2022-01-20T13:10:13Z</time>
      </trkpt>
      <trkpt lat="47.26464" lon="-1.55297">
        <ele>81</ele>
        <time>2022-01-20T13:10:14Z</time>
      </trkpt>
      <trkpt lat="47.26463" lon="-1.55296">
        <ele>81</ele>
        <time>2022-01-20T13:10:15Z</time>
      </trkpt>
      <trkpt lat="47.26462" lon="-1.55296">
        <ele>82</ele>
        <time>2022-01-20T13:10:16Z</time>
      </trkpt>
      <trkpt lat="47.26461" lon="-1.55295">
        <ele>82</ele>
        <time>2022-01-20T13:10:17Z</time>
      </trkpt>
      <trkpt lat="47.2646" lon="-1.55295">
        <ele>83</ele>
        <time>2022-01-20T13:10:18Z</time>
      </trkpt>
      <trkpt lat="47.26459" lon="-1.55295">
        <ele>84</ele>
        <time>2022-01-20T13:10:19Z</time>
      </trkpt>
      <trkpt lat="47.26458" lon="-1.55295">
        <ele>85</ele>
        <time>2022-01-20T13:10:20Z</time>
      </trkpt>
      <trkpt lat="47.26458" lon="-1.55294">
        <ele>86</ele>
        <time>2022-01-20T13:10:21Z</time>
      </trkpt>
      <trkpt lat="47.26457" lon="-1.55293">
        <ele>87</ele>
        <time>2022-01-20T13:10:22Z</time>
      </trkpt>
      <trkpt lat="47.26457" lon="-1.55293">
        <ele>87</ele>
        <time>2022-01-20T13:10:23Z</time>
      </trkpt>
      <trkpt lat="47.26456" lon="-1.55291">
        <ele>87</ele>
        <time>2022-01-20T13:10:24Z</time>
      </trkpt>
      <trkpt lat="47.26455" lon="-1.55289">
        <ele>87</ele>
        <time>2022-01-20T13:10:25Z</time>
      </trkpt>
      <trkpt lat="47.26454" lon="-1.55288">
        <ele>87</ele>
        <time>2022-01-20T13:10:26Z</time>
      </trkpt>
      <trkpt lat="47.26453" lon="-1.55286">
        <ele>87</ele>
        <time>2022-01-20T13:10:27Z</time>
      </trkpt>
      <trkpt lat="47.26452" lon="-1.55284">
        <ele>87</ele>
        <time>2022-01-20T13:10:28Z</time>
      </trkpt>
      <trkpt lat="47.26451" lon="-1.55283">
        <ele>87</ele>
        <time>2022-01-20T13:10:29Z</time>
      </trkpt>
      <trkpt lat="47.26449" lon="-1.55281">
        <ele>87</ele>
        <time>2022-01-20T13:10:30Z</time>
      </trkpt>
      <trkpt lat="47.26448" lon="-1.55279">
        <ele>87</ele>
        <time>2022-01-20T13:10:31Z</time>
      </trkpt>
      <trkpt lat="47.26446" lon="-1.55277">
        <ele>87</ele>
        <time>2022-01-20T13:10:32Z</time>
      </trkpt>
      <trkpt lat="47.26445" lon="-1.55276">
        <ele>87</ele>
        <time>2022-01-20T13:10:33Z</time>
      </trkpt>
      <trkpt lat="47.26443" lon="-1.55275">
        <ele>87</ele>
        <time>2022-01-20T13:10:34Z</time>
      </trkpt>
      <trkpt lat="47.26442" lon="-1.55273">
        <ele>86</ele>
        <time>2022-01-20T13:10:35Z</time>
      </trkpt>
      <trkpt lat="47.26441" lon="-1.55272">
        <ele>86</ele>
        <time>2022-01-20T13:10:36Z</time>
      </trkpt>
      <trkpt lat="47.26439" lon="-1.55271">
        <ele>85</ele>
        <time>2022-01-20T13:10:37Z</time>
      </trkpt>
      <trkpt lat="47.26438" lon="-1.5527">
        <ele>85</ele>
        <time>2022-01-20T13:10:38Z</time>
      </trkpt>
      <trkpt lat="47.26437" lon="-1.55268">
        <ele>84</ele>
        <time>2022-01-20T13:10:39Z</time>
      </trkpt>
      <trkpt lat="47.26436" lon="-1.55268">
        <ele>82</ele>
        <time>2022-01-20T13:10:40Z</time>
      </trkpt>
      <trkpt lat="47.26434" lon="-1.55267">
        <ele>81</ele>
        <time>2022-01-20T13:10:41Z</time>
      </trkpt>
      <trkpt lat="47.26432" lon="-1.55265">
        <ele>81</ele>
        <time>2022-01-20T13:10:42Z</time>
      </trkpt>
      <trkpt lat="47.26431" lon="-1.55264">
        <ele>80</ele>
        <time>2022-01-20T13:10:43Z</time>
      </trkpt>
      <trkpt lat="47.2643" lon="-1.55263">
        <ele>81</ele>
        <time>2022-01-20T13:10:44Z</time>
      </trkpt>
      <trkpt lat="47.26429" lon="-1.55262">
        <ele>81</ele>
        <time>2022-01-20T13:10:45Z</time>
      </trkpt>
      <trkpt lat="47.26428" lon="-1.5526">
        <ele>80</ele>
        <time>2022-01-20T13:10:46Z</time>
      </trkpt>
      <trkpt lat="47.26426" lon="-1.55259">
        <ele>80</ele>
        <time>2022-01-20T13:10:47Z</time>
      </trkpt>
      <trkpt lat="47.26424" lon="-1.55257">
        <ele>79</ele>
        <time>2022-01-20T13:10:48Z</time>
      </trkpt>
      <trkpt lat="47.26423" lon="-1.55255">
        <ele>79</ele>
        <time>2022-01-20T13:10:49Z</time>
      </trkpt>
      <trkpt lat="47.26422" lon="-1.55253">
        <ele>79</ele>
        <time>2022-01-20T13:10:50Z</time>
      </trkpt>
      <trkpt lat="47.2642" lon="-1.55251">
        <ele>79</ele>
        <time>2022-01-20T13:10:51Z</time>
      </trkpt>
      <trkpt lat="47.26419" lon="-1.55249">
        <ele>78</ele>
        <time>2022-01-20T13:10:52Z</time>
      </trkpt>
      <trkpt lat="47.26418" lon="-1.55247">
        <ele>78</ele>
        <time>2022-01-20T13:10:53Z</time>
      </trkpt>
      <trkpt lat="47.26416" lon="-1.55246">
        <ele>77</ele>
        <time>2022-01-20T13:10:54Z</time>
      </trkpt>
      <trkpt lat="47.26414" lon="-1.55244">
        <ele>77</ele>
        <time>2022-01-20T13:10:55Z</time>
      </trkpt>
      <trkpt lat="47.26412" lon="-1.55242">
        <ele>76</ele>
        <time>2022-01-20T13:10:56Z</time>
      </trkpt>
      <trkpt lat="47.2641" lon="-1.55241">
        <ele>76</ele>
        <time>2022-01-20T13:10:57Z</time>
      </trkpt>
      <trkpt lat="47.26408" lon="-1.5524">
        <ele>76</ele>
        <time>2022-01-20T13:10:58Z</time>
      </trkpt>
      <trkpt lat="47.26407" lon="-1.55238">
        <ele>76</ele>
        <time>2022-01-20T13:10:59Z</time>
      </trkpt>
      <trkpt lat="47.26406" lon="-1.55236">
        <ele>76</ele>
        <time>2022-01-20T13:11:00Z</time>
      </trkpt>
      <trkpt lat="47.26405" lon="-1.55235">
        <ele>75</ele>
        <time>2022-01-20T13:11:01Z</time>
      </trkpt>
      <trkpt lat="47.26403" lon="-1.55233">
        <ele>75</ele>
        <time>2022-01-20T13:11:02Z</time>
      </trkpt>
      <trkpt lat="47.26402" lon="-1.55232">
        <ele>75</ele>
        <time>2022-01-20T13:11:03Z</time>
      </trkpt>
      <trkpt lat="47.26401" lon="-1.55231">
        <ele>75</ele>
        <time>2022-01-20T13:11:04Z</time>
      </trkpt>
      <trkpt lat="47.264" lon="-1.5523">
        <ele>75</ele>
        <time>2022-01-20T13:11:05Z</time>
      </trkpt>
      <trkpt lat="47.26398" lon="-1.55229">
        <ele>75</ele>
        <time>2022-01-20T13:11:06Z</time>
      </trkpt>
      <trkpt lat="47.26397" lon="-1.55228">
        <ele>75</ele>
        <time>2022-01-20T13:11:07Z</time>
      </trkpt>
      <trkpt lat="47.26396" lon="-1.55227">
        <ele>76</ele>
        <time>2022-01-20T13:11:08Z</time>
      </trkpt>
      <trkpt lat="47.26395" lon="-1.55226">
        <ele>76</ele>
        <time>2022-01-20T13:11:09Z</time>
      </trkpt>
      <trkpt lat="47.26394" lon="-1.55225">
        <ele>76</ele>
        <time>2022-01-20T13:11:10Z</time>
      </trkpt>
      <trkpt lat="47.26393" lon="-1.55224">
        <ele>76</ele>
        <time>2022-01-20T13:11:11Z</time>
      </trkpt>
      <trkpt lat="47.26392" lon="-1.55223">
        <ele>76</ele>
        <time>2022-01-20T13:11:12Z</time>
      </trkpt>
      <trkpt lat="47.26391" lon="-1.55222">
        <ele>76</ele>
        <time>2022-01-20T13:11:13Z</time>
      </trkpt>
      <trkpt lat="47.26389" lon="-1.55222">
        <ele>77</ele>
        <time>2022-01-20T13:11:14Z</time>
      </trkpt>
      <trkpt lat="47.26388" lon="-1.55221">
        <ele>77</ele>
        <time>2022-01-20T13:11:15Z</time>
      </trkpt>
      <trkpt lat="47.26387" lon="-1.5522">
        <ele>78</ele>
        <time>2022-01-20T13:11:16Z</time>
      </trkpt>
      <trkpt lat="47.26387" lon="-1.55219">
        <ele>78</ele>
        <time>2022-01-20T13:11:17Z</time>
      </trkpt>
      <trkpt lat="47.26386" lon="-1.55219">
        <ele>80</ele>
        <time>2022-01-20T13:11:18Z</time>
      </trkpt>
      <trkpt lat="47.26385" lon="-1.55218">
        <ele>80</ele>
        <time>2022-01-20T13:11:19Z</time>
      </trkpt>
      <trkpt lat="47.26384" lon="-1.55217">
        <ele>81</ele>
        <time>2022-01-20T13:11:20Z</time>
      </trkpt>
      <trkpt lat="47.26383" lon="-1.55216">
        <ele>81</ele>
        <time>2022-01-20T13:11:21Z</time>
      </trkpt>
      <trkpt lat="47.26382" lon="-1.55215">
        <ele>80</ele>
        <time>2022-01-20T13:11:22Z</time>
      </trkpt>
      <trkpt lat="47.26382" lon="-1.55214">
        <ele>80</ele>
        <time>2022-01-20T13:11:23Z</time>
      </trkpt>
      <trkpt lat="47.26381" lon="-1.55213">
        <ele>79</ele>
        <time>2022-01-20T13:11:24Z</time>
      </trkpt>
      <trkpt lat="47.2638" lon="-1.55212">
        <ele>80</ele>
        <time>2022-01-20T13:11:25Z</time>
      </trkpt>
      <trkpt lat="47.26379" lon="-1.55211">
        <ele>81</ele>
        <time>2022-01-20T13:11:26Z</time>
      </trkpt>
      <trkpt lat="47.26378" lon="-1.5521">
        <ele>81</ele>
        <time>2022-01-20T13:11:27Z</time>
      </trkpt>
      <trkpt lat="47.26377" lon="-1.55209">
        <ele>82</ele>
        <time>2022-01-20T13:11:28Z</time>
      </trkpt>
      <trkpt lat="47.26376" lon="-1.55208">
        <ele>82</ele>
        <time>2022-01-20T13:11:29Z</time>
      </trkpt>
      <trkpt lat="47.26374" lon="-1.55208">
        <ele>82</ele>
        <time>2022-01-20T13:11:30Z</time>
      </trkpt>
      <trkpt lat="47.26373" lon="-1.55207">
        <ele>81</ele>
        <time>2022-01-20T13:11:31Z</time>
      </trkpt>
      <trkpt lat="47.26371" lon="-1.55206">
        <ele>81</ele>
        <time>2022-01-20T13:11:32Z</time>
      </trkpt>
      <trkpt lat="47.2637" lon="-1.55205">
        <ele>80</ele>
        <time>2022-01-20T13:11:33Z</time>
      </trkpt>
      <trkpt lat="47.26368" lon="-1.55204">
        <ele>79</ele>
        <time>2022-01-20T13:11:34Z</time>
      </trkpt>
      <trkpt lat="47.26366" lon="-1.55202">
        <ele>78</ele>
        <time>2022-01-20T13:11:35Z</time>
      </trkpt>
      <trkpt lat="47.26365" lon="-1.55201">
        <ele>78</ele>
        <time>2022-01-20T13:11:36Z</time>
      </trkpt>
      <trkpt lat="47.26364" lon="-1.552">
        <ele>77</ele>
        <time>2022-01-20T13:11:37Z</time>
      </trkpt>
      <trkpt lat="47.26363" lon="-1.55199">
        <ele>76</ele>
        <time>2022-01-20T13:11:38Z</time>
      </trkpt>
      <trkpt lat="47.26362" lon="-1.55199">
        <ele>75</ele>
        <time>2022-01-20T13:11:39Z</time>
      </trkpt>
      <trkpt lat="47.26361" lon="-1.55199">
        <ele>74</ele>
        <time>2022-01-20T13:11:40Z</time>
      </trkpt>
      <trkpt lat="47.26359" lon="-1.55199">
        <ele>73</ele>
        <time>2022-01-20T13:11:41Z</time>
      </trkpt>
      <trkpt lat="47.26357" lon="-1.552">
        <ele>72</ele>
        <time>2022-01-20T13:11:42Z</time>
      </trkpt>
      <trkpt lat="47.26355" lon="-1.552">
        <ele>71</ele>
        <time>2022-01-20T13:11:43Z</time>
      </trkpt>
      <trkpt lat="47.26354" lon="-1.552">
        <ele>71</ele>
        <time>2022-01-20T13:11:44Z</time>
      </trkpt>
      <trkpt lat="47.26353" lon="-1.552">
        <ele>70</ele>
        <time>2022-01-20T13:11:45Z</time>
      </trkpt>
      <trkpt lat="47.26351" lon="-1.552">
        <ele>69</ele>
        <time>2022-01-20T13:11:46Z</time>
      </trkpt>
      <trkpt lat="47.26349" lon="-1.552">
        <ele>69</ele>
        <time>2022-01-20T13:11:47Z</time>
      </trkpt>
      <trkpt lat="47.26348" lon="-1.552">
        <ele>69</ele>
        <time>2022-01-20T13:11:48Z</time>
      </trkpt>
      <trkpt lat="47.26346" lon="-1.552">
        <ele>69</ele>
        <time>2022-01-20T13:11:49Z</time>
      </trkpt>
      <trkpt lat="47.26345" lon="-1.55201">
        <ele>69</ele>
        <time>2022-01-20T13:11:50Z</time>
      </trkpt>
      <trkpt lat="47.26344" lon="-1.55201">
        <ele>68</ele>
        <time>2022-01-20T13:11:51Z</time>
      </trkpt>
      <trkpt lat="47.26342" lon="-1.55201">
        <ele>68</ele>
        <time>2022-01-20T13:11:52Z</time>
      </trkpt>
      <trkpt lat="47.26342" lon="-1.55202">
        <ele>68</ele>
        <time>2022-01-20T13:11:53Z</time>
      </trkpt>
      <trkpt lat="47.26341" lon="-1.55203">
        <ele>68</ele>
        <time>2022-01-20T13:11:54Z</time>
      </trkpt>
      <trkpt lat="47.2634" lon="-1.55204">
        <ele>67</ele>
        <time>2022-01-20T13:11:55Z</time>
      </trkpt>
      <trkpt lat="47.26339" lon="-1.55204">
        <ele>67</ele>
        <time>2022-01-20T13:11:56Z</time>
      </trkpt>
      <trkpt lat="47.26337" lon="-1.55206">
        <ele>67</ele>
        <time>2022-01-20T13:11:57Z</time>
      </trkpt>
      <trkpt lat="47.26336" lon="-1.55207">
        <ele>66</ele>
        <time>2022-01-20T13:11:58Z</time>
      </trkpt>
      <trkpt lat="47.26335" lon="-1.55208">
        <ele>65</ele>
        <time>2022-01-20T13:11:59Z</time>
      </trkpt>
      <trkpt lat="47.26334" lon="-1.55209">
        <ele>64</ele>
        <time>2022-01-20T13:12:00Z</time>
      </trkpt>
      <trkpt lat="47.26333" lon="-1.55211">
        <ele>64</ele>
        <time>2022-01-20T13:12:01Z</time>
      </trkpt>
      <trkpt lat="47.26332" lon="-1.55212">
        <ele>65</ele>
        <time>2022-01-20T13:12:02Z</time>
      </trkpt>
      <trkpt lat="47.26331" lon="-1.55213">
        <ele>65</ele>
        <time>2022-01-20T13:12:03Z</time>
      </trkpt>
      <trkpt lat="47.2633" lon="-1.55214">
        <ele>64</ele>
        <time>2022-01-20T13:12:04Z</time>
      </trkpt>
      <trkpt lat="47.26329" lon="-1.55215">
        <ele>64</ele>
        <time>2022-01-20T13:12:05Z</time>
      </trkpt>
      <trkpt lat="47.26328" lon="-1.55216">
        <ele>64</ele>
        <time>2022-01-20T13:12:06Z</time>
      </trkpt>
      <trkpt lat="47.26326" lon="-1.55217">
        <ele>63</ele>
        <time>2022-01-20T13:12:07Z</time>
      </trkpt>
      <trkpt lat="47.26325" lon="-1.55218">
        <ele>63</ele>
        <time>2022-01-20T13:12:08Z</time>
      </trkpt>
      <trkpt lat="47.26324" lon="-1.55219">
        <ele>62</ele>
        <time>2022-01-20T13:12:09Z</time>
      </trkpt>
      <trkpt lat="47.26323" lon="-1.5522">
        <ele>62</ele>
        <time>2022-01-20T13:12:10Z</time>
      </trkpt>
      <trkpt lat="47.26323" lon="-1.5522">
        <ele>61</ele>
        <time>2022-01-20T13:12:11Z</time>
      </trkpt>
      <trkpt lat="47.26321" lon="-1.55221">
        <ele>61</ele>
        <time>2022-01-20T13:12:12Z</time>
      </trkpt>
      <trkpt lat="47.26321" lon="-1.55223">
        <ele>62</ele>
        <time>2022-01-20T13:12:13Z</time>
      </trkpt>
      <trkpt lat="47.2632" lon="-1.55223">
        <ele>62</ele>
        <time>2022-01-20T13:12:14Z</time>
      </trkpt>
      <trkpt lat="47.26319" lon="-1.55224">
        <ele>62</ele>
        <time>2022-01-20T13:12:15Z</time>
      </trkpt>
      <trkpt lat="47.26318" lon="-1.55225">
        <ele>62</ele>
        <time>2022-01-20T13:12:16Z</time>
      </trkpt>
      <trkpt lat="47.26317" lon="-1.55226">
        <ele>61</ele>
        <time>2022-01-20T13:12:17Z</time>
      </trkpt>
      <trkpt lat="47.26316" lon="-1.55227">
        <ele>61</ele>
        <time>2022-01-20T13:12:18Z</time>
      </trkpt>
      <trkpt lat="47.26314" lon="-1.55228">
        <ele>62</ele>
        <time>2022-01-20T13:12:19Z</time>
      </trkpt>
      <trkpt lat="47.26313" lon="-1.55229">
        <ele>62</ele>
        <time>2022-01-20T13:12:20Z</time>
      </trkpt>
      <trkpt lat="47.26312" lon="-1.55229">
        <ele>62</ele>
        <time>2022-01-20T13:12:21Z</time>
      </trkpt>
      <trkpt lat="47.2631" lon="-1.5523">
        <ele>62</ele>
        <time>2022-01-20T13:12:22Z</time>
      </trkpt>
      <trkpt lat="47.26309" lon="-1.55231">
        <ele>62</ele>
        <time>2022-01-20T13:12:23Z</time>
      </trkpt>
      <trkpt lat="47.26307" lon="-1.55231">
        <ele>62</ele>
        <time>2022-01-20T13:12:24Z</time>
      </trkpt>
      <trkpt lat="47.26305" lon="-1.55232">
        <ele>62</ele>
        <time>2022-01-20T13:12:25Z</time>
      </trkpt>
      <trkpt lat="47.26304" lon="-1.55233">
        <ele>62</ele>
        <time>2022-01-20T13:12:26Z</time>
      </trkpt>
      <trkpt lat="47.26302" lon="-1.55234">
        <ele>62</ele>
        <time>2022-01-20T13:12:27Z</time>
      </trkpt>
      <trkpt lat="47.26301" lon="-1.55235">
        <ele>62</ele>
        <time>2022-01-20T13:12:28Z</time>
      </trkpt>
      <trkpt lat="47.263" lon="-1.55235">
        <ele>62</ele>
        <time>2022-01-20T13:12:29Z</time>
      </trkpt>
      <trkpt lat="47.26298" lon="-1.55236">
        <ele>61</ele>
        <time>2022-01-20T13:12:30Z</time>
      </trkpt>
      <trkpt lat="47.26297" lon="-1.55237">
        <ele>61</ele>
        <time>2022-01-20T13:12:31Z</time>
      </trkpt>
      <trkpt lat="47.26295" lon="-1.55238">
        <ele>61</ele>
        <time>2022-01-20T13:12:32Z</time>
      </trkpt>
      <trkpt lat="47.26294" lon="-1.55239">
        <ele>61</ele>
        <time>2022-01-20T13:12:33Z</time>
      </trkpt>
      <trkpt lat="47.26293" lon="-1.55241">
        <ele>61</ele>
        <time>2022-01-20T13:12:34Z</time>
      </trkpt>
      <trkpt lat="47.26292" lon="-1.55243">
        <ele>60</ele>
        <time>2022-01-20T13:12:35Z</time>
      </trkpt>
      <trkpt lat="47.26291" lon="-1.55244">
        <ele>60</ele>
        <time>2022-01-20T13:12:36Z</time>
      </trkpt>
      <trkpt lat="47.2629" lon="-1.55245">
        <ele>60</ele>
        <time>2022-01-20T13:12:37Z</time>
      </trkpt>
      <trkpt lat="47.26289" lon="-1.55246">
        <ele>60</ele>
        <time>2022-01-20T13:12:38Z</time>
      </trkpt>
      <trkpt lat="47.26288" lon="-1.55248">
        <ele>59</ele>
        <time>2022-01-20T13:12:39Z</time>
      </trkpt>
      <trkpt lat="47.26286" lon="-1.55249">
        <ele>59</ele>
        <time>2022-01-20T13:12:40Z</time>
      </trkpt>
      <trkpt lat="47.26284" lon="-1.5525">
        <ele>59</ele>
        <time>2022-01-20T13:12:41Z</time>
      </trkpt>
      <trkpt lat="47.26283" lon="-1.55251">
        <ele>59</ele>
        <time>2022-01-20T13:12:42Z</time>
      </trkpt>
      <trkpt lat="47.26282" lon="-1.55253">
        <ele>59</ele>
        <time>2022-01-20T13:12:43Z</time>
      </trkpt>
      <trkpt lat="47.26281" lon="-1.55254">
        <ele>59</ele>
        <time>2022-01-20T13:12:44Z</time>
      </trkpt>
      <trkpt lat="47.2628" lon="-1.55256">
        <ele>59</ele>
        <time>2022-01-20T13:12:45Z</time>
      </trkpt>
      <trkpt lat="47.26279" lon="-1.55258">
        <ele>59</ele>
        <time>2022-01-20T13:12:46Z</time>
      </trkpt>
      <trkpt lat="47.26278" lon="-1.55259">
        <ele>58</ele>
        <time>2022-01-20T13:12:47Z</time>
      </trkpt>
      <trkpt lat="47.26277" lon="-1.5526">
        <ele>57</ele>
        <time>2022-01-20T13:12:48Z</time>
      </trkpt>
      <trkpt lat="47.26276" lon="-1.55262">
        <ele>58</ele>
        <time>2022-01-20T13:12:49Z</time>
      </trkpt>
      <trkpt lat="47.26275" lon="-1.55263">
        <ele>58</ele>
        <time>2022-01-20T13:12:50Z</time>
      </trkpt>
      <trkpt lat="47.26274" lon="-1.55265">
        <ele>58</ele>
        <time>2022-01-20T13:12:51Z</time>
      </trkpt>
      <trkpt lat="47.26273" lon="-1.55267">
        <ele>57</ele>
        <time>2022-01-20T13:12:52Z</time>
      </trkpt>
      <trkpt lat="47.26272" lon="-1.55269">
        <ele>56</ele>
        <time>2022-01-20T13:12:53Z</time>
      </trkpt>
      <trkpt lat="47.26271" lon="-1.5527">
        <ele>56</ele>
        <time>2022-01-20T13:12:54Z</time>
      </trkpt>
      <trkpt lat="47.2627" lon="-1.55272">
        <ele>56</ele>
        <time>2022-01-20T13:12:55Z</time>
      </trkpt>
      <trkpt lat="47.26269" lon="-1.55274">
        <ele>55</ele>
        <time>2022-01-20T13:12:56Z</time>
      </trkpt>
      <trkpt lat="47.26268" lon="-1.55276">
        <ele>55</ele>
        <time>2022-01-20T13:12:57Z</time>
      </trkpt>
      <trkpt lat="47.26267" lon="-1.55278">
        <ele>55</ele>
        <time>2022-01-20T13:12:58Z</time>
      </trkpt>
      <trkpt lat="47.26266" lon="-1.5528">
        <ele>55</ele>
        <time>2022-01-20T13:12:59Z</time>
      </trkpt>
      <trkpt lat="47.26264" lon="-1.55281">
        <ele>55</ele>
        <time>2022-01-20T13:13:00Z</time>
      </trkpt>
      <trkpt lat="47.26263" lon="-1.55283">
        <ele>55</ele>
        <time>2022-01-20T13:13:01Z</time>
      </trkpt>
      <trkpt lat="47.26262" lon="-1.55285">
        <ele>54</ele>
        <time>2022-01-20T13:13:02Z</time>
      </trkpt>
      <trkpt lat="47.2626" lon="-1.55286">
        <ele>54</ele>
        <time>2022-01-20T13:13:03Z</time>
      </trkpt>
      <trkpt lat="47.2626" lon="-1.55288">
        <ele>55</ele>
        <time>2022-01-20T13:13:04Z</time>
      </trkpt>
      <trkpt lat="47.2626" lon="-1.5529">
        <ele>55</ele>
        <time>2022-01-20T13:13:05Z</time>
      </trkpt>
      <trkpt lat="47.26259" lon="-1.55292">
        <ele>55</ele>
        <time>2022-01-20T13:13:06Z</time>
      </trkpt>
      <trkpt lat="47.26258" lon="-1.55293">
        <ele>55</ele>
        <time>2022-01-20T13:13:07Z</time>
      </trkpt>
      <trkpt lat="47.26258" lon="-1.55295">
        <ele>54</ele>
        <time>2022-01-20T13:13:08Z</time>
      </trkpt>
      <trkpt lat="47.26257" lon="-1.55297">
        <ele>55</ele>
        <time>2022-01-20T13:13:09Z</time>
      </trkpt>
      <trkpt lat="47.26255" lon="-1.55298">
        <ele>54</ele>
        <time>2022-01-20T13:13:10Z</time>
      </trkpt>
      <trkpt lat="47.26255" lon="-1.55299">
        <ele>54</ele>
        <time>2022-01-20T13:13:11Z</time>
      </trkpt>
      <trkpt lat="47.26254" lon="-1.55301">
        <ele>54</ele>
        <time>2022-01-20T13:13:12Z</time>
      </trkpt>
      <trkpt lat="47.26253" lon="-1.55302">
        <ele>53</ele>
        <time>2022-01-20T13:13:13Z</time>
      </trkpt>
      <trkpt lat="47.26252" lon="-1.55304">
        <ele>53</ele>
        <time>2022-01-20T13:13:14Z</time>
      </trkpt>
      <trkpt lat="47.26251" lon="-1.55305">
        <ele>53</ele>
        <time>2022-01-20T13:13:15Z</time>
      </trkpt>
      <trkpt lat="47.2625" lon="-1.55307">
        <ele>53</ele>
        <time>2022-01-20T13:13:16Z</time>
      </trkpt>
      <trkpt lat="47.26249" lon="-1.55308">
        <ele>53</ele>
        <time>2022-01-20T13:13:17Z</time>
      </trkpt>
      <trkpt lat="47.26248" lon="-1.55309">
        <ele>53</ele>
        <time>2022-01-20T13:13:18Z</time>
      </trkpt>
      <trkpt lat="47.26247" lon="-1.55311">
        <ele>53</ele>
        <time>2022-01-20T13:13:19Z</time>
      </trkpt>
      <trkpt lat="47.26246" lon="-1.55312">
        <ele>53</ele>
        <time>2022-01-20T13:13:20Z</time>
      </trkpt>
      <trkpt lat="47.26245" lon="-1.55314">
        <ele>53</ele>
        <time>2022-01-20T13:13:21Z</time>
      </trkpt>
      <trkpt lat="47.26244" lon="-1.55315">
        <ele>53</ele>
        <time>2022-01-20T13:13:22Z</time>
      </trkpt>
      <trkpt lat="47.26243" lon="-1.55316">
        <ele>53</ele>
        <time>2022-01-20T13:13:23Z</time>
      </trkpt>
      <trkpt lat="47.26242" lon="-1.55318">
        <ele>53</ele>
        <time>2022-01-20T13:13:24Z</time>
      </trkpt>
      <trkpt lat="47.26241" lon="-1.55319">
        <ele>52</ele>
        <time>2022-01-20T13:13:25Z</time>
      </trkpt>
      <trkpt lat="47.2624" lon="-1.5532">
        <ele>52</ele>
        <time>2022-01-20T13:13:26Z</time>
      </trkpt>
      <trkpt lat="47.26238" lon="-1.55322">
        <ele>52</ele>
        <time>2022-01-20T13:13:27Z</time>
      </trkpt>
      <trkpt lat="47.26237" lon="-1.55324">
        <ele>52</ele>
        <time>2022-01-20T13:13:28Z</time>
      </trkpt>
      <trkpt lat="47.26236" lon="-1.55325">
        <ele>51</ele>
        <time>2022-01-20T13:13:29Z</time>
      </trkpt>
      <trkpt lat="47.26234" lon="-1.55327">
        <ele>51</ele>
        <time>2022-01-20T13:13:30Z</time>
      </trkpt>
      <trkpt lat="47.26233" lon="-1.55328">
        <ele>51</ele>
        <time>2022-01-20T13:13:31Z</time>
      </trkpt>
      <trkpt lat="47.26232" lon="-1.5533">
        <ele>51</ele>
        <time>2022-01-20T13:13:32Z</time>
      </trkpt>
      <trkpt lat="47.26231" lon="-1.55332">
        <ele>50</ele>
        <time>2022-01-20T13:13:33Z</time>
      </trkpt>
      <trkpt lat="47.2623" lon="-1.55334">
        <ele>50</ele>
        <time>2022-01-20T13:13:34Z</time>
      </trkpt>
      <trkpt lat="47.26229" lon="-1.55335">
        <ele>50</ele>
        <time>2022-01-20T13:13:35Z</time>
      </trkpt>
      <trkpt lat="47.26228" lon="-1.55337">
        <ele>50</ele>
        <time>2022-01-20T13:13:36Z</time>
      </trkpt>
      <trkpt lat="47.26228" lon="-1.55338">
        <ele>49</ele>
        <time>2022-01-20T13:13:37Z</time>
      </trkpt>
      <trkpt lat="47.26227" lon="-1.5534">
        <ele>49</ele>
        <time>2022-01-20T13:13:38Z</time>
      </trkpt>
      <trkpt lat="47.26226" lon="-1.55342">
        <ele>48</ele>
        <time>2022-01-20T13:13:39Z</time>
      </trkpt>
      <trkpt lat="47.26226" lon="-1.55343">
        <ele>48</ele>
        <time>2022-01-20T13:13:40Z</time>
      </trkpt>
      <trkpt lat="47.26225" lon="-1.55345">
        <ele>48</ele>
        <time>2022-01-20T13:13:41Z</time>
      </trkpt>
      <trkpt lat="47.26225" lon="-1.55346">
        <ele>48</ele>
        <time>2022-01-20T13:13:42Z</time>
      </trkpt>
      <trkpt lat="47.26224" lon="-1.55348">
        <ele>49</ele>
        <time>2022-01-20T13:13:43Z</time>
      </trkpt>
      <trkpt lat="47.26223" lon="-1.55349">
        <ele>49</ele>
        <time>2022-01-20T13:13:44Z</time>
      </trkpt>
      <trkpt lat="47.26222" lon="-1.55351">
        <ele>49</ele>
        <time>2022-01-20T13:13:45Z</time>
      </trkpt>
      <trkpt lat="47.26222" lon="-1.55352">
        <ele>50</ele>
        <time>2022-01-20T13:13:46Z</time>
      </trkpt>
      <trkpt lat="47.26221" lon="-1.55353">
        <ele>50</ele>
        <time>2022-01-20T13:13:47Z</time>
      </trkpt>
      <trkpt lat="47.2622" lon="-1.55354">
        <ele>51</ele>
        <time>2022-01-20T13:13:48Z</time>
      </trkpt>
      <trkpt lat="47.26218" lon="-1.55354">
        <ele>51</ele>
        <time>2022-01-20T13:13:49Z</time>
      </trkpt>
      <trkpt lat="47.26217" lon="-1.55355">
        <ele>51</ele>
        <time>2022-01-20T13:13:50Z</time>
      </trkpt>
      <trkpt lat="47.26216" lon="-1.55356">
        <ele>51</ele>
        <time>2022-01-20T13:13:51Z</time>
      </trkpt>
      <trkpt lat="47.26214" lon="-1.55357">
        <ele>51</ele>
        <time>2022-01-20T13:13:52Z</time>
      </trkpt>
      <trkpt lat="47.26213" lon="-1.55358">
        <ele>51</ele>
        <time>2022-01-20T13:13:53Z</time>
      </trkpt>
      <trkpt lat="47.26212" lon="-1.55358">
        <ele>51</ele>
        <time>2022-01-20T13:13:54Z</time>
      </trkpt>
      <trkpt lat="47.2621" lon="-1.55358">
        <ele>51</ele>
        <time>2022-01-20T13:13:55Z</time>
      </trkpt>
      <trkpt lat="47.26209" lon="-1.55358">
        <ele>51</ele>
        <time>2022-01-20T13:13:56Z</time>
      </trkpt>
      <trkpt lat="47.26208" lon="-1.55358">
        <ele>51</ele>
        <time>2022-01-20T13:13:57Z</time>
      </trkpt>
      <trkpt lat="47.26207" lon="-1.55358">
        <ele>51</ele>
        <time>2022-01-20T13:13:58Z</time>
      </trkpt>
      <trkpt lat="47.26205" lon="-1.55358">
        <ele>51</ele>
        <time>2022-01-20T13:13:59Z</time>
      </trkpt>
      <trkpt lat="47.26204" lon="-1.55358">
        <ele>50</ele>
        <time>2022-01-20T13:14:00Z</time>
      </trkpt>
      <trkpt lat="47.26202" lon="-1.55357">
        <ele>51</ele>
        <time>2022-01-20T13:14:01Z</time>
      </trkpt>
      <trkpt lat="47.26201" lon="-1.55357">
        <ele>51</ele>
        <time>2022-01-20T13:14:02Z</time>
      </trkpt>
      <trkpt lat="47.26199" lon="-1.55356">
        <ele>51</ele>
        <time>2022-01-20T13:14:03Z</time>
      </trkpt>
      <trkpt lat="47.26198" lon="-1.55356">
        <ele>52</ele>
        <time>2022-01-20T13:14:04Z</time>
      </trkpt>
      <trkpt lat="47.26196" lon="-1.55355">
        <ele>52</ele>
        <time>2022-01-20T13:14:05Z</time>
      </trkpt>
      <trkpt lat="47.26194" lon="-1.55354">
        <ele>52</ele>
        <time>2022-01-20T13:14:06Z</time>
      </trkpt>
      <trkpt lat="47.26193" lon="-1.55354">
        <ele>51</ele>
        <time>2022-01-20T13:14:07Z</time>
      </trkpt>
      <trkpt lat="47.26191" lon="-1.55353">
        <ele>51</ele>
        <time>2022-01-20T13:14:08Z</time>
      </trkpt>
      <trkpt lat="47.26189" lon="-1.55353">
        <ele>51</ele>
        <time>2022-01-20T13:14:09Z</time>
      </trkpt>
      <trkpt lat="47.26188" lon="-1.55352">
        <ele>50</ele>
        <time>2022-01-20T13:14:10Z</time>
      </trkpt>
      <trkpt lat="47.26187" lon="-1.55352">
        <ele>50</ele>
        <time>2022-01-20T13:14:11Z</time>
      </trkpt>
      <trkpt lat="47.26186" lon="-1.55351">
        <ele>50</ele>
        <time>2022-01-20T13:14:12Z</time>
      </trkpt>
      <trkpt lat="47.26184" lon="-1.55351">
        <ele>51</ele>
        <time>2022-01-20T13:14:13Z</time>
      </trkpt>
      <trkpt lat="47.26182" lon="-1.55351">
        <ele>52</ele>
        <time>2022-01-20T13:14:14Z</time>
      </trkpt>
      <trkpt lat="47.26181" lon="-1.5535">
        <ele>52</ele>
        <time>2022-01-20T13:14:15Z</time>
      </trkpt>
      <trkpt lat="47.2618" lon="-1.5535">
        <ele>52</ele>
        <time>2022-01-20T13:14:16Z</time>
      </trkpt>
      <trkpt lat="47.26178" lon="-1.55349">
        <ele>52</ele>
        <time>2022-01-20T13:14:17Z</time>
      </trkpt>
      <trkpt lat="47.26177" lon="-1.55349">
        <ele>53</ele>
        <time>2022-01-20T13:14:18Z</time>
      </trkpt>
      <trkpt lat="47.26175" lon="-1.55348">
        <ele>53</ele>
        <time>2022-01-20T13:14:19Z</time>
      </trkpt>
      <trkpt lat="47.26173" lon="-1.55347">
        <ele>53</ele>
        <time>2022-01-20T13:14:20Z</time>
      </trkpt>
      <trkpt lat="47.26172" lon="-1.55346">
        <ele>54</ele>
        <time>2022-01-20T13:14:21Z</time>
      </trkpt>
      <trkpt lat="47.2617" lon="-1.55346">
        <ele>54</ele>
        <time>2022-01-20T13:14:22Z</time>
      </trkpt>
      <trkpt lat="47.26169" lon="-1.55345">
        <ele>54</ele>
        <time>2022-01-20T13:14:23Z</time>
      </trkpt>
      <trkpt lat="47.26167" lon="-1.55344">
        <ele>54</ele>
        <time>2022-01-20T13:14:24Z</time>
      </trkpt>
      <trkpt lat="47.26165" lon="-1.55344">
        <ele>54</ele>
        <time>2022-01-20T13:14:25Z</time>
      </trkpt>
      <trkpt lat="47.26164" lon="-1.55342">
        <ele>54</ele>
        <time>2022-01-20T13:14:26Z</time>
      </trkpt>
      <trkpt lat="47.26162" lon="-1.55341">
        <ele>54</ele>
        <time>2022-01-20T13:14:27Z</time>
      </trkpt>
      <trkpt lat="47.26161" lon="-1.5534">
        <ele>54</ele>
        <time>2022-01-20T13:14:28Z</time>
      </trkpt>
      <trkpt lat="47.2616" lon="-1.55339">
        <ele>54</ele>
        <time>2022-01-20T13:14:29Z</time>
      </trkpt>
      <trkpt lat="47.26158" lon="-1.55338">
        <ele>54</ele>
        <time>2022-01-20T13:14:30Z</time>
      </trkpt>
      <trkpt lat="47.26157" lon="-1.55338">
        <ele>53</ele>
        <time>2022-01-20T13:14:31Z</time>
      </trkpt>
      <trkpt lat="47.26156" lon="-1.55337">
        <ele>53</ele>
        <time>2022-01-20T13:14:32Z</time>
      </trkpt>
      <trkpt lat="47.26154" lon="-1.55336">
        <ele>52</ele>
        <time>2022-01-20T13:14:33Z</time>
      </trkpt>
      <trkpt lat="47.26153" lon="-1.55335">
        <ele>52</ele>
        <time>2022-01-20T13:14:34Z</time>
      </trkpt>
      <trkpt lat="47.26151" lon="-1.55335">
        <ele>51</ele>
        <time>2022-01-20T13:14:35Z</time>
      </trkpt>
      <trkpt lat="47.26149" lon="-1.55335">
        <ele>51</ele>
        <time>2022-01-20T13:14:36Z</time>
      </trkpt>
      <trkpt lat="47.26148" lon="-1.55333">
        <ele>50</ele>
        <time>2022-01-20T13:14:37Z</time>
      </trkpt>
      <trkpt lat="47.26146" lon="-1.55332">
        <ele>50</ele>
        <time>2022-01-20T13:14:38Z</time>
      </trkpt>
      <trkpt lat="47.26144" lon="-1.55332">
        <ele>51</ele>
        <time>2022-01-20T13:14:39Z</time>
      </trkpt>
      <trkpt lat="47.26143" lon="-1.55331">
        <ele>51</ele>
        <time>2022-01-20T13:14:40Z</time>
      </trkpt>
      <trkpt lat="47.26141" lon="-1.5533">
        <ele>51</ele>
        <time>2022-01-20T13:14:41Z</time>
      </trkpt>
      <trkpt lat="47.2614" lon="-1.55329">
        <ele>51</ele>
        <time>2022-01-20T13:14:42Z</time>
      </trkpt>
      <trkpt lat="47.26138" lon="-1.55328">
        <ele>51</ele>
        <time>2022-01-20T13:14:43Z</time>
      </trkpt>
      <trkpt lat="47.26137" lon="-1.55327">
        <ele>50</ele>
        <time>2022-01-20T13:14:44Z</time>
      </trkpt>
      <trkpt lat="47.26135" lon="-1.55327">
        <ele>50</ele>
        <time>2022-01-20T13:14:45Z</time>
      </trkpt>
      <trkpt lat="47.26134" lon="-1.55326">
        <ele>50</ele>
        <time>2022-01-20T13:14:46Z</time>
      </trkpt>
      <trkpt lat="47.26132" lon="-1.55325">
        <ele>50</ele>
        <time>2022-01-20T13:14:47Z</time>
      </trkpt>
      <trkpt lat="47.26131" lon="-1.55324">
        <ele>50</ele>
        <time>2022-01-20T13:14:48Z</time>
      </trkpt>
      <trkpt lat="47.26129" lon="-1.55324">
        <ele>50</ele>
        <time>2022-01-20T13:14:49Z</time>
      </trkpt>
      <trkpt lat="47.26128" lon="-1.55323">
        <ele>50</ele>
        <time>2022-01-20T13:14:50Z</time>
      </trkpt>
      <trkpt lat="47.26127" lon="-1.55322">
        <ele>50</ele>
        <time>2022-01-20T13:14:51Z</time>
      </trkpt>
      <trkpt lat="47.26125" lon="-1.55321">
        <ele>50</ele>
        <time>2022-01-20T13:14:52Z</time>
      </trkpt>
      <trkpt lat="47.26123" lon="-1.5532">
        <ele>50</ele>
        <time>2022-01-20T13:14:53Z</time>
      </trkpt>
      <trkpt lat="47.26122" lon="-1.5532">
        <ele>50</ele>
        <time>2022-01-20T13:14:54Z</time>
      </trkpt>
      <trkpt lat="47.26121" lon="-1.55319">
        <ele>50</ele>
        <time>2022-01-20T13:14:55Z</time>
      </trkpt>
      <trkpt lat="47.26119" lon="-1.55319">
        <ele>50</ele>
        <time>2022-01-20T13:14:56Z</time>
      </trkpt>
      <trkpt lat="47.26118" lon="-1.55318">
        <ele>49</ele>
        <time>2022-01-20T13:14:57Z</time>
      </trkpt>
      <trkpt lat="47.26117" lon="-1.55317">
        <ele>49</ele>
        <time>2022-01-20T13:14:58Z</time>
      </trkpt>
      <trkpt lat="47.26116" lon="-1.55317">
        <ele>49</ele>
        <time>2022-01-20T13:14:59Z</time>
      </trkpt>
      <trkpt lat="47.26115" lon="-1.55316">
        <ele>49</ele>
        <time>2022-01-20T13:15:00Z</time>
      </trkpt>
      <trkpt lat="47.26114" lon="-1.55314">
        <ele>49</ele>
        <time>2022-01-20T13:15:01Z</time>
      </trkpt>
      <trkpt lat="47.26112" lon="-1.55313">
        <ele>49</ele>
        <time>2022-01-20T13:15:02Z</time>
      </trkpt>
      <trkpt lat="47.26112" lon="-1.55312">
        <ele>49</ele>
        <time>2022-01-20T13:15:03Z</time>
      </trkpt>
      <trkpt lat="47.26111" lon="-1.55312">
        <ele>49</ele>
        <time>2022-01-20T13:15:04Z</time>
      </trkpt>
      <trkpt lat="47.2611" lon="-1.55313">
        <ele>48</ele>
        <time>2022-01-20T13:15:05Z</time>
      </trkpt>
      <trkpt lat="47.26109" lon="-1.55314">
        <ele>48</ele>
        <time>2022-01-20T13:15:06Z</time>
      </trkpt>
      <trkpt lat="47.26107" lon="-1.55314">
        <ele>48</ele>
        <time>2022-01-20T13:15:07Z</time>
      </trkpt>
      <trkpt lat="47.26106" lon="-1.55315">
        <ele>48</ele>
        <time>2022-01-20T13:15:08Z</time>
      </trkpt>
      <trkpt lat="47.26106" lon="-1.55316">
        <ele>49</ele>
        <time>2022-01-20T13:15:09Z</time>
      </trkpt>
      <trkpt lat="47.26105" lon="-1.55317">
        <ele>48</ele>
        <time>2022-01-20T13:15:10Z</time>
      </trkpt>
      <trkpt lat="47.26104" lon="-1.55319">
        <ele>49</ele>
        <time>2022-01-20T13:15:11Z</time>
      </trkpt>
      <trkpt lat="47.26104" lon="-1.5532">
        <ele>49</ele>
        <time>2022-01-20T13:15:12Z</time>
      </trkpt>
      <trkpt lat="47.26104" lon="-1.55322">
        <ele>49</ele>
        <time>2022-01-20T13:15:13Z</time>
      </trkpt>
      <trkpt lat="47.26104" lon="-1.55323">
        <ele>49</ele>
        <time>2022-01-20T13:15:14Z</time>
      </trkpt>
      <trkpt lat="47.26103" lon="-1.55325">
        <ele>49</ele>
        <time>2022-01-20T13:15:15Z</time>
      </trkpt>
      <trkpt lat="47.26102" lon="-1.55327">
        <ele>49</ele>
        <time>2022-01-20T13:15:16Z</time>
      </trkpt>
      <trkpt lat="47.26102" lon="-1.55329">
        <ele>49</ele>
        <time>2022-01-20T13:15:17Z</time>
      </trkpt>
      <trkpt lat="47.26101" lon="-1.55331">
        <ele>49</ele>
        <time>2022-01-20T13:15:18Z</time>
      </trkpt>
      <trkpt lat="47.261" lon="-1.55332">
        <ele>49</ele>
        <time>2022-01-20T13:15:19Z</time>
      </trkpt>
      <trkpt lat="47.26099" lon="-1.55334">
        <ele>49</ele>
        <time>2022-01-20T13:15:20Z</time>
      </trkpt>
      <trkpt lat="47.26099" lon="-1.55336">
        <ele>49</ele>
        <time>2022-01-20T13:15:21Z</time>
      </trkpt>
      <trkpt lat="47.26098" lon="-1.55337">
        <ele>49</ele>
        <time>2022-01-20T13:15:22Z</time>
      </trkpt>
      <trkpt lat="47.26098" lon="-1.55339">
        <ele>49</ele>
        <time>2022-01-20T13:15:23Z</time>
      </trkpt>
      <trkpt lat="47.26097" lon="-1.55341">
        <ele>49</ele>
        <time>2022-01-20T13:15:24Z</time>
      </trkpt>
      <trkpt lat="47.26096" lon="-1.55343">
        <ele>49</ele>
        <time>2022-01-20T13:15:25Z</time>
      </trkpt>
      <trkpt lat="47.26096" lon="-1.55344">
        <ele>49</ele>
        <time>2022-01-20T13:15:26Z</time>
      </trkpt>
      <trkpt lat="47.26095" lon="-1.55346">
        <ele>49</ele>
        <time>2022-01-20T13:15:27Z</time>
      </trkpt>
      <trkpt lat="47.26094" lon="-1.55347">
        <ele>49</ele>
        <time>2022-01-20T13:15:28Z</time>
      </trkpt>
      <trkpt lat="47.26094" lon="-1.55349">
        <ele>49</ele>
        <time>2022-01-20T13:15:29Z</time>
      </trkpt>
      <trkpt lat="47.26093" lon="-1.5535">
        <ele>49</ele>
        <time>2022-01-20T13:15:30Z</time>
      </trkpt>
      <trkpt lat="47.26093" lon="-1.55352">
        <ele>49</ele>
        <time>2022-01-20T13:15:31Z</time>
      </trkpt>
      <trkpt lat="47.26092" lon="-1.55354">
        <ele>49</ele>
        <time>2022-01-20T13:15:32Z</time>
      </trkpt>
      <trkpt lat="47.26091" lon="-1.55356">
        <ele>49</ele>
        <time>2022-01-20T13:15:33Z</time>
      </trkpt>
      <trkpt lat="47.2609" lon="-1.55357">
        <ele>49</ele>
        <time>2022-01-20T13:15:34Z</time>
      </trkpt>
      <trkpt lat="47.2609" lon="-1.55359">
        <ele>49</ele>
        <time>2022-01-20T13:15:35Z</time>
      </trkpt>
      <trkpt lat="47.26089" lon="-1.55361">
        <ele>49</ele>
        <time>2022-01-20T13:15:36Z</time>
      </trkpt>
      <trkpt lat="47.26088" lon="-1.55363">
        <ele>49</ele>
        <time>2022-01-20T13:15:37Z</time>
      </trkpt>
      <trkpt lat="47.26088" lon="-1.55365">
        <ele>49</ele>
        <time>2022-01-20T13:15:38Z</time>
      </trkpt>
      <trkpt lat="47.26086" lon="-1.55367">
        <ele>49</ele>
        <time>2022-01-20T13:15:39Z</time>
      </trkpt>
      <trkpt lat="47.26085" lon="-1.55368">
        <ele>49</ele>
        <time>2022-01-20T13:15:40Z</time>
      </trkpt>
      <trkpt lat="47.26084" lon="-1.5537">
        <ele>49</ele>
        <time>2022-01-20T13:15:41Z</time>
      </trkpt>
      <trkpt lat="47.26083" lon="-1.55372">
        <ele>48</ele>
        <time>2022-01-20T13:15:42Z</time>
      </trkpt>
      <trkpt lat="47.26083" lon="-1.55374">
        <ele>49</ele>
        <time>2022-01-20T13:15:43Z</time>
      </trkpt>
      <trkpt lat="47.26082" lon="-1.55376">
        <ele>49</ele>
        <time>2022-01-20T13:15:44Z</time>
      </trkpt>
      <trkpt lat="47.26082" lon="-1.55377">
        <ele>49</ele>
        <time>2022-01-20T13:15:45Z</time>
      </trkpt>
      <trkpt lat="47.26081" lon="-1.55378">
        <ele>50</ele>
        <time>2022-01-20T13:15:46Z</time>
      </trkpt>
      <trkpt lat="47.2608" lon="-1.5538">
        <ele>50</ele>
        <time>2022-01-20T13:15:47Z</time>
      </trkpt>
      <trkpt lat="47.26079" lon="-1.55381">
        <ele>50</ele>
        <time>2022-01-20T13:15:48Z</time>
      </trkpt>
      <trkpt lat="47.26078" lon="-1.55383">
        <ele>50</ele>
        <time>2022-01-20T13:15:49Z</time>
      </trkpt>
      <trkpt lat="47.26077" lon="-1.55385">
        <ele>50</ele>
        <time>2022-01-20T13:15:50Z</time>
      </trkpt>
      <trkpt lat="47.26076" lon="-1.55386">
        <ele>50</ele>
        <time>2022-01-20T13:15:51Z</time>
      </trkpt>
      <trkpt lat="47.26075" lon="-1.55388">
        <ele>50</ele>
        <time>2022-01-20T13:15:52Z</time>
      </trkpt>
      <trkpt lat="47.26074" lon="-1.5539">
        <ele>49</ele>
        <time>2022-01-20T13:15:53Z</time>
      </trkpt>
      <trkpt lat="47.26074" lon="-1.55392">
        <ele>49</ele>
        <time>2022-01-20T13:15:54Z</time>
      </trkpt>
      <trkpt lat="47.26072" lon="-1.55393">
        <ele>49</ele>
        <time>2022-01-20T13:15:55Z</time>
      </trkpt>
      <trkpt lat="47.26071" lon="-1.55394">
        <ele>49</ele>
        <time>2022-01-20T13:15:56Z</time>
      </trkpt>
      <trkpt lat="47.2607" lon="-1.55396">
        <ele>49</ele>
        <time>2022-01-20T13:15:57Z</time>
      </trkpt>
      <trkpt lat="47.2607" lon="-1.55397">
        <ele>49</ele>
        <time>2022-01-20T13:15:58Z</time>
      </trkpt>
      <trkpt lat="47.26069" lon="-1.55399">
        <ele>50</ele>
        <time>2022-01-20T13:15:59Z</time>
      </trkpt>
      <trkpt lat="47.26069" lon="-1.554">
        <ele>50</ele>
        <time>2022-01-20T13:16:00Z</time>
      </trkpt>
      <trkpt lat="47.26067" lon="-1.55402">
        <ele>50</ele>
        <time>2022-01-20T13:16:01Z</time>
      </trkpt>
      <trkpt lat="47.26066" lon="-1.55403">
        <ele>51</ele>
        <time>2022-01-20T13:16:02Z</time>
      </trkpt>
      <trkpt lat="47.26065" lon="-1.55404">
        <ele>50</ele>
        <time>2022-01-20T13:16:03Z</time>
      </trkpt>
      <trkpt lat="47.26064" lon="-1.55405">
        <ele>50</ele>
        <time>2022-01-20T13:16:04Z</time>
      </trkpt>
      <trkpt lat="47.26064" lon="-1.55407">
        <ele>50</ele>
        <time>2022-01-20T13:16:05Z</time>
      </trkpt>
      <trkpt lat="47.26063" lon="-1.55409">
        <ele>50</ele>
        <time>2022-01-20T13:16:06Z</time>
      </trkpt>
      <trkpt lat="47.26062" lon="-1.55411">
        <ele>50</ele>
        <time>2022-01-20T13:16:07Z</time>
      </trkpt>
      <trkpt lat="47.26062" lon="-1.55412">
        <ele>50</ele>
        <time>2022-01-20T13:16:08Z</time>
      </trkpt>
      <trkpt lat="47.26062" lon="-1.55414">
        <ele>50</ele>
        <time>2022-01-20T13:16:09Z</time>
      </trkpt>
      <trkpt lat="47.26061" lon="-1.55415">
        <ele>50</ele>
        <time>2022-01-20T13:16:10Z</time>
      </trkpt>
      <trkpt lat="47.26061" lon="-1.55417">
        <ele>50</ele>
        <time>2022-01-20T13:16:11Z</time>
      </trkpt>
      <trkpt lat="47.2606" lon="-1.55419">
        <ele>49</ele>
        <time>2022-01-20T13:16:12Z</time>
      </trkpt>
      <trkpt lat="47.26059" lon="-1.5542">
        <ele>49</ele>
        <time>2022-01-20T13:16:13Z</time>
      </trkpt>
      <trkpt lat="47.26059" lon="-1.55422">
        <ele>49</ele>
        <time>2022-01-20T13:16:14Z</time>
      </trkpt>
      <trkpt lat="47.26058" lon="-1.55424">
        <ele>49</ele>
        <time>2022-01-20T13:16:15Z</time>
      </trkpt>
      <trkpt lat="47.26058" lon="-1.55426">
        <ele>49</ele>
        <time>2022-01-20T13:16:16Z</time>
      </trkpt>
      <trkpt lat="47.26057" lon="-1.55428">
        <ele>48</ele>
        <time>2022-01-20T13:16:17Z</time>
      </trkpt>
      <trkpt lat="47.26056" lon="-1.5543">
        <ele>47</ele>
        <time>2022-01-20T13:16:18Z</time>
      </trkpt>
      <trkpt lat="47.26055" lon="-1.55432">
        <ele>47</ele>
        <time>2022-01-20T13:16:19Z</time>
      </trkpt>
      <trkpt lat="47.26054" lon="-1.55434">
        <ele>47</ele>
        <time>2022-01-20T13:16:20Z</time>
      </trkpt>
      <trkpt lat="47.26054" lon="-1.55436">
        <ele>47</ele>
        <time>2022-01-20T13:16:21Z</time>
      </trkpt>
      <trkpt lat="47.26054" lon="-1.55437">
        <ele>47</ele>
        <time>2022-01-20T13:16:22Z</time>
      </trkpt>
      <trkpt lat="47.26053" lon="-1.55439">
        <ele>47</ele>
        <time>2022-01-20T13:16:23Z</time>
      </trkpt>
      <trkpt lat="47.26053" lon="-1.55441">
        <ele>46</ele>
        <time>2022-01-20T13:16:24Z</time>
      </trkpt>
      <trkpt lat="47.26051" lon="-1.55443">
        <ele>46</ele>
        <time>2022-01-20T13:16:25Z</time>
      </trkpt>
      <trkpt lat="47.2605" lon="-1.55445">
        <ele>46</ele>
        <time>2022-01-20T13:16:26Z</time>
      </trkpt>
      <trkpt lat="47.26049" lon="-1.55446">
        <ele>46</ele>
        <time>2022-01-20T13:16:27Z</time>
      </trkpt>
      <trkpt lat="47.26049" lon="-1.55448">
        <ele>47</ele>
        <time>2022-01-20T13:16:28Z</time>
      </trkpt>
      <trkpt lat="47.26048" lon="-1.5545">
        <ele>46</ele>
        <time>2022-01-20T13:16:29Z</time>
      </trkpt>
      <trkpt lat="47.26047" lon="-1.55452">
        <ele>46</ele>
        <time>2022-01-20T13:16:30Z</time>
      </trkpt>
      <trkpt lat="47.26047" lon="-1.55454">
        <ele>47</ele>
        <time>2022-01-20T13:16:31Z</time>
      </trkpt>
      <trkpt lat="47.26046" lon="-1.55456">
        <ele>47</ele>
        <time>2022-01-20T13:16:32Z</time>
      </trkpt>
      <trkpt lat="47.26046" lon="-1.55457">
        <ele>46</ele>
        <time>2022-01-20T13:16:33Z</time>
      </trkpt>
      <trkpt lat="47.26045" lon="-1.5546">
        <ele>47</ele>
        <time>2022-01-20T13:16:34Z</time>
      </trkpt>
      <trkpt lat="47.26045" lon="-1.55462">
        <ele>47</ele>
        <time>2022-01-20T13:16:35Z</time>
      </trkpt>
      <trkpt lat="47.26044" lon="-1.55464">
        <ele>47</ele>
        <time>2022-01-20T13:16:36Z</time>
      </trkpt>
      <trkpt lat="47.26044" lon="-1.55466">
        <ele>46</ele>
        <time>2022-01-20T13:16:37Z</time>
      </trkpt>
      <trkpt lat="47.26043" lon="-1.55468">
        <ele>46</ele>
        <time>2022-01-20T13:16:38Z</time>
      </trkpt>
      <trkpt lat="47.26043" lon="-1.5547">
        <ele>47</ele>
        <time>2022-01-20T13:16:39Z</time>
      </trkpt>
      <trkpt lat="47.26043" lon="-1.55472">
        <ele>47</ele>
        <time>2022-01-20T13:16:40Z</time>
      </trkpt>
      <trkpt lat="47.26043" lon="-1.55474">
        <ele>46</ele>
        <time>2022-01-20T13:16:41Z</time>
      </trkpt>
      <trkpt lat="47.26041" lon="-1.55476">
        <ele>46</ele>
        <time>2022-01-20T13:16:42Z</time>
      </trkpt>
      <trkpt lat="47.26041" lon="-1.55478">
        <ele>46</ele>
        <time>2022-01-20T13:16:43Z</time>
      </trkpt>
      <trkpt lat="47.26041" lon="-1.5548">
        <ele>46</ele>
        <time>2022-01-20T13:16:44Z</time>
      </trkpt>
      <trkpt lat="47.2604" lon="-1.55481">
        <ele>46</ele>
        <time>2022-01-20T13:16:45Z</time>
      </trkpt>
      <trkpt lat="47.26039" lon="-1.55483">
        <ele>46</ele>
        <time>2022-01-20T13:16:46Z</time>
      </trkpt>
      <trkpt lat="47.26039" lon="-1.55485">
        <ele>46</ele>
        <time>2022-01-20T13:16:47Z</time>
      </trkpt>
      <trkpt lat="47.26038" lon="-1.55487">
        <ele>46</ele>
        <time>2022-01-20T13:16:48Z</time>
      </trkpt>
      <trkpt lat="47.26038" lon="-1.55489">
        <ele>47</ele>
        <time>2022-01-20T13:16:49Z</time>
      </trkpt>
      <trkpt lat="47.26037" lon="-1.55491">
        <ele>48</ele>
        <time>2022-01-20T13:16:50Z</time>
      </trkpt>
      <trkpt lat="47.26036" lon="-1.55493">
        <ele>49</ele>
        <time>2022-01-20T13:16:51Z</time>
      </trkpt>
      <trkpt lat="47.26036" lon="-1.55494">
        <ele>49</ele>
        <time>2022-01-20T13:16:52Z</time>
      </trkpt>
      <trkpt lat="47.26035" lon="-1.55496">
        <ele>49</ele>
        <time>2022-01-20T13:16:53Z</time>
      </trkpt>
      <trkpt lat="47.26034" lon="-1.55497">
        <ele>50</ele>
        <time>2022-01-20T13:16:54Z</time>
      </trkpt>
      <trkpt lat="47.26034" lon="-1.55499">
        <ele>50</ele>
        <time>2022-01-20T13:16:55Z</time>
      </trkpt>
      <trkpt lat="47.26033" lon="-1.555">
        <ele>50</ele>
        <time>2022-01-20T13:16:56Z</time>
      </trkpt>
      <trkpt lat="47.26033" lon="-1.55502">
        <ele>50</ele>
        <time>2022-01-20T13:16:57Z</time>
      </trkpt>
      <trkpt lat="47.26032" lon="-1.55503">
        <ele>50</ele>
        <time>2022-01-20T13:16:58Z</time>
      </trkpt>
      <trkpt lat="47.2603" lon="-1.55505">
        <ele>50</ele>
        <time>2022-01-20T13:16:59Z</time>
      </trkpt>
      <trkpt lat="47.2603" lon="-1.55507">
        <ele>49</ele>
        <time>2022-01-20T13:17:00Z</time>
      </trkpt>
      <trkpt lat="47.26029" lon="-1.55508">
        <ele>49</ele>
        <time>2022-01-20T13:17:01Z</time>
      </trkpt>
      <trkpt lat="47.26028" lon="-1.55509">
        <ele>49</ele>
        <time>2022-01-20T13:17:02Z</time>
      </trkpt>
      <trkpt lat="47.26028" lon="-1.5551">
        <ele>49</ele>
        <time>2022-01-20T13:17:03Z</time>
      </trkpt>
      <trkpt lat="47.26027" lon="-1.55512">
        <ele>49</ele>
        <time>2022-01-20T13:17:04Z</time>
      </trkpt>
      <trkpt lat="47.26027" lon="-1.55513">
        <ele>50</ele>
        <time>2022-01-20T13:17:05Z</time>
      </trkpt>
      <trkpt lat="47.26026" lon="-1.55515">
        <ele>50</ele>
        <time>2022-01-20T13:17:06Z</time>
      </trkpt>
      <trkpt lat="47.26026" lon="-1.55516">
        <ele>50</ele>
        <time>2022-01-20T13:17:07Z</time>
      </trkpt>
      <trkpt lat="47.26026" lon="-1.55518">
        <ele>50</ele>
        <time>2022-01-20T13:17:08Z</time>
      </trkpt>
      <trkpt lat="47.26025" lon="-1.5552">
        <ele>51</ele>
        <time>2022-01-20T13:17:09Z</time>
      </trkpt>
      <trkpt lat="47.26025" lon="-1.55521">
        <ele>51</ele>
        <time>2022-01-20T13:17:10Z</time>
      </trkpt>
      <trkpt lat="47.26024" lon="-1.55522">
        <ele>51</ele>
        <time>2022-01-20T13:17:11Z</time>
      </trkpt>
      <trkpt lat="47.26024" lon="-1.55524">
        <ele>50</ele>
        <time>2022-01-20T13:17:12Z</time>
      </trkpt>
      <trkpt lat="47.26023" lon="-1.55526">
        <ele>50</ele>
        <time>2022-01-20T13:17:13Z</time>
      </trkpt>
      <trkpt lat="47.26022" lon="-1.55528">
        <ele>51</ele>
        <time>2022-01-20T13:17:14Z</time>
      </trkpt>
      <trkpt lat="47.26022" lon="-1.55529">
        <ele>51</ele>
        <time>2022-01-20T13:17:15Z</time>
      </trkpt>
      <trkpt lat="47.2602" lon="-1.55531">
        <ele>51</ele>
        <time>2022-01-20T13:17:16Z</time>
      </trkpt>
      <trkpt lat="47.2602" lon="-1.55532">
        <ele>51</ele>
        <time>2022-01-20T13:17:17Z</time>
      </trkpt>
      <trkpt lat="47.26019" lon="-1.55534">
        <ele>51</ele>
        <time>2022-01-20T13:17:18Z</time>
      </trkpt>
      <trkpt lat="47.26019" lon="-1.55536">
        <ele>52</ele>
        <time>2022-01-20T13:17:19Z</time>
      </trkpt>
      <trkpt lat="47.26019" lon="-1.55538">
        <ele>52</ele>
        <time>2022-01-20T13:17:20Z</time>
      </trkpt>
      <trkpt lat="47.26018" lon="-1.55539">
        <ele>53</ele>
        <time>2022-01-20T13:17:21Z</time>
      </trkpt>
      <trkpt lat="47.26017" lon="-1.55541">
        <ele>53</ele>
        <time>2022-01-20T13:17:22Z</time>
      </trkpt>
      <trkpt lat="47.26017" lon="-1.55543">
        <ele>52</ele>
        <time>2022-01-20T13:17:23Z</time>
      </trkpt>
      <trkpt lat="47.26016" lon="-1.55545">
        <ele>52</ele>
        <time>2022-01-20T13:17:24Z</time>
      </trkpt>
      <trkpt lat="47.26016" lon="-1.55547">
        <ele>52</ele>
        <time>2022-01-20T13:17:26Z</time>
      </trkpt>
      <trkpt lat="47.26015" lon="-1.55549">
        <ele>52</ele>
        <time>2022-01-20T13:17:27Z</time>
      </trkpt>
      <trkpt lat="47.26015" lon="-1.55551">
        <ele>52</ele>
        <time>2022-01-20T13:17:28Z</time>
      </trkpt>
      <trkpt lat="47.26014" lon="-1.55553">
        <ele>51</ele>
        <time>2022-01-20T13:17:29Z</time>
      </trkpt>
      <trkpt lat="47.26013" lon="-1.55554">
        <ele>52</ele>
        <time>2022-01-20T13:17:30Z</time>
      </trkpt>
      <trkpt lat="47.26012" lon="-1.55556">
        <ele>52</ele>
        <time>2022-01-20T13:17:31Z</time>
      </trkpt>
      <trkpt lat="47.26012" lon="-1.55558">
        <ele>52</ele>
        <time>2022-01-20T13:17:32Z</time>
      </trkpt>
      <trkpt lat="47.26011" lon="-1.5556">
        <ele>52</ele>
        <time>2022-01-20T13:17:33Z</time>
      </trkpt>
      <trkpt lat="47.26011" lon="-1.55562">
        <ele>52</ele>
        <time>2022-01-20T13:17:34Z</time>
      </trkpt>
      <trkpt lat="47.2601" lon="-1.55563">
        <ele>52</ele>
        <time>2022-01-20T13:17:35Z</time>
      </trkpt>
      <trkpt lat="47.2601" lon="-1.55565">
        <ele>53</ele>
        <time>2022-01-20T13:17:36Z</time>
      </trkpt>
      <trkpt lat="47.26009" lon="-1.55567">
        <ele>53</ele>
        <time>2022-01-20T13:17:37Z</time>
      </trkpt>
      <trkpt lat="47.26009" lon="-1.55568">
        <ele>53</ele>
        <time>2022-01-20T13:17:38Z</time>
      </trkpt>
      <trkpt lat="47.26008" lon="-1.55571">
        <ele>53</ele>
        <time>2022-01-20T13:17:39Z</time>
      </trkpt>
      <trkpt lat="47.26008" lon="-1.55573">
        <ele>54</ele>
        <time>2022-01-20T13:17:40Z</time>
      </trkpt>
      <trkpt lat="47.26006" lon="-1.55575">
        <ele>54</ele>
        <time>2022-01-20T13:17:41Z</time>
      </trkpt>
      <trkpt lat="47.26006" lon="-1.55577">
        <ele>54</ele>
        <time>2022-01-20T13:17:42Z</time>
      </trkpt>
      <trkpt lat="47.26005" lon="-1.55578">
        <ele>54</ele>
        <time>2022-01-20T13:17:43Z</time>
      </trkpt>
      <trkpt lat="47.26004" lon="-1.55579">
        <ele>54</ele>
        <time>2022-01-20T13:17:44Z</time>
      </trkpt>
      <trkpt lat="47.26003" lon="-1.55581">
        <ele>55</ele>
        <time>2022-01-20T13:17:45Z</time>
      </trkpt>
      <trkpt lat="47.26003" lon="-1.55582">
        <ele>55</ele>
        <time>2022-01-20T13:17:46Z</time>
      </trkpt>
      <trkpt lat="47.26003" lon="-1.55584">
        <ele>55</ele>
        <time>2022-01-20T13:17:47Z</time>
      </trkpt>
      <trkpt lat="47.26002" lon="-1.55586">
        <ele>55</ele>
        <time>2022-01-20T13:17:48Z</time>
      </trkpt>
      <trkpt lat="47.26002" lon="-1.55588">
        <ele>55</ele>
        <time>2022-01-20T13:17:49Z</time>
      </trkpt>
      <trkpt lat="47.26001" lon="-1.5559">
        <ele>55</ele>
        <time>2022-01-20T13:17:50Z</time>
      </trkpt>
      <trkpt lat="47.26001" lon="-1.55591">
        <ele>55</ele>
        <time>2022-01-20T13:17:51Z</time>
      </trkpt>
      <trkpt lat="47.26001" lon="-1.55592">
        <ele>56</ele>
        <time>2022-01-20T13:17:52Z</time>
      </trkpt>
      <trkpt lat="47.26001" lon="-1.55594">
        <ele>57</ele>
        <time>2022-01-20T13:17:53Z</time>
      </trkpt>
      <trkpt lat="47.26001" lon="-1.55596">
        <ele>56</ele>
        <time>2022-01-20T13:17:54Z</time>
      </trkpt>
      <trkpt lat="47.26001" lon="-1.55598">
        <ele>56</ele>
        <time>2022-01-20T13:17:55Z</time>
      </trkpt>
      <trkpt lat="47.26001" lon="-1.556">
        <ele>55</ele>
        <time>2022-01-20T13:17:56Z</time>
      </trkpt>
      <trkpt lat="47.26" lon="-1.55602">
        <ele>55</ele>
        <time>2022-01-20T13:17:57Z</time>
      </trkpt>
      <trkpt lat="47.26" lon="-1.55603">
        <ele>54</ele>
        <time>2022-01-20T13:17:58Z</time>
      </trkpt>
      <trkpt lat="47.25999" lon="-1.55604">
        <ele>54</ele>
        <time>2022-01-20T13:17:59Z</time>
      </trkpt>
      <trkpt lat="47.25998" lon="-1.55606">
        <ele>54</ele>
        <time>2022-01-20T13:18:00Z</time>
      </trkpt>
      <trkpt lat="47.25997" lon="-1.55607">
        <ele>54</ele>
        <time>2022-01-20T13:18:01Z</time>
      </trkpt>
      <trkpt lat="47.25996" lon="-1.55608">
        <ele>53</ele>
        <time>2022-01-20T13:18:02Z</time>
      </trkpt>
      <trkpt lat="47.25995" lon="-1.55609">
        <ele>53</ele>
        <time>2022-01-20T13:18:03Z</time>
      </trkpt>
      <trkpt lat="47.25994" lon="-1.5561">
        <ele>53</ele>
        <time>2022-01-20T13:18:04Z</time>
      </trkpt>
      <trkpt lat="47.25993" lon="-1.55611">
        <ele>53</ele>
        <time>2022-01-20T13:18:05Z</time>
      </trkpt>
      <trkpt lat="47.25992" lon="-1.55612">
        <ele>53</ele>
        <time>2022-01-20T13:18:06Z</time>
      </trkpt>
      <trkpt lat="47.25991" lon="-1.55612">
        <ele>52</ele>
        <time>2022-01-20T13:18:07Z</time>
      </trkpt>
      <trkpt lat="47.2599" lon="-1.55613">
        <ele>52</ele>
        <time>2022-01-20T13:18:08Z</time>
      </trkpt>
      <trkpt lat="47.2599" lon="-1.55614">
        <ele>52</ele>
        <time>2022-01-20T13:18:09Z</time>
      </trkpt>
      <trkpt lat="47.25989" lon="-1.55615">
        <ele>52</ele>
        <time>2022-01-20T13:18:10Z</time>
      </trkpt>
      <trkpt lat="47.25989" lon="-1.55616">
        <ele>52</ele>
        <time>2022-01-20T13:18:11Z</time>
      </trkpt>
      <trkpt lat="47.25988" lon="-1.55617">
        <ele>53</ele>
        <time>2022-01-20T13:18:12Z</time>
      </trkpt>
      <trkpt lat="47.25988" lon="-1.55619">
        <ele>53</ele>
        <time>2022-01-20T13:18:13Z</time>
      </trkpt>
      <trkpt lat="47.25987" lon="-1.5562">
        <ele>53</ele>
        <time>2022-01-20T13:18:14Z</time>
      </trkpt>
      <trkpt lat="47.25987" lon="-1.55622">
        <ele>54</ele>
        <time>2022-01-20T13:18:15Z</time>
      </trkpt>
      <trkpt lat="47.25986" lon="-1.55622">
        <ele>54</ele>
        <time>2022-01-20T13:18:16Z</time>
      </trkpt>
      <trkpt lat="47.25984" lon="-1.55623">
        <ele>54</ele>
        <time>2022-01-20T13:18:17Z</time>
      </trkpt>
      <trkpt lat="47.25983" lon="-1.55624">
        <ele>54</ele>
        <time>2022-01-20T13:18:18Z</time>
      </trkpt>
      <trkpt lat="47.25982" lon="-1.55625">
        <ele>54</ele>
        <time>2022-01-20T13:18:19Z</time>
      </trkpt>
      <trkpt lat="47.2598" lon="-1.55626">
        <ele>54</ele>
        <time>2022-01-20T13:18:20Z</time>
      </trkpt>
      <trkpt lat="47.25979" lon="-1.55626">
        <ele>54</ele>
        <time>2022-01-20T13:18:21Z</time>
      </trkpt>
      <trkpt lat="47.25977" lon="-1.55627">
        <ele>55</ele>
        <time>2022-01-20T13:18:22Z</time>
      </trkpt>
      <trkpt lat="47.25976" lon="-1.55627">
        <ele>55</ele>
        <time>2022-01-20T13:18:23Z</time>
      </trkpt>
      <trkpt lat="47.25974" lon="-1.55627">
        <ele>55</ele>
        <time>2022-01-20T13:18:24Z</time>
      </trkpt>
      <trkpt lat="47.25973" lon="-1.55626">
        <ele>55</ele>
        <time>2022-01-20T13:18:25Z</time>
      </trkpt>
      <trkpt lat="47.25972" lon="-1.55626">
        <ele>55</ele>
        <time>2022-01-20T13:18:26Z</time>
      </trkpt>
      <trkpt lat="47.25971" lon="-1.55626">
        <ele>55</ele>
        <time>2022-01-20T13:18:27Z</time>
      </trkpt>
      <trkpt lat="47.25971" lon="-1.55627">
        <ele>55</ele>
        <time>2022-01-20T13:18:28Z</time>
      </trkpt>
      <trkpt lat="47.2597" lon="-1.55628">
        <ele>54</ele>
        <time>2022-01-20T13:18:29Z</time>
      </trkpt>
      <trkpt lat="47.25969" lon="-1.55629">
        <ele>54</ele>
        <time>2022-01-20T13:18:30Z</time>
      </trkpt>
      <trkpt lat="47.25969" lon="-1.5563">
        <ele>54</ele>
        <time>2022-01-20T13:18:31Z</time>
      </trkpt>
      <trkpt lat="47.25969" lon="-1.55632">
        <ele>54</ele>
        <time>2022-01-20T13:18:32Z</time>
      </trkpt>
      <trkpt lat="47.25967" lon="-1.55633">
        <ele>54</ele>
        <time>2022-01-20T13:18:33Z</time>
      </trkpt>
      <trkpt lat="47.25967" lon="-1.55635">
        <ele>54</ele>
        <time>2022-01-20T13:18:34Z</time>
      </trkpt>
      <trkpt lat="47.25966" lon="-1.55636">
        <ele>55</ele>
        <time>2022-01-20T13:18:35Z</time>
      </trkpt>
      <trkpt lat="47.25966" lon="-1.55638">
        <ele>55</ele>
        <time>2022-01-20T13:18:36Z</time>
      </trkpt>
      <trkpt lat="47.25965" lon="-1.5564">
        <ele>56</ele>
        <time>2022-01-20T13:18:37Z</time>
      </trkpt>
      <trkpt lat="47.25964" lon="-1.55642">
        <ele>56</ele>
        <time>2022-01-20T13:18:38Z</time>
      </trkpt>
      <trkpt lat="47.25963" lon="-1.55643">
        <ele>56</ele>
        <time>2022-01-20T13:18:39Z</time>
      </trkpt>
      <trkpt lat="47.25962" lon="-1.55645">
        <ele>56</ele>
        <time>2022-01-20T13:18:40Z</time>
      </trkpt>
      <trkpt lat="47.25961" lon="-1.55646">
        <ele>56</ele>
        <time>2022-01-20T13:18:41Z</time>
      </trkpt>
      <trkpt lat="47.2596" lon="-1.55648">
        <ele>57</ele>
        <time>2022-01-20T13:18:42Z</time>
      </trkpt>
      <trkpt lat="47.2596" lon="-1.5565">
        <ele>56</ele>
        <time>2022-01-20T13:18:43Z</time>
      </trkpt>
      <trkpt lat="47.25959" lon="-1.55651">
        <ele>56</ele>
        <time>2022-01-20T13:18:44Z</time>
      </trkpt>
      <trkpt lat="47.25959" lon="-1.55653">
        <ele>56</ele>
        <time>2022-01-20T13:18:45Z</time>
      </trkpt>
      <trkpt lat="47.25958" lon="-1.55655">
        <ele>55</ele>
        <time>2022-01-20T13:18:46Z</time>
      </trkpt>
      <trkpt lat="47.25958" lon="-1.55657">
        <ele>55</ele>
        <time>2022-01-20T13:18:47Z</time>
      </trkpt>
      <trkpt lat="47.25957" lon="-1.55658">
        <ele>55</ele>
        <time>2022-01-20T13:18:48Z</time>
      </trkpt>
      <trkpt lat="47.25956" lon="-1.5566">
        <ele>54</ele>
        <time>2022-01-20T13:18:49Z</time>
      </trkpt>
      <trkpt lat="47.25955" lon="-1.55661">
        <ele>54</ele>
        <time>2022-01-20T13:18:50Z</time>
      </trkpt>
      <trkpt lat="47.25955" lon="-1.55663">
        <ele>54</ele>
        <time>2022-01-20T13:18:51Z</time>
      </trkpt>
      <trkpt lat="47.25954" lon="-1.55665">
        <ele>54</ele>
        <time>2022-01-20T13:18:52Z</time>
      </trkpt>
      <trkpt lat="47.25954" lon="-1.55667">
        <ele>54</ele>
        <time>2022-01-20T13:18:53Z</time>
      </trkpt>
      <trkpt lat="47.25953" lon="-1.55668">
        <ele>54</ele>
        <time>2022-01-20T13:18:54Z</time>
      </trkpt>
      <trkpt lat="47.25953" lon="-1.5567">
        <ele>54</ele>
        <time>2022-01-20T13:18:55Z</time>
      </trkpt>
      <trkpt lat="47.25952" lon="-1.55672">
        <ele>54</ele>
        <time>2022-01-20T13:18:56Z</time>
      </trkpt>
      <trkpt lat="47.25951" lon="-1.55673">
        <ele>53</ele>
        <time>2022-01-20T13:18:57Z</time>
      </trkpt>
      <trkpt lat="47.25951" lon="-1.55674">
        <ele>53</ele>
        <time>2022-01-20T13:18:58Z</time>
      </trkpt>
      <trkpt lat="47.2595" lon="-1.55675">
        <ele>54</ele>
        <time>2022-01-20T13:18:59Z</time>
      </trkpt>
      <trkpt lat="47.25949" lon="-1.55676">
        <ele>54</ele>
        <time>2022-01-20T13:19:00Z</time>
      </trkpt>
      <trkpt lat="47.25948" lon="-1.55677">
        <ele>55</ele>
        <time>2022-01-20T13:19:01Z</time>
      </trkpt>
      <trkpt lat="47.25946" lon="-1.55678">
        <ele>55</ele>
        <time>2022-01-20T13:19:02Z</time>
      </trkpt>
      <trkpt lat="47.25946" lon="-1.5568">
        <ele>54</ele>
        <time>2022-01-20T13:19:03Z</time>
      </trkpt>
      <trkpt lat="47.25945" lon="-1.55682">
        <ele>54</ele>
        <time>2022-01-20T13:19:04Z</time>
      </trkpt>
      <trkpt lat="47.25945" lon="-1.55684">
        <ele>54</ele>
        <time>2022-01-20T13:19:05Z</time>
      </trkpt>
      <trkpt lat="47.25944" lon="-1.55686">
        <ele>53</ele>
        <time>2022-01-20T13:19:06Z</time>
      </trkpt>
      <trkpt lat="47.25943" lon="-1.55687">
        <ele>53</ele>
        <time>2022-01-20T13:19:07Z</time>
      </trkpt>
      <trkpt lat="47.25944" lon="-1.55688">
        <ele>53</ele>
        <time>2022-01-20T13:19:08Z</time>
      </trkpt>
      <trkpt lat="47.25944" lon="-1.5569">
        <ele>54</ele>
        <time>2022-01-20T13:19:09Z</time>
      </trkpt>
      <trkpt lat="47.25945" lon="-1.55691">
        <ele>54</ele>
        <time>2022-01-20T13:19:10Z</time>
      </trkpt>
      <trkpt lat="47.25945" lon="-1.55692">
        <ele>53</ele>
        <time>2022-01-20T13:19:11Z</time>
      </trkpt>
      <trkpt lat="47.25945" lon="-1.55694">
        <ele>53</ele>
        <time>2022-01-20T13:19:12Z</time>
      </trkpt>
      <trkpt lat="47.25945" lon="-1.55696">
        <ele>53</ele>
        <time>2022-01-20T13:19:13Z</time>
      </trkpt>
      <trkpt lat="47.25944" lon="-1.55697">
        <ele>53</ele>
        <time>2022-01-20T13:19:14Z</time>
      </trkpt>
      <trkpt lat="47.25944" lon="-1.55699">
        <ele>53</ele>
        <time>2022-01-20T13:19:15Z</time>
      </trkpt>
      <trkpt lat="47.25944" lon="-1.557">
        <ele>54</ele>
        <time>2022-01-20T13:19:16Z</time>
      </trkpt>
      <trkpt lat="47.25944" lon="-1.55701">
        <ele>54</ele>
        <time>2022-01-20T13:19:17Z</time>
      </trkpt>
      <trkpt lat="47.25944" lon="-1.55703">
        <ele>54</ele>
        <time>2022-01-20T13:19:18Z</time>
      </trkpt>
      <trkpt lat="47.25944" lon="-1.55705">
        <ele>54</ele>
        <time>2022-01-20T13:19:19Z</time>
      </trkpt>
      <trkpt lat="47.25943" lon="-1.55707">
        <ele>54</ele>
        <time>2022-01-20T13:19:20Z</time>
      </trkpt>
      <trkpt lat="47.25942" lon="-1.55709">
        <ele>54</ele>
        <time>2022-01-20T13:19:21Z</time>
      </trkpt>
      <trkpt lat="47.25942" lon="-1.5571">
        <ele>54</ele>
        <time>2022-01-20T13:19:22Z</time>
      </trkpt>
      <trkpt lat="47.25942" lon="-1.55711">
        <ele>54</ele>
        <time>2022-01-20T13:19:23Z</time>
      </trkpt>
      <trkpt lat="47.25941" lon="-1.55712">
        <ele>55</ele>
        <time>2022-01-20T13:19:24Z</time>
      </trkpt>
      <trkpt lat="47.25942" lon="-1.55714">
        <ele>56</ele>
        <time>2022-01-20T13:19:25Z</time>
      </trkpt>
      <trkpt lat="47.25942" lon="-1.55715">
        <ele>56</ele>
        <time>2022-01-20T13:19:26Z</time>
      </trkpt>
      <trkpt lat="47.25943" lon="-1.55716">
        <ele>56</ele>
        <time>2022-01-20T13:19:27Z</time>
      </trkpt>
      <trkpt lat="47.25943" lon="-1.55717">
        <ele>56</ele>
        <time>2022-01-20T13:19:28Z</time>
      </trkpt>
      <trkpt lat="47.25944" lon="-1.55718">
        <ele>55</ele>
        <time>2022-01-20T13:19:29Z</time>
      </trkpt>
      <trkpt lat="47.25945" lon="-1.5572">
        <ele>56</ele>
        <time>2022-01-20T13:19:30Z</time>
      </trkpt>
      <trkpt lat="47.25946" lon="-1.55721">
        <ele>56</ele>
        <time>2022-01-20T13:19:31Z</time>
      </trkpt>
      <trkpt lat="47.25946" lon="-1.55723">
        <ele>56</ele>
        <time>2022-01-20T13:19:32Z</time>
      </trkpt>
      <trkpt lat="47.25946" lon="-1.55724">
        <ele>56</ele>
        <time>2022-01-20T13:19:33Z</time>
      </trkpt>
      <trkpt lat="47.25947" lon="-1.55726">
        <ele>56</ele>
        <time>2022-01-20T13:19:34Z</time>
      </trkpt>
      <trkpt lat="47.25948" lon="-1.55728">
        <ele>57</ele>
        <time>2022-01-20T13:19:35Z</time>
      </trkpt>
      <trkpt lat="47.25949" lon="-1.55729">
        <ele>57</ele>
        <time>2022-01-20T13:19:36Z</time>
      </trkpt>
      <trkpt lat="47.2595" lon="-1.55731">
        <ele>56</ele>
        <time>2022-01-20T13:19:37Z</time>
      </trkpt>
      <trkpt lat="47.2595" lon="-1.55733">
        <ele>56</ele>
        <time>2022-01-20T13:19:38Z</time>
      </trkpt>
      <trkpt lat="47.25951" lon="-1.55734">
        <ele>56</ele>
        <time>2022-01-20T13:19:39Z</time>
      </trkpt>
      <trkpt lat="47.25952" lon="-1.55735">
        <ele>56</ele>
        <time>2022-01-20T13:19:40Z</time>
      </trkpt>
      <trkpt lat="47.25953" lon="-1.55736">
        <ele>56</ele>
        <time>2022-01-20T13:19:41Z</time>
      </trkpt>
      <trkpt lat="47.25954" lon="-1.55737">
        <ele>56</ele>
        <time>2022-01-20T13:19:42Z</time>
      </trkpt>
      <trkpt lat="47.25955" lon="-1.55738">
        <ele>56</ele>
        <time>2022-01-20T13:19:43Z</time>
      </trkpt>
      <trkpt lat="47.25956" lon="-1.55738">
        <ele>56</ele>
        <time>2022-01-20T13:19:44Z</time>
      </trkpt>
      <trkpt lat="47.25957" lon="-1.55739">
        <ele>57</ele>
        <time>2022-01-20T13:19:45Z</time>
      </trkpt>
      <trkpt lat="47.25958" lon="-1.55739">
        <ele>57</ele>
        <time>2022-01-20T13:19:46Z</time>
      </trkpt>
      <trkpt lat="47.25959" lon="-1.55739">
        <ele>57</ele>
        <time>2022-01-20T13:19:47Z</time>
      </trkpt>
      <trkpt lat="47.25959" lon="-1.5574">
        <ele>57</ele>
        <time>2022-01-20T13:19:48Z</time>
      </trkpt>
      <trkpt lat="47.2596" lon="-1.55741">
        <ele>57</ele>
        <time>2022-01-20T13:19:49Z</time>
      </trkpt>
      <trkpt lat="47.25961" lon="-1.55742">
        <ele>58</ele>
        <time>2022-01-20T13:19:50Z</time>
      </trkpt>
      <trkpt lat="47.25962" lon="-1.55743">
        <ele>58</ele>
        <time>2022-01-20T13:19:51Z</time>
      </trkpt>
      <trkpt lat="47.25963" lon="-1.55744">
        <ele>58</ele>
        <time>2022-01-20T13:19:52Z</time>
      </trkpt>
      <trkpt lat="47.25964" lon="-1.55745">
        <ele>58</ele>
        <time>2022-01-20T13:19:53Z</time>
      </trkpt>
      <trkpt lat="47.25964" lon="-1.55746">
        <ele>59</ele>
        <time>2022-01-20T13:19:54Z</time>
      </trkpt>
      <trkpt lat="47.25966" lon="-1.55747">
        <ele>59</ele>
        <time>2022-01-20T13:19:55Z</time>
      </trkpt>
      <trkpt lat="47.25966" lon="-1.55748">
        <ele>59</ele>
        <time>2022-01-20T13:19:56Z</time>
      </trkpt>
      <trkpt lat="47.25967" lon="-1.55749">
        <ele>60</ele>
        <time>2022-01-20T13:19:57Z</time>
      </trkpt>
      <trkpt lat="47.25968" lon="-1.55751">
        <ele>59</ele>
        <time>2022-01-20T13:19:58Z</time>
      </trkpt>
      <trkpt lat="47.25969" lon="-1.55752">
        <ele>60</ele>
        <time>2022-01-20T13:19:59Z</time>
      </trkpt>
      <trkpt lat="47.25969" lon="-1.55755">
        <ele>61</ele>
        <time>2022-01-20T13:20:00Z</time>
      </trkpt>
      <trkpt lat="47.2597" lon="-1.55757">
        <ele>61</ele>
        <time>2022-01-20T13:20:01Z</time>
      </trkpt>
      <trkpt lat="47.25971" lon="-1.55759">
        <ele>61</ele>
        <time>2022-01-20T13:20:02Z</time>
      </trkpt>
      <trkpt lat="47.25971" lon="-1.5576">
        <ele>61</ele>
        <time>2022-01-20T13:20:03Z</time>
      </trkpt>
      <trkpt lat="47.25972" lon="-1.55762">
        <ele>60</ele>
        <time>2022-01-20T13:20:04Z</time>
      </trkpt>
      <trkpt lat="47.25972" lon="-1.55765">
        <ele>61</ele>
        <time>2022-01-20T13:20:05Z</time>
      </trkpt>
      <trkpt lat="47.25972" lon="-1.55768">
        <ele>61</ele>
        <time>2022-01-20T13:20:06Z</time>
      </trkpt>
      <trkpt lat="47.25972" lon="-1.5577">
        <ele>61</ele>
        <time>2022-01-20T13:20:07Z</time>
      </trkpt>
      <trkpt lat="47.25972" lon="-1.55773">
        <ele>61</ele>
        <time>2022-01-20T13:20:08Z</time>
      </trkpt>
      <trkpt lat="47.25972" lon="-1.55775">
        <ele>61</ele>
        <time>2022-01-20T13:20:09Z</time>
      </trkpt>
      <trkpt lat="47.25972" lon="-1.55778">
        <ele>61</ele>
        <time>2022-01-20T13:20:10Z</time>
      </trkpt>
      <trkpt lat="47.25972" lon="-1.5578">
        <ele>60</ele>
        <time>2022-01-20T13:20:11Z</time>
      </trkpt>
      <trkpt lat="47.25972" lon="-1.55782">
        <ele>59</ele>
        <time>2022-01-20T13:20:12Z</time>
      </trkpt>
      <trkpt lat="47.25972" lon="-1.55784">
        <ele>59</ele>
        <time>2022-01-20T13:20:13Z</time>
      </trkpt>
      <trkpt lat="47.25972" lon="-1.55787">
        <ele>59</ele>
        <time>2022-01-20T13:20:14Z</time>
      </trkpt>
      <trkpt lat="47.25972" lon="-1.5579">
        <ele>59</ele>
        <time>2022-01-20T13:20:15Z</time>
      </trkpt>
      <trkpt lat="47.25972" lon="-1.55793">
        <ele>58</ele>
        <time>2022-01-20T13:20:16Z</time>
      </trkpt>
      <trkpt lat="47.25972" lon="-1.55795">
        <ele>58</ele>
        <time>2022-01-20T13:20:17Z</time>
      </trkpt>
      <trkpt lat="47.25972" lon="-1.55797">
        <ele>58</ele>
        <time>2022-01-20T13:20:18Z</time>
      </trkpt>
      <trkpt lat="47.25973" lon="-1.55799">
        <ele>58</ele>
        <time>2022-01-20T13:20:19Z</time>
      </trkpt>
      <trkpt lat="47.25973" lon="-1.55801">
        <ele>57</ele>
        <time>2022-01-20T13:20:20Z</time>
      </trkpt>
      <trkpt lat="47.25973" lon="-1.55803">
        <ele>57</ele>
        <time>2022-01-20T13:20:21Z</time>
      </trkpt>
      <trkpt lat="47.25974" lon="-1.55805">
        <ele>57</ele>
        <time>2022-01-20T13:20:22Z</time>
      </trkpt>
      <trkpt lat="47.25973" lon="-1.55806">
        <ele>57</ele>
        <time>2022-01-20T13:20:23Z</time>
      </trkpt>
      <trkpt lat="47.25974" lon="-1.55808">
        <ele>57</ele>
        <time>2022-01-20T13:20:24Z</time>
      </trkpt>
      <trkpt lat="47.25974" lon="-1.5581">
        <ele>57</ele>
        <time>2022-01-20T13:20:25Z</time>
      </trkpt>
      <trkpt lat="47.25974" lon="-1.55812">
        <ele>57</ele>
        <time>2022-01-20T13:20:26Z</time>
      </trkpt>
      <trkpt lat="47.25974" lon="-1.55813">
        <ele>57</ele>
        <time>2022-01-20T13:20:27Z</time>
      </trkpt>
      <trkpt lat="47.25974" lon="-1.55815">
        <ele>57</ele>
        <time>2022-01-20T13:20:28Z</time>
      </trkpt>
      <trkpt lat="47.25974" lon="-1.55817">
        <ele>57</ele>
        <time>2022-01-20T13:20:29Z</time>
      </trkpt>
      <trkpt lat="47.25974" lon="-1.55819">
        <ele>57</ele>
        <time>2022-01-20T13:20:30Z</time>
      </trkpt>
      <trkpt lat="47.25974" lon="-1.55821">
        <ele>57</ele>
        <time>2022-01-20T13:20:31Z</time>
      </trkpt>
      <trkpt lat="47.25974" lon="-1.55823">
        <ele>58</ele>
        <time>2022-01-20T13:20:32Z</time>
      </trkpt>
      <trkpt lat="47.25973" lon="-1.55825">
        <ele>57</ele>
        <time>2022-01-20T13:20:33Z</time>
      </trkpt>
      <trkpt lat="47.25973" lon="-1.55827">
        <ele>57</ele>
        <time>2022-01-20T13:20:34Z</time>
      </trkpt>
      <trkpt lat="47.25973" lon="-1.55829">
        <ele>57</ele>
        <time>2022-01-20T13:20:35Z</time>
      </trkpt>
      <trkpt lat="47.25973" lon="-1.55833">
        <ele>56</ele>
        <time>2022-01-20T13:20:36Z</time>
      </trkpt>
      <trkpt lat="47.25973" lon="-1.55833">
        <ele>56</ele>
        <time>2022-01-20T13:20:36Z</time>
      </trkpt>
      <trkpt lat="47.25973" lon="-1.55835">
        <ele>56</ele>
        <time>2022-01-20T13:20:38Z</time>
      </trkpt>
      <trkpt lat="47.25972" lon="-1.55837">
        <ele>55</ele>
        <time>2022-01-20T13:20:39Z</time>
      </trkpt>
      <trkpt lat="47.25972" lon="-1.55839">
        <ele>56</ele>
        <time>2022-01-20T13:20:40Z</time>
      </trkpt>
      <trkpt lat="47.25972" lon="-1.55841">
        <ele>56</ele>
        <time>2022-01-20T13:20:41Z</time>
      </trkpt>
      <trkpt lat="47.25972" lon="-1.55844">
        <ele>56</ele>
        <time>2022-01-20T13:20:42Z</time>
      </trkpt>
      <trkpt lat="47.25972" lon="-1.55844">
        <ele>56</ele>
        <time>2022-01-20T13:20:42Z</time>
      </trkpt>
      <trkpt lat="47.25971" lon="-1.55846">
        <ele>56</ele>
        <time>2022-01-20T13:20:44Z</time>
      </trkpt>
      <trkpt lat="47.25971" lon="-1.55848">
        <ele>55</ele>
        <time>2022-01-20T13:20:45Z</time>
      </trkpt>
      <trkpt lat="47.25971" lon="-1.5585">
        <ele>56</ele>
        <time>2022-01-20T13:20:46Z</time>
      </trkpt>
      <trkpt lat="47.25971" lon="-1.55853">
        <ele>56</ele>
        <time>2022-01-20T13:20:47Z</time>
      </trkpt>
      <trkpt lat="47.25972" lon="-1.55855">
        <ele>56</ele>
        <time>2022-01-20T13:20:48Z</time>
      </trkpt>
      <trkpt lat="47.25972" lon="-1.55857">
        <ele>56</ele>
        <time>2022-01-20T13:20:49Z</time>
      </trkpt>
      <trkpt lat="47.25972" lon="-1.5586">
        <ele>55</ele>
        <time>2022-01-20T13:20:50Z</time>
      </trkpt>
      <trkpt lat="47.25972" lon="-1.55862">
        <ele>56</ele>
        <time>2022-01-20T13:20:51Z</time>
      </trkpt>
      <trkpt lat="47.25972" lon="-1.55864">
        <ele>57</ele>
        <time>2022-01-20T13:20:52Z</time>
      </trkpt>
      <trkpt lat="47.25972" lon="-1.55865">
        <ele>57</ele>
        <time>2022-01-20T13:20:53Z</time>
      </trkpt>
      <trkpt lat="47.25972" lon="-1.55867">
        <ele>57</ele>
        <time>2022-01-20T13:20:54Z</time>
      </trkpt>
      <trkpt lat="47.25972" lon="-1.55869">
        <ele>57</ele>
        <time>2022-01-20T13:20:55Z</time>
      </trkpt>
      <trkpt lat="47.25972" lon="-1.55871">
        <ele>56</ele>
        <time>2022-01-20T13:20:56Z</time>
      </trkpt>
      <trkpt lat="47.25973" lon="-1.55874">
        <ele>57</ele>
        <time>2022-01-20T13:20:57Z</time>
      </trkpt>
      <trkpt lat="47.25973" lon="-1.55874">
        <ele>57</ele>
        <time>2022-01-20T13:20:57Z</time>
      </trkpt>
      <trkpt lat="47.25973" lon="-1.55875">
        <ele>57</ele>
        <time>2022-01-20T13:20:59Z</time>
      </trkpt>
      <trkpt lat="47.25973" lon="-1.55877">
        <ele>56</ele>
        <time>2022-01-20T13:21:00Z</time>
      </trkpt>
      <trkpt lat="47.25973" lon="-1.55881">
        <ele>57</ele>
        <time>2022-01-20T13:21:01Z</time>
      </trkpt>
      <trkpt lat="47.25974" lon="-1.55883">
        <ele>57</ele>
        <time>2022-01-20T13:21:02Z</time>
      </trkpt>
      <trkpt lat="47.25974" lon="-1.55885">
        <ele>57</ele>
        <time>2022-01-20T13:21:03Z</time>
      </trkpt>
      <trkpt lat="47.25974" lon="-1.55887">
        <ele>57</ele>
        <time>2022-01-20T13:21:04Z</time>
      </trkpt>
      <trkpt lat="47.25975" lon="-1.55888">
        <ele>57</ele>
        <time>2022-01-20T13:21:05Z</time>
      </trkpt>
      <trkpt lat="47.25975" lon="-1.5589">
        <ele>57</ele>
        <time>2022-01-20T13:21:06Z</time>
      </trkpt>
      <trkpt lat="47.25975" lon="-1.55891">
        <ele>58</ele>
        <time>2022-01-20T13:21:07Z</time>
      </trkpt>
      <trkpt lat="47.25975" lon="-1.55893">
        <ele>59</ele>
        <time>2022-01-20T13:21:08Z</time>
      </trkpt>
      <trkpt lat="47.25975" lon="-1.55893">
        <ele>59</ele>
        <time>2022-01-20T13:21:08Z</time>
      </trkpt>
      <trkpt lat="47.25977" lon="-1.55896">
        <ele>59</ele>
        <time>2022-01-20T13:21:10Z</time>
      </trkpt>
      <trkpt lat="47.25977" lon="-1.55896">
        <ele>59</ele>
        <time>2022-01-20T13:21:10Z</time>
      </trkpt>
      <trkpt lat="47.25977" lon="-1.55899">
        <ele>60</ele>
        <time>2022-01-20T13:21:12Z</time>
      </trkpt>
      <trkpt lat="47.25977" lon="-1.55901">
        <ele>60</ele>
        <time>2022-01-20T13:21:13Z</time>
      </trkpt>
      <trkpt lat="47.25977" lon="-1.55903">
        <ele>60</ele>
        <time>2022-01-20T13:21:14Z</time>
      </trkpt>
      <trkpt lat="47.25977" lon="-1.55903">
        <ele>60</ele>
        <time>2022-01-20T13:21:14Z</time>
      </trkpt>
      <trkpt lat="47.25979" lon="-1.55905">
        <ele>60</ele>
        <time>2022-01-20T13:21:16Z</time>
      </trkpt>
      <trkpt lat="47.25979" lon="-1.55906">
        <ele>60</ele>
        <time>2022-01-20T13:21:17Z</time>
      </trkpt>
      <trkpt lat="47.25979" lon="-1.55908">
        <ele>60</ele>
        <time>2022-01-20T13:21:18Z</time>
      </trkpt>
      <trkpt lat="47.25979" lon="-1.5591">
        <ele>60</ele>
        <time>2022-01-20T13:21:19Z</time>
      </trkpt>
      <trkpt lat="47.25979" lon="-1.5591">
        <ele>60</ele>
        <time>2022-01-20T13:21:19Z</time>
      </trkpt>
      <trkpt lat="47.25979" lon="-1.55912">
        <ele>61</ele>
        <time>2022-01-20T13:21:21Z</time>
      </trkpt>
      <trkpt lat="47.25979" lon="-1.55912">
        <ele>61</ele>
        <time>2022-01-20T13:21:21Z</time>
      </trkpt>
      <trkpt lat="47.25981" lon="-1.55916">
        <ele>61</ele>
        <time>2022-01-20T13:21:23Z</time>
      </trkpt>
      <trkpt lat="47.25981" lon="-1.55917">
        <ele>61</ele>
        <time>2022-01-20T13:21:24Z</time>
      </trkpt>
      <trkpt lat="47.25981" lon="-1.55917">
        <ele>61</ele>
        <time>2022-01-20T13:21:24Z</time>
      </trkpt>
      <trkpt lat="47.25982" lon="-1.55922">
        <ele>60</ele>
        <time>2022-01-20T13:21:26Z</time>
      </trkpt>
      <trkpt lat="47.25982" lon="-1.55924">
        <ele>60</ele>
        <time>2022-01-20T13:21:27Z</time>
      </trkpt>
      <trkpt lat="47.25982" lon="-1.55927">
        <ele>60</ele>
        <time>2022-01-20T13:21:28Z</time>
      </trkpt>
      <trkpt lat="47.25983" lon="-1.55929">
        <ele>61</ele>
        <time>2022-01-20T13:21:29Z</time>
      </trkpt>
      <trkpt lat="47.25983" lon="-1.5593">
        <ele>60</ele>
        <time>2022-01-20T13:21:30Z</time>
      </trkpt>
      <trkpt lat="47.25983" lon="-1.55932">
        <ele>60</ele>
        <time>2022-01-20T13:21:31Z</time>
      </trkpt>
      <trkpt lat="47.25983" lon="-1.55932">
        <ele>60</ele>
        <time>2022-01-20T13:21:31Z</time>
      </trkpt>
      <trkpt lat="47.25984" lon="-1.55936">
        <ele>60</ele>
        <time>2022-01-20T13:21:33Z</time>
      </trkpt>
      <trkpt lat="47.25984" lon="-1.55936">
        <ele>60</ele>
        <time>2022-01-20T13:21:33Z</time>
      </trkpt>
      <trkpt lat="47.25985" lon="-1.55939">
        <ele>60</ele>
        <time>2022-01-20T13:21:35Z</time>
      </trkpt>
      <trkpt lat="47.25985" lon="-1.55941">
        <ele>60</ele>
        <time>2022-01-20T13:21:36Z</time>
      </trkpt>
      <trkpt lat="47.25986" lon="-1.55942">
        <ele>59</ele>
        <time>2022-01-20T13:21:37Z</time>
      </trkpt>
      <trkpt lat="47.25987" lon="-1.55944">
        <ele>59</ele>
        <time>2022-01-20T13:21:38Z</time>
      </trkpt>
      <trkpt lat="47.25987" lon="-1.55944">
        <ele>59</ele>
        <time>2022-01-20T13:21:38Z</time>
      </trkpt>
      <trkpt lat="47.25988" lon="-1.55947">
        <ele>60</ele>
        <time>2022-01-20T13:21:40Z</time>
      </trkpt>
      <trkpt lat="47.25989" lon="-1.55949">
        <ele>61</ele>
        <time>2022-01-20T13:21:41Z</time>
      </trkpt>
      <trkpt lat="47.25989" lon="-1.55949">
        <ele>61</ele>
        <time>2022-01-20T13:21:41Z</time>
      </trkpt>
      <trkpt lat="47.2599" lon="-1.55952">
        <ele>61</ele>
        <time>2022-01-20T13:21:43Z</time>
      </trkpt>
      <trkpt lat="47.25991" lon="-1.55953">
        <ele>61</ele>
        <time>2022-01-20T13:21:44Z</time>
      </trkpt>
      <trkpt lat="47.25992" lon="-1.55955">
        <ele>61</ele>
        <time>2022-01-20T13:21:45Z</time>
      </trkpt>
      <trkpt lat="47.25992" lon="-1.55955">
        <ele>61</ele>
        <time>2022-01-20T13:21:46Z</time>
      </trkpt>
      <trkpt lat="47.25992" lon="-1.55955">
        <ele>61</ele>
        <time>2022-01-20T13:21:47Z</time>
      </trkpt>
      <trkpt lat="47.25993" lon="-1.55961">
        <ele>61</ele>
        <time>2022-01-20T13:21:48Z</time>
      </trkpt>
      <trkpt lat="47.25994" lon="-1.55963">
        <ele>61</ele>
        <time>2022-01-20T13:21:49Z</time>
      </trkpt>
      <trkpt lat="47.25995" lon="-1.55965">
        <ele>61</ele>
        <time>2022-01-20T13:21:50Z</time>
      </trkpt>
      <trkpt lat="47.25995" lon="-1.55967">
        <ele>61</ele>
        <time>2022-01-20T13:21:51Z</time>
      </trkpt>
      <trkpt lat="47.25996" lon="-1.55969">
        <ele>61</ele>
        <time>2022-01-20T13:21:52Z</time>
      </trkpt>
      <trkpt lat="47.25997" lon="-1.55971">
        <ele>61</ele>
        <time>2022-01-20T13:21:53Z</time>
      </trkpt>
      <trkpt lat="47.25998" lon="-1.55972">
        <ele>61</ele>
        <time>2022-01-20T13:21:54Z</time>
      </trkpt>
      <trkpt lat="47.25999" lon="-1.55974">
        <ele>61</ele>
        <time>2022-01-20T13:21:55Z</time>
      </trkpt>
      <trkpt lat="47.26" lon="-1.55976">
        <ele>61</ele>
        <time>2022-01-20T13:21:56Z</time>
      </trkpt>
      <trkpt lat="47.26" lon="-1.55978">
        <ele>62</ele>
        <time>2022-01-20T13:21:57Z</time>
      </trkpt>
      <trkpt lat="47.26001" lon="-1.5598">
        <ele>63</ele>
        <time>2022-01-20T13:21:58Z</time>
      </trkpt>
      <trkpt lat="47.26002" lon="-1.55982">
        <ele>63</ele>
        <time>2022-01-20T13:21:59Z</time>
      </trkpt>
      <trkpt lat="47.26003" lon="-1.55984">
        <ele>63</ele>
        <time>2022-01-20T13:22:00Z</time>
      </trkpt>
      <trkpt lat="47.26004" lon="-1.55985">
        <ele>64</ele>
        <time>2022-01-20T13:22:01Z</time>
      </trkpt>
      <trkpt lat="47.26004" lon="-1.55986">
        <ele>64</ele>
        <time>2022-01-20T13:22:02Z</time>
      </trkpt>
      <trkpt lat="47.26005" lon="-1.55988">
        <ele>64</ele>
        <time>2022-01-20T13:22:03Z</time>
      </trkpt>
      <trkpt lat="47.26006" lon="-1.5599">
        <ele>64</ele>
        <time>2022-01-20T13:22:04Z</time>
      </trkpt>
      <trkpt lat="47.26006" lon="-1.55992">
        <ele>65</ele>
        <time>2022-01-20T13:22:05Z</time>
      </trkpt>
      <trkpt lat="47.26007" lon="-1.55994">
        <ele>65</ele>
        <time>2022-01-20T13:22:06Z</time>
      </trkpt>
      <trkpt lat="47.26008" lon="-1.55995">
        <ele>65</ele>
        <time>2022-01-20T13:22:07Z</time>
      </trkpt>
      <trkpt lat="47.26008" lon="-1.55996">
        <ele>65</ele>
        <time>2022-01-20T13:22:08Z</time>
      </trkpt>
      <trkpt lat="47.26009" lon="-1.55998">
        <ele>66</ele>
        <time>2022-01-20T13:22:09Z</time>
      </trkpt>
      <trkpt lat="47.26009" lon="-1.55998">
        <ele>66</ele>
        <time>2022-01-20T13:22:10Z</time>
      </trkpt>
      <trkpt lat="47.26009" lon="-1.55998">
        <ele>66</ele>
        <time>2022-01-20T13:22:11Z</time>
      </trkpt>
      <trkpt lat="47.2601" lon="-1.56002">
        <ele>66</ele>
        <time>2022-01-20T13:22:12Z</time>
      </trkpt>
      <trkpt lat="47.26011" lon="-1.56003">
        <ele>67</ele>
        <time>2022-01-20T13:22:13Z</time>
      </trkpt>
      <trkpt lat="47.26011" lon="-1.56005">
        <ele>67</ele>
        <time>2022-01-20T13:22:14Z</time>
      </trkpt>
      <trkpt lat="47.26012" lon="-1.56007">
        <ele>66</ele>
        <time>2022-01-20T13:22:15Z</time>
      </trkpt>
      <trkpt lat="47.26012" lon="-1.56009">
        <ele>66</ele>
        <time>2022-01-20T13:22:16Z</time>
      </trkpt>
      <trkpt lat="47.26013" lon="-1.56011">
        <ele>66</ele>
        <time>2022-01-20T13:22:17Z</time>
      </trkpt>
      <trkpt lat="47.26014" lon="-1.56012">
        <ele>66</ele>
        <time>2022-01-20T13:22:18Z</time>
      </trkpt>
      <trkpt lat="47.26015" lon="-1.56014">
        <ele>65</ele>
        <time>2022-01-20T13:22:19Z</time>
      </trkpt>
      <trkpt lat="47.26015" lon="-1.56016">
        <ele>65</ele>
        <time>2022-01-20T13:22:20Z</time>
      </trkpt>
      <trkpt lat="47.26016" lon="-1.56018">
        <ele>66</ele>
        <time>2022-01-20T13:22:21Z</time>
      </trkpt>
      <trkpt lat="47.26016" lon="-1.56019">
        <ele>66</ele>
        <time>2022-01-20T13:22:22Z</time>
      </trkpt>
      <trkpt lat="47.26017" lon="-1.56021">
        <ele>66</ele>
        <time>2022-01-20T13:22:23Z</time>
      </trkpt>
      <trkpt lat="47.26017" lon="-1.56023">
        <ele>66</ele>
        <time>2022-01-20T13:22:24Z</time>
      </trkpt>
      <trkpt lat="47.26018" lon="-1.56025">
        <ele>65</ele>
        <time>2022-01-20T13:22:25Z</time>
      </trkpt>
      <trkpt lat="47.26019" lon="-1.56026">
        <ele>66</ele>
        <time>2022-01-20T13:22:26Z</time>
      </trkpt>
      <trkpt lat="47.2602" lon="-1.56028">
        <ele>66</ele>
        <time>2022-01-20T13:22:27Z</time>
      </trkpt>
      <trkpt lat="47.2602" lon="-1.5603">
        <ele>66</ele>
        <time>2022-01-20T13:22:28Z</time>
      </trkpt>
      <trkpt lat="47.2602" lon="-1.56032">
        <ele>66</ele>
        <time>2022-01-20T13:22:29Z</time>
      </trkpt>
      <trkpt lat="47.26021" lon="-1.56034">
        <ele>66</ele>
        <time>2022-01-20T13:22:30Z</time>
      </trkpt>
      <trkpt lat="47.26022" lon="-1.56036">
        <ele>66</ele>
        <time>2022-01-20T13:22:31Z</time>
      </trkpt>
      <trkpt lat="47.26022" lon="-1.56038">
        <ele>66</ele>
        <time>2022-01-20T13:22:32Z</time>
      </trkpt>
      <trkpt lat="47.26023" lon="-1.56039">
        <ele>67</ele>
        <time>2022-01-20T13:22:33Z</time>
      </trkpt>
      <trkpt lat="47.26024" lon="-1.5604">
        <ele>67</ele>
        <time>2022-01-20T13:22:34Z</time>
      </trkpt>
      <trkpt lat="47.26024" lon="-1.56042">
        <ele>67</ele>
        <time>2022-01-20T13:22:35Z</time>
      </trkpt>
      <trkpt lat="47.26024" lon="-1.56043">
        <ele>66</ele>
        <time>2022-01-20T13:22:36Z</time>
      </trkpt>
      <trkpt lat="47.26024" lon="-1.56045">
        <ele>66</ele>
        <time>2022-01-20T13:22:37Z</time>
      </trkpt>
      <trkpt lat="47.26025" lon="-1.56047">
        <ele>66</ele>
        <time>2022-01-20T13:22:38Z</time>
      </trkpt>
      <trkpt lat="47.26026" lon="-1.56048">
        <ele>66</ele>
        <time>2022-01-20T13:22:39Z</time>
      </trkpt>
      <trkpt lat="47.26027" lon="-1.5605">
        <ele>67</ele>
        <time>2022-01-20T13:22:40Z</time>
      </trkpt>
      <trkpt lat="47.26027" lon="-1.56052">
        <ele>67</ele>
        <time>2022-01-20T13:22:41Z</time>
      </trkpt>
      <trkpt lat="47.26027" lon="-1.56054">
        <ele>68</ele>
        <time>2022-01-20T13:22:42Z</time>
      </trkpt>
      <trkpt lat="47.26028" lon="-1.56056">
        <ele>69</ele>
        <time>2022-01-20T13:22:43Z</time>
      </trkpt>
      <trkpt lat="47.26028" lon="-1.56056">
        <ele>69</ele>
        <time>2022-01-20T13:22:44Z</time>
      </trkpt>
      <trkpt lat="47.26028" lon="-1.56056">
        <ele>69</ele>
        <time>2022-01-20T13:22:45Z</time>
      </trkpt>
      <trkpt lat="47.2603" lon="-1.56061">
        <ele>68</ele>
        <time>2022-01-20T13:22:46Z</time>
      </trkpt>
      <trkpt lat="47.2603" lon="-1.56063">
        <ele>68</ele>
        <time>2022-01-20T13:22:47Z</time>
      </trkpt>
      <trkpt lat="47.26031" lon="-1.56065">
        <ele>67</ele>
        <time>2022-01-20T13:22:48Z</time>
      </trkpt>
      <trkpt lat="47.26032" lon="-1.56067">
        <ele>67</ele>
        <time>2022-01-20T13:22:49Z</time>
      </trkpt>
      <trkpt lat="47.26033" lon="-1.56069">
        <ele>66</ele>
        <time>2022-01-20T13:22:50Z</time>
      </trkpt>
      <trkpt lat="47.26034" lon="-1.56071">
        <ele>66</ele>
        <time>2022-01-20T13:22:51Z</time>
      </trkpt>
      <trkpt lat="47.26035" lon="-1.56073">
        <ele>66</ele>
        <time>2022-01-20T13:22:52Z</time>
      </trkpt>
      <trkpt lat="47.26035" lon="-1.56075">
        <ele>65</ele>
        <time>2022-01-20T13:22:53Z</time>
      </trkpt>
      <trkpt lat="47.26036" lon="-1.56077">
        <ele>65</ele>
        <time>2022-01-20T13:22:54Z</time>
      </trkpt>
      <trkpt lat="47.26037" lon="-1.56079">
        <ele>65</ele>
        <time>2022-01-20T13:22:55Z</time>
      </trkpt>
      <trkpt lat="47.26038" lon="-1.56081">
        <ele>65</ele>
        <time>2022-01-20T13:22:56Z</time>
      </trkpt>
      <trkpt lat="47.26039" lon="-1.56082">
        <ele>65</ele>
        <time>2022-01-20T13:22:57Z</time>
      </trkpt>
      <trkpt lat="47.2604" lon="-1.56084">
        <ele>65</ele>
        <time>2022-01-20T13:22:58Z</time>
      </trkpt>
      <trkpt lat="47.2604" lon="-1.56085">
        <ele>65</ele>
        <time>2022-01-20T13:22:59Z</time>
      </trkpt>
      <trkpt lat="47.26041" lon="-1.56087">
        <ele>66</ele>
        <time>2022-01-20T13:23:00Z</time>
      </trkpt>
      <trkpt lat="47.26041" lon="-1.56089">
        <ele>66</ele>
        <time>2022-01-20T13:23:01Z</time>
      </trkpt>
      <trkpt lat="47.26042" lon="-1.56091">
        <ele>66</ele>
        <time>2022-01-20T13:23:02Z</time>
      </trkpt>
      <trkpt lat="47.26043" lon="-1.56093">
        <ele>66</ele>
        <time>2022-01-20T13:23:03Z</time>
      </trkpt>
      <trkpt lat="47.26044" lon="-1.56095">
        <ele>67</ele>
        <time>2022-01-20T13:23:04Z</time>
      </trkpt>
      <trkpt lat="47.26044" lon="-1.56097">
        <ele>67</ele>
        <time>2022-01-20T13:23:05Z</time>
      </trkpt>
      <trkpt lat="47.26045" lon="-1.56099">
        <ele>68</ele>
        <time>2022-01-20T13:23:06Z</time>
      </trkpt>
      <trkpt lat="47.26045" lon="-1.561">
        <ele>68</ele>
        <time>2022-01-20T13:23:07Z</time>
      </trkpt>
      <trkpt lat="47.26045" lon="-1.56102">
        <ele>68</ele>
        <time>2022-01-20T13:23:08Z</time>
      </trkpt>
      <trkpt lat="47.26045" lon="-1.56102">
        <ele>68</ele>
        <time>2022-01-20T13:23:09Z</time>
      </trkpt>
      <trkpt lat="47.26046" lon="-1.56105">
        <ele>69</ele>
        <time>2022-01-20T13:23:10Z</time>
      </trkpt>
      <trkpt lat="47.26046" lon="-1.56107">
        <ele>69</ele>
        <time>2022-01-20T13:23:11Z</time>
      </trkpt>
      <trkpt lat="47.26046" lon="-1.56109">
        <ele>70</ele>
        <time>2022-01-20T13:23:12Z</time>
      </trkpt>
      <trkpt lat="47.26046" lon="-1.56111">
        <ele>69</ele>
        <time>2022-01-20T13:23:13Z</time>
      </trkpt>
      <trkpt lat="47.26047" lon="-1.56113">
        <ele>69</ele>
        <time>2022-01-20T13:23:14Z</time>
      </trkpt>
      <trkpt lat="47.26048" lon="-1.56115">
        <ele>69</ele>
        <time>2022-01-20T13:23:15Z</time>
      </trkpt>
      <trkpt lat="47.26048" lon="-1.56119">
        <ele>69</ele>
        <time>2022-01-20T13:23:17Z</time>
      </trkpt>
      <trkpt lat="47.26048" lon="-1.56119">
        <ele>69</ele>
        <time>2022-01-20T13:23:17Z</time>
      </trkpt>
      <trkpt lat="47.26048" lon="-1.56121">
        <ele>69</ele>
        <time>2022-01-20T13:23:18Z</time>
      </trkpt>
      <trkpt lat="47.26048" lon="-1.56123">
        <ele>69</ele>
        <time>2022-01-20T13:23:19Z</time>
      </trkpt>
      <trkpt lat="47.26049" lon="-1.56125">
        <ele>68</ele>
        <time>2022-01-20T13:23:20Z</time>
      </trkpt>
      <trkpt lat="47.26049" lon="-1.56126">
        <ele>68</ele>
        <time>2022-01-20T13:23:21Z</time>
      </trkpt>
      <trkpt lat="47.26049" lon="-1.56127">
        <ele>69</ele>
        <time>2022-01-20T13:23:22Z</time>
      </trkpt>
      <trkpt lat="47.26049" lon="-1.56129">
        <ele>69</ele>
        <time>2022-01-20T13:23:23Z</time>
      </trkpt>
      <trkpt lat="47.26049" lon="-1.56131">
        <ele>69</ele>
        <time>2022-01-20T13:23:24Z</time>
      </trkpt>
      <trkpt lat="47.26049" lon="-1.56134">
        <ele>69</ele>
        <time>2022-01-20T13:23:25Z</time>
      </trkpt>
      <trkpt lat="47.26049" lon="-1.56136">
        <ele>70</ele>
        <time>2022-01-20T13:23:26Z</time>
      </trkpt>
      <trkpt lat="47.2605" lon="-1.56138">
        <ele>70</ele>
        <time>2022-01-20T13:23:27Z</time>
      </trkpt>
      <trkpt lat="47.2605" lon="-1.56141">
        <ele>70</ele>
        <time>2022-01-20T13:23:28Z</time>
      </trkpt>
      <trkpt lat="47.26051" lon="-1.56142">
        <ele>70</ele>
        <time>2022-01-20T13:23:29Z</time>
      </trkpt>
      <trkpt lat="47.26051" lon="-1.56144">
        <ele>70</ele>
        <time>2022-01-20T13:23:30Z</time>
      </trkpt>
      <trkpt lat="47.2605" lon="-1.56146">
        <ele>70</ele>
        <time>2022-01-20T13:23:31Z</time>
      </trkpt>
      <trkpt lat="47.26049" lon="-1.56148">
        <ele>69</ele>
        <time>2022-01-20T13:23:32Z</time>
      </trkpt>
      <trkpt lat="47.26048" lon="-1.56149">
        <ele>70</ele>
        <time>2022-01-20T13:23:33Z</time>
      </trkpt>
      <trkpt lat="47.26048" lon="-1.5615">
        <ele>70</ele>
        <time>2022-01-20T13:23:34Z</time>
      </trkpt>
      <trkpt lat="47.26047" lon="-1.56151">
        <ele>69</ele>
        <time>2022-01-20T13:23:35Z</time>
      </trkpt>
      <trkpt lat="47.26046" lon="-1.56153">
        <ele>69</ele>
        <time>2022-01-20T13:23:36Z</time>
      </trkpt>
      <trkpt lat="47.26046" lon="-1.56154">
        <ele>69</ele>
        <time>2022-01-20T13:23:37Z</time>
      </trkpt>
      <trkpt lat="47.26046" lon="-1.56155">
        <ele>69</ele>
        <time>2022-01-20T13:23:38Z</time>
      </trkpt>
      <trkpt lat="47.26046" lon="-1.56156">
        <ele>70</ele>
        <time>2022-01-20T13:23:39Z</time>
      </trkpt>
      <trkpt lat="47.26047" lon="-1.56158">
        <ele>70</ele>
        <time>2022-01-20T13:23:40Z</time>
      </trkpt>
      <trkpt lat="47.26047" lon="-1.5616">
        <ele>70</ele>
        <time>2022-01-20T13:23:41Z</time>
      </trkpt>
      <trkpt lat="47.26047" lon="-1.56162">
        <ele>70</ele>
        <time>2022-01-20T13:23:42Z</time>
      </trkpt>
      <trkpt lat="47.26048" lon="-1.56164">
        <ele>70</ele>
        <time>2022-01-20T13:23:43Z</time>
      </trkpt>
      <trkpt lat="47.26048" lon="-1.56166">
        <ele>70</ele>
        <time>2022-01-20T13:23:44Z</time>
      </trkpt>
      <trkpt lat="47.26049" lon="-1.56168">
        <ele>70</ele>
        <time>2022-01-20T13:23:45Z</time>
      </trkpt>
      <trkpt lat="47.26049" lon="-1.5617">
        <ele>70</ele>
        <time>2022-01-20T13:23:46Z</time>
      </trkpt>
      <trkpt lat="47.2605" lon="-1.56171">
        <ele>69</ele>
        <time>2022-01-20T13:23:47Z</time>
      </trkpt>
      <trkpt lat="47.26051" lon="-1.56174">
        <ele>70</ele>
        <time>2022-01-20T13:23:48Z</time>
      </trkpt>
      <trkpt lat="47.26052" lon="-1.56175">
        <ele>69</ele>
        <time>2022-01-20T13:23:49Z</time>
      </trkpt>
      <trkpt lat="47.26052" lon="-1.56177">
        <ele>70</ele>
        <time>2022-01-20T13:23:50Z</time>
      </trkpt>
      <trkpt lat="47.26053" lon="-1.56178">
        <ele>70</ele>
        <time>2022-01-20T13:23:52Z</time>
      </trkpt>
      <trkpt lat="47.26053" lon="-1.56178">
        <ele>70</ele>
        <time>2022-01-20T13:23:52Z</time>
      </trkpt>
      <trkpt lat="47.26053" lon="-1.56179">
        <ele>71</ele>
        <time>2022-01-20T13:23:53Z</time>
      </trkpt>
      <trkpt lat="47.26054" lon="-1.56181">
        <ele>71</ele>
        <time>2022-01-20T13:23:54Z</time>
      </trkpt>
      <trkpt lat="47.26054" lon="-1.56183">
        <ele>71</ele>
        <time>2022-01-20T13:23:55Z</time>
      </trkpt>
      <trkpt lat="47.26054" lon="-1.56185">
        <ele>71</ele>
        <time>2022-01-20T13:23:56Z</time>
      </trkpt>
      <trkpt lat="47.26055" lon="-1.56188">
        <ele>71</ele>
        <time>2022-01-20T13:23:57Z</time>
      </trkpt>
      <trkpt lat="47.26056" lon="-1.56189">
        <ele>71</ele>
        <time>2022-01-20T13:23:58Z</time>
      </trkpt>
      <trkpt lat="47.26056" lon="-1.56191">
        <ele>71</ele>
        <time>2022-01-20T13:23:59Z</time>
      </trkpt>
      <trkpt lat="47.26057" lon="-1.56193">
        <ele>72</ele>
        <time>2022-01-20T13:24:00Z</time>
      </trkpt>
      <trkpt lat="47.26057" lon="-1.56195">
        <ele>72</ele>
        <time>2022-01-20T13:24:01Z</time>
      </trkpt>
      <trkpt lat="47.26057" lon="-1.56198">
        <ele>72</ele>
        <time>2022-01-20T13:24:02Z</time>
      </trkpt>
      <trkpt lat="47.26058" lon="-1.562">
        <ele>72</ele>
        <time>2022-01-20T13:24:03Z</time>
      </trkpt>
      <trkpt lat="47.26059" lon="-1.56202">
        <ele>72</ele>
        <time>2022-01-20T13:24:04Z</time>
      </trkpt>
      <trkpt lat="47.26059" lon="-1.56204">
        <ele>72</ele>
        <time>2022-01-20T13:24:05Z</time>
      </trkpt>
      <trkpt lat="47.26059" lon="-1.56206">
        <ele>72</ele>
        <time>2022-01-20T13:24:06Z</time>
      </trkpt>
      <trkpt lat="47.2606" lon="-1.56209">
        <ele>72</ele>
        <time>2022-01-20T13:24:07Z</time>
      </trkpt>
      <trkpt lat="47.2606" lon="-1.56211">
        <ele>73</ele>
        <time>2022-01-20T13:24:08Z</time>
      </trkpt>
      <trkpt lat="47.2606" lon="-1.56213">
        <ele>73</ele>
        <time>2022-01-20T13:24:09Z</time>
      </trkpt>
      <trkpt lat="47.26061" lon="-1.56216">
        <ele>73</ele>
        <time>2022-01-20T13:24:10Z</time>
      </trkpt>
      <trkpt lat="47.26061" lon="-1.56217">
        <ele>74</ele>
        <time>2022-01-20T13:24:11Z</time>
      </trkpt>
      <trkpt lat="47.26061" lon="-1.56219">
        <ele>74</ele>
        <time>2022-01-20T13:24:12Z</time>
      </trkpt>
      <trkpt lat="47.26062" lon="-1.56222">
        <ele>74</ele>
        <time>2022-01-20T13:24:13Z</time>
      </trkpt>
      <trkpt lat="47.26062" lon="-1.56224">
        <ele>73</ele>
        <time>2022-01-20T13:24:14Z</time>
      </trkpt>
      <trkpt lat="47.26062" lon="-1.56226">
        <ele>73</ele>
        <time>2022-01-20T13:24:15Z</time>
      </trkpt>
      <trkpt lat="47.26063" lon="-1.56228">
        <ele>73</ele>
        <time>2022-01-20T13:24:16Z</time>
      </trkpt>
      <trkpt lat="47.26063" lon="-1.5623">
        <ele>73</ele>
        <time>2022-01-20T13:24:17Z</time>
      </trkpt>
      <trkpt lat="47.26063" lon="-1.56231">
        <ele>73</ele>
        <time>2022-01-20T13:24:18Z</time>
      </trkpt>
      <trkpt lat="47.26063" lon="-1.56233">
        <ele>73</ele>
        <time>2022-01-20T13:24:19Z</time>
      </trkpt>
      <trkpt lat="47.26063" lon="-1.56235">
        <ele>73</ele>
        <time>2022-01-20T13:24:20Z</time>
      </trkpt>
      <trkpt lat="47.26064" lon="-1.56236">
        <ele>73</ele>
        <time>2022-01-20T13:24:21Z</time>
      </trkpt>
      <trkpt lat="47.26064" lon="-1.56238">
        <ele>73</ele>
        <time>2022-01-20T13:24:22Z</time>
      </trkpt>
      <trkpt lat="47.26065" lon="-1.56239">
        <ele>74</ele>
        <time>2022-01-20T13:24:23Z</time>
      </trkpt>
      <trkpt lat="47.26065" lon="-1.56242">
        <ele>74</ele>
        <time>2022-01-20T13:24:24Z</time>
      </trkpt>
      <trkpt lat="47.26065" lon="-1.56244">
        <ele>74</ele>
        <time>2022-01-20T13:24:25Z</time>
      </trkpt>
      <trkpt lat="47.26066" lon="-1.56246">
        <ele>74</ele>
        <time>2022-01-20T13:24:26Z</time>
      </trkpt>
      <trkpt lat="47.26066" lon="-1.56248">
        <ele>75</ele>
        <time>2022-01-20T13:24:27Z</time>
      </trkpt>
      <trkpt lat="47.26067" lon="-1.5625">
        <ele>75</ele>
        <time>2022-01-20T13:24:28Z</time>
      </trkpt>
      <trkpt lat="47.26067" lon="-1.56252">
        <ele>75</ele>
        <time>2022-01-20T13:24:29Z</time>
      </trkpt>
      <trkpt lat="47.26068" lon="-1.56254">
        <ele>75</ele>
        <time>2022-01-20T13:24:30Z</time>
      </trkpt>
      <trkpt lat="47.26068" lon="-1.56256">
        <ele>75</ele>
        <time>2022-01-20T13:24:31Z</time>
      </trkpt>
      <trkpt lat="47.26068" lon="-1.56261">
        <ele>76</ele>
        <time>2022-01-20T13:24:33Z</time>
      </trkpt>
      <trkpt lat="47.26068" lon="-1.56261">
        <ele>76</ele>
        <time>2022-01-20T13:24:33Z</time>
      </trkpt>
      <trkpt lat="47.26068" lon="-1.56263">
        <ele>77</ele>
        <time>2022-01-20T13:24:34Z</time>
      </trkpt>
      <trkpt lat="47.26068" lon="-1.56264">
        <ele>77</ele>
        <time>2022-01-20T13:24:35Z</time>
      </trkpt>
      <trkpt lat="47.26068" lon="-1.56264">
        <ele>77</ele>
        <time>2022-01-20T13:24:36Z</time>
      </trkpt>
      <trkpt lat="47.26068" lon="-1.56264">
        <ele>77</ele>
        <time>2022-01-20T13:24:37Z</time>
      </trkpt>
      <trkpt lat="47.26068" lon="-1.56264">
        <ele>77</ele>
        <time>2022-01-20T13:24:38Z</time>
      </trkpt>
      <trkpt lat="47.26068" lon="-1.56264">
        <ele>77</ele>
        <time>2022-01-20T13:24:39Z</time>
      </trkpt>
      <trkpt lat="47.26067" lon="-1.5627">
        <ele>77</ele>
        <time>2022-01-20T13:24:40Z</time>
      </trkpt>
      <trkpt lat="47.26067" lon="-1.56273">
        <ele>77</ele>
        <time>2022-01-20T13:24:41Z</time>
      </trkpt>
      <trkpt lat="47.26067" lon="-1.56274">
        <ele>77</ele>
        <time>2022-01-20T13:24:42Z</time>
      </trkpt>
      <trkpt lat="47.26068" lon="-1.56276">
        <ele>77</ele>
        <time>2022-01-20T13:24:43Z</time>
      </trkpt>
      <trkpt lat="47.26068" lon="-1.56276">
        <ele>77</ele>
        <time>2022-01-20T13:24:44Z</time>
      </trkpt>
      <trkpt lat="47.26068" lon="-1.56276">
        <ele>77</ele>
        <time>2022-01-20T13:24:45Z</time>
      </trkpt>
      <trkpt lat="47.26069" lon="-1.5628">
        <ele>77</ele>
        <time>2022-01-20T13:24:46Z</time>
      </trkpt>
      <trkpt lat="47.26069" lon="-1.56282">
        <ele>77</ele>
        <time>2022-01-20T13:24:47Z</time>
      </trkpt>
      <trkpt lat="47.26069" lon="-1.56284">
        <ele>76</ele>
        <time>2022-01-20T13:24:48Z</time>
      </trkpt>
      <trkpt lat="47.26069" lon="-1.56286">
        <ele>76</ele>
        <time>2022-01-20T13:24:49Z</time>
      </trkpt>
      <trkpt lat="47.26069" lon="-1.56288">
        <ele>76</ele>
        <time>2022-01-20T13:24:50Z</time>
      </trkpt>
      <trkpt lat="47.2607" lon="-1.56291">
        <ele>76</ele>
        <time>2022-01-20T13:24:51Z</time>
      </trkpt>
      <trkpt lat="47.2607" lon="-1.56294">
        <ele>76</ele>
        <time>2022-01-20T13:24:52Z</time>
      </trkpt>
      <trkpt lat="47.2607" lon="-1.56296">
        <ele>76</ele>
        <time>2022-01-20T13:24:53Z</time>
      </trkpt>
      <trkpt lat="47.26071" lon="-1.56299">
        <ele>76</ele>
        <time>2022-01-20T13:24:54Z</time>
      </trkpt>
      <trkpt lat="47.26072" lon="-1.56302">
        <ele>76</ele>
        <time>2022-01-20T13:24:55Z</time>
      </trkpt>
      <trkpt lat="47.26072" lon="-1.56304">
        <ele>75</ele>
        <time>2022-01-20T13:24:56Z</time>
      </trkpt>
      <trkpt lat="47.26073" lon="-1.56306">
        <ele>75</ele>
        <time>2022-01-20T13:24:57Z</time>
      </trkpt>
      <trkpt lat="47.26074" lon="-1.56308">
        <ele>75</ele>
        <time>2022-01-20T13:24:58Z</time>
      </trkpt>
      <trkpt lat="47.26074" lon="-1.5631">
        <ele>75</ele>
        <time>2022-01-20T13:24:59Z</time>
      </trkpt>
      <trkpt lat="47.26074" lon="-1.56312">
        <ele>74</ele>
        <time>2022-01-20T13:25:00Z</time>
      </trkpt>
      <trkpt lat="47.26075" lon="-1.56314">
        <ele>75</ele>
        <time>2022-01-20T13:25:01Z</time>
      </trkpt>
      <trkpt lat="47.26075" lon="-1.56316">
        <ele>75</ele>
        <time>2022-01-20T13:25:02Z</time>
      </trkpt>
      <trkpt lat="47.26075" lon="-1.56318">
        <ele>75</ele>
        <time>2022-01-20T13:25:03Z</time>
      </trkpt>
      <trkpt lat="47.26076" lon="-1.5632">
        <ele>75</ele>
        <time>2022-01-20T13:25:04Z</time>
      </trkpt>
      <trkpt lat="47.26077" lon="-1.56322">
        <ele>75</ele>
        <time>2022-01-20T13:25:05Z</time>
      </trkpt>
      <trkpt lat="47.26077" lon="-1.56324">
        <ele>75</ele>
        <time>2022-01-20T13:25:06Z</time>
      </trkpt>
      <trkpt lat="47.26077" lon="-1.56326">
        <ele>75</ele>
        <time>2022-01-20T13:25:07Z</time>
      </trkpt>
      <trkpt lat="47.26077" lon="-1.56326">
        <ele>75</ele>
        <time>2022-01-20T13:25:08Z</time>
      </trkpt>
      <trkpt lat="47.26078" lon="-1.5633">
        <ele>74</ele>
        <time>2022-01-20T13:25:09Z</time>
      </trkpt>
      <trkpt lat="47.26078" lon="-1.56332">
        <ele>75</ele>
        <time>2022-01-20T13:25:10Z</time>
      </trkpt>
      <trkpt lat="47.26078" lon="-1.56335">
        <ele>75</ele>
        <time>2022-01-20T13:25:11Z</time>
      </trkpt>
      <trkpt lat="47.26078" lon="-1.56337">
        <ele>75</ele>
        <time>2022-01-20T13:25:12Z</time>
      </trkpt>
      <trkpt lat="47.26078" lon="-1.56338">
        <ele>76</ele>
        <time>2022-01-20T13:25:13Z</time>
      </trkpt>
      <trkpt lat="47.26078" lon="-1.5634">
        <ele>76</ele>
        <time>2022-01-20T13:25:14Z</time>
      </trkpt>
      <trkpt lat="47.26078" lon="-1.56343">
        <ele>76</ele>
        <time>2022-01-20T13:25:15Z</time>
      </trkpt>
      <trkpt lat="47.26078" lon="-1.56345">
        <ele>76</ele>
        <time>2022-01-20T13:25:16Z</time>
      </trkpt>
      <trkpt lat="47.26078" lon="-1.56346">
        <ele>76</ele>
        <time>2022-01-20T13:25:17Z</time>
      </trkpt>
      <trkpt lat="47.26078" lon="-1.56347">
        <ele>76</ele>
        <time>2022-01-20T13:25:18Z</time>
      </trkpt>
      <trkpt lat="47.26078" lon="-1.56349">
        <ele>76</ele>
        <time>2022-01-20T13:25:19Z</time>
      </trkpt>
      <trkpt lat="47.26078" lon="-1.5635">
        <ele>76</ele>
        <time>2022-01-20T13:25:20Z</time>
      </trkpt>
      <trkpt lat="47.26078" lon="-1.5635">
        <ele>76</ele>
        <time>2022-01-20T13:25:21Z</time>
      </trkpt>
      <trkpt lat="47.26078" lon="-1.5635">
        <ele>76</ele>
        <time>2022-01-20T13:25:22Z</time>
      </trkpt>
      <trkpt lat="47.26078" lon="-1.56354">
        <ele>77</ele>
        <time>2022-01-20T13:25:23Z</time>
      </trkpt>
      <trkpt lat="47.26078" lon="-1.56356">
        <ele>77</ele>
        <time>2022-01-20T13:25:24Z</time>
      </trkpt>
      <trkpt lat="47.26079" lon="-1.56359">
        <ele>77</ele>
        <time>2022-01-20T13:25:25Z</time>
      </trkpt>
      <trkpt lat="47.26079" lon="-1.56361">
        <ele>77</ele>
        <time>2022-01-20T13:25:26Z</time>
      </trkpt>
      <trkpt lat="47.26079" lon="-1.56363">
        <ele>76</ele>
        <time>2022-01-20T13:25:27Z</time>
      </trkpt>
      <trkpt lat="47.2608" lon="-1.56365">
        <ele>76</ele>
        <time>2022-01-20T13:25:28Z</time>
      </trkpt>
      <trkpt lat="47.2608" lon="-1.56368">
        <ele>76</ele>
        <time>2022-01-20T13:25:29Z</time>
      </trkpt>
      <trkpt lat="47.2608" lon="-1.56369">
        <ele>76</ele>
        <time>2022-01-20T13:25:30Z</time>
      </trkpt>
      <trkpt lat="47.26079" lon="-1.56371">
        <ele>76</ele>
        <time>2022-01-20T13:25:31Z</time>
      </trkpt>
      <trkpt lat="47.26079" lon="-1.56373">
        <ele>76</ele>
        <time>2022-01-20T13:25:32Z</time>
      </trkpt>
      <trkpt lat="47.26078" lon="-1.56374">
        <ele>76</ele>
        <time>2022-01-20T13:25:33Z</time>
      </trkpt>
      <trkpt lat="47.26078" lon="-1.56377">
        <ele>77</ele>
        <time>2022-01-20T13:25:34Z</time>
      </trkpt>
      <trkpt lat="47.26078" lon="-1.56379">
        <ele>77</ele>
        <time>2022-01-20T13:25:35Z</time>
      </trkpt>
      <trkpt lat="47.26078" lon="-1.56382">
        <ele>76</ele>
        <time>2022-01-20T13:25:36Z</time>
      </trkpt>
      <trkpt lat="47.26078" lon="-1.56384">
        <ele>76</ele>
        <time>2022-01-20T13:25:37Z</time>
      </trkpt>
      <trkpt lat="47.26078" lon="-1.56386">
        <ele>76</ele>
        <time>2022-01-20T13:25:38Z</time>
      </trkpt>
      <trkpt lat="47.26078" lon="-1.56387">
        <ele>76</ele>
        <time>2022-01-20T13:25:39Z</time>
      </trkpt>
      <trkpt lat="47.26077" lon="-1.56388">
        <ele>76</ele>
        <time>2022-01-20T13:25:40Z</time>
      </trkpt>
      <trkpt lat="47.26077" lon="-1.5639">
        <ele>76</ele>
        <time>2022-01-20T13:25:41Z</time>
      </trkpt>
      <trkpt lat="47.26076" lon="-1.56392">
        <ele>76</ele>
        <time>2022-01-20T13:25:42Z</time>
      </trkpt>
      <trkpt lat="47.26075" lon="-1.56394">
        <ele>76</ele>
        <time>2022-01-20T13:25:43Z</time>
      </trkpt>
      <trkpt lat="47.26075" lon="-1.56396">
        <ele>76</ele>
        <time>2022-01-20T13:25:44Z</time>
      </trkpt>
      <trkpt lat="47.26075" lon="-1.56398">
        <ele>76</ele>
        <time>2022-01-20T13:25:45Z</time>
      </trkpt>
      <trkpt lat="47.26075" lon="-1.564">
        <ele>76</ele>
        <time>2022-01-20T13:25:46Z</time>
      </trkpt>
      <trkpt lat="47.26075" lon="-1.56401">
        <ele>76</ele>
        <time>2022-01-20T13:25:47Z</time>
      </trkpt>
      <trkpt lat="47.26074" lon="-1.56403">
        <ele>75</ele>
        <time>2022-01-20T13:25:48Z</time>
      </trkpt>
      <trkpt lat="47.26073" lon="-1.56404">
        <ele>75</ele>
        <time>2022-01-20T13:25:49Z</time>
      </trkpt>
      <trkpt lat="47.26072" lon="-1.56406">
        <ele>75</ele>
        <time>2022-01-20T13:25:50Z</time>
      </trkpt>
      <trkpt lat="47.26071" lon="-1.56408">
        <ele>76</ele>
        <time>2022-01-20T13:25:51Z</time>
      </trkpt>
      <trkpt lat="47.2607" lon="-1.56409">
        <ele>76</ele>
        <time>2022-01-20T13:25:52Z</time>
      </trkpt>
      <trkpt lat="47.2607" lon="-1.56411">
        <ele>76</ele>
        <time>2022-01-20T13:25:53Z</time>
      </trkpt>
      <trkpt lat="47.26069" lon="-1.56412">
        <ele>76</ele>
        <time>2022-01-20T13:25:54Z</time>
      </trkpt>
      <trkpt lat="47.26068" lon="-1.56413">
        <ele>76</ele>
        <time>2022-01-20T13:25:55Z</time>
      </trkpt>
      <trkpt lat="47.26067" lon="-1.56415">
        <ele>76</ele>
        <time>2022-01-20T13:25:56Z</time>
      </trkpt>
      <trkpt lat="47.26067" lon="-1.56416">
        <ele>76</ele>
        <time>2022-01-20T13:25:57Z</time>
      </trkpt>
      <trkpt lat="47.26067" lon="-1.56418">
        <ele>77</ele>
        <time>2022-01-20T13:25:58Z</time>
      </trkpt>
      <trkpt lat="47.26066" lon="-1.56419">
        <ele>77</ele>
        <time>2022-01-20T13:25:59Z</time>
      </trkpt>
      <trkpt lat="47.26065" lon="-1.56423">
        <ele>78</ele>
        <time>2022-01-20T13:26:01Z</time>
      </trkpt>
      <trkpt lat="47.26065" lon="-1.56426">
        <ele>78</ele>
        <time>2022-01-20T13:26:02Z</time>
      </trkpt>
      <trkpt lat="47.26065" lon="-1.56426">
        <ele>78</ele>
        <time>2022-01-20T13:26:02Z</time>
      </trkpt>
      <trkpt lat="47.26065" lon="-1.56428">
        <ele>78</ele>
        <time>2022-01-20T13:26:03Z</time>
      </trkpt>
      <trkpt lat="47.26065" lon="-1.56429">
        <ele>77</ele>
        <time>2022-01-20T13:26:04Z</time>
      </trkpt>
      <trkpt lat="47.26064" lon="-1.5643">
        <ele>77</ele>
        <time>2022-01-20T13:26:05Z</time>
      </trkpt>
      <trkpt lat="47.26063" lon="-1.56431">
        <ele>77</ele>
        <time>2022-01-20T13:26:06Z</time>
      </trkpt>
      <trkpt lat="47.26063" lon="-1.56432">
        <ele>78</ele>
        <time>2022-01-20T13:26:07Z</time>
      </trkpt>
      <trkpt lat="47.26061" lon="-1.56432">
        <ele>78</ele>
        <time>2022-01-20T13:26:08Z</time>
      </trkpt>
      <trkpt lat="47.2606" lon="-1.56432">
        <ele>78</ele>
        <time>2022-01-20T13:26:09Z</time>
      </trkpt>
      <trkpt lat="47.2606" lon="-1.56433">
        <ele>79</ele>
        <time>2022-01-20T13:26:10Z</time>
      </trkpt>
      <trkpt lat="47.2606" lon="-1.56433">
        <ele>79</ele>
        <time>2022-01-20T13:26:11Z</time>
      </trkpt>
      <trkpt lat="47.2606" lon="-1.56433">
        <ele>79</ele>
        <time>2022-01-20T13:26:12Z</time>
      </trkpt>
      <trkpt lat="47.26059" lon="-1.56436">
        <ele>79</ele>
        <time>2022-01-20T13:26:13Z</time>
      </trkpt>
      <trkpt lat="47.26058" lon="-1.56437">
        <ele>78</ele>
        <time>2022-01-20T13:26:14Z</time>
      </trkpt>
      <trkpt lat="47.26058" lon="-1.56438">
        <ele>79</ele>
        <time>2022-01-20T13:26:15Z</time>
      </trkpt>
      <trkpt lat="47.26057" lon="-1.56439">
        <ele>80</ele>
        <time>2022-01-20T13:26:16Z</time>
      </trkpt>
      <trkpt lat="47.26057" lon="-1.56439">
        <ele>80</ele>
        <time>2022-01-20T13:26:17Z</time>
      </trkpt>
      <trkpt lat="47.26057" lon="-1.56439">
        <ele>80</ele>
        <time>2022-01-20T13:26:18Z</time>
      </trkpt>
      <trkpt lat="47.26056" lon="-1.56441">
        <ele>81</ele>
        <time>2022-01-20T13:26:19Z</time>
      </trkpt>
      <trkpt lat="47.26056" lon="-1.56442">
        <ele>82</ele>
        <time>2022-01-20T13:26:20Z</time>
      </trkpt>
      <trkpt lat="47.26055" lon="-1.56444">
        <ele>83</ele>
        <time>2022-01-20T13:26:21Z</time>
      </trkpt>
      <trkpt lat="47.26055" lon="-1.56445">
        <ele>83</ele>
        <time>2022-01-20T13:26:22Z</time>
      </trkpt>
      <trkpt lat="47.26055" lon="-1.56445">
        <ele>83</ele>
        <time>2022-01-20T13:26:23Z</time>
      </trkpt>
      <trkpt lat="47.26055" lon="-1.56445">
        <ele>83</ele>
        <time>2022-01-20T13:26:24Z</time>
      </trkpt>
      <trkpt lat="47.26056" lon="-1.56448">
        <ele>83</ele>
        <time>2022-01-20T13:26:25Z</time>
      </trkpt>
      <trkpt lat="47.26056" lon="-1.5645">
        <ele>83</ele>
        <time>2022-01-20T13:26:26Z</time>
      </trkpt>
      <trkpt lat="47.26056" lon="-1.56452">
        <ele>83</ele>
        <time>2022-01-20T13:26:27Z</time>
      </trkpt>
      <trkpt lat="47.26056" lon="-1.56454">
        <ele>82</ele>
        <time>2022-01-20T13:26:28Z</time>
      </trkpt>
      <trkpt lat="47.26057" lon="-1.56456">
        <ele>82</ele>
        <time>2022-01-20T13:26:29Z</time>
      </trkpt>
      <trkpt lat="47.26058" lon="-1.56458">
        <ele>82</ele>
        <time>2022-01-20T13:26:30Z</time>
      </trkpt>
      <trkpt lat="47.26059" lon="-1.56461">
        <ele>82</ele>
        <time>2022-01-20T13:26:31Z</time>
      </trkpt>
      <trkpt lat="47.2606" lon="-1.56463">
        <ele>82</ele>
        <time>2022-01-20T13:26:32Z</time>
      </trkpt>
      <trkpt lat="47.26061" lon="-1.56466">
        <ele>81</ele>
        <time>2022-01-20T13:26:33Z</time>
      </trkpt>
      <trkpt lat="47.26062" lon="-1.56468">
        <ele>81</ele>
        <time>2022-01-20T13:26:34Z</time>
      </trkpt>
      <trkpt lat="47.26062" lon="-1.56471">
        <ele>80</ele>
        <time>2022-01-20T13:26:35Z</time>
      </trkpt>
      <trkpt lat="47.26063" lon="-1.56474">
        <ele>79</ele>
        <time>2022-01-20T13:26:36Z</time>
      </trkpt>
      <trkpt lat="47.26063" lon="-1.56476">
        <ele>79</ele>
        <time>2022-01-20T13:26:37Z</time>
      </trkpt>
      <trkpt lat="47.26064" lon="-1.56478">
        <ele>79</ele>
        <time>2022-01-20T13:26:38Z</time>
      </trkpt>
      <trkpt lat="47.26064" lon="-1.56481">
        <ele>80</ele>
        <time>2022-01-20T13:26:39Z</time>
      </trkpt>
      <trkpt lat="47.26064" lon="-1.56483">
        <ele>79</ele>
        <time>2022-01-20T13:26:40Z</time>
      </trkpt>
      <trkpt lat="47.26064" lon="-1.56485">
        <ele>79</ele>
        <time>2022-01-20T13:26:41Z</time>
      </trkpt>
      <trkpt lat="47.26065" lon="-1.56487">
        <ele>78</ele>
        <time>2022-01-20T13:26:42Z</time>
      </trkpt>
      <trkpt lat="47.26065" lon="-1.56489">
        <ele>79</ele>
        <time>2022-01-20T13:26:43Z</time>
      </trkpt>
      <trkpt lat="47.26065" lon="-1.56491">
        <ele>79</ele>
        <time>2022-01-20T13:26:44Z</time>
      </trkpt>
      <trkpt lat="47.26065" lon="-1.56492">
        <ele>79</ele>
        <time>2022-01-20T13:26:45Z</time>
      </trkpt>
      <trkpt lat="47.26065" lon="-1.56494">
        <ele>79</ele>
        <time>2022-01-20T13:26:46Z</time>
      </trkpt>
      <trkpt lat="47.26065" lon="-1.56496">
        <ele>79</ele>
        <time>2022-01-20T13:26:47Z</time>
      </trkpt>
      <trkpt lat="47.26065" lon="-1.56498">
        <ele>79</ele>
        <time>2022-01-20T13:26:48Z</time>
      </trkpt>
      <trkpt lat="47.26065" lon="-1.565">
        <ele>79</ele>
        <time>2022-01-20T13:26:49Z</time>
      </trkpt>
      <trkpt lat="47.26065" lon="-1.56502">
        <ele>78</ele>
        <time>2022-01-20T13:26:50Z</time>
      </trkpt>
      <trkpt lat="47.26064" lon="-1.56504">
        <ele>78</ele>
        <time>2022-01-20T13:26:51Z</time>
      </trkpt>
      <trkpt lat="47.26063" lon="-1.56506">
        <ele>77</ele>
        <time>2022-01-20T13:26:52Z</time>
      </trkpt>
      <trkpt lat="47.26062" lon="-1.56507">
        <ele>76</ele>
        <time>2022-01-20T13:26:53Z</time>
      </trkpt>
      <trkpt lat="47.26062" lon="-1.56507">
        <ele>76</ele>
        <time>2022-01-20T13:26:54Z</time>
      </trkpt>
      <trkpt lat="47.26062" lon="-1.56507">
        <ele>76</ele>
        <time>2022-01-20T13:26:55Z</time>
      </trkpt>
      <trkpt lat="47.26061" lon="-1.56513">
        <ele>75</ele>
        <time>2022-01-20T13:26:56Z</time>
      </trkpt>
      <trkpt lat="47.26061" lon="-1.56515">
        <ele>75</ele>
        <time>2022-01-20T13:26:57Z</time>
      </trkpt>
      <trkpt lat="47.26062" lon="-1.56517">
        <ele>75</ele>
        <time>2022-01-20T13:26:58Z</time>
      </trkpt>
      <trkpt lat="47.26063" lon="-1.56519">
        <ele>75</ele>
        <time>2022-01-20T13:26:59Z</time>
      </trkpt>
      <trkpt lat="47.26063" lon="-1.56521">
        <ele>75</ele>
        <time>2022-01-20T13:27:00Z</time>
      </trkpt>
      <trkpt lat="47.26065" lon="-1.56523">
        <ele>74</ele>
        <time>2022-01-20T13:27:01Z</time>
      </trkpt>
      <trkpt lat="47.26065" lon="-1.56525">
        <ele>73</ele>
        <time>2022-01-20T13:27:02Z</time>
      </trkpt>
      <trkpt lat="47.26066" lon="-1.56526">
        <ele>73</ele>
        <time>2022-01-20T13:27:03Z</time>
      </trkpt>
      <trkpt lat="47.26067" lon="-1.56527">
        <ele>73</ele>
        <time>2022-01-20T13:27:04Z</time>
      </trkpt>
      <trkpt lat="47.26068" lon="-1.56528">
        <ele>72</ele>
        <time>2022-01-20T13:27:05Z</time>
      </trkpt>
      <trkpt lat="47.26068" lon="-1.5653">
        <ele>72</ele>
        <time>2022-01-20T13:27:06Z</time>
      </trkpt>
      <trkpt lat="47.26069" lon="-1.56532">
        <ele>73</ele>
        <time>2022-01-20T13:27:07Z</time>
      </trkpt>
      <trkpt lat="47.2607" lon="-1.56533">
        <ele>73</ele>
        <time>2022-01-20T13:27:08Z</time>
      </trkpt>
      <trkpt lat="47.26071" lon="-1.56535">
        <ele>73</ele>
        <time>2022-01-20T13:27:09Z</time>
      </trkpt>
      <trkpt lat="47.26072" lon="-1.56536">
        <ele>73</ele>
        <time>2022-01-20T13:27:10Z</time>
      </trkpt>
      <trkpt lat="47.26072" lon="-1.56538">
        <ele>73</ele>
        <time>2022-01-20T13:27:11Z</time>
      </trkpt>
      <trkpt lat="47.26073" lon="-1.5654">
        <ele>73</ele>
        <time>2022-01-20T13:27:12Z</time>
      </trkpt>
      <trkpt lat="47.26074" lon="-1.56541">
        <ele>72</ele>
        <time>2022-01-20T13:27:13Z</time>
      </trkpt>
      <trkpt lat="47.26075" lon="-1.56542">
        <ele>71</ele>
        <time>2022-01-20T13:27:14Z</time>
      </trkpt>
      <trkpt lat="47.26077" lon="-1.56543">
        <ele>71</ele>
        <time>2022-01-20T13:27:15Z</time>
      </trkpt>
      <trkpt lat="47.26078" lon="-1.56544">
        <ele>71</ele>
        <time>2022-01-20T13:27:16Z</time>
      </trkpt>
      <trkpt lat="47.26078" lon="-1.56545">
        <ele>71</ele>
        <time>2022-01-20T13:27:17Z</time>
      </trkpt>
      <trkpt lat="47.2608" lon="-1.56546">
        <ele>71</ele>
        <time>2022-01-20T13:27:18Z</time>
      </trkpt>
      <trkpt lat="47.26081" lon="-1.56547">
        <ele>71</ele>
        <time>2022-01-20T13:27:19Z</time>
      </trkpt>
      <trkpt lat="47.26082" lon="-1.56547">
        <ele>71</ele>
        <time>2022-01-20T13:27:20Z</time>
      </trkpt>
      <trkpt lat="47.26083" lon="-1.56548">
        <ele>70</ele>
        <time>2022-01-20T13:27:21Z</time>
      </trkpt>
      <trkpt lat="47.26083" lon="-1.56549">
        <ele>70</ele>
        <time>2022-01-20T13:27:22Z</time>
      </trkpt>
      <trkpt lat="47.26084" lon="-1.5655">
        <ele>70</ele>
        <time>2022-01-20T13:27:23Z</time>
      </trkpt>
      <trkpt lat="47.26085" lon="-1.56551">
        <ele>70</ele>
        <time>2022-01-20T13:27:24Z</time>
      </trkpt>
      <trkpt lat="47.26086" lon="-1.56552">
        <ele>70</ele>
        <time>2022-01-20T13:27:25Z</time>
      </trkpt>
      <trkpt lat="47.26087" lon="-1.56553">
        <ele>70</ele>
        <time>2022-01-20T13:27:26Z</time>
      </trkpt>
      <trkpt lat="47.26088" lon="-1.56554">
        <ele>70</ele>
        <time>2022-01-20T13:27:27Z</time>
      </trkpt>
      <trkpt lat="47.26089" lon="-1.56556">
        <ele>70</ele>
        <time>2022-01-20T13:27:28Z</time>
      </trkpt>
      <trkpt lat="47.2609" lon="-1.56557">
        <ele>70</ele>
        <time>2022-01-20T13:27:29Z</time>
      </trkpt>
      <trkpt lat="47.26091" lon="-1.56557">
        <ele>71</ele>
        <time>2022-01-20T13:27:30Z</time>
      </trkpt>
      <trkpt lat="47.26092" lon="-1.56558">
        <ele>71</ele>
        <time>2022-01-20T13:27:31Z</time>
      </trkpt>
      <trkpt lat="47.26092" lon="-1.56559">
        <ele>71</ele>
        <time>2022-01-20T13:27:32Z</time>
      </trkpt>
      <trkpt lat="47.26092" lon="-1.56559">
        <ele>71</ele>
        <time>2022-01-20T13:27:33Z</time>
      </trkpt>
      <trkpt lat="47.26092" lon="-1.56559">
        <ele>71</ele>
        <time>2022-01-20T13:27:34Z</time>
      </trkpt>
      <trkpt lat="47.26092" lon="-1.56559">
        <ele>71</ele>
        <time>2022-01-20T13:27:35Z</time>
      </trkpt>
      <trkpt lat="47.26092" lon="-1.56559">
        <ele>71</ele>
        <time>2022-01-20T13:27:36Z</time>
      </trkpt>
      <trkpt lat="47.26094" lon="-1.56561">
        <ele>72</ele>
        <time>2022-01-20T13:27:37Z</time>
      </trkpt>
      <trkpt lat="47.26095" lon="-1.56563">
        <ele>72</ele>
        <time>2022-01-20T13:27:38Z</time>
      </trkpt>
      <trkpt lat="47.26096" lon="-1.56564">
        <ele>72</ele>
        <time>2022-01-20T13:27:39Z</time>
      </trkpt>
      <trkpt lat="47.26097" lon="-1.56566">
        <ele>72</ele>
        <time>2022-01-20T13:27:40Z</time>
      </trkpt>
      <trkpt lat="47.26098" lon="-1.56567">
        <ele>72</ele>
        <time>2022-01-20T13:27:41Z</time>
      </trkpt>
      <trkpt lat="47.26098" lon="-1.56569">
        <ele>72</ele>
        <time>2022-01-20T13:27:42Z</time>
      </trkpt>
      <trkpt lat="47.26099" lon="-1.56571">
        <ele>72</ele>
        <time>2022-01-20T13:27:43Z</time>
      </trkpt>
      <trkpt lat="47.26101" lon="-1.56574">
        <ele>74</ele>
        <time>2022-01-20T13:27:45Z</time>
      </trkpt>
      <trkpt lat="47.26101" lon="-1.56574">
        <ele>74</ele>
        <time>2022-01-20T13:27:45Z</time>
      </trkpt>
      <trkpt lat="47.26102" lon="-1.56577">
        <ele>74</ele>
        <time>2022-01-20T13:27:46Z</time>
      </trkpt>
      <trkpt lat="47.26103" lon="-1.56579">
        <ele>75</ele>
        <time>2022-01-20T13:27:47Z</time>
      </trkpt>
      <trkpt lat="47.26104" lon="-1.5658">
        <ele>75</ele>
        <time>2022-01-20T13:27:48Z</time>
      </trkpt>
      <trkpt lat="47.26105" lon="-1.56581">
        <ele>75</ele>
        <time>2022-01-20T13:27:49Z</time>
      </trkpt>
      <trkpt lat="47.26105" lon="-1.56583">
        <ele>76</ele>
        <time>2022-01-20T13:27:50Z</time>
      </trkpt>
      <trkpt lat="47.26106" lon="-1.56585">
        <ele>76</ele>
        <time>2022-01-20T13:27:51Z</time>
      </trkpt>
      <trkpt lat="47.26107" lon="-1.56586">
        <ele>76</ele>
        <time>2022-01-20T13:27:52Z</time>
      </trkpt>
      <trkpt lat="47.26107" lon="-1.56587">
        <ele>76</ele>
        <time>2022-01-20T13:27:53Z</time>
      </trkpt>
      <trkpt lat="47.26107" lon="-1.56587">
        <ele>76</ele>
        <time>2022-01-20T13:27:54Z</time>
      </trkpt>
      <trkpt lat="47.26107" lon="-1.56587">
        <ele>76</ele>
        <time>2022-01-20T13:27:55Z</time>
      </trkpt>
      <trkpt lat="47.26109" lon="-1.56591">
        <ele>76</ele>
        <time>2022-01-20T13:27:56Z</time>
      </trkpt>
      <trkpt lat="47.2611" lon="-1.56593">
        <ele>77</ele>
        <time>2022-01-20T13:27:57Z</time>
      </trkpt>
      <trkpt lat="47.26111" lon="-1.56594">
        <ele>77</ele>
        <time>2022-01-20T13:27:58Z</time>
      </trkpt>
      <trkpt lat="47.26112" lon="-1.56596">
        <ele>77</ele>
        <time>2022-01-20T13:27:59Z</time>
      </trkpt>
      <trkpt lat="47.26112" lon="-1.56598">
        <ele>77</ele>
        <time>2022-01-20T13:28:00Z</time>
      </trkpt>
      <trkpt lat="47.26112" lon="-1.566">
        <ele>76</ele>
        <time>2022-01-20T13:28:01Z</time>
      </trkpt>
      <trkpt lat="47.26113" lon="-1.56602">
        <ele>76</ele>
        <time>2022-01-20T13:28:02Z</time>
      </trkpt>
      <trkpt lat="47.26114" lon="-1.56603">
        <ele>76</ele>
        <time>2022-01-20T13:28:03Z</time>
      </trkpt>
      <trkpt lat="47.26115" lon="-1.56605">
        <ele>76</ele>
        <time>2022-01-20T13:28:04Z</time>
      </trkpt>
      <trkpt lat="47.26116" lon="-1.56607">
        <ele>77</ele>
        <time>2022-01-20T13:28:05Z</time>
      </trkpt>
      <trkpt lat="47.26117" lon="-1.56609">
        <ele>77</ele>
        <time>2022-01-20T13:28:06Z</time>
      </trkpt>
      <trkpt lat="47.26117" lon="-1.56611">
        <ele>77</ele>
        <time>2022-01-20T13:28:07Z</time>
      </trkpt>
      <trkpt lat="47.26118" lon="-1.56613">
        <ele>77</ele>
        <time>2022-01-20T13:28:08Z</time>
      </trkpt>
      <trkpt lat="47.26119" lon="-1.56615">
        <ele>77</ele>
        <time>2022-01-20T13:28:09Z</time>
      </trkpt>
      <trkpt lat="47.2612" lon="-1.56617">
        <ele>77</ele>
        <time>2022-01-20T13:28:10Z</time>
      </trkpt>
      <trkpt lat="47.26121" lon="-1.56619">
        <ele>77</ele>
        <time>2022-01-20T13:28:11Z</time>
      </trkpt>
      <trkpt lat="47.26121" lon="-1.56621">
        <ele>77</ele>
        <time>2022-01-20T13:28:12Z</time>
      </trkpt>
      <trkpt lat="47.26122" lon="-1.56622">
        <ele>78</ele>
        <time>2022-01-20T13:28:13Z</time>
      </trkpt>
      <trkpt lat="47.26123" lon="-1.56623">
        <ele>77</ele>
        <time>2022-01-20T13:28:14Z</time>
      </trkpt>
      <trkpt lat="47.26124" lon="-1.56625">
        <ele>77</ele>
        <time>2022-01-20T13:28:15Z</time>
      </trkpt>
      <trkpt lat="47.26124" lon="-1.56628">
        <ele>78</ele>
        <time>2022-01-20T13:28:16Z</time>
      </trkpt>
      <trkpt lat="47.26125" lon="-1.56629">
        <ele>78</ele>
        <time>2022-01-20T13:28:17Z</time>
      </trkpt>
      <trkpt lat="47.26125" lon="-1.56631">
        <ele>79</ele>
        <time>2022-01-20T13:28:18Z</time>
      </trkpt>
      <trkpt lat="47.26125" lon="-1.56633">
        <ele>79</ele>
        <time>2022-01-20T13:28:19Z</time>
      </trkpt>
      <trkpt lat="47.26126" lon="-1.56635">
        <ele>80</ele>
        <time>2022-01-20T13:28:20Z</time>
      </trkpt>
      <trkpt lat="47.26127" lon="-1.56637">
        <ele>80</ele>
        <time>2022-01-20T13:28:21Z</time>
      </trkpt>
      <trkpt lat="47.26127" lon="-1.56639">
        <ele>80</ele>
        <time>2022-01-20T13:28:22Z</time>
      </trkpt>
      <trkpt lat="47.26128" lon="-1.5664">
        <ele>80</ele>
        <time>2022-01-20T13:28:23Z</time>
      </trkpt>
      <trkpt lat="47.26128" lon="-1.56642">
        <ele>80</ele>
        <time>2022-01-20T13:28:24Z</time>
      </trkpt>
      <trkpt lat="47.26128" lon="-1.56642">
        <ele>80</ele>
        <time>2022-01-20T13:28:25Z</time>
      </trkpt>
      <trkpt lat="47.26128" lon="-1.56642">
        <ele>80</ele>
        <time>2022-01-20T13:28:26Z</time>
      </trkpt>
      <trkpt lat="47.26129" lon="-1.56646">
        <ele>81</ele>
        <time>2022-01-20T13:28:27Z</time>
      </trkpt>
      <trkpt lat="47.2613" lon="-1.56648">
        <ele>81</ele>
        <time>2022-01-20T13:28:28Z</time>
      </trkpt>
      <trkpt lat="47.2613" lon="-1.56649">
        <ele>82</ele>
        <time>2022-01-20T13:28:29Z</time>
      </trkpt>
      <trkpt lat="47.2613" lon="-1.56651">
        <ele>81</ele>
        <time>2022-01-20T13:28:30Z</time>
      </trkpt>
      <trkpt lat="47.2613" lon="-1.56651">
        <ele>81</ele>
        <time>2022-01-20T13:28:31Z</time>
      </trkpt>
      <trkpt lat="47.2613" lon="-1.56651">
        <ele>81</ele>
        <time>2022-01-20T13:28:32Z</time>
      </trkpt>
      <trkpt lat="47.26132" lon="-1.56655">
        <ele>81</ele>
        <time>2022-01-20T13:28:33Z</time>
      </trkpt>
      <trkpt lat="47.26132" lon="-1.56655">
        <ele>81</ele>
        <time>2022-01-20T13:28:34Z</time>
      </trkpt>
      <trkpt lat="47.26131" lon="-1.56656">
        <ele>81</ele>
        <time>2022-01-20T13:28:35Z</time>
      </trkpt>
      <trkpt lat="47.26132" lon="-1.56657">
        <ele>81</ele>
        <time>2022-01-20T13:28:36Z</time>
      </trkpt>
      <trkpt lat="47.26132" lon="-1.56657">
        <ele>81</ele>
        <time>2022-01-20T13:28:37Z</time>
      </trkpt>
      <trkpt lat="47.26132" lon="-1.56657">
        <ele>81</ele>
        <time>2022-01-20T13:28:38Z</time>
      </trkpt>
      <trkpt lat="47.26132" lon="-1.56662">
        <ele>80</ele>
        <time>2022-01-20T13:28:39Z</time>
      </trkpt>
      <trkpt lat="47.26132" lon="-1.56664">
        <ele>80</ele>
        <time>2022-01-20T13:28:40Z</time>
      </trkpt>
      <trkpt lat="47.26132" lon="-1.56666">
        <ele>79</ele>
        <time>2022-01-20T13:28:41Z</time>
      </trkpt>
      <trkpt lat="47.26132" lon="-1.56667">
        <ele>79</ele>
        <time>2022-01-20T13:28:42Z</time>
      </trkpt>
      <trkpt lat="47.26132" lon="-1.56667">
        <ele>79</ele>
        <time>2022-01-20T13:28:43Z</time>
      </trkpt>
      <trkpt lat="47.26132" lon="-1.56667">
        <ele>79</ele>
        <time>2022-01-20T13:28:44Z</time>
      </trkpt>
      <trkpt lat="47.26133" lon="-1.5667">
        <ele>79</ele>
        <time>2022-01-20T13:28:45Z</time>
      </trkpt>
      <trkpt lat="47.26133" lon="-1.56671">
        <ele>79</ele>
        <time>2022-01-20T13:28:46Z</time>
      </trkpt>
      <trkpt lat="47.26133" lon="-1.56673">
        <ele>79</ele>
        <time>2022-01-20T13:28:47Z</time>
      </trkpt>
      <trkpt lat="47.26133" lon="-1.56675">
        <ele>79</ele>
        <time>2022-01-20T13:28:48Z</time>
      </trkpt>
      <trkpt lat="47.26133" lon="-1.56675">
        <ele>79</ele>
        <time>2022-01-20T13:28:49Z</time>
      </trkpt>
      <trkpt lat="47.26133" lon="-1.56675">
        <ele>79</ele>
        <time>2022-01-20T13:28:50Z</time>
      </trkpt>
      <trkpt lat="47.26135" lon="-1.56677">
        <ele>79</ele>
        <time>2022-01-20T13:28:51Z</time>
      </trkpt>
      <trkpt lat="47.26135" lon="-1.56678">
        <ele>79</ele>
        <time>2022-01-20T13:28:52Z</time>
      </trkpt>
      <trkpt lat="47.26136" lon="-1.5668">
        <ele>79</ele>
        <time>2022-01-20T13:28:53Z</time>
      </trkpt>
      <trkpt lat="47.26137" lon="-1.56681">
        <ele>78</ele>
        <time>2022-01-20T13:28:54Z</time>
      </trkpt>
      <trkpt lat="47.26137" lon="-1.56681">
        <ele>78</ele>
        <time>2022-01-20T13:28:55Z</time>
      </trkpt>
      <trkpt lat="47.26137" lon="-1.56681">
        <ele>78</ele>
        <time>2022-01-20T13:28:56Z</time>
      </trkpt>
      <trkpt lat="47.26138" lon="-1.56685">
        <ele>78</ele>
        <time>2022-01-20T13:28:57Z</time>
      </trkpt>
      <trkpt lat="47.26137" lon="-1.56687">
        <ele>78</ele>
        <time>2022-01-20T13:28:58Z</time>
      </trkpt>
      <trkpt lat="47.26138" lon="-1.56689">
        <ele>79</ele>
        <time>2022-01-20T13:28:59Z</time>
      </trkpt>
      <trkpt lat="47.26137" lon="-1.5669">
        <ele>78</ele>
        <time>2022-01-20T13:29:00Z</time>
      </trkpt>
      <trkpt lat="47.26137" lon="-1.56692">
        <ele>77</ele>
        <time>2022-01-20T13:29:01Z</time>
      </trkpt>
      <trkpt lat="47.26137" lon="-1.56694">
        <ele>77</ele>
        <time>2022-01-20T13:29:02Z</time>
      </trkpt>
      <trkpt lat="47.26137" lon="-1.56696">
        <ele>76</ele>
        <time>2022-01-20T13:29:03Z</time>
      </trkpt>
      <trkpt lat="47.26136" lon="-1.56697">
        <ele>75</ele>
        <time>2022-01-20T13:29:04Z</time>
      </trkpt>
      <trkpt lat="47.26136" lon="-1.56698">
        <ele>75</ele>
        <time>2022-01-20T13:29:05Z</time>
      </trkpt>
      <trkpt lat="47.26135" lon="-1.56699">
        <ele>75</ele>
        <time>2022-01-20T13:29:06Z</time>
      </trkpt>
      <trkpt lat="47.26135" lon="-1.567">
        <ele>75</ele>
        <time>2022-01-20T13:29:07Z</time>
      </trkpt>
      <trkpt lat="47.26135" lon="-1.56702">
        <ele>75</ele>
        <time>2022-01-20T13:29:08Z</time>
      </trkpt>
      <trkpt lat="47.26135" lon="-1.56703">
        <ele>75</ele>
        <time>2022-01-20T13:29:09Z</time>
      </trkpt>
      <trkpt lat="47.26134" lon="-1.56703">
        <ele>75</ele>
        <time>2022-01-20T13:29:10Z</time>
      </trkpt>
      <trkpt lat="47.26133" lon="-1.56704">
        <ele>75</ele>
        <time>2022-01-20T13:29:11Z</time>
      </trkpt>
      <trkpt lat="47.26133" lon="-1.56703">
        <ele>75</ele>
        <time>2022-01-20T13:29:12Z</time>
      </trkpt>
      <trkpt lat="47.26132" lon="-1.56703">
        <ele>75</ele>
        <time>2022-01-20T13:29:13Z</time>
      </trkpt>
      <trkpt lat="47.26131" lon="-1.56703">
        <ele>75</ele>
        <time>2022-01-20T13:29:14Z</time>
      </trkpt>
      <trkpt lat="47.2613" lon="-1.56704">
        <ele>75</ele>
        <time>2022-01-20T13:29:15Z</time>
      </trkpt>
      <trkpt lat="47.2613" lon="-1.56705">
        <ele>75</ele>
        <time>2022-01-20T13:29:16Z</time>
      </trkpt>
      <trkpt lat="47.26129" lon="-1.56705">
        <ele>74</ele>
        <time>2022-01-20T13:29:17Z</time>
      </trkpt>
      <trkpt lat="47.26128" lon="-1.56706">
        <ele>74</ele>
        <time>2022-01-20T13:29:18Z</time>
      </trkpt>
      <trkpt lat="47.26128" lon="-1.56707">
        <ele>73</ele>
        <time>2022-01-20T13:29:19Z</time>
      </trkpt>
      <trkpt lat="47.26128" lon="-1.56707">
        <ele>72</ele>
        <time>2022-01-20T13:29:20Z</time>
      </trkpt>
      <trkpt lat="47.26127" lon="-1.56707">
        <ele>72</ele>
        <time>2022-01-20T13:29:21Z</time>
      </trkpt>
      <trkpt lat="47.26127" lon="-1.56707">
        <ele>72</ele>
        <time>2022-01-20T13:29:22Z</time>
      </trkpt>
      <trkpt lat="47.26126" lon="-1.56707">
        <ele>72</ele>
        <time>2022-01-20T13:29:23Z</time>
      </trkpt>
      <trkpt lat="47.26126" lon="-1.56707">
        <ele>72</ele>
        <time>2022-01-20T13:29:24Z</time>
      </trkpt>
      <trkpt lat="47.26126" lon="-1.56707">
        <ele>72</ele>
        <time>2022-01-20T13:29:25Z</time>
      </trkpt>
      <trkpt lat="47.26126" lon="-1.56707">
        <ele>72</ele>
        <time>2022-01-20T13:29:26Z</time>
      </trkpt>
      <trkpt lat="47.26125" lon="-1.56706">
        <ele>72</ele>
        <time>2022-01-20T13:29:27Z</time>
      </trkpt>
      <trkpt lat="47.26123" lon="-1.56706">
        <ele>73</ele>
        <time>2022-01-20T13:29:28Z</time>
      </trkpt>
      <trkpt lat="47.26122" lon="-1.56706">
        <ele>73</ele>
        <time>2022-01-20T13:29:29Z</time>
      </trkpt>
      <trkpt lat="47.2612" lon="-1.56706">
        <ele>73</ele>
        <time>2022-01-20T13:29:30Z</time>
      </trkpt>
      <trkpt lat="47.26119" lon="-1.56707">
        <ele>73</ele>
        <time>2022-01-20T13:29:31Z</time>
      </trkpt>
      <trkpt lat="47.26118" lon="-1.56707">
        <ele>72</ele>
        <time>2022-01-20T13:29:32Z</time>
      </trkpt>
      <trkpt lat="47.26117" lon="-1.56707">
        <ele>72</ele>
        <time>2022-01-20T13:29:33Z</time>
      </trkpt>
      <trkpt lat="47.26116" lon="-1.56708">
        <ele>71</ele>
        <time>2022-01-20T13:29:34Z</time>
      </trkpt>
      <trkpt lat="47.26115" lon="-1.56709">
        <ele>71</ele>
        <time>2022-01-20T13:29:35Z</time>
      </trkpt>
      <trkpt lat="47.26115" lon="-1.56709">
        <ele>71</ele>
        <time>2022-01-20T13:29:36Z</time>
      </trkpt>
      <trkpt lat="47.26115" lon="-1.56709">
        <ele>71</ele>
        <time>2022-01-20T13:29:37Z</time>
      </trkpt>
      <trkpt lat="47.26113" lon="-1.56709">
        <ele>71</ele>
        <time>2022-01-20T13:29:38Z</time>
      </trkpt>
      <trkpt lat="47.26112" lon="-1.5671">
        <ele>71</ele>
        <time>2022-01-20T13:29:39Z</time>
      </trkpt>
      <trkpt lat="47.26112" lon="-1.5671">
        <ele>70</ele>
        <time>2022-01-20T13:29:40Z</time>
      </trkpt>
      <trkpt lat="47.26111" lon="-1.56711">
        <ele>70</ele>
        <time>2022-01-20T13:29:41Z</time>
      </trkpt>
      <trkpt lat="47.26111" lon="-1.56712">
        <ele>69</ele>
        <time>2022-01-20T13:29:42Z</time>
      </trkpt>
      <trkpt lat="47.2611" lon="-1.56713">
        <ele>69</ele>
        <time>2022-01-20T13:29:43Z</time>
      </trkpt>
      <trkpt lat="47.2611" lon="-1.56714">
        <ele>69</ele>
        <time>2022-01-20T13:29:44Z</time>
      </trkpt>
      <trkpt lat="47.26109" lon="-1.56715">
        <ele>69</ele>
        <time>2022-01-20T13:29:45Z</time>
      </trkpt>
      <trkpt lat="47.26109" lon="-1.56717">
        <ele>68</ele>
        <time>2022-01-20T13:29:46Z</time>
      </trkpt>
      <trkpt lat="47.26109" lon="-1.56718">
        <ele>69</ele>
        <time>2022-01-20T13:29:47Z</time>
      </trkpt>
      <trkpt lat="47.26108" lon="-1.56719">
        <ele>69</ele>
        <time>2022-01-20T13:29:48Z</time>
      </trkpt>
      <trkpt lat="47.26108" lon="-1.56722">
        <ele>69</ele>
        <time>2022-01-20T13:29:50Z</time>
      </trkpt>
      <trkpt lat="47.26108" lon="-1.56722">
        <ele>69</ele>
        <time>2022-01-20T13:29:50Z</time>
      </trkpt>
      <trkpt lat="47.26108" lon="-1.56723">
        <ele>69</ele>
        <time>2022-01-20T13:29:51Z</time>
      </trkpt>
      <trkpt lat="47.26106" lon="-1.56726">
        <ele>68</ele>
        <time>2022-01-20T13:29:53Z</time>
      </trkpt>
      <trkpt lat="47.26106" lon="-1.56726">
        <ele>68</ele>
        <time>2022-01-20T13:29:53Z</time>
      </trkpt>
      <trkpt lat="47.26106" lon="-1.56727">
        <ele>68</ele>
        <time>2022-01-20T13:29:54Z</time>
      </trkpt>
      <trkpt lat="47.26106" lon="-1.5673">
        <ele>69</ele>
        <time>2022-01-20T13:29:55Z</time>
      </trkpt>
      <trkpt lat="47.26105" lon="-1.56735">
        <ele>70</ele>
        <time>2022-01-20T13:29:57Z</time>
      </trkpt>
      <trkpt lat="47.26105" lon="-1.56735">
        <ele>70</ele>
        <time>2022-01-20T13:29:57Z</time>
      </trkpt>
      <trkpt lat="47.26104" lon="-1.56739">
        <ele>70</ele>
        <time>2022-01-20T13:29:59Z</time>
      </trkpt>
      <trkpt lat="47.26104" lon="-1.56739">
        <ele>70</ele>
        <time>2022-01-20T13:29:59Z</time>
      </trkpt>
      <trkpt lat="47.26103" lon="-1.56743">
        <ele>71</ele>
        <time>2022-01-20T13:30:01Z</time>
      </trkpt>
      <trkpt lat="47.26103" lon="-1.56743">
        <ele>71</ele>
        <time>2022-01-20T13:30:01Z</time>
      </trkpt>
      <trkpt lat="47.26102" lon="-1.56745">
        <ele>71</ele>
        <time>2022-01-20T13:30:02Z</time>
      </trkpt>
      <trkpt lat="47.26101" lon="-1.56747">
        <ele>71</ele>
        <time>2022-01-20T13:30:03Z</time>
      </trkpt>
      <trkpt lat="47.26101" lon="-1.5675">
        <ele>71</ele>
        <time>2022-01-20T13:30:04Z</time>
      </trkpt>
      <trkpt lat="47.26101" lon="-1.56752">
        <ele>71</ele>
        <time>2022-01-20T13:30:05Z</time>
      </trkpt>
      <trkpt lat="47.26101" lon="-1.56754">
        <ele>71</ele>
        <time>2022-01-20T13:30:06Z</time>
      </trkpt>
      <trkpt lat="47.26101" lon="-1.56756">
        <ele>70</ele>
        <time>2022-01-20T13:30:07Z</time>
      </trkpt>
      <trkpt lat="47.261" lon="-1.5676">
        <ele>70</ele>
        <time>2022-01-20T13:30:09Z</time>
      </trkpt>
      <trkpt lat="47.261" lon="-1.56762">
        <ele>70</ele>
        <time>2022-01-20T13:30:10Z</time>
      </trkpt>
      <trkpt lat="47.261" lon="-1.56764">
        <ele>71</ele>
        <time>2022-01-20T13:30:11Z</time>
      </trkpt>
      <trkpt lat="47.261" lon="-1.56766">
        <ele>71</ele>
        <time>2022-01-20T13:30:12Z</time>
      </trkpt>
      <trkpt lat="47.26099" lon="-1.56768">
        <ele>71</ele>
        <time>2022-01-20T13:30:13Z</time>
      </trkpt>
      <trkpt lat="47.26099" lon="-1.56768">
        <ele>71</ele>
        <time>2022-01-20T13:30:13Z</time>
      </trkpt>
      <trkpt lat="47.26099" lon="-1.5677">
        <ele>71</ele>
        <time>2022-01-20T13:30:14Z</time>
      </trkpt>
      <trkpt lat="47.26098" lon="-1.56771">
        <ele>71</ele>
        <time>2022-01-20T13:30:15Z</time>
      </trkpt>
      <trkpt lat="47.26098" lon="-1.56774">
        <ele>71</ele>
        <time>2022-01-20T13:30:16Z</time>
      </trkpt>
      <trkpt lat="47.26098" lon="-1.56776">
        <ele>70</ele>
        <time>2022-01-20T13:30:17Z</time>
      </trkpt>
      <trkpt lat="47.26098" lon="-1.56778">
        <ele>70</ele>
        <time>2022-01-20T13:30:18Z</time>
      </trkpt>
      <trkpt lat="47.26098" lon="-1.5678">
        <ele>70</ele>
        <time>2022-01-20T13:30:19Z</time>
      </trkpt>
      <trkpt lat="47.26098" lon="-1.56782">
        <ele>69</ele>
        <time>2022-01-20T13:30:20Z</time>
      </trkpt>
      <trkpt lat="47.26098" lon="-1.56784">
        <ele>69</ele>
        <time>2022-01-20T13:30:21Z</time>
      </trkpt>
      <trkpt lat="47.26098" lon="-1.56785">
        <ele>70</ele>
        <time>2022-01-20T13:30:22Z</time>
      </trkpt>
      <trkpt lat="47.26097" lon="-1.56789">
        <ele>69</ele>
        <time>2022-01-20T13:30:24Z</time>
      </trkpt>
      <trkpt lat="47.26096" lon="-1.5679">
        <ele>70</ele>
        <time>2022-01-20T13:30:25Z</time>
      </trkpt>
      <trkpt lat="47.26096" lon="-1.5679">
        <ele>70</ele>
        <time>2022-01-20T13:30:25Z</time>
      </trkpt>
      <trkpt lat="47.26096" lon="-1.56793">
        <ele>69</ele>
        <time>2022-01-20T13:30:27Z</time>
      </trkpt>
      <trkpt lat="47.26096" lon="-1.56795">
        <ele>70</ele>
        <time>2022-01-20T13:30:28Z</time>
      </trkpt>
      <trkpt lat="47.26096" lon="-1.56795">
        <ele>70</ele>
        <time>2022-01-20T13:30:28Z</time>
      </trkpt>
      <trkpt lat="47.26096" lon="-1.56796">
        <ele>71</ele>
        <time>2022-01-20T13:30:29Z</time>
      </trkpt>
      <trkpt lat="47.26096" lon="-1.56798">
        <ele>71</ele>
        <time>2022-01-20T13:30:30Z</time>
      </trkpt>
      <trkpt lat="47.26096" lon="-1.568">
        <ele>71</ele>
        <time>2022-01-20T13:30:31Z</time>
      </trkpt>
      <trkpt lat="47.26096" lon="-1.56803">
        <ele>71</ele>
        <time>2022-01-20T13:30:33Z</time>
      </trkpt>
      <trkpt lat="47.26096" lon="-1.56803">
        <ele>71</ele>
        <time>2022-01-20T13:30:33Z</time>
      </trkpt>
      <trkpt lat="47.26097" lon="-1.56804">
        <ele>71</ele>
        <time>2022-01-20T13:30:34Z</time>
      </trkpt>
      <trkpt lat="47.26098" lon="-1.56806">
        <ele>71</ele>
        <time>2022-01-20T13:30:36Z</time>
      </trkpt>
      <trkpt lat="47.26098" lon="-1.56806">
        <ele>71</ele>
        <time>2022-01-20T13:30:36Z</time>
      </trkpt>
      <trkpt lat="47.26098" lon="-1.56807">
        <ele>71</ele>
        <time>2022-01-20T13:30:37Z</time>
      </trkpt>
      <trkpt lat="47.261" lon="-1.56809">
        <ele>71</ele>
        <time>2022-01-20T13:30:39Z</time>
      </trkpt>
      <trkpt lat="47.261" lon="-1.56809">
        <ele>71</ele>
        <time>2022-01-20T13:30:39Z</time>
      </trkpt>
      <trkpt lat="47.26101" lon="-1.56812">
        <ele>71</ele>
        <time>2022-01-20T13:30:41Z</time>
      </trkpt>
      <trkpt lat="47.26101" lon="-1.56812">
        <ele>71</ele>
        <time>2022-01-20T13:30:41Z</time>
      </trkpt>
      <trkpt lat="47.26101" lon="-1.56814">
        <ele>71</ele>
        <time>2022-01-20T13:30:42Z</time>
      </trkpt>
      <trkpt lat="47.26101" lon="-1.56816">
        <ele>71</ele>
        <time>2022-01-20T13:30:43Z</time>
      </trkpt>
      <trkpt lat="47.26101" lon="-1.56817">
        <ele>71</ele>
        <time>2022-01-20T13:30:44Z</time>
      </trkpt>
      <trkpt lat="47.261" lon="-1.56819">
        <ele>71</ele>
        <time>2022-01-20T13:30:45Z</time>
      </trkpt>
      <trkpt lat="47.26099" lon="-1.56821">
        <ele>72</ele>
        <time>2022-01-20T13:30:46Z</time>
      </trkpt>
      <trkpt lat="47.26099" lon="-1.56823">
        <ele>72</ele>
        <time>2022-01-20T13:30:47Z</time>
      </trkpt>
      <trkpt lat="47.26099" lon="-1.56827">
        <ele>72</ele>
        <time>2022-01-20T13:30:49Z</time>
      </trkpt>
      <trkpt lat="47.26099" lon="-1.56827">
        <ele>72</ele>
        <time>2022-01-20T13:30:49Z</time>
      </trkpt>
      <trkpt lat="47.26099" lon="-1.56831">
        <ele>72</ele>
        <time>2022-01-20T13:30:51Z</time>
      </trkpt>
      <trkpt lat="47.26099" lon="-1.56831">
        <ele>72</ele>
        <time>2022-01-20T13:30:51Z</time>
      </trkpt>
      <trkpt lat="47.26099" lon="-1.56835">
        <ele>74</ele>
        <time>2022-01-20T13:30:53Z</time>
      </trkpt>
      <trkpt lat="47.26099" lon="-1.56837">
        <ele>73</ele>
        <time>2022-01-20T13:30:54Z</time>
      </trkpt>
      <trkpt lat="47.26099" lon="-1.56837">
        <ele>73</ele>
        <time>2022-01-20T13:30:54Z</time>
      </trkpt>
      <trkpt lat="47.26099" lon="-1.56839">
        <ele>73</ele>
        <time>2022-01-20T13:30:55Z</time>
      </trkpt>
      <trkpt lat="47.26098" lon="-1.56841">
        <ele>73</ele>
        <time>2022-01-20T13:30:56Z</time>
      </trkpt>
      <trkpt lat="47.26098" lon="-1.56843">
        <ele>73</ele>
        <time>2022-01-20T13:30:57Z</time>
      </trkpt>
      <trkpt lat="47.26097" lon="-1.56845">
        <ele>74</ele>
        <time>2022-01-20T13:30:59Z</time>
      </trkpt>
      <trkpt lat="47.26097" lon="-1.56847">
        <ele>73</ele>
        <time>2022-01-20T13:31:00Z</time>
      </trkpt>
      <trkpt lat="47.26097" lon="-1.56849">
        <ele>74</ele>
        <time>2022-01-20T13:31:01Z</time>
      </trkpt>
      <trkpt lat="47.26097" lon="-1.56849">
        <ele>74</ele>
        <time>2022-01-20T13:31:01Z</time>
      </trkpt>
      <trkpt lat="47.26096" lon="-1.56854">
        <ele>73</ele>
        <time>2022-01-20T13:31:03Z</time>
      </trkpt>
      <trkpt lat="47.26096" lon="-1.56857">
        <ele>72</ele>
        <time>2022-01-20T13:31:04Z</time>
      </trkpt>
      <trkpt lat="47.26096" lon="-1.56857">
        <ele>72</ele>
        <time>2022-01-20T13:31:04Z</time>
      </trkpt>
      <trkpt lat="47.26095" lon="-1.56859">
        <ele>72</ele>
        <time>2022-01-20T13:31:06Z</time>
      </trkpt>
      <trkpt lat="47.26095" lon="-1.56861">
        <ele>72</ele>
        <time>2022-01-20T13:31:07Z</time>
      </trkpt>
      <trkpt lat="47.26094" lon="-1.56864">
        <ele>72</ele>
        <time>2022-01-20T13:31:08Z</time>
      </trkpt>
      <trkpt lat="47.26094" lon="-1.56865">
        <ele>72</ele>
        <time>2022-01-20T13:31:09Z</time>
      </trkpt>
      <trkpt lat="47.26094" lon="-1.56867">
        <ele>72</ele>
        <time>2022-01-20T13:31:10Z</time>
      </trkpt>
      <trkpt lat="47.26094" lon="-1.56867">
        <ele>72</ele>
        <time>2022-01-20T13:31:11Z</time>
      </trkpt>
      <trkpt lat="47.26094" lon="-1.56867">
        <ele>72</ele>
        <time>2022-01-20T13:31:11Z</time>
      </trkpt>
      <trkpt lat="47.26092" lon="-1.5687">
        <ele>72</ele>
        <time>2022-01-20T13:31:13Z</time>
      </trkpt>
      <trkpt lat="47.26091" lon="-1.56871">
        <ele>72</ele>
        <time>2022-01-20T13:31:14Z</time>
      </trkpt>
      <trkpt lat="47.26091" lon="-1.56872">
        <ele>71</ele>
        <time>2022-01-20T13:31:15Z</time>
      </trkpt>
      <trkpt lat="47.26091" lon="-1.56874">
        <ele>71</ele>
        <time>2022-01-20T13:31:16Z</time>
      </trkpt>
      <trkpt lat="47.26091" lon="-1.56876">
        <ele>71</ele>
        <time>2022-01-20T13:31:17Z</time>
      </trkpt>
      <trkpt lat="47.2609" lon="-1.56878">
        <ele>71</ele>
        <time>2022-01-20T13:31:18Z</time>
      </trkpt>
      <trkpt lat="47.26089" lon="-1.5688">
        <ele>71</ele>
        <time>2022-01-20T13:31:19Z</time>
      </trkpt>
      <trkpt lat="47.26088" lon="-1.56881">
        <ele>72</ele>
        <time>2022-01-20T13:31:20Z</time>
      </trkpt>
      <trkpt lat="47.26088" lon="-1.56882">
        <ele>72</ele>
        <time>2022-01-20T13:31:21Z</time>
      </trkpt>
      <trkpt lat="47.26087" lon="-1.56884">
        <ele>73</ele>
        <time>2022-01-20T13:31:22Z</time>
      </trkpt>
      <trkpt lat="47.26086" lon="-1.56886">
        <ele>74</ele>
        <time>2022-01-20T13:31:23Z</time>
      </trkpt>
      <trkpt lat="47.26085" lon="-1.56887">
        <ele>75</ele>
        <time>2022-01-20T13:31:24Z</time>
      </trkpt>
      <trkpt lat="47.26085" lon="-1.56889">
        <ele>76</ele>
        <time>2022-01-20T13:31:25Z</time>
      </trkpt>
      <trkpt lat="47.26084" lon="-1.56891">
        <ele>76</ele>
        <time>2022-01-20T13:31:26Z</time>
      </trkpt>
      <trkpt lat="47.26083" lon="-1.56892">
        <ele>76</ele>
        <time>2022-01-20T13:31:27Z</time>
      </trkpt>
      <trkpt lat="47.26083" lon="-1.56894">
        <ele>77</ele>
        <time>2022-01-20T13:31:28Z</time>
      </trkpt>
      <trkpt lat="47.26082" lon="-1.56895">
        <ele>77</ele>
        <time>2022-01-20T13:31:29Z</time>
      </trkpt>
      <trkpt lat="47.26081" lon="-1.56896">
        <ele>77</ele>
        <time>2022-01-20T13:31:30Z</time>
      </trkpt>
      <trkpt lat="47.26081" lon="-1.56898">
        <ele>78</ele>
        <time>2022-01-20T13:31:31Z</time>
      </trkpt>
      <trkpt lat="47.26081" lon="-1.56898">
        <ele>78</ele>
        <time>2022-01-20T13:31:31Z</time>
      </trkpt>
      <trkpt lat="47.2608" lon="-1.56904">
        <ele>78</ele>
        <time>2022-01-20T13:31:33Z</time>
      </trkpt>
      <trkpt lat="47.2608" lon="-1.56906">
        <ele>78</ele>
        <time>2022-01-20T13:31:34Z</time>
      </trkpt>
      <trkpt lat="47.26079" lon="-1.56908">
        <ele>78</ele>
        <time>2022-01-20T13:31:35Z</time>
      </trkpt>
      <trkpt lat="47.26078" lon="-1.56909">
        <ele>78</ele>
        <time>2022-01-20T13:31:36Z</time>
      </trkpt>
      <trkpt lat="47.26078" lon="-1.56909">
        <ele>78</ele>
        <time>2022-01-20T13:31:36Z</time>
      </trkpt>
      <trkpt lat="47.26078" lon="-1.56911">
        <ele>78</ele>
        <time>2022-01-20T13:31:37Z</time>
      </trkpt>
      <trkpt lat="47.26077" lon="-1.56913">
        <ele>79</ele>
        <time>2022-01-20T13:31:38Z</time>
      </trkpt>
      <trkpt lat="47.26077" lon="-1.56917">
        <ele>80</ele>
        <time>2022-01-20T13:31:40Z</time>
      </trkpt>
      <trkpt lat="47.26077" lon="-1.56919">
        <ele>80</ele>
        <time>2022-01-20T13:31:41Z</time>
      </trkpt>
      <trkpt lat="47.26077" lon="-1.56921">
        <ele>80</ele>
        <time>2022-01-20T13:31:42Z</time>
      </trkpt>
      <trkpt lat="47.26076" lon="-1.56923">
        <ele>81</ele>
        <time>2022-01-20T13:31:43Z</time>
      </trkpt>
      <trkpt lat="47.26075" lon="-1.56925">
        <ele>81</ele>
        <time>2022-01-20T13:31:44Z</time>
      </trkpt>
      <trkpt lat="47.26075" lon="-1.56926">
        <ele>81</ele>
        <time>2022-01-20T13:31:45Z</time>
      </trkpt>
      <trkpt lat="47.26075" lon="-1.56929">
        <ele>81</ele>
        <time>2022-01-20T13:31:46Z</time>
      </trkpt>
      <trkpt lat="47.26075" lon="-1.5693">
        <ele>81</ele>
        <time>2022-01-20T13:31:47Z</time>
      </trkpt>
      <trkpt lat="47.26074" lon="-1.56931">
        <ele>81</ele>
        <time>2022-01-20T13:31:48Z</time>
      </trkpt>
      <trkpt lat="47.26073" lon="-1.56933">
        <ele>82</ele>
        <time>2022-01-20T13:31:49Z</time>
      </trkpt>
      <trkpt lat="47.26072" lon="-1.56934">
        <ele>82</ele>
        <time>2022-01-20T13:31:50Z</time>
      </trkpt>
      <trkpt lat="47.26072" lon="-1.56936">
        <ele>83</ele>
        <time>2022-01-20T13:31:51Z</time>
      </trkpt>
      <trkpt lat="47.26072" lon="-1.56938">
        <ele>83</ele>
        <time>2022-01-20T13:31:52Z</time>
      </trkpt>
      <trkpt lat="47.26072" lon="-1.56938">
        <ele>83</ele>
        <time>2022-01-20T13:31:52Z</time>
      </trkpt>
      <trkpt lat="47.26072" lon="-1.56941">
        <ele>83</ele>
        <time>2022-01-20T13:31:54Z</time>
      </trkpt>
      <trkpt lat="47.26071" lon="-1.56942">
        <ele>83</ele>
        <time>2022-01-20T13:31:55Z</time>
      </trkpt>
      <trkpt lat="47.2607" lon="-1.56943">
        <ele>83</ele>
        <time>2022-01-20T13:31:56Z</time>
      </trkpt>
      <trkpt lat="47.2607" lon="-1.56944">
        <ele>83</ele>
        <time>2022-01-20T13:31:57Z</time>
      </trkpt>
      <trkpt lat="47.26069" lon="-1.56945">
        <ele>82</ele>
        <time>2022-01-20T13:31:58Z</time>
      </trkpt>
      <trkpt lat="47.26068" lon="-1.56946">
        <ele>82</ele>
        <time>2022-01-20T13:31:59Z</time>
      </trkpt>
      <trkpt lat="47.26068" lon="-1.56947">
        <ele>82</ele>
        <time>2022-01-20T13:32:00Z</time>
      </trkpt>
      <trkpt lat="47.26067" lon="-1.56948">
        <ele>81</ele>
        <time>2022-01-20T13:32:01Z</time>
      </trkpt>
      <trkpt lat="47.26067" lon="-1.56949">
        <ele>81</ele>
        <time>2022-01-20T13:32:02Z</time>
      </trkpt>
      <trkpt lat="47.26066" lon="-1.56951">
        <ele>80</ele>
        <time>2022-01-20T13:32:03Z</time>
      </trkpt>
      <trkpt lat="47.26066" lon="-1.56953">
        <ele>80</ele>
        <time>2022-01-20T13:32:04Z</time>
      </trkpt>
      <trkpt lat="47.26066" lon="-1.56956">
        <ele>80</ele>
        <time>2022-01-20T13:32:05Z</time>
      </trkpt>
      <trkpt lat="47.26065" lon="-1.56958">
        <ele>80</ele>
        <time>2022-01-20T13:32:06Z</time>
      </trkpt>
      <trkpt lat="47.26065" lon="-1.56961">
        <ele>79</ele>
        <time>2022-01-20T13:32:07Z</time>
      </trkpt>
      <trkpt lat="47.26064" lon="-1.56963">
        <ele>79</ele>
        <time>2022-01-20T13:32:08Z</time>
      </trkpt>
      <trkpt lat="47.26063" lon="-1.56966">
        <ele>78</ele>
        <time>2022-01-20T13:32:09Z</time>
      </trkpt>
      <trkpt lat="47.26063" lon="-1.56968">
        <ele>77</ele>
        <time>2022-01-20T13:32:10Z</time>
      </trkpt>
      <trkpt lat="47.26062" lon="-1.56969">
        <ele>76</ele>
        <time>2022-01-20T13:32:11Z</time>
      </trkpt>
      <trkpt lat="47.26061" lon="-1.56972">
        <ele>75</ele>
        <time>2022-01-20T13:32:12Z</time>
      </trkpt>
      <trkpt lat="47.26061" lon="-1.56974">
        <ele>74</ele>
        <time>2022-01-20T13:32:13Z</time>
      </trkpt>
      <trkpt lat="47.26062" lon="-1.56975">
        <ele>75</ele>
        <time>2022-01-20T13:32:14Z</time>
      </trkpt>
      <trkpt lat="47.26062" lon="-1.56976">
        <ele>75</ele>
        <time>2022-01-20T13:32:15Z</time>
      </trkpt>
      <trkpt lat="47.26062" lon="-1.56976">
        <ele>75</ele>
        <time>2022-01-20T13:32:16Z</time>
      </trkpt>
      <trkpt lat="47.26062" lon="-1.56979">
        <ele>74</ele>
        <time>2022-01-20T13:32:17Z</time>
      </trkpt>
      <trkpt lat="47.26062" lon="-1.56981">
        <ele>74</ele>
        <time>2022-01-20T13:32:18Z</time>
      </trkpt>
      <trkpt lat="47.26063" lon="-1.56982">
        <ele>73</ele>
        <time>2022-01-20T13:32:19Z</time>
      </trkpt>
      <trkpt lat="47.26063" lon="-1.56982">
        <ele>73</ele>
        <time>2022-01-20T13:32:19Z</time>
      </trkpt>
      <trkpt lat="47.26065" lon="-1.56986">
        <ele>72</ele>
        <time>2022-01-20T13:32:21Z</time>
      </trkpt>
      <trkpt lat="47.26065" lon="-1.56987">
        <ele>72</ele>
        <time>2022-01-20T13:32:22Z</time>
      </trkpt>
      <trkpt lat="47.26067" lon="-1.56987">
        <ele>72</ele>
        <time>2022-01-20T13:32:23Z</time>
      </trkpt>
      <trkpt lat="47.26067" lon="-1.56988">
        <ele>72</ele>
        <time>2022-01-20T13:32:24Z</time>
      </trkpt>
      <trkpt lat="47.26068" lon="-1.5699">
        <ele>72</ele>
        <time>2022-01-20T13:32:25Z</time>
      </trkpt>
      <trkpt lat="47.26069" lon="-1.56991">
        <ele>72</ele>
        <time>2022-01-20T13:32:26Z</time>
      </trkpt>
      <trkpt lat="47.26069" lon="-1.56991">
        <ele>72</ele>
        <time>2022-01-20T13:32:26Z</time>
      </trkpt>
      <trkpt lat="47.26071" lon="-1.56993">
        <ele>72</ele>
        <time>2022-01-20T13:32:28Z</time>
      </trkpt>
      <trkpt lat="47.26072" lon="-1.56994">
        <ele>72</ele>
        <time>2022-01-20T13:32:29Z</time>
      </trkpt>
      <trkpt lat="47.26073" lon="-1.56995">
        <ele>72</ele>
        <time>2022-01-20T13:32:30Z</time>
      </trkpt>
      <trkpt lat="47.26074" lon="-1.56995">
        <ele>73</ele>
        <time>2022-01-20T13:32:31Z</time>
      </trkpt>
      <trkpt lat="47.26074" lon="-1.56996">
        <ele>73</ele>
        <time>2022-01-20T13:32:32Z</time>
      </trkpt>
      <trkpt lat="47.26075" lon="-1.56997">
        <ele>73</ele>
        <time>2022-01-20T13:32:33Z</time>
      </trkpt>
      <trkpt lat="47.26075" lon="-1.56997">
        <ele>73</ele>
        <time>2022-01-20T13:32:33Z</time>
      </trkpt>
      <trkpt lat="47.26076" lon="-1.56998">
        <ele>73</ele>
        <time>2022-01-20T13:32:34Z</time>
      </trkpt>
      <trkpt lat="47.26076" lon="-1.56998">
        <ele>73</ele>
        <time>2022-01-20T13:32:35Z</time>
      </trkpt>
      <trkpt lat="47.26078" lon="-1.57">
        <ele>74</ele>
        <time>2022-01-20T13:32:37Z</time>
      </trkpt>
      <trkpt lat="47.26078" lon="-1.57">
        <ele>74</ele>
        <time>2022-01-20T13:32:37Z</time>
      </trkpt>
      <trkpt lat="47.26079" lon="-1.57002">
        <ele>76</ele>
        <time>2022-01-20T13:32:39Z</time>
      </trkpt>
      <trkpt lat="47.26079" lon="-1.57002">
        <ele>76</ele>
        <time>2022-01-20T13:32:39Z</time>
      </trkpt>
      <trkpt lat="47.2608" lon="-1.57003">
        <ele>76</ele>
        <time>2022-01-20T13:32:40Z</time>
      </trkpt>
      <trkpt lat="47.2608" lon="-1.57004">
        <ele>76</ele>
        <time>2022-01-20T13:32:41Z</time>
      </trkpt>
      <trkpt lat="47.26082" lon="-1.57004">
        <ele>76</ele>
        <time>2022-01-20T13:32:42Z</time>
      </trkpt>
      <trkpt lat="47.26083" lon="-1.57005">
        <ele>76</ele>
        <time>2022-01-20T13:32:43Z</time>
      </trkpt>
      <trkpt lat="47.26084" lon="-1.57007">
        <ele>75</ele>
        <time>2022-01-20T13:32:45Z</time>
      </trkpt>
      <trkpt lat="47.26086" lon="-1.57008">
        <ele>75</ele>
        <time>2022-01-20T13:32:46Z</time>
      </trkpt>
      <trkpt lat="47.26086" lon="-1.5701">
        <ele>75</ele>
        <time>2022-01-20T13:32:47Z</time>
      </trkpt>
      <trkpt lat="47.26086" lon="-1.5701">
        <ele>75</ele>
        <time>2022-01-20T13:32:47Z</time>
      </trkpt>
      <trkpt lat="47.26088" lon="-1.57012">
        <ele>76</ele>
        <time>2022-01-20T13:32:49Z</time>
      </trkpt>
      <trkpt lat="47.26088" lon="-1.57012">
        <ele>76</ele>
        <time>2022-01-20T13:32:49Z</time>
      </trkpt>
      <trkpt lat="47.2609" lon="-1.57014">
        <ele>74</ele>
        <time>2022-01-20T13:32:51Z</time>
      </trkpt>
      <trkpt lat="47.2609" lon="-1.57014">
        <ele>74</ele>
        <time>2022-01-20T13:32:51Z</time>
      </trkpt>
      <trkpt lat="47.26091" lon="-1.57016">
        <ele>75</ele>
        <time>2022-01-20T13:32:52Z</time>
      </trkpt>
      <trkpt lat="47.26093" lon="-1.57017">
        <ele>74</ele>
        <time>2022-01-20T13:32:54Z</time>
      </trkpt>
      <trkpt lat="47.26094" lon="-1.57019">
        <ele>74</ele>
        <time>2022-01-20T13:32:55Z</time>
      </trkpt>
      <trkpt lat="47.26094" lon="-1.57019">
        <ele>74</ele>
        <time>2022-01-20T13:32:55Z</time>
      </trkpt>
      <trkpt lat="47.26096" lon="-1.57021">
        <ele>73</ele>
        <time>2022-01-20T13:32:57Z</time>
      </trkpt>
      <trkpt lat="47.26098" lon="-1.57022">
        <ele>74</ele>
        <time>2022-01-20T13:32:58Z</time>
      </trkpt>
      <trkpt lat="47.26098" lon="-1.57023">
        <ele>74</ele>
        <time>2022-01-20T13:32:59Z</time>
      </trkpt>
      <trkpt lat="47.26098" lon="-1.57023">
        <ele>74</ele>
        <time>2022-01-20T13:32:59Z</time>
      </trkpt>
      <trkpt lat="47.26099" lon="-1.57025">
        <ele>75</ele>
        <time>2022-01-20T13:33:00Z</time>
      </trkpt>
      <trkpt lat="47.26101" lon="-1.57029">
        <ele>75</ele>
        <time>2022-01-20T13:33:02Z</time>
      </trkpt>
      <trkpt lat="47.26102" lon="-1.5703">
        <ele>75</ele>
        <time>2022-01-20T13:33:03Z</time>
      </trkpt>
      <trkpt lat="47.26103" lon="-1.57031">
        <ele>75</ele>
        <time>2022-01-20T13:33:04Z</time>
      </trkpt>
      <trkpt lat="47.26103" lon="-1.57031">
        <ele>75</ele>
        <time>2022-01-20T13:33:04Z</time>
      </trkpt>
      <trkpt lat="47.26106" lon="-1.57034">
        <ele>75</ele>
        <time>2022-01-20T13:33:06Z</time>
      </trkpt>
      <trkpt lat="47.26106" lon="-1.57034">
        <ele>75</ele>
        <time>2022-01-20T13:33:06Z</time>
      </trkpt>
      <trkpt lat="47.26107" lon="-1.57036">
        <ele>75</ele>
        <time>2022-01-20T13:33:08Z</time>
      </trkpt>
      <trkpt lat="47.26108" lon="-1.57037">
        <ele>76</ele>
        <time>2022-01-20T13:33:09Z</time>
      </trkpt>
      <trkpt lat="47.26109" lon="-1.57038">
        <ele>77</ele>
        <time>2022-01-20T13:33:10Z</time>
      </trkpt>
      <trkpt lat="47.26109" lon="-1.57038">
        <ele>77</ele>
        <time>2022-01-20T13:33:10Z</time>
      </trkpt>
      <trkpt lat="47.2611" lon="-1.5704">
        <ele>77</ele>
        <time>2022-01-20T13:33:11Z</time>
      </trkpt>
      <trkpt lat="47.26111" lon="-1.57041">
        <ele>76</ele>
        <time>2022-01-20T13:33:12Z</time>
      </trkpt>
      <trkpt lat="47.26112" lon="-1.57042">
        <ele>76</ele>
        <time>2022-01-20T13:33:13Z</time>
      </trkpt>
      <trkpt lat="47.26112" lon="-1.57042">
        <ele>76</ele>
        <time>2022-01-20T13:33:14Z</time>
      </trkpt>
      <trkpt lat="47.26114" lon="-1.57043">
        <ele>77</ele>
        <time>2022-01-20T13:33:15Z</time>
      </trkpt>
      <trkpt lat="47.26115" lon="-1.57045">
        <ele>78</ele>
        <time>2022-01-20T13:33:17Z</time>
      </trkpt>
      <trkpt lat="47.26115" lon="-1.57045">
        <ele>78</ele>
        <time>2022-01-20T13:33:17Z</time>
      </trkpt>
      <trkpt lat="47.26117" lon="-1.57049">
        <ele>78</ele>
        <time>2022-01-20T13:33:19Z</time>
      </trkpt>
      <trkpt lat="47.26117" lon="-1.57049">
        <ele>78</ele>
        <time>2022-01-20T13:33:19Z</time>
      </trkpt>
      <trkpt lat="47.26117" lon="-1.57051">
        <ele>78</ele>
        <time>2022-01-20T13:33:20Z</time>
      </trkpt>
      <trkpt lat="47.26118" lon="-1.57053">
        <ele>78</ele>
        <time>2022-01-20T13:33:21Z</time>
      </trkpt>
      <trkpt lat="47.26119" lon="-1.57055">
        <ele>79</ele>
        <time>2022-01-20T13:33:22Z</time>
      </trkpt>
      <trkpt lat="47.2612" lon="-1.57056">
        <ele>78</ele>
        <time>2022-01-20T13:33:24Z</time>
      </trkpt>
      <trkpt lat="47.2612" lon="-1.57056">
        <ele>78</ele>
        <time>2022-01-20T13:33:24Z</time>
      </trkpt>
      <trkpt lat="47.26122" lon="-1.57057">
        <ele>77</ele>
        <time>2022-01-20T13:33:26Z</time>
      </trkpt>
      <trkpt lat="47.26122" lon="-1.57057">
        <ele>77</ele>
        <time>2022-01-20T13:33:26Z</time>
      </trkpt>
      <trkpt lat="47.26122" lon="-1.57061">
        <ele>77</ele>
        <time>2022-01-20T13:33:28Z</time>
      </trkpt>
      <trkpt lat="47.26122" lon="-1.57063">
        <ele>76</ele>
        <time>2022-01-20T13:33:29Z</time>
      </trkpt>
      <trkpt lat="47.26123" lon="-1.57065">
        <ele>75</ele>
        <time>2022-01-20T13:33:30Z</time>
      </trkpt>
      <trkpt lat="47.26123" lon="-1.57067">
        <ele>75</ele>
        <time>2022-01-20T13:33:31Z</time>
      </trkpt>
      <trkpt lat="47.26124" lon="-1.57069">
        <ele>74</ele>
        <time>2022-01-20T13:33:32Z</time>
      </trkpt>
      <trkpt lat="47.26124" lon="-1.57069">
        <ele>74</ele>
        <time>2022-01-20T13:33:32Z</time>
      </trkpt>
      <trkpt lat="47.26124" lon="-1.57071">
        <ele>75</ele>
        <time>2022-01-20T13:33:33Z</time>
      </trkpt>
      <trkpt lat="47.26124" lon="-1.57072">
        <ele>75</ele>
        <time>2022-01-20T13:33:34Z</time>
      </trkpt>
      <trkpt lat="47.26123" lon="-1.57074">
        <ele>75</ele>
        <time>2022-01-20T13:33:35Z</time>
      </trkpt>
      <trkpt lat="47.26123" lon="-1.57076">
        <ele>74</ele>
        <time>2022-01-20T13:33:37Z</time>
      </trkpt>
      <trkpt lat="47.26122" lon="-1.57077">
        <ele>75</ele>
        <time>2022-01-20T13:33:38Z</time>
      </trkpt>
      <trkpt lat="47.26122" lon="-1.57077">
        <ele>75</ele>
        <time>2022-01-20T13:33:38Z</time>
      </trkpt>
      <trkpt lat="47.26121" lon="-1.57079">
        <ele>75</ele>
        <time>2022-01-20T13:33:40Z</time>
      </trkpt>
      <trkpt lat="47.26121" lon="-1.57079">
        <ele>75</ele>
        <time>2022-01-20T13:33:40Z</time>
      </trkpt>
      <trkpt lat="47.2612" lon="-1.5708">
        <ele>76</ele>
        <time>2022-01-20T13:33:41Z</time>
      </trkpt>
      <trkpt lat="47.2612" lon="-1.57081">
        <ele>76</ele>
        <time>2022-01-20T13:33:42Z</time>
      </trkpt>
      <trkpt lat="47.2612" lon="-1.57081">
        <ele>76</ele>
        <time>2022-01-20T13:33:43Z</time>
      </trkpt>
      <trkpt lat="47.26119" lon="-1.57083">
        <ele>75</ele>
        <time>2022-01-20T13:33:44Z</time>
      </trkpt>
      <trkpt lat="47.26119" lon="-1.57083">
        <ele>75</ele>
        <time>2022-01-20T13:33:45Z</time>
      </trkpt>
      <trkpt lat="47.2612" lon="-1.57085">
        <ele>75</ele>
        <time>2022-01-20T13:33:47Z</time>
      </trkpt>
      <trkpt lat="47.26119" lon="-1.57087">
        <ele>75</ele>
        <time>2022-01-20T13:33:48Z</time>
      </trkpt>
      <trkpt lat="47.26119" lon="-1.57087">
        <ele>75</ele>
        <time>2022-01-20T13:33:48Z</time>
      </trkpt>
      <trkpt lat="47.26119" lon="-1.57089">
        <ele>76</ele>
        <time>2022-01-20T13:33:49Z</time>
      </trkpt>
      <trkpt lat="47.26119" lon="-1.5709">
        <ele>76</ele>
        <time>2022-01-20T13:33:50Z</time>
      </trkpt>
      <trkpt lat="47.26119" lon="-1.57093">
        <ele>77</ele>
        <time>2022-01-20T13:33:52Z</time>
      </trkpt>
      <trkpt lat="47.26119" lon="-1.57095">
        <ele>76</ele>
        <time>2022-01-20T13:33:53Z</time>
      </trkpt>
      <trkpt lat="47.26118" lon="-1.57097">
        <ele>76</ele>
        <time>2022-01-20T13:33:54Z</time>
      </trkpt>
      <trkpt lat="47.26118" lon="-1.57097">
        <ele>76</ele>
        <time>2022-01-20T13:33:54Z</time>
      </trkpt>
      <trkpt lat="47.26118" lon="-1.57099">
        <ele>76</ele>
        <time>2022-01-20T13:33:55Z</time>
      </trkpt>
      <trkpt lat="47.26118" lon="-1.57101">
        <ele>76</ele>
        <time>2022-01-20T13:33:56Z</time>
      </trkpt>
      <trkpt lat="47.26118" lon="-1.57105">
        <ele>76</ele>
        <time>2022-01-20T13:33:58Z</time>
      </trkpt>
      <trkpt lat="47.26118" lon="-1.57105">
        <ele>76</ele>
        <time>2022-01-20T13:33:58Z</time>
      </trkpt>
      <trkpt lat="47.26118" lon="-1.57106">
        <ele>76</ele>
        <time>2022-01-20T13:33:59Z</time>
      </trkpt>
      <trkpt lat="47.26118" lon="-1.57109">
        <ele>76</ele>
        <time>2022-01-20T13:34:01Z</time>
      </trkpt>
      <trkpt lat="47.26118" lon="-1.57109">
        <ele>76</ele>
        <time>2022-01-20T13:34:01Z</time>
      </trkpt>
      <trkpt lat="47.26118" lon="-1.5711">
        <ele>76</ele>
        <time>2022-01-20T13:34:02Z</time>
      </trkpt>
      <trkpt lat="47.26118" lon="-1.57112">
        <ele>77</ele>
        <time>2022-01-20T13:34:03Z</time>
      </trkpt>
      <trkpt lat="47.26118" lon="-1.57112">
        <ele>77</ele>
        <time>2022-01-20T13:34:04Z</time>
      </trkpt>
      <trkpt lat="47.26118" lon="-1.57112">
        <ele>77</ele>
        <time>2022-01-20T13:34:05Z</time>
      </trkpt>
      <trkpt lat="47.26117" lon="-1.57115">
        <ele>78</ele>
        <time>2022-01-20T13:34:06Z</time>
      </trkpt>
      <trkpt lat="47.26117" lon="-1.57117">
        <ele>78</ele>
        <time>2022-01-20T13:34:07Z</time>
      </trkpt>
      <trkpt lat="47.26117" lon="-1.57118">
        <ele>78</ele>
        <time>2022-01-20T13:34:08Z</time>
      </trkpt>
      <trkpt lat="47.26117" lon="-1.5712">
        <ele>78</ele>
        <time>2022-01-20T13:34:09Z</time>
      </trkpt>
      <trkpt lat="47.26117" lon="-1.57123">
        <ele>78</ele>
        <time>2022-01-20T13:34:10Z</time>
      </trkpt>
      <trkpt lat="47.26117" lon="-1.57126">
        <ele>78</ele>
        <time>2022-01-20T13:34:11Z</time>
      </trkpt>
      <trkpt lat="47.26117" lon="-1.57128">
        <ele>78</ele>
        <time>2022-01-20T13:34:12Z</time>
      </trkpt>
      <trkpt lat="47.26117" lon="-1.57133">
        <ele>78</ele>
        <time>2022-01-20T13:34:14Z</time>
      </trkpt>
      <trkpt lat="47.26117" lon="-1.57133">
        <ele>78</ele>
        <time>2022-01-20T13:34:14Z</time>
      </trkpt>
      <trkpt lat="47.26116" lon="-1.57135">
        <ele>78</ele>
        <time>2022-01-20T13:34:15Z</time>
      </trkpt>
      <trkpt lat="47.26117" lon="-1.57138">
        <ele>78</ele>
        <time>2022-01-20T13:34:16Z</time>
      </trkpt>
      <trkpt lat="47.26116" lon="-1.57141">
        <ele>78</ele>
        <time>2022-01-20T13:34:17Z</time>
      </trkpt>
      <trkpt lat="47.26116" lon="-1.57143">
        <ele>78</ele>
        <time>2022-01-20T13:34:18Z</time>
      </trkpt>
      <trkpt lat="47.26117" lon="-1.57144">
        <ele>79</ele>
        <time>2022-01-20T13:34:19Z</time>
      </trkpt>
      <trkpt lat="47.26116" lon="-1.57145">
        <ele>79</ele>
        <time>2022-01-20T13:34:20Z</time>
      </trkpt>
      <trkpt lat="47.26116" lon="-1.57147">
        <ele>79</ele>
        <time>2022-01-20T13:34:21Z</time>
      </trkpt>
      <trkpt lat="47.26116" lon="-1.57148">
        <ele>79</ele>
        <time>2022-01-20T13:34:22Z</time>
      </trkpt>
      <trkpt lat="47.26115" lon="-1.57151">
        <ele>79</ele>
        <time>2022-01-20T13:34:23Z</time>
      </trkpt>
      <trkpt lat="47.26116" lon="-1.57155">
        <ele>78</ele>
        <time>2022-01-20T13:34:25Z</time>
      </trkpt>
      <trkpt lat="47.26116" lon="-1.57155">
        <ele>78</ele>
        <time>2022-01-20T13:34:25Z</time>
      </trkpt>
      <trkpt lat="47.26116" lon="-1.57157">
        <ele>77</ele>
        <time>2022-01-20T13:34:26Z</time>
      </trkpt>
      <trkpt lat="47.26116" lon="-1.57159">
        <ele>77</ele>
        <time>2022-01-20T13:34:27Z</time>
      </trkpt>
      <trkpt lat="47.26117" lon="-1.57162">
        <ele>78</ele>
        <time>2022-01-20T13:34:28Z</time>
      </trkpt>
      <trkpt lat="47.26117" lon="-1.57164">
        <ele>78</ele>
        <time>2022-01-20T13:34:29Z</time>
      </trkpt>
      <trkpt lat="47.26117" lon="-1.57166">
        <ele>78</ele>
        <time>2022-01-20T13:34:30Z</time>
      </trkpt>
      <trkpt lat="47.26117" lon="-1.57167">
        <ele>77</ele>
        <time>2022-01-20T13:34:31Z</time>
      </trkpt>
      <trkpt lat="47.26117" lon="-1.57169">
        <ele>77</ele>
        <time>2022-01-20T13:34:32Z</time>
      </trkpt>
      <trkpt lat="47.26117" lon="-1.57171">
        <ele>77</ele>
        <time>2022-01-20T13:34:33Z</time>
      </trkpt>
      <trkpt lat="47.26116" lon="-1.57172">
        <ele>76</ele>
        <time>2022-01-20T13:34:34Z</time>
      </trkpt>
      <trkpt lat="47.26116" lon="-1.57174">
        <ele>77</ele>
        <time>2022-01-20T13:34:35Z</time>
      </trkpt>
      <trkpt lat="47.26115" lon="-1.57175">
        <ele>76</ele>
        <time>2022-01-20T13:34:36Z</time>
      </trkpt>
      <trkpt lat="47.26115" lon="-1.57177">
        <ele>76</ele>
        <time>2022-01-20T13:34:37Z</time>
      </trkpt>
      <trkpt lat="47.26115" lon="-1.57178">
        <ele>77</ele>
        <time>2022-01-20T13:34:38Z</time>
      </trkpt>
      <trkpt lat="47.26115" lon="-1.57179">
        <ele>77</ele>
        <time>2022-01-20T13:34:39Z</time>
      </trkpt>
      <trkpt lat="47.26114" lon="-1.57179">
        <ele>78</ele>
        <time>2022-01-20T13:34:40Z</time>
      </trkpt>
      <trkpt lat="47.26114" lon="-1.5718">
        <ele>77</ele>
        <time>2022-01-20T13:34:41Z</time>
      </trkpt>
      <trkpt lat="47.26114" lon="-1.57182">
        <ele>78</ele>
        <time>2022-01-20T13:34:42Z</time>
      </trkpt>
      <trkpt lat="47.26114" lon="-1.57183">
        <ele>79</ele>
        <time>2022-01-20T13:34:43Z</time>
      </trkpt>
      <trkpt lat="47.26113" lon="-1.57184">
        <ele>80</ele>
        <time>2022-01-20T13:34:44Z</time>
      </trkpt>
      <trkpt lat="47.26113" lon="-1.57184">
        <ele>80</ele>
        <time>2022-01-20T13:34:45Z</time>
      </trkpt>
      <trkpt lat="47.26113" lon="-1.57184">
        <ele>80</ele>
        <time>2022-01-20T13:34:46Z</time>
      </trkpt>
      <trkpt lat="47.26112" lon="-1.57187">
        <ele>81</ele>
        <time>2022-01-20T13:34:47Z</time>
      </trkpt>
      <trkpt lat="47.26112" lon="-1.57187">
        <ele>81</ele>
        <time>2022-01-20T13:34:48Z</time>
      </trkpt>
      <trkpt lat="47.26112" lon="-1.57188">
        <ele>81</ele>
        <time>2022-01-20T13:34:49Z</time>
      </trkpt>
      <trkpt lat="47.26111" lon="-1.57189">
        <ele>82</ele>
        <time>2022-01-20T13:34:50Z</time>
      </trkpt>
      <trkpt lat="47.2611" lon="-1.57189">
        <ele>83</ele>
        <time>2022-01-20T13:34:51Z</time>
      </trkpt>
      <trkpt lat="47.26109" lon="-1.5719">
        <ele>84</ele>
        <time>2022-01-20T13:34:52Z</time>
      </trkpt>
      <trkpt lat="47.26109" lon="-1.5719">
        <ele>84</ele>
        <time>2022-01-20T13:34:53Z</time>
      </trkpt>
      <trkpt lat="47.26109" lon="-1.5719">
        <ele>84</ele>
        <time>2022-01-20T13:34:54Z</time>
      </trkpt>
      <trkpt lat="47.26108" lon="-1.57193">
        <ele>85</ele>
        <time>2022-01-20T13:34:55Z</time>
      </trkpt>
      <trkpt lat="47.26107" lon="-1.57194">
        <ele>85</ele>
        <time>2022-01-20T13:34:56Z</time>
      </trkpt>
      <trkpt lat="47.26106" lon="-1.57195">
        <ele>83</ele>
        <time>2022-01-20T13:34:57Z</time>
      </trkpt>
      <trkpt lat="47.26105" lon="-1.57197">
        <ele>83</ele>
        <time>2022-01-20T13:34:58Z</time>
      </trkpt>
      <trkpt lat="47.26105" lon="-1.57197">
        <ele>83</ele>
        <time>2022-01-20T13:34:59Z</time>
      </trkpt>
      <trkpt lat="47.26101" lon="-1.572">
        <ele>83</ele>
        <time>2022-01-20T13:35:01Z</time>
      </trkpt>
      <trkpt lat="47.26101" lon="-1.572">
        <ele>83</ele>
        <time>2022-01-20T13:35:01Z</time>
      </trkpt>
      <trkpt lat="47.26099" lon="-1.572">
        <ele>83</ele>
        <time>2022-01-20T13:35:02Z</time>
      </trkpt>
      <trkpt lat="47.26098" lon="-1.572">
        <ele>83</ele>
        <time>2022-01-20T13:35:03Z</time>
      </trkpt>
      <trkpt lat="47.26096" lon="-1.57201">
        <ele>83</ele>
        <time>2022-01-20T13:35:04Z</time>
      </trkpt>
      <trkpt lat="47.26095" lon="-1.57201">
        <ele>83</ele>
        <time>2022-01-20T13:35:05Z</time>
      </trkpt>
      <trkpt lat="47.26094" lon="-1.57201">
        <ele>83</ele>
        <time>2022-01-20T13:35:06Z</time>
      </trkpt>
      <trkpt lat="47.26093" lon="-1.57202">
        <ele>83</ele>
        <time>2022-01-20T13:35:07Z</time>
      </trkpt>
      <trkpt lat="47.26092" lon="-1.57202">
        <ele>84</ele>
        <time>2022-01-20T13:35:08Z</time>
      </trkpt>
      <trkpt lat="47.26091" lon="-1.57203">
        <ele>84</ele>
        <time>2022-01-20T13:35:09Z</time>
      </trkpt>
      <trkpt lat="47.26091" lon="-1.57203">
        <ele>84</ele>
        <time>2022-01-20T13:35:10Z</time>
      </trkpt>
      <trkpt lat="47.26091" lon="-1.57203">
        <ele>84</ele>
        <time>2022-01-20T13:35:11Z</time>
      </trkpt>
      <trkpt lat="47.26089" lon="-1.57206">
        <ele>85</ele>
        <time>2022-01-20T13:35:12Z</time>
      </trkpt>
      <trkpt lat="47.26088" lon="-1.57206">
        <ele>85</ele>
        <time>2022-01-20T13:35:13Z</time>
      </trkpt>
      <trkpt lat="47.26086" lon="-1.57208">
        <ele>85</ele>
        <time>2022-01-20T13:35:14Z</time>
      </trkpt>
      <trkpt lat="47.26086" lon="-1.57209">
        <ele>85</ele>
        <time>2022-01-20T13:35:15Z</time>
      </trkpt>
      <trkpt lat="47.26085" lon="-1.5721">
        <ele>86</ele>
        <time>2022-01-20T13:35:16Z</time>
      </trkpt>
      <trkpt lat="47.26084" lon="-1.57212">
        <ele>86</ele>
        <time>2022-01-20T13:35:17Z</time>
      </trkpt>
      <trkpt lat="47.26084" lon="-1.57212">
        <ele>86</ele>
        <time>2022-01-20T13:35:18Z</time>
      </trkpt>
      <trkpt lat="47.26084" lon="-1.57212">
        <ele>86</ele>
        <time>2022-01-20T13:35:19Z</time>
      </trkpt>
      <trkpt lat="47.26082" lon="-1.57217">
        <ele>85</ele>
        <time>2022-01-20T13:35:20Z</time>
      </trkpt>
      <trkpt lat="47.26082" lon="-1.57218">
        <ele>86</ele>
        <time>2022-01-20T13:35:21Z</time>
      </trkpt>
      <trkpt lat="47.26081" lon="-1.5722">
        <ele>86</ele>
        <time>2022-01-20T13:35:22Z</time>
      </trkpt>
      <trkpt lat="47.2608" lon="-1.57221">
        <ele>86</ele>
        <time>2022-01-20T13:35:23Z</time>
      </trkpt>
      <trkpt lat="47.2608" lon="-1.57223">
        <ele>85</ele>
        <time>2022-01-20T13:35:24Z</time>
      </trkpt>
      <trkpt lat="47.26079" lon="-1.57225">
        <ele>86</ele>
        <time>2022-01-20T13:35:25Z</time>
      </trkpt>
      <trkpt lat="47.26078" lon="-1.57227">
        <ele>86</ele>
        <time>2022-01-20T13:35:26Z</time>
      </trkpt>
      <trkpt lat="47.26078" lon="-1.57229">
        <ele>87</ele>
        <time>2022-01-20T13:35:27Z</time>
      </trkpt>
      <trkpt lat="47.26077" lon="-1.57232">
        <ele>87</ele>
        <time>2022-01-20T13:35:28Z</time>
      </trkpt>
      <trkpt lat="47.26076" lon="-1.57234">
        <ele>88</ele>
        <time>2022-01-20T13:35:29Z</time>
      </trkpt>
      <trkpt lat="47.26075" lon="-1.57236">
        <ele>88</ele>
        <time>2022-01-20T13:35:30Z</time>
      </trkpt>
      <trkpt lat="47.26074" lon="-1.57239">
        <ele>89</ele>
        <time>2022-01-20T13:35:31Z</time>
      </trkpt>
      <trkpt lat="47.26073" lon="-1.57241">
        <ele>89</ele>
        <time>2022-01-20T13:35:32Z</time>
      </trkpt>
      <trkpt lat="47.26072" lon="-1.57243">
        <ele>89</ele>
        <time>2022-01-20T13:35:33Z</time>
      </trkpt>
      <trkpt lat="47.26072" lon="-1.57245">
        <ele>90</ele>
        <time>2022-01-20T13:35:34Z</time>
      </trkpt>
      <trkpt lat="47.26071" lon="-1.57247">
        <ele>90</ele>
        <time>2022-01-20T13:35:35Z</time>
      </trkpt>
      <trkpt lat="47.2607" lon="-1.57249">
        <ele>91</ele>
        <time>2022-01-20T13:35:36Z</time>
      </trkpt>
      <trkpt lat="47.2607" lon="-1.57251">
        <ele>91</ele>
        <time>2022-01-20T13:35:37Z</time>
      </trkpt>
      <trkpt lat="47.26069" lon="-1.57252">
        <ele>91</ele>
        <time>2022-01-20T13:35:38Z</time>
      </trkpt>
      <trkpt lat="47.26069" lon="-1.57253">
        <ele>92</ele>
        <time>2022-01-20T13:35:39Z</time>
      </trkpt>
      <trkpt lat="47.26068" lon="-1.57255">
        <ele>92</ele>
        <time>2022-01-20T13:35:40Z</time>
      </trkpt>
      <trkpt lat="47.26067" lon="-1.57256">
        <ele>92</ele>
        <time>2022-01-20T13:35:41Z</time>
      </trkpt>
      <trkpt lat="47.26066" lon="-1.57257">
        <ele>92</ele>
        <time>2022-01-20T13:35:42Z</time>
      </trkpt>
      <trkpt lat="47.26065" lon="-1.57259">
        <ele>92</ele>
        <time>2022-01-20T13:35:43Z</time>
      </trkpt>
      <trkpt lat="47.26064" lon="-1.5726">
        <ele>92</ele>
        <time>2022-01-20T13:35:44Z</time>
      </trkpt>
      <trkpt lat="47.26063" lon="-1.57261">
        <ele>92</ele>
        <time>2022-01-20T13:35:45Z</time>
      </trkpt>
      <trkpt lat="47.26062" lon="-1.57263">
        <ele>92</ele>
        <time>2022-01-20T13:35:46Z</time>
      </trkpt>
      <trkpt lat="47.26062" lon="-1.57265">
        <ele>92</ele>
        <time>2022-01-20T13:35:47Z</time>
      </trkpt>
      <trkpt lat="47.26061" lon="-1.57266">
        <ele>92</ele>
        <time>2022-01-20T13:35:48Z</time>
      </trkpt>
      <trkpt lat="47.26059" lon="-1.57267">
        <ele>91</ele>
        <time>2022-01-20T13:35:49Z</time>
      </trkpt>
      <trkpt lat="47.26059" lon="-1.57269">
        <ele>91</ele>
        <time>2022-01-20T13:35:50Z</time>
      </trkpt>
      <trkpt lat="47.26058" lon="-1.5727">
        <ele>91</ele>
        <time>2022-01-20T13:35:51Z</time>
      </trkpt>
      <trkpt lat="47.26058" lon="-1.57272">
        <ele>90</ele>
        <time>2022-01-20T13:35:52Z</time>
      </trkpt>
      <trkpt lat="47.26057" lon="-1.57273">
        <ele>90</ele>
        <time>2022-01-20T13:35:53Z</time>
      </trkpt>
      <trkpt lat="47.26057" lon="-1.57275">
        <ele>89</ele>
        <time>2022-01-20T13:35:54Z</time>
      </trkpt>
      <trkpt lat="47.26057" lon="-1.57275">
        <ele>89</ele>
        <time>2022-01-20T13:35:55Z</time>
      </trkpt>
      <trkpt lat="47.26057" lon="-1.57277">
        <ele>88</ele>
        <time>2022-01-20T13:35:56Z</time>
      </trkpt>
      <trkpt lat="47.26056" lon="-1.57279">
        <ele>88</ele>
        <time>2022-01-20T13:35:57Z</time>
      </trkpt>
      <trkpt lat="47.26056" lon="-1.5728">
        <ele>88</ele>
        <time>2022-01-20T13:35:58Z</time>
      </trkpt>
      <trkpt lat="47.26055" lon="-1.57281">
        <ele>88</ele>
        <time>2022-01-20T13:35:59Z</time>
      </trkpt>
      <trkpt lat="47.26055" lon="-1.57281">
        <ele>88</ele>
        <time>2022-01-20T13:36:00Z</time>
      </trkpt>
      <trkpt lat="47.26055" lon="-1.57281">
        <ele>88</ele>
        <time>2022-01-20T13:36:01Z</time>
      </trkpt>
      <trkpt lat="47.26054" lon="-1.57285">
        <ele>88</ele>
        <time>2022-01-20T13:36:02Z</time>
      </trkpt>
      <trkpt lat="47.26053" lon="-1.57286">
        <ele>89</ele>
        <time>2022-01-20T13:36:03Z</time>
      </trkpt>
      <trkpt lat="47.26053" lon="-1.57287">
        <ele>88</ele>
        <time>2022-01-20T13:36:04Z</time>
      </trkpt>
      <trkpt lat="47.26051" lon="-1.57287">
        <ele>88</ele>
        <time>2022-01-20T13:36:05Z</time>
      </trkpt>
      <trkpt lat="47.26051" lon="-1.57287">
        <ele>88</ele>
        <time>2022-01-20T13:36:06Z</time>
      </trkpt>
      <trkpt lat="47.26051" lon="-1.57287">
        <ele>88</ele>
        <time>2022-01-20T13:36:07Z</time>
      </trkpt>
      <trkpt lat="47.26048" lon="-1.5729">
        <ele>88</ele>
        <time>2022-01-20T13:36:08Z</time>
      </trkpt>
      <trkpt lat="47.26047" lon="-1.57291">
        <ele>88</ele>
        <time>2022-01-20T13:36:09Z</time>
      </trkpt>
      <trkpt lat="47.26046" lon="-1.57292">
        <ele>88</ele>
        <time>2022-01-20T13:36:10Z</time>
      </trkpt>
      <trkpt lat="47.26044" lon="-1.57293">
        <ele>89</ele>
        <time>2022-01-20T13:36:11Z</time>
      </trkpt>
      <trkpt lat="47.26044" lon="-1.57293">
        <ele>89</ele>
        <time>2022-01-20T13:36:12Z</time>
      </trkpt>
      <trkpt lat="47.26044" lon="-1.57293">
        <ele>89</ele>
        <time>2022-01-20T13:36:13Z</time>
      </trkpt>
      <trkpt lat="47.26041" lon="-1.57295">
        <ele>88</ele>
        <time>2022-01-20T13:36:14Z</time>
      </trkpt>
      <trkpt lat="47.26039" lon="-1.57295">
        <ele>88</ele>
        <time>2022-01-20T13:36:15Z</time>
      </trkpt>
      <trkpt lat="47.26038" lon="-1.57295">
        <ele>89</ele>
        <time>2022-01-20T13:36:16Z</time>
      </trkpt>
      <trkpt lat="47.26037" lon="-1.57296">
        <ele>89</ele>
        <time>2022-01-20T13:36:17Z</time>
      </trkpt>
      <trkpt lat="47.26035" lon="-1.57297">
        <ele>88</ele>
        <time>2022-01-20T13:36:18Z</time>
      </trkpt>
      <trkpt lat="47.26033" lon="-1.57297">
        <ele>89</ele>
        <time>2022-01-20T13:36:19Z</time>
      </trkpt>
      <trkpt lat="47.26032" lon="-1.57297">
        <ele>88</ele>
        <time>2022-01-20T13:36:20Z</time>
      </trkpt>
      <trkpt lat="47.2603" lon="-1.57297">
        <ele>88</ele>
        <time>2022-01-20T13:36:21Z</time>
      </trkpt>
      <trkpt lat="47.26029" lon="-1.57297">
        <ele>88</ele>
        <time>2022-01-20T13:36:22Z</time>
      </trkpt>
      <trkpt lat="47.26027" lon="-1.57298">
        <ele>89</ele>
        <time>2022-01-20T13:36:23Z</time>
      </trkpt>
      <trkpt lat="47.26024" lon="-1.57298">
        <ele>89</ele>
        <time>2022-01-20T13:36:25Z</time>
      </trkpt>
      <trkpt lat="47.26023" lon="-1.57298">
        <ele>89</ele>
        <time>2022-01-20T13:36:26Z</time>
      </trkpt>
      <trkpt lat="47.26022" lon="-1.57298">
        <ele>89</ele>
        <time>2022-01-20T13:36:27Z</time>
      </trkpt>
      <trkpt lat="47.26022" lon="-1.57298">
        <ele>89</ele>
        <time>2022-01-20T13:36:27Z</time>
      </trkpt>
      <trkpt lat="47.2602" lon="-1.57298">
        <ele>89</ele>
        <time>2022-01-20T13:36:28Z</time>
      </trkpt>
      <trkpt lat="47.2602" lon="-1.57298">
        <ele>89</ele>
        <time>2022-01-20T13:36:29Z</time>
      </trkpt>
      <trkpt lat="47.26018" lon="-1.57299">
        <ele>89</ele>
        <time>2022-01-20T13:36:30Z</time>
      </trkpt>
      <trkpt lat="47.26016" lon="-1.57299">
        <ele>89</ele>
        <time>2022-01-20T13:36:31Z</time>
      </trkpt>
      <trkpt lat="47.26015" lon="-1.57299">
        <ele>89</ele>
        <time>2022-01-20T13:36:32Z</time>
      </trkpt>
      <trkpt lat="47.26013" lon="-1.573">
        <ele>89</ele>
        <time>2022-01-20T13:36:33Z</time>
      </trkpt>
      <trkpt lat="47.26011" lon="-1.573">
        <ele>90</ele>
        <time>2022-01-20T13:36:34Z</time>
      </trkpt>
      <trkpt lat="47.26009" lon="-1.573">
        <ele>90</ele>
        <time>2022-01-20T13:36:35Z</time>
      </trkpt>
      <trkpt lat="47.26008" lon="-1.57301">
        <ele>91</ele>
        <time>2022-01-20T13:36:36Z</time>
      </trkpt>
      <trkpt lat="47.26007" lon="-1.573">
        <ele>91</ele>
        <time>2022-01-20T13:36:37Z</time>
      </trkpt>
      <trkpt lat="47.26005" lon="-1.57301">
        <ele>91</ele>
        <time>2022-01-20T13:36:38Z</time>
      </trkpt>
      <trkpt lat="47.26005" lon="-1.57301">
        <ele>91</ele>
        <time>2022-01-20T13:36:39Z</time>
      </trkpt>
      <trkpt lat="47.26005" lon="-1.57301">
        <ele>91</ele>
        <time>2022-01-20T13:36:40Z</time>
      </trkpt>
      <trkpt lat="47.26001" lon="-1.57301">
        <ele>92</ele>
        <time>2022-01-20T13:36:41Z</time>
      </trkpt>
      <trkpt lat="47.26" lon="-1.57301">
        <ele>93</ele>
        <time>2022-01-20T13:36:42Z</time>
      </trkpt>
      <trkpt lat="47.25999" lon="-1.573">
        <ele>93</ele>
        <time>2022-01-20T13:36:43Z</time>
      </trkpt>
      <trkpt lat="47.25998" lon="-1.573">
        <ele>93</ele>
        <time>2022-01-20T13:36:44Z</time>
      </trkpt>
      <trkpt lat="47.25998" lon="-1.573">
        <ele>93</ele>
        <time>2022-01-20T13:36:45Z</time>
      </trkpt>
      <trkpt lat="47.25998" lon="-1.573">
        <ele>93</ele>
        <time>2022-01-20T13:36:46Z</time>
      </trkpt>
      <trkpt lat="47.25994" lon="-1.57301">
        <ele>93</ele>
        <time>2022-01-20T13:36:47Z</time>
      </trkpt>
      <trkpt lat="47.25992" lon="-1.57302">
        <ele>94</ele>
        <time>2022-01-20T13:36:48Z</time>
      </trkpt>
      <trkpt lat="47.25991" lon="-1.57302">
        <ele>94</ele>
        <time>2022-01-20T13:36:49Z</time>
      </trkpt>
      <trkpt lat="47.25989" lon="-1.57303">
        <ele>95</ele>
        <time>2022-01-20T13:36:50Z</time>
      </trkpt>
      <trkpt lat="47.25987" lon="-1.57303">
        <ele>94</ele>
        <time>2022-01-20T13:36:51Z</time>
      </trkpt>
      <trkpt lat="47.25985" lon="-1.57303">
        <ele>94</ele>
        <time>2022-01-20T13:36:52Z</time>
      </trkpt>
      <trkpt lat="47.25984" lon="-1.57303">
        <ele>94</ele>
        <time>2022-01-20T13:36:53Z</time>
      </trkpt>
      <trkpt lat="47.25982" lon="-1.57304">
        <ele>93</ele>
        <time>2022-01-20T13:36:54Z</time>
      </trkpt>
      <trkpt lat="47.2598" lon="-1.57304">
        <ele>93</ele>
        <time>2022-01-20T13:36:55Z</time>
      </trkpt>
      <trkpt lat="47.25979" lon="-1.57305">
        <ele>92</ele>
        <time>2022-01-20T13:36:56Z</time>
      </trkpt>
      <trkpt lat="47.25977" lon="-1.57306">
        <ele>92</ele>
        <time>2022-01-20T13:36:57Z</time>
      </trkpt>
      <trkpt lat="47.25975" lon="-1.57306">
        <ele>92</ele>
        <time>2022-01-20T13:36:58Z</time>
      </trkpt>
      <trkpt lat="47.25974" lon="-1.57307">
        <ele>92</ele>
        <time>2022-01-20T13:36:59Z</time>
      </trkpt>
      <trkpt lat="47.25972" lon="-1.57308">
        <ele>92</ele>
        <time>2022-01-20T13:37:00Z</time>
      </trkpt>
      <trkpt lat="47.25971" lon="-1.57308">
        <ele>91</ele>
        <time>2022-01-20T13:37:01Z</time>
      </trkpt>
      <trkpt lat="47.25969" lon="-1.57309">
        <ele>90</ele>
        <time>2022-01-20T13:37:02Z</time>
      </trkpt>
      <trkpt lat="47.25967" lon="-1.57311">
        <ele>90</ele>
        <time>2022-01-20T13:37:03Z</time>
      </trkpt>
      <trkpt lat="47.25966" lon="-1.57312">
        <ele>90</ele>
        <time>2022-01-20T13:37:04Z</time>
      </trkpt>
      <trkpt lat="47.25964" lon="-1.57313">
        <ele>89</ele>
        <time>2022-01-20T13:37:05Z</time>
      </trkpt>
      <trkpt lat="47.25964" lon="-1.57315">
        <ele>89</ele>
        <time>2022-01-20T13:37:06Z</time>
      </trkpt>
      <trkpt lat="47.25962" lon="-1.57316">
        <ele>88</ele>
        <time>2022-01-20T13:37:07Z</time>
      </trkpt>
      <trkpt lat="47.25961" lon="-1.57317">
        <ele>88</ele>
        <time>2022-01-20T13:37:08Z</time>
      </trkpt>
      <trkpt lat="47.25961" lon="-1.57318">
        <ele>88</ele>
        <time>2022-01-20T13:37:09Z</time>
      </trkpt>
      <trkpt lat="47.2596" lon="-1.57319">
        <ele>89</ele>
        <time>2022-01-20T13:37:10Z</time>
      </trkpt>
      <trkpt lat="47.2596" lon="-1.57319">
        <ele>89</ele>
        <time>2022-01-20T13:37:11Z</time>
      </trkpt>
      <trkpt lat="47.25959" lon="-1.57322">
        <ele>89</ele>
        <time>2022-01-20T13:37:12Z</time>
      </trkpt>
      <trkpt lat="47.25958" lon="-1.57323">
        <ele>88</ele>
        <time>2022-01-20T13:37:13Z</time>
      </trkpt>
      <trkpt lat="47.25957" lon="-1.57324">
        <ele>86</ele>
        <time>2022-01-20T13:37:14Z</time>
      </trkpt>
      <trkpt lat="47.25956" lon="-1.57325">
        <ele>86</ele>
        <time>2022-01-20T13:37:15Z</time>
      </trkpt>
      <trkpt lat="47.25956" lon="-1.57326">
        <ele>86</ele>
        <time>2022-01-20T13:37:16Z</time>
      </trkpt>
      <trkpt lat="47.25956" lon="-1.57327">
        <ele>86</ele>
        <time>2022-01-20T13:37:17Z</time>
      </trkpt>
      <trkpt lat="47.25955" lon="-1.57329">
        <ele>86</ele>
        <time>2022-01-20T13:37:18Z</time>
      </trkpt>
      <trkpt lat="47.25954" lon="-1.57331">
        <ele>85</ele>
        <time>2022-01-20T13:37:19Z</time>
      </trkpt>
      <trkpt lat="47.25954" lon="-1.57332">
        <ele>86</ele>
        <time>2022-01-20T13:37:20Z</time>
      </trkpt>
      <trkpt lat="47.25954" lon="-1.57334">
        <ele>85</ele>
        <time>2022-01-20T13:37:21Z</time>
      </trkpt>
      <trkpt lat="47.25954" lon="-1.57336">
        <ele>85</ele>
        <time>2022-01-20T13:37:22Z</time>
      </trkpt>
      <trkpt lat="47.25953" lon="-1.57338">
        <ele>84</ele>
        <time>2022-01-20T13:37:23Z</time>
      </trkpt>
      <trkpt lat="47.25952" lon="-1.57339">
        <ele>83</ele>
        <time>2022-01-20T13:37:24Z</time>
      </trkpt>
      <trkpt lat="47.25951" lon="-1.57341">
        <ele>83</ele>
        <time>2022-01-20T13:37:25Z</time>
      </trkpt>
      <trkpt lat="47.25951" lon="-1.57342">
        <ele>83</ele>
        <time>2022-01-20T13:37:26Z</time>
      </trkpt>
      <trkpt lat="47.2595" lon="-1.57344">
        <ele>83</ele>
        <time>2022-01-20T13:37:27Z</time>
      </trkpt>
      <trkpt lat="47.2595" lon="-1.57347">
        <ele>83</ele>
        <time>2022-01-20T13:37:28Z</time>
      </trkpt>
      <trkpt lat="47.2595" lon="-1.57349">
        <ele>83</ele>
        <time>2022-01-20T13:37:29Z</time>
      </trkpt>
      <trkpt lat="47.2595" lon="-1.57352">
        <ele>83</ele>
        <time>2022-01-20T13:37:30Z</time>
      </trkpt>
      <trkpt lat="47.25951" lon="-1.57354">
        <ele>83</ele>
        <time>2022-01-20T13:37:31Z</time>
      </trkpt>
      <trkpt lat="47.2595" lon="-1.57356">
        <ele>83</ele>
        <time>2022-01-20T13:37:32Z</time>
      </trkpt>
      <trkpt lat="47.25951" lon="-1.57358">
        <ele>83</ele>
        <time>2022-01-20T13:37:33Z</time>
      </trkpt>
      <trkpt lat="47.25951" lon="-1.57359">
        <ele>84</ele>
        <time>2022-01-20T13:37:34Z</time>
      </trkpt>
      <trkpt lat="47.25951" lon="-1.57361">
        <ele>84</ele>
        <time>2022-01-20T13:37:35Z</time>
      </trkpt>
      <trkpt lat="47.25951" lon="-1.57362">
        <ele>85</ele>
        <time>2022-01-20T13:37:36Z</time>
      </trkpt>
      <trkpt lat="47.25952" lon="-1.57364">
        <ele>85</ele>
        <time>2022-01-20T13:37:37Z</time>
      </trkpt>
      <trkpt lat="47.25952" lon="-1.57366">
        <ele>85</ele>
        <time>2022-01-20T13:37:38Z</time>
      </trkpt>
      <trkpt lat="47.25951" lon="-1.57368">
        <ele>86</ele>
        <time>2022-01-20T13:37:39Z</time>
      </trkpt>
      <trkpt lat="47.25951" lon="-1.5737">
        <ele>86</ele>
        <time>2022-01-20T13:37:40Z</time>
      </trkpt>
      <trkpt lat="47.25951" lon="-1.57372">
        <ele>86</ele>
        <time>2022-01-20T13:37:41Z</time>
      </trkpt>
      <trkpt lat="47.25951" lon="-1.57374">
        <ele>86</ele>
        <time>2022-01-20T13:37:42Z</time>
      </trkpt>
      <trkpt lat="47.2595" lon="-1.57376">
        <ele>86</ele>
        <time>2022-01-20T13:37:43Z</time>
      </trkpt>
      <trkpt lat="47.2595" lon="-1.57378">
        <ele>86</ele>
        <time>2022-01-20T13:37:44Z</time>
      </trkpt>
      <trkpt lat="47.25949" lon="-1.5738">
        <ele>86</ele>
        <time>2022-01-20T13:37:45Z</time>
      </trkpt>
      <trkpt lat="47.25949" lon="-1.57382">
        <ele>86</ele>
        <time>2022-01-20T13:37:46Z</time>
      </trkpt>
      <trkpt lat="47.25948" lon="-1.57384">
        <ele>86</ele>
        <time>2022-01-20T13:37:47Z</time>
      </trkpt>
      <trkpt lat="47.25948" lon="-1.57386">
        <ele>86</ele>
        <time>2022-01-20T13:37:48Z</time>
      </trkpt>
      <trkpt lat="47.25947" lon="-1.57388">
        <ele>86</ele>
        <time>2022-01-20T13:37:49Z</time>
      </trkpt>
      <trkpt lat="47.25947" lon="-1.5739">
        <ele>86</ele>
        <time>2022-01-20T13:37:50Z</time>
      </trkpt>
      <trkpt lat="47.25946" lon="-1.57392">
        <ele>86</ele>
        <time>2022-01-20T13:37:51Z</time>
      </trkpt>
      <trkpt lat="47.25946" lon="-1.57394">
        <ele>87</ele>
        <time>2022-01-20T13:37:52Z</time>
      </trkpt>
      <trkpt lat="47.25947" lon="-1.57395">
        <ele>87</ele>
        <time>2022-01-20T13:37:53Z</time>
      </trkpt>
      <trkpt lat="47.25946" lon="-1.57396">
        <ele>87</ele>
        <time>2022-01-20T13:37:54Z</time>
      </trkpt>
      <trkpt lat="47.25946" lon="-1.57397">
        <ele>87</ele>
        <time>2022-01-20T13:37:55Z</time>
      </trkpt>
      <trkpt lat="47.25946" lon="-1.57398">
        <ele>87</ele>
        <time>2022-01-20T13:37:56Z</time>
      </trkpt>
      <trkpt lat="47.25946" lon="-1.57399">
        <ele>88</ele>
        <time>2022-01-20T13:37:57Z</time>
      </trkpt>
      <trkpt lat="47.25946" lon="-1.57401">
        <ele>88</ele>
        <time>2022-01-20T13:37:58Z</time>
      </trkpt>
      <trkpt lat="47.25946" lon="-1.57402">
        <ele>88</ele>
        <time>2022-01-20T13:37:59Z</time>
      </trkpt>
      <trkpt lat="47.25946" lon="-1.57403">
        <ele>90</ele>
        <time>2022-01-20T13:38:00Z</time>
      </trkpt>
      <trkpt lat="47.25946" lon="-1.57405">
        <ele>90</ele>
        <time>2022-01-20T13:38:01Z</time>
      </trkpt>
      <trkpt lat="47.25946" lon="-1.57406">
        <ele>90</ele>
        <time>2022-01-20T13:38:02Z</time>
      </trkpt>
      <trkpt lat="47.25946" lon="-1.57407">
        <ele>91</ele>
        <time>2022-01-20T13:38:03Z</time>
      </trkpt>
      <trkpt lat="47.25946" lon="-1.57408">
        <ele>91</ele>
        <time>2022-01-20T13:38:04Z</time>
      </trkpt>
      <trkpt lat="47.25947" lon="-1.57409">
        <ele>91</ele>
        <time>2022-01-20T13:38:05Z</time>
      </trkpt>
      <trkpt lat="47.25947" lon="-1.57411">
        <ele>91</ele>
        <time>2022-01-20T13:38:06Z</time>
      </trkpt>
      <trkpt lat="47.25948" lon="-1.57412">
        <ele>90</ele>
        <time>2022-01-20T13:38:07Z</time>
      </trkpt>
      <trkpt lat="47.25949" lon="-1.57413">
        <ele>89</ele>
        <time>2022-01-20T13:38:08Z</time>
      </trkpt>
      <trkpt lat="47.25949" lon="-1.57414">
        <ele>88</ele>
        <time>2022-01-20T13:38:09Z</time>
      </trkpt>
      <trkpt lat="47.2595" lon="-1.57416">
        <ele>87</ele>
        <time>2022-01-20T13:38:10Z</time>
      </trkpt>
      <trkpt lat="47.2595" lon="-1.57419">
        <ele>87</ele>
        <time>2022-01-20T13:38:11Z</time>
      </trkpt>
      <trkpt lat="47.25951" lon="-1.57421">
        <ele>86</ele>
        <time>2022-01-20T13:38:12Z</time>
      </trkpt>
      <trkpt lat="47.25951" lon="-1.57423">
        <ele>86</ele>
        <time>2022-01-20T13:38:13Z</time>
      </trkpt>
      <trkpt lat="47.25951" lon="-1.57425">
        <ele>86</ele>
        <time>2022-01-20T13:38:14Z</time>
      </trkpt>
      <trkpt lat="47.25951" lon="-1.57427">
        <ele>86</ele>
        <time>2022-01-20T13:38:15Z</time>
      </trkpt>
      <trkpt lat="47.25952" lon="-1.57428">
        <ele>86</ele>
        <time>2022-01-20T13:38:16Z</time>
      </trkpt>
      <trkpt lat="47.25953" lon="-1.5743">
        <ele>86</ele>
        <time>2022-01-20T13:38:17Z</time>
      </trkpt>
      <trkpt lat="47.25953" lon="-1.57432">
        <ele>86</ele>
        <time>2022-01-20T13:38:18Z</time>
      </trkpt>
      <trkpt lat="47.25953" lon="-1.57433">
        <ele>86</ele>
        <time>2022-01-20T13:38:19Z</time>
      </trkpt>
      <trkpt lat="47.25954" lon="-1.57436">
        <ele>86</ele>
        <time>2022-01-20T13:38:20Z</time>
      </trkpt>
      <trkpt lat="47.25953" lon="-1.57438">
        <ele>86</ele>
        <time>2022-01-20T13:38:21Z</time>
      </trkpt>
      <trkpt lat="47.25953" lon="-1.5744">
        <ele>86</ele>
        <time>2022-01-20T13:38:22Z</time>
      </trkpt>
      <trkpt lat="47.25953" lon="-1.57442">
        <ele>86</ele>
        <time>2022-01-20T13:38:23Z</time>
      </trkpt>
      <trkpt lat="47.25954" lon="-1.57445">
        <ele>86</ele>
        <time>2022-01-20T13:38:24Z</time>
      </trkpt>
      <trkpt lat="47.25954" lon="-1.57447">
        <ele>86</ele>
        <time>2022-01-20T13:38:25Z</time>
      </trkpt>
      <trkpt lat="47.25954" lon="-1.5745">
        <ele>86</ele>
        <time>2022-01-20T13:38:26Z</time>
      </trkpt>
      <trkpt lat="47.25954" lon="-1.57453">
        <ele>86</ele>
        <time>2022-01-20T13:38:27Z</time>
      </trkpt>
      <trkpt lat="47.25954" lon="-1.57455">
        <ele>86</ele>
        <time>2022-01-20T13:38:28Z</time>
      </trkpt>
      <trkpt lat="47.25954" lon="-1.57458">
        <ele>86</ele>
        <time>2022-01-20T13:38:29Z</time>
      </trkpt>
      <trkpt lat="47.25953" lon="-1.57459">
        <ele>84</ele>
        <time>2022-01-20T13:38:30Z</time>
      </trkpt>
      <trkpt lat="47.25952" lon="-1.5746">
        <ele>84</ele>
        <time>2022-01-20T13:38:31Z</time>
      </trkpt>
      <trkpt lat="47.25952" lon="-1.57462">
        <ele>84</ele>
        <time>2022-01-20T13:38:32Z</time>
      </trkpt>
      <trkpt lat="47.25952" lon="-1.57462">
        <ele>84</ele>
        <time>2022-01-20T13:38:33Z</time>
      </trkpt>
      <trkpt lat="47.25952" lon="-1.57462">
        <ele>84</ele>
        <time>2022-01-20T13:38:34Z</time>
      </trkpt>
      <trkpt lat="47.25952" lon="-1.57465">
        <ele>84</ele>
        <time>2022-01-20T13:38:35Z</time>
      </trkpt>
      <trkpt lat="47.25952" lon="-1.57466">
        <ele>84</ele>
        <time>2022-01-20T13:38:36Z</time>
      </trkpt>
      <trkpt lat="47.25953" lon="-1.57468">
        <ele>83</ele>
        <time>2022-01-20T13:38:37Z</time>
      </trkpt>
      <trkpt lat="47.25954" lon="-1.57469">
        <ele>83</ele>
        <time>2022-01-20T13:38:38Z</time>
      </trkpt>
      <trkpt lat="47.25956" lon="-1.5747">
        <ele>83</ele>
        <time>2022-01-20T13:38:39Z</time>
      </trkpt>
      <trkpt lat="47.25958" lon="-1.57471">
        <ele>82</ele>
        <time>2022-01-20T13:38:40Z</time>
      </trkpt>
      <trkpt lat="47.25959" lon="-1.57472">
        <ele>82</ele>
        <time>2022-01-20T13:38:41Z</time>
      </trkpt>
      <trkpt lat="47.25961" lon="-1.57473">
        <ele>82</ele>
        <time>2022-01-20T13:38:42Z</time>
      </trkpt>
      <trkpt lat="47.25962" lon="-1.57473">
        <ele>82</ele>
        <time>2022-01-20T13:38:43Z</time>
      </trkpt>
      <trkpt lat="47.25963" lon="-1.57474">
        <ele>81</ele>
        <time>2022-01-20T13:38:44Z</time>
      </trkpt>
      <trkpt lat="47.25964" lon="-1.57474">
        <ele>81</ele>
        <time>2022-01-20T13:38:45Z</time>
      </trkpt>
      <trkpt lat="47.25965" lon="-1.57475">
        <ele>81</ele>
        <time>2022-01-20T13:38:46Z</time>
      </trkpt>
      <trkpt lat="47.25966" lon="-1.57475">
        <ele>80</ele>
        <time>2022-01-20T13:38:47Z</time>
      </trkpt>
      <trkpt lat="47.25967" lon="-1.57475">
        <ele>80</ele>
        <time>2022-01-20T13:38:48Z</time>
      </trkpt>
      <trkpt lat="47.25968" lon="-1.57476">
        <ele>80</ele>
        <time>2022-01-20T13:38:49Z</time>
      </trkpt>
      <trkpt lat="47.25969" lon="-1.57476">
        <ele>80</ele>
        <time>2022-01-20T13:38:50Z</time>
      </trkpt>
      <trkpt lat="47.2597" lon="-1.57477">
        <ele>80</ele>
        <time>2022-01-20T13:38:51Z</time>
      </trkpt>
      <trkpt lat="47.25971" lon="-1.57477">
        <ele>81</ele>
        <time>2022-01-20T13:38:52Z</time>
      </trkpt>
      <trkpt lat="47.25972" lon="-1.57477">
        <ele>81</ele>
        <time>2022-01-20T13:38:53Z</time>
      </trkpt>
      <trkpt lat="47.25973" lon="-1.57477">
        <ele>81</ele>
        <time>2022-01-20T13:38:54Z</time>
      </trkpt>
      <trkpt lat="47.25974" lon="-1.57476">
        <ele>81</ele>
        <time>2022-01-20T13:38:55Z</time>
      </trkpt>
      <trkpt lat="47.25975" lon="-1.57476">
        <ele>82</ele>
        <time>2022-01-20T13:38:56Z</time>
      </trkpt>
      <trkpt lat="47.25977" lon="-1.57476">
        <ele>82</ele>
        <time>2022-01-20T13:38:57Z</time>
      </trkpt>
      <trkpt lat="47.25978" lon="-1.57476">
        <ele>82</ele>
        <time>2022-01-20T13:38:58Z</time>
      </trkpt>
      <trkpt lat="47.25979" lon="-1.57475">
        <ele>82</ele>
        <time>2022-01-20T13:38:59Z</time>
      </trkpt>
      <trkpt lat="47.2598" lon="-1.57475">
        <ele>82</ele>
        <time>2022-01-20T13:39:00Z</time>
      </trkpt>
      <trkpt lat="47.25982" lon="-1.57474">
        <ele>82</ele>
        <time>2022-01-20T13:39:01Z</time>
      </trkpt>
      <trkpt lat="47.25983" lon="-1.57474">
        <ele>82</ele>
        <time>2022-01-20T13:39:02Z</time>
      </trkpt>
      <trkpt lat="47.25984" lon="-1.57474">
        <ele>82</ele>
        <time>2022-01-20T13:39:03Z</time>
      </trkpt>
      <trkpt lat="47.25985" lon="-1.57475">
        <ele>83</ele>
        <time>2022-01-20T13:39:04Z</time>
      </trkpt>
      <trkpt lat="47.25987" lon="-1.57475">
        <ele>83</ele>
        <time>2022-01-20T13:39:05Z</time>
      </trkpt>
      <trkpt lat="47.25988" lon="-1.57475">
        <ele>84</ele>
        <time>2022-01-20T13:39:06Z</time>
      </trkpt>
      <trkpt lat="47.25989" lon="-1.57475">
        <ele>84</ele>
        <time>2022-01-20T13:39:07Z</time>
      </trkpt>
      <trkpt lat="47.25991" lon="-1.57474">
        <ele>84</ele>
        <time>2022-01-20T13:39:08Z</time>
      </trkpt>
      <trkpt lat="47.25992" lon="-1.57474">
        <ele>84</ele>
        <time>2022-01-20T13:39:09Z</time>
      </trkpt>
      <trkpt lat="47.25993" lon="-1.57474">
        <ele>84</ele>
        <time>2022-01-20T13:39:10Z</time>
      </trkpt>
      <trkpt lat="47.25994" lon="-1.57474">
        <ele>84</ele>
        <time>2022-01-20T13:39:11Z</time>
      </trkpt>
      <trkpt lat="47.25996" lon="-1.57474">
        <ele>84</ele>
        <time>2022-01-20T13:39:12Z</time>
      </trkpt>
      <trkpt lat="47.25996" lon="-1.57473">
        <ele>84</ele>
        <time>2022-01-20T13:39:13Z</time>
      </trkpt>
      <trkpt lat="47.25997" lon="-1.57472">
        <ele>84</ele>
        <time>2022-01-20T13:39:14Z</time>
      </trkpt>
      <trkpt lat="47.25998" lon="-1.57472">
        <ele>84</ele>
        <time>2022-01-20T13:39:15Z</time>
      </trkpt>
      <trkpt lat="47.25998" lon="-1.57472">
        <ele>84</ele>
        <time>2022-01-20T13:39:16Z</time>
      </trkpt>
      <trkpt lat="47.25998" lon="-1.57472">
        <ele>84</ele>
        <time>2022-01-20T13:39:17Z</time>
      </trkpt>
      <trkpt lat="47.25998" lon="-1.57472">
        <ele>84</ele>
        <time>2022-01-20T13:39:18Z</time>
      </trkpt>
      <trkpt lat="47.26001" lon="-1.57472">
        <ele>86</ele>
        <time>2022-01-20T13:39:19Z</time>
      </trkpt>
      <trkpt lat="47.26002" lon="-1.57472">
        <ele>86</ele>
        <time>2022-01-20T13:39:20Z</time>
      </trkpt>
      <trkpt lat="47.26003" lon="-1.57471">
        <ele>86</ele>
        <time>2022-01-20T13:39:21Z</time>
      </trkpt>
      <trkpt lat="47.26005" lon="-1.57471">
        <ele>87</ele>
        <time>2022-01-20T13:39:22Z</time>
      </trkpt>
      <trkpt lat="47.26006" lon="-1.5747">
        <ele>87</ele>
        <time>2022-01-20T13:39:23Z</time>
      </trkpt>
      <trkpt lat="47.26008" lon="-1.57469">
        <ele>87</ele>
        <time>2022-01-20T13:39:24Z</time>
      </trkpt>
      <trkpt lat="47.26009" lon="-1.57468">
        <ele>87</ele>
        <time>2022-01-20T13:39:25Z</time>
      </trkpt>
      <trkpt lat="47.2601" lon="-1.57467">
        <ele>87</ele>
        <time>2022-01-20T13:39:26Z</time>
      </trkpt>
      <trkpt lat="47.26011" lon="-1.57467">
        <ele>87</ele>
        <time>2022-01-20T13:39:27Z</time>
      </trkpt>
      <trkpt lat="47.26012" lon="-1.57466">
        <ele>87</ele>
        <time>2022-01-20T13:39:28Z</time>
      </trkpt>
      <trkpt lat="47.26014" lon="-1.57466">
        <ele>87</ele>
        <time>2022-01-20T13:39:29Z</time>
      </trkpt>
      <trkpt lat="47.26014" lon="-1.57465">
        <ele>87</ele>
        <time>2022-01-20T13:39:30Z</time>
      </trkpt>
      <trkpt lat="47.26016" lon="-1.57465">
        <ele>87</ele>
        <time>2022-01-20T13:39:31Z</time>
      </trkpt>
      <trkpt lat="47.26017" lon="-1.57465">
        <ele>86</ele>
        <time>2022-01-20T13:39:32Z</time>
      </trkpt>
      <trkpt lat="47.26019" lon="-1.57464">
        <ele>86</ele>
        <time>2022-01-20T13:39:33Z</time>
      </trkpt>
      <trkpt lat="47.2602" lon="-1.57464">
        <ele>86</ele>
        <time>2022-01-20T13:39:34Z</time>
      </trkpt>
      <trkpt lat="47.26022" lon="-1.57463">
        <ele>87</ele>
        <time>2022-01-20T13:39:35Z</time>
      </trkpt>
      <trkpt lat="47.26023" lon="-1.57462">
        <ele>87</ele>
        <time>2022-01-20T13:39:36Z</time>
      </trkpt>
      <trkpt lat="47.26025" lon="-1.57461">
        <ele>87</ele>
        <time>2022-01-20T13:39:37Z</time>
      </trkpt>
      <trkpt lat="47.26025" lon="-1.57461">
        <ele>87</ele>
        <time>2022-01-20T13:39:38Z</time>
      </trkpt>
      <trkpt lat="47.26027" lon="-1.57462">
        <ele>88</ele>
        <time>2022-01-20T13:39:39Z</time>
      </trkpt>
      <trkpt lat="47.26027" lon="-1.57462">
        <ele>88</ele>
        <time>2022-01-20T13:39:40Z</time>
      </trkpt>
      <trkpt lat="47.26028" lon="-1.57462">
        <ele>88</ele>
        <time>2022-01-20T13:39:41Z</time>
      </trkpt>
      <trkpt lat="47.26029" lon="-1.57461">
        <ele>88</ele>
        <time>2022-01-20T13:39:42Z</time>
      </trkpt>
      <trkpt lat="47.26031" lon="-1.57461">
        <ele>87</ele>
        <time>2022-01-20T13:39:43Z</time>
      </trkpt>
      <trkpt lat="47.26032" lon="-1.57461">
        <ele>87</ele>
        <time>2022-01-20T13:39:44Z</time>
      </trkpt>
      <trkpt lat="47.26033" lon="-1.57461">
        <ele>87</ele>
        <time>2022-01-20T13:39:45Z</time>
      </trkpt>
      <trkpt lat="47.26035" lon="-1.5746">
        <ele>87</ele>
        <time>2022-01-20T13:39:46Z</time>
      </trkpt>
      <trkpt lat="47.26037" lon="-1.5746">
        <ele>88</ele>
        <time>2022-01-20T13:39:47Z</time>
      </trkpt>
      <trkpt lat="47.26038" lon="-1.5746">
        <ele>88</ele>
        <time>2022-01-20T13:39:48Z</time>
      </trkpt>
      <trkpt lat="47.26039" lon="-1.5746">
        <ele>88</ele>
        <time>2022-01-20T13:39:49Z</time>
      </trkpt>
      <trkpt lat="47.26041" lon="-1.5746">
        <ele>88</ele>
        <time>2022-01-20T13:39:50Z</time>
      </trkpt>
      <trkpt lat="47.26042" lon="-1.57461">
        <ele>89</ele>
        <time>2022-01-20T13:39:51Z</time>
      </trkpt>
      <trkpt lat="47.26043" lon="-1.57461">
        <ele>90</ele>
        <time>2022-01-20T13:39:52Z</time>
      </trkpt>
      <trkpt lat="47.26044" lon="-1.57461">
        <ele>90</ele>
        <time>2022-01-20T13:39:53Z</time>
      </trkpt>
      <trkpt lat="47.26045" lon="-1.57462">
        <ele>90</ele>
        <time>2022-01-20T13:39:54Z</time>
      </trkpt>
      <trkpt lat="47.26046" lon="-1.57463">
        <ele>91</ele>
        <time>2022-01-20T13:39:55Z</time>
      </trkpt>
      <trkpt lat="47.26046" lon="-1.57464">
        <ele>91</ele>
        <time>2022-01-20T13:39:56Z</time>
      </trkpt>
      <trkpt lat="47.26047" lon="-1.57465">
        <ele>91</ele>
        <time>2022-01-20T13:39:57Z</time>
      </trkpt>
      <trkpt lat="47.26048" lon="-1.57465">
        <ele>91</ele>
        <time>2022-01-20T13:39:58Z</time>
      </trkpt>
      <trkpt lat="47.26049" lon="-1.57466">
        <ele>92</ele>
        <time>2022-01-20T13:39:59Z</time>
      </trkpt>
      <trkpt lat="47.2605" lon="-1.57466">
        <ele>93</ele>
        <time>2022-01-20T13:40:00Z</time>
      </trkpt>
      <trkpt lat="47.26051" lon="-1.57466">
        <ele>93</ele>
        <time>2022-01-20T13:40:01Z</time>
      </trkpt>
      <trkpt lat="47.26053" lon="-1.57466">
        <ele>94</ele>
        <time>2022-01-20T13:40:02Z</time>
      </trkpt>
      <trkpt lat="47.26053" lon="-1.57466">
        <ele>94</ele>
        <time>2022-01-20T13:40:03Z</time>
      </trkpt>
      <trkpt lat="47.26055" lon="-1.57466">
        <ele>94</ele>
        <time>2022-01-20T13:40:04Z</time>
      </trkpt>
      <trkpt lat="47.26056" lon="-1.57466">
        <ele>94</ele>
        <time>2022-01-20T13:40:05Z</time>
      </trkpt>
      <trkpt lat="47.26058" lon="-1.57465">
        <ele>94</ele>
        <time>2022-01-20T13:40:06Z</time>
      </trkpt>
      <trkpt lat="47.2606" lon="-1.57465">
        <ele>94</ele>
        <time>2022-01-20T13:40:07Z</time>
      </trkpt>
      <trkpt lat="47.26062" lon="-1.57464">
        <ele>94</ele>
        <time>2022-01-20T13:40:08Z</time>
      </trkpt>
      <trkpt lat="47.26063" lon="-1.57463">
        <ele>94</ele>
        <time>2022-01-20T13:40:09Z</time>
      </trkpt>
      <trkpt lat="47.26065" lon="-1.57463">
        <ele>94</ele>
        <time>2022-01-20T13:40:10Z</time>
      </trkpt>
      <trkpt lat="47.26066" lon="-1.57463">
        <ele>94</ele>
        <time>2022-01-20T13:40:11Z</time>
      </trkpt>
      <trkpt lat="47.26068" lon="-1.57463">
        <ele>94</ele>
        <time>2022-01-20T13:40:12Z</time>
      </trkpt>
      <trkpt lat="47.2607" lon="-1.57463">
        <ele>93</ele>
        <time>2022-01-20T13:40:13Z</time>
      </trkpt>
      <trkpt lat="47.26072" lon="-1.57463">
        <ele>92</ele>
        <time>2022-01-20T13:40:14Z</time>
      </trkpt>
      <trkpt lat="47.26073" lon="-1.57463">
        <ele>92</ele>
        <time>2022-01-20T13:40:15Z</time>
      </trkpt>
      <trkpt lat="47.26075" lon="-1.57462">
        <ele>91</ele>
        <time>2022-01-20T13:40:16Z</time>
      </trkpt>
      <trkpt lat="47.26077" lon="-1.57461">
        <ele>91</ele>
        <time>2022-01-20T13:40:17Z</time>
      </trkpt>
      <trkpt lat="47.26078" lon="-1.5746">
        <ele>92</ele>
        <time>2022-01-20T13:40:18Z</time>
      </trkpt>
      <trkpt lat="47.2608" lon="-1.5746">
        <ele>92</ele>
        <time>2022-01-20T13:40:19Z</time>
      </trkpt>
      <trkpt lat="47.26082" lon="-1.57459">
        <ele>92</ele>
        <time>2022-01-20T13:40:20Z</time>
      </trkpt>
      <trkpt lat="47.26083" lon="-1.57459">
        <ele>92</ele>
        <time>2022-01-20T13:40:21Z</time>
      </trkpt>
      <trkpt lat="47.26085" lon="-1.57459">
        <ele>91</ele>
        <time>2022-01-20T13:40:22Z</time>
      </trkpt>
      <trkpt lat="47.26086" lon="-1.57459">
        <ele>91</ele>
        <time>2022-01-20T13:40:23Z</time>
      </trkpt>
      <trkpt lat="47.26088" lon="-1.57458">
        <ele>91</ele>
        <time>2022-01-20T13:40:24Z</time>
      </trkpt>
      <trkpt lat="47.26089" lon="-1.57459">
        <ele>91</ele>
        <time>2022-01-20T13:40:25Z</time>
      </trkpt>
      <trkpt lat="47.2609" lon="-1.57459">
        <ele>91</ele>
        <time>2022-01-20T13:40:26Z</time>
      </trkpt>
      <trkpt lat="47.26092" lon="-1.5746">
        <ele>91</ele>
        <time>2022-01-20T13:40:27Z</time>
      </trkpt>
      <trkpt lat="47.26093" lon="-1.57459">
        <ele>91</ele>
        <time>2022-01-20T13:40:28Z</time>
      </trkpt>
      <trkpt lat="47.26094" lon="-1.57459">
        <ele>91</ele>
        <time>2022-01-20T13:40:29Z</time>
      </trkpt>
      <trkpt lat="47.26095" lon="-1.57459">
        <ele>92</ele>
        <time>2022-01-20T13:40:30Z</time>
      </trkpt>
      <trkpt lat="47.26096" lon="-1.57459">
        <ele>91</ele>
        <time>2022-01-20T13:40:31Z</time>
      </trkpt>
      <trkpt lat="47.26098" lon="-1.57459">
        <ele>91</ele>
        <time>2022-01-20T13:40:32Z</time>
      </trkpt>
      <trkpt lat="47.26099" lon="-1.57459">
        <ele>91</ele>
        <time>2022-01-20T13:40:33Z</time>
      </trkpt>
      <trkpt lat="47.26101" lon="-1.57459">
        <ele>91</ele>
        <time>2022-01-20T13:40:34Z</time>
      </trkpt>
      <trkpt lat="47.26102" lon="-1.57459">
        <ele>90</ele>
        <time>2022-01-20T13:40:35Z</time>
      </trkpt>
      <trkpt lat="47.26104" lon="-1.5746">
        <ele>90</ele>
        <time>2022-01-20T13:40:36Z</time>
      </trkpt>
      <trkpt lat="47.26106" lon="-1.57459">
        <ele>91</ele>
        <time>2022-01-20T13:40:37Z</time>
      </trkpt>
      <trkpt lat="47.26107" lon="-1.57459">
        <ele>91</ele>
        <time>2022-01-20T13:40:38Z</time>
      </trkpt>
      <trkpt lat="47.26109" lon="-1.57459">
        <ele>91</ele>
        <time>2022-01-20T13:40:39Z</time>
      </trkpt>
      <trkpt lat="47.26111" lon="-1.5746">
        <ele>91</ele>
        <time>2022-01-20T13:40:40Z</time>
      </trkpt>
      <trkpt lat="47.26112" lon="-1.5746">
        <ele>90</ele>
        <time>2022-01-20T13:40:41Z</time>
      </trkpt>
      <trkpt lat="47.26114" lon="-1.57459">
        <ele>90</ele>
        <time>2022-01-20T13:40:42Z</time>
      </trkpt>
      <trkpt lat="47.26115" lon="-1.57459">
        <ele>90</ele>
        <time>2022-01-20T13:40:43Z</time>
      </trkpt>
      <trkpt lat="47.26116" lon="-1.57459">
        <ele>90</ele>
        <time>2022-01-20T13:40:44Z</time>
      </trkpt>
      <trkpt lat="47.26118" lon="-1.57459">
        <ele>90</ele>
        <time>2022-01-20T13:40:45Z</time>
      </trkpt>
      <trkpt lat="47.26119" lon="-1.57459">
        <ele>90</ele>
        <time>2022-01-20T13:40:46Z</time>
      </trkpt>
      <trkpt lat="47.2612" lon="-1.57459">
        <ele>90</ele>
        <time>2022-01-20T13:40:47Z</time>
      </trkpt>
      <trkpt lat="47.26122" lon="-1.57459">
        <ele>90</ele>
        <time>2022-01-20T13:40:48Z</time>
      </trkpt>
      <trkpt lat="47.26123" lon="-1.5746">
        <ele>90</ele>
        <time>2022-01-20T13:40:49Z</time>
      </trkpt>
      <trkpt lat="47.26125" lon="-1.5746">
        <ele>89</ele>
        <time>2022-01-20T13:40:50Z</time>
      </trkpt>
      <trkpt lat="47.26126" lon="-1.57459">
        <ele>89</ele>
        <time>2022-01-20T13:40:51Z</time>
      </trkpt>
      <trkpt lat="47.26127" lon="-1.57459">
        <ele>88</ele>
        <time>2022-01-20T13:40:52Z</time>
      </trkpt>
      <trkpt lat="47.26128" lon="-1.57459">
        <ele>89</ele>
        <time>2022-01-20T13:40:53Z</time>
      </trkpt>
      <trkpt lat="47.2613" lon="-1.57459">
        <ele>88</ele>
        <time>2022-01-20T13:40:54Z</time>
      </trkpt>
      <trkpt lat="47.26131" lon="-1.57458">
        <ele>88</ele>
        <time>2022-01-20T13:40:55Z</time>
      </trkpt>
      <trkpt lat="47.26133" lon="-1.57458">
        <ele>87</ele>
        <time>2022-01-20T13:40:56Z</time>
      </trkpt>
      <trkpt lat="47.26134" lon="-1.57458">
        <ele>87</ele>
        <time>2022-01-20T13:40:57Z</time>
      </trkpt>
      <trkpt lat="47.26135" lon="-1.57458">
        <ele>87</ele>
        <time>2022-01-20T13:40:58Z</time>
      </trkpt>
      <trkpt lat="47.26135" lon="-1.57458">
        <ele>87</ele>
        <time>2022-01-20T13:40:59Z</time>
      </trkpt>
      <trkpt lat="47.26136" lon="-1.57458">
        <ele>87</ele>
        <time>2022-01-20T13:41:00Z</time>
      </trkpt>
      <trkpt lat="47.26136" lon="-1.57458">
        <ele>87</ele>
        <time>2022-01-20T13:41:01Z</time>
      </trkpt>
      <trkpt lat="47.26136" lon="-1.57458">
        <ele>87</ele>
        <time>2022-01-20T13:41:02Z</time>
      </trkpt>
      <trkpt lat="47.26138" lon="-1.57458">
        <ele>86</ele>
        <time>2022-01-20T13:41:03Z</time>
      </trkpt>
      <trkpt lat="47.26139" lon="-1.57458">
        <ele>85</ele>
        <time>2022-01-20T13:41:04Z</time>
      </trkpt>
      <trkpt lat="47.2614" lon="-1.57457">
        <ele>85</ele>
        <time>2022-01-20T13:41:05Z</time>
      </trkpt>
      <trkpt lat="47.26141" lon="-1.57457">
        <ele>85</ele>
        <time>2022-01-20T13:41:06Z</time>
      </trkpt>
      <trkpt lat="47.26142" lon="-1.57456">
        <ele>84</ele>
        <time>2022-01-20T13:41:07Z</time>
      </trkpt>
      <trkpt lat="47.26143" lon="-1.57455">
        <ele>85</ele>
        <time>2022-01-20T13:41:08Z</time>
      </trkpt>
      <trkpt lat="47.26144" lon="-1.57455">
        <ele>85</ele>
        <time>2022-01-20T13:41:09Z</time>
      </trkpt>
      <trkpt lat="47.26145" lon="-1.57453">
        <ele>85</ele>
        <time>2022-01-20T13:41:10Z</time>
      </trkpt>
      <trkpt lat="47.26145" lon="-1.57451">
        <ele>86</ele>
        <time>2022-01-20T13:41:11Z</time>
      </trkpt>
      <trkpt lat="47.26146" lon="-1.5745">
        <ele>86</ele>
        <time>2022-01-20T13:41:12Z</time>
      </trkpt>
      <trkpt lat="47.26147" lon="-1.57448">
        <ele>86</ele>
        <time>2022-01-20T13:41:13Z</time>
      </trkpt>
      <trkpt lat="47.26148" lon="-1.57446">
        <ele>85</ele>
        <time>2022-01-20T13:41:14Z</time>
      </trkpt>
      <trkpt lat="47.26148" lon="-1.57445">
        <ele>85</ele>
        <time>2022-01-20T13:41:15Z</time>
      </trkpt>
      <trkpt lat="47.26149" lon="-1.57443">
        <ele>85</ele>
        <time>2022-01-20T13:41:16Z</time>
      </trkpt>
      <trkpt lat="47.26151" lon="-1.57442">
        <ele>85</ele>
        <time>2022-01-20T13:41:17Z</time>
      </trkpt>
      <trkpt lat="47.26152" lon="-1.57441">
        <ele>85</ele>
        <time>2022-01-20T13:41:18Z</time>
      </trkpt>
      <trkpt lat="47.26152" lon="-1.57439">
        <ele>85</ele>
        <time>2022-01-20T13:41:19Z</time>
      </trkpt>
      <trkpt lat="47.26153" lon="-1.57439">
        <ele>84</ele>
        <time>2022-01-20T13:41:20Z</time>
      </trkpt>
      <trkpt lat="47.26154" lon="-1.57438">
        <ele>84</ele>
        <time>2022-01-20T13:41:21Z</time>
      </trkpt>
      <trkpt lat="47.26154" lon="-1.57437">
        <ele>84</ele>
        <time>2022-01-20T13:41:22Z</time>
      </trkpt>
      <trkpt lat="47.26155" lon="-1.57436">
        <ele>84</ele>
        <time>2022-01-20T13:41:23Z</time>
      </trkpt>
      <trkpt lat="47.26156" lon="-1.57435">
        <ele>84</ele>
        <time>2022-01-20T13:41:24Z</time>
      </trkpt>
      <trkpt lat="47.26157" lon="-1.57434">
        <ele>84</ele>
        <time>2022-01-20T13:41:25Z</time>
      </trkpt>
      <trkpt lat="47.26158" lon="-1.57433">
        <ele>84</ele>
        <time>2022-01-20T13:41:26Z</time>
      </trkpt>
      <trkpt lat="47.26159" lon="-1.57432">
        <ele>85</ele>
        <time>2022-01-20T13:41:27Z</time>
      </trkpt>
      <trkpt lat="47.2616" lon="-1.57432">
        <ele>84</ele>
        <time>2022-01-20T13:41:28Z</time>
      </trkpt>
      <trkpt lat="47.26161" lon="-1.57432">
        <ele>85</ele>
        <time>2022-01-20T13:41:29Z</time>
      </trkpt>
      <trkpt lat="47.26162" lon="-1.57431">
        <ele>84</ele>
        <time>2022-01-20T13:41:30Z</time>
      </trkpt>
      <trkpt lat="47.26164" lon="-1.5743">
        <ele>85</ele>
        <time>2022-01-20T13:41:31Z</time>
      </trkpt>
      <trkpt lat="47.26165" lon="-1.5743">
        <ele>85</ele>
        <time>2022-01-20T13:41:32Z</time>
      </trkpt>
      <trkpt lat="47.26166" lon="-1.57429">
        <ele>85</ele>
        <time>2022-01-20T13:41:33Z</time>
      </trkpt>
      <trkpt lat="47.26167" lon="-1.57429">
        <ele>85</ele>
        <time>2022-01-20T13:41:34Z</time>
      </trkpt>
      <trkpt lat="47.26168" lon="-1.57429">
        <ele>85</ele>
        <time>2022-01-20T13:41:35Z</time>
      </trkpt>
      <trkpt lat="47.2617" lon="-1.57429">
        <ele>86</ele>
        <time>2022-01-20T13:41:36Z</time>
      </trkpt>
      <trkpt lat="47.26171" lon="-1.57429">
        <ele>85</ele>
        <time>2022-01-20T13:41:37Z</time>
      </trkpt>
      <trkpt lat="47.26172" lon="-1.57429">
        <ele>85</ele>
        <time>2022-01-20T13:41:38Z</time>
      </trkpt>
      <trkpt lat="47.26173" lon="-1.57429">
        <ele>86</ele>
        <time>2022-01-20T13:41:39Z</time>
      </trkpt>
      <trkpt lat="47.26174" lon="-1.57429">
        <ele>86</ele>
        <time>2022-01-20T13:41:40Z</time>
      </trkpt>
      <trkpt lat="47.26175" lon="-1.5743">
        <ele>87</ele>
        <time>2022-01-20T13:41:41Z</time>
      </trkpt>
      <trkpt lat="47.26176" lon="-1.5743">
        <ele>87</ele>
        <time>2022-01-20T13:41:42Z</time>
      </trkpt>
      <trkpt lat="47.26177" lon="-1.57431">
        <ele>87</ele>
        <time>2022-01-20T13:41:43Z</time>
      </trkpt>
      <trkpt lat="47.26178" lon="-1.57432">
        <ele>87</ele>
        <time>2022-01-20T13:41:44Z</time>
      </trkpt>
      <trkpt lat="47.26179" lon="-1.57433">
        <ele>87</ele>
        <time>2022-01-20T13:41:45Z</time>
      </trkpt>
      <trkpt lat="47.26179" lon="-1.57434">
        <ele>88</ele>
        <time>2022-01-20T13:41:46Z</time>
      </trkpt>
      <trkpt lat="47.2618" lon="-1.57435">
        <ele>88</ele>
        <time>2022-01-20T13:41:47Z</time>
      </trkpt>
      <trkpt lat="47.26181" lon="-1.57436">
        <ele>88</ele>
        <time>2022-01-20T13:41:48Z</time>
      </trkpt>
      <trkpt lat="47.26182" lon="-1.57437">
        <ele>88</ele>
        <time>2022-01-20T13:41:49Z</time>
      </trkpt>
      <trkpt lat="47.26183" lon="-1.57438">
        <ele>88</ele>
        <time>2022-01-20T13:41:50Z</time>
      </trkpt>
      <trkpt lat="47.26184" lon="-1.57439">
        <ele>87</ele>
        <time>2022-01-20T13:41:51Z</time>
      </trkpt>
      <trkpt lat="47.26186" lon="-1.5744">
        <ele>86</ele>
        <time>2022-01-20T13:41:52Z</time>
      </trkpt>
      <trkpt lat="47.26187" lon="-1.57442">
        <ele>85</ele>
        <time>2022-01-20T13:41:53Z</time>
      </trkpt>
      <trkpt lat="47.26188" lon="-1.57443">
        <ele>85</ele>
        <time>2022-01-20T13:41:54Z</time>
      </trkpt>
      <trkpt lat="47.26188" lon="-1.57444">
        <ele>85</ele>
        <time>2022-01-20T13:41:55Z</time>
      </trkpt>
      <trkpt lat="47.26189" lon="-1.57446">
        <ele>85</ele>
        <time>2022-01-20T13:41:56Z</time>
      </trkpt>
      <trkpt lat="47.26189" lon="-1.57447">
        <ele>84</ele>
        <time>2022-01-20T13:41:57Z</time>
      </trkpt>
      <trkpt lat="47.26189" lon="-1.57449">
        <ele>84</ele>
        <time>2022-01-20T13:41:58Z</time>
      </trkpt>
      <trkpt lat="47.26189" lon="-1.5745">
        <ele>85</ele>
        <time>2022-01-20T13:41:59Z</time>
      </trkpt>
      <trkpt lat="47.26189" lon="-1.57451">
        <ele>84</ele>
        <time>2022-01-20T13:42:00Z</time>
      </trkpt>
      <trkpt lat="47.26189" lon="-1.57452">
        <ele>85</ele>
        <time>2022-01-20T13:42:01Z</time>
      </trkpt>
      <trkpt lat="47.2619" lon="-1.57453">
        <ele>86</ele>
        <time>2022-01-20T13:42:02Z</time>
      </trkpt>
      <trkpt lat="47.2619" lon="-1.57453">
        <ele>86</ele>
        <time>2022-01-20T13:42:03Z</time>
      </trkpt>
      <trkpt lat="47.2619" lon="-1.57453">
        <ele>86</ele>
        <time>2022-01-20T13:42:04Z</time>
      </trkpt>
      <trkpt lat="47.26189" lon="-1.57455">
        <ele>86</ele>
        <time>2022-01-20T13:42:05Z</time>
      </trkpt>
      <trkpt lat="47.26189" lon="-1.57456">
        <ele>86</ele>
        <time>2022-01-20T13:42:06Z</time>
      </trkpt>
      <trkpt lat="47.26189" lon="-1.57457">
        <ele>87</ele>
        <time>2022-01-20T13:42:07Z</time>
      </trkpt>
      <trkpt lat="47.26189" lon="-1.57457">
        <ele>87</ele>
        <time>2022-01-20T13:42:08Z</time>
      </trkpt>
      <trkpt lat="47.26189" lon="-1.57457">
        <ele>87</ele>
        <time>2022-01-20T13:42:09Z</time>
      </trkpt>
      <trkpt lat="47.26189" lon="-1.57457">
        <ele>87</ele>
        <time>2022-01-20T13:42:10Z</time>
      </trkpt>
      <trkpt lat="47.26189" lon="-1.5746">
        <ele>87</ele>
        <time>2022-01-20T13:42:11Z</time>
      </trkpt>
      <trkpt lat="47.2619" lon="-1.5746">
        <ele>87</ele>
        <time>2022-01-20T13:42:12Z</time>
      </trkpt>
      <trkpt lat="47.2619" lon="-1.57461">
        <ele>86</ele>
        <time>2022-01-20T13:42:13Z</time>
      </trkpt>
      <trkpt lat="47.2619" lon="-1.57461">
        <ele>86</ele>
        <time>2022-01-20T13:42:14Z</time>
      </trkpt>
      <trkpt lat="47.2619" lon="-1.57461">
        <ele>86</ele>
        <time>2022-01-20T13:42:15Z</time>
      </trkpt>
      <trkpt lat="47.2619" lon="-1.57461">
        <ele>86</ele>
        <time>2022-01-20T13:42:16Z</time>
      </trkpt>
      <trkpt lat="47.2619" lon="-1.57461">
        <ele>86</ele>
        <time>2022-01-20T13:42:17Z</time>
      </trkpt>
      <trkpt lat="47.2619" lon="-1.57461">
        <ele>86</ele>
        <time>2022-01-20T13:42:17Z</time>
      </trkpt>
      <trkpt lat="47.2619" lon="-1.57471">
        <ele>83</ele>
        <time>2022-01-20T13:42:41Z</time>
      </trkpt>
      <trkpt lat="47.2619" lon="-1.57472">
        <ele>83</ele>
        <time>2022-01-20T13:42:42Z</time>
      </trkpt>
      <trkpt lat="47.26191" lon="-1.57472">
        <ele>83</ele>
        <time>2022-01-20T13:42:43Z</time>
      </trkpt>
      <trkpt lat="47.26191" lon="-1.57473">
        <ele>82</ele>
        <time>2022-01-20T13:42:44Z</time>
      </trkpt>
      <trkpt lat="47.26192" lon="-1.57474">
        <ele>82</ele>
        <time>2022-01-20T13:42:45Z</time>
      </trkpt>
      <trkpt lat="47.26193" lon="-1.57475">
        <ele>82</ele>
        <time>2022-01-20T13:42:46Z</time>
      </trkpt>
      <trkpt lat="47.26193" lon="-1.57475">
        <ele>83</ele>
        <time>2022-01-20T13:42:47Z</time>
      </trkpt>
      <trkpt lat="47.26194" lon="-1.57475">
        <ele>83</ele>
        <time>2022-01-20T13:42:48Z</time>
      </trkpt>
      <trkpt lat="47.26194" lon="-1.57475">
        <ele>83</ele>
        <time>2022-01-20T13:42:49Z</time>
      </trkpt>
      <trkpt lat="47.26195" lon="-1.57475">
        <ele>84</ele>
        <time>2022-01-20T13:42:50Z</time>
      </trkpt>
      <trkpt lat="47.26196" lon="-1.57475">
        <ele>84</ele>
        <time>2022-01-20T13:42:51Z</time>
      </trkpt>
      <trkpt lat="47.26197" lon="-1.57475">
        <ele>84</ele>
        <time>2022-01-20T13:42:52Z</time>
      </trkpt>
      <trkpt lat="47.26198" lon="-1.57475">
        <ele>85</ele>
        <time>2022-01-20T13:42:53Z</time>
      </trkpt>
      <trkpt lat="47.26198" lon="-1.57475">
        <ele>84</ele>
        <time>2022-01-20T13:42:54Z</time>
      </trkpt>
      <trkpt lat="47.26199" lon="-1.57475">
        <ele>85</ele>
        <time>2022-01-20T13:42:55Z</time>
      </trkpt>
      <trkpt lat="47.26201" lon="-1.57475">
        <ele>86</ele>
        <time>2022-01-20T13:42:56Z</time>
      </trkpt>
      <trkpt lat="47.26202" lon="-1.57475">
        <ele>87</ele>
        <time>2022-01-20T13:42:57Z</time>
      </trkpt>
      <trkpt lat="47.26203" lon="-1.57474">
        <ele>87</ele>
        <time>2022-01-20T13:42:58Z</time>
      </trkpt>
      <trkpt lat="47.26204" lon="-1.57474">
        <ele>87</ele>
        <time>2022-01-20T13:42:59Z</time>
      </trkpt>
      <trkpt lat="47.26205" lon="-1.57473">
        <ele>87</ele>
        <time>2022-01-20T13:43:00Z</time>
      </trkpt>
      <trkpt lat="47.26206" lon="-1.57473">
        <ele>87</ele>
        <time>2022-01-20T13:43:01Z</time>
      </trkpt>
      <trkpt lat="47.26207" lon="-1.57473">
        <ele>87</ele>
        <time>2022-01-20T13:43:02Z</time>
      </trkpt>
      <trkpt lat="47.26209" lon="-1.57472">
        <ele>88</ele>
        <time>2022-01-20T13:43:03Z</time>
      </trkpt>
      <trkpt lat="47.2621" lon="-1.57472">
        <ele>87</ele>
        <time>2022-01-20T13:43:04Z</time>
      </trkpt>
      <trkpt lat="47.2621" lon="-1.57472">
        <ele>88</ele>
        <time>2022-01-20T13:43:05Z</time>
      </trkpt>
      <trkpt lat="47.26212" lon="-1.57472">
        <ele>88</ele>
        <time>2022-01-20T13:43:06Z</time>
      </trkpt>
      <trkpt lat="47.26213" lon="-1.57472">
        <ele>88</ele>
        <time>2022-01-20T13:43:07Z</time>
      </trkpt>
      <trkpt lat="47.26215" lon="-1.57471">
        <ele>88</ele>
        <time>2022-01-20T13:43:08Z</time>
      </trkpt>
      <trkpt lat="47.26216" lon="-1.57471">
        <ele>88</ele>
        <time>2022-01-20T13:43:09Z</time>
      </trkpt>
      <trkpt lat="47.26217" lon="-1.57471">
        <ele>88</ele>
        <time>2022-01-20T13:43:10Z</time>
      </trkpt>
      <trkpt lat="47.26218" lon="-1.5747">
        <ele>88</ele>
        <time>2022-01-20T13:43:11Z</time>
      </trkpt>
      <trkpt lat="47.26219" lon="-1.5747">
        <ele>89</ele>
        <time>2022-01-20T13:43:12Z</time>
      </trkpt>
      <trkpt lat="47.2622" lon="-1.5747">
        <ele>89</ele>
        <time>2022-01-20T13:43:13Z</time>
      </trkpt>
      <trkpt lat="47.26222" lon="-1.5747">
        <ele>90</ele>
        <time>2022-01-20T13:43:14Z</time>
      </trkpt>
      <trkpt lat="47.26223" lon="-1.5747">
        <ele>89</ele>
        <time>2022-01-20T13:43:15Z</time>
      </trkpt>
      <trkpt lat="47.26224" lon="-1.5747">
        <ele>89</ele>
        <time>2022-01-20T13:43:16Z</time>
      </trkpt>
      <trkpt lat="47.26225" lon="-1.5747">
        <ele>89</ele>
        <time>2022-01-20T13:43:17Z</time>
      </trkpt>
      <trkpt lat="47.26226" lon="-1.5747">
        <ele>90</ele>
        <time>2022-01-20T13:43:18Z</time>
      </trkpt>
      <trkpt lat="47.26227" lon="-1.5747">
        <ele>90</ele>
        <time>2022-01-20T13:43:19Z</time>
      </trkpt>
      <trkpt lat="47.26229" lon="-1.57471">
        <ele>89</ele>
        <time>2022-01-20T13:43:20Z</time>
      </trkpt>
      <trkpt lat="47.2623" lon="-1.57471">
        <ele>89</ele>
        <time>2022-01-20T13:43:21Z</time>
      </trkpt>
      <trkpt lat="47.26231" lon="-1.57471">
        <ele>89</ele>
        <time>2022-01-20T13:43:22Z</time>
      </trkpt>
      <trkpt lat="47.26232" lon="-1.57472">
        <ele>89</ele>
        <time>2022-01-20T13:43:23Z</time>
      </trkpt>
      <trkpt lat="47.26233" lon="-1.57472">
        <ele>89</ele>
        <time>2022-01-20T13:43:24Z</time>
      </trkpt>
      <trkpt lat="47.26234" lon="-1.57472">
        <ele>89</ele>
        <time>2022-01-20T13:43:25Z</time>
      </trkpt>
      <trkpt lat="47.26235" lon="-1.57472">
        <ele>89</ele>
        <time>2022-01-20T13:43:26Z</time>
      </trkpt>
      <trkpt lat="47.26236" lon="-1.57472">
        <ele>89</ele>
        <time>2022-01-20T13:43:27Z</time>
      </trkpt>
      <trkpt lat="47.26237" lon="-1.57472">
        <ele>88</ele>
        <time>2022-01-20T13:43:28Z</time>
      </trkpt>
      <trkpt lat="47.26238" lon="-1.57473">
        <ele>88</ele>
        <time>2022-01-20T13:43:29Z</time>
      </trkpt>
      <trkpt lat="47.26239" lon="-1.57473">
        <ele>87</ele>
        <time>2022-01-20T13:43:30Z</time>
      </trkpt>
      <trkpt lat="47.2624" lon="-1.57473">
        <ele>86</ele>
        <time>2022-01-20T13:43:31Z</time>
      </trkpt>
      <trkpt lat="47.26241" lon="-1.57473">
        <ele>87</ele>
        <time>2022-01-20T13:43:32Z</time>
      </trkpt>
      <trkpt lat="47.26242" lon="-1.57474">
        <ele>87</ele>
        <time>2022-01-20T13:43:33Z</time>
      </trkpt>
      <trkpt lat="47.26244" lon="-1.57474">
        <ele>86</ele>
        <time>2022-01-20T13:43:34Z</time>
      </trkpt>
      <trkpt lat="47.26245" lon="-1.57473">
        <ele>86</ele>
        <time>2022-01-20T13:43:35Z</time>
      </trkpt>
      <trkpt lat="47.26247" lon="-1.57473">
        <ele>85</ele>
        <time>2022-01-20T13:43:36Z</time>
      </trkpt>
      <trkpt lat="47.26248" lon="-1.57474">
        <ele>84</ele>
        <time>2022-01-20T13:43:37Z</time>
      </trkpt>
      <trkpt lat="47.26249" lon="-1.57474">
        <ele>83</ele>
        <time>2022-01-20T13:43:38Z</time>
      </trkpt>
      <trkpt lat="47.26251" lon="-1.57475">
        <ele>82</ele>
        <time>2022-01-20T13:43:39Z</time>
      </trkpt>
      <trkpt lat="47.26252" lon="-1.57475">
        <ele>82</ele>
        <time>2022-01-20T13:43:40Z</time>
      </trkpt>
      <trkpt lat="47.26253" lon="-1.57475">
        <ele>82</ele>
        <time>2022-01-20T13:43:41Z</time>
      </trkpt>
      <trkpt lat="47.26255" lon="-1.57476">
        <ele>82</ele>
        <time>2022-01-20T13:43:42Z</time>
      </trkpt>
      <trkpt lat="47.26255" lon="-1.57477">
        <ele>83</ele>
        <time>2022-01-20T13:43:43Z</time>
      </trkpt>
      <trkpt lat="47.26257" lon="-1.57479">
        <ele>82</ele>
        <time>2022-01-20T13:43:44Z</time>
      </trkpt>
      <trkpt lat="47.26257" lon="-1.5748">
        <ele>82</ele>
        <time>2022-01-20T13:43:45Z</time>
      </trkpt>
      <trkpt lat="47.26258" lon="-1.57481">
        <ele>83</ele>
        <time>2022-01-20T13:43:46Z</time>
      </trkpt>
      <trkpt lat="47.26259" lon="-1.57481">
        <ele>83</ele>
        <time>2022-01-20T13:43:47Z</time>
      </trkpt>
      <trkpt lat="47.2626" lon="-1.57482">
        <ele>83</ele>
        <time>2022-01-20T13:43:48Z</time>
      </trkpt>
      <trkpt lat="47.26261" lon="-1.57483">
        <ele>83</ele>
        <time>2022-01-20T13:43:49Z</time>
      </trkpt>
      <trkpt lat="47.26262" lon="-1.57483">
        <ele>83</ele>
        <time>2022-01-20T13:43:50Z</time>
      </trkpt>
      <trkpt lat="47.26263" lon="-1.57483">
        <ele>83</ele>
        <time>2022-01-20T13:43:51Z</time>
      </trkpt>
      <trkpt lat="47.26263" lon="-1.57484">
        <ele>83</ele>
        <time>2022-01-20T13:43:52Z</time>
      </trkpt>
      <trkpt lat="47.26264" lon="-1.57485">
        <ele>83</ele>
        <time>2022-01-20T13:43:53Z</time>
      </trkpt>
      <trkpt lat="47.26264" lon="-1.57485">
        <ele>83</ele>
        <time>2022-01-20T13:43:54Z</time>
      </trkpt>
      <trkpt lat="47.26264" lon="-1.57485">
        <ele>83</ele>
        <time>2022-01-20T13:43:55Z</time>
      </trkpt>
      <trkpt lat="47.26267" lon="-1.57487">
        <ele>83</ele>
        <time>2022-01-20T13:43:56Z</time>
      </trkpt>
      <trkpt lat="47.26267" lon="-1.57487">
        <ele>83</ele>
        <time>2022-01-20T13:43:57Z</time>
      </trkpt>
      <trkpt lat="47.26268" lon="-1.57488">
        <ele>83</ele>
        <time>2022-01-20T13:43:58Z</time>
      </trkpt>
      <trkpt lat="47.26268" lon="-1.57489">
        <ele>83</ele>
        <time>2022-01-20T13:43:59Z</time>
      </trkpt>
      <trkpt lat="47.26268" lon="-1.57489">
        <ele>83</ele>
        <time>2022-01-20T13:44:00Z</time>
      </trkpt>
      <trkpt lat="47.26268" lon="-1.57489">
        <ele>83</ele>
        <time>2022-01-20T13:44:01Z</time>
      </trkpt>
      <trkpt lat="47.2627" lon="-1.5749">
        <ele>83</ele>
        <time>2022-01-20T13:44:02Z</time>
      </trkpt>
      <trkpt lat="47.26271" lon="-1.57491">
        <ele>83</ele>
        <time>2022-01-20T13:44:03Z</time>
      </trkpt>
      <trkpt lat="47.26272" lon="-1.57491">
        <ele>83</ele>
        <time>2022-01-20T13:44:04Z</time>
      </trkpt>
      <trkpt lat="47.26272" lon="-1.57492">
        <ele>83</ele>
        <time>2022-01-20T13:44:05Z</time>
      </trkpt>
      <trkpt lat="47.26272" lon="-1.57492">
        <ele>83</ele>
        <time>2022-01-20T13:44:06Z</time>
      </trkpt>
      <trkpt lat="47.26272" lon="-1.57492">
        <ele>83</ele>
        <time>2022-01-20T13:44:07Z</time>
      </trkpt>
      <trkpt lat="47.26274" lon="-1.57494">
        <ele>83</ele>
        <time>2022-01-20T13:44:08Z</time>
      </trkpt>
      <trkpt lat="47.26275" lon="-1.57495">
        <ele>83</ele>
        <time>2022-01-20T13:44:09Z</time>
      </trkpt>
      <trkpt lat="47.26275" lon="-1.57494">
        <ele>84</ele>
        <time>2022-01-20T13:44:10Z</time>
      </trkpt>
      <trkpt lat="47.26275" lon="-1.57495">
        <ele>84</ele>
        <time>2022-01-20T13:44:11Z</time>
      </trkpt>
      <trkpt lat="47.26275" lon="-1.57495">
        <ele>84</ele>
        <time>2022-01-20T13:44:12Z</time>
      </trkpt>
      <trkpt lat="47.26275" lon="-1.57495">
        <ele>84</ele>
        <time>2022-01-20T13:44:13Z</time>
      </trkpt>
      <trkpt lat="47.26278" lon="-1.57494">
        <ele>83</ele>
        <time>2022-01-20T13:44:14Z</time>
      </trkpt>
      <trkpt lat="47.26279" lon="-1.57494">
        <ele>83</ele>
        <time>2022-01-20T13:44:15Z</time>
      </trkpt>
      <trkpt lat="47.2628" lon="-1.57495">
        <ele>83</ele>
        <time>2022-01-20T13:44:16Z</time>
      </trkpt>
      <trkpt lat="47.26281" lon="-1.57495">
        <ele>83</ele>
        <time>2022-01-20T13:44:17Z</time>
      </trkpt>
      <trkpt lat="47.26282" lon="-1.57495">
        <ele>83</ele>
        <time>2022-01-20T13:44:18Z</time>
      </trkpt>
      <trkpt lat="47.26283" lon="-1.57496">
        <ele>84</ele>
        <time>2022-01-20T13:44:19Z</time>
      </trkpt>
      <trkpt lat="47.26284" lon="-1.57497">
        <ele>84</ele>
        <time>2022-01-20T13:44:20Z</time>
      </trkpt>
      <trkpt lat="47.26285" lon="-1.57497">
        <ele>83</ele>
        <time>2022-01-20T13:44:21Z</time>
      </trkpt>
      <trkpt lat="47.26286" lon="-1.57497">
        <ele>83</ele>
        <time>2022-01-20T13:44:22Z</time>
      </trkpt>
      <trkpt lat="47.26288" lon="-1.57498">
        <ele>83</ele>
        <time>2022-01-20T13:44:23Z</time>
      </trkpt>
      <trkpt lat="47.26289" lon="-1.57499">
        <ele>83</ele>
        <time>2022-01-20T13:44:24Z</time>
      </trkpt>
      <trkpt lat="47.2629" lon="-1.57499">
        <ele>83</ele>
        <time>2022-01-20T13:44:25Z</time>
      </trkpt>
      <trkpt lat="47.26291" lon="-1.575">
        <ele>83</ele>
        <time>2022-01-20T13:44:26Z</time>
      </trkpt>
      <trkpt lat="47.26292" lon="-1.575">
        <ele>83</ele>
        <time>2022-01-20T13:44:27Z</time>
      </trkpt>
      <trkpt lat="47.26293" lon="-1.57502">
        <ele>84</ele>
        <time>2022-01-20T13:44:28Z</time>
      </trkpt>
      <trkpt lat="47.26294" lon="-1.57503">
        <ele>84</ele>
        <time>2022-01-20T13:44:29Z</time>
      </trkpt>
      <trkpt lat="47.26295" lon="-1.57503">
        <ele>83</ele>
        <time>2022-01-20T13:44:30Z</time>
      </trkpt>
      <trkpt lat="47.26296" lon="-1.57504">
        <ele>83</ele>
        <time>2022-01-20T13:44:31Z</time>
      </trkpt>
      <trkpt lat="47.26296" lon="-1.57504">
        <ele>83</ele>
        <time>2022-01-20T13:44:32Z</time>
      </trkpt>
      <trkpt lat="47.26296" lon="-1.57504">
        <ele>83</ele>
        <time>2022-01-20T13:44:33Z</time>
      </trkpt>
      <trkpt lat="47.26298" lon="-1.57507">
        <ele>84</ele>
        <time>2022-01-20T13:44:34Z</time>
      </trkpt>
      <trkpt lat="47.26299" lon="-1.57508">
        <ele>84</ele>
        <time>2022-01-20T13:44:35Z</time>
      </trkpt>
      <trkpt lat="47.26301" lon="-1.5751">
        <ele>85</ele>
        <time>2022-01-20T13:44:36Z</time>
      </trkpt>
      <trkpt lat="47.26302" lon="-1.57511">
        <ele>85</ele>
        <time>2022-01-20T13:44:37Z</time>
      </trkpt>
      <trkpt lat="47.26304" lon="-1.57512">
        <ele>85</ele>
        <time>2022-01-20T13:44:38Z</time>
      </trkpt>
      <trkpt lat="47.26305" lon="-1.57512">
        <ele>85</ele>
        <time>2022-01-20T13:44:39Z</time>
      </trkpt>
      <trkpt lat="47.26306" lon="-1.57513">
        <ele>84</ele>
        <time>2022-01-20T13:44:40Z</time>
      </trkpt>
      <trkpt lat="47.26308" lon="-1.57515">
        <ele>84</ele>
        <time>2022-01-20T13:44:41Z</time>
      </trkpt>
      <trkpt lat="47.26309" lon="-1.57515">
        <ele>84</ele>
        <time>2022-01-20T13:44:42Z</time>
      </trkpt>
      <trkpt lat="47.26311" lon="-1.57517">
        <ele>85</ele>
        <time>2022-01-20T13:44:43Z</time>
      </trkpt>
      <trkpt lat="47.26312" lon="-1.57518">
        <ele>86</ele>
        <time>2022-01-20T13:44:44Z</time>
      </trkpt>
      <trkpt lat="47.26314" lon="-1.57518">
        <ele>86</ele>
        <time>2022-01-20T13:44:45Z</time>
      </trkpt>
      <trkpt lat="47.26315" lon="-1.57519">
        <ele>86</ele>
        <time>2022-01-20T13:44:46Z</time>
      </trkpt>
      <trkpt lat="47.26317" lon="-1.5752">
        <ele>86</ele>
        <time>2022-01-20T13:44:47Z</time>
      </trkpt>
      <trkpt lat="47.26318" lon="-1.5752">
        <ele>86</ele>
        <time>2022-01-20T13:44:48Z</time>
      </trkpt>
      <trkpt lat="47.26318" lon="-1.57521">
        <ele>87</ele>
        <time>2022-01-20T13:44:49Z</time>
      </trkpt>
      <trkpt lat="47.2632" lon="-1.57521">
        <ele>88</ele>
        <time>2022-01-20T13:44:50Z</time>
      </trkpt>
      <trkpt lat="47.26321" lon="-1.57522">
        <ele>89</ele>
        <time>2022-01-20T13:44:51Z</time>
      </trkpt>
      <trkpt lat="47.26322" lon="-1.57523">
        <ele>89</ele>
        <time>2022-01-20T13:44:52Z</time>
      </trkpt>
      <trkpt lat="47.26323" lon="-1.57525">
        <ele>89</ele>
        <time>2022-01-20T13:44:53Z</time>
      </trkpt>
      <trkpt lat="47.26325" lon="-1.57526">
        <ele>89</ele>
        <time>2022-01-20T13:44:54Z</time>
      </trkpt>
      <trkpt lat="47.26326" lon="-1.57526">
        <ele>89</ele>
        <time>2022-01-20T13:44:55Z</time>
      </trkpt>
      <trkpt lat="47.26327" lon="-1.57527">
        <ele>89</ele>
        <time>2022-01-20T13:44:56Z</time>
      </trkpt>
      <trkpt lat="47.26329" lon="-1.57529">
        <ele>89</ele>
        <time>2022-01-20T13:44:57Z</time>
      </trkpt>
      <trkpt lat="47.2633" lon="-1.5753">
        <ele>88</ele>
        <time>2022-01-20T13:44:58Z</time>
      </trkpt>
      <trkpt lat="47.26331" lon="-1.57531">
        <ele>88</ele>
        <time>2022-01-20T13:44:59Z</time>
      </trkpt>
      <trkpt lat="47.26333" lon="-1.57532">
        <ele>88</ele>
        <time>2022-01-20T13:45:00Z</time>
      </trkpt>
      <trkpt lat="47.26334" lon="-1.57533">
        <ele>88</ele>
        <time>2022-01-20T13:45:01Z</time>
      </trkpt>
      <trkpt lat="47.26336" lon="-1.57534">
        <ele>87</ele>
        <time>2022-01-20T13:45:02Z</time>
      </trkpt>
      <trkpt lat="47.26337" lon="-1.57534">
        <ele>86</ele>
        <time>2022-01-20T13:45:03Z</time>
      </trkpt>
      <trkpt lat="47.26338" lon="-1.57535">
        <ele>86</ele>
        <time>2022-01-20T13:45:04Z</time>
      </trkpt>
      <trkpt lat="47.2634" lon="-1.57535">
        <ele>85</ele>
        <time>2022-01-20T13:45:05Z</time>
      </trkpt>
      <trkpt lat="47.26341" lon="-1.57536">
        <ele>85</ele>
        <time>2022-01-20T13:45:06Z</time>
      </trkpt>
      <trkpt lat="47.26342" lon="-1.57537">
        <ele>85</ele>
        <time>2022-01-20T13:45:07Z</time>
      </trkpt>
      <trkpt lat="47.26343" lon="-1.57538">
        <ele>85</ele>
        <time>2022-01-20T13:45:08Z</time>
      </trkpt>
      <trkpt lat="47.26344" lon="-1.57539">
        <ele>85</ele>
        <time>2022-01-20T13:45:09Z</time>
      </trkpt>
      <trkpt lat="47.26344" lon="-1.5754">
        <ele>84</ele>
        <time>2022-01-20T13:45:10Z</time>
      </trkpt>
      <trkpt lat="47.26345" lon="-1.57541">
        <ele>84</ele>
        <time>2022-01-20T13:45:11Z</time>
      </trkpt>
      <trkpt lat="47.26346" lon="-1.57543">
        <ele>84</ele>
        <time>2022-01-20T13:45:12Z</time>
      </trkpt>
      <trkpt lat="47.26347" lon="-1.57544">
        <ele>84</ele>
        <time>2022-01-20T13:45:13Z</time>
      </trkpt>
      <trkpt lat="47.26348" lon="-1.57546">
        <ele>85</ele>
        <time>2022-01-20T13:45:14Z</time>
      </trkpt>
      <trkpt lat="47.26349" lon="-1.57547">
        <ele>86</ele>
        <time>2022-01-20T13:45:15Z</time>
      </trkpt>
      <trkpt lat="47.2635" lon="-1.57548">
        <ele>86</ele>
        <time>2022-01-20T13:45:16Z</time>
      </trkpt>
      <trkpt lat="47.26351" lon="-1.5755">
        <ele>86</ele>
        <time>2022-01-20T13:45:17Z</time>
      </trkpt>
      <trkpt lat="47.26352" lon="-1.57551">
        <ele>86</ele>
        <time>2022-01-20T13:45:18Z</time>
      </trkpt>
      <trkpt lat="47.26353" lon="-1.57552">
        <ele>87</ele>
        <time>2022-01-20T13:45:19Z</time>
      </trkpt>
      <trkpt lat="47.26354" lon="-1.57553">
        <ele>86</ele>
        <time>2022-01-20T13:45:20Z</time>
      </trkpt>
      <trkpt lat="47.26355" lon="-1.57555">
        <ele>86</ele>
        <time>2022-01-20T13:45:21Z</time>
      </trkpt>
      <trkpt lat="47.26357" lon="-1.57556">
        <ele>85</ele>
        <time>2022-01-20T13:45:22Z</time>
      </trkpt>
      <trkpt lat="47.26358" lon="-1.57557">
        <ele>85</ele>
        <time>2022-01-20T13:45:23Z</time>
      </trkpt>
      <trkpt lat="47.26359" lon="-1.57559">
        <ele>85</ele>
        <time>2022-01-20T13:45:24Z</time>
      </trkpt>
      <trkpt lat="47.2636" lon="-1.5756">
        <ele>85</ele>
        <time>2022-01-20T13:45:25Z</time>
      </trkpt>
      <trkpt lat="47.26361" lon="-1.57562">
        <ele>84</ele>
        <time>2022-01-20T13:45:26Z</time>
      </trkpt>
      <trkpt lat="47.26362" lon="-1.57565">
        <ele>84</ele>
        <time>2022-01-20T13:45:27Z</time>
      </trkpt>
      <trkpt lat="47.26362" lon="-1.57567">
        <ele>84</ele>
        <time>2022-01-20T13:45:28Z</time>
      </trkpt>
      <trkpt lat="47.26363" lon="-1.57568">
        <ele>84</ele>
        <time>2022-01-20T13:45:29Z</time>
      </trkpt>
      <trkpt lat="47.26363" lon="-1.5757">
        <ele>84</ele>
        <time>2022-01-20T13:45:30Z</time>
      </trkpt>
      <trkpt lat="47.26364" lon="-1.57573">
        <ele>84</ele>
        <time>2022-01-20T13:45:31Z</time>
      </trkpt>
      <trkpt lat="47.26364" lon="-1.57574">
        <ele>84</ele>
        <time>2022-01-20T13:45:32Z</time>
      </trkpt>
      <trkpt lat="47.26363" lon="-1.57575">
        <ele>84</ele>
        <time>2022-01-20T13:45:33Z</time>
      </trkpt>
      <trkpt lat="47.26363" lon="-1.57577">
        <ele>84</ele>
        <time>2022-01-20T13:45:34Z</time>
      </trkpt>
      <trkpt lat="47.26363" lon="-1.57578">
        <ele>84</ele>
        <time>2022-01-20T13:45:35Z</time>
      </trkpt>
      <trkpt lat="47.26363" lon="-1.57579">
        <ele>84</ele>
        <time>2022-01-20T13:45:36Z</time>
      </trkpt>
      <trkpt lat="47.26362" lon="-1.5758">
        <ele>83</ele>
        <time>2022-01-20T13:45:37Z</time>
      </trkpt>
      <trkpt lat="47.26362" lon="-1.57581">
        <ele>84</ele>
        <time>2022-01-20T13:45:38Z</time>
      </trkpt>
      <trkpt lat="47.26361" lon="-1.57582">
        <ele>84</ele>
        <time>2022-01-20T13:45:39Z</time>
      </trkpt>
      <trkpt lat="47.26361" lon="-1.57583">
        <ele>85</ele>
        <time>2022-01-20T13:45:40Z</time>
      </trkpt>
      <trkpt lat="47.2636" lon="-1.57584">
        <ele>86</ele>
        <time>2022-01-20T13:45:41Z</time>
      </trkpt>
      <trkpt lat="47.2636" lon="-1.57586">
        <ele>86</ele>
        <time>2022-01-20T13:45:42Z</time>
      </trkpt>
      <trkpt lat="47.26359" lon="-1.57588">
        <ele>86</ele>
        <time>2022-01-20T13:45:43Z</time>
      </trkpt>
      <trkpt lat="47.26359" lon="-1.57589">
        <ele>86</ele>
        <time>2022-01-20T13:45:44Z</time>
      </trkpt>
      <trkpt lat="47.26358" lon="-1.57591">
        <ele>85</ele>
        <time>2022-01-20T13:45:45Z</time>
      </trkpt>
      <trkpt lat="47.26358" lon="-1.57592">
        <ele>86</ele>
        <time>2022-01-20T13:45:46Z</time>
      </trkpt>
      <trkpt lat="47.26357" lon="-1.57594">
        <ele>86</ele>
        <time>2022-01-20T13:45:47Z</time>
      </trkpt>
      <trkpt lat="47.26357" lon="-1.57596">
        <ele>87</ele>
        <time>2022-01-20T13:45:48Z</time>
      </trkpt>
      <trkpt lat="47.26356" lon="-1.57598">
        <ele>87</ele>
        <time>2022-01-20T13:45:49Z</time>
      </trkpt>
      <trkpt lat="47.26355" lon="-1.576">
        <ele>87</ele>
        <time>2022-01-20T13:45:50Z</time>
      </trkpt>
      <trkpt lat="47.26354" lon="-1.57601">
        <ele>87</ele>
        <time>2022-01-20T13:45:51Z</time>
      </trkpt>
      <trkpt lat="47.26354" lon="-1.57602">
        <ele>87</ele>
        <time>2022-01-20T13:45:52Z</time>
      </trkpt>
      <trkpt lat="47.26353" lon="-1.57603">
        <ele>87</ele>
        <time>2022-01-20T13:45:53Z</time>
      </trkpt>
      <trkpt lat="47.26352" lon="-1.57604">
        <ele>87</ele>
        <time>2022-01-20T13:45:54Z</time>
      </trkpt>
      <trkpt lat="47.26352" lon="-1.57605">
        <ele>87</ele>
        <time>2022-01-20T13:45:55Z</time>
      </trkpt>
      <trkpt lat="47.26351" lon="-1.57607">
        <ele>87</ele>
        <time>2022-01-20T13:45:56Z</time>
      </trkpt>
      <trkpt lat="47.26351" lon="-1.57609">
        <ele>88</ele>
        <time>2022-01-20T13:45:57Z</time>
      </trkpt>
      <trkpt lat="47.26351" lon="-1.57612">
        <ele>90</ele>
        <time>2022-01-20T13:45:58Z</time>
      </trkpt>
      <trkpt lat="47.2635" lon="-1.57614">
        <ele>91</ele>
        <time>2022-01-20T13:45:59Z</time>
      </trkpt>
      <trkpt lat="47.2635" lon="-1.57616">
        <ele>90</ele>
        <time>2022-01-20T13:46:00Z</time>
      </trkpt>
      <trkpt lat="47.2635" lon="-1.57617">
        <ele>90</ele>
        <time>2022-01-20T13:46:01Z</time>
      </trkpt>
      <trkpt lat="47.26349" lon="-1.57617">
        <ele>90</ele>
        <time>2022-01-20T13:46:02Z</time>
      </trkpt>
      <trkpt lat="47.26349" lon="-1.57619">
        <ele>90</ele>
        <time>2022-01-20T13:46:03Z</time>
      </trkpt>
      <trkpt lat="47.26349" lon="-1.5762">
        <ele>90</ele>
        <time>2022-01-20T13:46:04Z</time>
      </trkpt>
      <trkpt lat="47.26349" lon="-1.57622">
        <ele>91</ele>
        <time>2022-01-20T13:46:05Z</time>
      </trkpt>
      <trkpt lat="47.26349" lon="-1.57623">
        <ele>92</ele>
        <time>2022-01-20T13:46:06Z</time>
      </trkpt>
      <trkpt lat="47.26349" lon="-1.57624">
        <ele>93</ele>
        <time>2022-01-20T13:46:07Z</time>
      </trkpt>
      <trkpt lat="47.26348" lon="-1.57626">
        <ele>93</ele>
        <time>2022-01-20T13:46:08Z</time>
      </trkpt>
      <trkpt lat="47.26348" lon="-1.57628">
        <ele>93</ele>
        <time>2022-01-20T13:46:09Z</time>
      </trkpt>
      <trkpt lat="47.26348" lon="-1.5763">
        <ele>92</ele>
        <time>2022-01-20T13:46:10Z</time>
      </trkpt>
      <trkpt lat="47.26348" lon="-1.57632">
        <ele>93</ele>
        <time>2022-01-20T13:46:11Z</time>
      </trkpt>
      <trkpt lat="47.26348" lon="-1.57632">
        <ele>93</ele>
        <time>2022-01-20T13:46:12Z</time>
      </trkpt>
      <trkpt lat="47.26348" lon="-1.57632">
        <ele>93</ele>
        <time>2022-01-20T13:46:13Z</time>
      </trkpt>
      <trkpt lat="47.26347" lon="-1.57636">
        <ele>93</ele>
        <time>2022-01-20T13:46:14Z</time>
      </trkpt>
      <trkpt lat="47.26347" lon="-1.57638">
        <ele>94</ele>
        <time>2022-01-20T13:46:15Z</time>
      </trkpt>
      <trkpt lat="47.26347" lon="-1.5764">
        <ele>94</ele>
        <time>2022-01-20T13:46:16Z</time>
      </trkpt>
      <trkpt lat="47.26347" lon="-1.57642">
        <ele>94</ele>
        <time>2022-01-20T13:46:17Z</time>
      </trkpt>
      <trkpt lat="47.26347" lon="-1.57645">
        <ele>95</ele>
        <time>2022-01-20T13:46:18Z</time>
      </trkpt>
      <trkpt lat="47.26347" lon="-1.57647">
        <ele>94</ele>
        <time>2022-01-20T13:46:19Z</time>
      </trkpt>
      <trkpt lat="47.26346" lon="-1.5765">
        <ele>94</ele>
        <time>2022-01-20T13:46:20Z</time>
      </trkpt>
      <trkpt lat="47.26347" lon="-1.57651">
        <ele>93</ele>
        <time>2022-01-20T13:46:21Z</time>
      </trkpt>
      <trkpt lat="47.26347" lon="-1.57653">
        <ele>93</ele>
        <time>2022-01-20T13:46:22Z</time>
      </trkpt>
      <trkpt lat="47.26346" lon="-1.57656">
        <ele>93</ele>
        <time>2022-01-20T13:46:23Z</time>
      </trkpt>
      <trkpt lat="47.26346" lon="-1.57658">
        <ele>92</ele>
        <time>2022-01-20T13:46:24Z</time>
      </trkpt>
      <trkpt lat="47.26346" lon="-1.57661">
        <ele>92</ele>
        <time>2022-01-20T13:46:25Z</time>
      </trkpt>
      <trkpt lat="47.26346" lon="-1.57663">
        <ele>93</ele>
        <time>2022-01-20T13:46:26Z</time>
      </trkpt>
      <trkpt lat="47.26346" lon="-1.57665">
        <ele>93</ele>
        <time>2022-01-20T13:46:27Z</time>
      </trkpt>
      <trkpt lat="47.26346" lon="-1.57666">
        <ele>93</ele>
        <time>2022-01-20T13:46:28Z</time>
      </trkpt>
      <trkpt lat="47.26346" lon="-1.57668">
        <ele>93</ele>
        <time>2022-01-20T13:46:29Z</time>
      </trkpt>
      <trkpt lat="47.26346" lon="-1.57668">
        <ele>93</ele>
        <time>2022-01-20T13:46:30Z</time>
      </trkpt>
      <trkpt lat="47.26346" lon="-1.57671">
        <ele>94</ele>
        <time>2022-01-20T13:46:31Z</time>
      </trkpt>
      <trkpt lat="47.26347" lon="-1.57673">
        <ele>93</ele>
        <time>2022-01-20T13:46:32Z</time>
      </trkpt>
      <trkpt lat="47.26347" lon="-1.57675">
        <ele>93</ele>
        <time>2022-01-20T13:46:33Z</time>
      </trkpt>
      <trkpt lat="47.26347" lon="-1.57678">
        <ele>92</ele>
        <time>2022-01-20T13:46:34Z</time>
      </trkpt>
      <trkpt lat="47.26347" lon="-1.5768">
        <ele>92</ele>
        <time>2022-01-20T13:46:35Z</time>
      </trkpt>
      <trkpt lat="47.26347" lon="-1.57682">
        <ele>90</ele>
        <time>2022-01-20T13:46:36Z</time>
      </trkpt>
      <trkpt lat="47.26348" lon="-1.57684">
        <ele>90</ele>
        <time>2022-01-20T13:46:37Z</time>
      </trkpt>
      <trkpt lat="47.26349" lon="-1.57687">
        <ele>90</ele>
        <time>2022-01-20T13:46:38Z</time>
      </trkpt>
      <trkpt lat="47.26349" lon="-1.5769">
        <ele>90</ele>
        <time>2022-01-20T13:46:39Z</time>
      </trkpt>
      <trkpt lat="47.2635" lon="-1.57692">
        <ele>90</ele>
        <time>2022-01-20T13:46:40Z</time>
      </trkpt>
      <trkpt lat="47.2635" lon="-1.57695">
        <ele>90</ele>
        <time>2022-01-20T13:46:41Z</time>
      </trkpt>
      <trkpt lat="47.26351" lon="-1.57697">
        <ele>89</ele>
        <time>2022-01-20T13:46:42Z</time>
      </trkpt>
      <trkpt lat="47.26351" lon="-1.57699">
        <ele>88</ele>
        <time>2022-01-20T13:46:43Z</time>
      </trkpt>
      <trkpt lat="47.26352" lon="-1.57702">
        <ele>88</ele>
        <time>2022-01-20T13:46:44Z</time>
      </trkpt>
      <trkpt lat="47.26352" lon="-1.57704">
        <ele>87</ele>
        <time>2022-01-20T13:46:45Z</time>
      </trkpt>
      <trkpt lat="47.26352" lon="-1.57705">
        <ele>87</ele>
        <time>2022-01-20T13:46:46Z</time>
      </trkpt>
      <trkpt lat="47.26352" lon="-1.57707">
        <ele>86</ele>
        <time>2022-01-20T13:46:47Z</time>
      </trkpt>
      <trkpt lat="47.26352" lon="-1.57709">
        <ele>86</ele>
        <time>2022-01-20T13:46:48Z</time>
      </trkpt>
      <trkpt lat="47.26352" lon="-1.57711">
        <ele>86</ele>
        <time>2022-01-20T13:46:49Z</time>
      </trkpt>
      <trkpt lat="47.26352" lon="-1.57713">
        <ele>85</ele>
        <time>2022-01-20T13:46:50Z</time>
      </trkpt>
      <trkpt lat="47.26352" lon="-1.57715">
        <ele>85</ele>
        <time>2022-01-20T13:46:51Z</time>
      </trkpt>
      <trkpt lat="47.26351" lon="-1.57717">
        <ele>85</ele>
        <time>2022-01-20T13:46:52Z</time>
      </trkpt>
      <trkpt lat="47.26351" lon="-1.57719">
        <ele>85</ele>
        <time>2022-01-20T13:46:53Z</time>
      </trkpt>
      <trkpt lat="47.2635" lon="-1.57721">
        <ele>84</ele>
        <time>2022-01-20T13:46:54Z</time>
      </trkpt>
      <trkpt lat="47.2635" lon="-1.57723">
        <ele>85</ele>
        <time>2022-01-20T13:46:55Z</time>
      </trkpt>
      <trkpt lat="47.26349" lon="-1.57725">
        <ele>85</ele>
        <time>2022-01-20T13:46:56Z</time>
      </trkpt>
      <trkpt lat="47.26349" lon="-1.57727">
        <ele>85</ele>
        <time>2022-01-20T13:46:57Z</time>
      </trkpt>
      <trkpt lat="47.26348" lon="-1.57728">
        <ele>85</ele>
        <time>2022-01-20T13:46:58Z</time>
      </trkpt>
      <trkpt lat="47.26348" lon="-1.5773">
        <ele>86</ele>
        <time>2022-01-20T13:46:59Z</time>
      </trkpt>
      <trkpt lat="47.26347" lon="-1.57732">
        <ele>86</ele>
        <time>2022-01-20T13:47:00Z</time>
      </trkpt>
      <trkpt lat="47.26347" lon="-1.57734">
        <ele>85</ele>
        <time>2022-01-20T13:47:01Z</time>
      </trkpt>
      <trkpt lat="47.26347" lon="-1.57736">
        <ele>85</ele>
        <time>2022-01-20T13:47:02Z</time>
      </trkpt>
      <trkpt lat="47.26347" lon="-1.57738">
        <ele>85</ele>
        <time>2022-01-20T13:47:03Z</time>
      </trkpt>
      <trkpt lat="47.26347" lon="-1.57739">
        <ele>84</ele>
        <time>2022-01-20T13:47:04Z</time>
      </trkpt>
      <trkpt lat="47.26347" lon="-1.57741">
        <ele>84</ele>
        <time>2022-01-20T13:47:05Z</time>
      </trkpt>
      <trkpt lat="47.26348" lon="-1.57743">
        <ele>84</ele>
        <time>2022-01-20T13:47:06Z</time>
      </trkpt>
      <trkpt lat="47.26349" lon="-1.57745">
        <ele>83</ele>
        <time>2022-01-20T13:47:07Z</time>
      </trkpt>
      <trkpt lat="47.26349" lon="-1.57747">
        <ele>83</ele>
        <time>2022-01-20T13:47:08Z</time>
      </trkpt>
      <trkpt lat="47.2635" lon="-1.57749">
        <ele>83</ele>
        <time>2022-01-20T13:47:09Z</time>
      </trkpt>
      <trkpt lat="47.2635" lon="-1.57751">
        <ele>83</ele>
        <time>2022-01-20T13:47:10Z</time>
      </trkpt>
      <trkpt lat="47.26351" lon="-1.57753">
        <ele>82</ele>
        <time>2022-01-20T13:47:11Z</time>
      </trkpt>
      <trkpt lat="47.26352" lon="-1.57755">
        <ele>83</ele>
        <time>2022-01-20T13:47:12Z</time>
      </trkpt>
      <trkpt lat="47.26352" lon="-1.57758">
        <ele>83</ele>
        <time>2022-01-20T13:47:13Z</time>
      </trkpt>
      <trkpt lat="47.26353" lon="-1.5776">
        <ele>83</ele>
        <time>2022-01-20T13:47:14Z</time>
      </trkpt>
      <trkpt lat="47.26353" lon="-1.57762">
        <ele>82</ele>
        <time>2022-01-20T13:47:15Z</time>
      </trkpt>
      <trkpt lat="47.26354" lon="-1.57765">
        <ele>82</ele>
        <time>2022-01-20T13:47:16Z</time>
      </trkpt>
      <trkpt lat="47.26354" lon="-1.57767">
        <ele>82</ele>
        <time>2022-01-20T13:47:17Z</time>
      </trkpt>
      <trkpt lat="47.26355" lon="-1.57768">
        <ele>82</ele>
        <time>2022-01-20T13:47:18Z</time>
      </trkpt>
      <trkpt lat="47.26356" lon="-1.57771">
        <ele>83</ele>
        <time>2022-01-20T13:47:19Z</time>
      </trkpt>
      <trkpt lat="47.26356" lon="-1.57772">
        <ele>82</ele>
        <time>2022-01-20T13:47:20Z</time>
      </trkpt>
      <trkpt lat="47.26356" lon="-1.57775">
        <ele>83</ele>
        <time>2022-01-20T13:47:21Z</time>
      </trkpt>
      <trkpt lat="47.26357" lon="-1.57777">
        <ele>83</ele>
        <time>2022-01-20T13:47:22Z</time>
      </trkpt>
      <trkpt lat="47.26357" lon="-1.57779">
        <ele>83</ele>
        <time>2022-01-20T13:47:23Z</time>
      </trkpt>
      <trkpt lat="47.26357" lon="-1.57782">
        <ele>83</ele>
        <time>2022-01-20T13:47:24Z</time>
      </trkpt>
      <trkpt lat="47.26357" lon="-1.57784">
        <ele>83</ele>
        <time>2022-01-20T13:47:25Z</time>
      </trkpt>
      <trkpt lat="47.26356" lon="-1.57786">
        <ele>83</ele>
        <time>2022-01-20T13:47:26Z</time>
      </trkpt>
      <trkpt lat="47.26356" lon="-1.57788">
        <ele>83</ele>
        <time>2022-01-20T13:47:27Z</time>
      </trkpt>
      <trkpt lat="47.26356" lon="-1.57791">
        <ele>83</ele>
        <time>2022-01-20T13:47:28Z</time>
      </trkpt>
      <trkpt lat="47.26356" lon="-1.57793">
        <ele>83</ele>
        <time>2022-01-20T13:47:29Z</time>
      </trkpt>
      <trkpt lat="47.26355" lon="-1.57795">
        <ele>83</ele>
        <time>2022-01-20T13:47:30Z</time>
      </trkpt>
      <trkpt lat="47.26355" lon="-1.57796">
        <ele>83</ele>
        <time>2022-01-20T13:47:31Z</time>
      </trkpt>
      <trkpt lat="47.26355" lon="-1.578">
        <ele>82</ele>
        <time>2022-01-20T13:47:33Z</time>
      </trkpt>
      <trkpt lat="47.26355" lon="-1.578">
        <ele>82</ele>
        <time>2022-01-20T13:47:33Z</time>
      </trkpt>
      <trkpt lat="47.26354" lon="-1.57802">
        <ele>83</ele>
        <time>2022-01-20T13:47:34Z</time>
      </trkpt>
      <trkpt lat="47.26355" lon="-1.57804">
        <ele>84</ele>
        <time>2022-01-20T13:47:35Z</time>
      </trkpt>
      <trkpt lat="47.26355" lon="-1.57806">
        <ele>84</ele>
        <time>2022-01-20T13:47:36Z</time>
      </trkpt>
      <trkpt lat="47.26354" lon="-1.57809">
        <ele>84</ele>
        <time>2022-01-20T13:47:37Z</time>
      </trkpt>
      <trkpt lat="47.26354" lon="-1.57811">
        <ele>85</ele>
        <time>2022-01-20T13:47:38Z</time>
      </trkpt>
      <trkpt lat="47.26352" lon="-1.57813">
        <ele>85</ele>
        <time>2022-01-20T13:47:39Z</time>
      </trkpt>
      <trkpt lat="47.26352" lon="-1.57814">
        <ele>85</ele>
        <time>2022-01-20T13:47:40Z</time>
      </trkpt>
      <trkpt lat="47.26351" lon="-1.57816">
        <ele>85</ele>
        <time>2022-01-20T13:47:41Z</time>
      </trkpt>
      <trkpt lat="47.26351" lon="-1.57818">
        <ele>85</ele>
        <time>2022-01-20T13:47:42Z</time>
      </trkpt>
      <trkpt lat="47.2635" lon="-1.5782">
        <ele>85</ele>
        <time>2022-01-20T13:47:43Z</time>
      </trkpt>
      <trkpt lat="47.2635" lon="-1.57822">
        <ele>85</ele>
        <time>2022-01-20T13:47:44Z</time>
      </trkpt>
      <trkpt lat="47.2635" lon="-1.57824">
        <ele>85</ele>
        <time>2022-01-20T13:47:45Z</time>
      </trkpt>
      <trkpt lat="47.26349" lon="-1.57826">
        <ele>85</ele>
        <time>2022-01-20T13:47:46Z</time>
      </trkpt>
      <trkpt lat="47.26349" lon="-1.57829">
        <ele>85</ele>
        <time>2022-01-20T13:47:48Z</time>
      </trkpt>
      <trkpt lat="47.26349" lon="-1.57829">
        <ele>85</ele>
        <time>2022-01-20T13:47:48Z</time>
      </trkpt>
      <trkpt lat="47.26349" lon="-1.5783">
        <ele>84</ele>
        <time>2022-01-20T13:47:49Z</time>
      </trkpt>
      <trkpt lat="47.26348" lon="-1.57831">
        <ele>84</ele>
        <time>2022-01-20T13:47:50Z</time>
      </trkpt>
      <trkpt lat="47.26348" lon="-1.57832">
        <ele>85</ele>
        <time>2022-01-20T13:47:51Z</time>
      </trkpt>
      <trkpt lat="47.26347" lon="-1.57834">
        <ele>86</ele>
        <time>2022-01-20T13:47:52Z</time>
      </trkpt>
      <trkpt lat="47.26347" lon="-1.57835">
        <ele>86</ele>
        <time>2022-01-20T13:47:53Z</time>
      </trkpt>
      <trkpt lat="47.26347" lon="-1.57836">
        <ele>86</ele>
        <time>2022-01-20T13:47:54Z</time>
      </trkpt>
      <trkpt lat="47.26347" lon="-1.57837">
        <ele>87</ele>
        <time>2022-01-20T13:47:55Z</time>
      </trkpt>
      <trkpt lat="47.26346" lon="-1.57839">
        <ele>88</ele>
        <time>2022-01-20T13:47:56Z</time>
      </trkpt>
      <trkpt lat="47.26346" lon="-1.57841">
        <ele>88</ele>
        <time>2022-01-20T13:47:57Z</time>
      </trkpt>
      <trkpt lat="47.26345" lon="-1.57843">
        <ele>89</ele>
        <time>2022-01-20T13:47:58Z</time>
      </trkpt>
      <trkpt lat="47.26345" lon="-1.57844">
        <ele>89</ele>
        <time>2022-01-20T13:47:59Z</time>
      </trkpt>
      <trkpt lat="47.26345" lon="-1.57846">
        <ele>89</ele>
        <time>2022-01-20T13:48:00Z</time>
      </trkpt>
      <trkpt lat="47.26345" lon="-1.57847">
        <ele>89</ele>
        <time>2022-01-20T13:48:01Z</time>
      </trkpt>
      <trkpt lat="47.26345" lon="-1.57849">
        <ele>89</ele>
        <time>2022-01-20T13:48:02Z</time>
      </trkpt>
      <trkpt lat="47.26345" lon="-1.57851">
        <ele>89</ele>
        <time>2022-01-20T13:48:03Z</time>
      </trkpt>
      <trkpt lat="47.26344" lon="-1.57853">
        <ele>90</ele>
        <time>2022-01-20T13:48:04Z</time>
      </trkpt>
      <trkpt lat="47.26343" lon="-1.57854">
        <ele>90</ele>
        <time>2022-01-20T13:48:05Z</time>
      </trkpt>
      <trkpt lat="47.26341" lon="-1.57855">
        <ele>89</ele>
        <time>2022-01-20T13:48:06Z</time>
      </trkpt>
      <trkpt lat="47.2634" lon="-1.57855">
        <ele>89</ele>
        <time>2022-01-20T13:48:07Z</time>
      </trkpt>
      <trkpt lat="47.26339" lon="-1.57855">
        <ele>89</ele>
        <time>2022-01-20T13:48:08Z</time>
      </trkpt>
      <trkpt lat="47.26339" lon="-1.57855">
        <ele>88</ele>
        <time>2022-01-20T13:48:09Z</time>
      </trkpt>
      <trkpt lat="47.26338" lon="-1.57855">
        <ele>87</ele>
        <time>2022-01-20T13:48:10Z</time>
      </trkpt>
      <trkpt lat="47.26336" lon="-1.57854">
        <ele>87</ele>
        <time>2022-01-20T13:48:11Z</time>
      </trkpt>
      <trkpt lat="47.26335" lon="-1.57856">
        <ele>87</ele>
        <time>2022-01-20T13:48:12Z</time>
      </trkpt>
      <trkpt lat="47.26334" lon="-1.57856">
        <ele>87</ele>
        <time>2022-01-20T13:48:13Z</time>
      </trkpt>
      <trkpt lat="47.26333" lon="-1.57857">
        <ele>88</ele>
        <time>2022-01-20T13:48:14Z</time>
      </trkpt>
      <trkpt lat="47.26333" lon="-1.57857">
        <ele>89</ele>
        <time>2022-01-20T13:48:15Z</time>
      </trkpt>
      <trkpt lat="47.26333" lon="-1.57857">
        <ele>89</ele>
        <time>2022-01-20T13:48:16Z</time>
      </trkpt>
      <trkpt lat="47.26332" lon="-1.57857">
        <ele>89</ele>
        <time>2022-01-20T13:48:17Z</time>
      </trkpt>
      <trkpt lat="47.26331" lon="-1.57856">
        <ele>89</ele>
        <time>2022-01-20T13:48:18Z</time>
      </trkpt>
      <trkpt lat="47.26331" lon="-1.57856">
        <ele>89</ele>
        <time>2022-01-20T13:48:19Z</time>
      </trkpt>
      <trkpt lat="47.26331" lon="-1.57856">
        <ele>89</ele>
        <time>2022-01-20T13:48:20Z</time>
      </trkpt>
      <trkpt lat="47.26331" lon="-1.57856">
        <ele>89</ele>
        <time>2022-01-20T13:48:21Z</time>
      </trkpt>
      <trkpt lat="47.26329" lon="-1.57856">
        <ele>90</ele>
        <time>2022-01-20T13:48:22Z</time>
      </trkpt>
      <trkpt lat="47.26328" lon="-1.57856">
        <ele>90</ele>
        <time>2022-01-20T13:48:23Z</time>
      </trkpt>
      <trkpt lat="47.26328" lon="-1.57857">
        <ele>89</ele>
        <time>2022-01-20T13:48:24Z</time>
      </trkpt>
      <trkpt lat="47.26326" lon="-1.57857">
        <ele>89</ele>
        <time>2022-01-20T13:48:25Z</time>
      </trkpt>
      <trkpt lat="47.26326" lon="-1.57857">
        <ele>89</ele>
        <time>2022-01-20T13:48:26Z</time>
      </trkpt>
      <trkpt lat="47.26326" lon="-1.57857">
        <ele>89</ele>
        <time>2022-01-20T13:48:27Z</time>
      </trkpt>
      <trkpt lat="47.26324" lon="-1.57857">
        <ele>89</ele>
        <time>2022-01-20T13:48:28Z</time>
      </trkpt>
      <trkpt lat="47.26322" lon="-1.57857">
        <ele>89</ele>
        <time>2022-01-20T13:48:29Z</time>
      </trkpt>
      <trkpt lat="47.26321" lon="-1.57856">
        <ele>88</ele>
        <time>2022-01-20T13:48:30Z</time>
      </trkpt>
      <trkpt lat="47.26319" lon="-1.57856">
        <ele>88</ele>
        <time>2022-01-20T13:48:31Z</time>
      </trkpt>
      <trkpt lat="47.26319" lon="-1.57856">
        <ele>88</ele>
        <time>2022-01-20T13:48:32Z</time>
      </trkpt>
      <trkpt lat="47.26319" lon="-1.57856">
        <ele>88</ele>
        <time>2022-01-20T13:48:33Z</time>
      </trkpt>
      <trkpt lat="47.26315" lon="-1.57856">
        <ele>86</ele>
        <time>2022-01-20T13:48:34Z</time>
      </trkpt>
      <trkpt lat="47.26314" lon="-1.57858">
        <ele>86</ele>
        <time>2022-01-20T13:48:35Z</time>
      </trkpt>
      <trkpt lat="47.26312" lon="-1.57859">
        <ele>86</ele>
        <time>2022-01-20T13:48:36Z</time>
      </trkpt>
      <trkpt lat="47.26311" lon="-1.57861">
        <ele>85</ele>
        <time>2022-01-20T13:48:37Z</time>
      </trkpt>
      <trkpt lat="47.2631" lon="-1.57863">
        <ele>85</ele>
        <time>2022-01-20T13:48:38Z</time>
      </trkpt>
      <trkpt lat="47.26309" lon="-1.57866">
        <ele>86</ele>
        <time>2022-01-20T13:48:39Z</time>
      </trkpt>
      <trkpt lat="47.26308" lon="-1.57867">
        <ele>86</ele>
        <time>2022-01-20T13:48:40Z</time>
      </trkpt>
      <trkpt lat="47.26306" lon="-1.57868">
        <ele>86</ele>
        <time>2022-01-20T13:48:41Z</time>
      </trkpt>
      <trkpt lat="47.26305" lon="-1.57869">
        <ele>87</ele>
        <time>2022-01-20T13:48:42Z</time>
      </trkpt>
      <trkpt lat="47.26304" lon="-1.57871">
        <ele>88</ele>
        <time>2022-01-20T13:48:43Z</time>
      </trkpt>
      <trkpt lat="47.26303" lon="-1.57873">
        <ele>88</ele>
        <time>2022-01-20T13:48:44Z</time>
      </trkpt>
      <trkpt lat="47.26302" lon="-1.57874">
        <ele>89</ele>
        <time>2022-01-20T13:48:45Z</time>
      </trkpt>
      <trkpt lat="47.26301" lon="-1.57874">
        <ele>89</ele>
        <time>2022-01-20T13:48:46Z</time>
      </trkpt>
      <trkpt lat="47.263" lon="-1.57876">
        <ele>90</ele>
        <time>2022-01-20T13:48:47Z</time>
      </trkpt>
      <trkpt lat="47.26299" lon="-1.57878">
        <ele>90</ele>
        <time>2022-01-20T13:48:48Z</time>
      </trkpt>
      <trkpt lat="47.26299" lon="-1.5788">
        <ele>90</ele>
        <time>2022-01-20T13:48:49Z</time>
      </trkpt>
      <trkpt lat="47.26299" lon="-1.57885">
        <ele>91</ele>
        <time>2022-01-20T13:48:51Z</time>
      </trkpt>
      <trkpt lat="47.26299" lon="-1.57885">
        <ele>91</ele>
        <time>2022-01-20T13:48:51Z</time>
      </trkpt>
      <trkpt lat="47.26299" lon="-1.57888">
        <ele>92</ele>
        <time>2022-01-20T13:48:52Z</time>
      </trkpt>
      <trkpt lat="47.26299" lon="-1.5789">
        <ele>91</ele>
        <time>2022-01-20T13:48:53Z</time>
      </trkpt>
      <trkpt lat="47.26298" lon="-1.57893">
        <ele>92</ele>
        <time>2022-01-20T13:48:54Z</time>
      </trkpt>
      <trkpt lat="47.26298" lon="-1.57893">
        <ele>92</ele>
        <time>2022-01-20T13:48:55Z</time>
      </trkpt>
      <trkpt lat="47.26298" lon="-1.57893">
        <ele>92</ele>
        <time>2022-01-20T13:48:56Z</time>
      </trkpt>
      <trkpt lat="47.26296" lon="-1.57898">
        <ele>92</ele>
        <time>2022-01-20T13:48:57Z</time>
      </trkpt>
      <trkpt lat="47.26295" lon="-1.57901">
        <ele>92</ele>
        <time>2022-01-20T13:48:59Z</time>
      </trkpt>
      <trkpt lat="47.26295" lon="-1.57901">
        <ele>92</ele>
        <time>2022-01-20T13:48:59Z</time>
      </trkpt>
      <trkpt lat="47.26295" lon="-1.57904">
        <ele>92</ele>
        <time>2022-01-20T13:49:00Z</time>
      </trkpt>
      <trkpt lat="47.26295" lon="-1.57906">
        <ele>91</ele>
        <time>2022-01-20T13:49:01Z</time>
      </trkpt>
      <trkpt lat="47.26295" lon="-1.57909">
        <ele>91</ele>
        <time>2022-01-20T13:49:02Z</time>
      </trkpt>
      <trkpt lat="47.26296" lon="-1.5791">
        <ele>91</ele>
        <time>2022-01-20T13:49:03Z</time>
      </trkpt>
      <trkpt lat="47.26296" lon="-1.57913">
        <ele>92</ele>
        <time>2022-01-20T13:49:04Z</time>
      </trkpt>
      <trkpt lat="47.26296" lon="-1.57916">
        <ele>91</ele>
        <time>2022-01-20T13:49:05Z</time>
      </trkpt>
      <trkpt lat="47.26295" lon="-1.57918">
        <ele>92</ele>
        <time>2022-01-20T13:49:06Z</time>
      </trkpt>
      <trkpt lat="47.26294" lon="-1.5792">
        <ele>92</ele>
        <time>2022-01-20T13:49:07Z</time>
      </trkpt>
      <trkpt lat="47.26294" lon="-1.57922">
        <ele>92</ele>
        <time>2022-01-20T13:49:08Z</time>
      </trkpt>
      <trkpt lat="47.26294" lon="-1.57924">
        <ele>92</ele>
        <time>2022-01-20T13:49:09Z</time>
      </trkpt>
      <trkpt lat="47.26294" lon="-1.57925">
        <ele>92</ele>
        <time>2022-01-20T13:49:10Z</time>
      </trkpt>
      <trkpt lat="47.26294" lon="-1.57926">
        <ele>93</ele>
        <time>2022-01-20T13:49:11Z</time>
      </trkpt>
      <trkpt lat="47.26294" lon="-1.57927">
        <ele>93</ele>
        <time>2022-01-20T13:49:12Z</time>
      </trkpt>
      <trkpt lat="47.26294" lon="-1.5793">
        <ele>93</ele>
        <time>2022-01-20T13:49:13Z</time>
      </trkpt>
      <trkpt lat="47.26294" lon="-1.57931">
        <ele>93</ele>
        <time>2022-01-20T13:49:14Z</time>
      </trkpt>
      <trkpt lat="47.26295" lon="-1.57933">
        <ele>93</ele>
        <time>2022-01-20T13:49:15Z</time>
      </trkpt>
      <trkpt lat="47.26295" lon="-1.57935">
        <ele>93</ele>
        <time>2022-01-20T13:49:16Z</time>
      </trkpt>
      <trkpt lat="47.26296" lon="-1.57937">
        <ele>93</ele>
        <time>2022-01-20T13:49:17Z</time>
      </trkpt>
      <trkpt lat="47.26296" lon="-1.57938">
        <ele>93</ele>
        <time>2022-01-20T13:49:18Z</time>
      </trkpt>
      <trkpt lat="47.26296" lon="-1.57941">
        <ele>93</ele>
        <time>2022-01-20T13:49:19Z</time>
      </trkpt>
      <trkpt lat="47.26295" lon="-1.57943">
        <ele>92</ele>
        <time>2022-01-20T13:49:20Z</time>
      </trkpt>
      <trkpt lat="47.26294" lon="-1.57945">
        <ele>92</ele>
        <time>2022-01-20T13:49:21Z</time>
      </trkpt>
      <trkpt lat="47.26294" lon="-1.57947">
        <ele>92</ele>
        <time>2022-01-20T13:49:22Z</time>
      </trkpt>
      <trkpt lat="47.26294" lon="-1.5795">
        <ele>91</ele>
        <time>2022-01-20T13:49:23Z</time>
      </trkpt>
      <trkpt lat="47.26293" lon="-1.57952">
        <ele>91</ele>
        <time>2022-01-20T13:49:24Z</time>
      </trkpt>
      <trkpt lat="47.26292" lon="-1.57955">
        <ele>90</ele>
        <time>2022-01-20T13:49:25Z</time>
      </trkpt>
      <trkpt lat="47.26291" lon="-1.57957">
        <ele>89</ele>
        <time>2022-01-20T13:49:26Z</time>
      </trkpt>
      <trkpt lat="47.2629" lon="-1.57958">
        <ele>89</ele>
        <time>2022-01-20T13:49:27Z</time>
      </trkpt>
      <trkpt lat="47.26289" lon="-1.57959">
        <ele>89</ele>
        <time>2022-01-20T13:49:28Z</time>
      </trkpt>
      <trkpt lat="47.26288" lon="-1.5796">
        <ele>88</ele>
        <time>2022-01-20T13:49:29Z</time>
      </trkpt>
      <trkpt lat="47.26288" lon="-1.57961">
        <ele>88</ele>
        <time>2022-01-20T13:49:30Z</time>
      </trkpt>
      <trkpt lat="47.26286" lon="-1.57962">
        <ele>87</ele>
        <time>2022-01-20T13:49:31Z</time>
      </trkpt>
      <trkpt lat="47.26286" lon="-1.57962">
        <ele>87</ele>
        <time>2022-01-20T13:49:32Z</time>
      </trkpt>
      <trkpt lat="47.26284" lon="-1.57962">
        <ele>87</ele>
        <time>2022-01-20T13:49:33Z</time>
      </trkpt>
      <trkpt lat="47.26283" lon="-1.57963">
        <ele>88</ele>
        <time>2022-01-20T13:49:34Z</time>
      </trkpt>
      <trkpt lat="47.26282" lon="-1.57964">
        <ele>88</ele>
        <time>2022-01-20T13:49:35Z</time>
      </trkpt>
      <trkpt lat="47.26281" lon="-1.57964">
        <ele>87</ele>
        <time>2022-01-20T13:49:36Z</time>
      </trkpt>
      <trkpt lat="47.26279" lon="-1.57964">
        <ele>87</ele>
        <time>2022-01-20T13:49:37Z</time>
      </trkpt>
      <trkpt lat="47.26278" lon="-1.57964">
        <ele>87</ele>
        <time>2022-01-20T13:49:38Z</time>
      </trkpt>
      <trkpt lat="47.26278" lon="-1.57964">
        <ele>87</ele>
        <time>2022-01-20T13:49:39Z</time>
      </trkpt>
      <trkpt lat="47.26276" lon="-1.57964">
        <ele>87</ele>
        <time>2022-01-20T13:49:40Z</time>
      </trkpt>
      <trkpt lat="47.26275" lon="-1.57963">
        <ele>87</ele>
        <time>2022-01-20T13:49:41Z</time>
      </trkpt>
      <trkpt lat="47.26274" lon="-1.57963">
        <ele>88</ele>
        <time>2022-01-20T13:49:42Z</time>
      </trkpt>
      <trkpt lat="47.26273" lon="-1.57964">
        <ele>87</ele>
        <time>2022-01-20T13:49:43Z</time>
      </trkpt>
      <trkpt lat="47.26272" lon="-1.57963">
        <ele>87</ele>
        <time>2022-01-20T13:49:44Z</time>
      </trkpt>
      <trkpt lat="47.26271" lon="-1.57962">
        <ele>88</ele>
        <time>2022-01-20T13:49:45Z</time>
      </trkpt>
      <trkpt lat="47.2627" lon="-1.57962">
        <ele>87</ele>
        <time>2022-01-20T13:49:46Z</time>
      </trkpt>
      <trkpt lat="47.26269" lon="-1.57962">
        <ele>87</ele>
        <time>2022-01-20T13:49:47Z</time>
      </trkpt>
      <trkpt lat="47.26268" lon="-1.57962">
        <ele>87</ele>
        <time>2022-01-20T13:49:48Z</time>
      </trkpt>
      <trkpt lat="47.26267" lon="-1.57961">
        <ele>87</ele>
        <time>2022-01-20T13:49:49Z</time>
      </trkpt>
      <trkpt lat="47.26266" lon="-1.57961">
        <ele>86</ele>
        <time>2022-01-20T13:49:50Z</time>
      </trkpt>
      <trkpt lat="47.26265" lon="-1.57961">
        <ele>87</ele>
        <time>2022-01-20T13:49:51Z</time>
      </trkpt>
      <trkpt lat="47.26263" lon="-1.57961">
        <ele>86</ele>
        <time>2022-01-20T13:49:52Z</time>
      </trkpt>
      <trkpt lat="47.26262" lon="-1.5796">
        <ele>87</ele>
        <time>2022-01-20T13:49:53Z</time>
      </trkpt>
      <trkpt lat="47.2626" lon="-1.57959">
        <ele>87</ele>
        <time>2022-01-20T13:49:54Z</time>
      </trkpt>
      <trkpt lat="47.26259" lon="-1.57958">
        <ele>87</ele>
        <time>2022-01-20T13:49:55Z</time>
      </trkpt>
      <trkpt lat="47.26257" lon="-1.57957">
        <ele>87</ele>
        <time>2022-01-20T13:49:56Z</time>
      </trkpt>
      <trkpt lat="47.26255" lon="-1.57957">
        <ele>87</ele>
        <time>2022-01-20T13:49:57Z</time>
      </trkpt>
      <trkpt lat="47.26254" lon="-1.57956">
        <ele>87</ele>
        <time>2022-01-20T13:49:58Z</time>
      </trkpt>
      <trkpt lat="47.26252" lon="-1.57955">
        <ele>87</ele>
        <time>2022-01-20T13:49:59Z</time>
      </trkpt>
      <trkpt lat="47.26251" lon="-1.57954">
        <ele>87</ele>
        <time>2022-01-20T13:50:00Z</time>
      </trkpt>
      <trkpt lat="47.2625" lon="-1.57954">
        <ele>87</ele>
        <time>2022-01-20T13:50:01Z</time>
      </trkpt>
      <trkpt lat="47.26249" lon="-1.57953">
        <ele>87</ele>
        <time>2022-01-20T13:50:02Z</time>
      </trkpt>
      <trkpt lat="47.26248" lon="-1.57953">
        <ele>88</ele>
        <time>2022-01-20T13:50:03Z</time>
      </trkpt>
      <trkpt lat="47.26246" lon="-1.57952">
        <ele>88</ele>
        <time>2022-01-20T13:50:04Z</time>
      </trkpt>
      <trkpt lat="47.26245" lon="-1.57951">
        <ele>88</ele>
        <time>2022-01-20T13:50:05Z</time>
      </trkpt>
      <trkpt lat="47.26244" lon="-1.5795">
        <ele>88</ele>
        <time>2022-01-20T13:50:06Z</time>
      </trkpt>
      <trkpt lat="47.26242" lon="-1.5795">
        <ele>88</ele>
        <time>2022-01-20T13:50:07Z</time>
      </trkpt>
      <trkpt lat="47.26241" lon="-1.57949">
        <ele>88</ele>
        <time>2022-01-20T13:50:08Z</time>
      </trkpt>
      <trkpt lat="47.26239" lon="-1.57949">
        <ele>88</ele>
        <time>2022-01-20T13:50:09Z</time>
      </trkpt>
      <trkpt lat="47.26237" lon="-1.57949">
        <ele>88</ele>
        <time>2022-01-20T13:50:10Z</time>
      </trkpt>
      <trkpt lat="47.26236" lon="-1.57949">
        <ele>88</ele>
        <time>2022-01-20T13:50:11Z</time>
      </trkpt>
      <trkpt lat="47.26234" lon="-1.57949">
        <ele>88</ele>
        <time>2022-01-20T13:50:12Z</time>
      </trkpt>
      <trkpt lat="47.26233" lon="-1.57948">
        <ele>88</ele>
        <time>2022-01-20T13:50:13Z</time>
      </trkpt>
      <trkpt lat="47.26232" lon="-1.57948">
        <ele>88</ele>
        <time>2022-01-20T13:50:14Z</time>
      </trkpt>
      <trkpt lat="47.2623" lon="-1.57948">
        <ele>88</ele>
        <time>2022-01-20T13:50:15Z</time>
      </trkpt>
      <trkpt lat="47.26229" lon="-1.57948">
        <ele>88</ele>
        <time>2022-01-20T13:50:16Z</time>
      </trkpt>
      <trkpt lat="47.26227" lon="-1.57948">
        <ele>88</ele>
        <time>2022-01-20T13:50:17Z</time>
      </trkpt>
      <trkpt lat="47.26226" lon="-1.57947">
        <ele>88</ele>
        <time>2022-01-20T13:50:18Z</time>
      </trkpt>
      <trkpt lat="47.26224" lon="-1.57947">
        <ele>88</ele>
        <time>2022-01-20T13:50:19Z</time>
      </trkpt>
      <trkpt lat="47.26223" lon="-1.57947">
        <ele>88</ele>
        <time>2022-01-20T13:50:20Z</time>
      </trkpt>
      <trkpt lat="47.26222" lon="-1.57946">
        <ele>88</ele>
        <time>2022-01-20T13:50:21Z</time>
      </trkpt>
      <trkpt lat="47.2622" lon="-1.57946">
        <ele>88</ele>
        <time>2022-01-20T13:50:22Z</time>
      </trkpt>
      <trkpt lat="47.2622" lon="-1.57945">
        <ele>87</ele>
        <time>2022-01-20T13:50:23Z</time>
      </trkpt>
      <trkpt lat="47.26218" lon="-1.57944">
        <ele>87</ele>
        <time>2022-01-20T13:50:24Z</time>
      </trkpt>
      <trkpt lat="47.26217" lon="-1.57944">
        <ele>86</ele>
        <time>2022-01-20T13:50:25Z</time>
      </trkpt>
      <trkpt lat="47.26216" lon="-1.57943">
        <ele>85</ele>
        <time>2022-01-20T13:50:26Z</time>
      </trkpt>
      <trkpt lat="47.26215" lon="-1.57943">
        <ele>85</ele>
        <time>2022-01-20T13:50:27Z</time>
      </trkpt>
      <trkpt lat="47.26214" lon="-1.57942">
        <ele>85</ele>
        <time>2022-01-20T13:50:28Z</time>
      </trkpt>
      <trkpt lat="47.26212" lon="-1.57942">
        <ele>85</ele>
        <time>2022-01-20T13:50:29Z</time>
      </trkpt>
      <trkpt lat="47.26212" lon="-1.57941">
        <ele>85</ele>
        <time>2022-01-20T13:50:30Z</time>
      </trkpt>
      <trkpt lat="47.2621" lon="-1.57941">
        <ele>84</ele>
        <time>2022-01-20T13:50:31Z</time>
      </trkpt>
      <trkpt lat="47.2621" lon="-1.57941">
        <ele>83</ele>
        <time>2022-01-20T13:50:32Z</time>
      </trkpt>
      <trkpt lat="47.26208" lon="-1.5794">
        <ele>83</ele>
        <time>2022-01-20T13:50:33Z</time>
      </trkpt>
      <trkpt lat="47.26207" lon="-1.5794">
        <ele>83</ele>
        <time>2022-01-20T13:50:34Z</time>
      </trkpt>
      <trkpt lat="47.26206" lon="-1.57939">
        <ele>83</ele>
        <time>2022-01-20T13:50:35Z</time>
      </trkpt>
      <trkpt lat="47.26204" lon="-1.57939">
        <ele>83</ele>
        <time>2022-01-20T13:50:36Z</time>
      </trkpt>
      <trkpt lat="47.26203" lon="-1.57938">
        <ele>83</ele>
        <time>2022-01-20T13:50:37Z</time>
      </trkpt>
      <trkpt lat="47.26202" lon="-1.57938">
        <ele>83</ele>
        <time>2022-01-20T13:50:38Z</time>
      </trkpt>
      <trkpt lat="47.26201" lon="-1.57937">
        <ele>83</ele>
        <time>2022-01-20T13:50:39Z</time>
      </trkpt>
      <trkpt lat="47.26199" lon="-1.57937">
        <ele>82</ele>
        <time>2022-01-20T13:50:40Z</time>
      </trkpt>
      <trkpt lat="47.26198" lon="-1.57936">
        <ele>82</ele>
        <time>2022-01-20T13:50:41Z</time>
      </trkpt>
      <trkpt lat="47.26197" lon="-1.57936">
        <ele>82</ele>
        <time>2022-01-20T13:50:42Z</time>
      </trkpt>
      <trkpt lat="47.26196" lon="-1.57935">
        <ele>82</ele>
        <time>2022-01-20T13:50:43Z</time>
      </trkpt>
      <trkpt lat="47.26195" lon="-1.57934">
        <ele>82</ele>
        <time>2022-01-20T13:50:44Z</time>
      </trkpt>
      <trkpt lat="47.26194" lon="-1.57933">
        <ele>83</ele>
        <time>2022-01-20T13:50:45Z</time>
      </trkpt>
      <trkpt lat="47.26193" lon="-1.57933">
        <ele>83</ele>
        <time>2022-01-20T13:50:46Z</time>
      </trkpt>
      <trkpt lat="47.26192" lon="-1.57932">
        <ele>83</ele>
        <time>2022-01-20T13:50:47Z</time>
      </trkpt>
      <trkpt lat="47.26191" lon="-1.57932">
        <ele>83</ele>
        <time>2022-01-20T13:50:48Z</time>
      </trkpt>
      <trkpt lat="47.2619" lon="-1.57931">
        <ele>83</ele>
        <time>2022-01-20T13:50:49Z</time>
      </trkpt>
      <trkpt lat="47.26188" lon="-1.57929">
        <ele>83</ele>
        <time>2022-01-20T13:50:51Z</time>
      </trkpt>
      <trkpt lat="47.26188" lon="-1.57929">
        <ele>83</ele>
        <time>2022-01-20T13:50:51Z</time>
      </trkpt>
      <trkpt lat="47.26187" lon="-1.57929">
        <ele>83</ele>
        <time>2022-01-20T13:50:52Z</time>
      </trkpt>
      <trkpt lat="47.26186" lon="-1.57928">
        <ele>83</ele>
        <time>2022-01-20T13:50:53Z</time>
      </trkpt>
      <trkpt lat="47.26186" lon="-1.57927">
        <ele>82</ele>
        <time>2022-01-20T13:50:54Z</time>
      </trkpt>
      <trkpt lat="47.26185" lon="-1.57926">
        <ele>83</ele>
        <time>2022-01-20T13:50:55Z</time>
      </trkpt>
      <trkpt lat="47.26184" lon="-1.57925">
        <ele>84</ele>
        <time>2022-01-20T13:50:56Z</time>
      </trkpt>
      <trkpt lat="47.26183" lon="-1.57924">
        <ele>84</ele>
        <time>2022-01-20T13:50:57Z</time>
      </trkpt>
      <trkpt lat="47.26182" lon="-1.57922">
        <ele>85</ele>
        <time>2022-01-20T13:50:58Z</time>
      </trkpt>
      <trkpt lat="47.26181" lon="-1.57921">
        <ele>85</ele>
        <time>2022-01-20T13:50:59Z</time>
      </trkpt>
      <trkpt lat="47.2618" lon="-1.5792">
        <ele>86</ele>
        <time>2022-01-20T13:51:00Z</time>
      </trkpt>
      <trkpt lat="47.26179" lon="-1.57919">
        <ele>86</ele>
        <time>2022-01-20T13:51:01Z</time>
      </trkpt>
      <trkpt lat="47.26178" lon="-1.57919">
        <ele>86</ele>
        <time>2022-01-20T13:51:02Z</time>
      </trkpt>
      <trkpt lat="47.26177" lon="-1.57921">
        <ele>86</ele>
        <time>2022-01-20T13:51:03Z</time>
      </trkpt>
      <trkpt lat="47.26176" lon="-1.57922">
        <ele>86</ele>
        <time>2022-01-20T13:51:04Z</time>
      </trkpt>
      <trkpt lat="47.26175" lon="-1.57923">
        <ele>87</ele>
        <time>2022-01-20T13:51:05Z</time>
      </trkpt>
      <trkpt lat="47.26175" lon="-1.57927">
        <ele>87</ele>
        <time>2022-01-20T13:51:06Z</time>
      </trkpt>
      <trkpt lat="47.26175" lon="-1.57929">
        <ele>87</ele>
        <time>2022-01-20T13:51:07Z</time>
      </trkpt>
      <trkpt lat="47.26175" lon="-1.5793">
        <ele>87</ele>
        <time>2022-01-20T13:51:08Z</time>
      </trkpt>
      <trkpt lat="47.26175" lon="-1.57931">
        <ele>87</ele>
        <time>2022-01-20T13:51:09Z</time>
      </trkpt>
      <trkpt lat="47.26175" lon="-1.57931">
        <ele>87</ele>
        <time>2022-01-20T13:51:10Z</time>
      </trkpt>
      <trkpt lat="47.26175" lon="-1.57931">
        <ele>87</ele>
        <time>2022-01-20T13:51:11Z</time>
      </trkpt>
      <trkpt lat="47.26175" lon="-1.57936">
        <ele>85</ele>
        <time>2022-01-20T13:51:12Z</time>
      </trkpt>
      <trkpt lat="47.26176" lon="-1.57938">
        <ele>85</ele>
        <time>2022-01-20T13:51:13Z</time>
      </trkpt>
      <trkpt lat="47.26176" lon="-1.5794">
        <ele>85</ele>
        <time>2022-01-20T13:51:14Z</time>
      </trkpt>
      <trkpt lat="47.26176" lon="-1.57942">
        <ele>86</ele>
        <time>2022-01-20T13:51:15Z</time>
      </trkpt>
      <trkpt lat="47.26177" lon="-1.57942">
        <ele>87</ele>
        <time>2022-01-20T13:51:16Z</time>
      </trkpt>
      <trkpt lat="47.26177" lon="-1.57944">
        <ele>87</ele>
        <time>2022-01-20T13:51:17Z</time>
      </trkpt>
      <trkpt lat="47.26177" lon="-1.57945">
        <ele>87</ele>
        <time>2022-01-20T13:51:18Z</time>
      </trkpt>
      <trkpt lat="47.26178" lon="-1.57947">
        <ele>87</ele>
        <time>2022-01-20T13:51:19Z</time>
      </trkpt>
      <trkpt lat="47.26178" lon="-1.57949">
        <ele>87</ele>
        <time>2022-01-20T13:51:20Z</time>
      </trkpt>
      <trkpt lat="47.26178" lon="-1.5795">
        <ele>88</ele>
        <time>2022-01-20T13:51:21Z</time>
      </trkpt>
      <trkpt lat="47.26178" lon="-1.57952">
        <ele>88</ele>
        <time>2022-01-20T13:51:22Z</time>
      </trkpt>
      <trkpt lat="47.26178" lon="-1.57954">
        <ele>88</ele>
        <time>2022-01-20T13:51:23Z</time>
      </trkpt>
      <trkpt lat="47.26178" lon="-1.57956">
        <ele>88</ele>
        <time>2022-01-20T13:51:24Z</time>
      </trkpt>
      <trkpt lat="47.26178" lon="-1.57958">
        <ele>88</ele>
        <time>2022-01-20T13:51:25Z</time>
      </trkpt>
      <trkpt lat="47.26178" lon="-1.5796">
        <ele>89</ele>
        <time>2022-01-20T13:51:26Z</time>
      </trkpt>
      <trkpt lat="47.26178" lon="-1.57962">
        <ele>89</ele>
        <time>2022-01-20T13:51:27Z</time>
      </trkpt>
      <trkpt lat="47.26177" lon="-1.57964">
        <ele>89</ele>
        <time>2022-01-20T13:51:28Z</time>
      </trkpt>
      <trkpt lat="47.26177" lon="-1.57967">
        <ele>88</ele>
        <time>2022-01-20T13:51:29Z</time>
      </trkpt>
      <trkpt lat="47.26177" lon="-1.57969">
        <ele>88</ele>
        <time>2022-01-20T13:51:30Z</time>
      </trkpt>
      <trkpt lat="47.26176" lon="-1.57971">
        <ele>88</ele>
        <time>2022-01-20T13:51:31Z</time>
      </trkpt>
      <trkpt lat="47.26175" lon="-1.57973">
        <ele>87</ele>
        <time>2022-01-20T13:51:32Z</time>
      </trkpt>
      <trkpt lat="47.26175" lon="-1.57974">
        <ele>87</ele>
        <time>2022-01-20T13:51:33Z</time>
      </trkpt>
      <trkpt lat="47.26173" lon="-1.57976">
        <ele>87</ele>
        <time>2022-01-20T13:51:34Z</time>
      </trkpt>
      <trkpt lat="47.26173" lon="-1.57978">
        <ele>88</ele>
        <time>2022-01-20T13:51:35Z</time>
      </trkpt>
      <trkpt lat="47.26173" lon="-1.57979">
        <ele>88</ele>
        <time>2022-01-20T13:51:36Z</time>
      </trkpt>
      <trkpt lat="47.26173" lon="-1.5798">
        <ele>87</ele>
        <time>2022-01-20T13:51:37Z</time>
      </trkpt>
      <trkpt lat="47.26173" lon="-1.57982">
        <ele>87</ele>
        <time>2022-01-20T13:51:38Z</time>
      </trkpt>
      <trkpt lat="47.26173" lon="-1.57983">
        <ele>87</ele>
        <time>2022-01-20T13:51:39Z</time>
      </trkpt>
      <trkpt lat="47.26172" lon="-1.57984">
        <ele>87</ele>
        <time>2022-01-20T13:51:40Z</time>
      </trkpt>
      <trkpt lat="47.26172" lon="-1.57987">
        <ele>87</ele>
        <time>2022-01-20T13:51:41Z</time>
      </trkpt>
      <trkpt lat="47.26172" lon="-1.57989">
        <ele>87</ele>
        <time>2022-01-20T13:51:42Z</time>
      </trkpt>
      <trkpt lat="47.26172" lon="-1.57991">
        <ele>87</ele>
        <time>2022-01-20T13:51:43Z</time>
      </trkpt>
      <trkpt lat="47.26171" lon="-1.57995">
        <ele>88</ele>
        <time>2022-01-20T13:51:44Z</time>
      </trkpt>
      <trkpt lat="47.2617" lon="-1.57998">
        <ele>88</ele>
        <time>2022-01-20T13:51:45Z</time>
      </trkpt>
      <trkpt lat="47.2617" lon="-1.58">
        <ele>88</ele>
        <time>2022-01-20T13:51:46Z</time>
      </trkpt>
      <trkpt lat="47.2617" lon="-1.58003">
        <ele>88</ele>
        <time>2022-01-20T13:51:47Z</time>
      </trkpt>
      <trkpt lat="47.26169" lon="-1.58005">
        <ele>88</ele>
        <time>2022-01-20T13:51:48Z</time>
      </trkpt>
      <trkpt lat="47.26169" lon="-1.58007">
        <ele>88</ele>
        <time>2022-01-20T13:51:49Z</time>
      </trkpt>
      <trkpt lat="47.26169" lon="-1.58009">
        <ele>88</ele>
        <time>2022-01-20T13:51:50Z</time>
      </trkpt>
      <trkpt lat="47.26169" lon="-1.58012">
        <ele>88</ele>
        <time>2022-01-20T13:51:51Z</time>
      </trkpt>
      <trkpt lat="47.26169" lon="-1.58014">
        <ele>88</ele>
        <time>2022-01-20T13:51:52Z</time>
      </trkpt>
      <trkpt lat="47.26168" lon="-1.58017">
        <ele>88</ele>
        <time>2022-01-20T13:51:53Z</time>
      </trkpt>
      <trkpt lat="47.26168" lon="-1.58019">
        <ele>87</ele>
        <time>2022-01-20T13:51:54Z</time>
      </trkpt>
      <trkpt lat="47.26168" lon="-1.58022">
        <ele>87</ele>
        <time>2022-01-20T13:51:55Z</time>
      </trkpt>
      <trkpt lat="47.26168" lon="-1.58024">
        <ele>87</ele>
        <time>2022-01-20T13:51:56Z</time>
      </trkpt>
      <trkpt lat="47.26168" lon="-1.58026">
        <ele>87</ele>
        <time>2022-01-20T13:51:57Z</time>
      </trkpt>
      <trkpt lat="47.26168" lon="-1.58028">
        <ele>87</ele>
        <time>2022-01-20T13:51:58Z</time>
      </trkpt>
      <trkpt lat="47.26167" lon="-1.58029">
        <ele>87</ele>
        <time>2022-01-20T13:51:59Z</time>
      </trkpt>
      <trkpt lat="47.26167" lon="-1.58031">
        <ele>87</ele>
        <time>2022-01-20T13:52:00Z</time>
      </trkpt>
      <trkpt lat="47.26167" lon="-1.58033">
        <ele>87</ele>
        <time>2022-01-20T13:52:01Z</time>
      </trkpt>
      <trkpt lat="47.26166" lon="-1.58035">
        <ele>87</ele>
        <time>2022-01-20T13:52:02Z</time>
      </trkpt>
      <trkpt lat="47.26166" lon="-1.58037">
        <ele>87</ele>
        <time>2022-01-20T13:52:03Z</time>
      </trkpt>
      <trkpt lat="47.26165" lon="-1.58039">
        <ele>87</ele>
        <time>2022-01-20T13:52:04Z</time>
      </trkpt>
      <trkpt lat="47.26165" lon="-1.58041">
        <ele>87</ele>
        <time>2022-01-20T13:52:05Z</time>
      </trkpt>
      <trkpt lat="47.26165" lon="-1.58043">
        <ele>87</ele>
        <time>2022-01-20T13:52:06Z</time>
      </trkpt>
      <trkpt lat="47.26165" lon="-1.58045">
        <ele>88</ele>
        <time>2022-01-20T13:52:07Z</time>
      </trkpt>
      <trkpt lat="47.26165" lon="-1.58047">
        <ele>88</ele>
        <time>2022-01-20T13:52:08Z</time>
      </trkpt>
      <trkpt lat="47.26165" lon="-1.58049">
        <ele>88</ele>
        <time>2022-01-20T13:52:09Z</time>
      </trkpt>
      <trkpt lat="47.26164" lon="-1.58052">
        <ele>88</ele>
        <time>2022-01-20T13:52:10Z</time>
      </trkpt>
      <trkpt lat="47.26164" lon="-1.58054">
        <ele>89</ele>
        <time>2022-01-20T13:52:11Z</time>
      </trkpt>
      <trkpt lat="47.26164" lon="-1.58055">
        <ele>89</ele>
        <time>2022-01-20T13:52:12Z</time>
      </trkpt>
      <trkpt lat="47.26164" lon="-1.58057">
        <ele>90</ele>
        <time>2022-01-20T13:52:13Z</time>
      </trkpt>
      <trkpt lat="47.26164" lon="-1.58059">
        <ele>90</ele>
        <time>2022-01-20T13:52:14Z</time>
      </trkpt>
      <trkpt lat="47.26163" lon="-1.58061">
        <ele>90</ele>
        <time>2022-01-20T13:52:15Z</time>
      </trkpt>
      <trkpt lat="47.26162" lon="-1.58063">
        <ele>90</ele>
        <time>2022-01-20T13:52:16Z</time>
      </trkpt>
      <trkpt lat="47.26162" lon="-1.58065">
        <ele>90</ele>
        <time>2022-01-20T13:52:17Z</time>
      </trkpt>
      <trkpt lat="47.26161" lon="-1.58067">
        <ele>90</ele>
        <time>2022-01-20T13:52:18Z</time>
      </trkpt>
      <trkpt lat="47.26161" lon="-1.58068">
        <ele>91</ele>
        <time>2022-01-20T13:52:19Z</time>
      </trkpt>
      <trkpt lat="47.26161" lon="-1.5807">
        <ele>91</ele>
        <time>2022-01-20T13:52:20Z</time>
      </trkpt>
      <trkpt lat="47.26161" lon="-1.58072">
        <ele>91</ele>
        <time>2022-01-20T13:52:21Z</time>
      </trkpt>
      <trkpt lat="47.26161" lon="-1.58073">
        <ele>91</ele>
        <time>2022-01-20T13:52:22Z</time>
      </trkpt>
      <trkpt lat="47.2616" lon="-1.58076">
        <ele>91</ele>
        <time>2022-01-20T13:52:23Z</time>
      </trkpt>
      <trkpt lat="47.2616" lon="-1.58077">
        <ele>90</ele>
        <time>2022-01-20T13:52:24Z</time>
      </trkpt>
      <trkpt lat="47.26161" lon="-1.5808">
        <ele>90</ele>
        <time>2022-01-20T13:52:25Z</time>
      </trkpt>
      <trkpt lat="47.26161" lon="-1.58082">
        <ele>90</ele>
        <time>2022-01-20T13:52:26Z</time>
      </trkpt>
      <trkpt lat="47.2616" lon="-1.58084">
        <ele>90</ele>
        <time>2022-01-20T13:52:27Z</time>
      </trkpt>
      <trkpt lat="47.2616" lon="-1.58086">
        <ele>90</ele>
        <time>2022-01-20T13:52:28Z</time>
      </trkpt>
      <trkpt lat="47.2616" lon="-1.58088">
        <ele>90</ele>
        <time>2022-01-20T13:52:29Z</time>
      </trkpt>
      <trkpt lat="47.2616" lon="-1.58089">
        <ele>91</ele>
        <time>2022-01-20T13:52:30Z</time>
      </trkpt>
      <trkpt lat="47.2616" lon="-1.58091">
        <ele>91</ele>
        <time>2022-01-20T13:52:31Z</time>
      </trkpt>
      <trkpt lat="47.26159" lon="-1.58093">
        <ele>91</ele>
        <time>2022-01-20T13:52:32Z</time>
      </trkpt>
      <trkpt lat="47.26159" lon="-1.58095">
        <ele>91</ele>
        <time>2022-01-20T13:52:33Z</time>
      </trkpt>
      <trkpt lat="47.26159" lon="-1.58096">
        <ele>91</ele>
        <time>2022-01-20T13:52:34Z</time>
      </trkpt>
      <trkpt lat="47.26158" lon="-1.58099">
        <ele>91</ele>
        <time>2022-01-20T13:52:35Z</time>
      </trkpt>
      <trkpt lat="47.26158" lon="-1.581">
        <ele>92</ele>
        <time>2022-01-20T13:52:36Z</time>
      </trkpt>
      <trkpt lat="47.26158" lon="-1.58102">
        <ele>92</ele>
        <time>2022-01-20T13:52:37Z</time>
      </trkpt>
      <trkpt lat="47.26158" lon="-1.58104">
        <ele>92</ele>
        <time>2022-01-20T13:52:38Z</time>
      </trkpt>
      <trkpt lat="47.26158" lon="-1.58106">
        <ele>92</ele>
        <time>2022-01-20T13:52:39Z</time>
      </trkpt>
      <trkpt lat="47.26158" lon="-1.58108">
        <ele>92</ele>
        <time>2022-01-20T13:52:40Z</time>
      </trkpt>
      <trkpt lat="47.26157" lon="-1.5811">
        <ele>92</ele>
        <time>2022-01-20T13:52:41Z</time>
      </trkpt>
      <trkpt lat="47.26157" lon="-1.58111">
        <ele>91</ele>
        <time>2022-01-20T13:52:42Z</time>
      </trkpt>
      <trkpt lat="47.26156" lon="-1.58112">
        <ele>91</ele>
        <time>2022-01-20T13:52:43Z</time>
      </trkpt>
      <trkpt lat="47.26156" lon="-1.58114">
        <ele>91</ele>
        <time>2022-01-20T13:52:44Z</time>
      </trkpt>
      <trkpt lat="47.26156" lon="-1.58117">
        <ele>91</ele>
        <time>2022-01-20T13:52:45Z</time>
      </trkpt>
      <trkpt lat="47.26156" lon="-1.58118">
        <ele>91</ele>
        <time>2022-01-20T13:52:46Z</time>
      </trkpt>
      <trkpt lat="47.26156" lon="-1.58121">
        <ele>92</ele>
        <time>2022-01-20T13:52:47Z</time>
      </trkpt>
      <trkpt lat="47.26156" lon="-1.58123">
        <ele>92</ele>
        <time>2022-01-20T13:52:48Z</time>
      </trkpt>
      <trkpt lat="47.26156" lon="-1.58125">
        <ele>92</ele>
        <time>2022-01-20T13:52:49Z</time>
      </trkpt>
      <trkpt lat="47.26156" lon="-1.58127">
        <ele>92</ele>
        <time>2022-01-20T13:52:50Z</time>
      </trkpt>
      <trkpt lat="47.26156" lon="-1.5813">
        <ele>92</ele>
        <time>2022-01-20T13:52:51Z</time>
      </trkpt>
      <trkpt lat="47.26156" lon="-1.58131">
        <ele>93</ele>
        <time>2022-01-20T13:52:52Z</time>
      </trkpt>
      <trkpt lat="47.26156" lon="-1.58133">
        <ele>93</ele>
        <time>2022-01-20T13:52:53Z</time>
      </trkpt>
      <trkpt lat="47.26156" lon="-1.58136">
        <ele>93</ele>
        <time>2022-01-20T13:52:54Z</time>
      </trkpt>
      <trkpt lat="47.26156" lon="-1.58138">
        <ele>93</ele>
        <time>2022-01-20T13:52:55Z</time>
      </trkpt>
      <trkpt lat="47.26156" lon="-1.5814">
        <ele>92</ele>
        <time>2022-01-20T13:52:56Z</time>
      </trkpt>
      <trkpt lat="47.26156" lon="-1.58141">
        <ele>93</ele>
        <time>2022-01-20T13:52:57Z</time>
      </trkpt>
      <trkpt lat="47.26156" lon="-1.58143">
        <ele>93</ele>
        <time>2022-01-20T13:52:58Z</time>
      </trkpt>
      <trkpt lat="47.26155" lon="-1.58145">
        <ele>93</ele>
        <time>2022-01-20T13:52:59Z</time>
      </trkpt>
      <trkpt lat="47.26156" lon="-1.58148">
        <ele>93</ele>
        <time>2022-01-20T13:53:00Z</time>
      </trkpt>
      <trkpt lat="47.26155" lon="-1.5815">
        <ele>93</ele>
        <time>2022-01-20T13:53:01Z</time>
      </trkpt>
      <trkpt lat="47.26155" lon="-1.58152">
        <ele>94</ele>
        <time>2022-01-20T13:53:02Z</time>
      </trkpt>
      <trkpt lat="47.26155" lon="-1.58154">
        <ele>94</ele>
        <time>2022-01-20T13:53:03Z</time>
      </trkpt>
      <trkpt lat="47.26155" lon="-1.58156">
        <ele>93</ele>
        <time>2022-01-20T13:53:04Z</time>
      </trkpt>
      <trkpt lat="47.26155" lon="-1.58158">
        <ele>94</ele>
        <time>2022-01-20T13:53:05Z</time>
      </trkpt>
      <trkpt lat="47.26155" lon="-1.5816">
        <ele>94</ele>
        <time>2022-01-20T13:53:06Z</time>
      </trkpt>
      <trkpt lat="47.26155" lon="-1.58162">
        <ele>94</ele>
        <time>2022-01-20T13:53:07Z</time>
      </trkpt>
      <trkpt lat="47.26155" lon="-1.58165">
        <ele>94</ele>
        <time>2022-01-20T13:53:08Z</time>
      </trkpt>
      <trkpt lat="47.26155" lon="-1.58168">
        <ele>94</ele>
        <time>2022-01-20T13:53:09Z</time>
      </trkpt>
      <trkpt lat="47.26154" lon="-1.5817">
        <ele>94</ele>
        <time>2022-01-20T13:53:10Z</time>
      </trkpt>
      <trkpt lat="47.26154" lon="-1.58172">
        <ele>94</ele>
        <time>2022-01-20T13:53:11Z</time>
      </trkpt>
      <trkpt lat="47.26154" lon="-1.58175">
        <ele>94</ele>
        <time>2022-01-20T13:53:12Z</time>
      </trkpt>
      <trkpt lat="47.26154" lon="-1.58177">
        <ele>94</ele>
        <time>2022-01-20T13:53:13Z</time>
      </trkpt>
      <trkpt lat="47.26154" lon="-1.58178">
        <ele>94</ele>
        <time>2022-01-20T13:53:14Z</time>
      </trkpt>
      <trkpt lat="47.26154" lon="-1.5818">
        <ele>94</ele>
        <time>2022-01-20T13:53:15Z</time>
      </trkpt>
      <trkpt lat="47.26154" lon="-1.58182">
        <ele>94</ele>
        <time>2022-01-20T13:53:16Z</time>
      </trkpt>
      <trkpt lat="47.26154" lon="-1.58184">
        <ele>94</ele>
        <time>2022-01-20T13:53:17Z</time>
      </trkpt>
      <trkpt lat="47.26154" lon="-1.58187">
        <ele>95</ele>
        <time>2022-01-20T13:53:18Z</time>
      </trkpt>
      <trkpt lat="47.26154" lon="-1.58189">
        <ele>95</ele>
        <time>2022-01-20T13:53:19Z</time>
      </trkpt>
      <trkpt lat="47.26154" lon="-1.58192">
        <ele>95</ele>
        <time>2022-01-20T13:53:20Z</time>
      </trkpt>
      <trkpt lat="47.26154" lon="-1.58194">
        <ele>94</ele>
        <time>2022-01-20T13:53:21Z</time>
      </trkpt>
      <trkpt lat="47.26154" lon="-1.58197">
        <ele>93</ele>
        <time>2022-01-20T13:53:22Z</time>
      </trkpt>
      <trkpt lat="47.26153" lon="-1.58199">
        <ele>93</ele>
        <time>2022-01-20T13:53:23Z</time>
      </trkpt>
      <trkpt lat="47.26153" lon="-1.58201">
        <ele>92</ele>
        <time>2022-01-20T13:53:24Z</time>
      </trkpt>
      <trkpt lat="47.26153" lon="-1.58202">
        <ele>91</ele>
        <time>2022-01-20T13:53:25Z</time>
      </trkpt>
      <trkpt lat="47.26152" lon="-1.58204">
        <ele>90</ele>
        <time>2022-01-20T13:53:26Z</time>
      </trkpt>
      <trkpt lat="47.26151" lon="-1.58205">
        <ele>90</ele>
        <time>2022-01-20T13:53:27Z</time>
      </trkpt>
      <trkpt lat="47.26151" lon="-1.58206">
        <ele>89</ele>
        <time>2022-01-20T13:53:28Z</time>
      </trkpt>
      <trkpt lat="47.2615" lon="-1.58208">
        <ele>89</ele>
        <time>2022-01-20T13:53:29Z</time>
      </trkpt>
      <trkpt lat="47.26149" lon="-1.58209">
        <ele>89</ele>
        <time>2022-01-20T13:53:30Z</time>
      </trkpt>
      <trkpt lat="47.26148" lon="-1.5821">
        <ele>89</ele>
        <time>2022-01-20T13:53:31Z</time>
      </trkpt>
      <trkpt lat="47.26147" lon="-1.58211">
        <ele>89</ele>
        <time>2022-01-20T13:53:32Z</time>
      </trkpt>
      <trkpt lat="47.26147" lon="-1.58211">
        <ele>89</ele>
        <time>2022-01-20T13:53:33Z</time>
      </trkpt>
      <trkpt lat="47.26147" lon="-1.58211">
        <ele>89</ele>
        <time>2022-01-20T13:53:34Z</time>
      </trkpt>
      <trkpt lat="47.26146" lon="-1.58215">
        <ele>89</ele>
        <time>2022-01-20T13:53:35Z</time>
      </trkpt>
      <trkpt lat="47.26146" lon="-1.58217">
        <ele>90</ele>
        <time>2022-01-20T13:53:36Z</time>
      </trkpt>
      <trkpt lat="47.26146" lon="-1.58219">
        <ele>90</ele>
        <time>2022-01-20T13:53:37Z</time>
      </trkpt>
      <trkpt lat="47.26146" lon="-1.5822">
        <ele>90</ele>
        <time>2022-01-20T13:53:38Z</time>
      </trkpt>
      <trkpt lat="47.26146" lon="-1.5822">
        <ele>90</ele>
        <time>2022-01-20T13:53:39Z</time>
      </trkpt>
      <trkpt lat="47.26146" lon="-1.5822">
        <ele>90</ele>
        <time>2022-01-20T13:53:40Z</time>
      </trkpt>
      <trkpt lat="47.26145" lon="-1.58222">
        <ele>90</ele>
        <time>2022-01-20T13:53:41Z</time>
      </trkpt>
      <trkpt lat="47.26144" lon="-1.58224">
        <ele>90</ele>
        <time>2022-01-20T13:53:42Z</time>
      </trkpt>
      <trkpt lat="47.26144" lon="-1.58226">
        <ele>91</ele>
        <time>2022-01-20T13:53:43Z</time>
      </trkpt>
      <trkpt lat="47.26144" lon="-1.58228">
        <ele>91</ele>
        <time>2022-01-20T13:53:44Z</time>
      </trkpt>
      <trkpt lat="47.26144" lon="-1.5823">
        <ele>91</ele>
        <time>2022-01-20T13:53:45Z</time>
      </trkpt>
      <trkpt lat="47.26144" lon="-1.58232">
        <ele>90</ele>
        <time>2022-01-20T13:53:46Z</time>
      </trkpt>
      <trkpt lat="47.26144" lon="-1.58234">
        <ele>90</ele>
        <time>2022-01-20T13:53:47Z</time>
      </trkpt>
      <trkpt lat="47.26144" lon="-1.58236">
        <ele>90</ele>
        <time>2022-01-20T13:53:48Z</time>
      </trkpt>
      <trkpt lat="47.26143" lon="-1.58238">
        <ele>91</ele>
        <time>2022-01-20T13:53:49Z</time>
      </trkpt>
      <trkpt lat="47.26143" lon="-1.58241">
        <ele>91</ele>
        <time>2022-01-20T13:53:50Z</time>
      </trkpt>
      <trkpt lat="47.26143" lon="-1.58243">
        <ele>91</ele>
        <time>2022-01-20T13:53:51Z</time>
      </trkpt>
      <trkpt lat="47.26142" lon="-1.58244">
        <ele>90</ele>
        <time>2022-01-20T13:53:53Z</time>
      </trkpt>
      <trkpt lat="47.26143" lon="-1.58245">
        <ele>89</ele>
        <time>2022-01-20T13:53:54Z</time>
      </trkpt>
      <trkpt lat="47.26143" lon="-1.58247">
        <ele>89</ele>
        <time>2022-01-20T13:53:55Z</time>
      </trkpt>
      <trkpt lat="47.26143" lon="-1.58247">
        <ele>89</ele>
        <time>2022-01-20T13:53:56Z</time>
      </trkpt>
      <trkpt lat="47.26143" lon="-1.58247">
        <ele>89</ele>
        <time>2022-01-20T13:53:56Z</time>
      </trkpt>
      <trkpt lat="47.26143" lon="-1.58247">
        <ele>89</ele>
        <time>2022-01-20T13:53:56Z</time>
      </trkpt>
      <trkpt lat="47.26141" lon="-1.58256">
        <ele>87</ele>
        <time>2022-01-20T13:54:08Z</time>
      </trkpt>
      <trkpt lat="47.26141" lon="-1.58258">
        <ele>87</ele>
        <time>2022-01-20T13:54:09Z</time>
      </trkpt>
      <trkpt lat="47.26141" lon="-1.5826">
        <ele>87</ele>
        <time>2022-01-20T13:54:10Z</time>
      </trkpt>
      <trkpt lat="47.2614" lon="-1.58262">
        <ele>87</ele>
        <time>2022-01-20T13:54:11Z</time>
      </trkpt>
      <trkpt lat="47.2614" lon="-1.58263">
        <ele>86</ele>
        <time>2022-01-20T13:54:12Z</time>
      </trkpt>
      <trkpt lat="47.2614" lon="-1.58265">
        <ele>86</ele>
        <time>2022-01-20T13:54:13Z</time>
      </trkpt>
      <trkpt lat="47.26139" lon="-1.58267">
        <ele>86</ele>
        <time>2022-01-20T13:54:14Z</time>
      </trkpt>
      <trkpt lat="47.26139" lon="-1.5827">
        <ele>85</ele>
        <time>2022-01-20T13:54:15Z</time>
      </trkpt>
      <trkpt lat="47.26138" lon="-1.58272">
        <ele>85</ele>
        <time>2022-01-20T13:54:16Z</time>
      </trkpt>
      <trkpt lat="47.26138" lon="-1.58274">
        <ele>85</ele>
        <time>2022-01-20T13:54:17Z</time>
      </trkpt>
      <trkpt lat="47.26136" lon="-1.58276">
        <ele>85</ele>
        <time>2022-01-20T13:54:18Z</time>
      </trkpt>
      <trkpt lat="47.26136" lon="-1.58277">
        <ele>85</ele>
        <time>2022-01-20T13:54:19Z</time>
      </trkpt>
      <trkpt lat="47.26135" lon="-1.58277">
        <ele>85</ele>
        <time>2022-01-20T13:54:20Z</time>
      </trkpt>
      <trkpt lat="47.26134" lon="-1.58277">
        <ele>85</ele>
        <time>2022-01-20T13:54:21Z</time>
      </trkpt>
      <trkpt lat="47.26134" lon="-1.58277">
        <ele>84</ele>
        <time>2022-01-20T13:54:22Z</time>
      </trkpt>
      <trkpt lat="47.26133" lon="-1.58276">
        <ele>84</ele>
        <time>2022-01-20T13:54:23Z</time>
      </trkpt>
      <trkpt lat="47.26132" lon="-1.58276">
        <ele>84</ele>
        <time>2022-01-20T13:54:24Z</time>
      </trkpt>
      <trkpt lat="47.26131" lon="-1.58276">
        <ele>84</ele>
        <time>2022-01-20T13:54:25Z</time>
      </trkpt>
      <trkpt lat="47.2613" lon="-1.58275">
        <ele>85</ele>
        <time>2022-01-20T13:54:26Z</time>
      </trkpt>
      <trkpt lat="47.26129" lon="-1.58275">
        <ele>84</ele>
        <time>2022-01-20T13:54:27Z</time>
      </trkpt>
      <trkpt lat="47.26128" lon="-1.58274">
        <ele>84</ele>
        <time>2022-01-20T13:54:28Z</time>
      </trkpt>
      <trkpt lat="47.26127" lon="-1.58274">
        <ele>84</ele>
        <time>2022-01-20T13:54:29Z</time>
      </trkpt>
      <trkpt lat="47.26126" lon="-1.58273">
        <ele>84</ele>
        <time>2022-01-20T13:54:30Z</time>
      </trkpt>
      <trkpt lat="47.26125" lon="-1.58273">
        <ele>84</ele>
        <time>2022-01-20T13:54:31Z</time>
      </trkpt>
      <trkpt lat="47.26124" lon="-1.58272">
        <ele>84</ele>
        <time>2022-01-20T13:54:32Z</time>
      </trkpt>
      <trkpt lat="47.26123" lon="-1.58271">
        <ele>84</ele>
        <time>2022-01-20T13:54:33Z</time>
      </trkpt>
      <trkpt lat="47.26122" lon="-1.58271">
        <ele>84</ele>
        <time>2022-01-20T13:54:34Z</time>
      </trkpt>
      <trkpt lat="47.26121" lon="-1.58271">
        <ele>84</ele>
        <time>2022-01-20T13:54:35Z</time>
      </trkpt>
      <trkpt lat="47.2612" lon="-1.5827">
        <ele>84</ele>
        <time>2022-01-20T13:54:36Z</time>
      </trkpt>
      <trkpt lat="47.26119" lon="-1.5827">
        <ele>84</ele>
        <time>2022-01-20T13:54:37Z</time>
      </trkpt>
      <trkpt lat="47.26119" lon="-1.58268">
        <ele>84</ele>
        <time>2022-01-20T13:54:38Z</time>
      </trkpt>
      <trkpt lat="47.26118" lon="-1.58267">
        <ele>85</ele>
        <time>2022-01-20T13:54:39Z</time>
      </trkpt>
      <trkpt lat="47.26117" lon="-1.58267">
        <ele>85</ele>
        <time>2022-01-20T13:54:40Z</time>
      </trkpt>
      <trkpt lat="47.26117" lon="-1.58266">
        <ele>85</ele>
        <time>2022-01-20T13:54:41Z</time>
      </trkpt>
      <trkpt lat="47.26116" lon="-1.58265">
        <ele>85</ele>
        <time>2022-01-20T13:54:42Z</time>
      </trkpt>
      <trkpt lat="47.26115" lon="-1.58265">
        <ele>85</ele>
        <time>2022-01-20T13:54:43Z</time>
      </trkpt>
      <trkpt lat="47.26114" lon="-1.58264">
        <ele>85</ele>
        <time>2022-01-20T13:54:44Z</time>
      </trkpt>
      <trkpt lat="47.26112" lon="-1.58263">
        <ele>85</ele>
        <time>2022-01-20T13:54:45Z</time>
      </trkpt>
      <trkpt lat="47.26111" lon="-1.58262">
        <ele>86</ele>
        <time>2022-01-20T13:54:46Z</time>
      </trkpt>
      <trkpt lat="47.2611" lon="-1.58261">
        <ele>85</ele>
        <time>2022-01-20T13:54:47Z</time>
      </trkpt>
      <trkpt lat="47.26109" lon="-1.58261">
        <ele>85</ele>
        <time>2022-01-20T13:54:48Z</time>
      </trkpt>
      <trkpt lat="47.26107" lon="-1.5826">
        <ele>86</ele>
        <time>2022-01-20T13:54:49Z</time>
      </trkpt>
      <trkpt lat="47.26106" lon="-1.58259">
        <ele>85</ele>
        <time>2022-01-20T13:54:50Z</time>
      </trkpt>
      <trkpt lat="47.26104" lon="-1.58258">
        <ele>86</ele>
        <time>2022-01-20T13:54:51Z</time>
      </trkpt>
      <trkpt lat="47.26103" lon="-1.58256">
        <ele>86</ele>
        <time>2022-01-20T13:54:52Z</time>
      </trkpt>
      <trkpt lat="47.26102" lon="-1.58255">
        <ele>86</ele>
        <time>2022-01-20T13:54:53Z</time>
      </trkpt>
      <trkpt lat="47.26101" lon="-1.58254">
        <ele>86</ele>
        <time>2022-01-20T13:54:54Z</time>
      </trkpt>
      <trkpt lat="47.26101" lon="-1.58253">
        <ele>86</ele>
        <time>2022-01-20T13:54:55Z</time>
      </trkpt>
      <trkpt lat="47.26099" lon="-1.58253">
        <ele>86</ele>
        <time>2022-01-20T13:54:56Z</time>
      </trkpt>
      <trkpt lat="47.26098" lon="-1.58252">
        <ele>86</ele>
        <time>2022-01-20T13:54:57Z</time>
      </trkpt>
      <trkpt lat="47.26098" lon="-1.58251">
        <ele>86</ele>
        <time>2022-01-20T13:54:58Z</time>
      </trkpt>
      <trkpt lat="47.26096" lon="-1.58251">
        <ele>86</ele>
        <time>2022-01-20T13:54:59Z</time>
      </trkpt>
      <trkpt lat="47.26094" lon="-1.58249">
        <ele>86</ele>
        <time>2022-01-20T13:55:00Z</time>
      </trkpt>
      <trkpt lat="47.26094" lon="-1.58249">
        <ele>86</ele>
        <time>2022-01-20T13:55:00Z</time>
      </trkpt>
      <trkpt lat="47.26093" lon="-1.58249">
        <ele>86</ele>
        <time>2022-01-20T13:55:02Z</time>
      </trkpt>
      <trkpt lat="47.26092" lon="-1.58248">
        <ele>87</ele>
        <time>2022-01-20T13:55:03Z</time>
      </trkpt>
      <trkpt lat="47.26091" lon="-1.58247">
        <ele>87</ele>
        <time>2022-01-20T13:55:04Z</time>
      </trkpt>
      <trkpt lat="47.2609" lon="-1.58247">
        <ele>86</ele>
        <time>2022-01-20T13:55:05Z</time>
      </trkpt>
      <trkpt lat="47.26088" lon="-1.58245">
        <ele>86</ele>
        <time>2022-01-20T13:55:06Z</time>
      </trkpt>
      <trkpt lat="47.26087" lon="-1.58244">
        <ele>86</ele>
        <time>2022-01-20T13:55:07Z</time>
      </trkpt>
      <trkpt lat="47.26086" lon="-1.58244">
        <ele>85</ele>
        <time>2022-01-20T13:55:08Z</time>
      </trkpt>
      <trkpt lat="47.26085" lon="-1.58243">
        <ele>85</ele>
        <time>2022-01-20T13:55:09Z</time>
      </trkpt>
      <trkpt lat="47.26084" lon="-1.58242">
        <ele>85</ele>
        <time>2022-01-20T13:55:10Z</time>
      </trkpt>
      <trkpt lat="47.26083" lon="-1.58242">
        <ele>84</ele>
        <time>2022-01-20T13:55:11Z</time>
      </trkpt>
      <trkpt lat="47.26081" lon="-1.58241">
        <ele>84</ele>
        <time>2022-01-20T13:55:12Z</time>
      </trkpt>
      <trkpt lat="47.2608" lon="-1.5824">
        <ele>84</ele>
        <time>2022-01-20T13:55:13Z</time>
      </trkpt>
      <trkpt lat="47.26077" lon="-1.58238">
        <ele>84</ele>
        <time>2022-01-20T13:55:14Z</time>
      </trkpt>
      <trkpt lat="47.26077" lon="-1.58238">
        <ele>84</ele>
        <time>2022-01-20T13:55:14Z</time>
      </trkpt>
      <trkpt lat="47.26074" lon="-1.58236">
        <ele>84</ele>
        <time>2022-01-20T13:55:16Z</time>
      </trkpt>
      <trkpt lat="47.26074" lon="-1.58236">
        <ele>84</ele>
        <time>2022-01-20T13:55:16Z</time>
      </trkpt>
      <trkpt lat="47.26073" lon="-1.58235">
        <ele>84</ele>
        <time>2022-01-20T13:55:18Z</time>
      </trkpt>
      <trkpt lat="47.26072" lon="-1.58234">
        <ele>84</ele>
        <time>2022-01-20T13:55:19Z</time>
      </trkpt>
      <trkpt lat="47.2607" lon="-1.58233">
        <ele>84</ele>
        <time>2022-01-20T13:55:20Z</time>
      </trkpt>
      <trkpt lat="47.26069" lon="-1.58232">
        <ele>83</ele>
        <time>2022-01-20T13:55:21Z</time>
      </trkpt>
      <trkpt lat="47.26066" lon="-1.58229">
        <ele>84</ele>
        <time>2022-01-20T13:55:22Z</time>
      </trkpt>
      <trkpt lat="47.26066" lon="-1.58229">
        <ele>84</ele>
        <time>2022-01-20T13:55:22Z</time>
      </trkpt>
      <trkpt lat="47.26063" lon="-1.58227">
        <ele>83</ele>
        <time>2022-01-20T13:55:24Z</time>
      </trkpt>
      <trkpt lat="47.26063" lon="-1.58227">
        <ele>83</ele>
        <time>2022-01-20T13:55:24Z</time>
      </trkpt>
      <trkpt lat="47.26062" lon="-1.58225">
        <ele>83</ele>
        <time>2022-01-20T13:55:26Z</time>
      </trkpt>
      <trkpt lat="47.26061" lon="-1.58224">
        <ele>83</ele>
        <time>2022-01-20T13:55:27Z</time>
      </trkpt>
      <trkpt lat="47.2606" lon="-1.58223">
        <ele>83</ele>
        <time>2022-01-20T13:55:28Z</time>
      </trkpt>
      <trkpt lat="47.2606" lon="-1.58223">
        <ele>83</ele>
        <time>2022-01-20T13:55:28Z</time>
      </trkpt>
      <trkpt lat="47.26058" lon="-1.58222">
        <ele>84</ele>
        <time>2022-01-20T13:55:30Z</time>
      </trkpt>
      <trkpt lat="47.26057" lon="-1.58222">
        <ele>84</ele>
        <time>2022-01-20T13:55:31Z</time>
      </trkpt>
      <trkpt lat="47.26057" lon="-1.58222">
        <ele>84</ele>
        <time>2022-01-20T13:55:31Z</time>
      </trkpt>
      <trkpt lat="47.26055" lon="-1.58221">
        <ele>84</ele>
        <time>2022-01-20T13:55:33Z</time>
      </trkpt>
      <trkpt lat="47.26054" lon="-1.5822">
        <ele>84</ele>
        <time>2022-01-20T13:55:34Z</time>
      </trkpt>
      <trkpt lat="47.26053" lon="-1.5822">
        <ele>83</ele>
        <time>2022-01-20T13:55:35Z</time>
      </trkpt>
      <trkpt lat="47.26052" lon="-1.58221">
        <ele>84</ele>
        <time>2022-01-20T13:55:36Z</time>
      </trkpt>
      <trkpt lat="47.26052" lon="-1.58221">
        <ele>84</ele>
        <time>2022-01-20T13:55:36Z</time>
      </trkpt>
      <trkpt lat="47.2605" lon="-1.5822">
        <ele>84</ele>
        <time>2022-01-20T13:55:38Z</time>
      </trkpt>
      <trkpt lat="47.26049" lon="-1.5822">
        <ele>84</ele>
        <time>2022-01-20T13:55:39Z</time>
      </trkpt>
      <trkpt lat="47.26048" lon="-1.58222">
        <ele>85</ele>
        <time>2022-01-20T13:55:40Z</time>
      </trkpt>
      <trkpt lat="47.26047" lon="-1.58223">
        <ele>85</ele>
        <time>2022-01-20T13:55:41Z</time>
      </trkpt>
      <trkpt lat="47.26046" lon="-1.58224">
        <ele>85</ele>
        <time>2022-01-20T13:55:42Z</time>
      </trkpt>
      <trkpt lat="47.26046" lon="-1.58224">
        <ele>85</ele>
        <time>2022-01-20T13:55:42Z</time>
      </trkpt>
      <trkpt lat="47.26045" lon="-1.58226">
        <ele>85</ele>
        <time>2022-01-20T13:55:44Z</time>
      </trkpt>
      <trkpt lat="47.26045" lon="-1.58226">
        <ele>85</ele>
        <time>2022-01-20T13:55:45Z</time>
      </trkpt>
      <trkpt lat="47.26045" lon="-1.58226">
        <ele>85</ele>
        <time>2022-01-20T13:55:46Z</time>
      </trkpt>
      <trkpt lat="47.26045" lon="-1.58226">
        <ele>85</ele>
        <time>2022-01-20T13:55:47Z</time>
      </trkpt>
      <trkpt lat="47.26045" lon="-1.58226">
        <ele>85</ele>
        <time>2022-01-20T13:55:48Z</time>
      </trkpt>
      <trkpt lat="47.26043" lon="-1.58227">
        <ele>85</ele>
        <time>2022-01-20T13:55:49Z</time>
      </trkpt>
      <trkpt lat="47.26043" lon="-1.58227">
        <ele>85</ele>
        <time>2022-01-20T13:55:49Z</time>
      </trkpt>
      <trkpt lat="47.26041" lon="-1.58228">
        <ele>85</ele>
        <time>2022-01-20T13:55:51Z</time>
      </trkpt>
      <trkpt lat="47.2604" lon="-1.58229">
        <ele>85</ele>
        <time>2022-01-20T13:55:52Z</time>
      </trkpt>
      <trkpt lat="47.26038" lon="-1.5823">
        <ele>85</ele>
        <time>2022-01-20T13:55:53Z</time>
      </trkpt>
      <trkpt lat="47.26037" lon="-1.5823">
        <ele>84</ele>
        <time>2022-01-20T13:55:54Z</time>
      </trkpt>
      <trkpt lat="47.26035" lon="-1.5823">
        <ele>84</ele>
        <time>2022-01-20T13:55:55Z</time>
      </trkpt>
      <trkpt lat="47.26034" lon="-1.5823">
        <ele>84</ele>
        <time>2022-01-20T13:55:56Z</time>
      </trkpt>
      <trkpt lat="47.26033" lon="-1.5823">
        <ele>84</ele>
        <time>2022-01-20T13:55:57Z</time>
      </trkpt>
      <trkpt lat="47.26032" lon="-1.5823">
        <ele>84</ele>
        <time>2022-01-20T13:55:58Z</time>
      </trkpt>
      <trkpt lat="47.26031" lon="-1.5823">
        <ele>85</ele>
        <time>2022-01-20T13:55:59Z</time>
      </trkpt>
      <trkpt lat="47.26029" lon="-1.5823">
        <ele>84</ele>
        <time>2022-01-20T13:56:00Z</time>
      </trkpt>
      <trkpt lat="47.26028" lon="-1.5823">
        <ele>84</ele>
        <time>2022-01-20T13:56:01Z</time>
      </trkpt>
      <trkpt lat="47.26027" lon="-1.58229">
        <ele>84</ele>
        <time>2022-01-20T13:56:02Z</time>
      </trkpt>
      <trkpt lat="47.26025" lon="-1.58229">
        <ele>84</ele>
        <time>2022-01-20T13:56:03Z</time>
      </trkpt>
      <trkpt lat="47.26024" lon="-1.58229">
        <ele>85</ele>
        <time>2022-01-20T13:56:04Z</time>
      </trkpt>
      <trkpt lat="47.26023" lon="-1.58229">
        <ele>85</ele>
        <time>2022-01-20T13:56:05Z</time>
      </trkpt>
      <trkpt lat="47.26022" lon="-1.5823">
        <ele>85</ele>
        <time>2022-01-20T13:56:06Z</time>
      </trkpt>
      <trkpt lat="47.26022" lon="-1.58231">
        <ele>86</ele>
        <time>2022-01-20T13:56:07Z</time>
      </trkpt>
      <trkpt lat="47.2602" lon="-1.58232">
        <ele>86</ele>
        <time>2022-01-20T13:56:08Z</time>
      </trkpt>
      <trkpt lat="47.26019" lon="-1.58233">
        <ele>86</ele>
        <time>2022-01-20T13:56:09Z</time>
      </trkpt>
      <trkpt lat="47.26019" lon="-1.58233">
        <ele>86</ele>
        <time>2022-01-20T13:56:09Z</time>
      </trkpt>
      <trkpt lat="47.26019" lon="-1.58236">
        <ele>86</ele>
        <time>2022-01-20T13:56:11Z</time>
      </trkpt>
      <trkpt lat="47.26019" lon="-1.58237">
        <ele>86</ele>
        <time>2022-01-20T13:56:12Z</time>
      </trkpt>
      <trkpt lat="47.26018" lon="-1.58238">
        <ele>87</ele>
        <time>2022-01-20T13:56:13Z</time>
      </trkpt>
      <trkpt lat="47.26018" lon="-1.58239">
        <ele>86</ele>
        <time>2022-01-20T13:56:14Z</time>
      </trkpt>
      <trkpt lat="47.26018" lon="-1.5824">
        <ele>87</ele>
        <time>2022-01-20T13:56:15Z</time>
      </trkpt>
      <trkpt lat="47.26018" lon="-1.58242">
        <ele>88</ele>
        <time>2022-01-20T13:56:16Z</time>
      </trkpt>
      <trkpt lat="47.26018" lon="-1.58243">
        <ele>88</ele>
        <time>2022-01-20T13:56:17Z</time>
      </trkpt>
      <trkpt lat="47.26018" lon="-1.58244">
        <ele>88</ele>
        <time>2022-01-20T13:56:18Z</time>
      </trkpt>
      <trkpt lat="47.26018" lon="-1.58244">
        <ele>88</ele>
        <time>2022-01-20T13:56:19Z</time>
      </trkpt>
      <trkpt lat="47.26018" lon="-1.58245">
        <ele>88</ele>
        <time>2022-01-20T13:56:20Z</time>
      </trkpt>
      <trkpt lat="47.26017" lon="-1.58247">
        <ele>88</ele>
        <time>2022-01-20T13:56:21Z</time>
      </trkpt>
      <trkpt lat="47.26017" lon="-1.58248">
        <ele>87</ele>
        <time>2022-01-20T13:56:22Z</time>
      </trkpt>
      <trkpt lat="47.26017" lon="-1.58249">
        <ele>88</ele>
        <time>2022-01-20T13:56:23Z</time>
      </trkpt>
      <trkpt lat="47.26017" lon="-1.58249">
        <ele>88</ele>
        <time>2022-01-20T13:56:24Z</time>
      </trkpt>
      <trkpt lat="47.26017" lon="-1.58249">
        <ele>88</ele>
        <time>2022-01-20T13:56:25Z</time>
      </trkpt>
      <trkpt lat="47.26017" lon="-1.58255">
        <ele>88</ele>
        <time>2022-01-20T13:56:26Z</time>
      </trkpt>
      <trkpt lat="47.26017" lon="-1.58256">
        <ele>89</ele>
        <time>2022-01-20T13:56:27Z</time>
      </trkpt>
      <trkpt lat="47.26017" lon="-1.58258">
        <ele>89</ele>
        <time>2022-01-20T13:56:28Z</time>
      </trkpt>
      <trkpt lat="47.26017" lon="-1.5826">
        <ele>89</ele>
        <time>2022-01-20T13:56:29Z</time>
      </trkpt>
      <trkpt lat="47.26017" lon="-1.58262">
        <ele>89</ele>
        <time>2022-01-20T13:56:30Z</time>
      </trkpt>
      <trkpt lat="47.26017" lon="-1.58262">
        <ele>89</ele>
        <time>2022-01-20T13:56:31Z</time>
      </trkpt>
      <trkpt lat="47.26018" lon="-1.58264">
        <ele>89</ele>
        <time>2022-01-20T13:56:32Z</time>
      </trkpt>
      <trkpt lat="47.26018" lon="-1.58265">
        <ele>90</ele>
        <time>2022-01-20T13:56:33Z</time>
      </trkpt>
      <trkpt lat="47.26018" lon="-1.58267">
        <ele>89</ele>
        <time>2022-01-20T13:56:34Z</time>
      </trkpt>
      <trkpt lat="47.26018" lon="-1.5827">
        <ele>90</ele>
        <time>2022-01-20T13:56:35Z</time>
      </trkpt>
      <trkpt lat="47.26018" lon="-1.5827">
        <ele>90</ele>
        <time>2022-01-20T13:56:36Z</time>
      </trkpt>
      <trkpt lat="47.26018" lon="-1.5827">
        <ele>90</ele>
        <time>2022-01-20T13:56:37Z</time>
      </trkpt>
      <trkpt lat="47.26018" lon="-1.58274">
        <ele>89</ele>
        <time>2022-01-20T13:56:38Z</time>
      </trkpt>
      <trkpt lat="47.26019" lon="-1.58276">
        <ele>89</ele>
        <time>2022-01-20T13:56:39Z</time>
      </trkpt>
      <trkpt lat="47.2602" lon="-1.58278">
        <ele>89</ele>
        <time>2022-01-20T13:56:40Z</time>
      </trkpt>
      <trkpt lat="47.2602" lon="-1.5828">
        <ele>90</ele>
        <time>2022-01-20T13:56:41Z</time>
      </trkpt>
      <trkpt lat="47.2602" lon="-1.5828">
        <ele>90</ele>
        <time>2022-01-20T13:56:42Z</time>
      </trkpt>
      <trkpt lat="47.2602" lon="-1.58281">
        <ele>90</ele>
        <time>2022-01-20T13:56:43Z</time>
      </trkpt>
      <trkpt lat="47.2602" lon="-1.58283">
        <ele>89</ele>
        <time>2022-01-20T13:56:44Z</time>
      </trkpt>
      <trkpt lat="47.2602" lon="-1.58284">
        <ele>90</ele>
        <time>2022-01-20T13:56:45Z</time>
      </trkpt>
      <trkpt lat="47.2602" lon="-1.58287">
        <ele>90</ele>
        <time>2022-01-20T13:56:46Z</time>
      </trkpt>
      <trkpt lat="47.2602" lon="-1.58287">
        <ele>90</ele>
        <time>2022-01-20T13:56:47Z</time>
      </trkpt>
      <trkpt lat="47.2602" lon="-1.58287">
        <ele>90</ele>
        <time>2022-01-20T13:56:48Z</time>
      </trkpt>
      <trkpt lat="47.26021" lon="-1.58293">
        <ele>90</ele>
        <time>2022-01-20T13:56:49Z</time>
      </trkpt>
      <trkpt lat="47.26021" lon="-1.58294">
        <ele>90</ele>
        <time>2022-01-20T13:56:50Z</time>
      </trkpt>
      <trkpt lat="47.26021" lon="-1.58296">
        <ele>90</ele>
        <time>2022-01-20T13:56:51Z</time>
      </trkpt>
      <trkpt lat="47.26021" lon="-1.58298">
        <ele>90</ele>
        <time>2022-01-20T13:56:52Z</time>
      </trkpt>
      <trkpt lat="47.26021" lon="-1.58298">
        <ele>90</ele>
        <time>2022-01-20T13:56:53Z</time>
      </trkpt>
      <trkpt lat="47.26022" lon="-1.58302">
        <ele>89</ele>
        <time>2022-01-20T13:56:54Z</time>
      </trkpt>
      <trkpt lat="47.26022" lon="-1.58305">
        <ele>90</ele>
        <time>2022-01-20T13:56:55Z</time>
      </trkpt>
      <trkpt lat="47.26022" lon="-1.58307">
        <ele>89</ele>
        <time>2022-01-20T13:56:56Z</time>
      </trkpt>
      <trkpt lat="47.26022" lon="-1.5831">
        <ele>89</ele>
        <time>2022-01-20T13:56:57Z</time>
      </trkpt>
      <trkpt lat="47.26023" lon="-1.58312">
        <ele>89</ele>
        <time>2022-01-20T13:56:58Z</time>
      </trkpt>
      <trkpt lat="47.26024" lon="-1.58315">
        <ele>88</ele>
        <time>2022-01-20T13:56:59Z</time>
      </trkpt>
      <trkpt lat="47.26024" lon="-1.58318">
        <ele>88</ele>
        <time>2022-01-20T13:57:00Z</time>
      </trkpt>
      <trkpt lat="47.26024" lon="-1.5832">
        <ele>88</ele>
        <time>2022-01-20T13:57:01Z</time>
      </trkpt>
      <trkpt lat="47.26024" lon="-1.58322">
        <ele>89</ele>
        <time>2022-01-20T13:57:02Z</time>
      </trkpt>
      <trkpt lat="47.26024" lon="-1.58324">
        <ele>89</ele>
        <time>2022-01-20T13:57:03Z</time>
      </trkpt>
      <trkpt lat="47.26024" lon="-1.58324">
        <ele>89</ele>
        <time>2022-01-20T13:57:04Z</time>
      </trkpt>
      <trkpt lat="47.26024" lon="-1.58324">
        <ele>89</ele>
        <time>2022-01-20T13:57:05Z</time>
      </trkpt>
      <trkpt lat="47.26023" lon="-1.58329">
        <ele>89</ele>
        <time>2022-01-20T13:57:06Z</time>
      </trkpt>
      <trkpt lat="47.26023" lon="-1.58331">
        <ele>89</ele>
        <time>2022-01-20T13:57:07Z</time>
      </trkpt>
      <trkpt lat="47.26023" lon="-1.58333">
        <ele>89</ele>
        <time>2022-01-20T13:57:08Z</time>
      </trkpt>
      <trkpt lat="47.26022" lon="-1.58335">
        <ele>88</ele>
        <time>2022-01-20T13:57:09Z</time>
      </trkpt>
      <trkpt lat="47.26022" lon="-1.58335">
        <ele>88</ele>
        <time>2022-01-20T13:57:10Z</time>
      </trkpt>
      <trkpt lat="47.26021" lon="-1.58338">
        <ele>87</ele>
        <time>2022-01-20T13:57:11Z</time>
      </trkpt>
      <trkpt lat="47.26021" lon="-1.5834">
        <ele>86</ele>
        <time>2022-01-20T13:57:12Z</time>
      </trkpt>
      <trkpt lat="47.26021" lon="-1.58342">
        <ele>85</ele>
        <time>2022-01-20T13:57:13Z</time>
      </trkpt>
      <trkpt lat="47.2602" lon="-1.58342">
        <ele>84</ele>
        <time>2022-01-20T13:57:14Z</time>
      </trkpt>
      <trkpt lat="47.2602" lon="-1.58345">
        <ele>84</ele>
        <time>2022-01-20T13:57:15Z</time>
      </trkpt>
      <trkpt lat="47.26021" lon="-1.58347">
        <ele>85</ele>
        <time>2022-01-20T13:57:16Z</time>
      </trkpt>
      <trkpt lat="47.26021" lon="-1.58349">
        <ele>85</ele>
        <time>2022-01-20T13:57:17Z</time>
      </trkpt>
      <trkpt lat="47.26022" lon="-1.58351">
        <ele>87</ele>
        <time>2022-01-20T13:57:18Z</time>
      </trkpt>
      <trkpt lat="47.26022" lon="-1.58354">
        <ele>86</ele>
        <time>2022-01-20T13:57:19Z</time>
      </trkpt>
      <trkpt lat="47.26023" lon="-1.58356">
        <ele>87</ele>
        <time>2022-01-20T13:57:20Z</time>
      </trkpt>
      <trkpt lat="47.26024" lon="-1.58358">
        <ele>86</ele>
        <time>2022-01-20T13:57:21Z</time>
      </trkpt>
      <trkpt lat="47.26025" lon="-1.5836">
        <ele>87</ele>
        <time>2022-01-20T13:57:22Z</time>
      </trkpt>
      <trkpt lat="47.26025" lon="-1.58362">
        <ele>88</ele>
        <time>2022-01-20T13:57:23Z</time>
      </trkpt>
      <trkpt lat="47.26026" lon="-1.58364">
        <ele>88</ele>
        <time>2022-01-20T13:57:24Z</time>
      </trkpt>
      <trkpt lat="47.26026" lon="-1.58366">
        <ele>88</ele>
        <time>2022-01-20T13:57:25Z</time>
      </trkpt>
      <trkpt lat="47.26026" lon="-1.58368">
        <ele>89</ele>
        <time>2022-01-20T13:57:26Z</time>
      </trkpt>
      <trkpt lat="47.26027" lon="-1.5837">
        <ele>89</ele>
        <time>2022-01-20T13:57:27Z</time>
      </trkpt>
      <trkpt lat="47.26027" lon="-1.58373">
        <ele>90</ele>
        <time>2022-01-20T13:57:28Z</time>
      </trkpt>
      <trkpt lat="47.26027" lon="-1.58376">
        <ele>90</ele>
        <time>2022-01-20T13:57:29Z</time>
      </trkpt>
      <trkpt lat="47.26027" lon="-1.58378">
        <ele>90</ele>
        <time>2022-01-20T13:57:30Z</time>
      </trkpt>
      <trkpt lat="47.26027" lon="-1.58379">
        <ele>90</ele>
        <time>2022-01-20T13:57:31Z</time>
      </trkpt>
      <trkpt lat="47.26027" lon="-1.58381">
        <ele>91</ele>
        <time>2022-01-20T13:57:32Z</time>
      </trkpt>
      <trkpt lat="47.26028" lon="-1.58382">
        <ele>92</ele>
        <time>2022-01-20T13:57:33Z</time>
      </trkpt>
      <trkpt lat="47.26028" lon="-1.58384">
        <ele>93</ele>
        <time>2022-01-20T13:57:34Z</time>
      </trkpt>
      <trkpt lat="47.26029" lon="-1.58386">
        <ele>93</ele>
        <time>2022-01-20T13:57:35Z</time>
      </trkpt>
      <trkpt lat="47.26029" lon="-1.58388">
        <ele>93</ele>
        <time>2022-01-20T13:57:36Z</time>
      </trkpt>
      <trkpt lat="47.2603" lon="-1.5839">
        <ele>94</ele>
        <time>2022-01-20T13:57:37Z</time>
      </trkpt>
      <trkpt lat="47.2603" lon="-1.58391">
        <ele>94</ele>
        <time>2022-01-20T13:57:38Z</time>
      </trkpt>
      <trkpt lat="47.2603" lon="-1.58394">
        <ele>94</ele>
        <time>2022-01-20T13:57:39Z</time>
      </trkpt>
      <trkpt lat="47.26031" lon="-1.58395">
        <ele>94</ele>
        <time>2022-01-20T13:57:40Z</time>
      </trkpt>
      <trkpt lat="47.26032" lon="-1.58397">
        <ele>95</ele>
        <time>2022-01-20T13:57:41Z</time>
      </trkpt>
      <trkpt lat="47.26032" lon="-1.58398">
        <ele>96</ele>
        <time>2022-01-20T13:57:42Z</time>
      </trkpt>
      <trkpt lat="47.26033" lon="-1.584">
        <ele>96</ele>
        <time>2022-01-20T13:57:43Z</time>
      </trkpt>
      <trkpt lat="47.26033" lon="-1.58401">
        <ele>97</ele>
        <time>2022-01-20T13:57:44Z</time>
      </trkpt>
      <trkpt lat="47.26033" lon="-1.58403">
        <ele>98</ele>
        <time>2022-01-20T13:57:45Z</time>
      </trkpt>
      <trkpt lat="47.26034" lon="-1.58405">
        <ele>99</ele>
        <time>2022-01-20T13:57:46Z</time>
      </trkpt>
      <trkpt lat="47.26035" lon="-1.58407">
        <ele>100</ele>
        <time>2022-01-20T13:57:47Z</time>
      </trkpt>
      <trkpt lat="47.26035" lon="-1.58409">
        <ele>100</ele>
        <time>2022-01-20T13:57:48Z</time>
      </trkpt>
      <trkpt lat="47.26034" lon="-1.58412">
        <ele>100</ele>
        <time>2022-01-20T13:57:49Z</time>
      </trkpt>
      <trkpt lat="47.26033" lon="-1.58414">
        <ele>99</ele>
        <time>2022-01-20T13:57:50Z</time>
      </trkpt>
      <trkpt lat="47.26033" lon="-1.58416">
        <ele>99</ele>
        <time>2022-01-20T13:57:51Z</time>
      </trkpt>
      <trkpt lat="47.26033" lon="-1.58416">
        <ele>99</ele>
        <time>2022-01-20T13:57:52Z</time>
      </trkpt>
      <trkpt lat="47.26033" lon="-1.58416">
        <ele>99</ele>
        <time>2022-01-20T13:57:53Z</time>
      </trkpt>
      <trkpt lat="47.26034" lon="-1.5842">
        <ele>98</ele>
        <time>2022-01-20T13:57:54Z</time>
      </trkpt>
      <trkpt lat="47.26035" lon="-1.58421">
        <ele>98</ele>
        <time>2022-01-20T13:57:55Z</time>
      </trkpt>
      <trkpt lat="47.26034" lon="-1.58421">
        <ele>98</ele>
        <time>2022-01-20T13:57:56Z</time>
      </trkpt>
      <trkpt lat="47.26034" lon="-1.58422">
        <ele>98</ele>
        <time>2022-01-20T13:57:57Z</time>
      </trkpt>
      <trkpt lat="47.26034" lon="-1.58422">
        <ele>98</ele>
        <time>2022-01-20T13:57:58Z</time>
      </trkpt>
      <trkpt lat="47.26034" lon="-1.58422">
        <ele>98</ele>
        <time>2022-01-20T13:57:59Z</time>
      </trkpt>
      <trkpt lat="47.26034" lon="-1.58426">
        <ele>98</ele>
        <time>2022-01-20T13:58:00Z</time>
      </trkpt>
      <trkpt lat="47.26035" lon="-1.58427">
        <ele>98</ele>
        <time>2022-01-20T13:58:01Z</time>
      </trkpt>
      <trkpt lat="47.26035" lon="-1.58429">
        <ele>98</ele>
        <time>2022-01-20T13:58:02Z</time>
      </trkpt>
      <trkpt lat="47.26036" lon="-1.5843">
        <ele>98</ele>
        <time>2022-01-20T13:58:03Z</time>
      </trkpt>
      <trkpt lat="47.26037" lon="-1.58433">
        <ele>98</ele>
        <time>2022-01-20T13:58:04Z</time>
      </trkpt>
      <trkpt lat="47.26037" lon="-1.58435">
        <ele>97</ele>
        <time>2022-01-20T13:58:05Z</time>
      </trkpt>
      <trkpt lat="47.26038" lon="-1.58437">
        <ele>96</ele>
        <time>2022-01-20T13:58:06Z</time>
      </trkpt>
      <trkpt lat="47.26039" lon="-1.5844">
        <ele>96</ele>
        <time>2022-01-20T13:58:07Z</time>
      </trkpt>
      <trkpt lat="47.26039" lon="-1.58442">
        <ele>96</ele>
        <time>2022-01-20T13:58:08Z</time>
      </trkpt>
      <trkpt lat="47.26039" lon="-1.58445">
        <ele>96</ele>
        <time>2022-01-20T13:58:09Z</time>
      </trkpt>
      <trkpt lat="47.2604" lon="-1.58447">
        <ele>95</ele>
        <time>2022-01-20T13:58:10Z</time>
      </trkpt>
      <trkpt lat="47.2604" lon="-1.5845">
        <ele>96</ele>
        <time>2022-01-20T13:58:11Z</time>
      </trkpt>
      <trkpt lat="47.26041" lon="-1.58452">
        <ele>96</ele>
        <time>2022-01-20T13:58:12Z</time>
      </trkpt>
      <trkpt lat="47.26042" lon="-1.58454">
        <ele>95</ele>
        <time>2022-01-20T13:58:13Z</time>
      </trkpt>
      <trkpt lat="47.26042" lon="-1.58457">
        <ele>95</ele>
        <time>2022-01-20T13:58:14Z</time>
      </trkpt>
      <trkpt lat="47.26043" lon="-1.58459">
        <ele>95</ele>
        <time>2022-01-20T13:58:15Z</time>
      </trkpt>
      <trkpt lat="47.26043" lon="-1.58462">
        <ele>95</ele>
        <time>2022-01-20T13:58:16Z</time>
      </trkpt>
      <trkpt lat="47.26043" lon="-1.58464">
        <ele>94</ele>
        <time>2022-01-20T13:58:17Z</time>
      </trkpt>
      <trkpt lat="47.26044" lon="-1.58466">
        <ele>94</ele>
        <time>2022-01-20T13:58:18Z</time>
      </trkpt>
      <trkpt lat="47.26045" lon="-1.58468">
        <ele>94</ele>
        <time>2022-01-20T13:58:19Z</time>
      </trkpt>
      <trkpt lat="47.26045" lon="-1.5847">
        <ele>94</ele>
        <time>2022-01-20T13:58:20Z</time>
      </trkpt>
      <trkpt lat="47.26046" lon="-1.58473">
        <ele>94</ele>
        <time>2022-01-20T13:58:21Z</time>
      </trkpt>
      <trkpt lat="47.26046" lon="-1.58475">
        <ele>94</ele>
        <time>2022-01-20T13:58:22Z</time>
      </trkpt>
      <trkpt lat="47.26047" lon="-1.58477">
        <ele>94</ele>
        <time>2022-01-20T13:58:23Z</time>
      </trkpt>
      <trkpt lat="47.26047" lon="-1.5848">
        <ele>94</ele>
        <time>2022-01-20T13:58:24Z</time>
      </trkpt>
      <trkpt lat="47.26047" lon="-1.58482">
        <ele>94</ele>
        <time>2022-01-20T13:58:25Z</time>
      </trkpt>
      <trkpt lat="47.26048" lon="-1.58485">
        <ele>94</ele>
        <time>2022-01-20T13:58:26Z</time>
      </trkpt>
      <trkpt lat="47.26048" lon="-1.58487">
        <ele>95</ele>
        <time>2022-01-20T13:58:27Z</time>
      </trkpt>
      <trkpt lat="47.26049" lon="-1.58489">
        <ele>94</ele>
        <time>2022-01-20T13:58:28Z</time>
      </trkpt>
      <trkpt lat="47.26048" lon="-1.58491">
        <ele>94</ele>
        <time>2022-01-20T13:58:29Z</time>
      </trkpt>
      <trkpt lat="47.26049" lon="-1.58494">
        <ele>95</ele>
        <time>2022-01-20T13:58:30Z</time>
      </trkpt>
      <trkpt lat="47.26049" lon="-1.58496">
        <ele>95</ele>
        <time>2022-01-20T13:58:31Z</time>
      </trkpt>
      <trkpt lat="47.26049" lon="-1.58499">
        <ele>95</ele>
        <time>2022-01-20T13:58:32Z</time>
      </trkpt>
      <trkpt lat="47.2605" lon="-1.58501">
        <ele>94</ele>
        <time>2022-01-20T13:58:33Z</time>
      </trkpt>
      <trkpt lat="47.26049" lon="-1.58503">
        <ele>94</ele>
        <time>2022-01-20T13:58:34Z</time>
      </trkpt>
      <trkpt lat="47.26049" lon="-1.58505">
        <ele>94</ele>
        <time>2022-01-20T13:58:35Z</time>
      </trkpt>
      <trkpt lat="47.26049" lon="-1.58505">
        <ele>94</ele>
        <time>2022-01-20T13:58:36Z</time>
      </trkpt>
      <trkpt lat="47.26049" lon="-1.58505">
        <ele>94</ele>
        <time>2022-01-20T13:58:37Z</time>
      </trkpt>
      <trkpt lat="47.26049" lon="-1.58511">
        <ele>93</ele>
        <time>2022-01-20T13:58:38Z</time>
      </trkpt>
      <trkpt lat="47.26049" lon="-1.58513">
        <ele>92</ele>
        <time>2022-01-20T13:58:39Z</time>
      </trkpt>
      <trkpt lat="47.26049" lon="-1.58516">
        <ele>91</ele>
        <time>2022-01-20T13:58:40Z</time>
      </trkpt>
      <trkpt lat="47.26049" lon="-1.58518">
        <ele>90</ele>
        <time>2022-01-20T13:58:41Z</time>
      </trkpt>
      <trkpt lat="47.26049" lon="-1.58521">
        <ele>90</ele>
        <time>2022-01-20T13:58:42Z</time>
      </trkpt>
      <trkpt lat="47.26049" lon="-1.58523">
        <ele>89</ele>
        <time>2022-01-20T13:58:43Z</time>
      </trkpt>
      <trkpt lat="47.26049" lon="-1.58525">
        <ele>89</ele>
        <time>2022-01-20T13:58:44Z</time>
      </trkpt>
      <trkpt lat="47.26049" lon="-1.58525">
        <ele>89</ele>
        <time>2022-01-20T13:58:45Z</time>
      </trkpt>
      <trkpt lat="47.26048" lon="-1.58529">
        <ele>89</ele>
        <time>2022-01-20T13:58:46Z</time>
      </trkpt>
      <trkpt lat="47.26048" lon="-1.58531">
        <ele>88</ele>
        <time>2022-01-20T13:58:47Z</time>
      </trkpt>
      <trkpt lat="47.26048" lon="-1.58533">
        <ele>88</ele>
        <time>2022-01-20T13:58:48Z</time>
      </trkpt>
      <trkpt lat="47.26048" lon="-1.58535">
        <ele>88</ele>
        <time>2022-01-20T13:58:49Z</time>
      </trkpt>
      <trkpt lat="47.26048" lon="-1.58537">
        <ele>88</ele>
        <time>2022-01-20T13:58:50Z</time>
      </trkpt>
      <trkpt lat="47.26048" lon="-1.58539">
        <ele>88</ele>
        <time>2022-01-20T13:58:51Z</time>
      </trkpt>
      <trkpt lat="47.26048" lon="-1.58542">
        <ele>88</ele>
        <time>2022-01-20T13:58:52Z</time>
      </trkpt>
      <trkpt lat="47.26048" lon="-1.58544">
        <ele>89</ele>
        <time>2022-01-20T13:58:53Z</time>
      </trkpt>
      <trkpt lat="47.26048" lon="-1.58545">
        <ele>89</ele>
        <time>2022-01-20T13:58:54Z</time>
      </trkpt>
      <trkpt lat="47.26048" lon="-1.58548">
        <ele>89</ele>
        <time>2022-01-20T13:58:55Z</time>
      </trkpt>
      <trkpt lat="47.26048" lon="-1.5855">
        <ele>89</ele>
        <time>2022-01-20T13:58:56Z</time>
      </trkpt>
      <trkpt lat="47.26048" lon="-1.58552">
        <ele>89</ele>
        <time>2022-01-20T13:58:57Z</time>
      </trkpt>
      <trkpt lat="47.26049" lon="-1.58554">
        <ele>90</ele>
        <time>2022-01-20T13:58:58Z</time>
      </trkpt>
      <trkpt lat="47.26049" lon="-1.58557">
        <ele>90</ele>
        <time>2022-01-20T13:58:59Z</time>
      </trkpt>
      <trkpt lat="47.2605" lon="-1.5856">
        <ele>90</ele>
        <time>2022-01-20T13:59:00Z</time>
      </trkpt>
      <trkpt lat="47.2605" lon="-1.58562">
        <ele>90</ele>
        <time>2022-01-20T13:59:01Z</time>
      </trkpt>
      <trkpt lat="47.2605" lon="-1.58564">
        <ele>89</ele>
        <time>2022-01-20T13:59:02Z</time>
      </trkpt>
      <trkpt lat="47.2605" lon="-1.58566">
        <ele>89</ele>
        <time>2022-01-20T13:59:03Z</time>
      </trkpt>
      <trkpt lat="47.2605" lon="-1.58569">
        <ele>88</ele>
        <time>2022-01-20T13:59:04Z</time>
      </trkpt>
      <trkpt lat="47.2605" lon="-1.58572">
        <ele>88</ele>
        <time>2022-01-20T13:59:05Z</time>
      </trkpt>
      <trkpt lat="47.26051" lon="-1.58573">
        <ele>88</ele>
        <time>2022-01-20T13:59:06Z</time>
      </trkpt>
      <trkpt lat="47.26051" lon="-1.58575">
        <ele>88</ele>
        <time>2022-01-20T13:59:07Z</time>
      </trkpt>
      <trkpt lat="47.26051" lon="-1.58577">
        <ele>88</ele>
        <time>2022-01-20T13:59:08Z</time>
      </trkpt>
      <trkpt lat="47.26052" lon="-1.58579">
        <ele>89</ele>
        <time>2022-01-20T13:59:09Z</time>
      </trkpt>
      <trkpt lat="47.26052" lon="-1.58582">
        <ele>89</ele>
        <time>2022-01-20T13:59:10Z</time>
      </trkpt>
      <trkpt lat="47.26053" lon="-1.58584">
        <ele>89</ele>
        <time>2022-01-20T13:59:11Z</time>
      </trkpt>
      <trkpt lat="47.26053" lon="-1.58585">
        <ele>88</ele>
        <time>2022-01-20T13:59:12Z</time>
      </trkpt>
      <trkpt lat="47.26053" lon="-1.58587">
        <ele>88</ele>
        <time>2022-01-20T13:59:13Z</time>
      </trkpt>
      <trkpt lat="47.26054" lon="-1.58589">
        <ele>88</ele>
        <time>2022-01-20T13:59:14Z</time>
      </trkpt>
      <trkpt lat="47.26054" lon="-1.58591">
        <ele>88</ele>
        <time>2022-01-20T13:59:15Z</time>
      </trkpt>
      <trkpt lat="47.26054" lon="-1.58593">
        <ele>88</ele>
        <time>2022-01-20T13:59:16Z</time>
      </trkpt>
      <trkpt lat="47.26055" lon="-1.58595">
        <ele>89</ele>
        <time>2022-01-20T13:59:17Z</time>
      </trkpt>
      <trkpt lat="47.26056" lon="-1.58597">
        <ele>89</ele>
        <time>2022-01-20T13:59:18Z</time>
      </trkpt>
      <trkpt lat="47.26056" lon="-1.58599">
        <ele>89</ele>
        <time>2022-01-20T13:59:19Z</time>
      </trkpt>
      <trkpt lat="47.26056" lon="-1.58601">
        <ele>90</ele>
        <time>2022-01-20T13:59:20Z</time>
      </trkpt>
      <trkpt lat="47.26057" lon="-1.58603">
        <ele>90</ele>
        <time>2022-01-20T13:59:21Z</time>
      </trkpt>
      <trkpt lat="47.26057" lon="-1.58604">
        <ele>90</ele>
        <time>2022-01-20T13:59:22Z</time>
      </trkpt>
      <trkpt lat="47.26058" lon="-1.58606">
        <ele>90</ele>
        <time>2022-01-20T13:59:23Z</time>
      </trkpt>
      <trkpt lat="47.26058" lon="-1.58608">
        <ele>91</ele>
        <time>2022-01-20T13:59:24Z</time>
      </trkpt>
      <trkpt lat="47.26059" lon="-1.5861">
        <ele>91</ele>
        <time>2022-01-20T13:59:25Z</time>
      </trkpt>
      <trkpt lat="47.26059" lon="-1.58613">
        <ele>91</ele>
        <time>2022-01-20T13:59:26Z</time>
      </trkpt>
      <trkpt lat="47.26059" lon="-1.58615">
        <ele>91</ele>
        <time>2022-01-20T13:59:27Z</time>
      </trkpt>
      <trkpt lat="47.26059" lon="-1.58618">
        <ele>91</ele>
        <time>2022-01-20T13:59:28Z</time>
      </trkpt>
      <trkpt lat="47.26059" lon="-1.5862">
        <ele>91</ele>
        <time>2022-01-20T13:59:29Z</time>
      </trkpt>
      <trkpt lat="47.2606" lon="-1.58621">
        <ele>91</ele>
        <time>2022-01-20T13:59:30Z</time>
      </trkpt>
      <trkpt lat="47.26061" lon="-1.58624">
        <ele>91</ele>
        <time>2022-01-20T13:59:31Z</time>
      </trkpt>
      <trkpt lat="47.26061" lon="-1.58626">
        <ele>91</ele>
        <time>2022-01-20T13:59:32Z</time>
      </trkpt>
      <trkpt lat="47.26061" lon="-1.58628">
        <ele>92</ele>
        <time>2022-01-20T13:59:33Z</time>
      </trkpt>
      <trkpt lat="47.26061" lon="-1.5863">
        <ele>91</ele>
        <time>2022-01-20T13:59:34Z</time>
      </trkpt>
      <trkpt lat="47.26062" lon="-1.58632">
        <ele>92</ele>
        <time>2022-01-20T13:59:35Z</time>
      </trkpt>
      <trkpt lat="47.26062" lon="-1.58634">
        <ele>92</ele>
        <time>2022-01-20T13:59:36Z</time>
      </trkpt>
      <trkpt lat="47.26062" lon="-1.58636">
        <ele>92</ele>
        <time>2022-01-20T13:59:37Z</time>
      </trkpt>
      <trkpt lat="47.26062" lon="-1.58638">
        <ele>92</ele>
        <time>2022-01-20T13:59:38Z</time>
      </trkpt>
      <trkpt lat="47.26062" lon="-1.5864">
        <ele>92</ele>
        <time>2022-01-20T13:59:39Z</time>
      </trkpt>
      <trkpt lat="47.26062" lon="-1.58642">
        <ele>92</ele>
        <time>2022-01-20T13:59:40Z</time>
      </trkpt>
      <trkpt lat="47.26062" lon="-1.58644">
        <ele>92</ele>
        <time>2022-01-20T13:59:41Z</time>
      </trkpt>
      <trkpt lat="47.26062" lon="-1.58646">
        <ele>92</ele>
        <time>2022-01-20T13:59:42Z</time>
      </trkpt>
      <trkpt lat="47.26062" lon="-1.58648">
        <ele>93</ele>
        <time>2022-01-20T13:59:43Z</time>
      </trkpt>
      <trkpt lat="47.26062" lon="-1.5865">
        <ele>93</ele>
        <time>2022-01-20T13:59:44Z</time>
      </trkpt>
      <trkpt lat="47.26062" lon="-1.58651">
        <ele>94</ele>
        <time>2022-01-20T13:59:45Z</time>
      </trkpt>
      <trkpt lat="47.26062" lon="-1.58651">
        <ele>94</ele>
        <time>2022-01-20T13:59:46Z</time>
      </trkpt>
      <trkpt lat="47.26062" lon="-1.58651">
        <ele>94</ele>
        <time>2022-01-20T13:59:47Z</time>
      </trkpt>
      <trkpt lat="47.26063" lon="-1.58656">
        <ele>93</ele>
        <time>2022-01-20T13:59:48Z</time>
      </trkpt>
      <trkpt lat="47.26064" lon="-1.58658">
        <ele>93</ele>
        <time>2022-01-20T13:59:49Z</time>
      </trkpt>
      <trkpt lat="47.26064" lon="-1.58661">
        <ele>93</ele>
        <time>2022-01-20T13:59:50Z</time>
      </trkpt>
      <trkpt lat="47.26064" lon="-1.58664">
        <ele>93</ele>
        <time>2022-01-20T13:59:51Z</time>
      </trkpt>
      <trkpt lat="47.26064" lon="-1.58666">
        <ele>93</ele>
        <time>2022-01-20T13:59:52Z</time>
      </trkpt>
      <trkpt lat="47.26065" lon="-1.58668">
        <ele>93</ele>
        <time>2022-01-20T13:59:53Z</time>
      </trkpt>
      <trkpt lat="47.26065" lon="-1.5867">
        <ele>94</ele>
        <time>2022-01-20T13:59:54Z</time>
      </trkpt>
      <trkpt lat="47.26065" lon="-1.58672">
        <ele>94</ele>
        <time>2022-01-20T13:59:55Z</time>
      </trkpt>
      <trkpt lat="47.26064" lon="-1.58674">
        <ele>95</ele>
        <time>2022-01-20T13:59:56Z</time>
      </trkpt>
      <trkpt lat="47.26065" lon="-1.58676">
        <ele>94</ele>
        <time>2022-01-20T13:59:57Z</time>
      </trkpt>
      <trkpt lat="47.26065" lon="-1.58678">
        <ele>94</ele>
        <time>2022-01-20T13:59:58Z</time>
      </trkpt>
      <trkpt lat="47.26065" lon="-1.5868">
        <ele>94</ele>
        <time>2022-01-20T13:59:59Z</time>
      </trkpt>
      <trkpt lat="47.26066" lon="-1.58682">
        <ele>95</ele>
        <time>2022-01-20T14:00:00Z</time>
      </trkpt>
      <trkpt lat="47.26066" lon="-1.58684">
        <ele>95</ele>
        <time>2022-01-20T14:00:01Z</time>
      </trkpt>
      <trkpt lat="47.26067" lon="-1.58686">
        <ele>95</ele>
        <time>2022-01-20T14:00:02Z</time>
      </trkpt>
      <trkpt lat="47.26067" lon="-1.58688">
        <ele>95</ele>
        <time>2022-01-20T14:00:03Z</time>
      </trkpt>
      <trkpt lat="47.26067" lon="-1.5869">
        <ele>94</ele>
        <time>2022-01-20T14:00:04Z</time>
      </trkpt>
      <trkpt lat="47.26067" lon="-1.58692">
        <ele>94</ele>
        <time>2022-01-20T14:00:05Z</time>
      </trkpt>
      <trkpt lat="47.26067" lon="-1.58694">
        <ele>94</ele>
        <time>2022-01-20T14:00:06Z</time>
      </trkpt>
      <trkpt lat="47.26067" lon="-1.58696">
        <ele>94</ele>
        <time>2022-01-20T14:00:07Z</time>
      </trkpt>
      <trkpt lat="47.26068" lon="-1.58697">
        <ele>93</ele>
        <time>2022-01-20T14:00:08Z</time>
      </trkpt>
      <trkpt lat="47.26069" lon="-1.58699">
        <ele>92</ele>
        <time>2022-01-20T14:00:09Z</time>
      </trkpt>
      <trkpt lat="47.26069" lon="-1.58701">
        <ele>92</ele>
        <time>2022-01-20T14:00:10Z</time>
      </trkpt>
      <trkpt lat="47.26069" lon="-1.58703">
        <ele>92</ele>
        <time>2022-01-20T14:00:11Z</time>
      </trkpt>
      <trkpt lat="47.26069" lon="-1.58705">
        <ele>93</ele>
        <time>2022-01-20T14:00:12Z</time>
      </trkpt>
      <trkpt lat="47.26069" lon="-1.58707">
        <ele>92</ele>
        <time>2022-01-20T14:00:13Z</time>
      </trkpt>
      <trkpt lat="47.26069" lon="-1.58709">
        <ele>93</ele>
        <time>2022-01-20T14:00:14Z</time>
      </trkpt>
      <trkpt lat="47.26069" lon="-1.5871">
        <ele>93</ele>
        <time>2022-01-20T14:00:15Z</time>
      </trkpt>
      <trkpt lat="47.2607" lon="-1.58712">
        <ele>93</ele>
        <time>2022-01-20T14:00:16Z</time>
      </trkpt>
      <trkpt lat="47.2607" lon="-1.58714">
        <ele>93</ele>
        <time>2022-01-20T14:00:17Z</time>
      </trkpt>
      <trkpt lat="47.2607" lon="-1.58717">
        <ele>93</ele>
        <time>2022-01-20T14:00:18Z</time>
      </trkpt>
      <trkpt lat="47.2607" lon="-1.58719">
        <ele>93</ele>
        <time>2022-01-20T14:00:19Z</time>
      </trkpt>
      <trkpt lat="47.2607" lon="-1.58721">
        <ele>93</ele>
        <time>2022-01-20T14:00:20Z</time>
      </trkpt>
      <trkpt lat="47.2607" lon="-1.58724">
        <ele>93</ele>
        <time>2022-01-20T14:00:21Z</time>
      </trkpt>
      <trkpt lat="47.2607" lon="-1.58726">
        <ele>93</ele>
        <time>2022-01-20T14:00:22Z</time>
      </trkpt>
      <trkpt lat="47.2607" lon="-1.58728">
        <ele>93</ele>
        <time>2022-01-20T14:00:23Z</time>
      </trkpt>
      <trkpt lat="47.2607" lon="-1.5873">
        <ele>93</ele>
        <time>2022-01-20T14:00:24Z</time>
      </trkpt>
      <trkpt lat="47.2607" lon="-1.58732">
        <ele>93</ele>
        <time>2022-01-20T14:00:25Z</time>
      </trkpt>
      <trkpt lat="47.2607" lon="-1.58734">
        <ele>93</ele>
        <time>2022-01-20T14:00:26Z</time>
      </trkpt>
      <trkpt lat="47.26071" lon="-1.58736">
        <ele>93</ele>
        <time>2022-01-20T14:00:27Z</time>
      </trkpt>
      <trkpt lat="47.26071" lon="-1.58738">
        <ele>92</ele>
        <time>2022-01-20T14:00:28Z</time>
      </trkpt>
      <trkpt lat="47.26071" lon="-1.5874">
        <ele>92</ele>
        <time>2022-01-20T14:00:29Z</time>
      </trkpt>
      <trkpt lat="47.26072" lon="-1.58741">
        <ele>91</ele>
        <time>2022-01-20T14:00:30Z</time>
      </trkpt>
      <trkpt lat="47.26073" lon="-1.58742">
        <ele>91</ele>
        <time>2022-01-20T14:00:31Z</time>
      </trkpt>
      <trkpt lat="47.26073" lon="-1.58744">
        <ele>90</ele>
        <time>2022-01-20T14:00:32Z</time>
      </trkpt>
      <trkpt lat="47.26073" lon="-1.58746">
        <ele>90</ele>
        <time>2022-01-20T14:00:33Z</time>
      </trkpt>
      <trkpt lat="47.26074" lon="-1.58748">
        <ele>90</ele>
        <time>2022-01-20T14:00:34Z</time>
      </trkpt>
      <trkpt lat="47.26073" lon="-1.58749">
        <ele>90</ele>
        <time>2022-01-20T14:00:35Z</time>
      </trkpt>
      <trkpt lat="47.26073" lon="-1.58749">
        <ele>90</ele>
        <time>2022-01-20T14:00:36Z</time>
      </trkpt>
      <trkpt lat="47.26073" lon="-1.58749">
        <ele>90</ele>
        <time>2022-01-20T14:00:37Z</time>
      </trkpt>
      <trkpt lat="47.26073" lon="-1.58749">
        <ele>90</ele>
        <time>2022-01-20T14:00:38Z</time>
      </trkpt>
      <trkpt lat="47.26073" lon="-1.58753">
        <ele>91</ele>
        <time>2022-01-20T14:00:39Z</time>
      </trkpt>
      <trkpt lat="47.26072" lon="-1.58756">
        <ele>91</ele>
        <time>2022-01-20T14:00:40Z</time>
      </trkpt>
      <trkpt lat="47.26072" lon="-1.58758">
        <ele>91</ele>
        <time>2022-01-20T14:00:41Z</time>
      </trkpt>
      <trkpt lat="47.26072" lon="-1.58761">
        <ele>91</ele>
        <time>2022-01-20T14:00:42Z</time>
      </trkpt>
      <trkpt lat="47.26073" lon="-1.58763">
        <ele>91</ele>
        <time>2022-01-20T14:00:43Z</time>
      </trkpt>
      <trkpt lat="47.26074" lon="-1.58766">
        <ele>91</ele>
        <time>2022-01-20T14:00:44Z</time>
      </trkpt>
      <trkpt lat="47.26074" lon="-1.58769">
        <ele>91</ele>
        <time>2022-01-20T14:00:45Z</time>
      </trkpt>
      <trkpt lat="47.26074" lon="-1.58771">
        <ele>90</ele>
        <time>2022-01-20T14:00:46Z</time>
      </trkpt>
      <trkpt lat="47.26074" lon="-1.58774">
        <ele>90</ele>
        <time>2022-01-20T14:00:47Z</time>
      </trkpt>
      <trkpt lat="47.26074" lon="-1.58776">
        <ele>90</ele>
        <time>2022-01-20T14:00:48Z</time>
      </trkpt>
      <trkpt lat="47.26074" lon="-1.58778">
        <ele>90</ele>
        <time>2022-01-20T14:00:49Z</time>
      </trkpt>
      <trkpt lat="47.26074" lon="-1.5878">
        <ele>90</ele>
        <time>2022-01-20T14:00:50Z</time>
      </trkpt>
      <trkpt lat="47.26074" lon="-1.58782">
        <ele>90</ele>
        <time>2022-01-20T14:00:51Z</time>
      </trkpt>
      <trkpt lat="47.26074" lon="-1.58784">
        <ele>89</ele>
        <time>2022-01-20T14:00:52Z</time>
      </trkpt>
      <trkpt lat="47.26074" lon="-1.58785">
        <ele>89</ele>
        <time>2022-01-20T14:00:53Z</time>
      </trkpt>
      <trkpt lat="47.26074" lon="-1.58785">
        <ele>89</ele>
        <time>2022-01-20T14:00:54Z</time>
      </trkpt>
      <trkpt lat="47.26074" lon="-1.58785">
        <ele>89</ele>
        <time>2022-01-20T14:00:55Z</time>
      </trkpt>
      <trkpt lat="47.26072" lon="-1.58786">
        <ele>88</ele>
        <time>2022-01-20T14:00:56Z</time>
      </trkpt>
      <trkpt lat="47.26072" lon="-1.58786">
        <ele>88</ele>
        <time>2022-01-20T14:00:57Z</time>
      </trkpt>
      <trkpt lat="47.26072" lon="-1.58788">
        <ele>89</ele>
        <time>2022-01-20T14:00:58Z</time>
      </trkpt>
      <trkpt lat="47.26073" lon="-1.5879">
        <ele>88</ele>
        <time>2022-01-20T14:00:59Z</time>
      </trkpt>
      <trkpt lat="47.26074" lon="-1.58792">
        <ele>88</ele>
        <time>2022-01-20T14:01:00Z</time>
      </trkpt>
      <trkpt lat="47.26075" lon="-1.58794">
        <ele>89</ele>
        <time>2022-01-20T14:01:01Z</time>
      </trkpt>
      <trkpt lat="47.26075" lon="-1.58796">
        <ele>89</ele>
        <time>2022-01-20T14:01:02Z</time>
      </trkpt>
      <trkpt lat="47.26075" lon="-1.58797">
        <ele>89</ele>
        <time>2022-01-20T14:01:03Z</time>
      </trkpt>
      <trkpt lat="47.26074" lon="-1.58797">
        <ele>89</ele>
        <time>2022-01-20T14:01:04Z</time>
      </trkpt>
      <trkpt lat="47.26074" lon="-1.58797">
        <ele>89</ele>
        <time>2022-01-20T14:01:05Z</time>
      </trkpt>
      <trkpt lat="47.26074" lon="-1.58797">
        <ele>89</ele>
        <time>2022-01-20T14:01:06Z</time>
      </trkpt>
      <trkpt lat="47.26074" lon="-1.58797">
        <ele>89</ele>
        <time>2022-01-20T14:01:07Z</time>
      </trkpt>
      <trkpt lat="47.26074" lon="-1.58797">
        <ele>89</ele>
        <time>2022-01-20T14:01:08Z</time>
      </trkpt>
      <trkpt lat="47.26074" lon="-1.58797">
        <ele>89</ele>
        <time>2022-01-20T14:01:09Z</time>
      </trkpt>
      <trkpt lat="47.26074" lon="-1.58797">
        <ele>89</ele>
        <time>2022-01-20T14:01:10Z</time>
      </trkpt>
      <trkpt lat="47.26074" lon="-1.58797">
        <ele>89</ele>
        <time>2022-01-20T14:01:11Z</time>
      </trkpt>
      <trkpt lat="47.26074" lon="-1.58797">
        <ele>89</ele>
        <time>2022-01-20T14:01:12Z</time>
      </trkpt>
      <trkpt lat="47.26074" lon="-1.58797">
        <ele>89</ele>
        <time>2022-01-20T14:01:13Z</time>
      </trkpt>
      <trkpt lat="47.26074" lon="-1.58797">
        <ele>89</ele>
        <time>2022-01-20T14:01:14Z</time>
      </trkpt>
      <trkpt lat="47.26074" lon="-1.58797">
        <ele>89</ele>
        <time>2022-01-20T14:01:14Z</time>
      </trkpt>
      <trkpt lat="47.26074" lon="-1.58797">
        <ele>89</ele>
        <time>2022-01-20T14:01:14Z</time>
      </trkpt>
      <trkpt lat="47.26067" lon="-1.58814">
        <ele>88</ele>
        <time>2022-01-20T14:01:29Z</time>
      </trkpt>
      <trkpt lat="47.26066" lon="-1.58816">
        <ele>87</ele>
        <time>2022-01-20T14:01:30Z</time>
      </trkpt>
      <trkpt lat="47.26065" lon="-1.58818">
        <ele>87</ele>
        <time>2022-01-20T14:01:31Z</time>
      </trkpt>
      <trkpt lat="47.26064" lon="-1.58821">
        <ele>87</ele>
        <time>2022-01-20T14:01:32Z</time>
      </trkpt>
      <trkpt lat="47.26064" lon="-1.58822">
        <ele>87</ele>
        <time>2022-01-20T14:01:33Z</time>
      </trkpt>
      <trkpt lat="47.26062" lon="-1.58824">
        <ele>86</ele>
        <time>2022-01-20T14:01:34Z</time>
      </trkpt>
      <trkpt lat="47.26061" lon="-1.58826">
        <ele>86</ele>
        <time>2022-01-20T14:01:35Z</time>
      </trkpt>
      <trkpt lat="47.26061" lon="-1.58827">
        <ele>87</ele>
        <time>2022-01-20T14:01:36Z</time>
      </trkpt>
      <trkpt lat="47.26059" lon="-1.58829">
        <ele>87</ele>
        <time>2022-01-20T14:01:37Z</time>
      </trkpt>
      <trkpt lat="47.26059" lon="-1.5883">
        <ele>87</ele>
        <time>2022-01-20T14:01:38Z</time>
      </trkpt>
      <trkpt lat="47.26058" lon="-1.58831">
        <ele>87</ele>
        <time>2022-01-20T14:01:39Z</time>
      </trkpt>
      <trkpt lat="47.26058" lon="-1.58832">
        <ele>88</ele>
        <time>2022-01-20T14:01:40Z</time>
      </trkpt>
      <trkpt lat="47.26058" lon="-1.58834">
        <ele>90</ele>
        <time>2022-01-20T14:01:41Z</time>
      </trkpt>
      <trkpt lat="47.26057" lon="-1.58835">
        <ele>90</ele>
        <time>2022-01-20T14:01:42Z</time>
      </trkpt>
      <trkpt lat="47.26058" lon="-1.58837">
        <ele>89</ele>
        <time>2022-01-20T14:01:43Z</time>
      </trkpt>
      <trkpt lat="47.26058" lon="-1.58839">
        <ele>89</ele>
        <time>2022-01-20T14:01:44Z</time>
      </trkpt>
      <trkpt lat="47.26058" lon="-1.58841">
        <ele>89</ele>
        <time>2022-01-20T14:01:45Z</time>
      </trkpt>
      <trkpt lat="47.26058" lon="-1.58843">
        <ele>89</ele>
        <time>2022-01-20T14:01:46Z</time>
      </trkpt>
      <trkpt lat="47.26059" lon="-1.58844">
        <ele>88</ele>
        <time>2022-01-20T14:01:47Z</time>
      </trkpt>
      <trkpt lat="47.26058" lon="-1.58846">
        <ele>88</ele>
        <time>2022-01-20T14:01:48Z</time>
      </trkpt>
      <trkpt lat="47.26057" lon="-1.58847">
        <ele>87</ele>
        <time>2022-01-20T14:01:49Z</time>
      </trkpt>
      <trkpt lat="47.26056" lon="-1.58848">
        <ele>87</ele>
        <time>2022-01-20T14:01:50Z</time>
      </trkpt>
      <trkpt lat="47.26055" lon="-1.58849">
        <ele>87</ele>
        <time>2022-01-20T14:01:51Z</time>
      </trkpt>
      <trkpt lat="47.26054" lon="-1.5885">
        <ele>87</ele>
        <time>2022-01-20T14:01:52Z</time>
      </trkpt>
      <trkpt lat="47.26054" lon="-1.58852">
        <ele>87</ele>
        <time>2022-01-20T14:01:53Z</time>
      </trkpt>
      <trkpt lat="47.26053" lon="-1.58852">
        <ele>86</ele>
        <time>2022-01-20T14:01:54Z</time>
      </trkpt>
      <trkpt lat="47.26052" lon="-1.58855">
        <ele>86</ele>
        <time>2022-01-20T14:01:55Z</time>
      </trkpt>
      <trkpt lat="47.26051" lon="-1.58856">
        <ele>86</ele>
        <time>2022-01-20T14:01:56Z</time>
      </trkpt>
      <trkpt lat="47.2605" lon="-1.58858">
        <ele>86</ele>
        <time>2022-01-20T14:01:57Z</time>
      </trkpt>
      <trkpt lat="47.2605" lon="-1.5886">
        <ele>86</ele>
        <time>2022-01-20T14:01:58Z</time>
      </trkpt>
      <trkpt lat="47.26049" lon="-1.58861">
        <ele>86</ele>
        <time>2022-01-20T14:01:59Z</time>
      </trkpt>
      <trkpt lat="47.26049" lon="-1.58861">
        <ele>86</ele>
        <time>2022-01-20T14:02:00Z</time>
      </trkpt>
      <trkpt lat="47.26048" lon="-1.58862">
        <ele>86</ele>
        <time>2022-01-20T14:02:01Z</time>
      </trkpt>
      <trkpt lat="47.26047" lon="-1.58863">
        <ele>86</ele>
        <time>2022-01-20T14:02:02Z</time>
      </trkpt>
      <trkpt lat="47.26046" lon="-1.58864">
        <ele>86</ele>
        <time>2022-01-20T14:02:03Z</time>
      </trkpt>
      <trkpt lat="47.26045" lon="-1.58865">
        <ele>86</ele>
        <time>2022-01-20T14:02:04Z</time>
      </trkpt>
      <trkpt lat="47.26044" lon="-1.58867">
        <ele>86</ele>
        <time>2022-01-20T14:02:05Z</time>
      </trkpt>
      <trkpt lat="47.26042" lon="-1.58868">
        <ele>86</ele>
        <time>2022-01-20T14:02:06Z</time>
      </trkpt>
      <trkpt lat="47.26041" lon="-1.5887">
        <ele>86</ele>
        <time>2022-01-20T14:02:07Z</time>
      </trkpt>
      <trkpt lat="47.2604" lon="-1.58871">
        <ele>86</ele>
        <time>2022-01-20T14:02:08Z</time>
      </trkpt>
      <trkpt lat="47.2604" lon="-1.58872">
        <ele>86</ele>
        <time>2022-01-20T14:02:09Z</time>
      </trkpt>
      <trkpt lat="47.2604" lon="-1.58873">
        <ele>86</ele>
        <time>2022-01-20T14:02:10Z</time>
      </trkpt>
      <trkpt lat="47.26039" lon="-1.58875">
        <ele>85</ele>
        <time>2022-01-20T14:02:11Z</time>
      </trkpt>
      <trkpt lat="47.26038" lon="-1.58876">
        <ele>85</ele>
        <time>2022-01-20T14:02:12Z</time>
      </trkpt>
      <trkpt lat="47.26037" lon="-1.58877">
        <ele>85</ele>
        <time>2022-01-20T14:02:13Z</time>
      </trkpt>
      <trkpt lat="47.26035" lon="-1.58878">
        <ele>85</ele>
        <time>2022-01-20T14:02:14Z</time>
      </trkpt>
      <trkpt lat="47.26034" lon="-1.5888">
        <ele>84</ele>
        <time>2022-01-20T14:02:15Z</time>
      </trkpt>
      <trkpt lat="47.26033" lon="-1.58881">
        <ele>84</ele>
        <time>2022-01-20T14:02:16Z</time>
      </trkpt>
      <trkpt lat="47.26032" lon="-1.58882">
        <ele>84</ele>
        <time>2022-01-20T14:02:17Z</time>
      </trkpt>
      <trkpt lat="47.26031" lon="-1.58883">
        <ele>84</ele>
        <time>2022-01-20T14:02:18Z</time>
      </trkpt>
      <trkpt lat="47.2603" lon="-1.58884">
        <ele>84</ele>
        <time>2022-01-20T14:02:19Z</time>
      </trkpt>
      <trkpt lat="47.26029" lon="-1.58885">
        <ele>84</ele>
        <time>2022-01-20T14:02:20Z</time>
      </trkpt>
      <trkpt lat="47.26028" lon="-1.58885">
        <ele>84</ele>
        <time>2022-01-20T14:02:21Z</time>
      </trkpt>
      <trkpt lat="47.26027" lon="-1.58886">
        <ele>84</ele>
        <time>2022-01-20T14:02:22Z</time>
      </trkpt>
      <trkpt lat="47.26026" lon="-1.58887">
        <ele>84</ele>
        <time>2022-01-20T14:02:23Z</time>
      </trkpt>
      <trkpt lat="47.26025" lon="-1.58889">
        <ele>85</ele>
        <time>2022-01-20T14:02:24Z</time>
      </trkpt>
      <trkpt lat="47.26023" lon="-1.5889">
        <ele>85</ele>
        <time>2022-01-20T14:02:25Z</time>
      </trkpt>
      <trkpt lat="47.26022" lon="-1.58891">
        <ele>84</ele>
        <time>2022-01-20T14:02:26Z</time>
      </trkpt>
      <trkpt lat="47.26021" lon="-1.58892">
        <ele>84</ele>
        <time>2022-01-20T14:02:27Z</time>
      </trkpt>
      <trkpt lat="47.2602" lon="-1.58894">
        <ele>83</ele>
        <time>2022-01-20T14:02:28Z</time>
      </trkpt>
      <trkpt lat="47.26019" lon="-1.58895">
        <ele>83</ele>
        <time>2022-01-20T14:02:29Z</time>
      </trkpt>
      <trkpt lat="47.26018" lon="-1.58896">
        <ele>82</ele>
        <time>2022-01-20T14:02:30Z</time>
      </trkpt>
      <trkpt lat="47.26017" lon="-1.58897">
        <ele>82</ele>
        <time>2022-01-20T14:02:31Z</time>
      </trkpt>
      <trkpt lat="47.26016" lon="-1.58898">
        <ele>82</ele>
        <time>2022-01-20T14:02:32Z</time>
      </trkpt>
      <trkpt lat="47.26016" lon="-1.58899">
        <ele>82</ele>
        <time>2022-01-20T14:02:33Z</time>
      </trkpt>
      <trkpt lat="47.26016" lon="-1.58899">
        <ele>82</ele>
        <time>2022-01-20T14:02:34Z</time>
      </trkpt>
      <trkpt lat="47.26015" lon="-1.589">
        <ele>82</ele>
        <time>2022-01-20T14:02:35Z</time>
      </trkpt>
      <trkpt lat="47.26014" lon="-1.589">
        <ele>81</ele>
        <time>2022-01-20T14:02:36Z</time>
      </trkpt>
      <trkpt lat="47.26013" lon="-1.58901">
        <ele>81</ele>
        <time>2022-01-20T14:02:37Z</time>
      </trkpt>
      <trkpt lat="47.26012" lon="-1.58902">
        <ele>82</ele>
        <time>2022-01-20T14:02:38Z</time>
      </trkpt>
      <trkpt lat="47.26011" lon="-1.58903">
        <ele>81</ele>
        <time>2022-01-20T14:02:39Z</time>
      </trkpt>
      <trkpt lat="47.2601" lon="-1.58904">
        <ele>81</ele>
        <time>2022-01-20T14:02:40Z</time>
      </trkpt>
      <trkpt lat="47.26009" lon="-1.58905">
        <ele>81</ele>
        <time>2022-01-20T14:02:41Z</time>
      </trkpt>
      <trkpt lat="47.26008" lon="-1.58906">
        <ele>81</ele>
        <time>2022-01-20T14:02:42Z</time>
      </trkpt>
      <trkpt lat="47.26007" lon="-1.58907">
        <ele>81</ele>
        <time>2022-01-20T14:02:43Z</time>
      </trkpt>
      <trkpt lat="47.26006" lon="-1.58908">
        <ele>81</ele>
        <time>2022-01-20T14:02:44Z</time>
      </trkpt>
      <trkpt lat="47.26004" lon="-1.58908">
        <ele>81</ele>
        <time>2022-01-20T14:02:45Z</time>
      </trkpt>
      <trkpt lat="47.26003" lon="-1.58909">
        <ele>81</ele>
        <time>2022-01-20T14:02:46Z</time>
      </trkpt>
      <trkpt lat="47.26002" lon="-1.5891">
        <ele>81</ele>
        <time>2022-01-20T14:02:47Z</time>
      </trkpt>
      <trkpt lat="47.26001" lon="-1.58911">
        <ele>81</ele>
        <time>2022-01-20T14:02:48Z</time>
      </trkpt>
      <trkpt lat="47.26001" lon="-1.58912">
        <ele>81</ele>
        <time>2022-01-20T14:02:49Z</time>
      </trkpt>
      <trkpt lat="47.26" lon="-1.58912">
        <ele>81</ele>
        <time>2022-01-20T14:02:50Z</time>
      </trkpt>
      <trkpt lat="47.26" lon="-1.58912">
        <ele>81</ele>
        <time>2022-01-20T14:02:51Z</time>
      </trkpt>
      <trkpt lat="47.26" lon="-1.58912">
        <ele>81</ele>
        <time>2022-01-20T14:02:52Z</time>
      </trkpt>
      <trkpt lat="47.25998" lon="-1.58914">
        <ele>81</ele>
        <time>2022-01-20T14:02:53Z</time>
      </trkpt>
      <trkpt lat="47.25996" lon="-1.58916">
        <ele>81</ele>
        <time>2022-01-20T14:02:54Z</time>
      </trkpt>
      <trkpt lat="47.25995" lon="-1.58917">
        <ele>80</ele>
        <time>2022-01-20T14:02:55Z</time>
      </trkpt>
      <trkpt lat="47.25993" lon="-1.58918">
        <ele>80</ele>
        <time>2022-01-20T14:02:56Z</time>
      </trkpt>
      <trkpt lat="47.25992" lon="-1.58919">
        <ele>80</ele>
        <time>2022-01-20T14:02:57Z</time>
      </trkpt>
      <trkpt lat="47.25991" lon="-1.5892">
        <ele>79</ele>
        <time>2022-01-20T14:02:58Z</time>
      </trkpt>
      <trkpt lat="47.25989" lon="-1.58922">
        <ele>79</ele>
        <time>2022-01-20T14:02:59Z</time>
      </trkpt>
      <trkpt lat="47.25988" lon="-1.58923">
        <ele>78</ele>
        <time>2022-01-20T14:03:00Z</time>
      </trkpt>
      <trkpt lat="47.25987" lon="-1.58924">
        <ele>79</ele>
        <time>2022-01-20T14:03:01Z</time>
      </trkpt>
      <trkpt lat="47.25985" lon="-1.58925">
        <ele>78</ele>
        <time>2022-01-20T14:03:02Z</time>
      </trkpt>
      <trkpt lat="47.25983" lon="-1.58926">
        <ele>79</ele>
        <time>2022-01-20T14:03:03Z</time>
      </trkpt>
      <trkpt lat="47.25982" lon="-1.58927">
        <ele>78</ele>
        <time>2022-01-20T14:03:04Z</time>
      </trkpt>
      <trkpt lat="47.25981" lon="-1.58929">
        <ele>78</ele>
        <time>2022-01-20T14:03:05Z</time>
      </trkpt>
      <trkpt lat="47.2598" lon="-1.5893">
        <ele>79</ele>
        <time>2022-01-20T14:03:06Z</time>
      </trkpt>
      <trkpt lat="47.25979" lon="-1.5893">
        <ele>78</ele>
        <time>2022-01-20T14:03:07Z</time>
      </trkpt>
      <trkpt lat="47.25977" lon="-1.58931">
        <ele>78</ele>
        <time>2022-01-20T14:03:08Z</time>
      </trkpt>
      <trkpt lat="47.25976" lon="-1.58932">
        <ele>78</ele>
        <time>2022-01-20T14:03:09Z</time>
      </trkpt>
      <trkpt lat="47.25975" lon="-1.58932">
        <ele>79</ele>
        <time>2022-01-20T14:03:10Z</time>
      </trkpt>
      <trkpt lat="47.25974" lon="-1.58932">
        <ele>79</ele>
        <time>2022-01-20T14:03:11Z</time>
      </trkpt>
      <trkpt lat="47.25972" lon="-1.58933">
        <ele>80</ele>
        <time>2022-01-20T14:03:12Z</time>
      </trkpt>
      <trkpt lat="47.25971" lon="-1.58933">
        <ele>80</ele>
        <time>2022-01-20T14:03:13Z</time>
      </trkpt>
      <trkpt lat="47.25971" lon="-1.58934">
        <ele>80</ele>
        <time>2022-01-20T14:03:14Z</time>
      </trkpt>
      <trkpt lat="47.25969" lon="-1.58935">
        <ele>80</ele>
        <time>2022-01-20T14:03:15Z</time>
      </trkpt>
      <trkpt lat="47.25968" lon="-1.58936">
        <ele>80</ele>
        <time>2022-01-20T14:03:16Z</time>
      </trkpt>
      <trkpt lat="47.25967" lon="-1.58937">
        <ele>80</ele>
        <time>2022-01-20T14:03:17Z</time>
      </trkpt>
      <trkpt lat="47.25966" lon="-1.58937">
        <ele>80</ele>
        <time>2022-01-20T14:03:18Z</time>
      </trkpt>
      <trkpt lat="47.25964" lon="-1.58939">
        <ele>80</ele>
        <time>2022-01-20T14:03:19Z</time>
      </trkpt>
      <trkpt lat="47.25964" lon="-1.5894">
        <ele>80</ele>
        <time>2022-01-20T14:03:20Z</time>
      </trkpt>
      <trkpt lat="47.25963" lon="-1.58942">
        <ele>80</ele>
        <time>2022-01-20T14:03:21Z</time>
      </trkpt>
      <trkpt lat="47.25962" lon="-1.58943">
        <ele>81</ele>
        <time>2022-01-20T14:03:22Z</time>
      </trkpt>
      <trkpt lat="47.25961" lon="-1.58944">
        <ele>81</ele>
        <time>2022-01-20T14:03:23Z</time>
      </trkpt>
      <trkpt lat="47.2596" lon="-1.58945">
        <ele>81</ele>
        <time>2022-01-20T14:03:24Z</time>
      </trkpt>
      <trkpt lat="47.25959" lon="-1.58946">
        <ele>81</ele>
        <time>2022-01-20T14:03:25Z</time>
      </trkpt>
      <trkpt lat="47.25958" lon="-1.58947">
        <ele>81</ele>
        <time>2022-01-20T14:03:26Z</time>
      </trkpt>
      <trkpt lat="47.25957" lon="-1.58948">
        <ele>81</ele>
        <time>2022-01-20T14:03:27Z</time>
      </trkpt>
      <trkpt lat="47.25956" lon="-1.58949">
        <ele>80</ele>
        <time>2022-01-20T14:03:28Z</time>
      </trkpt>
      <trkpt lat="47.25954" lon="-1.5895">
        <ele>80</ele>
        <time>2022-01-20T14:03:29Z</time>
      </trkpt>
      <trkpt lat="47.25953" lon="-1.58951">
        <ele>81</ele>
        <time>2022-01-20T14:03:30Z</time>
      </trkpt>
      <trkpt lat="47.25951" lon="-1.58953">
        <ele>81</ele>
        <time>2022-01-20T14:03:31Z</time>
      </trkpt>
      <trkpt lat="47.2595" lon="-1.58954">
        <ele>81</ele>
        <time>2022-01-20T14:03:32Z</time>
      </trkpt>
      <trkpt lat="47.25948" lon="-1.58954">
        <ele>81</ele>
        <time>2022-01-20T14:03:33Z</time>
      </trkpt>
      <trkpt lat="47.25948" lon="-1.58955">
        <ele>82</ele>
        <time>2022-01-20T14:03:34Z</time>
      </trkpt>
      <trkpt lat="47.25946" lon="-1.58955">
        <ele>82</ele>
        <time>2022-01-20T14:03:35Z</time>
      </trkpt>
      <trkpt lat="47.25945" lon="-1.58956">
        <ele>82</ele>
        <time>2022-01-20T14:03:36Z</time>
      </trkpt>
      <trkpt lat="47.25945" lon="-1.58957">
        <ele>83</ele>
        <time>2022-01-20T14:03:37Z</time>
      </trkpt>
      <trkpt lat="47.25944" lon="-1.58958">
        <ele>83</ele>
        <time>2022-01-20T14:03:38Z</time>
      </trkpt>
      <trkpt lat="47.25944" lon="-1.58958">
        <ele>83</ele>
        <time>2022-01-20T14:03:39Z</time>
      </trkpt>
      <trkpt lat="47.25944" lon="-1.58958">
        <ele>83</ele>
        <time>2022-01-20T14:03:40Z</time>
      </trkpt>
      <trkpt lat="47.25941" lon="-1.58963">
        <ele>83</ele>
        <time>2022-01-20T14:03:41Z</time>
      </trkpt>
      <trkpt lat="47.2594" lon="-1.58964">
        <ele>83</ele>
        <time>2022-01-20T14:03:42Z</time>
      </trkpt>
      <trkpt lat="47.25939" lon="-1.58966">
        <ele>83</ele>
        <time>2022-01-20T14:03:43Z</time>
      </trkpt>
      <trkpt lat="47.25937" lon="-1.58968">
        <ele>82</ele>
        <time>2022-01-20T14:03:44Z</time>
      </trkpt>
      <trkpt lat="47.25937" lon="-1.58969">
        <ele>82</ele>
        <time>2022-01-20T14:03:45Z</time>
      </trkpt>
      <trkpt lat="47.25935" lon="-1.58971">
        <ele>81</ele>
        <time>2022-01-20T14:03:46Z</time>
      </trkpt>
      <trkpt lat="47.25934" lon="-1.58971">
        <ele>81</ele>
        <time>2022-01-20T14:03:47Z</time>
      </trkpt>
      <trkpt lat="47.25933" lon="-1.58972">
        <ele>81</ele>
        <time>2022-01-20T14:03:48Z</time>
      </trkpt>
      <trkpt lat="47.25932" lon="-1.58973">
        <ele>81</ele>
        <time>2022-01-20T14:03:49Z</time>
      </trkpt>
      <trkpt lat="47.2593" lon="-1.58975">
        <ele>81</ele>
        <time>2022-01-20T14:03:50Z</time>
      </trkpt>
      <trkpt lat="47.25929" lon="-1.58976">
        <ele>81</ele>
        <time>2022-01-20T14:03:51Z</time>
      </trkpt>
      <trkpt lat="47.25929" lon="-1.58977">
        <ele>82</ele>
        <time>2022-01-20T14:03:52Z</time>
      </trkpt>
      <trkpt lat="47.25928" lon="-1.58978">
        <ele>81</ele>
        <time>2022-01-20T14:03:53Z</time>
      </trkpt>
      <trkpt lat="47.25927" lon="-1.58979">
        <ele>81</ele>
        <time>2022-01-20T14:03:54Z</time>
      </trkpt>
      <trkpt lat="47.25926" lon="-1.58979">
        <ele>81</ele>
        <time>2022-01-20T14:03:55Z</time>
      </trkpt>
      <trkpt lat="47.25926" lon="-1.5898">
        <ele>82</ele>
        <time>2022-01-20T14:03:56Z</time>
      </trkpt>
      <trkpt lat="47.25925" lon="-1.5898">
        <ele>82</ele>
        <time>2022-01-20T14:03:57Z</time>
      </trkpt>
      <trkpt lat="47.25925" lon="-1.5898">
        <ele>82</ele>
        <time>2022-01-20T14:03:58Z</time>
      </trkpt>
      <trkpt lat="47.25925" lon="-1.5898">
        <ele>82</ele>
        <time>2022-01-20T14:03:59Z</time>
      </trkpt>
      <trkpt lat="47.25922" lon="-1.5898">
        <ele>82</ele>
        <time>2022-01-20T14:04:00Z</time>
      </trkpt>
      <trkpt lat="47.25921" lon="-1.58981">
        <ele>82</ele>
        <time>2022-01-20T14:04:01Z</time>
      </trkpt>
      <trkpt lat="47.2592" lon="-1.58981">
        <ele>81</ele>
        <time>2022-01-20T14:04:02Z</time>
      </trkpt>
      <trkpt lat="47.25919" lon="-1.58982">
        <ele>82</ele>
        <time>2022-01-20T14:04:03Z</time>
      </trkpt>
      <trkpt lat="47.25919" lon="-1.58983">
        <ele>83</ele>
        <time>2022-01-20T14:04:04Z</time>
      </trkpt>
      <trkpt lat="47.25919" lon="-1.58985">
        <ele>82</ele>
        <time>2022-01-20T14:04:05Z</time>
      </trkpt>
      <trkpt lat="47.25918" lon="-1.58985">
        <ele>82</ele>
        <time>2022-01-20T14:04:06Z</time>
      </trkpt>
      <trkpt lat="47.25917" lon="-1.58985">
        <ele>82</ele>
        <time>2022-01-20T14:04:07Z</time>
      </trkpt>
      <trkpt lat="47.25915" lon="-1.58986">
        <ele>82</ele>
        <time>2022-01-20T14:04:08Z</time>
      </trkpt>
      <trkpt lat="47.25914" lon="-1.58987">
        <ele>81</ele>
        <time>2022-01-20T14:04:09Z</time>
      </trkpt>
      <trkpt lat="47.25913" lon="-1.58987">
        <ele>81</ele>
        <time>2022-01-20T14:04:10Z</time>
      </trkpt>
      <trkpt lat="47.25911" lon="-1.58988">
        <ele>81</ele>
        <time>2022-01-20T14:04:11Z</time>
      </trkpt>
      <trkpt lat="47.2591" lon="-1.58988">
        <ele>81</ele>
        <time>2022-01-20T14:04:12Z</time>
      </trkpt>
      <trkpt lat="47.25909" lon="-1.58988">
        <ele>81</ele>
        <time>2022-01-20T14:04:13Z</time>
      </trkpt>
      <trkpt lat="47.25909" lon="-1.58989">
        <ele>81</ele>
        <time>2022-01-20T14:04:14Z</time>
      </trkpt>
      <trkpt lat="47.25908" lon="-1.58989">
        <ele>80</ele>
        <time>2022-01-20T14:04:15Z</time>
      </trkpt>
      <trkpt lat="47.25908" lon="-1.58989">
        <ele>80</ele>
        <time>2022-01-20T14:04:16Z</time>
      </trkpt>
      <trkpt lat="47.25908" lon="-1.58989">
        <ele>80</ele>
        <time>2022-01-20T14:04:17Z</time>
      </trkpt>
      <trkpt lat="47.25908" lon="-1.58989">
        <ele>80</ele>
        <time>2022-01-20T14:04:18Z</time>
      </trkpt>
      <trkpt lat="47.25906" lon="-1.5899">
        <ele>80</ele>
        <time>2022-01-20T14:04:19Z</time>
      </trkpt>
      <trkpt lat="47.25905" lon="-1.58991">
        <ele>80</ele>
        <time>2022-01-20T14:04:20Z</time>
      </trkpt>
      <trkpt lat="47.25903" lon="-1.58991">
        <ele>79</ele>
        <time>2022-01-20T14:04:21Z</time>
      </trkpt>
      <trkpt lat="47.25901" lon="-1.58992">
        <ele>79</ele>
        <time>2022-01-20T14:04:22Z</time>
      </trkpt>
      <trkpt lat="47.259" lon="-1.58993">
        <ele>80</ele>
        <time>2022-01-20T14:04:23Z</time>
      </trkpt>
      <trkpt lat="47.25898" lon="-1.58994">
        <ele>79</ele>
        <time>2022-01-20T14:04:24Z</time>
      </trkpt>
      <trkpt lat="47.25897" lon="-1.58996">
        <ele>79</ele>
        <time>2022-01-20T14:04:25Z</time>
      </trkpt>
      <trkpt lat="47.25895" lon="-1.58997">
        <ele>80</ele>
        <time>2022-01-20T14:04:26Z</time>
      </trkpt>
      <trkpt lat="47.25894" lon="-1.58998">
        <ele>80</ele>
        <time>2022-01-20T14:04:27Z</time>
      </trkpt>
      <trkpt lat="47.25893" lon="-1.58998">
        <ele>79</ele>
        <time>2022-01-20T14:04:28Z</time>
      </trkpt>
      <trkpt lat="47.25891" lon="-1.58999">
        <ele>79</ele>
        <time>2022-01-20T14:04:29Z</time>
      </trkpt>
      <trkpt lat="47.2589" lon="-1.59">
        <ele>79</ele>
        <time>2022-01-20T14:04:30Z</time>
      </trkpt>
      <trkpt lat="47.25889" lon="-1.59001">
        <ele>80</ele>
        <time>2022-01-20T14:04:31Z</time>
      </trkpt>
      <trkpt lat="47.25888" lon="-1.59002">
        <ele>79</ele>
        <time>2022-01-20T14:04:32Z</time>
      </trkpt>
      <trkpt lat="47.25888" lon="-1.59003">
        <ele>79</ele>
        <time>2022-01-20T14:04:33Z</time>
      </trkpt>
      <trkpt lat="47.25887" lon="-1.59003">
        <ele>80</ele>
        <time>2022-01-20T14:04:34Z</time>
      </trkpt>
      <trkpt lat="47.25887" lon="-1.59003">
        <ele>79</ele>
        <time>2022-01-20T14:04:35Z</time>
      </trkpt>
      <trkpt lat="47.25885" lon="-1.59003">
        <ele>79</ele>
        <time>2022-01-20T14:04:36Z</time>
      </trkpt>
      <trkpt lat="47.25885" lon="-1.59003">
        <ele>79</ele>
        <time>2022-01-20T14:04:37Z</time>
      </trkpt>
      <trkpt lat="47.25884" lon="-1.59004">
        <ele>78</ele>
        <time>2022-01-20T14:04:38Z</time>
      </trkpt>
      <trkpt lat="47.25884" lon="-1.59004">
        <ele>78</ele>
        <time>2022-01-20T14:04:39Z</time>
      </trkpt>
      <trkpt lat="47.25884" lon="-1.59004">
        <ele>78</ele>
        <time>2022-01-20T14:04:40Z</time>
      </trkpt>
      <trkpt lat="47.25884" lon="-1.59004">
        <ele>78</ele>
        <time>2022-01-20T14:04:41Z</time>
      </trkpt>
      <trkpt lat="47.25882" lon="-1.59005">
        <ele>78</ele>
        <time>2022-01-20T14:04:42Z</time>
      </trkpt>
      <trkpt lat="47.25881" lon="-1.59006">
        <ele>78</ele>
        <time>2022-01-20T14:04:43Z</time>
      </trkpt>
      <trkpt lat="47.2588" lon="-1.59006">
        <ele>78</ele>
        <time>2022-01-20T14:04:44Z</time>
      </trkpt>
      <trkpt lat="47.2588" lon="-1.59006">
        <ele>78</ele>
        <time>2022-01-20T14:04:45Z</time>
      </trkpt>
      <trkpt lat="47.2588" lon="-1.59006">
        <ele>78</ele>
        <time>2022-01-20T14:04:46Z</time>
      </trkpt>
      <trkpt lat="47.2588" lon="-1.59006">
        <ele>78</ele>
        <time>2022-01-20T14:04:47Z</time>
      </trkpt>
      <trkpt lat="47.25877" lon="-1.59007">
        <ele>78</ele>
        <time>2022-01-20T14:04:48Z</time>
      </trkpt>
      <trkpt lat="47.25876" lon="-1.59008">
        <ele>78</ele>
        <time>2022-01-20T14:04:49Z</time>
      </trkpt>
      <trkpt lat="47.25875" lon="-1.59009">
        <ele>78</ele>
        <time>2022-01-20T14:04:50Z</time>
      </trkpt>
      <trkpt lat="47.25874" lon="-1.59009">
        <ele>78</ele>
        <time>2022-01-20T14:04:51Z</time>
      </trkpt>
      <trkpt lat="47.25874" lon="-1.59009">
        <ele>78</ele>
        <time>2022-01-20T14:04:52Z</time>
      </trkpt>
      <trkpt lat="47.25874" lon="-1.59009">
        <ele>78</ele>
        <time>2022-01-20T14:04:53Z</time>
      </trkpt>
      <trkpt lat="47.25872" lon="-1.59011">
        <ele>80</ele>
        <time>2022-01-20T14:04:54Z</time>
      </trkpt>
      <trkpt lat="47.25871" lon="-1.59013">
        <ele>80</ele>
        <time>2022-01-20T14:04:55Z</time>
      </trkpt>
      <trkpt lat="47.2587" lon="-1.59014">
        <ele>80</ele>
        <time>2022-01-20T14:04:56Z</time>
      </trkpt>
      <trkpt lat="47.25869" lon="-1.59014">
        <ele>80</ele>
        <time>2022-01-20T14:04:57Z</time>
      </trkpt>
      <trkpt lat="47.25869" lon="-1.59014">
        <ele>80</ele>
        <time>2022-01-20T14:04:58Z</time>
      </trkpt>
      <trkpt lat="47.25869" lon="-1.59014">
        <ele>80</ele>
        <time>2022-01-20T14:04:59Z</time>
      </trkpt>
      <trkpt lat="47.25868" lon="-1.59017">
        <ele>82</ele>
        <time>2022-01-20T14:05:00Z</time>
      </trkpt>
      <trkpt lat="47.25867" lon="-1.59018">
        <ele>82</ele>
        <time>2022-01-20T14:05:01Z</time>
      </trkpt>
      <trkpt lat="47.25866" lon="-1.59019">
        <ele>81</ele>
        <time>2022-01-20T14:05:02Z</time>
      </trkpt>
      <trkpt lat="47.25865" lon="-1.5902">
        <ele>81</ele>
        <time>2022-01-20T14:05:03Z</time>
      </trkpt>
      <trkpt lat="47.25864" lon="-1.59022">
        <ele>81</ele>
        <time>2022-01-20T14:05:04Z</time>
      </trkpt>
      <trkpt lat="47.25864" lon="-1.59024">
        <ele>80</ele>
        <time>2022-01-20T14:05:05Z</time>
      </trkpt>
      <trkpt lat="47.25863" lon="-1.59026">
        <ele>80</ele>
        <time>2022-01-20T14:05:06Z</time>
      </trkpt>
      <trkpt lat="47.25862" lon="-1.59027">
        <ele>80</ele>
        <time>2022-01-20T14:05:07Z</time>
      </trkpt>
      <trkpt lat="47.25861" lon="-1.59029">
        <ele>80</ele>
        <time>2022-01-20T14:05:08Z</time>
      </trkpt>
      <trkpt lat="47.2586" lon="-1.59029">
        <ele>80</ele>
        <time>2022-01-20T14:05:09Z</time>
      </trkpt>
      <trkpt lat="47.25858" lon="-1.5903">
        <ele>80</ele>
        <time>2022-01-20T14:05:10Z</time>
      </trkpt>
      <trkpt lat="47.25857" lon="-1.59031">
        <ele>80</ele>
        <time>2022-01-20T14:05:11Z</time>
      </trkpt>
      <trkpt lat="47.25856" lon="-1.59031">
        <ele>79</ele>
        <time>2022-01-20T14:05:12Z</time>
      </trkpt>
      <trkpt lat="47.25855" lon="-1.59031">
        <ele>80</ele>
        <time>2022-01-20T14:05:13Z</time>
      </trkpt>
      <trkpt lat="47.25854" lon="-1.59032">
        <ele>79</ele>
        <time>2022-01-20T14:05:14Z</time>
      </trkpt>
      <trkpt lat="47.25853" lon="-1.59033">
        <ele>78</ele>
        <time>2022-01-20T14:05:15Z</time>
      </trkpt>
      <trkpt lat="47.25852" lon="-1.59033">
        <ele>78</ele>
        <time>2022-01-20T14:05:16Z</time>
      </trkpt>
      <trkpt lat="47.25852" lon="-1.59033">
        <ele>78</ele>
        <time>2022-01-20T14:05:17Z</time>
      </trkpt>
      <trkpt lat="47.25852" lon="-1.59033">
        <ele>78</ele>
        <time>2022-01-20T14:05:18Z</time>
      </trkpt>
      <trkpt lat="47.2585" lon="-1.59036">
        <ele>77</ele>
        <time>2022-01-20T14:05:19Z</time>
      </trkpt>
      <trkpt lat="47.25848" lon="-1.59037">
        <ele>77</ele>
        <time>2022-01-20T14:05:20Z</time>
      </trkpt>
      <trkpt lat="47.25847" lon="-1.59038">
        <ele>77</ele>
        <time>2022-01-20T14:05:21Z</time>
      </trkpt>
      <trkpt lat="47.25847" lon="-1.5904">
        <ele>76</ele>
        <time>2022-01-20T14:05:22Z</time>
      </trkpt>
      <trkpt lat="47.25846" lon="-1.5904">
        <ele>76</ele>
        <time>2022-01-20T14:05:23Z</time>
      </trkpt>
      <trkpt lat="47.25845" lon="-1.59041">
        <ele>76</ele>
        <time>2022-01-20T14:05:24Z</time>
      </trkpt>
      <trkpt lat="47.25845" lon="-1.59041">
        <ele>76</ele>
        <time>2022-01-20T14:05:25Z</time>
      </trkpt>
      <trkpt lat="47.25845" lon="-1.59041">
        <ele>76</ele>
        <time>2022-01-20T14:05:26Z</time>
      </trkpt>
      <trkpt lat="47.25843" lon="-1.59044">
        <ele>75</ele>
        <time>2022-01-20T14:05:27Z</time>
      </trkpt>
      <trkpt lat="47.25841" lon="-1.59045">
        <ele>76</ele>
        <time>2022-01-20T14:05:28Z</time>
      </trkpt>
      <trkpt lat="47.2584" lon="-1.59045">
        <ele>76</ele>
        <time>2022-01-20T14:05:29Z</time>
      </trkpt>
      <trkpt lat="47.25839" lon="-1.59047">
        <ele>75</ele>
        <time>2022-01-20T14:05:30Z</time>
      </trkpt>
      <trkpt lat="47.25839" lon="-1.59047">
        <ele>75</ele>
        <time>2022-01-20T14:05:31Z</time>
      </trkpt>
      <trkpt lat="47.25839" lon="-1.59047">
        <ele>75</ele>
        <time>2022-01-20T14:05:32Z</time>
      </trkpt>
      <trkpt lat="47.25837" lon="-1.59049">
        <ele>75</ele>
        <time>2022-01-20T14:05:33Z</time>
      </trkpt>
      <trkpt lat="47.25836" lon="-1.5905">
        <ele>76</ele>
        <time>2022-01-20T14:05:34Z</time>
      </trkpt>
      <trkpt lat="47.25834" lon="-1.59051">
        <ele>76</ele>
        <time>2022-01-20T14:05:35Z</time>
      </trkpt>
      <trkpt lat="47.25833" lon="-1.59051">
        <ele>76</ele>
        <time>2022-01-20T14:05:36Z</time>
      </trkpt>
      <trkpt lat="47.25833" lon="-1.59051">
        <ele>76</ele>
        <time>2022-01-20T14:05:37Z</time>
      </trkpt>
      <trkpt lat="47.25831" lon="-1.59053">
        <ele>75</ele>
        <time>2022-01-20T14:05:38Z</time>
      </trkpt>
      <trkpt lat="47.25829" lon="-1.59054">
        <ele>75</ele>
        <time>2022-01-20T14:05:39Z</time>
      </trkpt>
      <trkpt lat="47.25828" lon="-1.59056">
        <ele>75</ele>
        <time>2022-01-20T14:05:40Z</time>
      </trkpt>
      <trkpt lat="47.25827" lon="-1.59057">
        <ele>75</ele>
        <time>2022-01-20T14:05:41Z</time>
      </trkpt>
      <trkpt lat="47.25826" lon="-1.59057">
        <ele>75</ele>
        <time>2022-01-20T14:05:42Z</time>
      </trkpt>
      <trkpt lat="47.25824" lon="-1.59058">
        <ele>75</ele>
        <time>2022-01-20T14:05:43Z</time>
      </trkpt>
      <trkpt lat="47.25824" lon="-1.59058">
        <ele>75</ele>
        <time>2022-01-20T14:05:44Z</time>
      </trkpt>
      <trkpt lat="47.25824" lon="-1.59058">
        <ele>75</ele>
        <time>2022-01-20T14:05:45Z</time>
      </trkpt>
      <trkpt lat="47.25822" lon="-1.59061">
        <ele>75</ele>
        <time>2022-01-20T14:05:46Z</time>
      </trkpt>
      <trkpt lat="47.25821" lon="-1.59063">
        <ele>76</ele>
        <time>2022-01-20T14:05:47Z</time>
      </trkpt>
      <trkpt lat="47.25819" lon="-1.59064">
        <ele>76</ele>
        <time>2022-01-20T14:05:48Z</time>
      </trkpt>
      <trkpt lat="47.25818" lon="-1.59065">
        <ele>76</ele>
        <time>2022-01-20T14:05:49Z</time>
      </trkpt>
      <trkpt lat="47.25818" lon="-1.59065">
        <ele>76</ele>
        <time>2022-01-20T14:05:50Z</time>
      </trkpt>
      <trkpt lat="47.25818" lon="-1.59065">
        <ele>76</ele>
        <time>2022-01-20T14:05:51Z</time>
      </trkpt>
      <trkpt lat="47.25818" lon="-1.59065">
        <ele>76</ele>
        <time>2022-01-20T14:05:52Z</time>
      </trkpt>
      <trkpt lat="47.25818" lon="-1.59065">
        <ele>76</ele>
        <time>2022-01-20T14:05:53Z</time>
      </trkpt>
      <trkpt lat="47.25815" lon="-1.59068">
        <ele>76</ele>
        <time>2022-01-20T14:05:54Z</time>
      </trkpt>
      <trkpt lat="47.25814" lon="-1.59069">
        <ele>77</ele>
        <time>2022-01-20T14:05:55Z</time>
      </trkpt>
      <trkpt lat="47.25814" lon="-1.5907">
        <ele>77</ele>
        <time>2022-01-20T14:05:56Z</time>
      </trkpt>
      <trkpt lat="47.25813" lon="-1.59071">
        <ele>77</ele>
        <time>2022-01-20T14:05:57Z</time>
      </trkpt>
      <trkpt lat="47.25813" lon="-1.59071">
        <ele>77</ele>
        <time>2022-01-20T14:05:58Z</time>
      </trkpt>
      <trkpt lat="47.25813" lon="-1.59071">
        <ele>77</ele>
        <time>2022-01-20T14:05:59Z</time>
      </trkpt>
      <trkpt lat="47.25811" lon="-1.59073">
        <ele>77</ele>
        <time>2022-01-20T14:06:00Z</time>
      </trkpt>
      <trkpt lat="47.2581" lon="-1.59074">
        <ele>77</ele>
        <time>2022-01-20T14:06:01Z</time>
      </trkpt>
      <trkpt lat="47.25809" lon="-1.59075">
        <ele>77</ele>
        <time>2022-01-20T14:06:02Z</time>
      </trkpt>
      <trkpt lat="47.25808" lon="-1.59076">
        <ele>77</ele>
        <time>2022-01-20T14:06:03Z</time>
      </trkpt>
      <trkpt lat="47.25806" lon="-1.59077">
        <ele>77</ele>
        <time>2022-01-20T14:06:04Z</time>
      </trkpt>
      <trkpt lat="47.25805" lon="-1.59078">
        <ele>77</ele>
        <time>2022-01-20T14:06:05Z</time>
      </trkpt>
      <trkpt lat="47.25805" lon="-1.59079">
        <ele>77</ele>
        <time>2022-01-20T14:06:06Z</time>
      </trkpt>
      <trkpt lat="47.25805" lon="-1.59079">
        <ele>77</ele>
        <time>2022-01-20T14:06:07Z</time>
      </trkpt>
      <trkpt lat="47.25803" lon="-1.59082">
        <ele>77</ele>
        <time>2022-01-20T14:06:08Z</time>
      </trkpt>
      <trkpt lat="47.25802" lon="-1.59084">
        <ele>78</ele>
        <time>2022-01-20T14:06:09Z</time>
      </trkpt>
      <trkpt lat="47.25802" lon="-1.59085">
        <ele>78</ele>
        <time>2022-01-20T14:06:10Z</time>
      </trkpt>
      <trkpt lat="47.25801" lon="-1.59086">
        <ele>78</ele>
        <time>2022-01-20T14:06:11Z</time>
      </trkpt>
      <trkpt lat="47.258" lon="-1.59088">
        <ele>78</ele>
        <time>2022-01-20T14:06:12Z</time>
      </trkpt>
      <trkpt lat="47.25799" lon="-1.5909">
        <ele>79</ele>
        <time>2022-01-20T14:06:13Z</time>
      </trkpt>
      <trkpt lat="47.25799" lon="-1.59092">
        <ele>78</ele>
        <time>2022-01-20T14:06:14Z</time>
      </trkpt>
      <trkpt lat="47.25799" lon="-1.59092">
        <ele>78</ele>
        <time>2022-01-20T14:06:15Z</time>
      </trkpt>
      <trkpt lat="47.25798" lon="-1.59092">
        <ele>78</ele>
        <time>2022-01-20T14:06:16Z</time>
      </trkpt>
      <trkpt lat="47.25798" lon="-1.59093">
        <ele>78</ele>
        <time>2022-01-20T14:06:17Z</time>
      </trkpt>
      <trkpt lat="47.25797" lon="-1.59094">
        <ele>78</ele>
        <time>2022-01-20T14:06:18Z</time>
      </trkpt>
      <trkpt lat="47.25797" lon="-1.59095">
        <ele>77</ele>
        <time>2022-01-20T14:06:19Z</time>
      </trkpt>
      <trkpt lat="47.25796" lon="-1.59096">
        <ele>77</ele>
        <time>2022-01-20T14:06:20Z</time>
      </trkpt>
      <trkpt lat="47.25795" lon="-1.59097">
        <ele>77</ele>
        <time>2022-01-20T14:06:21Z</time>
      </trkpt>
      <trkpt lat="47.25795" lon="-1.59097">
        <ele>77</ele>
        <time>2022-01-20T14:06:22Z</time>
      </trkpt>
      <trkpt lat="47.25795" lon="-1.59097">
        <ele>77</ele>
        <time>2022-01-20T14:06:23Z</time>
      </trkpt>
      <trkpt lat="47.25794" lon="-1.59101">
        <ele>77</ele>
        <time>2022-01-20T14:06:24Z</time>
      </trkpt>
      <trkpt lat="47.25794" lon="-1.59103">
        <ele>77</ele>
        <time>2022-01-20T14:06:25Z</time>
      </trkpt>
      <trkpt lat="47.25794" lon="-1.59105">
        <ele>77</ele>
        <time>2022-01-20T14:06:26Z</time>
      </trkpt>
      <trkpt lat="47.25794" lon="-1.59107">
        <ele>77</ele>
        <time>2022-01-20T14:06:27Z</time>
      </trkpt>
      <trkpt lat="47.25794" lon="-1.59107">
        <ele>77</ele>
        <time>2022-01-20T14:06:28Z</time>
      </trkpt>
      <trkpt lat="47.25794" lon="-1.59107">
        <ele>77</ele>
        <time>2022-01-20T14:06:29Z</time>
      </trkpt>
      <trkpt lat="47.25795" lon="-1.59112">
        <ele>77</ele>
        <time>2022-01-20T14:06:30Z</time>
      </trkpt>
      <trkpt lat="47.25794" lon="-1.59114">
        <ele>76</ele>
        <time>2022-01-20T14:06:31Z</time>
      </trkpt>
      <trkpt lat="47.25794" lon="-1.59114">
        <ele>76</ele>
        <time>2022-01-20T14:06:32Z</time>
      </trkpt>
      <trkpt lat="47.25794" lon="-1.59115">
        <ele>76</ele>
        <time>2022-01-20T14:06:33Z</time>
      </trkpt>
      <trkpt lat="47.25794" lon="-1.59115">
        <ele>76</ele>
        <time>2022-01-20T14:06:34Z</time>
      </trkpt>
      <trkpt lat="47.25794" lon="-1.59119">
        <ele>77</ele>
        <time>2022-01-20T14:06:35Z</time>
      </trkpt>
      <trkpt lat="47.25794" lon="-1.59121">
        <ele>77</ele>
        <time>2022-01-20T14:06:36Z</time>
      </trkpt>
      <trkpt lat="47.25794" lon="-1.59123">
        <ele>77</ele>
        <time>2022-01-20T14:06:37Z</time>
      </trkpt>
      <trkpt lat="47.25794" lon="-1.59126">
        <ele>76</ele>
        <time>2022-01-20T14:06:38Z</time>
      </trkpt>
      <trkpt lat="47.25794" lon="-1.59128">
        <ele>76</ele>
        <time>2022-01-20T14:06:39Z</time>
      </trkpt>
      <trkpt lat="47.25794" lon="-1.59129">
        <ele>76</ele>
        <time>2022-01-20T14:06:40Z</time>
      </trkpt>
      <trkpt lat="47.25793" lon="-1.5913">
        <ele>76</ele>
        <time>2022-01-20T14:06:41Z</time>
      </trkpt>
      <trkpt lat="47.25793" lon="-1.59132">
        <ele>77</ele>
        <time>2022-01-20T14:06:42Z</time>
      </trkpt>
      <trkpt lat="47.25793" lon="-1.59132">
        <ele>77</ele>
        <time>2022-01-20T14:06:43Z</time>
      </trkpt>
      <trkpt lat="47.25793" lon="-1.59132">
        <ele>77</ele>
        <time>2022-01-20T14:06:44Z</time>
      </trkpt>
      <trkpt lat="47.25793" lon="-1.59136">
        <ele>77</ele>
        <time>2022-01-20T14:06:45Z</time>
      </trkpt>
      <trkpt lat="47.25794" lon="-1.59138">
        <ele>77</ele>
        <time>2022-01-20T14:06:46Z</time>
      </trkpt>
      <trkpt lat="47.25794" lon="-1.5914">
        <ele>77</ele>
        <time>2022-01-20T14:06:47Z</time>
      </trkpt>
      <trkpt lat="47.25794" lon="-1.59143">
        <ele>78</ele>
        <time>2022-01-20T14:06:48Z</time>
      </trkpt>
      <trkpt lat="47.25795" lon="-1.59145">
        <ele>79</ele>
        <time>2022-01-20T14:06:49Z</time>
      </trkpt>
      <trkpt lat="47.25795" lon="-1.59145">
        <ele>79</ele>
        <time>2022-01-20T14:06:50Z</time>
      </trkpt>
      <trkpt lat="47.25795" lon="-1.59145">
        <ele>79</ele>
        <time>2022-01-20T14:06:51Z</time>
      </trkpt>
      <trkpt lat="47.25794" lon="-1.59149">
        <ele>78</ele>
        <time>2022-01-20T14:06:52Z</time>
      </trkpt>
      <trkpt lat="47.25793" lon="-1.59151">
        <ele>78</ele>
        <time>2022-01-20T14:06:53Z</time>
      </trkpt>
      <trkpt lat="47.25793" lon="-1.59153">
        <ele>78</ele>
        <time>2022-01-20T14:06:54Z</time>
      </trkpt>
      <trkpt lat="47.25793" lon="-1.59155">
        <ele>78</ele>
        <time>2022-01-20T14:06:55Z</time>
      </trkpt>
      <trkpt lat="47.25793" lon="-1.59155">
        <ele>78</ele>
        <time>2022-01-20T14:06:56Z</time>
      </trkpt>
      <trkpt lat="47.25793" lon="-1.59155">
        <ele>78</ele>
        <time>2022-01-20T14:06:57Z</time>
      </trkpt>
      <trkpt lat="47.25792" lon="-1.59159">
        <ele>78</ele>
        <time>2022-01-20T14:06:58Z</time>
      </trkpt>
      <trkpt lat="47.25792" lon="-1.59161">
        <ele>78</ele>
        <time>2022-01-20T14:06:59Z</time>
      </trkpt>
      <trkpt lat="47.25791" lon="-1.59162">
        <ele>77</ele>
        <time>2022-01-20T14:07:00Z</time>
      </trkpt>
      <trkpt lat="47.25791" lon="-1.59163">
        <ele>78</ele>
        <time>2022-01-20T14:07:01Z</time>
      </trkpt>
      <trkpt lat="47.25791" lon="-1.59163">
        <ele>78</ele>
        <time>2022-01-20T14:07:02Z</time>
      </trkpt>
      <trkpt lat="47.25791" lon="-1.59163">
        <ele>78</ele>
        <time>2022-01-20T14:07:03Z</time>
      </trkpt>
      <trkpt lat="47.25792" lon="-1.59167">
        <ele>79</ele>
        <time>2022-01-20T14:07:04Z</time>
      </trkpt>
      <trkpt lat="47.25793" lon="-1.59169">
        <ele>78</ele>
        <time>2022-01-20T14:07:05Z</time>
      </trkpt>
      <trkpt lat="47.25793" lon="-1.59171">
        <ele>79</ele>
        <time>2022-01-20T14:07:06Z</time>
      </trkpt>
      <trkpt lat="47.25794" lon="-1.59173">
        <ele>80</ele>
        <time>2022-01-20T14:07:07Z</time>
      </trkpt>
      <trkpt lat="47.25794" lon="-1.59173">
        <ele>80</ele>
        <time>2022-01-20T14:07:08Z</time>
      </trkpt>
      <trkpt lat="47.25794" lon="-1.59173">
        <ele>80</ele>
        <time>2022-01-20T14:07:09Z</time>
      </trkpt>
      <trkpt lat="47.25794" lon="-1.59177">
        <ele>79</ele>
        <time>2022-01-20T14:07:10Z</time>
      </trkpt>
      <trkpt lat="47.25794" lon="-1.59178">
        <ele>78</ele>
        <time>2022-01-20T14:07:11Z</time>
      </trkpt>
      <trkpt lat="47.25794" lon="-1.5918">
        <ele>77</ele>
        <time>2022-01-20T14:07:12Z</time>
      </trkpt>
      <trkpt lat="47.25793" lon="-1.59181">
        <ele>75</ele>
        <time>2022-01-20T14:07:13Z</time>
      </trkpt>
      <trkpt lat="47.25793" lon="-1.59181">
        <ele>74</ele>
        <time>2022-01-20T14:07:14Z</time>
      </trkpt>
      <trkpt lat="47.25792" lon="-1.59182">
        <ele>72</ele>
        <time>2022-01-20T14:07:15Z</time>
      </trkpt>
      <trkpt lat="47.25791" lon="-1.59183">
        <ele>71</ele>
        <time>2022-01-20T14:07:16Z</time>
      </trkpt>
      <trkpt lat="47.25791" lon="-1.59184">
        <ele>71</ele>
        <time>2022-01-20T14:07:17Z</time>
      </trkpt>
      <trkpt lat="47.2579" lon="-1.59184">
        <ele>70</ele>
        <time>2022-01-20T14:07:18Z</time>
      </trkpt>
      <trkpt lat="47.2579" lon="-1.59184">
        <ele>70</ele>
        <time>2022-01-20T14:07:19Z</time>
      </trkpt>
      <trkpt lat="47.2579" lon="-1.59183">
        <ele>70</ele>
        <time>2022-01-20T14:07:20Z</time>
      </trkpt>
      <trkpt lat="47.2579" lon="-1.59183">
        <ele>70</ele>
        <time>2022-01-20T14:07:21Z</time>
      </trkpt>
      <trkpt lat="47.25789" lon="-1.59183">
        <ele>70</ele>
        <time>2022-01-20T14:07:22Z</time>
      </trkpt>
      <trkpt lat="47.25789" lon="-1.59183">
        <ele>70</ele>
        <time>2022-01-20T14:07:23Z</time>
      </trkpt>
      <trkpt lat="47.25788" lon="-1.59182">
        <ele>70</ele>
        <time>2022-01-20T14:07:24Z</time>
      </trkpt>
      <trkpt lat="47.25788" lon="-1.59182">
        <ele>70</ele>
        <time>2022-01-20T14:07:25Z</time>
      </trkpt>
      <trkpt lat="47.25787" lon="-1.59181">
        <ele>70</ele>
        <time>2022-01-20T14:07:26Z</time>
      </trkpt>
      <trkpt lat="47.25787" lon="-1.5918">
        <ele>70</ele>
        <time>2022-01-20T14:07:27Z</time>
      </trkpt>
      <trkpt lat="47.25786" lon="-1.5918">
        <ele>70</ele>
        <time>2022-01-20T14:07:28Z</time>
      </trkpt>
      <trkpt lat="47.25785" lon="-1.59178">
        <ele>70</ele>
        <time>2022-01-20T14:07:29Z</time>
      </trkpt>
      <trkpt lat="47.25784" lon="-1.59178">
        <ele>70</ele>
        <time>2022-01-20T14:07:30Z</time>
      </trkpt>
      <trkpt lat="47.25783" lon="-1.59178">
        <ele>70</ele>
        <time>2022-01-20T14:07:31Z</time>
      </trkpt>
      <trkpt lat="47.25782" lon="-1.59178">
        <ele>70</ele>
        <time>2022-01-20T14:07:32Z</time>
      </trkpt>
      <trkpt lat="47.25781" lon="-1.59177">
        <ele>69</ele>
        <time>2022-01-20T14:07:33Z</time>
      </trkpt>
      <trkpt lat="47.25781" lon="-1.59176">
        <ele>70</ele>
        <time>2022-01-20T14:07:34Z</time>
      </trkpt>
      <trkpt lat="47.2578" lon="-1.59174">
        <ele>70</ele>
        <time>2022-01-20T14:07:35Z</time>
      </trkpt>
      <trkpt lat="47.25779" lon="-1.59174">
        <ele>70</ele>
        <time>2022-01-20T14:07:36Z</time>
      </trkpt>
      <trkpt lat="47.25778" lon="-1.59173">
        <ele>70</ele>
        <time>2022-01-20T14:07:37Z</time>
      </trkpt>
      <trkpt lat="47.25778" lon="-1.59173">
        <ele>70</ele>
        <time>2022-01-20T14:07:38Z</time>
      </trkpt>
      <trkpt lat="47.25777" lon="-1.59172">
        <ele>70</ele>
        <time>2022-01-20T14:07:39Z</time>
      </trkpt>
      <trkpt lat="47.25776" lon="-1.5917">
        <ele>70</ele>
        <time>2022-01-20T14:07:40Z</time>
      </trkpt>
      <trkpt lat="47.25776" lon="-1.59169">
        <ele>70</ele>
        <time>2022-01-20T14:07:41Z</time>
      </trkpt>
      <trkpt lat="47.25775" lon="-1.59168">
        <ele>70</ele>
        <time>2022-01-20T14:07:42Z</time>
      </trkpt>
      <trkpt lat="47.25774" lon="-1.59167">
        <ele>70</ele>
        <time>2022-01-20T14:07:43Z</time>
      </trkpt>
      <trkpt lat="47.25773" lon="-1.59166">
        <ele>70</ele>
        <time>2022-01-20T14:07:44Z</time>
      </trkpt>
      <trkpt lat="47.25773" lon="-1.59165">
        <ele>70</ele>
        <time>2022-01-20T14:07:45Z</time>
      </trkpt>
      <trkpt lat="47.25772" lon="-1.59164">
        <ele>69</ele>
        <time>2022-01-20T14:07:46Z</time>
      </trkpt>
      <trkpt lat="47.25771" lon="-1.59163">
        <ele>69</ele>
        <time>2022-01-20T14:07:47Z</time>
      </trkpt>
      <trkpt lat="47.2577" lon="-1.59161">
        <ele>69</ele>
        <time>2022-01-20T14:07:48Z</time>
      </trkpt>
      <trkpt lat="47.25769" lon="-1.59161">
        <ele>69</ele>
        <time>2022-01-20T14:07:49Z</time>
      </trkpt>
      <trkpt lat="47.25768" lon="-1.59159">
        <ele>69</ele>
        <time>2022-01-20T14:07:50Z</time>
      </trkpt>
      <trkpt lat="47.25768" lon="-1.59158">
        <ele>68</ele>
        <time>2022-01-20T14:07:51Z</time>
      </trkpt>
      <trkpt lat="47.25767" lon="-1.59157">
        <ele>69</ele>
        <time>2022-01-20T14:07:52Z</time>
      </trkpt>
      <trkpt lat="47.25766" lon="-1.59156">
        <ele>69</ele>
        <time>2022-01-20T14:07:53Z</time>
      </trkpt>
      <trkpt lat="47.25766" lon="-1.59155">
        <ele>69</ele>
        <time>2022-01-20T14:07:54Z</time>
      </trkpt>
      <trkpt lat="47.25766" lon="-1.59155">
        <ele>69</ele>
        <time>2022-01-20T14:07:55Z</time>
      </trkpt>
      <trkpt lat="47.25766" lon="-1.59155">
        <ele>69</ele>
        <time>2022-01-20T14:07:56Z</time>
      </trkpt>
      <trkpt lat="47.25764" lon="-1.59151">
        <ele>70</ele>
        <time>2022-01-20T14:07:57Z</time>
      </trkpt>
      <trkpt lat="47.25763" lon="-1.59149">
        <ele>70</ele>
        <time>2022-01-20T14:07:58Z</time>
      </trkpt>
      <trkpt lat="47.25762" lon="-1.59148">
        <ele>71</ele>
        <time>2022-01-20T14:07:59Z</time>
      </trkpt>
      <trkpt lat="47.25761" lon="-1.59148">
        <ele>71</ele>
        <time>2022-01-20T14:08:00Z</time>
      </trkpt>
      <trkpt lat="47.25759" lon="-1.59147">
        <ele>71</ele>
        <time>2022-01-20T14:08:01Z</time>
      </trkpt>
      <trkpt lat="47.25758" lon="-1.59146">
        <ele>71</ele>
        <time>2022-01-20T14:08:02Z</time>
      </trkpt>
      <trkpt lat="47.25756" lon="-1.59146">
        <ele>71</ele>
        <time>2022-01-20T14:08:03Z</time>
      </trkpt>
      <trkpt lat="47.25755" lon="-1.59145">
        <ele>71</ele>
        <time>2022-01-20T14:08:04Z</time>
      </trkpt>
      <trkpt lat="47.25754" lon="-1.59144">
        <ele>71</ele>
        <time>2022-01-20T14:08:05Z</time>
      </trkpt>
      <trkpt lat="47.25753" lon="-1.59144">
        <ele>71</ele>
        <time>2022-01-20T14:08:06Z</time>
      </trkpt>
      <trkpt lat="47.25752" lon="-1.59143">
        <ele>71</ele>
        <time>2022-01-20T14:08:07Z</time>
      </trkpt>
      <trkpt lat="47.2575" lon="-1.59142">
        <ele>71</ele>
        <time>2022-01-20T14:08:08Z</time>
      </trkpt>
      <trkpt lat="47.25749" lon="-1.59141">
        <ele>71</ele>
        <time>2022-01-20T14:08:09Z</time>
      </trkpt>
      <trkpt lat="47.25748" lon="-1.59141">
        <ele>70</ele>
        <time>2022-01-20T14:08:10Z</time>
      </trkpt>
      <trkpt lat="47.25746" lon="-1.5914">
        <ele>70</ele>
        <time>2022-01-20T14:08:11Z</time>
      </trkpt>
      <trkpt lat="47.25744" lon="-1.59139">
        <ele>69</ele>
        <time>2022-01-20T14:08:12Z</time>
      </trkpt>
      <trkpt lat="47.25743" lon="-1.59138">
        <ele>69</ele>
        <time>2022-01-20T14:08:13Z</time>
      </trkpt>
      <trkpt lat="47.25742" lon="-1.59138">
        <ele>69</ele>
        <time>2022-01-20T14:08:14Z</time>
      </trkpt>
      <trkpt lat="47.2574" lon="-1.59136">
        <ele>69</ele>
        <time>2022-01-20T14:08:15Z</time>
      </trkpt>
      <trkpt lat="47.2574" lon="-1.59135">
        <ele>69</ele>
        <time>2022-01-20T14:08:16Z</time>
      </trkpt>
      <trkpt lat="47.25738" lon="-1.59134">
        <ele>68</ele>
        <time>2022-01-20T14:08:17Z</time>
      </trkpt>
      <trkpt lat="47.25737" lon="-1.59132">
        <ele>68</ele>
        <time>2022-01-20T14:08:18Z</time>
      </trkpt>
      <trkpt lat="47.25736" lon="-1.5913">
        <ele>68</ele>
        <time>2022-01-20T14:08:19Z</time>
      </trkpt>
      <trkpt lat="47.25735" lon="-1.59129">
        <ele>69</ele>
        <time>2022-01-20T14:08:20Z</time>
      </trkpt>
      <trkpt lat="47.25735" lon="-1.59129">
        <ele>69</ele>
        <time>2022-01-20T14:08:21Z</time>
      </trkpt>
      <trkpt lat="47.25735" lon="-1.59129">
        <ele>69</ele>
        <time>2022-01-20T14:08:22Z</time>
      </trkpt>
      <trkpt lat="47.25734" lon="-1.59126">
        <ele>69</ele>
        <time>2022-01-20T14:08:23Z</time>
      </trkpt>
      <trkpt lat="47.25733" lon="-1.59124">
        <ele>69</ele>
        <time>2022-01-20T14:08:24Z</time>
      </trkpt>
      <trkpt lat="47.25732" lon="-1.59122">
        <ele>70</ele>
        <time>2022-01-20T14:08:25Z</time>
      </trkpt>
      <trkpt lat="47.25732" lon="-1.59121">
        <ele>70</ele>
        <time>2022-01-20T14:08:26Z</time>
      </trkpt>
      <trkpt lat="47.25732" lon="-1.59119">
        <ele>70</ele>
        <time>2022-01-20T14:08:27Z</time>
      </trkpt>
      <trkpt lat="47.25732" lon="-1.59117">
        <ele>69</ele>
        <time>2022-01-20T14:08:28Z</time>
      </trkpt>
      <trkpt lat="47.25732" lon="-1.59115">
        <ele>69</ele>
        <time>2022-01-20T14:08:29Z</time>
      </trkpt>
      <trkpt lat="47.25732" lon="-1.59114">
        <ele>70</ele>
        <time>2022-01-20T14:08:30Z</time>
      </trkpt>
      <trkpt lat="47.25732" lon="-1.59112">
        <ele>70</ele>
        <time>2022-01-20T14:08:31Z</time>
      </trkpt>
      <trkpt lat="47.25731" lon="-1.59111">
        <ele>69</ele>
        <time>2022-01-20T14:08:32Z</time>
      </trkpt>
      <trkpt lat="47.25731" lon="-1.5911">
        <ele>69</ele>
        <time>2022-01-20T14:08:33Z</time>
      </trkpt>
      <trkpt lat="47.2573" lon="-1.59108">
        <ele>69</ele>
        <time>2022-01-20T14:08:34Z</time>
      </trkpt>
      <trkpt lat="47.25729" lon="-1.59106">
        <ele>68</ele>
        <time>2022-01-20T14:08:35Z</time>
      </trkpt>
      <trkpt lat="47.25729" lon="-1.59104">
        <ele>68</ele>
        <time>2022-01-20T14:08:36Z</time>
      </trkpt>
      <trkpt lat="47.25729" lon="-1.59102">
        <ele>68</ele>
        <time>2022-01-20T14:08:37Z</time>
      </trkpt>
      <trkpt lat="47.25729" lon="-1.591">
        <ele>69</ele>
        <time>2022-01-20T14:08:38Z</time>
      </trkpt>
      <trkpt lat="47.25729" lon="-1.59099">
        <ele>69</ele>
        <time>2022-01-20T14:08:39Z</time>
      </trkpt>
      <trkpt lat="47.25729" lon="-1.59096">
        <ele>69</ele>
        <time>2022-01-20T14:08:40Z</time>
      </trkpt>
      <trkpt lat="47.25729" lon="-1.59095">
        <ele>70</ele>
        <time>2022-01-20T14:08:41Z</time>
      </trkpt>
      <trkpt lat="47.25729" lon="-1.59094">
        <ele>69</ele>
        <time>2022-01-20T14:08:42Z</time>
      </trkpt>
      <trkpt lat="47.25729" lon="-1.59094">
        <ele>69</ele>
        <time>2022-01-20T14:08:43Z</time>
      </trkpt>
      <trkpt lat="47.25729" lon="-1.59094">
        <ele>69</ele>
        <time>2022-01-20T14:08:44Z</time>
      </trkpt>
      <trkpt lat="47.25728" lon="-1.59089">
        <ele>69</ele>
        <time>2022-01-20T14:08:45Z</time>
      </trkpt>
      <trkpt lat="47.25728" lon="-1.59087">
        <ele>68</ele>
        <time>2022-01-20T14:08:46Z</time>
      </trkpt>
      <trkpt lat="47.25728" lon="-1.59085">
        <ele>68</ele>
        <time>2022-01-20T14:08:47Z</time>
      </trkpt>
      <trkpt lat="47.25727" lon="-1.59083">
        <ele>68</ele>
        <time>2022-01-20T14:08:48Z</time>
      </trkpt>
      <trkpt lat="47.25727" lon="-1.59081">
        <ele>68</ele>
        <time>2022-01-20T14:08:49Z</time>
      </trkpt>
      <trkpt lat="47.25727" lon="-1.59079">
        <ele>67</ele>
        <time>2022-01-20T14:08:50Z</time>
      </trkpt>
      <trkpt lat="47.25727" lon="-1.59079">
        <ele>67</ele>
        <time>2022-01-20T14:08:51Z</time>
      </trkpt>
      <trkpt lat="47.25727" lon="-1.59079">
        <ele>67</ele>
        <time>2022-01-20T14:08:52Z</time>
      </trkpt>
      <trkpt lat="47.25726" lon="-1.59076">
        <ele>67</ele>
        <time>2022-01-20T14:08:53Z</time>
      </trkpt>
      <trkpt lat="47.25726" lon="-1.59075">
        <ele>67</ele>
        <time>2022-01-20T14:08:54Z</time>
      </trkpt>
      <trkpt lat="47.25725" lon="-1.59074">
        <ele>67</ele>
        <time>2022-01-20T14:08:55Z</time>
      </trkpt>
      <trkpt lat="47.25724" lon="-1.59073">
        <ele>67</ele>
        <time>2022-01-20T14:08:56Z</time>
      </trkpt>
      <trkpt lat="47.25724" lon="-1.59073">
        <ele>67</ele>
        <time>2022-01-20T14:08:57Z</time>
      </trkpt>
      <trkpt lat="47.25724" lon="-1.59073">
        <ele>67</ele>
        <time>2022-01-20T14:08:58Z</time>
      </trkpt>
      <trkpt lat="47.25723" lon="-1.59072">
        <ele>67</ele>
        <time>2022-01-20T14:08:59Z</time>
      </trkpt>
      <trkpt lat="47.25722" lon="-1.59071">
        <ele>66</ele>
        <time>2022-01-20T14:09:00Z</time>
      </trkpt>
      <trkpt lat="47.25721" lon="-1.5907">
        <ele>65</ele>
        <time>2022-01-20T14:09:01Z</time>
      </trkpt>
      <trkpt lat="47.25721" lon="-1.5907">
        <ele>65</ele>
        <time>2022-01-20T14:09:02Z</time>
      </trkpt>
      <trkpt lat="47.25721" lon="-1.5907">
        <ele>65</ele>
        <time>2022-01-20T14:09:03Z</time>
      </trkpt>
      <trkpt lat="47.25718" lon="-1.59069">
        <ele>65</ele>
        <time>2022-01-20T14:09:04Z</time>
      </trkpt>
      <trkpt lat="47.25717" lon="-1.59069">
        <ele>64</ele>
        <time>2022-01-20T14:09:05Z</time>
      </trkpt>
      <trkpt lat="47.25715" lon="-1.59069">
        <ele>64</ele>
        <time>2022-01-20T14:09:06Z</time>
      </trkpt>
      <trkpt lat="47.25714" lon="-1.59069">
        <ele>64</ele>
        <time>2022-01-20T14:09:07Z</time>
      </trkpt>
      <trkpt lat="47.25713" lon="-1.59069">
        <ele>64</ele>
        <time>2022-01-20T14:09:08Z</time>
      </trkpt>
      <trkpt lat="47.25711" lon="-1.59068">
        <ele>64</ele>
        <time>2022-01-20T14:09:09Z</time>
      </trkpt>
      <trkpt lat="47.25711" lon="-1.59068">
        <ele>64</ele>
        <time>2022-01-20T14:09:10Z</time>
      </trkpt>
      <trkpt lat="47.25711" lon="-1.59068">
        <ele>64</ele>
        <time>2022-01-20T14:09:11Z</time>
      </trkpt>
      <trkpt lat="47.25711" lon="-1.59068">
        <ele>64</ele>
        <time>2022-01-20T14:09:12Z</time>
      </trkpt>
      <trkpt lat="47.25709" lon="-1.59065">
        <ele>64</ele>
        <time>2022-01-20T14:09:13Z</time>
      </trkpt>
      <trkpt lat="47.25708" lon="-1.59064">
        <ele>64</ele>
        <time>2022-01-20T14:09:14Z</time>
      </trkpt>
      <trkpt lat="47.25707" lon="-1.59063">
        <ele>64</ele>
        <time>2022-01-20T14:09:15Z</time>
      </trkpt>
      <trkpt lat="47.25705" lon="-1.59062">
        <ele>65</ele>
        <time>2022-01-20T14:09:16Z</time>
      </trkpt>
      <trkpt lat="47.25704" lon="-1.59061">
        <ele>65</ele>
        <time>2022-01-20T14:09:17Z</time>
      </trkpt>
      <trkpt lat="47.25702" lon="-1.5906">
        <ele>65</ele>
        <time>2022-01-20T14:09:18Z</time>
      </trkpt>
      <trkpt lat="47.25701" lon="-1.59059">
        <ele>66</ele>
        <time>2022-01-20T14:09:19Z</time>
      </trkpt>
      <trkpt lat="47.257" lon="-1.59059">
        <ele>66</ele>
        <time>2022-01-20T14:09:20Z</time>
      </trkpt>
      <trkpt lat="47.25699" lon="-1.59057">
        <ele>66</ele>
        <time>2022-01-20T14:09:21Z</time>
      </trkpt>
      <trkpt lat="47.25698" lon="-1.59056">
        <ele>66</ele>
        <time>2022-01-20T14:09:22Z</time>
      </trkpt>
      <trkpt lat="47.25697" lon="-1.59055">
        <ele>66</ele>
        <time>2022-01-20T14:09:23Z</time>
      </trkpt>
      <trkpt lat="47.25697" lon="-1.59053">
        <ele>66</ele>
        <time>2022-01-20T14:09:24Z</time>
      </trkpt>
      <trkpt lat="47.25695" lon="-1.59052">
        <ele>66</ele>
        <time>2022-01-20T14:09:25Z</time>
      </trkpt>
      <trkpt lat="47.25694" lon="-1.59051">
        <ele>66</ele>
        <time>2022-01-20T14:09:26Z</time>
      </trkpt>
      <trkpt lat="47.25694" lon="-1.59049">
        <ele>66</ele>
        <time>2022-01-20T14:09:27Z</time>
      </trkpt>
      <trkpt lat="47.25693" lon="-1.59047">
        <ele>66</ele>
        <time>2022-01-20T14:09:28Z</time>
      </trkpt>
      <trkpt lat="47.25692" lon="-1.59045">
        <ele>65</ele>
        <time>2022-01-20T14:09:29Z</time>
      </trkpt>
      <trkpt lat="47.2569" lon="-1.59044">
        <ele>65</ele>
        <time>2022-01-20T14:09:30Z</time>
      </trkpt>
      <trkpt lat="47.25689" lon="-1.59042">
        <ele>64</ele>
        <time>2022-01-20T14:09:31Z</time>
      </trkpt>
      <trkpt lat="47.25688" lon="-1.59041">
        <ele>64</ele>
        <time>2022-01-20T14:09:32Z</time>
      </trkpt>
      <trkpt lat="47.25687" lon="-1.59039">
        <ele>64</ele>
        <time>2022-01-20T14:09:33Z</time>
      </trkpt>
      <trkpt lat="47.25687" lon="-1.59036">
        <ele>64</ele>
        <time>2022-01-20T14:09:34Z</time>
      </trkpt>
      <trkpt lat="47.25686" lon="-1.59035">
        <ele>64</ele>
        <time>2022-01-20T14:09:35Z</time>
      </trkpt>
      <trkpt lat="47.25685" lon="-1.59034">
        <ele>64</ele>
        <time>2022-01-20T14:09:36Z</time>
      </trkpt>
      <trkpt lat="47.25684" lon="-1.59032">
        <ele>64</ele>
        <time>2022-01-20T14:09:37Z</time>
      </trkpt>
      <trkpt lat="47.25682" lon="-1.59031">
        <ele>64</ele>
        <time>2022-01-20T14:09:38Z</time>
      </trkpt>
      <trkpt lat="47.25682" lon="-1.59029">
        <ele>65</ele>
        <time>2022-01-20T14:09:39Z</time>
      </trkpt>
      <trkpt lat="47.25681" lon="-1.59027">
        <ele>65</ele>
        <time>2022-01-20T14:09:40Z</time>
      </trkpt>
      <trkpt lat="47.25681" lon="-1.59025">
        <ele>65</ele>
        <time>2022-01-20T14:09:41Z</time>
      </trkpt>
      <trkpt lat="47.25679" lon="-1.59023">
        <ele>65</ele>
        <time>2022-01-20T14:09:42Z</time>
      </trkpt>
      <trkpt lat="47.25678" lon="-1.59022">
        <ele>65</ele>
        <time>2022-01-20T14:09:43Z</time>
      </trkpt>
      <trkpt lat="47.25677" lon="-1.5902">
        <ele>65</ele>
        <time>2022-01-20T14:09:44Z</time>
      </trkpt>
      <trkpt lat="47.25676" lon="-1.59019">
        <ele>65</ele>
        <time>2022-01-20T14:09:45Z</time>
      </trkpt>
      <trkpt lat="47.25675" lon="-1.59017">
        <ele>65</ele>
        <time>2022-01-20T14:09:46Z</time>
      </trkpt>
      <trkpt lat="47.25674" lon="-1.59015">
        <ele>64</ele>
        <time>2022-01-20T14:09:47Z</time>
      </trkpt>
      <trkpt lat="47.25673" lon="-1.59013">
        <ele>65</ele>
        <time>2022-01-20T14:09:48Z</time>
      </trkpt>
      <trkpt lat="47.25673" lon="-1.59011">
        <ele>65</ele>
        <time>2022-01-20T14:09:49Z</time>
      </trkpt>
      <trkpt lat="47.25672" lon="-1.59009">
        <ele>65</ele>
        <time>2022-01-20T14:09:50Z</time>
      </trkpt>
      <trkpt lat="47.25671" lon="-1.59008">
        <ele>65</ele>
        <time>2022-01-20T14:09:51Z</time>
      </trkpt>
      <trkpt lat="47.25671" lon="-1.59006">
        <ele>64</ele>
        <time>2022-01-20T14:09:52Z</time>
      </trkpt>
      <trkpt lat="47.2567" lon="-1.59004">
        <ele>64</ele>
        <time>2022-01-20T14:09:53Z</time>
      </trkpt>
      <trkpt lat="47.25669" lon="-1.59003">
        <ele>64</ele>
        <time>2022-01-20T14:09:54Z</time>
      </trkpt>
      <trkpt lat="47.25668" lon="-1.59001">
        <ele>64</ele>
        <time>2022-01-20T14:09:55Z</time>
      </trkpt>
      <trkpt lat="47.25667" lon="-1.59">
        <ele>63</ele>
        <time>2022-01-20T14:09:56Z</time>
      </trkpt>
      <trkpt lat="47.25667" lon="-1.58998">
        <ele>63</ele>
        <time>2022-01-20T14:09:57Z</time>
      </trkpt>
      <trkpt lat="47.25666" lon="-1.58997">
        <ele>63</ele>
        <time>2022-01-20T14:09:58Z</time>
      </trkpt>
      <trkpt lat="47.25665" lon="-1.58996">
        <ele>63</ele>
        <time>2022-01-20T14:09:59Z</time>
      </trkpt>
      <trkpt lat="47.25664" lon="-1.58994">
        <ele>63</ele>
        <time>2022-01-20T14:10:00Z</time>
      </trkpt>
      <trkpt lat="47.25663" lon="-1.58991">
        <ele>63</ele>
        <time>2022-01-20T14:10:01Z</time>
      </trkpt>
      <trkpt lat="47.25662" lon="-1.5899">
        <ele>63</ele>
        <time>2022-01-20T14:10:02Z</time>
      </trkpt>
      <trkpt lat="47.25661" lon="-1.58988">
        <ele>63</ele>
        <time>2022-01-20T14:10:03Z</time>
      </trkpt>
      <trkpt lat="47.25661" lon="-1.58986">
        <ele>63</ele>
        <time>2022-01-20T14:10:04Z</time>
      </trkpt>
      <trkpt lat="47.2566" lon="-1.58984">
        <ele>64</ele>
        <time>2022-01-20T14:10:05Z</time>
      </trkpt>
      <trkpt lat="47.25659" lon="-1.58982">
        <ele>65</ele>
        <time>2022-01-20T14:10:06Z</time>
      </trkpt>
      <trkpt lat="47.25658" lon="-1.5898">
        <ele>65</ele>
        <time>2022-01-20T14:10:07Z</time>
      </trkpt>
      <trkpt lat="47.25658" lon="-1.58978">
        <ele>65</ele>
        <time>2022-01-20T14:10:08Z</time>
      </trkpt>
      <trkpt lat="47.25657" lon="-1.58977">
        <ele>65</ele>
        <time>2022-01-20T14:10:09Z</time>
      </trkpt>
      <trkpt lat="47.25657" lon="-1.58975">
        <ele>65</ele>
        <time>2022-01-20T14:10:10Z</time>
      </trkpt>
      <trkpt lat="47.25656" lon="-1.58972">
        <ele>66</ele>
        <time>2022-01-20T14:10:11Z</time>
      </trkpt>
      <trkpt lat="47.25655" lon="-1.5897">
        <ele>65</ele>
        <time>2022-01-20T14:10:12Z</time>
      </trkpt>
      <trkpt lat="47.25654" lon="-1.58969">
        <ele>65</ele>
        <time>2022-01-20T14:10:13Z</time>
      </trkpt>
      <trkpt lat="47.25654" lon="-1.58967">
        <ele>65</ele>
        <time>2022-01-20T14:10:14Z</time>
      </trkpt>
      <trkpt lat="47.25653" lon="-1.58965">
        <ele>65</ele>
        <time>2022-01-20T14:10:15Z</time>
      </trkpt>
      <trkpt lat="47.25652" lon="-1.58964">
        <ele>66</ele>
        <time>2022-01-20T14:10:16Z</time>
      </trkpt>
      <trkpt lat="47.25651" lon="-1.58963">
        <ele>66</ele>
        <time>2022-01-20T14:10:17Z</time>
      </trkpt>
      <trkpt lat="47.2565" lon="-1.58961">
        <ele>66</ele>
        <time>2022-01-20T14:10:18Z</time>
      </trkpt>
      <trkpt lat="47.25649" lon="-1.5896">
        <ele>66</ele>
        <time>2022-01-20T14:10:19Z</time>
      </trkpt>
      <trkpt lat="47.25648" lon="-1.5896">
        <ele>66</ele>
        <time>2022-01-20T14:10:20Z</time>
      </trkpt>
      <trkpt lat="47.25647" lon="-1.58958">
        <ele>67</ele>
        <time>2022-01-20T14:10:21Z</time>
      </trkpt>
      <trkpt lat="47.25647" lon="-1.58957">
        <ele>67</ele>
        <time>2022-01-20T14:10:22Z</time>
      </trkpt>
      <trkpt lat="47.25646" lon="-1.58956">
        <ele>68</ele>
        <time>2022-01-20T14:10:23Z</time>
      </trkpt>
      <trkpt lat="47.25646" lon="-1.58956">
        <ele>68</ele>
        <time>2022-01-20T14:10:24Z</time>
      </trkpt>
      <trkpt lat="47.25646" lon="-1.58956">
        <ele>68</ele>
        <time>2022-01-20T14:10:25Z</time>
      </trkpt>
      <trkpt lat="47.25645" lon="-1.58955">
        <ele>69</ele>
        <time>2022-01-20T14:10:26Z</time>
      </trkpt>
      <trkpt lat="47.25644" lon="-1.58953">
        <ele>69</ele>
        <time>2022-01-20T14:10:27Z</time>
      </trkpt>
      <trkpt lat="47.25644" lon="-1.58951">
        <ele>69</ele>
        <time>2022-01-20T14:10:28Z</time>
      </trkpt>
      <trkpt lat="47.25643" lon="-1.5895">
        <ele>69</ele>
        <time>2022-01-20T14:10:29Z</time>
      </trkpt>
      <trkpt lat="47.25642" lon="-1.58949">
        <ele>69</ele>
        <time>2022-01-20T14:10:30Z</time>
      </trkpt>
      <trkpt lat="47.25642" lon="-1.58947">
        <ele>69</ele>
        <time>2022-01-20T14:10:31Z</time>
      </trkpt>
      <trkpt lat="47.25642" lon="-1.58945">
        <ele>69</ele>
        <time>2022-01-20T14:10:32Z</time>
      </trkpt>
      <trkpt lat="47.25642" lon="-1.58943">
        <ele>69</ele>
        <time>2022-01-20T14:10:33Z</time>
      </trkpt>
      <trkpt lat="47.25642" lon="-1.58943">
        <ele>69</ele>
        <time>2022-01-20T14:10:34Z</time>
      </trkpt>
      <trkpt lat="47.25642" lon="-1.58943">
        <ele>69</ele>
        <time>2022-01-20T14:10:35Z</time>
      </trkpt>
      <trkpt lat="47.25642" lon="-1.5894">
        <ele>68</ele>
        <time>2022-01-20T14:10:36Z</time>
      </trkpt>
      <trkpt lat="47.25643" lon="-1.58938">
        <ele>67</ele>
        <time>2022-01-20T14:10:37Z</time>
      </trkpt>
      <trkpt lat="47.25643" lon="-1.58937">
        <ele>67</ele>
        <time>2022-01-20T14:10:38Z</time>
      </trkpt>
      <trkpt lat="47.25644" lon="-1.58935">
        <ele>68</ele>
        <time>2022-01-20T14:10:39Z</time>
      </trkpt>
      <trkpt lat="47.25644" lon="-1.58935">
        <ele>68</ele>
        <time>2022-01-20T14:10:40Z</time>
      </trkpt>
      <trkpt lat="47.25645" lon="-1.58933">
        <ele>68</ele>
        <time>2022-01-20T14:10:41Z</time>
      </trkpt>
      <trkpt lat="47.25645" lon="-1.58931">
        <ele>68</ele>
        <time>2022-01-20T14:10:42Z</time>
      </trkpt>
      <trkpt lat="47.25645" lon="-1.58929">
        <ele>67</ele>
        <time>2022-01-20T14:10:43Z</time>
      </trkpt>
      <trkpt lat="47.25646" lon="-1.58927">
        <ele>68</ele>
        <time>2022-01-20T14:10:44Z</time>
      </trkpt>
      <trkpt lat="47.25647" lon="-1.58926">
        <ele>69</ele>
        <time>2022-01-20T14:10:45Z</time>
      </trkpt>
      <trkpt lat="47.25647" lon="-1.58926">
        <ele>69</ele>
        <time>2022-01-20T14:10:46Z</time>
      </trkpt>
      <trkpt lat="47.25647" lon="-1.58926">
        <ele>69</ele>
        <time>2022-01-20T14:10:47Z</time>
      </trkpt>
      <trkpt lat="47.25649" lon="-1.58924">
        <ele>69</ele>
        <time>2022-01-20T14:10:48Z</time>
      </trkpt>
      <trkpt lat="47.25649" lon="-1.58923">
        <ele>69</ele>
        <time>2022-01-20T14:10:49Z</time>
      </trkpt>
      <trkpt lat="47.25649" lon="-1.58922">
        <ele>69</ele>
        <time>2022-01-20T14:10:50Z</time>
      </trkpt>
      <trkpt lat="47.25649" lon="-1.58921">
        <ele>69</ele>
        <time>2022-01-20T14:10:51Z</time>
      </trkpt>
      <trkpt lat="47.25649" lon="-1.58921">
        <ele>69</ele>
        <time>2022-01-20T14:10:52Z</time>
      </trkpt>
      <trkpt lat="47.25651" lon="-1.58921">
        <ele>67</ele>
        <time>2022-01-20T14:10:53Z</time>
      </trkpt>
      <trkpt lat="47.25652" lon="-1.58922">
        <ele>66</ele>
        <time>2022-01-20T14:10:54Z</time>
      </trkpt>
      <trkpt lat="47.25654" lon="-1.58922">
        <ele>66</ele>
        <time>2022-01-20T14:10:55Z</time>
      </trkpt>
      <trkpt lat="47.25655" lon="-1.58922">
        <ele>66</ele>
        <time>2022-01-20T14:10:56Z</time>
      </trkpt>
      <trkpt lat="47.25656" lon="-1.58921">
        <ele>66</ele>
        <time>2022-01-20T14:10:57Z</time>
      </trkpt>
      <trkpt lat="47.25656" lon="-1.58921">
        <ele>66</ele>
        <time>2022-01-20T14:10:58Z</time>
      </trkpt>
      <trkpt lat="47.25658" lon="-1.5892">
        <ele>65</ele>
        <time>2022-01-20T14:10:59Z</time>
      </trkpt>
      <trkpt lat="47.25659" lon="-1.58919">
        <ele>65</ele>
        <time>2022-01-20T14:11:00Z</time>
      </trkpt>
      <trkpt lat="47.2566" lon="-1.58918">
        <ele>66</ele>
        <time>2022-01-20T14:11:01Z</time>
      </trkpt>
      <trkpt lat="47.25662" lon="-1.58917">
        <ele>66</ele>
        <time>2022-01-20T14:11:02Z</time>
      </trkpt>
      <trkpt lat="47.25662" lon="-1.58915">
        <ele>67</ele>
        <time>2022-01-20T14:11:03Z</time>
      </trkpt>
      <trkpt lat="47.25662" lon="-1.58915">
        <ele>67</ele>
        <time>2022-01-20T14:11:04Z</time>
      </trkpt>
      <trkpt lat="47.25662" lon="-1.58915">
        <ele>67</ele>
        <time>2022-01-20T14:11:05Z</time>
      </trkpt>
      <trkpt lat="47.25662" lon="-1.58912">
        <ele>66</ele>
        <time>2022-01-20T14:11:06Z</time>
      </trkpt>
      <trkpt lat="47.25663" lon="-1.5891">
        <ele>66</ele>
        <time>2022-01-20T14:11:07Z</time>
      </trkpt>
      <trkpt lat="47.25663" lon="-1.58908">
        <ele>67</ele>
        <time>2022-01-20T14:11:08Z</time>
      </trkpt>
      <trkpt lat="47.25663" lon="-1.58906">
        <ele>68</ele>
        <time>2022-01-20T14:11:09Z</time>
      </trkpt>
      <trkpt lat="47.25663" lon="-1.58906">
        <ele>68</ele>
        <time>2022-01-20T14:11:10Z</time>
      </trkpt>
      <trkpt lat="47.25663" lon="-1.58906">
        <ele>68</ele>
        <time>2022-01-20T14:11:11Z</time>
      </trkpt>
      <trkpt lat="47.25663" lon="-1.58901">
        <ele>68</ele>
        <time>2022-01-20T14:11:12Z</time>
      </trkpt>
      <trkpt lat="47.25664" lon="-1.58899">
        <ele>69</ele>
        <time>2022-01-20T14:11:13Z</time>
      </trkpt>
      <trkpt lat="47.25664" lon="-1.58898">
        <ele>68</ele>
        <time>2022-01-20T14:11:14Z</time>
      </trkpt>
      <trkpt lat="47.25664" lon="-1.58897">
        <ele>68</ele>
        <time>2022-01-20T14:11:15Z</time>
      </trkpt>
      <trkpt lat="47.25664" lon="-1.58897">
        <ele>68</ele>
        <time>2022-01-20T14:11:16Z</time>
      </trkpt>
      <trkpt lat="47.25664" lon="-1.58897">
        <ele>68</ele>
        <time>2022-01-20T14:11:17Z</time>
      </trkpt>
      <trkpt lat="47.25665" lon="-1.58895">
        <ele>68</ele>
        <time>2022-01-20T14:11:18Z</time>
      </trkpt>
      <trkpt lat="47.25665" lon="-1.58893">
        <ele>69</ele>
        <time>2022-01-20T14:11:19Z</time>
      </trkpt>
      <trkpt lat="47.25665" lon="-1.58892">
        <ele>68</ele>
        <time>2022-01-20T14:11:20Z</time>
      </trkpt>
      <trkpt lat="47.25665" lon="-1.58891">
        <ele>68</ele>
        <time>2022-01-20T14:11:21Z</time>
      </trkpt>
      <trkpt lat="47.25665" lon="-1.58891">
        <ele>68</ele>
        <time>2022-01-20T14:11:22Z</time>
      </trkpt>
      <trkpt lat="47.25665" lon="-1.58891">
        <ele>68</ele>
        <time>2022-01-20T14:11:23Z</time>
      </trkpt>
      <trkpt lat="47.25665" lon="-1.58888">
        <ele>67</ele>
        <time>2022-01-20T14:11:24Z</time>
      </trkpt>
      <trkpt lat="47.25665" lon="-1.58888">
        <ele>67</ele>
        <time>2022-01-20T14:11:25Z</time>
      </trkpt>
      <trkpt lat="47.25664" lon="-1.58888">
        <ele>67</ele>
        <time>2022-01-20T14:11:26Z</time>
      </trkpt>
      <trkpt lat="47.25664" lon="-1.58887">
        <ele>67</ele>
        <time>2022-01-20T14:11:27Z</time>
      </trkpt>
      <trkpt lat="47.25664" lon="-1.58887">
        <ele>67</ele>
        <time>2022-01-20T14:11:28Z</time>
      </trkpt>
      <trkpt lat="47.25664" lon="-1.58887">
        <ele>67</ele>
        <time>2022-01-20T14:11:29Z</time>
      </trkpt>
      <trkpt lat="47.25664" lon="-1.58884">
        <ele>68</ele>
        <time>2022-01-20T14:11:30Z</time>
      </trkpt>
      <trkpt lat="47.25664" lon="-1.58883">
        <ele>68</ele>
        <time>2022-01-20T14:11:31Z</time>
      </trkpt>
      <trkpt lat="47.25663" lon="-1.58881">
        <ele>68</ele>
        <time>2022-01-20T14:11:32Z</time>
      </trkpt>
      <trkpt lat="47.25663" lon="-1.5888">
        <ele>68</ele>
        <time>2022-01-20T14:11:33Z</time>
      </trkpt>
      <trkpt lat="47.25662" lon="-1.58879">
        <ele>69</ele>
        <time>2022-01-20T14:11:34Z</time>
      </trkpt>
      <trkpt lat="47.25661" lon="-1.58878">
        <ele>68</ele>
        <time>2022-01-20T14:11:35Z</time>
      </trkpt>
      <trkpt lat="47.2566" lon="-1.58876">
        <ele>67</ele>
        <time>2022-01-20T14:11:36Z</time>
      </trkpt>
      <trkpt lat="47.25659" lon="-1.58875">
        <ele>67</ele>
        <time>2022-01-20T14:11:37Z</time>
      </trkpt>
      <trkpt lat="47.25658" lon="-1.58874">
        <ele>67</ele>
        <time>2022-01-20T14:11:39Z</time>
      </trkpt>
      <trkpt lat="47.25658" lon="-1.58874">
        <ele>67</ele>
        <time>2022-01-20T14:11:39Z</time>
      </trkpt>
      <trkpt lat="47.25657" lon="-1.58873">
        <ele>66</ele>
        <time>2022-01-20T14:11:40Z</time>
      </trkpt>
      <trkpt lat="47.25657" lon="-1.58872">
        <ele>66</ele>
        <time>2022-01-20T14:11:41Z</time>
      </trkpt>
      <trkpt lat="47.25656" lon="-1.5887">
        <ele>66</ele>
        <time>2022-01-20T14:11:42Z</time>
      </trkpt>
      <trkpt lat="47.25655" lon="-1.58868">
        <ele>66</ele>
        <time>2022-01-20T14:11:43Z</time>
      </trkpt>
      <trkpt lat="47.25654" lon="-1.58866">
        <ele>66</ele>
        <time>2022-01-20T14:11:44Z</time>
      </trkpt>
      <trkpt lat="47.25654" lon="-1.58865">
        <ele>66</ele>
        <time>2022-01-20T14:11:45Z</time>
      </trkpt>
      <trkpt lat="47.25654" lon="-1.58863">
        <ele>66</ele>
        <time>2022-01-20T14:11:46Z</time>
      </trkpt>
      <trkpt lat="47.25654" lon="-1.58861">
        <ele>66</ele>
        <time>2022-01-20T14:11:47Z</time>
      </trkpt>
      <trkpt lat="47.25653" lon="-1.5886">
        <ele>66</ele>
        <time>2022-01-20T14:11:48Z</time>
      </trkpt>
      <trkpt lat="47.25652" lon="-1.58858">
        <ele>66</ele>
        <time>2022-01-20T14:11:49Z</time>
      </trkpt>
      <trkpt lat="47.25651" lon="-1.58857">
        <ele>66</ele>
        <time>2022-01-20T14:11:50Z</time>
      </trkpt>
      <trkpt lat="47.2565" lon="-1.58856">
        <ele>66</ele>
        <time>2022-01-20T14:11:51Z</time>
      </trkpt>
      <trkpt lat="47.2565" lon="-1.58855">
        <ele>66</ele>
        <time>2022-01-20T14:11:52Z</time>
      </trkpt>
      <trkpt lat="47.25649" lon="-1.58854">
        <ele>66</ele>
        <time>2022-01-20T14:11:53Z</time>
      </trkpt>
      <trkpt lat="47.25648" lon="-1.58853">
        <ele>66</ele>
        <time>2022-01-20T14:11:54Z</time>
      </trkpt>
      <trkpt lat="47.25647" lon="-1.58851">
        <ele>66</ele>
        <time>2022-01-20T14:11:55Z</time>
      </trkpt>
      <trkpt lat="47.25646" lon="-1.5885">
        <ele>66</ele>
        <time>2022-01-20T14:11:56Z</time>
      </trkpt>
      <trkpt lat="47.25645" lon="-1.58849">
        <ele>66</ele>
        <time>2022-01-20T14:11:57Z</time>
      </trkpt>
      <trkpt lat="47.25644" lon="-1.58848">
        <ele>65</ele>
        <time>2022-01-20T14:11:58Z</time>
      </trkpt>
      <trkpt lat="47.25642" lon="-1.58847">
        <ele>64</ele>
        <time>2022-01-20T14:11:59Z</time>
      </trkpt>
      <trkpt lat="47.25641" lon="-1.58845">
        <ele>65</ele>
        <time>2022-01-20T14:12:00Z</time>
      </trkpt>
      <trkpt lat="47.25641" lon="-1.58844">
        <ele>65</ele>
        <time>2022-01-20T14:12:01Z</time>
      </trkpt>
      <trkpt lat="47.2564" lon="-1.58843">
        <ele>64</ele>
        <time>2022-01-20T14:12:02Z</time>
      </trkpt>
      <trkpt lat="47.25639" lon="-1.58841">
        <ele>64</ele>
        <time>2022-01-20T14:12:03Z</time>
      </trkpt>
      <trkpt lat="47.25638" lon="-1.5884">
        <ele>64</ele>
        <time>2022-01-20T14:12:04Z</time>
      </trkpt>
      <trkpt lat="47.25637" lon="-1.58838">
        <ele>64</ele>
        <time>2022-01-20T14:12:05Z</time>
      </trkpt>
      <trkpt lat="47.25637" lon="-1.58837">
        <ele>64</ele>
        <time>2022-01-20T14:12:06Z</time>
      </trkpt>
      <trkpt lat="47.25636" lon="-1.58836">
        <ele>64</ele>
        <time>2022-01-20T14:12:07Z</time>
      </trkpt>
      <trkpt lat="47.25636" lon="-1.58834">
        <ele>63</ele>
        <time>2022-01-20T14:12:08Z</time>
      </trkpt>
      <trkpt lat="47.25635" lon="-1.58832">
        <ele>62</ele>
        <time>2022-01-20T14:12:09Z</time>
      </trkpt>
      <trkpt lat="47.25635" lon="-1.5883">
        <ele>62</ele>
        <time>2022-01-20T14:12:10Z</time>
      </trkpt>
      <trkpt lat="47.25634" lon="-1.58829">
        <ele>61</ele>
        <time>2022-01-20T14:12:11Z</time>
      </trkpt>
      <trkpt lat="47.25634" lon="-1.58828">
        <ele>62</ele>
        <time>2022-01-20T14:12:12Z</time>
      </trkpt>
      <trkpt lat="47.25634" lon="-1.58828">
        <ele>62</ele>
        <time>2022-01-20T14:12:13Z</time>
      </trkpt>
      <trkpt lat="47.25634" lon="-1.58828">
        <ele>62</ele>
        <time>2022-01-20T14:12:14Z</time>
      </trkpt>
      <trkpt lat="47.25633" lon="-1.58825">
        <ele>62</ele>
        <time>2022-01-20T14:12:15Z</time>
      </trkpt>
      <trkpt lat="47.25633" lon="-1.58824">
        <ele>62</ele>
        <time>2022-01-20T14:12:16Z</time>
      </trkpt>
      <trkpt lat="47.25633" lon="-1.58823">
        <ele>62</ele>
        <time>2022-01-20T14:12:17Z</time>
      </trkpt>
      <trkpt lat="47.25632" lon="-1.58822">
        <ele>62</ele>
        <time>2022-01-20T14:12:18Z</time>
      </trkpt>
      <trkpt lat="47.25632" lon="-1.58822">
        <ele>62</ele>
        <time>2022-01-20T14:12:19Z</time>
      </trkpt>
      <trkpt lat="47.25632" lon="-1.58822">
        <ele>62</ele>
        <time>2022-01-20T14:12:20Z</time>
      </trkpt>
      <trkpt lat="47.2563" lon="-1.58821">
        <ele>63</ele>
        <time>2022-01-20T14:12:21Z</time>
      </trkpt>
      <trkpt lat="47.25629" lon="-1.58822">
        <ele>63</ele>
        <time>2022-01-20T14:12:22Z</time>
      </trkpt>
      <trkpt lat="47.25628" lon="-1.58822">
        <ele>63</ele>
        <time>2022-01-20T14:12:23Z</time>
      </trkpt>
      <trkpt lat="47.25627" lon="-1.58822">
        <ele>63</ele>
        <time>2022-01-20T14:12:24Z</time>
      </trkpt>
      <trkpt lat="47.25627" lon="-1.58822">
        <ele>63</ele>
        <time>2022-01-20T14:12:25Z</time>
      </trkpt>
      <trkpt lat="47.25627" lon="-1.58822">
        <ele>63</ele>
        <time>2022-01-20T14:12:26Z</time>
      </trkpt>
      <trkpt lat="47.25626" lon="-1.58824">
        <ele>63</ele>
        <time>2022-01-20T14:12:27Z</time>
      </trkpt>
      <trkpt lat="47.25625" lon="-1.58825">
        <ele>63</ele>
        <time>2022-01-20T14:12:28Z</time>
      </trkpt>
      <trkpt lat="47.25624" lon="-1.58825">
        <ele>63</ele>
        <time>2022-01-20T14:12:29Z</time>
      </trkpt>
      <trkpt lat="47.25623" lon="-1.58825">
        <ele>63</ele>
        <time>2022-01-20T14:12:30Z</time>
      </trkpt>
      <trkpt lat="47.25622" lon="-1.58826">
        <ele>63</ele>
        <time>2022-01-20T14:12:31Z</time>
      </trkpt>
      <trkpt lat="47.25621" lon="-1.58826">
        <ele>63</ele>
        <time>2022-01-20T14:12:32Z</time>
      </trkpt>
      <trkpt lat="47.25621" lon="-1.58826">
        <ele>63</ele>
        <time>2022-01-20T14:12:33Z</time>
      </trkpt>
      <trkpt lat="47.25621" lon="-1.58826">
        <ele>63</ele>
        <time>2022-01-20T14:12:34Z</time>
      </trkpt>
      <trkpt lat="47.2562" lon="-1.58825">
        <ele>65</ele>
        <time>2022-01-20T14:12:35Z</time>
      </trkpt>
      <trkpt lat="47.25619" lon="-1.58824">
        <ele>66</ele>
        <time>2022-01-20T14:12:36Z</time>
      </trkpt>
      <trkpt lat="47.25618" lon="-1.58823">
        <ele>66</ele>
        <time>2022-01-20T14:12:37Z</time>
      </trkpt>
      <trkpt lat="47.25618" lon="-1.58823">
        <ele>66</ele>
        <time>2022-01-20T14:12:38Z</time>
      </trkpt>
      <trkpt lat="47.25618" lon="-1.58823">
        <ele>66</ele>
        <time>2022-01-20T14:12:39Z</time>
      </trkpt>
      <trkpt lat="47.25618" lon="-1.58823">
        <ele>66</ele>
        <time>2022-01-20T14:12:40Z</time>
      </trkpt>
      <trkpt lat="47.25617" lon="-1.58822">
        <ele>68</ele>
        <time>2022-01-20T14:12:41Z</time>
      </trkpt>
      <trkpt lat="47.25616" lon="-1.58822">
        <ele>68</ele>
        <time>2022-01-20T14:12:42Z</time>
      </trkpt>
      <trkpt lat="47.25615" lon="-1.58821">
        <ele>68</ele>
        <time>2022-01-20T14:12:43Z</time>
      </trkpt>
      <trkpt lat="47.25615" lon="-1.5882">
        <ele>69</ele>
        <time>2022-01-20T14:12:44Z</time>
      </trkpt>
      <trkpt lat="47.25615" lon="-1.5882">
        <ele>69</ele>
        <time>2022-01-20T14:12:45Z</time>
      </trkpt>
      <trkpt lat="47.25615" lon="-1.5882">
        <ele>69</ele>
        <time>2022-01-20T14:12:46Z</time>
      </trkpt>
      <trkpt lat="47.25613" lon="-1.58819">
        <ele>70</ele>
        <time>2022-01-20T14:12:47Z</time>
      </trkpt>
      <trkpt lat="47.25612" lon="-1.58818">
        <ele>70</ele>
        <time>2022-01-20T14:12:48Z</time>
      </trkpt>
      <trkpt lat="47.25612" lon="-1.58818">
        <ele>71</ele>
        <time>2022-01-20T14:12:49Z</time>
      </trkpt>
      <trkpt lat="47.2561" lon="-1.58817">
        <ele>71</ele>
        <time>2022-01-20T14:12:50Z</time>
      </trkpt>
      <trkpt lat="47.2561" lon="-1.58817">
        <ele>71</ele>
        <time>2022-01-20T14:12:51Z</time>
      </trkpt>
      <trkpt lat="47.2561" lon="-1.58817">
        <ele>71</ele>
        <time>2022-01-20T14:12:52Z</time>
      </trkpt>
      <trkpt lat="47.25608" lon="-1.58816">
        <ele>71</ele>
        <time>2022-01-20T14:12:53Z</time>
      </trkpt>
      <trkpt lat="47.25607" lon="-1.58816">
        <ele>70</ele>
        <time>2022-01-20T14:12:54Z</time>
      </trkpt>
      <trkpt lat="47.25605" lon="-1.58817">
        <ele>70</ele>
        <time>2022-01-20T14:12:55Z</time>
      </trkpt>
      <trkpt lat="47.25604" lon="-1.58817">
        <ele>70</ele>
        <time>2022-01-20T14:12:56Z</time>
      </trkpt>
      <trkpt lat="47.25603" lon="-1.58817">
        <ele>70</ele>
        <time>2022-01-20T14:12:57Z</time>
      </trkpt>
      <trkpt lat="47.25602" lon="-1.58817">
        <ele>70</ele>
        <time>2022-01-20T14:12:58Z</time>
      </trkpt>
      <trkpt lat="47.25601" lon="-1.58818">
        <ele>70</ele>
        <time>2022-01-20T14:12:59Z</time>
      </trkpt>
      <trkpt lat="47.25599" lon="-1.58819">
        <ele>69</ele>
        <time>2022-01-20T14:13:00Z</time>
      </trkpt>
      <trkpt lat="47.25598" lon="-1.58819">
        <ele>69</ele>
        <time>2022-01-20T14:13:01Z</time>
      </trkpt>
      <trkpt lat="47.25596" lon="-1.5882">
        <ele>69</ele>
        <time>2022-01-20T14:13:02Z</time>
      </trkpt>
      <trkpt lat="47.25594" lon="-1.5882">
        <ele>68</ele>
        <time>2022-01-20T14:13:03Z</time>
      </trkpt>
      <trkpt lat="47.25593" lon="-1.58821">
        <ele>68</ele>
        <time>2022-01-20T14:13:04Z</time>
      </trkpt>
      <trkpt lat="47.25591" lon="-1.58821">
        <ele>68</ele>
        <time>2022-01-20T14:13:05Z</time>
      </trkpt>
      <trkpt lat="47.25589" lon="-1.58821">
        <ele>67</ele>
        <time>2022-01-20T14:13:06Z</time>
      </trkpt>
      <trkpt lat="47.25587" lon="-1.5882">
        <ele>67</ele>
        <time>2022-01-20T14:13:07Z</time>
      </trkpt>
      <trkpt lat="47.25586" lon="-1.5882">
        <ele>66</ele>
        <time>2022-01-20T14:13:08Z</time>
      </trkpt>
      <trkpt lat="47.25585" lon="-1.5882">
        <ele>66</ele>
        <time>2022-01-20T14:13:09Z</time>
      </trkpt>
      <trkpt lat="47.25584" lon="-1.5882">
        <ele>65</ele>
        <time>2022-01-20T14:13:10Z</time>
      </trkpt>
      <trkpt lat="47.25582" lon="-1.5882">
        <ele>65</ele>
        <time>2022-01-20T14:13:11Z</time>
      </trkpt>
      <trkpt lat="47.25581" lon="-1.58822">
        <ele>64</ele>
        <time>2022-01-20T14:13:12Z</time>
      </trkpt>
      <trkpt lat="47.25579" lon="-1.58823">
        <ele>63</ele>
        <time>2022-01-20T14:13:13Z</time>
      </trkpt>
      <trkpt lat="47.25577" lon="-1.58823">
        <ele>64</ele>
        <time>2022-01-20T14:13:14Z</time>
      </trkpt>
      <trkpt lat="47.25575" lon="-1.58824">
        <ele>63</ele>
        <time>2022-01-20T14:13:15Z</time>
      </trkpt>
      <trkpt lat="47.25572" lon="-1.58826">
        <ele>63</ele>
        <time>2022-01-20T14:13:16Z</time>
      </trkpt>
      <trkpt lat="47.2557" lon="-1.58828">
        <ele>62</ele>
        <time>2022-01-20T14:13:17Z</time>
      </trkpt>
      <trkpt lat="47.25568" lon="-1.5883">
        <ele>62</ele>
        <time>2022-01-20T14:13:18Z</time>
      </trkpt>
      <trkpt lat="47.25566" lon="-1.58831">
        <ele>61</ele>
        <time>2022-01-20T14:13:19Z</time>
      </trkpt>
      <trkpt lat="47.25564" lon="-1.58832">
        <ele>61</ele>
        <time>2022-01-20T14:13:20Z</time>
      </trkpt>
      <trkpt lat="47.25562" lon="-1.58833">
        <ele>60</ele>
        <time>2022-01-20T14:13:21Z</time>
      </trkpt>
      <trkpt lat="47.2556" lon="-1.58835">
        <ele>60</ele>
        <time>2022-01-20T14:13:22Z</time>
      </trkpt>
      <trkpt lat="47.25559" lon="-1.58836">
        <ele>60</ele>
        <time>2022-01-20T14:13:23Z</time>
      </trkpt>
      <trkpt lat="47.25557" lon="-1.58836">
        <ele>60</ele>
        <time>2022-01-20T14:13:24Z</time>
      </trkpt>
      <trkpt lat="47.25556" lon="-1.58838">
        <ele>60</ele>
        <time>2022-01-20T14:13:25Z</time>
      </trkpt>
      <trkpt lat="47.25555" lon="-1.58839">
        <ele>61</ele>
        <time>2022-01-20T14:13:26Z</time>
      </trkpt>
      <trkpt lat="47.25554" lon="-1.5884">
        <ele>60</ele>
        <time>2022-01-20T14:13:27Z</time>
      </trkpt>
      <trkpt lat="47.25552" lon="-1.58842">
        <ele>60</ele>
        <time>2022-01-20T14:13:28Z</time>
      </trkpt>
      <trkpt lat="47.25551" lon="-1.58844">
        <ele>60</ele>
        <time>2022-01-20T14:13:29Z</time>
      </trkpt>
      <trkpt lat="47.2555" lon="-1.58846">
        <ele>60</ele>
        <time>2022-01-20T14:13:30Z</time>
      </trkpt>
      <trkpt lat="47.25549" lon="-1.58848">
        <ele>60</ele>
        <time>2022-01-20T14:13:31Z</time>
      </trkpt>
      <trkpt lat="47.25548" lon="-1.5885">
        <ele>60</ele>
        <time>2022-01-20T14:13:32Z</time>
      </trkpt>
      <trkpt lat="47.25547" lon="-1.58852">
        <ele>61</ele>
        <time>2022-01-20T14:13:33Z</time>
      </trkpt>
      <trkpt lat="47.25546" lon="-1.58854">
        <ele>60</ele>
        <time>2022-01-20T14:13:34Z</time>
      </trkpt>
      <trkpt lat="47.25546" lon="-1.58855">
        <ele>60</ele>
        <time>2022-01-20T14:13:35Z</time>
      </trkpt>
      <trkpt lat="47.25544" lon="-1.58857">
        <ele>60</ele>
        <time>2022-01-20T14:13:36Z</time>
      </trkpt>
      <trkpt lat="47.25544" lon="-1.58858">
        <ele>60</ele>
        <time>2022-01-20T14:13:37Z</time>
      </trkpt>
      <trkpt lat="47.25543" lon="-1.5886">
        <ele>60</ele>
        <time>2022-01-20T14:13:38Z</time>
      </trkpt>
      <trkpt lat="47.25542" lon="-1.58861">
        <ele>60</ele>
        <time>2022-01-20T14:13:39Z</time>
      </trkpt>
      <trkpt lat="47.25542" lon="-1.58863">
        <ele>60</ele>
        <time>2022-01-20T14:13:40Z</time>
      </trkpt>
      <trkpt lat="47.25541" lon="-1.58865">
        <ele>60</ele>
        <time>2022-01-20T14:13:41Z</time>
      </trkpt>
      <trkpt lat="47.2554" lon="-1.58867">
        <ele>60</ele>
        <time>2022-01-20T14:13:42Z</time>
      </trkpt>
      <trkpt lat="47.2554" lon="-1.58869">
        <ele>60</ele>
        <time>2022-01-20T14:13:43Z</time>
      </trkpt>
      <trkpt lat="47.25539" lon="-1.58871">
        <ele>60</ele>
        <time>2022-01-20T14:13:44Z</time>
      </trkpt>
      <trkpt lat="47.25539" lon="-1.58872">
        <ele>60</ele>
        <time>2022-01-20T14:13:45Z</time>
      </trkpt>
      <trkpt lat="47.25539" lon="-1.58874">
        <ele>60</ele>
        <time>2022-01-20T14:13:46Z</time>
      </trkpt>
      <trkpt lat="47.25538" lon="-1.58875">
        <ele>60</ele>
        <time>2022-01-20T14:13:47Z</time>
      </trkpt>
      <trkpt lat="47.25538" lon="-1.58877">
        <ele>61</ele>
        <time>2022-01-20T14:13:48Z</time>
      </trkpt>
      <trkpt lat="47.25538" lon="-1.58879">
        <ele>61</ele>
        <time>2022-01-20T14:13:49Z</time>
      </trkpt>
      <trkpt lat="47.25538" lon="-1.5888">
        <ele>61</ele>
        <time>2022-01-20T14:13:50Z</time>
      </trkpt>
      <trkpt lat="47.25537" lon="-1.58881">
        <ele>62</ele>
        <time>2022-01-20T14:13:51Z</time>
      </trkpt>
      <trkpt lat="47.25536" lon="-1.58883">
        <ele>62</ele>
        <time>2022-01-20T14:13:52Z</time>
      </trkpt>
      <trkpt lat="47.25536" lon="-1.58885">
        <ele>62</ele>
        <time>2022-01-20T14:13:53Z</time>
      </trkpt>
      <trkpt lat="47.25535" lon="-1.58887">
        <ele>62</ele>
        <time>2022-01-20T14:13:54Z</time>
      </trkpt>
      <trkpt lat="47.25535" lon="-1.58888">
        <ele>62</ele>
        <time>2022-01-20T14:13:55Z</time>
      </trkpt>
      <trkpt lat="47.25535" lon="-1.5889">
        <ele>62</ele>
        <time>2022-01-20T14:13:56Z</time>
      </trkpt>
      <trkpt lat="47.25535" lon="-1.58891">
        <ele>63</ele>
        <time>2022-01-20T14:13:57Z</time>
      </trkpt>
      <trkpt lat="47.25534" lon="-1.58892">
        <ele>63</ele>
        <time>2022-01-20T14:13:58Z</time>
      </trkpt>
      <trkpt lat="47.25534" lon="-1.58895">
        <ele>63</ele>
        <time>2022-01-20T14:13:59Z</time>
      </trkpt>
      <trkpt lat="47.25534" lon="-1.58896">
        <ele>63</ele>
        <time>2022-01-20T14:14:00Z</time>
      </trkpt>
      <trkpt lat="47.25533" lon="-1.58898">
        <ele>63</ele>
        <time>2022-01-20T14:14:01Z</time>
      </trkpt>
      <trkpt lat="47.25533" lon="-1.58899">
        <ele>63</ele>
        <time>2022-01-20T14:14:02Z</time>
      </trkpt>
      <trkpt lat="47.25533" lon="-1.58901">
        <ele>63</ele>
        <time>2022-01-20T14:14:03Z</time>
      </trkpt>
      <trkpt lat="47.25533" lon="-1.58902">
        <ele>63</ele>
        <time>2022-01-20T14:14:04Z</time>
      </trkpt>
      <trkpt lat="47.25532" lon="-1.58904">
        <ele>63</ele>
        <time>2022-01-20T14:14:05Z</time>
      </trkpt>
      <trkpt lat="47.25532" lon="-1.58906">
        <ele>64</ele>
        <time>2022-01-20T14:14:06Z</time>
      </trkpt>
      <trkpt lat="47.25532" lon="-1.58908">
        <ele>64</ele>
        <time>2022-01-20T14:14:07Z</time>
      </trkpt>
      <trkpt lat="47.25532" lon="-1.58909">
        <ele>64</ele>
        <time>2022-01-20T14:14:08Z</time>
      </trkpt>
      <trkpt lat="47.25532" lon="-1.58911">
        <ele>64</ele>
        <time>2022-01-20T14:14:09Z</time>
      </trkpt>
      <trkpt lat="47.25531" lon="-1.58913">
        <ele>64</ele>
        <time>2022-01-20T14:14:10Z</time>
      </trkpt>
      <trkpt lat="47.25531" lon="-1.58914">
        <ele>64</ele>
        <time>2022-01-20T14:14:11Z</time>
      </trkpt>
      <trkpt lat="47.25531" lon="-1.58915">
        <ele>65</ele>
        <time>2022-01-20T14:14:12Z</time>
      </trkpt>
      <trkpt lat="47.25531" lon="-1.58917">
        <ele>65</ele>
        <time>2022-01-20T14:14:13Z</time>
      </trkpt>
      <trkpt lat="47.25531" lon="-1.58919">
        <ele>65</ele>
        <time>2022-01-20T14:14:14Z</time>
      </trkpt>
      <trkpt lat="47.25531" lon="-1.58921">
        <ele>65</ele>
        <time>2022-01-20T14:14:15Z</time>
      </trkpt>
      <trkpt lat="47.25531" lon="-1.58923">
        <ele>66</ele>
        <time>2022-01-20T14:14:16Z</time>
      </trkpt>
      <trkpt lat="47.25531" lon="-1.58924">
        <ele>66</ele>
        <time>2022-01-20T14:14:17Z</time>
      </trkpt>
      <trkpt lat="47.25531" lon="-1.58926">
        <ele>66</ele>
        <time>2022-01-20T14:14:18Z</time>
      </trkpt>
      <trkpt lat="47.25531" lon="-1.58928">
        <ele>67</ele>
        <time>2022-01-20T14:14:19Z</time>
      </trkpt>
      <trkpt lat="47.25531" lon="-1.58929">
        <ele>67</ele>
        <time>2022-01-20T14:14:20Z</time>
      </trkpt>
      <trkpt lat="47.25531" lon="-1.58932">
        <ele>67</ele>
        <time>2022-01-20T14:14:21Z</time>
      </trkpt>
      <trkpt lat="47.2553" lon="-1.58934">
        <ele>68</ele>
        <time>2022-01-20T14:14:22Z</time>
      </trkpt>
      <trkpt lat="47.2553" lon="-1.58935">
        <ele>68</ele>
        <time>2022-01-20T14:14:23Z</time>
      </trkpt>
      <trkpt lat="47.2553" lon="-1.58937">
        <ele>68</ele>
        <time>2022-01-20T14:14:24Z</time>
      </trkpt>
      <trkpt lat="47.25529" lon="-1.58938">
        <ele>67</ele>
        <time>2022-01-20T14:14:25Z</time>
      </trkpt>
      <trkpt lat="47.25528" lon="-1.5894">
        <ele>67</ele>
        <time>2022-01-20T14:14:26Z</time>
      </trkpt>
      <trkpt lat="47.25528" lon="-1.58941">
        <ele>67</ele>
        <time>2022-01-20T14:14:27Z</time>
      </trkpt>
      <trkpt lat="47.25527" lon="-1.58943">
        <ele>67</ele>
        <time>2022-01-20T14:14:28Z</time>
      </trkpt>
      <trkpt lat="47.25527" lon="-1.58945">
        <ele>67</ele>
        <time>2022-01-20T14:14:29Z</time>
      </trkpt>
      <trkpt lat="47.25526" lon="-1.58947">
        <ele>67</ele>
        <time>2022-01-20T14:14:30Z</time>
      </trkpt>
      <trkpt lat="47.25526" lon="-1.58948">
        <ele>68</ele>
        <time>2022-01-20T14:14:31Z</time>
      </trkpt>
      <trkpt lat="47.25525" lon="-1.5895">
        <ele>68</ele>
        <time>2022-01-20T14:14:32Z</time>
      </trkpt>
      <trkpt lat="47.25525" lon="-1.58952">
        <ele>68</ele>
        <time>2022-01-20T14:14:33Z</time>
      </trkpt>
      <trkpt lat="47.25524" lon="-1.58953">
        <ele>68</ele>
        <time>2022-01-20T14:14:34Z</time>
      </trkpt>
      <trkpt lat="47.25523" lon="-1.58955">
        <ele>68</ele>
        <time>2022-01-20T14:14:35Z</time>
      </trkpt>
      <trkpt lat="47.25523" lon="-1.58956">
        <ele>68</ele>
        <time>2022-01-20T14:14:36Z</time>
      </trkpt>
      <trkpt lat="47.25522" lon="-1.58958">
        <ele>68</ele>
        <time>2022-01-20T14:14:37Z</time>
      </trkpt>
      <trkpt lat="47.25522" lon="-1.58958">
        <ele>68</ele>
        <time>2022-01-20T14:14:38Z</time>
      </trkpt>
      <trkpt lat="47.25522" lon="-1.58961">
        <ele>68</ele>
        <time>2022-01-20T14:14:39Z</time>
      </trkpt>
      <trkpt lat="47.25521" lon="-1.58962">
        <ele>68</ele>
        <time>2022-01-20T14:14:40Z</time>
      </trkpt>
      <trkpt lat="47.25521" lon="-1.58964">
        <ele>68</ele>
        <time>2022-01-20T14:14:41Z</time>
      </trkpt>
      <trkpt lat="47.2552" lon="-1.58965">
        <ele>68</ele>
        <time>2022-01-20T14:14:42Z</time>
      </trkpt>
      <trkpt lat="47.2552" lon="-1.58965">
        <ele>68</ele>
        <time>2022-01-20T14:14:43Z</time>
      </trkpt>
      <trkpt lat="47.2552" lon="-1.58965">
        <ele>68</ele>
        <time>2022-01-20T14:14:44Z</time>
      </trkpt>
      <trkpt lat="47.2552" lon="-1.5897">
        <ele>69</ele>
        <time>2022-01-20T14:14:45Z</time>
      </trkpt>
      <trkpt lat="47.2552" lon="-1.58972">
        <ele>69</ele>
        <time>2022-01-20T14:14:46Z</time>
      </trkpt>
      <trkpt lat="47.2552" lon="-1.58973">
        <ele>69</ele>
        <time>2022-01-20T14:14:47Z</time>
      </trkpt>
      <trkpt lat="47.25519" lon="-1.58974">
        <ele>69</ele>
        <time>2022-01-20T14:14:48Z</time>
      </trkpt>
      <trkpt lat="47.25519" lon="-1.58974">
        <ele>69</ele>
        <time>2022-01-20T14:14:49Z</time>
      </trkpt>
      <trkpt lat="47.25519" lon="-1.58974">
        <ele>69</ele>
        <time>2022-01-20T14:14:50Z</time>
      </trkpt>
      <trkpt lat="47.25518" lon="-1.58979">
        <ele>67</ele>
        <time>2022-01-20T14:14:51Z</time>
      </trkpt>
      <trkpt lat="47.25518" lon="-1.58981">
        <ele>66</ele>
        <time>2022-01-20T14:14:52Z</time>
      </trkpt>
      <trkpt lat="47.25518" lon="-1.58983">
        <ele>66</ele>
        <time>2022-01-20T14:14:53Z</time>
      </trkpt>
      <trkpt lat="47.25518" lon="-1.58985">
        <ele>66</ele>
        <time>2022-01-20T14:14:54Z</time>
      </trkpt>
      <trkpt lat="47.25517" lon="-1.58986">
        <ele>66</ele>
        <time>2022-01-20T14:14:55Z</time>
      </trkpt>
      <trkpt lat="47.25517" lon="-1.58986">
        <ele>66</ele>
        <time>2022-01-20T14:14:56Z</time>
      </trkpt>
      <trkpt lat="47.25517" lon="-1.58986">
        <ele>66</ele>
        <time>2022-01-20T14:14:57Z</time>
      </trkpt>
      <trkpt lat="47.25517" lon="-1.5899">
        <ele>66</ele>
        <time>2022-01-20T14:14:58Z</time>
      </trkpt>
      <trkpt lat="47.25517" lon="-1.58992">
        <ele>67</ele>
        <time>2022-01-20T14:14:59Z</time>
      </trkpt>
      <trkpt lat="47.25516" lon="-1.58993">
        <ele>67</ele>
        <time>2022-01-20T14:15:00Z</time>
      </trkpt>
      <trkpt lat="47.25515" lon="-1.58993">
        <ele>67</ele>
        <time>2022-01-20T14:15:01Z</time>
      </trkpt>
      <trkpt lat="47.25515" lon="-1.58993">
        <ele>67</ele>
        <time>2022-01-20T14:15:02Z</time>
      </trkpt>
      <trkpt lat="47.25515" lon="-1.58993">
        <ele>67</ele>
        <time>2022-01-20T14:15:03Z</time>
      </trkpt>
      <trkpt lat="47.25514" lon="-1.58994">
        <ele>67</ele>
        <time>2022-01-20T14:15:04Z</time>
      </trkpt>
      <trkpt lat="47.25514" lon="-1.58995">
        <ele>67</ele>
        <time>2022-01-20T14:15:05Z</time>
      </trkpt>
      <trkpt lat="47.25513" lon="-1.58995">
        <ele>67</ele>
        <time>2022-01-20T14:15:06Z</time>
      </trkpt>
      <trkpt lat="47.25512" lon="-1.58996">
        <ele>67</ele>
        <time>2022-01-20T14:15:07Z</time>
      </trkpt>
      <trkpt lat="47.25512" lon="-1.58996">
        <ele>67</ele>
        <time>2022-01-20T14:15:08Z</time>
      </trkpt>
      <trkpt lat="47.25512" lon="-1.58996">
        <ele>67</ele>
        <time>2022-01-20T14:15:09Z</time>
      </trkpt>
      <trkpt lat="47.2551" lon="-1.58999">
        <ele>65</ele>
        <time>2022-01-20T14:15:10Z</time>
      </trkpt>
      <trkpt lat="47.25509" lon="-1.59">
        <ele>65</ele>
        <time>2022-01-20T14:15:11Z</time>
      </trkpt>
      <trkpt lat="47.25508" lon="-1.59">
        <ele>65</ele>
        <time>2022-01-20T14:15:12Z</time>
      </trkpt>
      <trkpt lat="47.25507" lon="-1.59">
        <ele>65</ele>
        <time>2022-01-20T14:15:13Z</time>
      </trkpt>
      <trkpt lat="47.25507" lon="-1.59">
        <ele>65</ele>
        <time>2022-01-20T14:15:14Z</time>
      </trkpt>
      <trkpt lat="47.25507" lon="-1.59">
        <ele>65</ele>
        <time>2022-01-20T14:15:15Z</time>
      </trkpt>
      <trkpt lat="47.25503" lon="-1.59">
        <ele>64</ele>
        <time>2022-01-20T14:15:16Z</time>
      </trkpt>
      <trkpt lat="47.25502" lon="-1.59">
        <ele>64</ele>
        <time>2022-01-20T14:15:17Z</time>
      </trkpt>
      <trkpt lat="47.255" lon="-1.59001">
        <ele>64</ele>
        <time>2022-01-20T14:15:18Z</time>
      </trkpt>
      <trkpt lat="47.25499" lon="-1.59002">
        <ele>64</ele>
        <time>2022-01-20T14:15:19Z</time>
      </trkpt>
      <trkpt lat="47.25498" lon="-1.59002">
        <ele>65</ele>
        <time>2022-01-20T14:15:20Z</time>
      </trkpt>
      <trkpt lat="47.25498" lon="-1.59002">
        <ele>65</ele>
        <time>2022-01-20T14:15:21Z</time>
      </trkpt>
      <trkpt lat="47.25498" lon="-1.59002">
        <ele>65</ele>
        <time>2022-01-20T14:15:22Z</time>
      </trkpt>
      <trkpt lat="47.25496" lon="-1.59003">
        <ele>65</ele>
        <time>2022-01-20T14:15:23Z</time>
      </trkpt>
      <trkpt lat="47.25496" lon="-1.59004">
        <ele>66</ele>
        <time>2022-01-20T14:15:24Z</time>
      </trkpt>
      <trkpt lat="47.25494" lon="-1.59005">
        <ele>66</ele>
        <time>2022-01-20T14:15:25Z</time>
      </trkpt>
      <trkpt lat="47.25493" lon="-1.59005">
        <ele>66</ele>
        <time>2022-01-20T14:15:26Z</time>
      </trkpt>
      <trkpt lat="47.25493" lon="-1.59005">
        <ele>66</ele>
        <time>2022-01-20T14:15:27Z</time>
      </trkpt>
      <trkpt lat="47.25492" lon="-1.59004">
        <ele>66</ele>
        <time>2022-01-20T14:15:28Z</time>
      </trkpt>
      <trkpt lat="47.25492" lon="-1.59004">
        <ele>66</ele>
        <time>2022-01-20T14:15:29Z</time>
      </trkpt>
      <trkpt lat="47.25492" lon="-1.59004">
        <ele>66</ele>
        <time>2022-01-20T14:15:30Z</time>
      </trkpt>
      <trkpt lat="47.25489" lon="-1.59004">
        <ele>66</ele>
        <time>2022-01-20T14:15:31Z</time>
      </trkpt>
      <trkpt lat="47.25488" lon="-1.59004">
        <ele>66</ele>
        <time>2022-01-20T14:15:32Z</time>
      </trkpt>
      <trkpt lat="47.25487" lon="-1.59005">
        <ele>66</ele>
        <time>2022-01-20T14:15:33Z</time>
      </trkpt>
      <trkpt lat="47.25486" lon="-1.59006">
        <ele>66</ele>
        <time>2022-01-20T14:15:34Z</time>
      </trkpt>
      <trkpt lat="47.25486" lon="-1.59006">
        <ele>66</ele>
        <time>2022-01-20T14:15:35Z</time>
      </trkpt>
      <trkpt lat="47.25486" lon="-1.59006">
        <ele>66</ele>
        <time>2022-01-20T14:15:36Z</time>
      </trkpt>
      <trkpt lat="47.25484" lon="-1.59008">
        <ele>64</ele>
        <time>2022-01-20T14:15:37Z</time>
      </trkpt>
      <trkpt lat="47.25483" lon="-1.5901">
        <ele>65</ele>
        <time>2022-01-20T14:15:38Z</time>
      </trkpt>
      <trkpt lat="47.25482" lon="-1.59011">
        <ele>65</ele>
        <time>2022-01-20T14:15:39Z</time>
      </trkpt>
      <trkpt lat="47.2548" lon="-1.59012">
        <ele>65</ele>
        <time>2022-01-20T14:15:40Z</time>
      </trkpt>
      <trkpt lat="47.25479" lon="-1.59014">
        <ele>64</ele>
        <time>2022-01-20T14:15:41Z</time>
      </trkpt>
      <trkpt lat="47.25477" lon="-1.59015">
        <ele>64</ele>
        <time>2022-01-20T14:15:42Z</time>
      </trkpt>
      <trkpt lat="47.25476" lon="-1.59016">
        <ele>64</ele>
        <time>2022-01-20T14:15:43Z</time>
      </trkpt>
      <trkpt lat="47.25474" lon="-1.59017">
        <ele>64</ele>
        <time>2022-01-20T14:15:44Z</time>
      </trkpt>
      <trkpt lat="47.25473" lon="-1.59019">
        <ele>64</ele>
        <time>2022-01-20T14:15:45Z</time>
      </trkpt>
      <trkpt lat="47.25472" lon="-1.59021">
        <ele>64</ele>
        <time>2022-01-20T14:15:46Z</time>
      </trkpt>
      <trkpt lat="47.2547" lon="-1.59022">
        <ele>64</ele>
        <time>2022-01-20T14:15:47Z</time>
      </trkpt>
      <trkpt lat="47.25468" lon="-1.59024">
        <ele>64</ele>
        <time>2022-01-20T14:15:48Z</time>
      </trkpt>
      <trkpt lat="47.25468" lon="-1.59025">
        <ele>65</ele>
        <time>2022-01-20T14:15:49Z</time>
      </trkpt>
      <trkpt lat="47.25467" lon="-1.59026">
        <ele>65</ele>
        <time>2022-01-20T14:15:50Z</time>
      </trkpt>
      <trkpt lat="47.25465" lon="-1.59026">
        <ele>66</ele>
        <time>2022-01-20T14:15:51Z</time>
      </trkpt>
      <trkpt lat="47.25464" lon="-1.59027">
        <ele>66</ele>
        <time>2022-01-20T14:15:52Z</time>
      </trkpt>
      <trkpt lat="47.25464" lon="-1.59027">
        <ele>66</ele>
        <time>2022-01-20T14:15:53Z</time>
      </trkpt>
      <trkpt lat="47.25464" lon="-1.59027">
        <ele>66</ele>
        <time>2022-01-20T14:15:54Z</time>
      </trkpt>
      <trkpt lat="47.25461" lon="-1.5903">
        <ele>68</ele>
        <time>2022-01-20T14:15:55Z</time>
      </trkpt>
      <trkpt lat="47.2546" lon="-1.59031">
        <ele>68</ele>
        <time>2022-01-20T14:15:56Z</time>
      </trkpt>
      <trkpt lat="47.2546" lon="-1.59032">
        <ele>68</ele>
        <time>2022-01-20T14:15:57Z</time>
      </trkpt>
      <trkpt lat="47.25459" lon="-1.59034">
        <ele>68</ele>
        <time>2022-01-20T14:15:58Z</time>
      </trkpt>
      <trkpt lat="47.25459" lon="-1.59034">
        <ele>68</ele>
        <time>2022-01-20T14:15:59Z</time>
      </trkpt>
      <trkpt lat="47.25459" lon="-1.59034">
        <ele>68</ele>
        <time>2022-01-20T14:16:00Z</time>
      </trkpt>
      <trkpt lat="47.25456" lon="-1.59038">
        <ele>69</ele>
        <time>2022-01-20T14:16:01Z</time>
      </trkpt>
      <trkpt lat="47.25456" lon="-1.59039">
        <ele>70</ele>
        <time>2022-01-20T14:16:02Z</time>
      </trkpt>
      <trkpt lat="47.25456" lon="-1.5904">
        <ele>70</ele>
        <time>2022-01-20T14:16:03Z</time>
      </trkpt>
      <trkpt lat="47.25454" lon="-1.59042">
        <ele>70</ele>
        <time>2022-01-20T14:16:04Z</time>
      </trkpt>
      <trkpt lat="47.25454" lon="-1.59042">
        <ele>70</ele>
        <time>2022-01-20T14:16:05Z</time>
      </trkpt>
      <trkpt lat="47.25453" lon="-1.59044">
        <ele>70</ele>
        <time>2022-01-20T14:16:06Z</time>
      </trkpt>
      <trkpt lat="47.25453" lon="-1.59046">
        <ele>70</ele>
        <time>2022-01-20T14:16:07Z</time>
      </trkpt>
      <trkpt lat="47.25452" lon="-1.59048">
        <ele>70</ele>
        <time>2022-01-20T14:16:08Z</time>
      </trkpt>
      <trkpt lat="47.25451" lon="-1.5905">
        <ele>70</ele>
        <time>2022-01-20T14:16:09Z</time>
      </trkpt>
      <trkpt lat="47.25449" lon="-1.59052">
        <ele>70</ele>
        <time>2022-01-20T14:16:10Z</time>
      </trkpt>
      <trkpt lat="47.25448" lon="-1.59054">
        <ele>70</ele>
        <time>2022-01-20T14:16:11Z</time>
      </trkpt>
      <trkpt lat="47.25447" lon="-1.59055">
        <ele>70</ele>
        <time>2022-01-20T14:16:12Z</time>
      </trkpt>
      <trkpt lat="47.25446" lon="-1.59055">
        <ele>72</ele>
        <time>2022-01-20T14:16:13Z</time>
      </trkpt>
      <trkpt lat="47.25445" lon="-1.59057">
        <ele>71</ele>
        <time>2022-01-20T14:16:14Z</time>
      </trkpt>
      <trkpt lat="47.25445" lon="-1.59058">
        <ele>71</ele>
        <time>2022-01-20T14:16:15Z</time>
      </trkpt>
      <trkpt lat="47.25445" lon="-1.59058">
        <ele>71</ele>
        <time>2022-01-20T14:16:16Z</time>
      </trkpt>
      <trkpt lat="47.25445" lon="-1.59058">
        <ele>71</ele>
        <time>2022-01-20T14:16:17Z</time>
      </trkpt>
      <trkpt lat="47.25443" lon="-1.59062">
        <ele>72</ele>
        <time>2022-01-20T14:16:18Z</time>
      </trkpt>
      <trkpt lat="47.25442" lon="-1.59063">
        <ele>71</ele>
        <time>2022-01-20T14:16:19Z</time>
      </trkpt>
      <trkpt lat="47.25441" lon="-1.59063">
        <ele>70</ele>
        <time>2022-01-20T14:16:20Z</time>
      </trkpt>
      <trkpt lat="47.2544" lon="-1.59063">
        <ele>70</ele>
        <time>2022-01-20T14:16:21Z</time>
      </trkpt>
      <trkpt lat="47.2544" lon="-1.59063">
        <ele>70</ele>
        <time>2022-01-20T14:16:22Z</time>
      </trkpt>
      <trkpt lat="47.2544" lon="-1.59063">
        <ele>70</ele>
        <time>2022-01-20T14:16:23Z</time>
      </trkpt>
      <trkpt lat="47.25437" lon="-1.59064">
        <ele>72</ele>
        <time>2022-01-20T14:16:24Z</time>
      </trkpt>
      <trkpt lat="47.25436" lon="-1.59065">
        <ele>72</ele>
        <time>2022-01-20T14:16:25Z</time>
      </trkpt>
      <trkpt lat="47.25435" lon="-1.59065">
        <ele>73</ele>
        <time>2022-01-20T14:16:26Z</time>
      </trkpt>
      <trkpt lat="47.25434" lon="-1.59065">
        <ele>74</ele>
        <time>2022-01-20T14:16:27Z</time>
      </trkpt>
      <trkpt lat="47.25434" lon="-1.59065">
        <ele>74</ele>
        <time>2022-01-20T14:16:28Z</time>
      </trkpt>
      <trkpt lat="47.25434" lon="-1.59065">
        <ele>74</ele>
        <time>2022-01-20T14:16:29Z</time>
      </trkpt>
      <trkpt lat="47.25431" lon="-1.59067">
        <ele>74</ele>
        <time>2022-01-20T14:16:30Z</time>
      </trkpt>
      <trkpt lat="47.2543" lon="-1.59068">
        <ele>74</ele>
        <time>2022-01-20T14:16:31Z</time>
      </trkpt>
      <trkpt lat="47.2543" lon="-1.59069">
        <ele>75</ele>
        <time>2022-01-20T14:16:32Z</time>
      </trkpt>
      <trkpt lat="47.25428" lon="-1.59069">
        <ele>76</ele>
        <time>2022-01-20T14:16:33Z</time>
      </trkpt>
      <trkpt lat="47.25428" lon="-1.59069">
        <ele>76</ele>
        <time>2022-01-20T14:16:34Z</time>
      </trkpt>
      <trkpt lat="47.25428" lon="-1.59069">
        <ele>76</ele>
        <time>2022-01-20T14:16:35Z</time>
      </trkpt>
      <trkpt lat="47.25425" lon="-1.59069">
        <ele>76</ele>
        <time>2022-01-20T14:16:36Z</time>
      </trkpt>
      <trkpt lat="47.25424" lon="-1.59069">
        <ele>76</ele>
        <time>2022-01-20T14:16:37Z</time>
      </trkpt>
      <trkpt lat="47.25423" lon="-1.59068">
        <ele>76</ele>
        <time>2022-01-20T14:16:38Z</time>
      </trkpt>
      <trkpt lat="47.25422" lon="-1.59068">
        <ele>75</ele>
        <time>2022-01-20T14:16:39Z</time>
      </trkpt>
      <trkpt lat="47.25422" lon="-1.59068">
        <ele>75</ele>
        <time>2022-01-20T14:16:40Z</time>
      </trkpt>
      <trkpt lat="47.25422" lon="-1.59068">
        <ele>75</ele>
        <time>2022-01-20T14:16:41Z</time>
      </trkpt>
      <trkpt lat="47.25417" lon="-1.59068">
        <ele>75</ele>
        <time>2022-01-20T14:16:42Z</time>
      </trkpt>
      <trkpt lat="47.25417" lon="-1.59067">
        <ele>74</ele>
        <time>2022-01-20T14:16:43Z</time>
      </trkpt>
      <trkpt lat="47.25416" lon="-1.59067">
        <ele>74</ele>
        <time>2022-01-20T14:16:44Z</time>
      </trkpt>
      <trkpt lat="47.25415" lon="-1.59067">
        <ele>75</ele>
        <time>2022-01-20T14:16:45Z</time>
      </trkpt>
      <trkpt lat="47.25415" lon="-1.59067">
        <ele>75</ele>
        <time>2022-01-20T14:16:46Z</time>
      </trkpt>
      <trkpt lat="47.25415" lon="-1.59067">
        <ele>75</ele>
        <time>2022-01-20T14:16:47Z</time>
      </trkpt>
      <trkpt lat="47.25412" lon="-1.59067">
        <ele>75</ele>
        <time>2022-01-20T14:16:48Z</time>
      </trkpt>
      <trkpt lat="47.25411" lon="-1.59067">
        <ele>76</ele>
        <time>2022-01-20T14:16:49Z</time>
      </trkpt>
      <trkpt lat="47.2541" lon="-1.59068">
        <ele>76</ele>
        <time>2022-01-20T14:16:50Z</time>
      </trkpt>
      <trkpt lat="47.25408" lon="-1.59069">
        <ele>76</ele>
        <time>2022-01-20T14:16:51Z</time>
      </trkpt>
      <trkpt lat="47.25408" lon="-1.59069">
        <ele>76</ele>
        <time>2022-01-20T14:16:52Z</time>
      </trkpt>
      <trkpt lat="47.25408" lon="-1.59069">
        <ele>76</ele>
        <time>2022-01-20T14:16:53Z</time>
      </trkpt>
      <trkpt lat="47.25404" lon="-1.59069">
        <ele>76</ele>
        <time>2022-01-20T14:16:54Z</time>
      </trkpt>
      <trkpt lat="47.25403" lon="-1.59068">
        <ele>76</ele>
        <time>2022-01-20T14:16:55Z</time>
      </trkpt>
      <trkpt lat="47.25401" lon="-1.59069">
        <ele>77</ele>
        <time>2022-01-20T14:16:56Z</time>
      </trkpt>
      <trkpt lat="47.25399" lon="-1.59069">
        <ele>77</ele>
        <time>2022-01-20T14:16:57Z</time>
      </trkpt>
      <trkpt lat="47.25398" lon="-1.59069">
        <ele>78</ele>
        <time>2022-01-20T14:16:58Z</time>
      </trkpt>
      <trkpt lat="47.25396" lon="-1.59068">
        <ele>79</ele>
        <time>2022-01-20T14:16:59Z</time>
      </trkpt>
      <trkpt lat="47.25394" lon="-1.59068">
        <ele>79</ele>
        <time>2022-01-20T14:17:00Z</time>
      </trkpt>
      <trkpt lat="47.25392" lon="-1.59067">
        <ele>79</ele>
        <time>2022-01-20T14:17:01Z</time>
      </trkpt>
      <trkpt lat="47.2539" lon="-1.59066">
        <ele>79</ele>
        <time>2022-01-20T14:17:02Z</time>
      </trkpt>
      <trkpt lat="47.25388" lon="-1.59066">
        <ele>80</ele>
        <time>2022-01-20T14:17:03Z</time>
      </trkpt>
      <trkpt lat="47.25387" lon="-1.59066">
        <ele>79</ele>
        <time>2022-01-20T14:17:04Z</time>
      </trkpt>
      <trkpt lat="47.25385" lon="-1.59065">
        <ele>79</ele>
        <time>2022-01-20T14:17:05Z</time>
      </trkpt>
      <trkpt lat="47.25383" lon="-1.59065">
        <ele>79</ele>
        <time>2022-01-20T14:17:06Z</time>
      </trkpt>
      <trkpt lat="47.25382" lon="-1.59063">
        <ele>79</ele>
        <time>2022-01-20T14:17:07Z</time>
      </trkpt>
      <trkpt lat="47.25379" lon="-1.59063">
        <ele>79</ele>
        <time>2022-01-20T14:17:08Z</time>
      </trkpt>
      <trkpt lat="47.25377" lon="-1.59062">
        <ele>79</ele>
        <time>2022-01-20T14:17:09Z</time>
      </trkpt>
      <trkpt lat="47.25376" lon="-1.59062">
        <ele>79</ele>
        <time>2022-01-20T14:17:10Z</time>
      </trkpt>
      <trkpt lat="47.25375" lon="-1.59063">
        <ele>79</ele>
        <time>2022-01-20T14:17:11Z</time>
      </trkpt>
      <trkpt lat="47.25374" lon="-1.59063">
        <ele>80</ele>
        <time>2022-01-20T14:17:12Z</time>
      </trkpt>
      <trkpt lat="47.25373" lon="-1.59063">
        <ele>79</ele>
        <time>2022-01-20T14:17:13Z</time>
      </trkpt>
      <trkpt lat="47.25373" lon="-1.59063">
        <ele>79</ele>
        <time>2022-01-20T14:17:14Z</time>
      </trkpt>
      <trkpt lat="47.25373" lon="-1.59063">
        <ele>79</ele>
        <time>2022-01-20T14:17:15Z</time>
      </trkpt>
      <trkpt lat="47.2537" lon="-1.59061">
        <ele>79</ele>
        <time>2022-01-20T14:17:16Z</time>
      </trkpt>
      <trkpt lat="47.25369" lon="-1.5906">
        <ele>80</ele>
        <time>2022-01-20T14:17:17Z</time>
      </trkpt>
      <trkpt lat="47.25367" lon="-1.59059">
        <ele>80</ele>
        <time>2022-01-20T14:17:18Z</time>
      </trkpt>
      <trkpt lat="47.25365" lon="-1.59057">
        <ele>80</ele>
        <time>2022-01-20T14:17:19Z</time>
      </trkpt>
      <trkpt lat="47.25364" lon="-1.59056">
        <ele>80</ele>
        <time>2022-01-20T14:17:20Z</time>
      </trkpt>
      <trkpt lat="47.25363" lon="-1.59055">
        <ele>80</ele>
        <time>2022-01-20T14:17:21Z</time>
      </trkpt>
      <trkpt lat="47.25362" lon="-1.59054">
        <ele>80</ele>
        <time>2022-01-20T14:17:22Z</time>
      </trkpt>
      <trkpt lat="47.25361" lon="-1.59053">
        <ele>80</ele>
        <time>2022-01-20T14:17:23Z</time>
      </trkpt>
      <trkpt lat="47.25361" lon="-1.59051">
        <ele>81</ele>
        <time>2022-01-20T14:17:24Z</time>
      </trkpt>
      <trkpt lat="47.25359" lon="-1.5905">
        <ele>81</ele>
        <time>2022-01-20T14:17:25Z</time>
      </trkpt>
      <trkpt lat="47.25359" lon="-1.59048">
        <ele>81</ele>
        <time>2022-01-20T14:17:26Z</time>
      </trkpt>
      <trkpt lat="47.25357" lon="-1.59047">
        <ele>81</ele>
        <time>2022-01-20T14:17:27Z</time>
      </trkpt>
      <trkpt lat="47.25356" lon="-1.59046">
        <ele>81</ele>
        <time>2022-01-20T14:17:28Z</time>
      </trkpt>
      <trkpt lat="47.25355" lon="-1.59044">
        <ele>81</ele>
        <time>2022-01-20T14:17:29Z</time>
      </trkpt>
      <trkpt lat="47.25354" lon="-1.59043">
        <ele>81</ele>
        <time>2022-01-20T14:17:30Z</time>
      </trkpt>
      <trkpt lat="47.25353" lon="-1.59042">
        <ele>81</ele>
        <time>2022-01-20T14:17:31Z</time>
      </trkpt>
      <trkpt lat="47.25352" lon="-1.5904">
        <ele>81</ele>
        <time>2022-01-20T14:17:32Z</time>
      </trkpt>
      <trkpt lat="47.25352" lon="-1.5904">
        <ele>81</ele>
        <time>2022-01-20T14:17:33Z</time>
      </trkpt>
      <trkpt lat="47.25352" lon="-1.5904">
        <ele>81</ele>
        <time>2022-01-20T14:17:34Z</time>
      </trkpt>
      <trkpt lat="47.2535" lon="-1.59035">
        <ele>79</ele>
        <time>2022-01-20T14:17:35Z</time>
      </trkpt>
      <trkpt lat="47.25349" lon="-1.59033">
        <ele>78</ele>
        <time>2022-01-20T14:17:36Z</time>
      </trkpt>
      <trkpt lat="47.25348" lon="-1.59032">
        <ele>77</ele>
        <time>2022-01-20T14:17:37Z</time>
      </trkpt>
      <trkpt lat="47.25347" lon="-1.5903">
        <ele>77</ele>
        <time>2022-01-20T14:17:38Z</time>
      </trkpt>
      <trkpt lat="47.25347" lon="-1.5903">
        <ele>77</ele>
        <time>2022-01-20T14:17:39Z</time>
      </trkpt>
      <trkpt lat="47.25347" lon="-1.5903">
        <ele>77</ele>
        <time>2022-01-20T14:17:40Z</time>
      </trkpt>
      <trkpt lat="47.25345" lon="-1.59025">
        <ele>76</ele>
        <time>2022-01-20T14:17:41Z</time>
      </trkpt>
      <trkpt lat="47.25344" lon="-1.59023">
        <ele>75</ele>
        <time>2022-01-20T14:17:42Z</time>
      </trkpt>
      <trkpt lat="47.25343" lon="-1.59021">
        <ele>75</ele>
        <time>2022-01-20T14:17:43Z</time>
      </trkpt>
      <trkpt lat="47.25342" lon="-1.5902">
        <ele>74</ele>
        <time>2022-01-20T14:17:44Z</time>
      </trkpt>
      <trkpt lat="47.25342" lon="-1.5902">
        <ele>74</ele>
        <time>2022-01-20T14:17:45Z</time>
      </trkpt>
      <trkpt lat="47.2534" lon="-1.59017">
        <ele>73</ele>
        <time>2022-01-20T14:17:46Z</time>
      </trkpt>
      <trkpt lat="47.25338" lon="-1.59016">
        <ele>73</ele>
        <time>2022-01-20T14:17:47Z</time>
      </trkpt>
      <trkpt lat="47.25337" lon="-1.59014">
        <ele>72</ele>
        <time>2022-01-20T14:17:48Z</time>
      </trkpt>
      <trkpt lat="47.25335" lon="-1.59012">
        <ele>72</ele>
        <time>2022-01-20T14:17:49Z</time>
      </trkpt>
      <trkpt lat="47.25335" lon="-1.5901">
        <ele>72</ele>
        <time>2022-01-20T14:17:50Z</time>
      </trkpt>
      <trkpt lat="47.25334" lon="-1.59009">
        <ele>71</ele>
        <time>2022-01-20T14:17:51Z</time>
      </trkpt>
      <trkpt lat="47.25334" lon="-1.59009">
        <ele>71</ele>
        <time>2022-01-20T14:17:52Z</time>
      </trkpt>
      <trkpt lat="47.25332" lon="-1.59006">
        <ele>71</ele>
        <time>2022-01-20T14:17:53Z</time>
      </trkpt>
      <trkpt lat="47.25331" lon="-1.59004">
        <ele>72</ele>
        <time>2022-01-20T14:17:54Z</time>
      </trkpt>
      <trkpt lat="47.2533" lon="-1.59002">
        <ele>73</ele>
        <time>2022-01-20T14:17:55Z</time>
      </trkpt>
      <trkpt lat="47.25329" lon="-1.59">
        <ele>73</ele>
        <time>2022-01-20T14:17:56Z</time>
      </trkpt>
      <trkpt lat="47.25328" lon="-1.58999">
        <ele>73</ele>
        <time>2022-01-20T14:17:57Z</time>
      </trkpt>
      <trkpt lat="47.25328" lon="-1.58999">
        <ele>73</ele>
        <time>2022-01-20T14:17:58Z</time>
      </trkpt>
      <trkpt lat="47.25327" lon="-1.58996">
        <ele>72</ele>
        <time>2022-01-20T14:17:59Z</time>
      </trkpt>
      <trkpt lat="47.25327" lon="-1.58996">
        <ele>72</ele>
        <time>2022-01-20T14:18:00Z</time>
      </trkpt>
      <trkpt lat="47.25326" lon="-1.58995">
        <ele>73</ele>
        <time>2022-01-20T14:18:01Z</time>
      </trkpt>
      <trkpt lat="47.25326" lon="-1.58994">
        <ele>72</ele>
        <time>2022-01-20T14:18:02Z</time>
      </trkpt>
      <trkpt lat="47.25326" lon="-1.58994">
        <ele>72</ele>
        <time>2022-01-20T14:18:03Z</time>
      </trkpt>
      <trkpt lat="47.25326" lon="-1.58994">
        <ele>72</ele>
        <time>2022-01-20T14:18:04Z</time>
      </trkpt>
      <trkpt lat="47.25324" lon="-1.58992">
        <ele>73</ele>
        <time>2022-01-20T14:18:05Z</time>
      </trkpt>
      <trkpt lat="47.25323" lon="-1.58991">
        <ele>74</ele>
        <time>2022-01-20T14:18:06Z</time>
      </trkpt>
      <trkpt lat="47.25322" lon="-1.58989">
        <ele>74</ele>
        <time>2022-01-20T14:18:07Z</time>
      </trkpt>
      <trkpt lat="47.2532" lon="-1.58988">
        <ele>74</ele>
        <time>2022-01-20T14:18:08Z</time>
      </trkpt>
      <trkpt lat="47.2532" lon="-1.58986">
        <ele>75</ele>
        <time>2022-01-20T14:18:09Z</time>
      </trkpt>
      <trkpt lat="47.25319" lon="-1.58985">
        <ele>76</ele>
        <time>2022-01-20T14:18:10Z</time>
      </trkpt>
      <trkpt lat="47.25318" lon="-1.58984">
        <ele>76</ele>
        <time>2022-01-20T14:18:11Z</time>
      </trkpt>
      <trkpt lat="47.25317" lon="-1.58983">
        <ele>76</ele>
        <time>2022-01-20T14:18:12Z</time>
      </trkpt>
      <trkpt lat="47.25316" lon="-1.58982">
        <ele>76</ele>
        <time>2022-01-20T14:18:13Z</time>
      </trkpt>
      <trkpt lat="47.25315" lon="-1.58981">
        <ele>75</ele>
        <time>2022-01-20T14:18:14Z</time>
      </trkpt>
      <trkpt lat="47.25314" lon="-1.5898">
        <ele>75</ele>
        <time>2022-01-20T14:18:15Z</time>
      </trkpt>
      <trkpt lat="47.25313" lon="-1.58979">
        <ele>74</ele>
        <time>2022-01-20T14:18:16Z</time>
      </trkpt>
      <trkpt lat="47.25312" lon="-1.58978">
        <ele>73</ele>
        <time>2022-01-20T14:18:17Z</time>
      </trkpt>
      <trkpt lat="47.25311" lon="-1.58977">
        <ele>72</ele>
        <time>2022-01-20T14:18:18Z</time>
      </trkpt>
      <trkpt lat="47.2531" lon="-1.58975">
        <ele>71</ele>
        <time>2022-01-20T14:18:19Z</time>
      </trkpt>
      <trkpt lat="47.2531" lon="-1.58975">
        <ele>71</ele>
        <time>2022-01-20T14:18:20Z</time>
      </trkpt>
      <trkpt lat="47.25307" lon="-1.58972">
        <ele>71</ele>
        <time>2022-01-20T14:18:21Z</time>
      </trkpt>
      <trkpt lat="47.25306" lon="-1.5897">
        <ele>71</ele>
        <time>2022-01-20T14:18:22Z</time>
      </trkpt>
      <trkpt lat="47.25305" lon="-1.58969">
        <ele>70</ele>
        <time>2022-01-20T14:18:23Z</time>
      </trkpt>
      <trkpt lat="47.25304" lon="-1.58967">
        <ele>71</ele>
        <time>2022-01-20T14:18:24Z</time>
      </trkpt>
      <trkpt lat="47.25303" lon="-1.58965">
        <ele>70</ele>
        <time>2022-01-20T14:18:25Z</time>
      </trkpt>
      <trkpt lat="47.25302" lon="-1.58963">
        <ele>70</ele>
        <time>2022-01-20T14:18:26Z</time>
      </trkpt>
      <trkpt lat="47.253" lon="-1.58962">
        <ele>69</ele>
        <time>2022-01-20T14:18:27Z</time>
      </trkpt>
      <trkpt lat="47.25299" lon="-1.58961">
        <ele>69</ele>
        <time>2022-01-20T14:18:28Z</time>
      </trkpt>
      <trkpt lat="47.25297" lon="-1.5896">
        <ele>69</ele>
        <time>2022-01-20T14:18:29Z</time>
      </trkpt>
      <trkpt lat="47.25296" lon="-1.58959">
        <ele>68</ele>
        <time>2022-01-20T14:18:30Z</time>
      </trkpt>
      <trkpt lat="47.25295" lon="-1.58957">
        <ele>69</ele>
        <time>2022-01-20T14:18:31Z</time>
      </trkpt>
      <trkpt lat="47.25293" lon="-1.58956">
        <ele>69</ele>
        <time>2022-01-20T14:18:32Z</time>
      </trkpt>
      <trkpt lat="47.25293" lon="-1.58955">
        <ele>70</ele>
        <time>2022-01-20T14:18:33Z</time>
      </trkpt>
      <trkpt lat="47.25292" lon="-1.58953">
        <ele>70</ele>
        <time>2022-01-20T14:18:35Z</time>
      </trkpt>
      <trkpt lat="47.25292" lon="-1.58953">
        <ele>70</ele>
        <time>2022-01-20T14:18:35Z</time>
      </trkpt>
      <trkpt lat="47.25292" lon="-1.58953">
        <ele>70</ele>
        <time>2022-01-20T14:18:36Z</time>
      </trkpt>
      <trkpt lat="47.25292" lon="-1.58953">
        <ele>70</ele>
        <time>2022-01-20T14:18:37Z</time>
      </trkpt>
      <trkpt lat="47.25291" lon="-1.5895">
        <ele>70</ele>
        <time>2022-01-20T14:18:38Z</time>
      </trkpt>
      <trkpt lat="47.2529" lon="-1.58948">
        <ele>71</ele>
        <time>2022-01-20T14:18:39Z</time>
      </trkpt>
      <trkpt lat="47.25289" lon="-1.58947">
        <ele>71</ele>
        <time>2022-01-20T14:18:40Z</time>
      </trkpt>
      <trkpt lat="47.25288" lon="-1.58945">
        <ele>72</ele>
        <time>2022-01-20T14:18:41Z</time>
      </trkpt>
      <trkpt lat="47.25288" lon="-1.58945">
        <ele>72</ele>
        <time>2022-01-20T14:18:42Z</time>
      </trkpt>
      <trkpt lat="47.25288" lon="-1.58945">
        <ele>72</ele>
        <time>2022-01-20T14:18:43Z</time>
      </trkpt>
      <trkpt lat="47.25284" lon="-1.5894">
        <ele>72</ele>
        <time>2022-01-20T14:18:45Z</time>
      </trkpt>
      <trkpt lat="47.25284" lon="-1.5894">
        <ele>72</ele>
        <time>2022-01-20T14:18:45Z</time>
      </trkpt>
      <trkpt lat="47.25283" lon="-1.5894">
        <ele>73</ele>
        <time>2022-01-20T14:18:46Z</time>
      </trkpt>
      <trkpt lat="47.25282" lon="-1.58938">
        <ele>74</ele>
        <time>2022-01-20T14:18:47Z</time>
      </trkpt>
      <trkpt lat="47.2528" lon="-1.58935">
        <ele>75</ele>
        <time>2022-01-20T14:18:49Z</time>
      </trkpt>
      <trkpt lat="47.25279" lon="-1.58934">
        <ele>75</ele>
        <time>2022-01-20T14:18:50Z</time>
      </trkpt>
      <trkpt lat="47.25279" lon="-1.58934">
        <ele>75</ele>
        <time>2022-01-20T14:18:50Z</time>
      </trkpt>
      <trkpt lat="47.25279" lon="-1.58933">
        <ele>75</ele>
        <time>2022-01-20T14:18:51Z</time>
      </trkpt>
      <trkpt lat="47.25279" lon="-1.58933">
        <ele>75</ele>
        <time>2022-01-20T14:18:52Z</time>
      </trkpt>
      <trkpt lat="47.25279" lon="-1.58933">
        <ele>75</ele>
        <time>2022-01-20T14:18:53Z</time>
      </trkpt>
      <trkpt lat="47.25276" lon="-1.5893">
        <ele>77</ele>
        <time>2022-01-20T14:18:54Z</time>
      </trkpt>
      <trkpt lat="47.25275" lon="-1.58929">
        <ele>77</ele>
        <time>2022-01-20T14:18:55Z</time>
      </trkpt>
      <trkpt lat="47.25274" lon="-1.58927">
        <ele>77</ele>
        <time>2022-01-20T14:18:56Z</time>
      </trkpt>
      <trkpt lat="47.25272" lon="-1.58927">
        <ele>77</ele>
        <time>2022-01-20T14:18:57Z</time>
      </trkpt>
      <trkpt lat="47.25271" lon="-1.58926">
        <ele>77</ele>
        <time>2022-01-20T14:18:58Z</time>
      </trkpt>
      <trkpt lat="47.2527" lon="-1.58925">
        <ele>77</ele>
        <time>2022-01-20T14:18:59Z</time>
      </trkpt>
      <trkpt lat="47.2527" lon="-1.58925">
        <ele>77</ele>
        <time>2022-01-20T14:19:00Z</time>
      </trkpt>
      <trkpt lat="47.2527" lon="-1.58925">
        <ele>77</ele>
        <time>2022-01-20T14:19:01Z</time>
      </trkpt>
      <trkpt lat="47.25266" lon="-1.58922">
        <ele>77</ele>
        <time>2022-01-20T14:19:03Z</time>
      </trkpt>
      <trkpt lat="47.25266" lon="-1.58922">
        <ele>77</ele>
        <time>2022-01-20T14:19:03Z</time>
      </trkpt>
      <trkpt lat="47.25266" lon="-1.58921">
        <ele>76</ele>
        <time>2022-01-20T14:19:04Z</time>
      </trkpt>
      <trkpt lat="47.25265" lon="-1.58919">
        <ele>76</ele>
        <time>2022-01-20T14:19:05Z</time>
      </trkpt>
      <trkpt lat="47.25264" lon="-1.58917">
        <ele>75</ele>
        <time>2022-01-20T14:19:06Z</time>
      </trkpt>
      <trkpt lat="47.25263" lon="-1.58916">
        <ele>74</ele>
        <time>2022-01-20T14:19:07Z</time>
      </trkpt>
      <trkpt lat="47.25261" lon="-1.58914">
        <ele>74</ele>
        <time>2022-01-20T14:19:08Z</time>
      </trkpt>
      <trkpt lat="47.25261" lon="-1.58914">
        <ele>74</ele>
        <time>2022-01-20T14:19:09Z</time>
      </trkpt>
      <trkpt lat="47.25258" lon="-1.58911">
        <ele>72</ele>
        <time>2022-01-20T14:19:11Z</time>
      </trkpt>
      <trkpt lat="47.25258" lon="-1.58911">
        <ele>72</ele>
        <time>2022-01-20T14:19:11Z</time>
      </trkpt>
      <trkpt lat="47.25257" lon="-1.5891">
        <ele>72</ele>
        <time>2022-01-20T14:19:12Z</time>
      </trkpt>
      <trkpt lat="47.25255" lon="-1.5891">
        <ele>71</ele>
        <time>2022-01-20T14:19:13Z</time>
      </trkpt>
      <trkpt lat="47.25254" lon="-1.58909">
        <ele>71</ele>
        <time>2022-01-20T14:19:14Z</time>
      </trkpt>
      <trkpt lat="47.25254" lon="-1.58909">
        <ele>71</ele>
        <time>2022-01-20T14:19:15Z</time>
      </trkpt>
      <trkpt lat="47.25254" lon="-1.58909">
        <ele>71</ele>
        <time>2022-01-20T14:19:16Z</time>
      </trkpt>
      <trkpt lat="47.25251" lon="-1.58906">
        <ele>71</ele>
        <time>2022-01-20T14:19:17Z</time>
      </trkpt>
      <trkpt lat="47.2525" lon="-1.58906">
        <ele>71</ele>
        <time>2022-01-20T14:19:18Z</time>
      </trkpt>
      <trkpt lat="47.25248" lon="-1.58904">
        <ele>71</ele>
        <time>2022-01-20T14:19:19Z</time>
      </trkpt>
      <trkpt lat="47.25246" lon="-1.58903">
        <ele>71</ele>
        <time>2022-01-20T14:19:20Z</time>
      </trkpt>
      <trkpt lat="47.25246" lon="-1.58902">
        <ele>71</ele>
        <time>2022-01-20T14:19:21Z</time>
      </trkpt>
      <trkpt lat="47.25244" lon="-1.589">
        <ele>71</ele>
        <time>2022-01-20T14:19:22Z</time>
      </trkpt>
      <trkpt lat="47.25243" lon="-1.58899">
        <ele>70</ele>
        <time>2022-01-20T14:19:23Z</time>
      </trkpt>
      <trkpt lat="47.25242" lon="-1.58898">
        <ele>70</ele>
        <time>2022-01-20T14:19:24Z</time>
      </trkpt>
      <trkpt lat="47.2524" lon="-1.58897">
        <ele>70</ele>
        <time>2022-01-20T14:19:25Z</time>
      </trkpt>
      <trkpt lat="47.25239" lon="-1.58896">
        <ele>70</ele>
        <time>2022-01-20T14:19:26Z</time>
      </trkpt>
      <trkpt lat="47.25238" lon="-1.58895">
        <ele>70</ele>
        <time>2022-01-20T14:19:27Z</time>
      </trkpt>
      <trkpt lat="47.25238" lon="-1.58895">
        <ele>70</ele>
        <time>2022-01-20T14:19:28Z</time>
      </trkpt>
      <trkpt lat="47.25238" lon="-1.58895">
        <ele>70</ele>
        <time>2022-01-20T14:19:29Z</time>
      </trkpt>
      <trkpt lat="47.25235" lon="-1.58892">
        <ele>70</ele>
        <time>2022-01-20T14:19:30Z</time>
      </trkpt>
      <trkpt lat="47.25235" lon="-1.5889">
        <ele>71</ele>
        <time>2022-01-20T14:19:31Z</time>
      </trkpt>
      <trkpt lat="47.25235" lon="-1.58889">
        <ele>71</ele>
        <time>2022-01-20T14:19:32Z</time>
      </trkpt>
      <trkpt lat="47.25235" lon="-1.58888">
        <ele>72</ele>
        <time>2022-01-20T14:19:33Z</time>
      </trkpt>
      <trkpt lat="47.25235" lon="-1.58887">
        <ele>72</ele>
        <time>2022-01-20T14:19:34Z</time>
      </trkpt>
      <trkpt lat="47.25235" lon="-1.58887">
        <ele>71</ele>
        <time>2022-01-20T14:19:35Z</time>
      </trkpt>
      <trkpt lat="47.25235" lon="-1.58886">
        <ele>71</ele>
        <time>2022-01-20T14:19:36Z</time>
      </trkpt>
      <trkpt lat="47.25235" lon="-1.58884">
        <ele>71</ele>
        <time>2022-01-20T14:19:37Z</time>
      </trkpt>
      <trkpt lat="47.25235" lon="-1.58883">
        <ele>71</ele>
        <time>2022-01-20T14:19:38Z</time>
      </trkpt>
      <trkpt lat="47.25235" lon="-1.58882">
        <ele>72</ele>
        <time>2022-01-20T14:19:39Z</time>
      </trkpt>
      <trkpt lat="47.25235" lon="-1.58882">
        <ele>72</ele>
        <time>2022-01-20T14:19:40Z</time>
      </trkpt>
      <trkpt lat="47.25235" lon="-1.58882">
        <ele>72</ele>
        <time>2022-01-20T14:19:41Z</time>
      </trkpt>
      <trkpt lat="47.25235" lon="-1.58878">
        <ele>72</ele>
        <time>2022-01-20T14:19:42Z</time>
      </trkpt>
      <trkpt lat="47.25236" lon="-1.58875">
        <ele>71</ele>
        <time>2022-01-20T14:19:44Z</time>
      </trkpt>
      <trkpt lat="47.25236" lon="-1.58875">
        <ele>71</ele>
        <time>2022-01-20T14:19:44Z</time>
      </trkpt>
      <trkpt lat="47.25236" lon="-1.58874">
        <ele>72</ele>
        <time>2022-01-20T14:19:45Z</time>
      </trkpt>
      <trkpt lat="47.25237" lon="-1.58873">
        <ele>72</ele>
        <time>2022-01-20T14:19:46Z</time>
      </trkpt>
      <trkpt lat="47.25237" lon="-1.58872">
        <ele>71</ele>
        <time>2022-01-20T14:19:47Z</time>
      </trkpt>
      <trkpt lat="47.25237" lon="-1.5887">
        <ele>71</ele>
        <time>2022-01-20T14:19:48Z</time>
      </trkpt>
      <trkpt lat="47.25237" lon="-1.58868">
        <ele>71</ele>
        <time>2022-01-20T14:19:49Z</time>
      </trkpt>
      <trkpt lat="47.25237" lon="-1.58867">
        <ele>71</ele>
        <time>2022-01-20T14:19:50Z</time>
      </trkpt>
      <trkpt lat="47.25237" lon="-1.58866">
        <ele>72</ele>
        <time>2022-01-20T14:19:51Z</time>
      </trkpt>
      <trkpt lat="47.25238" lon="-1.58865">
        <ele>72</ele>
        <time>2022-01-20T14:19:52Z</time>
      </trkpt>
      <trkpt lat="47.25238" lon="-1.58863">
        <ele>71</ele>
        <time>2022-01-20T14:19:54Z</time>
      </trkpt>
      <trkpt lat="47.25238" lon="-1.58863">
        <ele>71</ele>
        <time>2022-01-20T14:19:54Z</time>
      </trkpt>
      <trkpt lat="47.25239" lon="-1.58862">
        <ele>71</ele>
        <time>2022-01-20T14:19:55Z</time>
      </trkpt>
      <trkpt lat="47.25239" lon="-1.58862">
        <ele>71</ele>
        <time>2022-01-20T14:19:56Z</time>
      </trkpt>
      <trkpt lat="47.2524" lon="-1.5886">
        <ele>70</ele>
        <time>2022-01-20T14:19:58Z</time>
      </trkpt>
      <trkpt lat="47.2524" lon="-1.58857">
        <ele>70</ele>
        <time>2022-01-20T14:19:59Z</time>
      </trkpt>
      <trkpt lat="47.2524" lon="-1.58857">
        <ele>70</ele>
        <time>2022-01-20T14:19:59Z</time>
      </trkpt>
      <trkpt lat="47.25241" lon="-1.58856">
        <ele>70</ele>
        <time>2022-01-20T14:20:00Z</time>
      </trkpt>
      <trkpt lat="47.25242" lon="-1.58854">
        <ele>69</ele>
        <time>2022-01-20T14:20:02Z</time>
      </trkpt>
      <trkpt lat="47.25242" lon="-1.58854">
        <ele>69</ele>
        <time>2022-01-20T14:20:02Z</time>
      </trkpt>
      <trkpt lat="47.25243" lon="-1.5885">
        <ele>67</ele>
        <time>2022-01-20T14:20:04Z</time>
      </trkpt>
      <trkpt lat="47.25243" lon="-1.58848">
        <ele>66</ele>
        <time>2022-01-20T14:20:05Z</time>
      </trkpt>
      <trkpt lat="47.25243" lon="-1.58846">
        <ele>66</ele>
        <time>2022-01-20T14:20:06Z</time>
      </trkpt>
      <trkpt lat="47.25244" lon="-1.58844">
        <ele>66</ele>
        <time>2022-01-20T14:20:07Z</time>
      </trkpt>
      <trkpt lat="47.25244" lon="-1.58844">
        <ele>66</ele>
        <time>2022-01-20T14:20:07Z</time>
      </trkpt>
      <trkpt lat="47.25244" lon="-1.58842">
        <ele>66</ele>
        <time>2022-01-20T14:20:08Z</time>
      </trkpt>
      <trkpt lat="47.25245" lon="-1.5884">
        <ele>66</ele>
        <time>2022-01-20T14:20:09Z</time>
      </trkpt>
      <trkpt lat="47.25245" lon="-1.58837">
        <ele>66</ele>
        <time>2022-01-20T14:20:11Z</time>
      </trkpt>
      <trkpt lat="47.25245" lon="-1.58837">
        <ele>66</ele>
        <time>2022-01-20T14:20:11Z</time>
      </trkpt>
      <trkpt lat="47.25246" lon="-1.58836">
        <ele>67</ele>
        <time>2022-01-20T14:20:12Z</time>
      </trkpt>
      <trkpt lat="47.25247" lon="-1.58834">
        <ele>66</ele>
        <time>2022-01-20T14:20:14Z</time>
      </trkpt>
      <trkpt lat="47.25248" lon="-1.58833">
        <ele>66</ele>
        <time>2022-01-20T14:20:15Z</time>
      </trkpt>
      <trkpt lat="47.25249" lon="-1.58832">
        <ele>65</ele>
        <time>2022-01-20T14:20:16Z</time>
      </trkpt>
      <trkpt lat="47.2525" lon="-1.58832">
        <ele>66</ele>
        <time>2022-01-20T14:20:17Z</time>
      </trkpt>
      <trkpt lat="47.25251" lon="-1.58831">
        <ele>65</ele>
        <time>2022-01-20T14:20:18Z</time>
      </trkpt>
      <trkpt lat="47.25251" lon="-1.58831">
        <ele>65</ele>
        <time>2022-01-20T14:20:18Z</time>
      </trkpt>
      <trkpt lat="47.25252" lon="-1.58831">
        <ele>65</ele>
        <time>2022-01-20T14:20:19Z</time>
      </trkpt>
      <trkpt lat="47.25253" lon="-1.58831">
        <ele>66</ele>
        <time>2022-01-20T14:20:20Z</time>
      </trkpt>
      <trkpt lat="47.25255" lon="-1.5883">
        <ele>67</ele>
        <time>2022-01-20T14:20:22Z</time>
      </trkpt>
      <trkpt lat="47.25256" lon="-1.5883">
        <ele>68</ele>
        <time>2022-01-20T14:20:23Z</time>
      </trkpt>
      <trkpt lat="47.25257" lon="-1.58829">
        <ele>69</ele>
        <time>2022-01-20T14:20:24Z</time>
      </trkpt>
      <trkpt lat="47.25257" lon="-1.58829">
        <ele>69</ele>
        <time>2022-01-20T14:20:24Z</time>
      </trkpt>
      <trkpt lat="47.25259" lon="-1.5883">
        <ele>69</ele>
        <time>2022-01-20T14:20:25Z</time>
      </trkpt>
      <trkpt lat="47.25259" lon="-1.5883">
        <ele>69</ele>
        <time>2022-01-20T14:20:27Z</time>
      </trkpt>
      <trkpt lat="47.25262" lon="-1.58831">
        <ele>68</ele>
        <time>2022-01-20T14:20:28Z</time>
      </trkpt>
      <trkpt lat="47.25262" lon="-1.58832">
        <ele>68</ele>
        <time>2022-01-20T14:20:29Z</time>
      </trkpt>
      <trkpt lat="47.25263" lon="-1.58833">
        <ele>67</ele>
        <time>2022-01-20T14:20:30Z</time>
      </trkpt>
      <trkpt lat="47.25264" lon="-1.58833">
        <ele>67</ele>
        <time>2022-01-20T14:20:31Z</time>
      </trkpt>
      <trkpt lat="47.25265" lon="-1.58833">
        <ele>67</ele>
        <time>2022-01-20T14:20:32Z</time>
      </trkpt>
      <trkpt lat="47.25266" lon="-1.58834">
        <ele>68</ele>
        <time>2022-01-20T14:20:33Z</time>
      </trkpt>
      <trkpt lat="47.25266" lon="-1.58835">
        <ele>68</ele>
        <time>2022-01-20T14:20:34Z</time>
      </trkpt>
      <trkpt lat="47.25268" lon="-1.58835">
        <ele>68</ele>
        <time>2022-01-20T14:20:35Z</time>
      </trkpt>
      <trkpt lat="47.25269" lon="-1.58836">
        <ele>67</ele>
        <time>2022-01-20T14:20:36Z</time>
      </trkpt>
      <trkpt lat="47.2527" lon="-1.58837">
        <ele>67</ele>
        <time>2022-01-20T14:20:37Z</time>
      </trkpt>
      <trkpt lat="47.2527" lon="-1.58837">
        <ele>67</ele>
        <time>2022-01-20T14:20:37Z</time>
      </trkpt>
      <trkpt lat="47.25271" lon="-1.58837">
        <ele>67</ele>
        <time>2022-01-20T14:20:38Z</time>
      </trkpt>
      <trkpt lat="47.25272" lon="-1.58839">
        <ele>67</ele>
        <time>2022-01-20T14:20:39Z</time>
      </trkpt>
      <trkpt lat="47.25274" lon="-1.5884">
        <ele>65</ele>
        <time>2022-01-20T14:20:41Z</time>
      </trkpt>
      <trkpt lat="47.25275" lon="-1.5884">
        <ele>65</ele>
        <time>2022-01-20T14:20:42Z</time>
      </trkpt>
      <trkpt lat="47.25275" lon="-1.5884">
        <ele>65</ele>
        <time>2022-01-20T14:20:42Z</time>
      </trkpt>
      <trkpt lat="47.25276" lon="-1.5884">
        <ele>63</ele>
        <time>2022-01-20T14:20:44Z</time>
      </trkpt>
      <trkpt lat="47.25276" lon="-1.5884">
        <ele>63</ele>
        <time>2022-01-20T14:20:44Z</time>
      </trkpt>
      <trkpt lat="47.25277" lon="-1.5884">
        <ele>61</ele>
        <time>2022-01-20T14:20:45Z</time>
      </trkpt>
      <trkpt lat="47.25277" lon="-1.5884">
        <ele>61</ele>
        <time>2022-01-20T14:20:46Z</time>
      </trkpt>
      <trkpt lat="47.25279" lon="-1.58839">
        <ele>60</ele>
        <time>2022-01-20T14:20:48Z</time>
      </trkpt>
      <trkpt lat="47.25279" lon="-1.58839">
        <ele>60</ele>
        <time>2022-01-20T14:20:48Z</time>
      </trkpt>
      <trkpt lat="47.2528" lon="-1.58837">
        <ele>61</ele>
        <time>2022-01-20T14:20:50Z</time>
      </trkpt>
      <trkpt lat="47.2528" lon="-1.58837">
        <ele>61</ele>
        <time>2022-01-20T14:20:50Z</time>
      </trkpt>
      <trkpt lat="47.25282" lon="-1.58837">
        <ele>61</ele>
        <time>2022-01-20T14:20:51Z</time>
      </trkpt>
      <trkpt lat="47.25283" lon="-1.58836">
        <ele>61</ele>
        <time>2022-01-20T14:20:53Z</time>
      </trkpt>
      <trkpt lat="47.25283" lon="-1.58836">
        <ele>61</ele>
        <time>2022-01-20T14:20:53Z</time>
      </trkpt>
      <trkpt lat="47.25284" lon="-1.58836">
        <ele>61</ele>
        <time>2022-01-20T14:20:54Z</time>
      </trkpt>
      <trkpt lat="47.25284" lon="-1.58835">
        <ele>61</ele>
        <time>2022-01-20T14:20:55Z</time>
      </trkpt>
      <trkpt lat="47.25284" lon="-1.58835">
        <ele>61</ele>
        <time>2022-01-20T14:20:56Z</time>
      </trkpt>
      <trkpt lat="47.25284" lon="-1.58835">
        <ele>61</ele>
        <time>2022-01-20T14:20:57Z</time>
      </trkpt>
      <trkpt lat="47.25284" lon="-1.58832">
        <ele>62</ele>
        <time>2022-01-20T14:20:58Z</time>
      </trkpt>
      <trkpt lat="47.25284" lon="-1.58831">
        <ele>63</ele>
        <time>2022-01-20T14:20:59Z</time>
      </trkpt>
      <trkpt lat="47.25284" lon="-1.58831">
        <ele>63</ele>
        <time>2022-01-20T14:21:00Z</time>
      </trkpt>
      <trkpt lat="47.25285" lon="-1.5883">
        <ele>63</ele>
        <time>2022-01-20T14:21:01Z</time>
      </trkpt>
      <trkpt lat="47.25285" lon="-1.5883">
        <ele>63</ele>
        <time>2022-01-20T14:21:02Z</time>
      </trkpt>
      <trkpt lat="47.25285" lon="-1.5883">
        <ele>63</ele>
        <time>2022-01-20T14:21:03Z</time>
      </trkpt>
      <trkpt lat="47.25285" lon="-1.58826">
        <ele>64</ele>
        <time>2022-01-20T14:21:05Z</time>
      </trkpt>
      <trkpt lat="47.25285" lon="-1.58825">
        <ele>64</ele>
        <time>2022-01-20T14:21:06Z</time>
      </trkpt>
      <trkpt lat="47.25286" lon="-1.58824">
        <ele>64</ele>
        <time>2022-01-20T14:21:07Z</time>
      </trkpt>
      <trkpt lat="47.25286" lon="-1.58824">
        <ele>64</ele>
        <time>2022-01-20T14:21:07Z</time>
      </trkpt>
      <trkpt lat="47.25286" lon="-1.58822">
        <ele>64</ele>
        <time>2022-01-20T14:21:08Z</time>
      </trkpt>
      <trkpt lat="47.25286" lon="-1.5882">
        <ele>64</ele>
        <time>2022-01-20T14:21:09Z</time>
      </trkpt>
      <trkpt lat="47.25287" lon="-1.58816">
        <ele>63</ele>
        <time>2022-01-20T14:21:11Z</time>
      </trkpt>
      <trkpt lat="47.25287" lon="-1.58816">
        <ele>63</ele>
        <time>2022-01-20T14:21:11Z</time>
      </trkpt>
      <trkpt lat="47.25287" lon="-1.58812">
        <ele>63</ele>
        <time>2022-01-20T14:21:13Z</time>
      </trkpt>
      <trkpt lat="47.25287" lon="-1.58812">
        <ele>63</ele>
        <time>2022-01-20T14:21:13Z</time>
      </trkpt>
      <trkpt lat="47.25288" lon="-1.58808">
        <ele>64</ele>
        <time>2022-01-20T14:21:15Z</time>
      </trkpt>
      <trkpt lat="47.25288" lon="-1.58808">
        <ele>64</ele>
        <time>2022-01-20T14:21:15Z</time>
      </trkpt>
      <trkpt lat="47.25289" lon="-1.58804">
        <ele>65</ele>
        <time>2022-01-20T14:21:17Z</time>
      </trkpt>
      <trkpt lat="47.25289" lon="-1.58803">
        <ele>65</ele>
        <time>2022-01-20T14:21:18Z</time>
      </trkpt>
      <trkpt lat="47.25289" lon="-1.58803">
        <ele>65</ele>
        <time>2022-01-20T14:21:18Z</time>
      </trkpt>
      <trkpt lat="47.25289" lon="-1.58799">
        <ele>66</ele>
        <time>2022-01-20T14:21:20Z</time>
      </trkpt>
      <trkpt lat="47.25289" lon="-1.58799">
        <ele>66</ele>
        <time>2022-01-20T14:21:20Z</time>
      </trkpt>
      <trkpt lat="47.2529" lon="-1.58798">
        <ele>66</ele>
        <time>2022-01-20T14:21:21Z</time>
      </trkpt>
      <trkpt lat="47.2529" lon="-1.58794">
        <ele>65</ele>
        <time>2022-01-20T14:21:23Z</time>
      </trkpt>
      <trkpt lat="47.2529" lon="-1.58794">
        <ele>65</ele>
        <time>2022-01-20T14:21:23Z</time>
      </trkpt>
      <trkpt lat="47.2529" lon="-1.58791">
        <ele>65</ele>
        <time>2022-01-20T14:21:25Z</time>
      </trkpt>
      <trkpt lat="47.2529" lon="-1.5879">
        <ele>64</ele>
        <time>2022-01-20T14:21:26Z</time>
      </trkpt>
      <trkpt lat="47.2529" lon="-1.5879">
        <ele>64</ele>
        <time>2022-01-20T14:21:26Z</time>
      </trkpt>
      <trkpt lat="47.2529" lon="-1.58788">
        <ele>64</ele>
        <time>2022-01-20T14:21:27Z</time>
      </trkpt>
      <trkpt lat="47.2529" lon="-1.58784">
        <ele>64</ele>
        <time>2022-01-20T14:21:29Z</time>
      </trkpt>
      <trkpt lat="47.2529" lon="-1.58782">
        <ele>64</ele>
        <time>2022-01-20T14:21:30Z</time>
      </trkpt>
      <trkpt lat="47.2529" lon="-1.58782">
        <ele>64</ele>
        <time>2022-01-20T14:21:30Z</time>
      </trkpt>
      <trkpt lat="47.2529" lon="-1.58781">
        <ele>63</ele>
        <time>2022-01-20T14:21:31Z</time>
      </trkpt>
      <trkpt lat="47.2529" lon="-1.58781">
        <ele>63</ele>
        <time>2022-01-20T14:21:32Z</time>
      </trkpt>
      <trkpt lat="47.2529" lon="-1.58778">
        <ele>62</ele>
        <time>2022-01-20T14:21:34Z</time>
      </trkpt>
      <trkpt lat="47.2529" lon="-1.58777">
        <ele>62</ele>
        <time>2022-01-20T14:21:35Z</time>
      </trkpt>
      <trkpt lat="47.2529" lon="-1.58777">
        <ele>62</ele>
        <time>2022-01-20T14:21:35Z</time>
      </trkpt>
      <trkpt lat="47.2529" lon="-1.58775">
        <ele>62</ele>
        <time>2022-01-20T14:21:36Z</time>
      </trkpt>
      <trkpt lat="47.25291" lon="-1.58773">
        <ele>62</ele>
        <time>2022-01-20T14:21:37Z</time>
      </trkpt>
      <trkpt lat="47.25292" lon="-1.58768">
        <ele>62</ele>
        <time>2022-01-20T14:21:39Z</time>
      </trkpt>
      <trkpt lat="47.25293" lon="-1.58767">
        <ele>63</ele>
        <time>2022-01-20T14:21:40Z</time>
      </trkpt>
      <trkpt lat="47.25293" lon="-1.58767">
        <ele>63</ele>
        <time>2022-01-20T14:21:40Z</time>
      </trkpt>
      <trkpt lat="47.25293" lon="-1.58765">
        <ele>63</ele>
        <time>2022-01-20T14:21:41Z</time>
      </trkpt>
      <trkpt lat="47.25293" lon="-1.58762">
        <ele>64</ele>
        <time>2022-01-20T14:21:42Z</time>
      </trkpt>
      <trkpt lat="47.25293" lon="-1.58761">
        <ele>64</ele>
        <time>2022-01-20T14:21:43Z</time>
      </trkpt>
      <trkpt lat="47.25294" lon="-1.5876">
        <ele>64</ele>
        <time>2022-01-20T14:21:44Z</time>
      </trkpt>
      <trkpt lat="47.25295" lon="-1.58758">
        <ele>65</ele>
        <time>2022-01-20T14:21:45Z</time>
      </trkpt>
      <trkpt lat="47.25295" lon="-1.58758">
        <ele>65</ele>
        <time>2022-01-20T14:21:46Z</time>
      </trkpt>
      <trkpt lat="47.25295" lon="-1.58758">
        <ele>65</ele>
        <time>2022-01-20T14:21:47Z</time>
      </trkpt>
      <trkpt lat="47.25296" lon="-1.58753">
        <ele>65</ele>
        <time>2022-01-20T14:21:48Z</time>
      </trkpt>
      <trkpt lat="47.25296" lon="-1.5875">
        <ele>65</ele>
        <time>2022-01-20T14:21:49Z</time>
      </trkpt>
      <trkpt lat="47.25297" lon="-1.58749">
        <ele>66</ele>
        <time>2022-01-20T14:21:50Z</time>
      </trkpt>
      <trkpt lat="47.25298" lon="-1.58747">
        <ele>67</ele>
        <time>2022-01-20T14:21:51Z</time>
      </trkpt>
      <trkpt lat="47.25298" lon="-1.58747">
        <ele>67</ele>
        <time>2022-01-20T14:21:52Z</time>
      </trkpt>
      <trkpt lat="47.25298" lon="-1.58743">
        <ele>68</ele>
        <time>2022-01-20T14:21:53Z</time>
      </trkpt>
      <trkpt lat="47.25299" lon="-1.58741">
        <ele>68</ele>
        <time>2022-01-20T14:21:54Z</time>
      </trkpt>
      <trkpt lat="47.253" lon="-1.5874">
        <ele>69</ele>
        <time>2022-01-20T14:21:55Z</time>
      </trkpt>
      <trkpt lat="47.253" lon="-1.58738">
        <ele>69</ele>
        <time>2022-01-20T14:21:56Z</time>
      </trkpt>
      <trkpt lat="47.253" lon="-1.58738">
        <ele>69</ele>
        <time>2022-01-20T14:21:57Z</time>
      </trkpt>
      <trkpt lat="47.25302" lon="-1.58735">
        <ele>70</ele>
        <time>2022-01-20T14:21:58Z</time>
      </trkpt>
      <trkpt lat="47.25302" lon="-1.58733">
        <ele>71</ele>
        <time>2022-01-20T14:21:59Z</time>
      </trkpt>
      <trkpt lat="47.25303" lon="-1.58732">
        <ele>71</ele>
        <time>2022-01-20T14:22:00Z</time>
      </trkpt>
      <trkpt lat="47.25303" lon="-1.58731">
        <ele>71</ele>
        <time>2022-01-20T14:22:01Z</time>
      </trkpt>
      <trkpt lat="47.25304" lon="-1.58729">
        <ele>72</ele>
        <time>2022-01-20T14:22:02Z</time>
      </trkpt>
      <trkpt lat="47.25304" lon="-1.58728">
        <ele>72</ele>
        <time>2022-01-20T14:22:03Z</time>
      </trkpt>
      <trkpt lat="47.25305" lon="-1.58726">
        <ele>73</ele>
        <time>2022-01-20T14:22:04Z</time>
      </trkpt>
      <trkpt lat="47.25305" lon="-1.58724">
        <ele>74</ele>
        <time>2022-01-20T14:22:05Z</time>
      </trkpt>
      <trkpt lat="47.25305" lon="-1.58721">
        <ele>75</ele>
        <time>2022-01-20T14:22:06Z</time>
      </trkpt>
      <trkpt lat="47.25306" lon="-1.58719">
        <ele>76</ele>
        <time>2022-01-20T14:22:07Z</time>
      </trkpt>
      <trkpt lat="47.25306" lon="-1.58717">
        <ele>76</ele>
        <time>2022-01-20T14:22:08Z</time>
      </trkpt>
      <trkpt lat="47.25307" lon="-1.58716">
        <ele>77</ele>
        <time>2022-01-20T14:22:09Z</time>
      </trkpt>
      <trkpt lat="47.25308" lon="-1.58714">
        <ele>77</ele>
        <time>2022-01-20T14:22:10Z</time>
      </trkpt>
      <trkpt lat="47.25308" lon="-1.58713">
        <ele>76</ele>
        <time>2022-01-20T14:22:11Z</time>
      </trkpt>
      <trkpt lat="47.25308" lon="-1.58713">
        <ele>76</ele>
        <time>2022-01-20T14:22:12Z</time>
      </trkpt>
      <trkpt lat="47.25308" lon="-1.58713">
        <ele>76</ele>
        <time>2022-01-20T14:22:13Z</time>
      </trkpt>
      <trkpt lat="47.25309" lon="-1.58709">
        <ele>77</ele>
        <time>2022-01-20T14:22:14Z</time>
      </trkpt>
      <trkpt lat="47.25309" lon="-1.58706">
        <ele>77</ele>
        <time>2022-01-20T14:22:15Z</time>
      </trkpt>
      <trkpt lat="47.2531" lon="-1.58705">
        <ele>77</ele>
        <time>2022-01-20T14:22:16Z</time>
      </trkpt>
      <trkpt lat="47.2531" lon="-1.58704">
        <ele>77</ele>
        <time>2022-01-20T14:22:17Z</time>
      </trkpt>
      <trkpt lat="47.2531" lon="-1.58702">
        <ele>78</ele>
        <time>2022-01-20T14:22:18Z</time>
      </trkpt>
      <trkpt lat="47.25311" lon="-1.587">
        <ele>77</ele>
        <time>2022-01-20T14:22:19Z</time>
      </trkpt>
      <trkpt lat="47.25312" lon="-1.58698">
        <ele>77</ele>
        <time>2022-01-20T14:22:20Z</time>
      </trkpt>
      <trkpt lat="47.25312" lon="-1.58698">
        <ele>77</ele>
        <time>2022-01-20T14:22:21Z</time>
      </trkpt>
      <trkpt lat="47.25312" lon="-1.58698">
        <ele>77</ele>
        <time>2022-01-20T14:22:22Z</time>
      </trkpt>
      <trkpt lat="47.25312" lon="-1.58693">
        <ele>78</ele>
        <time>2022-01-20T14:22:23Z</time>
      </trkpt>
      <trkpt lat="47.25312" lon="-1.58692">
        <ele>78</ele>
        <time>2022-01-20T14:22:24Z</time>
      </trkpt>
      <trkpt lat="47.25312" lon="-1.58691">
        <ele>79</ele>
        <time>2022-01-20T14:22:25Z</time>
      </trkpt>
      <trkpt lat="47.25312" lon="-1.58689">
        <ele>79</ele>
        <time>2022-01-20T14:22:26Z</time>
      </trkpt>
      <trkpt lat="47.25313" lon="-1.58688">
        <ele>79</ele>
        <time>2022-01-20T14:22:27Z</time>
      </trkpt>
      <trkpt lat="47.25313" lon="-1.58687">
        <ele>80</ele>
        <time>2022-01-20T14:22:28Z</time>
      </trkpt>
      <trkpt lat="47.25313" lon="-1.58686">
        <ele>80</ele>
        <time>2022-01-20T14:22:29Z</time>
      </trkpt>
      <trkpt lat="47.25314" lon="-1.58685">
        <ele>80</ele>
        <time>2022-01-20T14:22:30Z</time>
      </trkpt>
      <trkpt lat="47.25314" lon="-1.58683">
        <ele>81</ele>
        <time>2022-01-20T14:22:32Z</time>
      </trkpt>
      <trkpt lat="47.25314" lon="-1.58683">
        <ele>81</ele>
        <time>2022-01-20T14:22:32Z</time>
      </trkpt>
      <trkpt lat="47.25315" lon="-1.58682">
        <ele>81</ele>
        <time>2022-01-20T14:22:33Z</time>
      </trkpt>
      <trkpt lat="47.25316" lon="-1.5868">
        <ele>80</ele>
        <time>2022-01-20T14:22:34Z</time>
      </trkpt>
      <trkpt lat="47.25316" lon="-1.58678">
        <ele>80</ele>
        <time>2022-01-20T14:22:35Z</time>
      </trkpt>
      <trkpt lat="47.25316" lon="-1.58677">
        <ele>81</ele>
        <time>2022-01-20T14:22:36Z</time>
      </trkpt>
      <trkpt lat="47.25316" lon="-1.58677">
        <ele>81</ele>
        <time>2022-01-20T14:22:37Z</time>
      </trkpt>
      <trkpt lat="47.25316" lon="-1.58677">
        <ele>81</ele>
        <time>2022-01-20T14:22:38Z</time>
      </trkpt>
      <trkpt lat="47.25316" lon="-1.58673">
        <ele>81</ele>
        <time>2022-01-20T14:22:39Z</time>
      </trkpt>
      <trkpt lat="47.25317" lon="-1.58671">
        <ele>82</ele>
        <time>2022-01-20T14:22:40Z</time>
      </trkpt>
      <trkpt lat="47.25317" lon="-1.58668">
        <ele>82</ele>
        <time>2022-01-20T14:22:41Z</time>
      </trkpt>
      <trkpt lat="47.25318" lon="-1.58666">
        <ele>82</ele>
        <time>2022-01-20T14:22:42Z</time>
      </trkpt>
      <trkpt lat="47.25319" lon="-1.58663">
        <ele>83</ele>
        <time>2022-01-20T14:22:43Z</time>
      </trkpt>
      <trkpt lat="47.25319" lon="-1.58662">
        <ele>82</ele>
        <time>2022-01-20T14:22:44Z</time>
      </trkpt>
      <trkpt lat="47.2532" lon="-1.5866">
        <ele>83</ele>
        <time>2022-01-20T14:22:45Z</time>
      </trkpt>
      <trkpt lat="47.2532" lon="-1.5866">
        <ele>83</ele>
        <time>2022-01-20T14:22:46Z</time>
      </trkpt>
      <trkpt lat="47.2532" lon="-1.5866">
        <ele>83</ele>
        <time>2022-01-20T14:22:47Z</time>
      </trkpt>
      <trkpt lat="47.2532" lon="-1.58656">
        <ele>83</ele>
        <time>2022-01-20T14:22:48Z</time>
      </trkpt>
      <trkpt lat="47.25321" lon="-1.58654">
        <ele>84</ele>
        <time>2022-01-20T14:22:49Z</time>
      </trkpt>
      <trkpt lat="47.25321" lon="-1.58653">
        <ele>84</ele>
        <time>2022-01-20T14:22:50Z</time>
      </trkpt>
      <trkpt lat="47.25321" lon="-1.58651">
        <ele>85</ele>
        <time>2022-01-20T14:22:51Z</time>
      </trkpt>
      <trkpt lat="47.2532" lon="-1.58649">
        <ele>86</ele>
        <time>2022-01-20T14:22:52Z</time>
      </trkpt>
      <trkpt lat="47.25321" lon="-1.58647">
        <ele>86</ele>
        <time>2022-01-20T14:22:53Z</time>
      </trkpt>
      <trkpt lat="47.25321" lon="-1.58645">
        <ele>86</ele>
        <time>2022-01-20T14:22:54Z</time>
      </trkpt>
      <trkpt lat="47.2532" lon="-1.58642">
        <ele>87</ele>
        <time>2022-01-20T14:22:55Z</time>
      </trkpt>
      <trkpt lat="47.2532" lon="-1.5864">
        <ele>87</ele>
        <time>2022-01-20T14:22:56Z</time>
      </trkpt>
      <trkpt lat="47.2532" lon="-1.58637">
        <ele>86</ele>
        <time>2022-01-20T14:22:57Z</time>
      </trkpt>
      <trkpt lat="47.25319" lon="-1.58635">
        <ele>86</ele>
        <time>2022-01-20T14:22:58Z</time>
      </trkpt>
      <trkpt lat="47.25319" lon="-1.58632">
        <ele>87</ele>
        <time>2022-01-20T14:22:59Z</time>
      </trkpt>
      <trkpt lat="47.25319" lon="-1.5863">
        <ele>87</ele>
        <time>2022-01-20T14:23:00Z</time>
      </trkpt>
      <trkpt lat="47.25319" lon="-1.58628">
        <ele>87</ele>
        <time>2022-01-20T14:23:01Z</time>
      </trkpt>
      <trkpt lat="47.25319" lon="-1.58625">
        <ele>88</ele>
        <time>2022-01-20T14:23:02Z</time>
      </trkpt>
      <trkpt lat="47.25319" lon="-1.58624">
        <ele>88</ele>
        <time>2022-01-20T14:23:03Z</time>
      </trkpt>
      <trkpt lat="47.25318" lon="-1.58622">
        <ele>88</ele>
        <time>2022-01-20T14:23:04Z</time>
      </trkpt>
      <trkpt lat="47.25318" lon="-1.58621">
        <ele>89</ele>
        <time>2022-01-20T14:23:05Z</time>
      </trkpt>
      <trkpt lat="47.25317" lon="-1.58619">
        <ele>89</ele>
        <time>2022-01-20T14:23:06Z</time>
      </trkpt>
      <trkpt lat="47.25317" lon="-1.58617">
        <ele>89</ele>
        <time>2022-01-20T14:23:07Z</time>
      </trkpt>
      <trkpt lat="47.25317" lon="-1.58615">
        <ele>89</ele>
        <time>2022-01-20T14:23:08Z</time>
      </trkpt>
      <trkpt lat="47.25316" lon="-1.58614">
        <ele>89</ele>
        <time>2022-01-20T14:23:09Z</time>
      </trkpt>
      <trkpt lat="47.25316" lon="-1.58612">
        <ele>89</ele>
        <time>2022-01-20T14:23:10Z</time>
      </trkpt>
      <trkpt lat="47.25316" lon="-1.58612">
        <ele>89</ele>
        <time>2022-01-20T14:23:11Z</time>
      </trkpt>
      <trkpt lat="47.25316" lon="-1.58612">
        <ele>89</ele>
        <time>2022-01-20T14:23:12Z</time>
      </trkpt>
      <trkpt lat="47.25316" lon="-1.58607">
        <ele>89</ele>
        <time>2022-01-20T14:23:13Z</time>
      </trkpt>
      <trkpt lat="47.25315" lon="-1.58605">
        <ele>89</ele>
        <time>2022-01-20T14:23:14Z</time>
      </trkpt>
      <trkpt lat="47.25315" lon="-1.58603">
        <ele>89</ele>
        <time>2022-01-20T14:23:15Z</time>
      </trkpt>
      <trkpt lat="47.25314" lon="-1.58601">
        <ele>88</ele>
        <time>2022-01-20T14:23:16Z</time>
      </trkpt>
      <trkpt lat="47.25314" lon="-1.58599">
        <ele>88</ele>
        <time>2022-01-20T14:23:17Z</time>
      </trkpt>
      <trkpt lat="47.25313" lon="-1.58597">
        <ele>88</ele>
        <time>2022-01-20T14:23:18Z</time>
      </trkpt>
      <trkpt lat="47.25312" lon="-1.58595">
        <ele>88</ele>
        <time>2022-01-20T14:23:19Z</time>
      </trkpt>
      <trkpt lat="47.25312" lon="-1.58593">
        <ele>88</ele>
        <time>2022-01-20T14:23:20Z</time>
      </trkpt>
      <trkpt lat="47.25311" lon="-1.58591">
        <ele>87</ele>
        <time>2022-01-20T14:23:21Z</time>
      </trkpt>
      <trkpt lat="47.2531" lon="-1.5859">
        <ele>87</ele>
        <time>2022-01-20T14:23:22Z</time>
      </trkpt>
      <trkpt lat="47.25309" lon="-1.58589">
        <ele>87</ele>
        <time>2022-01-20T14:23:23Z</time>
      </trkpt>
      <trkpt lat="47.25308" lon="-1.58588">
        <ele>87</ele>
        <time>2022-01-20T14:23:24Z</time>
      </trkpt>
      <trkpt lat="47.25308" lon="-1.58586">
        <ele>87</ele>
        <time>2022-01-20T14:23:25Z</time>
      </trkpt>
      <trkpt lat="47.25307" lon="-1.58585">
        <ele>87</ele>
        <time>2022-01-20T14:23:26Z</time>
      </trkpt>
      <trkpt lat="47.25307" lon="-1.58583">
        <ele>86</ele>
        <time>2022-01-20T14:23:27Z</time>
      </trkpt>
      <trkpt lat="47.25307" lon="-1.58582">
        <ele>86</ele>
        <time>2022-01-20T14:23:28Z</time>
      </trkpt>
      <trkpt lat="47.25307" lon="-1.58582">
        <ele>86</ele>
        <time>2022-01-20T14:23:29Z</time>
      </trkpt>
      <trkpt lat="47.25307" lon="-1.58582">
        <ele>86</ele>
        <time>2022-01-20T14:23:30Z</time>
      </trkpt>
      <trkpt lat="47.25306" lon="-1.5858">
        <ele>86</ele>
        <time>2022-01-20T14:23:31Z</time>
      </trkpt>
      <trkpt lat="47.25305" lon="-1.58579">
        <ele>86</ele>
        <time>2022-01-20T14:23:32Z</time>
      </trkpt>
      <trkpt lat="47.25305" lon="-1.58579">
        <ele>86</ele>
        <time>2022-01-20T14:23:33Z</time>
      </trkpt>
      <trkpt lat="47.25304" lon="-1.58578">
        <ele>86</ele>
        <time>2022-01-20T14:23:34Z</time>
      </trkpt>
      <trkpt lat="47.25304" lon="-1.58578">
        <ele>86</ele>
        <time>2022-01-20T14:23:35Z</time>
      </trkpt>
      <trkpt lat="47.25304" lon="-1.58578">
        <ele>86</ele>
        <time>2022-01-20T14:23:36Z</time>
      </trkpt>
      <trkpt lat="47.25303" lon="-1.58577">
        <ele>88</ele>
        <time>2022-01-20T14:23:37Z</time>
      </trkpt>
      <trkpt lat="47.25302" lon="-1.58578">
        <ele>89</ele>
        <time>2022-01-20T14:23:38Z</time>
      </trkpt>
      <trkpt lat="47.25301" lon="-1.58578">
        <ele>89</ele>
        <time>2022-01-20T14:23:39Z</time>
      </trkpt>
      <trkpt lat="47.253" lon="-1.58578">
        <ele>90</ele>
        <time>2022-01-20T14:23:40Z</time>
      </trkpt>
      <trkpt lat="47.253" lon="-1.58578">
        <ele>90</ele>
        <time>2022-01-20T14:23:41Z</time>
      </trkpt>
      <trkpt lat="47.253" lon="-1.58578">
        <ele>90</ele>
        <time>2022-01-20T14:23:42Z</time>
      </trkpt>
      <trkpt lat="47.25299" lon="-1.58576">
        <ele>91</ele>
        <time>2022-01-20T14:23:43Z</time>
      </trkpt>
      <trkpt lat="47.25299" lon="-1.58575">
        <ele>92</ele>
        <time>2022-01-20T14:23:44Z</time>
      </trkpt>
      <trkpt lat="47.25298" lon="-1.58574">
        <ele>92</ele>
        <time>2022-01-20T14:23:45Z</time>
      </trkpt>
      <trkpt lat="47.25297" lon="-1.58573">
        <ele>92</ele>
        <time>2022-01-20T14:23:46Z</time>
      </trkpt>
      <trkpt lat="47.25297" lon="-1.58573">
        <ele>92</ele>
        <time>2022-01-20T14:23:47Z</time>
      </trkpt>
      <trkpt lat="47.25297" lon="-1.58573">
        <ele>92</ele>
        <time>2022-01-20T14:23:48Z</time>
      </trkpt>
      <trkpt lat="47.25295" lon="-1.5857">
        <ele>92</ele>
        <time>2022-01-20T14:23:49Z</time>
      </trkpt>
      <trkpt lat="47.25294" lon="-1.58569">
        <ele>91</ele>
        <time>2022-01-20T14:23:50Z</time>
      </trkpt>
      <trkpt lat="47.25293" lon="-1.58569">
        <ele>91</ele>
        <time>2022-01-20T14:23:51Z</time>
      </trkpt>
      <trkpt lat="47.25291" lon="-1.58569">
        <ele>91</ele>
        <time>2022-01-20T14:23:52Z</time>
      </trkpt>
      <trkpt lat="47.2529" lon="-1.58568">
        <ele>91</ele>
        <time>2022-01-20T14:23:53Z</time>
      </trkpt>
      <trkpt lat="47.25289" lon="-1.58567">
        <ele>91</ele>
        <time>2022-01-20T14:23:54Z</time>
      </trkpt>
      <trkpt lat="47.25288" lon="-1.58566">
        <ele>90</ele>
        <time>2022-01-20T14:23:55Z</time>
      </trkpt>
      <trkpt lat="47.25288" lon="-1.58566">
        <ele>90</ele>
        <time>2022-01-20T14:23:56Z</time>
      </trkpt>
      <trkpt lat="47.25288" lon="-1.58566">
        <ele>90</ele>
        <time>2022-01-20T14:23:57Z</time>
      </trkpt>
      <trkpt lat="47.25285" lon="-1.58564">
        <ele>89</ele>
        <time>2022-01-20T14:23:58Z</time>
      </trkpt>
      <trkpt lat="47.25284" lon="-1.58562">
        <ele>89</ele>
        <time>2022-01-20T14:23:59Z</time>
      </trkpt>
      <trkpt lat="47.25283" lon="-1.5856">
        <ele>89</ele>
        <time>2022-01-20T14:24:00Z</time>
      </trkpt>
      <trkpt lat="47.25282" lon="-1.58559">
        <ele>88</ele>
        <time>2022-01-20T14:24:01Z</time>
      </trkpt>
      <trkpt lat="47.25282" lon="-1.58559">
        <ele>88</ele>
        <time>2022-01-20T14:24:02Z</time>
      </trkpt>
      <trkpt lat="47.25282" lon="-1.58559">
        <ele>88</ele>
        <time>2022-01-20T14:24:03Z</time>
      </trkpt>
      <trkpt lat="47.2528" lon="-1.58558">
        <ele>86</ele>
        <time>2022-01-20T14:24:04Z</time>
      </trkpt>
      <trkpt lat="47.25279" lon="-1.58557">
        <ele>85</ele>
        <time>2022-01-20T14:24:05Z</time>
      </trkpt>
      <trkpt lat="47.25278" lon="-1.58557">
        <ele>85</ele>
        <time>2022-01-20T14:24:06Z</time>
      </trkpt>
      <trkpt lat="47.25276" lon="-1.58556">
        <ele>85</ele>
        <time>2022-01-20T14:24:07Z</time>
      </trkpt>
      <trkpt lat="47.25275" lon="-1.58555">
        <ele>84</ele>
        <time>2022-01-20T14:24:08Z</time>
      </trkpt>
      <trkpt lat="47.25275" lon="-1.58555">
        <ele>84</ele>
        <time>2022-01-20T14:24:09Z</time>
      </trkpt>
      <trkpt lat="47.25273" lon="-1.58555">
        <ele>84</ele>
        <time>2022-01-20T14:24:10Z</time>
      </trkpt>
      <trkpt lat="47.25272" lon="-1.58554">
        <ele>83</ele>
        <time>2022-01-20T14:24:11Z</time>
      </trkpt>
      <trkpt lat="47.25272" lon="-1.58554">
        <ele>83</ele>
        <time>2022-01-20T14:24:12Z</time>
      </trkpt>
      <trkpt lat="47.25272" lon="-1.58554">
        <ele>83</ele>
        <time>2022-01-20T14:24:13Z</time>
      </trkpt>
      <trkpt lat="47.2527" lon="-1.58551">
        <ele>81</ele>
        <time>2022-01-20T14:24:14Z</time>
      </trkpt>
      <trkpt lat="47.25269" lon="-1.5855">
        <ele>81</ele>
        <time>2022-01-20T14:24:15Z</time>
      </trkpt>
      <trkpt lat="47.25267" lon="-1.5855">
        <ele>80</ele>
        <time>2022-01-20T14:24:16Z</time>
      </trkpt>
      <trkpt lat="47.25266" lon="-1.58549">
        <ele>80</ele>
        <time>2022-01-20T14:24:17Z</time>
      </trkpt>
      <trkpt lat="47.25266" lon="-1.58549">
        <ele>80</ele>
        <time>2022-01-20T14:24:18Z</time>
      </trkpt>
      <trkpt lat="47.25266" lon="-1.58549">
        <ele>80</ele>
        <time>2022-01-20T14:24:19Z</time>
      </trkpt>
      <trkpt lat="47.25263" lon="-1.58548">
        <ele>79</ele>
        <time>2022-01-20T14:24:20Z</time>
      </trkpt>
      <trkpt lat="47.25261" lon="-1.58548">
        <ele>78</ele>
        <time>2022-01-20T14:24:21Z</time>
      </trkpt>
      <trkpt lat="47.2526" lon="-1.58548">
        <ele>78</ele>
        <time>2022-01-20T14:24:22Z</time>
      </trkpt>
      <trkpt lat="47.25258" lon="-1.58548">
        <ele>78</ele>
        <time>2022-01-20T14:24:23Z</time>
      </trkpt>
      <trkpt lat="47.25258" lon="-1.58548">
        <ele>78</ele>
        <time>2022-01-20T14:24:24Z</time>
      </trkpt>
      <trkpt lat="47.25258" lon="-1.58548">
        <ele>78</ele>
        <time>2022-01-20T14:24:25Z</time>
      </trkpt>
      <trkpt lat="47.25255" lon="-1.58548">
        <ele>77</ele>
        <time>2022-01-20T14:24:26Z</time>
      </trkpt>
      <trkpt lat="47.25254" lon="-1.58548">
        <ele>77</ele>
        <time>2022-01-20T14:24:27Z</time>
      </trkpt>
      <trkpt lat="47.25252" lon="-1.58548">
        <ele>77</ele>
        <time>2022-01-20T14:24:29Z</time>
      </trkpt>
      <trkpt lat="47.25252" lon="-1.58548">
        <ele>77</ele>
        <time>2022-01-20T14:24:29Z</time>
      </trkpt>
      <trkpt lat="47.25252" lon="-1.58548">
        <ele>77</ele>
        <time>2022-01-20T14:24:30Z</time>
      </trkpt>
      <trkpt lat="47.25252" lon="-1.58548">
        <ele>77</ele>
        <time>2022-01-20T14:24:31Z</time>
      </trkpt>
      <trkpt lat="47.2525" lon="-1.58548">
        <ele>76</ele>
        <time>2022-01-20T14:24:32Z</time>
      </trkpt>
      <trkpt lat="47.25248" lon="-1.58548">
        <ele>75</ele>
        <time>2022-01-20T14:24:33Z</time>
      </trkpt>
      <trkpt lat="47.25247" lon="-1.58548">
        <ele>75</ele>
        <time>2022-01-20T14:24:34Z</time>
      </trkpt>
      <trkpt lat="47.25246" lon="-1.58548">
        <ele>74</ele>
        <time>2022-01-20T14:24:35Z</time>
      </trkpt>
      <trkpt lat="47.25246" lon="-1.58548">
        <ele>74</ele>
        <time>2022-01-20T14:24:36Z</time>
      </trkpt>
      <trkpt lat="47.25246" lon="-1.58548">
        <ele>74</ele>
        <time>2022-01-20T14:24:37Z</time>
      </trkpt>
      <trkpt lat="47.25242" lon="-1.58549">
        <ele>72</ele>
        <time>2022-01-20T14:24:38Z</time>
      </trkpt>
      <trkpt lat="47.25241" lon="-1.58549">
        <ele>72</ele>
        <time>2022-01-20T14:24:39Z</time>
      </trkpt>
      <trkpt lat="47.2524" lon="-1.58549">
        <ele>72</ele>
        <time>2022-01-20T14:24:40Z</time>
      </trkpt>
      <trkpt lat="47.25238" lon="-1.58549">
        <ele>71</ele>
        <time>2022-01-20T14:24:41Z</time>
      </trkpt>
      <trkpt lat="47.25238" lon="-1.58549">
        <ele>71</ele>
        <time>2022-01-20T14:24:42Z</time>
      </trkpt>
      <trkpt lat="47.25238" lon="-1.58549">
        <ele>71</ele>
        <time>2022-01-20T14:24:43Z</time>
      </trkpt>
      <trkpt lat="47.25234" lon="-1.58549">
        <ele>71</ele>
        <time>2022-01-20T14:24:44Z</time>
      </trkpt>
      <trkpt lat="47.25233" lon="-1.58549">
        <ele>70</ele>
        <time>2022-01-20T14:24:45Z</time>
      </trkpt>
      <trkpt lat="47.25231" lon="-1.5855">
        <ele>70</ele>
        <time>2022-01-20T14:24:46Z</time>
      </trkpt>
      <trkpt lat="47.2523" lon="-1.5855">
        <ele>70</ele>
        <time>2022-01-20T14:24:47Z</time>
      </trkpt>
      <trkpt lat="47.2523" lon="-1.5855">
        <ele>70</ele>
        <time>2022-01-20T14:24:48Z</time>
      </trkpt>
      <trkpt lat="47.2523" lon="-1.5855">
        <ele>70</ele>
        <time>2022-01-20T14:24:49Z</time>
      </trkpt>
      <trkpt lat="47.25226" lon="-1.58551">
        <ele>70</ele>
        <time>2022-01-20T14:24:50Z</time>
      </trkpt>
      <trkpt lat="47.25224" lon="-1.58551">
        <ele>71</ele>
        <time>2022-01-20T14:24:51Z</time>
      </trkpt>
      <trkpt lat="47.25223" lon="-1.58551">
        <ele>70</ele>
        <time>2022-01-20T14:24:52Z</time>
      </trkpt>
      <trkpt lat="47.25221" lon="-1.58551">
        <ele>70</ele>
        <time>2022-01-20T14:24:53Z</time>
      </trkpt>
      <trkpt lat="47.25221" lon="-1.58551">
        <ele>70</ele>
        <time>2022-01-20T14:24:54Z</time>
      </trkpt>
      <trkpt lat="47.25221" lon="-1.58551">
        <ele>70</ele>
        <time>2022-01-20T14:24:55Z</time>
      </trkpt>
      <trkpt lat="47.25217" lon="-1.5855">
        <ele>71</ele>
        <time>2022-01-20T14:24:56Z</time>
      </trkpt>
      <trkpt lat="47.25215" lon="-1.5855">
        <ele>72</ele>
        <time>2022-01-20T14:24:57Z</time>
      </trkpt>
      <trkpt lat="47.25213" lon="-1.5855">
        <ele>72</ele>
        <time>2022-01-20T14:24:58Z</time>
      </trkpt>
      <trkpt lat="47.25211" lon="-1.5855">
        <ele>73</ele>
        <time>2022-01-20T14:24:59Z</time>
      </trkpt>
      <trkpt lat="47.25209" lon="-1.5855">
        <ele>73</ele>
        <time>2022-01-20T14:25:00Z</time>
      </trkpt>
      <trkpt lat="47.25207" lon="-1.58549">
        <ele>74</ele>
        <time>2022-01-20T14:25:01Z</time>
      </trkpt>
      <trkpt lat="47.25206" lon="-1.58548">
        <ele>74</ele>
        <time>2022-01-20T14:25:02Z</time>
      </trkpt>
      <trkpt lat="47.25204" lon="-1.58547">
        <ele>74</ele>
        <time>2022-01-20T14:25:03Z</time>
      </trkpt>
      <trkpt lat="47.25202" lon="-1.58546">
        <ele>74</ele>
        <time>2022-01-20T14:25:04Z</time>
      </trkpt>
      <trkpt lat="47.252" lon="-1.58546">
        <ele>75</ele>
        <time>2022-01-20T14:25:05Z</time>
      </trkpt>
      <trkpt lat="47.25199" lon="-1.58546">
        <ele>75</ele>
        <time>2022-01-20T14:25:06Z</time>
      </trkpt>
      <trkpt lat="47.25197" lon="-1.58545">
        <ele>76</ele>
        <time>2022-01-20T14:25:07Z</time>
      </trkpt>
      <trkpt lat="47.25195" lon="-1.58545">
        <ele>77</ele>
        <time>2022-01-20T14:25:08Z</time>
      </trkpt>
      <trkpt lat="47.25193" lon="-1.58544">
        <ele>77</ele>
        <time>2022-01-20T14:25:09Z</time>
      </trkpt>
      <trkpt lat="47.25192" lon="-1.58544">
        <ele>76</ele>
        <time>2022-01-20T14:25:10Z</time>
      </trkpt>
      <trkpt lat="47.2519" lon="-1.58544">
        <ele>76</ele>
        <time>2022-01-20T14:25:11Z</time>
      </trkpt>
      <trkpt lat="47.25188" lon="-1.58543">
        <ele>76</ele>
        <time>2022-01-20T14:25:12Z</time>
      </trkpt>
      <trkpt lat="47.25188" lon="-1.58543">
        <ele>76</ele>
        <time>2022-01-20T14:25:13Z</time>
      </trkpt>
      <trkpt lat="47.25188" lon="-1.58543">
        <ele>76</ele>
        <time>2022-01-20T14:25:14Z</time>
      </trkpt>
      <trkpt lat="47.25184" lon="-1.58542">
        <ele>78</ele>
        <time>2022-01-20T14:25:15Z</time>
      </trkpt>
      <trkpt lat="47.25183" lon="-1.58541">
        <ele>78</ele>
        <time>2022-01-20T14:25:16Z</time>
      </trkpt>
      <trkpt lat="47.25181" lon="-1.58541">
        <ele>79</ele>
        <time>2022-01-20T14:25:17Z</time>
      </trkpt>
      <trkpt lat="47.25179" lon="-1.58541">
        <ele>79</ele>
        <time>2022-01-20T14:25:18Z</time>
      </trkpt>
      <trkpt lat="47.25177" lon="-1.58541">
        <ele>79</ele>
        <time>2022-01-20T14:25:19Z</time>
      </trkpt>
      <trkpt lat="47.25175" lon="-1.58541">
        <ele>79</ele>
        <time>2022-01-20T14:25:20Z</time>
      </trkpt>
      <trkpt lat="47.25174" lon="-1.58539">
        <ele>79</ele>
        <time>2022-01-20T14:25:21Z</time>
      </trkpt>
      <trkpt lat="47.25172" lon="-1.58539">
        <ele>79</ele>
        <time>2022-01-20T14:25:22Z</time>
      </trkpt>
      <trkpt lat="47.25171" lon="-1.58538">
        <ele>79</ele>
        <time>2022-01-20T14:25:23Z</time>
      </trkpt>
      <trkpt lat="47.2517" lon="-1.58537">
        <ele>79</ele>
        <time>2022-01-20T14:25:24Z</time>
      </trkpt>
      <trkpt lat="47.25168" lon="-1.58535">
        <ele>79</ele>
        <time>2022-01-20T14:25:25Z</time>
      </trkpt>
      <trkpt lat="47.25167" lon="-1.58534">
        <ele>79</ele>
        <time>2022-01-20T14:25:26Z</time>
      </trkpt>
      <trkpt lat="47.25165" lon="-1.58533">
        <ele>80</ele>
        <time>2022-01-20T14:25:27Z</time>
      </trkpt>
      <trkpt lat="47.25164" lon="-1.58532">
        <ele>80</ele>
        <time>2022-01-20T14:25:28Z</time>
      </trkpt>
      <trkpt lat="47.25163" lon="-1.5853">
        <ele>80</ele>
        <time>2022-01-20T14:25:29Z</time>
      </trkpt>
      <trkpt lat="47.25161" lon="-1.5853">
        <ele>81</ele>
        <time>2022-01-20T14:25:30Z</time>
      </trkpt>
      <trkpt lat="47.2516" lon="-1.58529">
        <ele>82</ele>
        <time>2022-01-20T14:25:31Z</time>
      </trkpt>
      <trkpt lat="47.25158" lon="-1.58529">
        <ele>81</ele>
        <time>2022-01-20T14:25:32Z</time>
      </trkpt>
      <trkpt lat="47.25156" lon="-1.58528">
        <ele>80</ele>
        <time>2022-01-20T14:25:33Z</time>
      </trkpt>
      <trkpt lat="47.25155" lon="-1.58528">
        <ele>80</ele>
        <time>2022-01-20T14:25:34Z</time>
      </trkpt>
      <trkpt lat="47.25153" lon="-1.58528">
        <ele>80</ele>
        <time>2022-01-20T14:25:35Z</time>
      </trkpt>
      <trkpt lat="47.25151" lon="-1.58526">
        <ele>79</ele>
        <time>2022-01-20T14:25:36Z</time>
      </trkpt>
      <trkpt lat="47.2515" lon="-1.58526">
        <ele>80</ele>
        <time>2022-01-20T14:25:37Z</time>
      </trkpt>
      <trkpt lat="47.25148" lon="-1.58525">
        <ele>80</ele>
        <time>2022-01-20T14:25:38Z</time>
      </trkpt>
      <trkpt lat="47.25147" lon="-1.58524">
        <ele>80</ele>
        <time>2022-01-20T14:25:39Z</time>
      </trkpt>
      <trkpt lat="47.25145" lon="-1.58524">
        <ele>81</ele>
        <time>2022-01-20T14:25:40Z</time>
      </trkpt>
      <trkpt lat="47.25145" lon="-1.58524">
        <ele>81</ele>
        <time>2022-01-20T14:25:41Z</time>
      </trkpt>
      <trkpt lat="47.25145" lon="-1.58524">
        <ele>81</ele>
        <time>2022-01-20T14:25:42Z</time>
      </trkpt>
      <trkpt lat="47.25141" lon="-1.58521">
        <ele>80</ele>
        <time>2022-01-20T14:25:43Z</time>
      </trkpt>
      <trkpt lat="47.2514" lon="-1.5852">
        <ele>81</ele>
        <time>2022-01-20T14:25:44Z</time>
      </trkpt>
      <trkpt lat="47.25138" lon="-1.58519">
        <ele>82</ele>
        <time>2022-01-20T14:25:45Z</time>
      </trkpt>
      <trkpt lat="47.25137" lon="-1.58517">
        <ele>82</ele>
        <time>2022-01-20T14:25:46Z</time>
      </trkpt>
      <trkpt lat="47.25135" lon="-1.58516">
        <ele>82</ele>
        <time>2022-01-20T14:25:47Z</time>
      </trkpt>
      <trkpt lat="47.25134" lon="-1.58515">
        <ele>83</ele>
        <time>2022-01-20T14:25:48Z</time>
      </trkpt>
      <trkpt lat="47.25132" lon="-1.58514">
        <ele>83</ele>
        <time>2022-01-20T14:25:49Z</time>
      </trkpt>
      <trkpt lat="47.25131" lon="-1.58513">
        <ele>84</ele>
        <time>2022-01-20T14:25:50Z</time>
      </trkpt>
      <trkpt lat="47.2513" lon="-1.58512">
        <ele>85</ele>
        <time>2022-01-20T14:25:51Z</time>
      </trkpt>
      <trkpt lat="47.25129" lon="-1.5851">
        <ele>85</ele>
        <time>2022-01-20T14:25:52Z</time>
      </trkpt>
      <trkpt lat="47.25127" lon="-1.58508">
        <ele>85</ele>
        <time>2022-01-20T14:25:53Z</time>
      </trkpt>
      <trkpt lat="47.25126" lon="-1.58506">
        <ele>85</ele>
        <time>2022-01-20T14:25:54Z</time>
      </trkpt>
      <trkpt lat="47.25125" lon="-1.58505">
        <ele>86</ele>
        <time>2022-01-20T14:25:55Z</time>
      </trkpt>
      <trkpt lat="47.25123" lon="-1.58503">
        <ele>86</ele>
        <time>2022-01-20T14:25:56Z</time>
      </trkpt>
      <trkpt lat="47.25122" lon="-1.58501">
        <ele>85</ele>
        <time>2022-01-20T14:25:57Z</time>
      </trkpt>
      <trkpt lat="47.25121" lon="-1.585">
        <ele>85</ele>
        <time>2022-01-20T14:25:58Z</time>
      </trkpt>
      <trkpt lat="47.2512" lon="-1.58498">
        <ele>86</ele>
        <time>2022-01-20T14:25:59Z</time>
      </trkpt>
      <trkpt lat="47.25119" lon="-1.58496">
        <ele>85</ele>
        <time>2022-01-20T14:26:00Z</time>
      </trkpt>
      <trkpt lat="47.25118" lon="-1.58494">
        <ele>85</ele>
        <time>2022-01-20T14:26:01Z</time>
      </trkpt>
      <trkpt lat="47.25118" lon="-1.58494">
        <ele>85</ele>
        <time>2022-01-20T14:26:02Z</time>
      </trkpt>
      <trkpt lat="47.25118" lon="-1.58494">
        <ele>85</ele>
        <time>2022-01-20T14:26:03Z</time>
      </trkpt>
      <trkpt lat="47.25116" lon="-1.5849">
        <ele>84</ele>
        <time>2022-01-20T14:26:04Z</time>
      </trkpt>
      <trkpt lat="47.25115" lon="-1.58489">
        <ele>84</ele>
        <time>2022-01-20T14:26:05Z</time>
      </trkpt>
      <trkpt lat="47.25114" lon="-1.58487">
        <ele>84</ele>
        <time>2022-01-20T14:26:06Z</time>
      </trkpt>
      <trkpt lat="47.25113" lon="-1.58486">
        <ele>83</ele>
        <time>2022-01-20T14:26:07Z</time>
      </trkpt>
      <trkpt lat="47.25112" lon="-1.58484">
        <ele>83</ele>
        <time>2022-01-20T14:26:08Z</time>
      </trkpt>
      <trkpt lat="47.25111" lon="-1.58482">
        <ele>82</ele>
        <time>2022-01-20T14:26:09Z</time>
      </trkpt>
      <trkpt lat="47.25111" lon="-1.58482">
        <ele>82</ele>
        <time>2022-01-20T14:26:10Z</time>
      </trkpt>
      <trkpt lat="47.25111" lon="-1.58482">
        <ele>82</ele>
        <time>2022-01-20T14:26:11Z</time>
      </trkpt>
      <trkpt lat="47.25109" lon="-1.58479">
        <ele>80</ele>
        <time>2022-01-20T14:26:12Z</time>
      </trkpt>
      <trkpt lat="47.25108" lon="-1.58477">
        <ele>80</ele>
        <time>2022-01-20T14:26:13Z</time>
      </trkpt>
      <trkpt lat="47.25108" lon="-1.58475">
        <ele>79</ele>
        <time>2022-01-20T14:26:14Z</time>
      </trkpt>
      <trkpt lat="47.25106" lon="-1.58473">
        <ele>80</ele>
        <time>2022-01-20T14:26:15Z</time>
      </trkpt>
      <trkpt lat="47.25106" lon="-1.58473">
        <ele>80</ele>
        <time>2022-01-20T14:26:16Z</time>
      </trkpt>
      <trkpt lat="47.25106" lon="-1.58473">
        <ele>80</ele>
        <time>2022-01-20T14:26:17Z</time>
      </trkpt>
      <trkpt lat="47.25105" lon="-1.58468">
        <ele>80</ele>
        <time>2022-01-20T14:26:18Z</time>
      </trkpt>
      <trkpt lat="47.25103" lon="-1.58466">
        <ele>80</ele>
        <time>2022-01-20T14:26:19Z</time>
      </trkpt>
      <trkpt lat="47.25103" lon="-1.58463">
        <ele>80</ele>
        <time>2022-01-20T14:26:20Z</time>
      </trkpt>
      <trkpt lat="47.25102" lon="-1.58461">
        <ele>79</ele>
        <time>2022-01-20T14:26:21Z</time>
      </trkpt>
      <trkpt lat="47.25101" lon="-1.58459">
        <ele>79</ele>
        <time>2022-01-20T14:26:22Z</time>
      </trkpt>
      <trkpt lat="47.251" lon="-1.58457">
        <ele>79</ele>
        <time>2022-01-20T14:26:23Z</time>
      </trkpt>
      <trkpt lat="47.251" lon="-1.58457">
        <ele>79</ele>
        <time>2022-01-20T14:26:24Z</time>
      </trkpt>
      <trkpt lat="47.251" lon="-1.58457">
        <ele>79</ele>
        <time>2022-01-20T14:26:25Z</time>
      </trkpt>
      <trkpt lat="47.25098" lon="-1.58453">
        <ele>78</ele>
        <time>2022-01-20T14:26:26Z</time>
      </trkpt>
      <trkpt lat="47.25098" lon="-1.58451">
        <ele>78</ele>
        <time>2022-01-20T14:26:27Z</time>
      </trkpt>
      <trkpt lat="47.25097" lon="-1.58449">
        <ele>78</ele>
        <time>2022-01-20T14:26:28Z</time>
      </trkpt>
      <trkpt lat="47.25096" lon="-1.58447">
        <ele>77</ele>
        <time>2022-01-20T14:26:29Z</time>
      </trkpt>
      <trkpt lat="47.25096" lon="-1.58447">
        <ele>77</ele>
        <time>2022-01-20T14:26:30Z</time>
      </trkpt>
      <trkpt lat="47.25095" lon="-1.58443">
        <ele>77</ele>
        <time>2022-01-20T14:26:31Z</time>
      </trkpt>
      <trkpt lat="47.25094" lon="-1.5844">
        <ele>77</ele>
        <time>2022-01-20T14:26:32Z</time>
      </trkpt>
      <trkpt lat="47.25094" lon="-1.58438">
        <ele>77</ele>
        <time>2022-01-20T14:26:33Z</time>
      </trkpt>
      <trkpt lat="47.25094" lon="-1.58435">
        <ele>77</ele>
        <time>2022-01-20T14:26:34Z</time>
      </trkpt>
      <trkpt lat="47.25093" lon="-1.58433">
        <ele>77</ele>
        <time>2022-01-20T14:26:35Z</time>
      </trkpt>
      <trkpt lat="47.25093" lon="-1.58433">
        <ele>77</ele>
        <time>2022-01-20T14:26:36Z</time>
      </trkpt>
      <trkpt lat="47.25093" lon="-1.58433">
        <ele>77</ele>
        <time>2022-01-20T14:26:37Z</time>
      </trkpt>
      <trkpt lat="47.25092" lon="-1.58427">
        <ele>78</ele>
        <time>2022-01-20T14:26:38Z</time>
      </trkpt>
      <trkpt lat="47.25092" lon="-1.58425">
        <ele>78</ele>
        <time>2022-01-20T14:26:39Z</time>
      </trkpt>
      <trkpt lat="47.25091" lon="-1.58423">
        <ele>78</ele>
        <time>2022-01-20T14:26:40Z</time>
      </trkpt>
      <trkpt lat="47.25091" lon="-1.58421">
        <ele>78</ele>
        <time>2022-01-20T14:26:41Z</time>
      </trkpt>
      <trkpt lat="47.25091" lon="-1.58421">
        <ele>78</ele>
        <time>2022-01-20T14:26:42Z</time>
      </trkpt>
      <trkpt lat="47.25091" lon="-1.58421">
        <ele>78</ele>
        <time>2022-01-20T14:26:43Z</time>
      </trkpt>
      <trkpt lat="47.25091" lon="-1.58414">
        <ele>78</ele>
        <time>2022-01-20T14:26:44Z</time>
      </trkpt>
      <trkpt lat="47.2509" lon="-1.58412">
        <ele>78</ele>
        <time>2022-01-20T14:26:45Z</time>
      </trkpt>
      <trkpt lat="47.2509" lon="-1.5841">
        <ele>77</ele>
        <time>2022-01-20T14:26:46Z</time>
      </trkpt>
      <trkpt lat="47.2509" lon="-1.58408">
        <ele>78</ele>
        <time>2022-01-20T14:26:47Z</time>
      </trkpt>
      <trkpt lat="47.2509" lon="-1.58408">
        <ele>78</ele>
        <time>2022-01-20T14:26:48Z</time>
      </trkpt>
      <trkpt lat="47.2509" lon="-1.58408">
        <ele>78</ele>
        <time>2022-01-20T14:26:49Z</time>
      </trkpt>
      <trkpt lat="47.2509" lon="-1.58403">
        <ele>76</ele>
        <time>2022-01-20T14:26:50Z</time>
      </trkpt>
      <trkpt lat="47.25089" lon="-1.584">
        <ele>76</ele>
        <time>2022-01-20T14:26:51Z</time>
      </trkpt>
      <trkpt lat="47.25089" lon="-1.58397">
        <ele>76</ele>
        <time>2022-01-20T14:26:52Z</time>
      </trkpt>
      <trkpt lat="47.25089" lon="-1.58395">
        <ele>75</ele>
        <time>2022-01-20T14:26:53Z</time>
      </trkpt>
      <trkpt lat="47.25089" lon="-1.58392">
        <ele>74</ele>
        <time>2022-01-20T14:26:54Z</time>
      </trkpt>
      <trkpt lat="47.25088" lon="-1.5839">
        <ele>74</ele>
        <time>2022-01-20T14:26:55Z</time>
      </trkpt>
      <trkpt lat="47.25088" lon="-1.58388">
        <ele>73</ele>
        <time>2022-01-20T14:26:56Z</time>
      </trkpt>
      <trkpt lat="47.25087" lon="-1.58386">
        <ele>73</ele>
        <time>2022-01-20T14:26:57Z</time>
      </trkpt>
      <trkpt lat="47.25087" lon="-1.58385">
        <ele>73</ele>
        <time>2022-01-20T14:26:58Z</time>
      </trkpt>
      <trkpt lat="47.25087" lon="-1.58383">
        <ele>73</ele>
        <time>2022-01-20T14:26:59Z</time>
      </trkpt>
      <trkpt lat="47.25087" lon="-1.58383">
        <ele>73</ele>
        <time>2022-01-20T14:27:00Z</time>
      </trkpt>
      <trkpt lat="47.25087" lon="-1.58383">
        <ele>73</ele>
        <time>2022-01-20T14:27:01Z</time>
      </trkpt>
      <trkpt lat="47.25087" lon="-1.58379">
        <ele>73</ele>
        <time>2022-01-20T14:27:02Z</time>
      </trkpt>
      <trkpt lat="47.25087" lon="-1.58377">
        <ele>74</ele>
        <time>2022-01-20T14:27:03Z</time>
      </trkpt>
      <trkpt lat="47.25087" lon="-1.58375">
        <ele>74</ele>
        <time>2022-01-20T14:27:04Z</time>
      </trkpt>
      <trkpt lat="47.25087" lon="-1.58374">
        <ele>74</ele>
        <time>2022-01-20T14:27:05Z</time>
      </trkpt>
      <trkpt lat="47.25087" lon="-1.58374">
        <ele>74</ele>
        <time>2022-01-20T14:27:06Z</time>
      </trkpt>
      <trkpt lat="47.25087" lon="-1.58374">
        <ele>74</ele>
        <time>2022-01-20T14:27:07Z</time>
      </trkpt>
      <trkpt lat="47.25087" lon="-1.58369">
        <ele>74</ele>
        <time>2022-01-20T14:27:08Z</time>
      </trkpt>
      <trkpt lat="47.25088" lon="-1.58367">
        <ele>74</ele>
        <time>2022-01-20T14:27:09Z</time>
      </trkpt>
      <trkpt lat="47.25088" lon="-1.58365">
        <ele>73</ele>
        <time>2022-01-20T14:27:10Z</time>
      </trkpt>
      <trkpt lat="47.25088" lon="-1.58362">
        <ele>73</ele>
        <time>2022-01-20T14:27:11Z</time>
      </trkpt>
      <trkpt lat="47.25088" lon="-1.58362">
        <ele>73</ele>
        <time>2022-01-20T14:27:12Z</time>
      </trkpt>
      <trkpt lat="47.25088" lon="-1.58362">
        <ele>73</ele>
        <time>2022-01-20T14:27:13Z</time>
      </trkpt>
      <trkpt lat="47.25089" lon="-1.58358">
        <ele>70</ele>
        <time>2022-01-20T14:27:14Z</time>
      </trkpt>
      <trkpt lat="47.2509" lon="-1.58356">
        <ele>69</ele>
        <time>2022-01-20T14:27:15Z</time>
      </trkpt>
      <trkpt lat="47.2509" lon="-1.58354">
        <ele>69</ele>
        <time>2022-01-20T14:27:16Z</time>
      </trkpt>
      <trkpt lat="47.25089" lon="-1.58352">
        <ele>67</ele>
        <time>2022-01-20T14:27:17Z</time>
      </trkpt>
      <trkpt lat="47.25089" lon="-1.58352">
        <ele>67</ele>
        <time>2022-01-20T14:27:18Z</time>
      </trkpt>
      <trkpt lat="47.25089" lon="-1.58352">
        <ele>67</ele>
        <time>2022-01-20T14:27:19Z</time>
      </trkpt>
      <trkpt lat="47.2509" lon="-1.58348">
        <ele>66</ele>
        <time>2022-01-20T14:27:20Z</time>
      </trkpt>
      <trkpt lat="47.25091" lon="-1.58346">
        <ele>66</ele>
        <time>2022-01-20T14:27:21Z</time>
      </trkpt>
      <trkpt lat="47.25091" lon="-1.58345">
        <ele>65</ele>
        <time>2022-01-20T14:27:22Z</time>
      </trkpt>
      <trkpt lat="47.25092" lon="-1.58343">
        <ele>65</ele>
        <time>2022-01-20T14:27:23Z</time>
      </trkpt>
      <trkpt lat="47.25092" lon="-1.58342">
        <ele>66</ele>
        <time>2022-01-20T14:27:24Z</time>
      </trkpt>
      <trkpt lat="47.25092" lon="-1.58342">
        <ele>66</ele>
        <time>2022-01-20T14:27:25Z</time>
      </trkpt>
      <trkpt lat="47.25092" lon="-1.58342">
        <ele>66</ele>
        <time>2022-01-20T14:27:26Z</time>
      </trkpt>
      <trkpt lat="47.25093" lon="-1.58337">
        <ele>66</ele>
        <time>2022-01-20T14:27:27Z</time>
      </trkpt>
      <trkpt lat="47.25094" lon="-1.58335">
        <ele>66</ele>
        <time>2022-01-20T14:27:28Z</time>
      </trkpt>
      <trkpt lat="47.25094" lon="-1.58333">
        <ele>66</ele>
        <time>2022-01-20T14:27:29Z</time>
      </trkpt>
      <trkpt lat="47.25095" lon="-1.58331">
        <ele>66</ele>
        <time>2022-01-20T14:27:30Z</time>
      </trkpt>
      <trkpt lat="47.25095" lon="-1.58329">
        <ele>67</ele>
        <time>2022-01-20T14:27:31Z</time>
      </trkpt>
      <trkpt lat="47.25095" lon="-1.58327">
        <ele>67</ele>
        <time>2022-01-20T14:27:32Z</time>
      </trkpt>
      <trkpt lat="47.25095" lon="-1.58325">
        <ele>67</ele>
        <time>2022-01-20T14:27:33Z</time>
      </trkpt>
      <trkpt lat="47.25095" lon="-1.58325">
        <ele>67</ele>
        <time>2022-01-20T14:27:34Z</time>
      </trkpt>
      <trkpt lat="47.25095" lon="-1.58325">
        <ele>67</ele>
        <time>2022-01-20T14:27:35Z</time>
      </trkpt>
      <trkpt lat="47.25096" lon="-1.58319">
        <ele>67</ele>
        <time>2022-01-20T14:27:36Z</time>
      </trkpt>
      <trkpt lat="47.25097" lon="-1.58318">
        <ele>68</ele>
        <time>2022-01-20T14:27:37Z</time>
      </trkpt>
      <trkpt lat="47.25097" lon="-1.58316">
        <ele>67</ele>
        <time>2022-01-20T14:27:38Z</time>
      </trkpt>
      <trkpt lat="47.25098" lon="-1.58314">
        <ele>67</ele>
        <time>2022-01-20T14:27:39Z</time>
      </trkpt>
      <trkpt lat="47.25098" lon="-1.58314">
        <ele>67</ele>
        <time>2022-01-20T14:27:40Z</time>
      </trkpt>
      <trkpt lat="47.25098" lon="-1.58314">
        <ele>67</ele>
        <time>2022-01-20T14:27:41Z</time>
      </trkpt>
      <trkpt lat="47.251" lon="-1.58309">
        <ele>67</ele>
        <time>2022-01-20T14:27:42Z</time>
      </trkpt>
      <trkpt lat="47.251" lon="-1.58306">
        <ele>68</ele>
        <time>2022-01-20T14:27:43Z</time>
      </trkpt>
      <trkpt lat="47.25101" lon="-1.58304">
        <ele>69</ele>
        <time>2022-01-20T14:27:44Z</time>
      </trkpt>
      <trkpt lat="47.25101" lon="-1.58301">
        <ele>69</ele>
        <time>2022-01-20T14:27:45Z</time>
      </trkpt>
      <trkpt lat="47.25102" lon="-1.58299">
        <ele>69</ele>
        <time>2022-01-20T14:27:46Z</time>
      </trkpt>
      <trkpt lat="47.25102" lon="-1.58297">
        <ele>70</ele>
        <time>2022-01-20T14:27:47Z</time>
      </trkpt>
      <trkpt lat="47.25102" lon="-1.58295">
        <ele>69</ele>
        <time>2022-01-20T14:27:48Z</time>
      </trkpt>
      <trkpt lat="47.25102" lon="-1.58294">
        <ele>70</ele>
        <time>2022-01-20T14:27:49Z</time>
      </trkpt>
      <trkpt lat="47.25102" lon="-1.58294">
        <ele>70</ele>
        <time>2022-01-20T14:27:50Z</time>
      </trkpt>
      <trkpt lat="47.25102" lon="-1.58294">
        <ele>70</ele>
        <time>2022-01-20T14:27:51Z</time>
      </trkpt>
      <trkpt lat="47.25102" lon="-1.58289">
        <ele>70</ele>
        <time>2022-01-20T14:27:52Z</time>
      </trkpt>
      <trkpt lat="47.25103" lon="-1.58288">
        <ele>71</ele>
        <time>2022-01-20T14:27:53Z</time>
      </trkpt>
      <trkpt lat="47.25103" lon="-1.58286">
        <ele>71</ele>
        <time>2022-01-20T14:27:54Z</time>
      </trkpt>
      <trkpt lat="47.25103" lon="-1.58284">
        <ele>71</ele>
        <time>2022-01-20T14:27:55Z</time>
      </trkpt>
      <trkpt lat="47.25104" lon="-1.58281">
        <ele>70</ele>
        <time>2022-01-20T14:27:56Z</time>
      </trkpt>
      <trkpt lat="47.25104" lon="-1.58279">
        <ele>70</ele>
        <time>2022-01-20T14:27:57Z</time>
      </trkpt>
      <trkpt lat="47.25105" lon="-1.58276">
        <ele>70</ele>
        <time>2022-01-20T14:27:58Z</time>
      </trkpt>
      <trkpt lat="47.25105" lon="-1.58274">
        <ele>70</ele>
        <time>2022-01-20T14:27:59Z</time>
      </trkpt>
      <trkpt lat="47.25106" lon="-1.58272">
        <ele>70</ele>
        <time>2022-01-20T14:28:00Z</time>
      </trkpt>
      <trkpt lat="47.25106" lon="-1.5827">
        <ele>70</ele>
        <time>2022-01-20T14:28:01Z</time>
      </trkpt>
      <trkpt lat="47.25106" lon="-1.58267">
        <ele>71</ele>
        <time>2022-01-20T14:28:02Z</time>
      </trkpt>
      <trkpt lat="47.25106" lon="-1.58265">
        <ele>71</ele>
        <time>2022-01-20T14:28:03Z</time>
      </trkpt>
      <trkpt lat="47.25106" lon="-1.58263">
        <ele>71</ele>
        <time>2022-01-20T14:28:04Z</time>
      </trkpt>
      <trkpt lat="47.25106" lon="-1.5826">
        <ele>71</ele>
        <time>2022-01-20T14:28:05Z</time>
      </trkpt>
      <trkpt lat="47.25106" lon="-1.58259">
        <ele>71</ele>
        <time>2022-01-20T14:28:06Z</time>
      </trkpt>
      <trkpt lat="47.25106" lon="-1.58257">
        <ele>72</ele>
        <time>2022-01-20T14:28:07Z</time>
      </trkpt>
      <trkpt lat="47.25105" lon="-1.58256">
        <ele>72</ele>
        <time>2022-01-20T14:28:08Z</time>
      </trkpt>
      <trkpt lat="47.25105" lon="-1.58254">
        <ele>72</ele>
        <time>2022-01-20T14:28:09Z</time>
      </trkpt>
      <trkpt lat="47.25105" lon="-1.58252">
        <ele>73</ele>
        <time>2022-01-20T14:28:10Z</time>
      </trkpt>
      <trkpt lat="47.25104" lon="-1.5825">
        <ele>73</ele>
        <time>2022-01-20T14:28:11Z</time>
      </trkpt>
      <trkpt lat="47.25104" lon="-1.58248">
        <ele>73</ele>
        <time>2022-01-20T14:28:12Z</time>
      </trkpt>
      <trkpt lat="47.25103" lon="-1.58245">
        <ele>73</ele>
        <time>2022-01-20T14:28:13Z</time>
      </trkpt>
      <trkpt lat="47.25103" lon="-1.58243">
        <ele>73</ele>
        <time>2022-01-20T14:28:14Z</time>
      </trkpt>
      <trkpt lat="47.25102" lon="-1.58241">
        <ele>74</ele>
        <time>2022-01-20T14:28:15Z</time>
      </trkpt>
      <trkpt lat="47.25102" lon="-1.58238">
        <ele>74</ele>
        <time>2022-01-20T14:28:16Z</time>
      </trkpt>
      <trkpt lat="47.25101" lon="-1.58237">
        <ele>73</ele>
        <time>2022-01-20T14:28:17Z</time>
      </trkpt>
      <trkpt lat="47.25101" lon="-1.58235">
        <ele>73</ele>
        <time>2022-01-20T14:28:18Z</time>
      </trkpt>
      <trkpt lat="47.25101" lon="-1.58232">
        <ele>73</ele>
        <time>2022-01-20T14:28:19Z</time>
      </trkpt>
      <trkpt lat="47.25101" lon="-1.58231">
        <ele>73</ele>
        <time>2022-01-20T14:28:20Z</time>
      </trkpt>
      <trkpt lat="47.25101" lon="-1.58229">
        <ele>73</ele>
        <time>2022-01-20T14:28:21Z</time>
      </trkpt>
      <trkpt lat="47.25101" lon="-1.58226">
        <ele>73</ele>
        <time>2022-01-20T14:28:22Z</time>
      </trkpt>
      <trkpt lat="47.251" lon="-1.58224">
        <ele>73</ele>
        <time>2022-01-20T14:28:23Z</time>
      </trkpt>
      <trkpt lat="47.251" lon="-1.58222">
        <ele>73</ele>
        <time>2022-01-20T14:28:24Z</time>
      </trkpt>
      <trkpt lat="47.251" lon="-1.5822">
        <ele>73</ele>
        <time>2022-01-20T14:28:25Z</time>
      </trkpt>
      <trkpt lat="47.25099" lon="-1.58217">
        <ele>73</ele>
        <time>2022-01-20T14:28:26Z</time>
      </trkpt>
      <trkpt lat="47.25099" lon="-1.58215">
        <ele>73</ele>
        <time>2022-01-20T14:28:27Z</time>
      </trkpt>
      <trkpt lat="47.25098" lon="-1.58213">
        <ele>73</ele>
        <time>2022-01-20T14:28:28Z</time>
      </trkpt>
      <trkpt lat="47.25098" lon="-1.58211">
        <ele>73</ele>
        <time>2022-01-20T14:28:29Z</time>
      </trkpt>
      <trkpt lat="47.25097" lon="-1.58209">
        <ele>73</ele>
        <time>2022-01-20T14:28:30Z</time>
      </trkpt>
      <trkpt lat="47.25097" lon="-1.58207">
        <ele>73</ele>
        <time>2022-01-20T14:28:31Z</time>
      </trkpt>
      <trkpt lat="47.25096" lon="-1.58206">
        <ele>73</ele>
        <time>2022-01-20T14:28:32Z</time>
      </trkpt>
      <trkpt lat="47.25095" lon="-1.58204">
        <ele>73</ele>
        <time>2022-01-20T14:28:33Z</time>
      </trkpt>
      <trkpt lat="47.25094" lon="-1.58202">
        <ele>73</ele>
        <time>2022-01-20T14:28:34Z</time>
      </trkpt>
      <trkpt lat="47.25093" lon="-1.582">
        <ele>73</ele>
        <time>2022-01-20T14:28:35Z</time>
      </trkpt>
      <trkpt lat="47.25092" lon="-1.58198">
        <ele>73</ele>
        <time>2022-01-20T14:28:36Z</time>
      </trkpt>
      <trkpt lat="47.25091" lon="-1.58197">
        <ele>73</ele>
        <time>2022-01-20T14:28:37Z</time>
      </trkpt>
      <trkpt lat="47.2509" lon="-1.58195">
        <ele>73</ele>
        <time>2022-01-20T14:28:38Z</time>
      </trkpt>
      <trkpt lat="47.2509" lon="-1.58194">
        <ele>73</ele>
        <time>2022-01-20T14:28:39Z</time>
      </trkpt>
      <trkpt lat="47.25089" lon="-1.58192">
        <ele>73</ele>
        <time>2022-01-20T14:28:40Z</time>
      </trkpt>
      <trkpt lat="47.25089" lon="-1.5819">
        <ele>73</ele>
        <time>2022-01-20T14:28:41Z</time>
      </trkpt>
      <trkpt lat="47.25088" lon="-1.58188">
        <ele>73</ele>
        <time>2022-01-20T14:28:42Z</time>
      </trkpt>
      <trkpt lat="47.25087" lon="-1.58187">
        <ele>74</ele>
        <time>2022-01-20T14:28:43Z</time>
      </trkpt>
      <trkpt lat="47.25086" lon="-1.58185">
        <ele>73</ele>
        <time>2022-01-20T14:28:44Z</time>
      </trkpt>
      <trkpt lat="47.25085" lon="-1.58183">
        <ele>73</ele>
        <time>2022-01-20T14:28:45Z</time>
      </trkpt>
      <trkpt lat="47.25085" lon="-1.58181">
        <ele>73</ele>
        <time>2022-01-20T14:28:46Z</time>
      </trkpt>
      <trkpt lat="47.25084" lon="-1.5818">
        <ele>72</ele>
        <time>2022-01-20T14:28:47Z</time>
      </trkpt>
      <trkpt lat="47.25084" lon="-1.58178">
        <ele>73</ele>
        <time>2022-01-20T14:28:48Z</time>
      </trkpt>
      <trkpt lat="47.25084" lon="-1.58176">
        <ele>73</ele>
        <time>2022-01-20T14:28:49Z</time>
      </trkpt>
      <trkpt lat="47.25083" lon="-1.58174">
        <ele>73</ele>
        <time>2022-01-20T14:28:50Z</time>
      </trkpt>
      <trkpt lat="47.25083" lon="-1.58172">
        <ele>73</ele>
        <time>2022-01-20T14:28:51Z</time>
      </trkpt>
      <trkpt lat="47.25082" lon="-1.5817">
        <ele>72</ele>
        <time>2022-01-20T14:28:52Z</time>
      </trkpt>
      <trkpt lat="47.25082" lon="-1.58168">
        <ele>72</ele>
        <time>2022-01-20T14:28:53Z</time>
      </trkpt>
      <trkpt lat="47.25082" lon="-1.58167">
        <ele>72</ele>
        <time>2022-01-20T14:28:54Z</time>
      </trkpt>
      <trkpt lat="47.25082" lon="-1.58164">
        <ele>72</ele>
        <time>2022-01-20T14:28:55Z</time>
      </trkpt>
      <trkpt lat="47.25081" lon="-1.58162">
        <ele>72</ele>
        <time>2022-01-20T14:28:56Z</time>
      </trkpt>
      <trkpt lat="47.25081" lon="-1.5816">
        <ele>72</ele>
        <time>2022-01-20T14:28:57Z</time>
      </trkpt>
      <trkpt lat="47.25081" lon="-1.58158">
        <ele>71</ele>
        <time>2022-01-20T14:28:58Z</time>
      </trkpt>
      <trkpt lat="47.25081" lon="-1.58156">
        <ele>71</ele>
        <time>2022-01-20T14:28:59Z</time>
      </trkpt>
      <trkpt lat="47.2508" lon="-1.58154">
        <ele>71</ele>
        <time>2022-01-20T14:29:00Z</time>
      </trkpt>
      <trkpt lat="47.2508" lon="-1.58152">
        <ele>71</ele>
        <time>2022-01-20T14:29:01Z</time>
      </trkpt>
      <trkpt lat="47.25081" lon="-1.5815">
        <ele>71</ele>
        <time>2022-01-20T14:29:02Z</time>
      </trkpt>
      <trkpt lat="47.2508" lon="-1.58147">
        <ele>70</ele>
        <time>2022-01-20T14:29:03Z</time>
      </trkpt>
      <trkpt lat="47.2508" lon="-1.58145">
        <ele>70</ele>
        <time>2022-01-20T14:29:04Z</time>
      </trkpt>
      <trkpt lat="47.25081" lon="-1.58143">
        <ele>70</ele>
        <time>2022-01-20T14:29:05Z</time>
      </trkpt>
      <trkpt lat="47.25081" lon="-1.58141">
        <ele>70</ele>
        <time>2022-01-20T14:29:06Z</time>
      </trkpt>
      <trkpt lat="47.25081" lon="-1.58138">
        <ele>70</ele>
        <time>2022-01-20T14:29:07Z</time>
      </trkpt>
      <trkpt lat="47.25082" lon="-1.58136">
        <ele>70</ele>
        <time>2022-01-20T14:29:08Z</time>
      </trkpt>
      <trkpt lat="47.25082" lon="-1.58135">
        <ele>69</ele>
        <time>2022-01-20T14:29:09Z</time>
      </trkpt>
      <trkpt lat="47.25082" lon="-1.58133">
        <ele>69</ele>
        <time>2022-01-20T14:29:10Z</time>
      </trkpt>
      <trkpt lat="47.25082" lon="-1.58131">
        <ele>69</ele>
        <time>2022-01-20T14:29:11Z</time>
      </trkpt>
      <trkpt lat="47.25082" lon="-1.5813">
        <ele>69</ele>
        <time>2022-01-20T14:29:12Z</time>
      </trkpt>
      <trkpt lat="47.25082" lon="-1.58129">
        <ele>69</ele>
        <time>2022-01-20T14:29:13Z</time>
      </trkpt>
      <trkpt lat="47.25082" lon="-1.58127">
        <ele>69</ele>
        <time>2022-01-20T14:29:14Z</time>
      </trkpt>
      <trkpt lat="47.25082" lon="-1.58125">
        <ele>69</ele>
        <time>2022-01-20T14:29:15Z</time>
      </trkpt>
      <trkpt lat="47.25083" lon="-1.58122">
        <ele>69</ele>
        <time>2022-01-20T14:29:16Z</time>
      </trkpt>
      <trkpt lat="47.25083" lon="-1.5812">
        <ele>69</ele>
        <time>2022-01-20T14:29:17Z</time>
      </trkpt>
      <trkpt lat="47.25083" lon="-1.58118">
        <ele>69</ele>
        <time>2022-01-20T14:29:18Z</time>
      </trkpt>
      <trkpt lat="47.25084" lon="-1.58116">
        <ele>69</ele>
        <time>2022-01-20T14:29:19Z</time>
      </trkpt>
      <trkpt lat="47.25084" lon="-1.58114">
        <ele>69</ele>
        <time>2022-01-20T14:29:20Z</time>
      </trkpt>
      <trkpt lat="47.25084" lon="-1.58112">
        <ele>69</ele>
        <time>2022-01-20T14:29:21Z</time>
      </trkpt>
      <trkpt lat="47.25084" lon="-1.5811">
        <ele>69</ele>
        <time>2022-01-20T14:29:22Z</time>
      </trkpt>
      <trkpt lat="47.25084" lon="-1.58108">
        <ele>69</ele>
        <time>2022-01-20T14:29:23Z</time>
      </trkpt>
      <trkpt lat="47.25084" lon="-1.58106">
        <ele>69</ele>
        <time>2022-01-20T14:29:24Z</time>
      </trkpt>
      <trkpt lat="47.25084" lon="-1.58104">
        <ele>69</ele>
        <time>2022-01-20T14:29:25Z</time>
      </trkpt>
      <trkpt lat="47.25084" lon="-1.58101">
        <ele>70</ele>
        <time>2022-01-20T14:29:26Z</time>
      </trkpt>
      <trkpt lat="47.25084" lon="-1.58099">
        <ele>70</ele>
        <time>2022-01-20T14:29:27Z</time>
      </trkpt>
      <trkpt lat="47.25084" lon="-1.58097">
        <ele>70</ele>
        <time>2022-01-20T14:29:28Z</time>
      </trkpt>
      <trkpt lat="47.25084" lon="-1.58096">
        <ele>71</ele>
        <time>2022-01-20T14:29:29Z</time>
      </trkpt>
      <trkpt lat="47.25084" lon="-1.58094">
        <ele>72</ele>
        <time>2022-01-20T14:29:30Z</time>
      </trkpt>
      <trkpt lat="47.25084" lon="-1.58092">
        <ele>72</ele>
        <time>2022-01-20T14:29:31Z</time>
      </trkpt>
      <trkpt lat="47.25083" lon="-1.58089">
        <ele>72</ele>
        <time>2022-01-20T14:29:32Z</time>
      </trkpt>
      <trkpt lat="47.25083" lon="-1.58088">
        <ele>72</ele>
        <time>2022-01-20T14:29:33Z</time>
      </trkpt>
      <trkpt lat="47.25083" lon="-1.58086">
        <ele>72</ele>
        <time>2022-01-20T14:29:34Z</time>
      </trkpt>
      <trkpt lat="47.25082" lon="-1.58084">
        <ele>71</ele>
        <time>2022-01-20T14:29:35Z</time>
      </trkpt>
      <trkpt lat="47.25082" lon="-1.58082">
        <ele>71</ele>
        <time>2022-01-20T14:29:36Z</time>
      </trkpt>
      <trkpt lat="47.25081" lon="-1.58081">
        <ele>71</ele>
        <time>2022-01-20T14:29:37Z</time>
      </trkpt>
      <trkpt lat="47.25081" lon="-1.5808">
        <ele>72</ele>
        <time>2022-01-20T14:29:39Z</time>
      </trkpt>
      <trkpt lat="47.25081" lon="-1.58078">
        <ele>73</ele>
        <time>2022-01-20T14:29:40Z</time>
      </trkpt>
      <trkpt lat="47.25081" lon="-1.58076">
        <ele>73</ele>
        <time>2022-01-20T14:29:41Z</time>
      </trkpt>
      <trkpt lat="47.2508" lon="-1.58074">
        <ele>74</ele>
        <time>2022-01-20T14:29:42Z</time>
      </trkpt>
      <trkpt lat="47.25079" lon="-1.58072">
        <ele>73</ele>
        <time>2022-01-20T14:29:43Z</time>
      </trkpt>
      <trkpt lat="47.25079" lon="-1.5807">
        <ele>73</ele>
        <time>2022-01-20T14:29:44Z</time>
      </trkpt>
      <trkpt lat="47.25079" lon="-1.58068">
        <ele>73</ele>
        <time>2022-01-20T14:29:45Z</time>
      </trkpt>
      <trkpt lat="47.25078" lon="-1.58066">
        <ele>72</ele>
        <time>2022-01-20T14:29:46Z</time>
      </trkpt>
      <trkpt lat="47.25078" lon="-1.58064">
        <ele>73</ele>
        <time>2022-01-20T14:29:47Z</time>
      </trkpt>
      <trkpt lat="47.25077" lon="-1.58061">
        <ele>72</ele>
        <time>2022-01-20T14:29:48Z</time>
      </trkpt>
      <trkpt lat="47.25077" lon="-1.58059">
        <ele>72</ele>
        <time>2022-01-20T14:29:49Z</time>
      </trkpt>
      <trkpt lat="47.25076" lon="-1.58057">
        <ele>72</ele>
        <time>2022-01-20T14:29:50Z</time>
      </trkpt>
      <trkpt lat="47.25076" lon="-1.58055">
        <ele>72</ele>
        <time>2022-01-20T14:29:51Z</time>
      </trkpt>
      <trkpt lat="47.25075" lon="-1.58052">
        <ele>71</ele>
        <time>2022-01-20T14:29:52Z</time>
      </trkpt>
      <trkpt lat="47.25074" lon="-1.5805">
        <ele>71</ele>
        <time>2022-01-20T14:29:53Z</time>
      </trkpt>
      <trkpt lat="47.25074" lon="-1.58048">
        <ele>71</ele>
        <time>2022-01-20T14:29:54Z</time>
      </trkpt>
      <trkpt lat="47.25073" lon="-1.58046">
        <ele>71</ele>
        <time>2022-01-20T14:29:55Z</time>
      </trkpt>
      <trkpt lat="47.25073" lon="-1.58046">
        <ele>71</ele>
        <time>2022-01-20T14:29:56Z</time>
      </trkpt>
      <trkpt lat="47.25073" lon="-1.58046">
        <ele>71</ele>
        <time>2022-01-20T14:29:57Z</time>
      </trkpt>
      <trkpt lat="47.25071" lon="-1.58043">
        <ele>72</ele>
        <time>2022-01-20T14:29:58Z</time>
      </trkpt>
      <trkpt lat="47.25071" lon="-1.58042">
        <ele>71</ele>
        <time>2022-01-20T14:29:59Z</time>
      </trkpt>
      <trkpt lat="47.2507" lon="-1.58041">
        <ele>72</ele>
        <time>2022-01-20T14:30:00Z</time>
      </trkpt>
      <trkpt lat="47.2507" lon="-1.58041">
        <ele>72</ele>
        <time>2022-01-20T14:30:01Z</time>
      </trkpt>
      <trkpt lat="47.2507" lon="-1.58041">
        <ele>72</ele>
        <time>2022-01-20T14:30:02Z</time>
      </trkpt>
      <trkpt lat="47.25069" lon="-1.5804">
        <ele>73</ele>
        <time>2022-01-20T14:30:03Z</time>
      </trkpt>
      <trkpt lat="47.25067" lon="-1.58039">
        <ele>73</ele>
        <time>2022-01-20T14:30:04Z</time>
      </trkpt>
      <trkpt lat="47.25066" lon="-1.58038">
        <ele>72</ele>
        <time>2022-01-20T14:30:05Z</time>
      </trkpt>
      <trkpt lat="47.25065" lon="-1.58037">
        <ele>72</ele>
        <time>2022-01-20T14:30:06Z</time>
      </trkpt>
      <trkpt lat="47.25065" lon="-1.58037">
        <ele>72</ele>
        <time>2022-01-20T14:30:07Z</time>
      </trkpt>
      <trkpt lat="47.25065" lon="-1.58037">
        <ele>72</ele>
        <time>2022-01-20T14:30:08Z</time>
      </trkpt>
      <trkpt lat="47.25062" lon="-1.58035">
        <ele>71</ele>
        <time>2022-01-20T14:30:09Z</time>
      </trkpt>
      <trkpt lat="47.25061" lon="-1.58034">
        <ele>71</ele>
        <time>2022-01-20T14:30:10Z</time>
      </trkpt>
      <trkpt lat="47.2506" lon="-1.58033">
        <ele>70</ele>
        <time>2022-01-20T14:30:11Z</time>
      </trkpt>
      <trkpt lat="47.25059" lon="-1.58031">
        <ele>70</ele>
        <time>2022-01-20T14:30:12Z</time>
      </trkpt>
      <trkpt lat="47.25058" lon="-1.58031">
        <ele>70</ele>
        <time>2022-01-20T14:30:13Z</time>
      </trkpt>
      <trkpt lat="47.25056" lon="-1.5803">
        <ele>70</ele>
        <time>2022-01-20T14:30:14Z</time>
      </trkpt>
      <trkpt lat="47.25055" lon="-1.58029">
        <ele>70</ele>
        <time>2022-01-20T14:30:15Z</time>
      </trkpt>
      <trkpt lat="47.25053" lon="-1.58028">
        <ele>70</ele>
        <time>2022-01-20T14:30:16Z</time>
      </trkpt>
      <trkpt lat="47.25052" lon="-1.58027">
        <ele>70</ele>
        <time>2022-01-20T14:30:17Z</time>
      </trkpt>
      <trkpt lat="47.2505" lon="-1.58027">
        <ele>69</ele>
        <time>2022-01-20T14:30:18Z</time>
      </trkpt>
      <trkpt lat="47.25048" lon="-1.58025">
        <ele>69</ele>
        <time>2022-01-20T14:30:19Z</time>
      </trkpt>
      <trkpt lat="47.25047" lon="-1.58024">
        <ele>69</ele>
        <time>2022-01-20T14:30:20Z</time>
      </trkpt>
      <trkpt lat="47.25045" lon="-1.58024">
        <ele>69</ele>
        <time>2022-01-20T14:30:21Z</time>
      </trkpt>
      <trkpt lat="47.25044" lon="-1.58023">
        <ele>68</ele>
        <time>2022-01-20T14:30:22Z</time>
      </trkpt>
      <trkpt lat="47.25042" lon="-1.58022">
        <ele>68</ele>
        <time>2022-01-20T14:30:23Z</time>
      </trkpt>
      <trkpt lat="47.25041" lon="-1.58021">
        <ele>67</ele>
        <time>2022-01-20T14:30:24Z</time>
      </trkpt>
      <trkpt lat="47.2504" lon="-1.58021">
        <ele>68</ele>
        <time>2022-01-20T14:30:25Z</time>
      </trkpt>
      <trkpt lat="47.25038" lon="-1.5802">
        <ele>67</ele>
        <time>2022-01-20T14:30:26Z</time>
      </trkpt>
      <trkpt lat="47.25037" lon="-1.5802">
        <ele>67</ele>
        <time>2022-01-20T14:30:27Z</time>
      </trkpt>
      <trkpt lat="47.25035" lon="-1.58019">
        <ele>67</ele>
        <time>2022-01-20T14:30:28Z</time>
      </trkpt>
      <trkpt lat="47.25034" lon="-1.58018">
        <ele>67</ele>
        <time>2022-01-20T14:30:29Z</time>
      </trkpt>
      <trkpt lat="47.25033" lon="-1.58017">
        <ele>67</ele>
        <time>2022-01-20T14:30:30Z</time>
      </trkpt>
      <trkpt lat="47.25032" lon="-1.58017">
        <ele>67</ele>
        <time>2022-01-20T14:30:31Z</time>
      </trkpt>
      <trkpt lat="47.25031" lon="-1.58016">
        <ele>67</ele>
        <time>2022-01-20T14:30:32Z</time>
      </trkpt>
      <trkpt lat="47.25029" lon="-1.58015">
        <ele>66</ele>
        <time>2022-01-20T14:30:33Z</time>
      </trkpt>
      <trkpt lat="47.25028" lon="-1.58015">
        <ele>66</ele>
        <time>2022-01-20T14:30:34Z</time>
      </trkpt>
      <trkpt lat="47.25028" lon="-1.58014">
        <ele>66</ele>
        <time>2022-01-20T14:30:35Z</time>
      </trkpt>
      <trkpt lat="47.25026" lon="-1.58012">
        <ele>66</ele>
        <time>2022-01-20T14:30:36Z</time>
      </trkpt>
      <trkpt lat="47.25025" lon="-1.58011">
        <ele>66</ele>
        <time>2022-01-20T14:30:37Z</time>
      </trkpt>
      <trkpt lat="47.25024" lon="-1.58009">
        <ele>65</ele>
        <time>2022-01-20T14:30:38Z</time>
      </trkpt>
      <trkpt lat="47.25023" lon="-1.58008">
        <ele>65</ele>
        <time>2022-01-20T14:30:39Z</time>
      </trkpt>
      <trkpt lat="47.25022" lon="-1.58006">
        <ele>65</ele>
        <time>2022-01-20T14:30:40Z</time>
      </trkpt>
      <trkpt lat="47.25021" lon="-1.58005">
        <ele>65</ele>
        <time>2022-01-20T14:30:41Z</time>
      </trkpt>
      <trkpt lat="47.2502" lon="-1.58003">
        <ele>64</ele>
        <time>2022-01-20T14:30:42Z</time>
      </trkpt>
      <trkpt lat="47.25019" lon="-1.58002">
        <ele>64</ele>
        <time>2022-01-20T14:30:43Z</time>
      </trkpt>
      <trkpt lat="47.25018" lon="-1.58">
        <ele>64</ele>
        <time>2022-01-20T14:30:44Z</time>
      </trkpt>
      <trkpt lat="47.25017" lon="-1.57998">
        <ele>63</ele>
        <time>2022-01-20T14:30:45Z</time>
      </trkpt>
      <trkpt lat="47.25016" lon="-1.57996">
        <ele>63</ele>
        <time>2022-01-20T14:30:46Z</time>
      </trkpt>
      <trkpt lat="47.25016" lon="-1.57994">
        <ele>63</ele>
        <time>2022-01-20T14:30:47Z</time>
      </trkpt>
      <trkpt lat="47.25016" lon="-1.57993">
        <ele>63</ele>
        <time>2022-01-20T14:30:48Z</time>
      </trkpt>
      <trkpt lat="47.25015" lon="-1.57991">
        <ele>63</ele>
        <time>2022-01-20T14:30:49Z</time>
      </trkpt>
      <trkpt lat="47.25015" lon="-1.57988">
        <ele>62</ele>
        <time>2022-01-20T14:30:50Z</time>
      </trkpt>
      <trkpt lat="47.25014" lon="-1.57986">
        <ele>62</ele>
        <time>2022-01-20T14:30:51Z</time>
      </trkpt>
      <trkpt lat="47.25013" lon="-1.57985">
        <ele>61</ele>
        <time>2022-01-20T14:30:52Z</time>
      </trkpt>
      <trkpt lat="47.25012" lon="-1.57984">
        <ele>61</ele>
        <time>2022-01-20T14:30:53Z</time>
      </trkpt>
      <trkpt lat="47.25011" lon="-1.57981">
        <ele>62</ele>
        <time>2022-01-20T14:30:54Z</time>
      </trkpt>
      <trkpt lat="47.25011" lon="-1.5798">
        <ele>62</ele>
        <time>2022-01-20T14:30:55Z</time>
      </trkpt>
      <trkpt lat="47.2501" lon="-1.57979">
        <ele>61</ele>
        <time>2022-01-20T14:30:56Z</time>
      </trkpt>
      <trkpt lat="47.2501" lon="-1.57977">
        <ele>61</ele>
        <time>2022-01-20T14:30:57Z</time>
      </trkpt>
      <trkpt lat="47.25008" lon="-1.57976">
        <ele>61</ele>
        <time>2022-01-20T14:30:58Z</time>
      </trkpt>
      <trkpt lat="47.25008" lon="-1.57975">
        <ele>61</ele>
        <time>2022-01-20T14:30:59Z</time>
      </trkpt>
      <trkpt lat="47.25007" lon="-1.57974">
        <ele>61</ele>
        <time>2022-01-20T14:31:00Z</time>
      </trkpt>
      <trkpt lat="47.25006" lon="-1.57972">
        <ele>61</ele>
        <time>2022-01-20T14:31:01Z</time>
      </trkpt>
      <trkpt lat="47.25005" lon="-1.5797">
        <ele>60</ele>
        <time>2022-01-20T14:31:02Z</time>
      </trkpt>
      <trkpt lat="47.25004" lon="-1.57969">
        <ele>59</ele>
        <time>2022-01-20T14:31:03Z</time>
      </trkpt>
      <trkpt lat="47.25003" lon="-1.57968">
        <ele>58</ele>
        <time>2022-01-20T14:31:04Z</time>
      </trkpt>
      <trkpt lat="47.25002" lon="-1.57966">
        <ele>58</ele>
        <time>2022-01-20T14:31:05Z</time>
      </trkpt>
      <trkpt lat="47.25002" lon="-1.57964">
        <ele>58</ele>
        <time>2022-01-20T14:31:06Z</time>
      </trkpt>
      <trkpt lat="47.25001" lon="-1.57963">
        <ele>57</ele>
        <time>2022-01-20T14:31:07Z</time>
      </trkpt>
      <trkpt lat="47.25" lon="-1.57962">
        <ele>57</ele>
        <time>2022-01-20T14:31:08Z</time>
      </trkpt>
      <trkpt lat="47.24998" lon="-1.57961">
        <ele>56</ele>
        <time>2022-01-20T14:31:09Z</time>
      </trkpt>
      <trkpt lat="47.24997" lon="-1.57961">
        <ele>56</ele>
        <time>2022-01-20T14:31:10Z</time>
      </trkpt>
      <trkpt lat="47.24995" lon="-1.5796">
        <ele>56</ele>
        <time>2022-01-20T14:31:11Z</time>
      </trkpt>
      <trkpt lat="47.24994" lon="-1.57959">
        <ele>56</ele>
        <time>2022-01-20T14:31:12Z</time>
      </trkpt>
      <trkpt lat="47.24992" lon="-1.57958">
        <ele>56</ele>
        <time>2022-01-20T14:31:13Z</time>
      </trkpt>
      <trkpt lat="47.24992" lon="-1.57957">
        <ele>56</ele>
        <time>2022-01-20T14:31:14Z</time>
      </trkpt>
      <trkpt lat="47.24991" lon="-1.57956">
        <ele>57</ele>
        <time>2022-01-20T14:31:15Z</time>
      </trkpt>
      <trkpt lat="47.2499" lon="-1.57954">
        <ele>57</ele>
        <time>2022-01-20T14:31:16Z</time>
      </trkpt>
      <trkpt lat="47.24989" lon="-1.57952">
        <ele>58</ele>
        <time>2022-01-20T14:31:17Z</time>
      </trkpt>
      <trkpt lat="47.24988" lon="-1.57951">
        <ele>58</ele>
        <time>2022-01-20T14:31:18Z</time>
      </trkpt>
      <trkpt lat="47.24987" lon="-1.5795">
        <ele>58</ele>
        <time>2022-01-20T14:31:19Z</time>
      </trkpt>
      <trkpt lat="47.24985" lon="-1.57947">
        <ele>58</ele>
        <time>2022-01-20T14:31:20Z</time>
      </trkpt>
      <trkpt lat="47.24985" lon="-1.57947">
        <ele>58</ele>
        <time>2022-01-20T14:31:20Z</time>
      </trkpt>
      <trkpt lat="47.24984" lon="-1.57946">
        <ele>58</ele>
        <time>2022-01-20T14:31:22Z</time>
      </trkpt>
      <trkpt lat="47.24983" lon="-1.57946">
        <ele>57</ele>
        <time>2022-01-20T14:31:23Z</time>
      </trkpt>
      <trkpt lat="47.24983" lon="-1.57946">
        <ele>57</ele>
        <time>2022-01-20T14:31:24Z</time>
      </trkpt>
      <trkpt lat="47.24983" lon="-1.57946">
        <ele>57</ele>
        <time>2022-01-20T14:31:25Z</time>
      </trkpt>
      <trkpt lat="47.24979" lon="-1.57944">
        <ele>56</ele>
        <time>2022-01-20T14:31:26Z</time>
      </trkpt>
      <trkpt lat="47.24977" lon="-1.57943">
        <ele>55</ele>
        <time>2022-01-20T14:31:27Z</time>
      </trkpt>
      <trkpt lat="47.24975" lon="-1.57941">
        <ele>55</ele>
        <time>2022-01-20T14:31:28Z</time>
      </trkpt>
      <trkpt lat="47.24974" lon="-1.5794">
        <ele>55</ele>
        <time>2022-01-20T14:31:29Z</time>
      </trkpt>
      <trkpt lat="47.24973" lon="-1.57938">
        <ele>55</ele>
        <time>2022-01-20T14:31:30Z</time>
      </trkpt>
      <trkpt lat="47.24971" lon="-1.57937">
        <ele>55</ele>
        <time>2022-01-20T14:31:31Z</time>
      </trkpt>
      <trkpt lat="47.2497" lon="-1.57936">
        <ele>54</ele>
        <time>2022-01-20T14:31:32Z</time>
      </trkpt>
      <trkpt lat="47.2497" lon="-1.57935">
        <ele>54</ele>
        <time>2022-01-20T14:31:33Z</time>
      </trkpt>
      <trkpt lat="47.2497" lon="-1.57935">
        <ele>54</ele>
        <time>2022-01-20T14:31:34Z</time>
      </trkpt>
      <trkpt lat="47.2497" lon="-1.57935">
        <ele>54</ele>
        <time>2022-01-20T14:31:35Z</time>
      </trkpt>
      <trkpt lat="47.24968" lon="-1.57931">
        <ele>55</ele>
        <time>2022-01-20T14:31:36Z</time>
      </trkpt>
      <trkpt lat="47.24968" lon="-1.5793">
        <ele>56</ele>
        <time>2022-01-20T14:31:37Z</time>
      </trkpt>
      <trkpt lat="47.24967" lon="-1.57927">
        <ele>57</ele>
        <time>2022-01-20T14:31:38Z</time>
      </trkpt>
      <trkpt lat="47.24966" lon="-1.57925">
        <ele>57</ele>
        <time>2022-01-20T14:31:39Z</time>
      </trkpt>
      <trkpt lat="47.24965" lon="-1.5792">
        <ele>57</ele>
        <time>2022-01-20T14:31:40Z</time>
      </trkpt>
      <trkpt lat="47.24964" lon="-1.57918">
        <ele>56</ele>
        <time>2022-01-20T14:31:41Z</time>
      </trkpt>
      <trkpt lat="47.24964" lon="-1.57918">
        <ele>56</ele>
        <time>2022-01-20T14:31:41Z</time>
      </trkpt>
      <trkpt lat="47.24963" lon="-1.57915">
        <ele>56</ele>
        <time>2022-01-20T14:31:43Z</time>
      </trkpt>
      <trkpt lat="47.24962" lon="-1.57912">
        <ele>54</ele>
        <time>2022-01-20T14:31:44Z</time>
      </trkpt>
      <trkpt lat="47.24962" lon="-1.57912">
        <ele>54</ele>
        <time>2022-01-20T14:31:44Z</time>
      </trkpt>
      <trkpt lat="47.24962" lon="-1.5791">
        <ele>54</ele>
        <time>2022-01-20T14:31:46Z</time>
      </trkpt>
      <trkpt lat="47.2496" lon="-1.57906">
        <ele>53</ele>
        <time>2022-01-20T14:31:47Z</time>
      </trkpt>
      <trkpt lat="47.2496" lon="-1.57904">
        <ele>52</ele>
        <time>2022-01-20T14:31:48Z</time>
      </trkpt>
      <trkpt lat="47.24959" lon="-1.57902">
        <ele>50</ele>
        <time>2022-01-20T14:31:49Z</time>
      </trkpt>
      <trkpt lat="47.24958" lon="-1.579">
        <ele>49</ele>
        <time>2022-01-20T14:31:50Z</time>
      </trkpt>
      <trkpt lat="47.24958" lon="-1.579">
        <ele>49</ele>
        <time>2022-01-20T14:31:50Z</time>
      </trkpt>
      <trkpt lat="47.24957" lon="-1.57899">
        <ele>48</ele>
        <time>2022-01-20T14:31:52Z</time>
      </trkpt>
      <trkpt lat="47.24955" lon="-1.57896">
        <ele>49</ele>
        <time>2022-01-20T14:31:53Z</time>
      </trkpt>
      <trkpt lat="47.24955" lon="-1.57896">
        <ele>49</ele>
        <time>2022-01-20T14:31:53Z</time>
      </trkpt>
      <trkpt lat="47.24954" lon="-1.57894">
        <ele>49</ele>
        <time>2022-01-20T14:31:55Z</time>
      </trkpt>
      <trkpt lat="47.24954" lon="-1.57893">
        <ele>49</ele>
        <time>2022-01-20T14:31:56Z</time>
      </trkpt>
      <trkpt lat="47.24952" lon="-1.5789">
        <ele>51</ele>
        <time>2022-01-20T14:31:57Z</time>
      </trkpt>
      <trkpt lat="47.24952" lon="-1.5789">
        <ele>51</ele>
        <time>2022-01-20T14:31:57Z</time>
      </trkpt>
      <trkpt lat="47.2495" lon="-1.57887">
        <ele>51</ele>
        <time>2022-01-20T14:31:59Z</time>
      </trkpt>
      <trkpt lat="47.24949" lon="-1.57885">
        <ele>51</ele>
        <time>2022-01-20T14:32:00Z</time>
      </trkpt>
      <trkpt lat="47.24947" lon="-1.57884">
        <ele>51</ele>
        <time>2022-01-20T14:32:01Z</time>
      </trkpt>
      <trkpt lat="47.24947" lon="-1.57884">
        <ele>51</ele>
        <time>2022-01-20T14:32:01Z</time>
      </trkpt>
      <trkpt lat="47.24946" lon="-1.57883">
        <ele>51</ele>
        <time>2022-01-20T14:32:03Z</time>
      </trkpt>
      <trkpt lat="47.24944" lon="-1.57882">
        <ele>53</ele>
        <time>2022-01-20T14:32:04Z</time>
      </trkpt>
      <trkpt lat="47.24943" lon="-1.57882">
        <ele>53</ele>
        <time>2022-01-20T14:32:05Z</time>
      </trkpt>
      <trkpt lat="47.24942" lon="-1.57882">
        <ele>54</ele>
        <time>2022-01-20T14:32:06Z</time>
      </trkpt>
      <trkpt lat="47.24941" lon="-1.57882">
        <ele>54</ele>
        <time>2022-01-20T14:32:07Z</time>
      </trkpt>
      <trkpt lat="47.24941" lon="-1.57883">
        <ele>54</ele>
        <time>2022-01-20T14:32:08Z</time>
      </trkpt>
      <trkpt lat="47.24939" lon="-1.57883">
        <ele>54</ele>
        <time>2022-01-20T14:32:09Z</time>
      </trkpt>
      <trkpt lat="47.24939" lon="-1.57883">
        <ele>55</ele>
        <time>2022-01-20T14:32:10Z</time>
      </trkpt>
      <trkpt lat="47.24938" lon="-1.57884">
        <ele>55</ele>
        <time>2022-01-20T14:32:11Z</time>
      </trkpt>
      <trkpt lat="47.24937" lon="-1.57885">
        <ele>55</ele>
        <time>2022-01-20T14:32:12Z</time>
      </trkpt>
      <trkpt lat="47.24935" lon="-1.57884">
        <ele>56</ele>
        <time>2022-01-20T14:32:13Z</time>
      </trkpt>
      <trkpt lat="47.24934" lon="-1.57885">
        <ele>56</ele>
        <time>2022-01-20T14:32:14Z</time>
      </trkpt>
      <trkpt lat="47.24933" lon="-1.57886">
        <ele>56</ele>
        <time>2022-01-20T14:32:15Z</time>
      </trkpt>
      <trkpt lat="47.24933" lon="-1.57887">
        <ele>57</ele>
        <time>2022-01-20T14:32:16Z</time>
      </trkpt>
      <trkpt lat="47.24932" lon="-1.57888">
        <ele>57</ele>
        <time>2022-01-20T14:32:17Z</time>
      </trkpt>
      <trkpt lat="47.24931" lon="-1.57889">
        <ele>57</ele>
        <time>2022-01-20T14:32:18Z</time>
      </trkpt>
      <trkpt lat="47.2493" lon="-1.57889">
        <ele>58</ele>
        <time>2022-01-20T14:32:19Z</time>
      </trkpt>
      <trkpt lat="47.24929" lon="-1.5789">
        <ele>58</ele>
        <time>2022-01-20T14:32:20Z</time>
      </trkpt>
      <trkpt lat="47.24928" lon="-1.5789">
        <ele>58</ele>
        <time>2022-01-20T14:32:21Z</time>
      </trkpt>
      <trkpt lat="47.24927" lon="-1.57891">
        <ele>58</ele>
        <time>2022-01-20T14:32:22Z</time>
      </trkpt>
      <trkpt lat="47.24927" lon="-1.57891">
        <ele>58</ele>
        <time>2022-01-20T14:32:23Z</time>
      </trkpt>
      <trkpt lat="47.24927" lon="-1.57891">
        <ele>58</ele>
        <time>2022-01-20T14:32:24Z</time>
      </trkpt>
      <trkpt lat="47.24924" lon="-1.57893">
        <ele>57</ele>
        <time>2022-01-20T14:32:25Z</time>
      </trkpt>
      <trkpt lat="47.24923" lon="-1.57894">
        <ele>57</ele>
        <time>2022-01-20T14:32:26Z</time>
      </trkpt>
      <trkpt lat="47.24921" lon="-1.57895">
        <ele>57</ele>
        <time>2022-01-20T14:32:27Z</time>
      </trkpt>
      <trkpt lat="47.2492" lon="-1.57896">
        <ele>57</ele>
        <time>2022-01-20T14:32:28Z</time>
      </trkpt>
      <trkpt lat="47.24919" lon="-1.57898">
        <ele>57</ele>
        <time>2022-01-20T14:32:29Z</time>
      </trkpt>
      <trkpt lat="47.24917" lon="-1.579">
        <ele>58</ele>
        <time>2022-01-20T14:32:30Z</time>
      </trkpt>
      <trkpt lat="47.24917" lon="-1.57902">
        <ele>58</ele>
        <time>2022-01-20T14:32:31Z</time>
      </trkpt>
      <trkpt lat="47.24915" lon="-1.57904">
        <ele>58</ele>
        <time>2022-01-20T14:32:32Z</time>
      </trkpt>
      <trkpt lat="47.24915" lon="-1.57906">
        <ele>57</ele>
        <time>2022-01-20T14:32:33Z</time>
      </trkpt>
      <trkpt lat="47.24913" lon="-1.57907">
        <ele>57</ele>
        <time>2022-01-20T14:32:34Z</time>
      </trkpt>
      <trkpt lat="47.24912" lon="-1.57907">
        <ele>57</ele>
        <time>2022-01-20T14:32:35Z</time>
      </trkpt>
      <trkpt lat="47.24911" lon="-1.57908">
        <ele>58</ele>
        <time>2022-01-20T14:32:36Z</time>
      </trkpt>
      <trkpt lat="47.2491" lon="-1.5791">
        <ele>57</ele>
        <time>2022-01-20T14:32:37Z</time>
      </trkpt>
      <trkpt lat="47.2491" lon="-1.5791">
        <ele>57</ele>
        <time>2022-01-20T14:32:38Z</time>
      </trkpt>
      <trkpt lat="47.24908" lon="-1.57913">
        <ele>57</ele>
        <time>2022-01-20T14:32:39Z</time>
      </trkpt>
      <trkpt lat="47.24907" lon="-1.57914">
        <ele>57</ele>
        <time>2022-01-20T14:32:40Z</time>
      </trkpt>
      <trkpt lat="47.24905" lon="-1.57915">
        <ele>57</ele>
        <time>2022-01-20T14:32:41Z</time>
      </trkpt>
      <trkpt lat="47.24904" lon="-1.57915">
        <ele>57</ele>
        <time>2022-01-20T14:32:42Z</time>
      </trkpt>
      <trkpt lat="47.24904" lon="-1.57914">
        <ele>57</ele>
        <time>2022-01-20T14:32:43Z</time>
      </trkpt>
      <trkpt lat="47.24902" lon="-1.57914">
        <ele>57</ele>
        <time>2022-01-20T14:32:44Z</time>
      </trkpt>
      <trkpt lat="47.24901" lon="-1.57913">
        <ele>58</ele>
        <time>2022-01-20T14:32:45Z</time>
      </trkpt>
      <trkpt lat="47.24899" lon="-1.57913">
        <ele>58</ele>
        <time>2022-01-20T14:32:46Z</time>
      </trkpt>
      <trkpt lat="47.24898" lon="-1.57912">
        <ele>58</ele>
        <time>2022-01-20T14:32:47Z</time>
      </trkpt>
      <trkpt lat="47.24897" lon="-1.57912">
        <ele>58</ele>
        <time>2022-01-20T14:32:48Z</time>
      </trkpt>
      <trkpt lat="47.24896" lon="-1.57911">
        <ele>59</ele>
        <time>2022-01-20T14:32:49Z</time>
      </trkpt>
      <trkpt lat="47.24896" lon="-1.57909">
        <ele>59</ele>
        <time>2022-01-20T14:32:50Z</time>
      </trkpt>
      <trkpt lat="47.24895" lon="-1.57908">
        <ele>59</ele>
        <time>2022-01-20T14:32:51Z</time>
      </trkpt>
      <trkpt lat="47.24894" lon="-1.57908">
        <ele>60</ele>
        <time>2022-01-20T14:32:52Z</time>
      </trkpt>
      <trkpt lat="47.24893" lon="-1.57907">
        <ele>60</ele>
        <time>2022-01-20T14:32:53Z</time>
      </trkpt>
      <trkpt lat="47.24892" lon="-1.57906">
        <ele>61</ele>
        <time>2022-01-20T14:32:54Z</time>
      </trkpt>
      <trkpt lat="47.24892" lon="-1.57905">
        <ele>62</ele>
        <time>2022-01-20T14:32:55Z</time>
      </trkpt>
      <trkpt lat="47.24891" lon="-1.57905">
        <ele>63</ele>
        <time>2022-01-20T14:32:56Z</time>
      </trkpt>
      <trkpt lat="47.24891" lon="-1.57905">
        <ele>63</ele>
        <time>2022-01-20T14:32:57Z</time>
      </trkpt>
      <trkpt lat="47.24891" lon="-1.57905">
        <ele>63</ele>
        <time>2022-01-20T14:32:58Z</time>
      </trkpt>
      <trkpt lat="47.24891" lon="-1.57905">
        <ele>63</ele>
        <time>2022-01-20T14:32:59Z</time>
      </trkpt>
      <trkpt lat="47.24889" lon="-1.579">
        <ele>61</ele>
        <time>2022-01-20T14:33:00Z</time>
      </trkpt>
      <trkpt lat="47.24889" lon="-1.57898">
        <ele>60</ele>
        <time>2022-01-20T14:33:01Z</time>
      </trkpt>
      <trkpt lat="47.24889" lon="-1.57897">
        <ele>60</ele>
        <time>2022-01-20T14:33:02Z</time>
      </trkpt>
      <trkpt lat="47.24889" lon="-1.57896">
        <ele>60</ele>
        <time>2022-01-20T14:33:03Z</time>
      </trkpt>
      <trkpt lat="47.24889" lon="-1.57896">
        <ele>60</ele>
        <time>2022-01-20T14:33:03Z</time>
      </trkpt>
      <trkpt lat="47.24888" lon="-1.57891">
        <ele>56</ele>
        <time>2022-01-20T14:33:39Z</time>
      </trkpt>
      <trkpt lat="47.24888" lon="-1.57891">
        <ele>56</ele>
        <time>2022-01-20T14:33:40Z</time>
      </trkpt>
      <trkpt lat="47.24888" lon="-1.57891">
        <ele>56</ele>
        <time>2022-01-20T14:33:41Z</time>
      </trkpt>
      <trkpt lat="47.24888" lon="-1.57891">
        <ele>56</ele>
        <time>2022-01-20T14:33:42Z</time>
      </trkpt>
      <trkpt lat="47.24885" lon="-1.5789">
        <ele>55</ele>
        <time>2022-01-20T14:33:43Z</time>
      </trkpt>
      <trkpt lat="47.24884" lon="-1.57889">
        <ele>56</ele>
        <time>2022-01-20T14:33:44Z</time>
      </trkpt>
      <trkpt lat="47.24884" lon="-1.57888">
        <ele>57</ele>
        <time>2022-01-20T14:33:45Z</time>
      </trkpt>
      <trkpt lat="47.24882" lon="-1.57887">
        <ele>57</ele>
        <time>2022-01-20T14:33:46Z</time>
      </trkpt>
      <trkpt lat="47.24881" lon="-1.57887">
        <ele>57</ele>
        <time>2022-01-20T14:33:47Z</time>
      </trkpt>
      <trkpt lat="47.24879" lon="-1.57887">
        <ele>57</ele>
        <time>2022-01-20T14:33:48Z</time>
      </trkpt>
      <trkpt lat="47.24878" lon="-1.57887">
        <ele>57</ele>
        <time>2022-01-20T14:33:49Z</time>
      </trkpt>
      <trkpt lat="47.24876" lon="-1.57887">
        <ele>58</ele>
        <time>2022-01-20T14:33:50Z</time>
      </trkpt>
      <trkpt lat="47.24875" lon="-1.57886">
        <ele>58</ele>
        <time>2022-01-20T14:33:51Z</time>
      </trkpt>
      <trkpt lat="47.24875" lon="-1.57885">
        <ele>59</ele>
        <time>2022-01-20T14:33:52Z</time>
      </trkpt>
      <trkpt lat="47.24874" lon="-1.57884">
        <ele>59</ele>
        <time>2022-01-20T14:33:53Z</time>
      </trkpt>
      <trkpt lat="47.24873" lon="-1.57883">
        <ele>60</ele>
        <time>2022-01-20T14:33:54Z</time>
      </trkpt>
      <trkpt lat="47.24873" lon="-1.57882">
        <ele>60</ele>
        <time>2022-01-20T14:33:55Z</time>
      </trkpt>
      <trkpt lat="47.24871" lon="-1.57881">
        <ele>60</ele>
        <time>2022-01-20T14:33:56Z</time>
      </trkpt>
      <trkpt lat="47.2487" lon="-1.5788">
        <ele>61</ele>
        <time>2022-01-20T14:33:57Z</time>
      </trkpt>
      <trkpt lat="47.2487" lon="-1.57878">
        <ele>61</ele>
        <time>2022-01-20T14:33:58Z</time>
      </trkpt>
      <trkpt lat="47.24869" lon="-1.57877">
        <ele>61</ele>
        <time>2022-01-20T14:33:59Z</time>
      </trkpt>
      <trkpt lat="47.24867" lon="-1.57877">
        <ele>62</ele>
        <time>2022-01-20T14:34:00Z</time>
      </trkpt>
      <trkpt lat="47.24866" lon="-1.57876">
        <ele>63</ele>
        <time>2022-01-20T14:34:01Z</time>
      </trkpt>
      <trkpt lat="47.24865" lon="-1.57875">
        <ele>64</ele>
        <time>2022-01-20T14:34:02Z</time>
      </trkpt>
      <trkpt lat="47.24863" lon="-1.57874">
        <ele>64</ele>
        <time>2022-01-20T14:34:03Z</time>
      </trkpt>
      <trkpt lat="47.24862" lon="-1.57873">
        <ele>64</ele>
        <time>2022-01-20T14:34:04Z</time>
      </trkpt>
      <trkpt lat="47.24862" lon="-1.57872">
        <ele>65</ele>
        <time>2022-01-20T14:34:05Z</time>
      </trkpt>
      <trkpt lat="47.24861" lon="-1.5787">
        <ele>65</ele>
        <time>2022-01-20T14:34:06Z</time>
      </trkpt>
      <trkpt lat="47.24861" lon="-1.57868">
        <ele>65</ele>
        <time>2022-01-20T14:34:07Z</time>
      </trkpt>
      <trkpt lat="47.2486" lon="-1.57866">
        <ele>66</ele>
        <time>2022-01-20T14:34:08Z</time>
      </trkpt>
      <trkpt lat="47.24859" lon="-1.57864">
        <ele>65</ele>
        <time>2022-01-20T14:34:09Z</time>
      </trkpt>
      <trkpt lat="47.24859" lon="-1.57862">
        <ele>64</ele>
        <time>2022-01-20T14:34:10Z</time>
      </trkpt>
      <trkpt lat="47.24858" lon="-1.5786">
        <ele>64</ele>
        <time>2022-01-20T14:34:11Z</time>
      </trkpt>
      <trkpt lat="47.24857" lon="-1.57858">
        <ele>64</ele>
        <time>2022-01-20T14:34:12Z</time>
      </trkpt>
      <trkpt lat="47.24857" lon="-1.57856">
        <ele>64</ele>
        <time>2022-01-20T14:34:13Z</time>
      </trkpt>
      <trkpt lat="47.24856" lon="-1.57854">
        <ele>64</ele>
        <time>2022-01-20T14:34:14Z</time>
      </trkpt>
      <trkpt lat="47.24856" lon="-1.57852">
        <ele>64</ele>
        <time>2022-01-20T14:34:15Z</time>
      </trkpt>
      <trkpt lat="47.24855" lon="-1.5785">
        <ele>64</ele>
        <time>2022-01-20T14:34:16Z</time>
      </trkpt>
      <trkpt lat="47.24854" lon="-1.57849">
        <ele>64</ele>
        <time>2022-01-20T14:34:17Z</time>
      </trkpt>
      <trkpt lat="47.24853" lon="-1.57849">
        <ele>64</ele>
        <time>2022-01-20T14:34:18Z</time>
      </trkpt>
      <trkpt lat="47.24851" lon="-1.57848">
        <ele>64</ele>
        <time>2022-01-20T14:34:19Z</time>
      </trkpt>
      <trkpt lat="47.2485" lon="-1.57847">
        <ele>64</ele>
        <time>2022-01-20T14:34:20Z</time>
      </trkpt>
      <trkpt lat="47.24847" lon="-1.57848">
        <ele>63</ele>
        <time>2022-01-20T14:34:21Z</time>
      </trkpt>
      <trkpt lat="47.24847" lon="-1.57847">
        <ele>63</ele>
        <time>2022-01-20T14:34:22Z</time>
      </trkpt>
      <trkpt lat="47.24846" lon="-1.57846">
        <ele>63</ele>
        <time>2022-01-20T14:34:23Z</time>
      </trkpt>
      <trkpt lat="47.24845" lon="-1.57844">
        <ele>64</ele>
        <time>2022-01-20T14:34:24Z</time>
      </trkpt>
      <trkpt lat="47.24845" lon="-1.57844">
        <ele>64</ele>
        <time>2022-01-20T14:34:25Z</time>
      </trkpt>
      <trkpt lat="47.24843" lon="-1.57843">
        <ele>65</ele>
        <time>2022-01-20T14:34:26Z</time>
      </trkpt>
      <trkpt lat="47.24842" lon="-1.57842">
        <ele>66</ele>
        <time>2022-01-20T14:34:27Z</time>
      </trkpt>
      <trkpt lat="47.24841" lon="-1.57841">
        <ele>66</ele>
        <time>2022-01-20T14:34:28Z</time>
      </trkpt>
      <trkpt lat="47.2484" lon="-1.57839">
        <ele>66</ele>
        <time>2022-01-20T14:34:29Z</time>
      </trkpt>
      <trkpt lat="47.2484" lon="-1.57837">
        <ele>66</ele>
        <time>2022-01-20T14:34:30Z</time>
      </trkpt>
      <trkpt lat="47.24839" lon="-1.57835">
        <ele>65</ele>
        <time>2022-01-20T14:34:31Z</time>
      </trkpt>
      <trkpt lat="47.24839" lon="-1.57833">
        <ele>65</ele>
        <time>2022-01-20T14:34:32Z</time>
      </trkpt>
      <trkpt lat="47.24839" lon="-1.57832">
        <ele>65</ele>
        <time>2022-01-20T14:34:33Z</time>
      </trkpt>
      <trkpt lat="47.24839" lon="-1.5783">
        <ele>66</ele>
        <time>2022-01-20T14:34:34Z</time>
      </trkpt>
      <trkpt lat="47.24838" lon="-1.57828">
        <ele>66</ele>
        <time>2022-01-20T14:34:35Z</time>
      </trkpt>
      <trkpt lat="47.24838" lon="-1.57826">
        <ele>66</ele>
        <time>2022-01-20T14:34:36Z</time>
      </trkpt>
      <trkpt lat="47.24838" lon="-1.57824">
        <ele>66</ele>
        <time>2022-01-20T14:34:37Z</time>
      </trkpt>
      <trkpt lat="47.24837" lon="-1.57822">
        <ele>66</ele>
        <time>2022-01-20T14:34:38Z</time>
      </trkpt>
      <trkpt lat="47.24836" lon="-1.5782">
        <ele>67</ele>
        <time>2022-01-20T14:34:39Z</time>
      </trkpt>
      <trkpt lat="47.24835" lon="-1.57818">
        <ele>67</ele>
        <time>2022-01-20T14:34:40Z</time>
      </trkpt>
      <trkpt lat="47.24834" lon="-1.57816">
        <ele>67</ele>
        <time>2022-01-20T14:34:41Z</time>
      </trkpt>
      <trkpt lat="47.24833" lon="-1.57814">
        <ele>67</ele>
        <time>2022-01-20T14:34:42Z</time>
      </trkpt>
      <trkpt lat="47.24832" lon="-1.57813">
        <ele>67</ele>
        <time>2022-01-20T14:34:43Z</time>
      </trkpt>
      <trkpt lat="47.24831" lon="-1.57811">
        <ele>67</ele>
        <time>2022-01-20T14:34:44Z</time>
      </trkpt>
      <trkpt lat="47.2483" lon="-1.57811">
        <ele>67</ele>
        <time>2022-01-20T14:34:45Z</time>
      </trkpt>
      <trkpt lat="47.24828" lon="-1.57811">
        <ele>67</ele>
        <time>2022-01-20T14:34:46Z</time>
      </trkpt>
      <trkpt lat="47.24827" lon="-1.57811">
        <ele>67</ele>
        <time>2022-01-20T14:34:47Z</time>
      </trkpt>
      <trkpt lat="47.24825" lon="-1.57809">
        <ele>67</ele>
        <time>2022-01-20T14:34:48Z</time>
      </trkpt>
      <trkpt lat="47.24824" lon="-1.57808">
        <ele>67</ele>
        <time>2022-01-20T14:34:49Z</time>
      </trkpt>
      <trkpt lat="47.24823" lon="-1.57807">
        <ele>67</ele>
        <time>2022-01-20T14:34:50Z</time>
      </trkpt>
      <trkpt lat="47.24822" lon="-1.57806">
        <ele>66</ele>
        <time>2022-01-20T14:34:51Z</time>
      </trkpt>
      <trkpt lat="47.24822" lon="-1.57805">
        <ele>67</ele>
        <time>2022-01-20T14:34:52Z</time>
      </trkpt>
      <trkpt lat="47.24821" lon="-1.57803">
        <ele>67</ele>
        <time>2022-01-20T14:34:53Z</time>
      </trkpt>
      <trkpt lat="47.2482" lon="-1.57802">
        <ele>67</ele>
        <time>2022-01-20T14:34:54Z</time>
      </trkpt>
      <trkpt lat="47.24819" lon="-1.578">
        <ele>68</ele>
        <time>2022-01-20T14:34:55Z</time>
      </trkpt>
      <trkpt lat="47.24818" lon="-1.57799">
        <ele>68</ele>
        <time>2022-01-20T14:34:56Z</time>
      </trkpt>
      <trkpt lat="47.24816" lon="-1.57797">
        <ele>68</ele>
        <time>2022-01-20T14:34:57Z</time>
      </trkpt>
      <trkpt lat="47.24814" lon="-1.57797">
        <ele>68</ele>
        <time>2022-01-20T14:34:58Z</time>
      </trkpt>
      <trkpt lat="47.24813" lon="-1.57796">
        <ele>67</ele>
        <time>2022-01-20T14:34:59Z</time>
      </trkpt>
      <trkpt lat="47.24812" lon="-1.57796">
        <ele>67</ele>
        <time>2022-01-20T14:35:00Z</time>
      </trkpt>
      <trkpt lat="47.24812" lon="-1.57795">
        <ele>67</ele>
        <time>2022-01-20T14:35:01Z</time>
      </trkpt>
      <trkpt lat="47.2481" lon="-1.57794">
        <ele>67</ele>
        <time>2022-01-20T14:35:02Z</time>
      </trkpt>
      <trkpt lat="47.24809" lon="-1.57793">
        <ele>66</ele>
        <time>2022-01-20T14:35:03Z</time>
      </trkpt>
      <trkpt lat="47.24809" lon="-1.57791">
        <ele>66</ele>
        <time>2022-01-20T14:35:04Z</time>
      </trkpt>
      <trkpt lat="47.24807" lon="-1.57789">
        <ele>65</ele>
        <time>2022-01-20T14:35:05Z</time>
      </trkpt>
      <trkpt lat="47.24807" lon="-1.57788">
        <ele>65</ele>
        <time>2022-01-20T14:35:06Z</time>
      </trkpt>
      <trkpt lat="47.24806" lon="-1.57786">
        <ele>65</ele>
        <time>2022-01-20T14:35:07Z</time>
      </trkpt>
      <trkpt lat="47.24805" lon="-1.57785">
        <ele>66</ele>
        <time>2022-01-20T14:35:08Z</time>
      </trkpt>
      <trkpt lat="47.24804" lon="-1.57783">
        <ele>65</ele>
        <time>2022-01-20T14:35:09Z</time>
      </trkpt>
      <trkpt lat="47.24803" lon="-1.57782">
        <ele>65</ele>
        <time>2022-01-20T14:35:10Z</time>
      </trkpt>
      <trkpt lat="47.24802" lon="-1.57781">
        <ele>65</ele>
        <time>2022-01-20T14:35:11Z</time>
      </trkpt>
      <trkpt lat="47.24801" lon="-1.5778">
        <ele>65</ele>
        <time>2022-01-20T14:35:12Z</time>
      </trkpt>
      <trkpt lat="47.248" lon="-1.57778">
        <ele>65</ele>
        <time>2022-01-20T14:35:13Z</time>
      </trkpt>
      <trkpt lat="47.24799" lon="-1.57776">
        <ele>65</ele>
        <time>2022-01-20T14:35:14Z</time>
      </trkpt>
      <trkpt lat="47.24797" lon="-1.57775">
        <ele>66</ele>
        <time>2022-01-20T14:35:15Z</time>
      </trkpt>
      <trkpt lat="47.24796" lon="-1.57773">
        <ele>66</ele>
        <time>2022-01-20T14:35:16Z</time>
      </trkpt>
      <trkpt lat="47.24796" lon="-1.57771">
        <ele>65</ele>
        <time>2022-01-20T14:35:17Z</time>
      </trkpt>
      <trkpt lat="47.24796" lon="-1.57769">
        <ele>65</ele>
        <time>2022-01-20T14:35:18Z</time>
      </trkpt>
      <trkpt lat="47.24795" lon="-1.57768">
        <ele>65</ele>
        <time>2022-01-20T14:35:19Z</time>
      </trkpt>
      <trkpt lat="47.24795" lon="-1.57766">
        <ele>65</ele>
        <time>2022-01-20T14:35:20Z</time>
      </trkpt>
      <trkpt lat="47.24795" lon="-1.57765">
        <ele>65</ele>
        <time>2022-01-20T14:35:21Z</time>
      </trkpt>
      <trkpt lat="47.24794" lon="-1.57763">
        <ele>66</ele>
        <time>2022-01-20T14:35:22Z</time>
      </trkpt>
      <trkpt lat="47.24794" lon="-1.57761">
        <ele>66</ele>
        <time>2022-01-20T14:35:23Z</time>
      </trkpt>
      <trkpt lat="47.24793" lon="-1.57759">
        <ele>66</ele>
        <time>2022-01-20T14:35:24Z</time>
      </trkpt>
      <trkpt lat="47.24792" lon="-1.57758">
        <ele>66</ele>
        <time>2022-01-20T14:35:25Z</time>
      </trkpt>
      <trkpt lat="47.24791" lon="-1.57757">
        <ele>66</ele>
        <time>2022-01-20T14:35:26Z</time>
      </trkpt>
      <trkpt lat="47.24789" lon="-1.57757">
        <ele>66</ele>
        <time>2022-01-20T14:35:27Z</time>
      </trkpt>
      <trkpt lat="47.24787" lon="-1.57758">
        <ele>66</ele>
        <time>2022-01-20T14:35:28Z</time>
      </trkpt>
      <trkpt lat="47.24786" lon="-1.57759">
        <ele>66</ele>
        <time>2022-01-20T14:35:29Z</time>
      </trkpt>
      <trkpt lat="47.24786" lon="-1.57759">
        <ele>66</ele>
        <time>2022-01-20T14:35:30Z</time>
      </trkpt>
      <trkpt lat="47.24786" lon="-1.57759">
        <ele>66</ele>
        <time>2022-01-20T14:35:31Z</time>
      </trkpt>
      <trkpt lat="47.24783" lon="-1.5776">
        <ele>65</ele>
        <time>2022-01-20T14:35:32Z</time>
      </trkpt>
      <trkpt lat="47.24782" lon="-1.5776">
        <ele>65</ele>
        <time>2022-01-20T14:35:33Z</time>
      </trkpt>
      <trkpt lat="47.24781" lon="-1.5776">
        <ele>65</ele>
        <time>2022-01-20T14:35:34Z</time>
      </trkpt>
      <trkpt lat="47.2478" lon="-1.57759">
        <ele>64</ele>
        <time>2022-01-20T14:35:35Z</time>
      </trkpt>
      <trkpt lat="47.24779" lon="-1.57758">
        <ele>63</ele>
        <time>2022-01-20T14:35:36Z</time>
      </trkpt>
      <trkpt lat="47.24778" lon="-1.57757">
        <ele>64</ele>
        <time>2022-01-20T14:35:37Z</time>
      </trkpt>
      <trkpt lat="47.24777" lon="-1.57755">
        <ele>63</ele>
        <time>2022-01-20T14:35:38Z</time>
      </trkpt>
      <trkpt lat="47.24775" lon="-1.57755">
        <ele>63</ele>
        <time>2022-01-20T14:35:39Z</time>
      </trkpt>
      <trkpt lat="47.24774" lon="-1.57754">
        <ele>63</ele>
        <time>2022-01-20T14:35:40Z</time>
      </trkpt>
      <trkpt lat="47.24772" lon="-1.57754">
        <ele>63</ele>
        <time>2022-01-20T14:35:41Z</time>
      </trkpt>
      <trkpt lat="47.24771" lon="-1.57753">
        <ele>62</ele>
        <time>2022-01-20T14:35:42Z</time>
      </trkpt>
      <trkpt lat="47.24769" lon="-1.57753">
        <ele>62</ele>
        <time>2022-01-20T14:35:43Z</time>
      </trkpt>
      <trkpt lat="47.24768" lon="-1.57753">
        <ele>63</ele>
        <time>2022-01-20T14:35:44Z</time>
      </trkpt>
      <trkpt lat="47.24767" lon="-1.57752">
        <ele>63</ele>
        <time>2022-01-20T14:35:45Z</time>
      </trkpt>
      <trkpt lat="47.24765" lon="-1.57752">
        <ele>63</ele>
        <time>2022-01-20T14:35:46Z</time>
      </trkpt>
      <trkpt lat="47.24764" lon="-1.57752">
        <ele>63</ele>
        <time>2022-01-20T14:35:47Z</time>
      </trkpt>
      <trkpt lat="47.24763" lon="-1.57752">
        <ele>63</ele>
        <time>2022-01-20T14:35:48Z</time>
      </trkpt>
      <trkpt lat="47.24762" lon="-1.57753">
        <ele>63</ele>
        <time>2022-01-20T14:35:49Z</time>
      </trkpt>
      <trkpt lat="47.2476" lon="-1.57753">
        <ele>63</ele>
        <time>2022-01-20T14:35:50Z</time>
      </trkpt>
      <trkpt lat="47.24759" lon="-1.57754">
        <ele>62</ele>
        <time>2022-01-20T14:35:51Z</time>
      </trkpt>
      <trkpt lat="47.24757" lon="-1.57755">
        <ele>62</ele>
        <time>2022-01-20T14:35:52Z</time>
      </trkpt>
      <trkpt lat="47.24755" lon="-1.57755">
        <ele>62</ele>
        <time>2022-01-20T14:35:53Z</time>
      </trkpt>
      <trkpt lat="47.24753" lon="-1.57756">
        <ele>61</ele>
        <time>2022-01-20T14:35:54Z</time>
      </trkpt>
      <trkpt lat="47.2475" lon="-1.57756">
        <ele>61</ele>
        <time>2022-01-20T14:35:56Z</time>
      </trkpt>
      <trkpt lat="47.24749" lon="-1.57756">
        <ele>61</ele>
        <time>2022-01-20T14:35:57Z</time>
      </trkpt>
      <trkpt lat="47.24747" lon="-1.57756">
        <ele>61</ele>
        <time>2022-01-20T14:35:58Z</time>
      </trkpt>
      <trkpt lat="47.24746" lon="-1.57756">
        <ele>61</ele>
        <time>2022-01-20T14:35:59Z</time>
      </trkpt>
      <trkpt lat="47.24745" lon="-1.57756">
        <ele>61</ele>
        <time>2022-01-20T14:36:00Z</time>
      </trkpt>
      <trkpt lat="47.24743" lon="-1.57756">
        <ele>61</ele>
        <time>2022-01-20T14:36:01Z</time>
      </trkpt>
      <trkpt lat="47.24743" lon="-1.57755">
        <ele>61</ele>
        <time>2022-01-20T14:36:02Z</time>
      </trkpt>
      <trkpt lat="47.24742" lon="-1.57755">
        <ele>60</ele>
        <time>2022-01-20T14:36:03Z</time>
      </trkpt>
      <trkpt lat="47.24741" lon="-1.57754">
        <ele>60</ele>
        <time>2022-01-20T14:36:04Z</time>
      </trkpt>
      <trkpt lat="47.24741" lon="-1.57754">
        <ele>60</ele>
        <time>2022-01-20T14:36:05Z</time>
      </trkpt>
      <trkpt lat="47.24739" lon="-1.57753">
        <ele>60</ele>
        <time>2022-01-20T14:36:06Z</time>
      </trkpt>
      <trkpt lat="47.24737" lon="-1.57752">
        <ele>59</ele>
        <time>2022-01-20T14:36:07Z</time>
      </trkpt>
      <trkpt lat="47.24736" lon="-1.57751">
        <ele>59</ele>
        <time>2022-01-20T14:36:08Z</time>
      </trkpt>
      <trkpt lat="47.24736" lon="-1.57751">
        <ele>59</ele>
        <time>2022-01-20T14:36:09Z</time>
      </trkpt>
      <trkpt lat="47.24735" lon="-1.57751">
        <ele>60</ele>
        <time>2022-01-20T14:36:10Z</time>
      </trkpt>
      <trkpt lat="47.24734" lon="-1.57752">
        <ele>60</ele>
        <time>2022-01-20T14:36:11Z</time>
      </trkpt>
      <trkpt lat="47.24733" lon="-1.57751">
        <ele>60</ele>
        <time>2022-01-20T14:36:12Z</time>
      </trkpt>
      <trkpt lat="47.24732" lon="-1.57752">
        <ele>61</ele>
        <time>2022-01-20T14:36:13Z</time>
      </trkpt>
      <trkpt lat="47.24731" lon="-1.57753">
        <ele>60</ele>
        <time>2022-01-20T14:36:14Z</time>
      </trkpt>
      <trkpt lat="47.2473" lon="-1.57753">
        <ele>59</ele>
        <time>2022-01-20T14:36:15Z</time>
      </trkpt>
      <trkpt lat="47.24729" lon="-1.57753">
        <ele>59</ele>
        <time>2022-01-20T14:36:16Z</time>
      </trkpt>
      <trkpt lat="47.24728" lon="-1.57752">
        <ele>60</ele>
        <time>2022-01-20T14:36:17Z</time>
      </trkpt>
      <trkpt lat="47.24727" lon="-1.57753">
        <ele>61</ele>
        <time>2022-01-20T14:36:18Z</time>
      </trkpt>
      <trkpt lat="47.24726" lon="-1.57753">
        <ele>61</ele>
        <time>2022-01-20T14:36:19Z</time>
      </trkpt>
      <trkpt lat="47.24725" lon="-1.57754">
        <ele>61</ele>
        <time>2022-01-20T14:36:20Z</time>
      </trkpt>
      <trkpt lat="47.24724" lon="-1.57754">
        <ele>60</ele>
        <time>2022-01-20T14:36:21Z</time>
      </trkpt>
      <trkpt lat="47.24724" lon="-1.57754">
        <ele>60</ele>
        <time>2022-01-20T14:36:22Z</time>
      </trkpt>
      <trkpt lat="47.24722" lon="-1.57752">
        <ele>60</ele>
        <time>2022-01-20T14:36:23Z</time>
      </trkpt>
      <trkpt lat="47.24721" lon="-1.57751">
        <ele>59</ele>
        <time>2022-01-20T14:36:24Z</time>
      </trkpt>
      <trkpt lat="47.24719" lon="-1.5775">
        <ele>59</ele>
        <time>2022-01-20T14:36:25Z</time>
      </trkpt>
      <trkpt lat="47.24719" lon="-1.5775">
        <ele>58</ele>
        <time>2022-01-20T14:36:26Z</time>
      </trkpt>
      <trkpt lat="47.24718" lon="-1.5775">
        <ele>59</ele>
        <time>2022-01-20T14:36:27Z</time>
      </trkpt>
      <trkpt lat="47.24717" lon="-1.57751">
        <ele>58</ele>
        <time>2022-01-20T14:36:28Z</time>
      </trkpt>
      <trkpt lat="47.24717" lon="-1.57751">
        <ele>57</ele>
        <time>2022-01-20T14:36:29Z</time>
      </trkpt>
      <trkpt lat="47.24717" lon="-1.57751">
        <ele>57</ele>
        <time>2022-01-20T14:36:30Z</time>
      </trkpt>
      <trkpt lat="47.24717" lon="-1.57751">
        <ele>57</ele>
        <time>2022-01-20T14:36:31Z</time>
      </trkpt>
      <trkpt lat="47.24715" lon="-1.57753">
        <ele>57</ele>
        <time>2022-01-20T14:36:32Z</time>
      </trkpt>
      <trkpt lat="47.24714" lon="-1.57753">
        <ele>57</ele>
        <time>2022-01-20T14:36:33Z</time>
      </trkpt>
      <trkpt lat="47.24714" lon="-1.57753">
        <ele>57</ele>
        <time>2022-01-20T14:36:34Z</time>
      </trkpt>
      <trkpt lat="47.24712" lon="-1.57754">
        <ele>57</ele>
        <time>2022-01-20T14:36:35Z</time>
      </trkpt>
      <trkpt lat="47.24711" lon="-1.57754">
        <ele>57</ele>
        <time>2022-01-20T14:36:36Z</time>
      </trkpt>
      <trkpt lat="47.24711" lon="-1.57754">
        <ele>57</ele>
        <time>2022-01-20T14:36:37Z</time>
      </trkpt>
      <trkpt lat="47.24709" lon="-1.57754">
        <ele>57</ele>
        <time>2022-01-20T14:36:38Z</time>
      </trkpt>
      <trkpt lat="47.24709" lon="-1.57754">
        <ele>58</ele>
        <time>2022-01-20T14:36:39Z</time>
      </trkpt>
      <trkpt lat="47.24707" lon="-1.57755">
        <ele>58</ele>
        <time>2022-01-20T14:36:40Z</time>
      </trkpt>
      <trkpt lat="47.24707" lon="-1.57755">
        <ele>58</ele>
        <time>2022-01-20T14:36:41Z</time>
      </trkpt>
      <trkpt lat="47.24705" lon="-1.57754">
        <ele>57</ele>
        <time>2022-01-20T14:36:42Z</time>
      </trkpt>
      <trkpt lat="47.24704" lon="-1.57754">
        <ele>57</ele>
        <time>2022-01-20T14:36:43Z</time>
      </trkpt>
      <trkpt lat="47.24703" lon="-1.57754">
        <ele>58</ele>
        <time>2022-01-20T14:36:44Z</time>
      </trkpt>
      <trkpt lat="47.24703" lon="-1.57754">
        <ele>57</ele>
        <time>2022-01-20T14:36:45Z</time>
      </trkpt>
      <trkpt lat="47.24702" lon="-1.57753">
        <ele>57</ele>
        <time>2022-01-20T14:36:46Z</time>
      </trkpt>
      <trkpt lat="47.24701" lon="-1.57752">
        <ele>57</ele>
        <time>2022-01-20T14:36:47Z</time>
      </trkpt>
      <trkpt lat="47.247" lon="-1.57752">
        <ele>57</ele>
        <time>2022-01-20T14:36:48Z</time>
      </trkpt>
      <trkpt lat="47.24698" lon="-1.57752">
        <ele>56</ele>
        <time>2022-01-20T14:36:49Z</time>
      </trkpt>
      <trkpt lat="47.24697" lon="-1.57751">
        <ele>56</ele>
        <time>2022-01-20T14:36:50Z</time>
      </trkpt>
      <trkpt lat="47.24696" lon="-1.57751">
        <ele>56</ele>
        <time>2022-01-20T14:36:51Z</time>
      </trkpt>
      <trkpt lat="47.24695" lon="-1.57751">
        <ele>55</ele>
        <time>2022-01-20T14:36:52Z</time>
      </trkpt>
      <trkpt lat="47.24694" lon="-1.57751">
        <ele>55</ele>
        <time>2022-01-20T14:36:53Z</time>
      </trkpt>
      <trkpt lat="47.24693" lon="-1.57751">
        <ele>55</ele>
        <time>2022-01-20T14:36:54Z</time>
      </trkpt>
      <trkpt lat="47.24693" lon="-1.57751">
        <ele>55</ele>
        <time>2022-01-20T14:36:55Z</time>
      </trkpt>
      <trkpt lat="47.24693" lon="-1.57751">
        <ele>55</ele>
        <time>2022-01-20T14:36:56Z</time>
      </trkpt>
      <trkpt lat="47.24691" lon="-1.57752">
        <ele>54</ele>
        <time>2022-01-20T14:36:57Z</time>
      </trkpt>
      <trkpt lat="47.2469" lon="-1.57752">
        <ele>54</ele>
        <time>2022-01-20T14:36:58Z</time>
      </trkpt>
      <trkpt lat="47.2469" lon="-1.57753">
        <ele>54</ele>
        <time>2022-01-20T14:36:59Z</time>
      </trkpt>
      <trkpt lat="47.24689" lon="-1.57753">
        <ele>54</ele>
        <time>2022-01-20T14:37:00Z</time>
      </trkpt>
      <trkpt lat="47.24688" lon="-1.57754">
        <ele>54</ele>
        <time>2022-01-20T14:37:01Z</time>
      </trkpt>
      <trkpt lat="47.24688" lon="-1.57756">
        <ele>54</ele>
        <time>2022-01-20T14:37:02Z</time>
      </trkpt>
      <trkpt lat="47.24688" lon="-1.57758">
        <ele>54</ele>
        <time>2022-01-20T14:37:03Z</time>
      </trkpt>
      <trkpt lat="47.24688" lon="-1.57759">
        <ele>55</ele>
        <time>2022-01-20T14:37:04Z</time>
      </trkpt>
      <trkpt lat="47.24688" lon="-1.5776">
        <ele>55</ele>
        <time>2022-01-20T14:37:05Z</time>
      </trkpt>
      <trkpt lat="47.24688" lon="-1.57761">
        <ele>55</ele>
        <time>2022-01-20T14:37:06Z</time>
      </trkpt>
      <trkpt lat="47.24687" lon="-1.57762">
        <ele>55</ele>
        <time>2022-01-20T14:37:07Z</time>
      </trkpt>
      <trkpt lat="47.24687" lon="-1.57763">
        <ele>54</ele>
        <time>2022-01-20T14:37:08Z</time>
      </trkpt>
      <trkpt lat="47.24686" lon="-1.57764">
        <ele>54</ele>
        <time>2022-01-20T14:37:09Z</time>
      </trkpt>
      <trkpt lat="47.24686" lon="-1.57765">
        <ele>54</ele>
        <time>2022-01-20T14:37:10Z</time>
      </trkpt>
      <trkpt lat="47.24685" lon="-1.57766">
        <ele>54</ele>
        <time>2022-01-20T14:37:11Z</time>
      </trkpt>
      <trkpt lat="47.24685" lon="-1.57767">
        <ele>54</ele>
        <time>2022-01-20T14:37:12Z</time>
      </trkpt>
      <trkpt lat="47.24685" lon="-1.57769">
        <ele>54</ele>
        <time>2022-01-20T14:37:13Z</time>
      </trkpt>
      <trkpt lat="47.24684" lon="-1.57771">
        <ele>54</ele>
        <time>2022-01-20T14:37:14Z</time>
      </trkpt>
      <trkpt lat="47.24684" lon="-1.57772">
        <ele>55</ele>
        <time>2022-01-20T14:37:15Z</time>
      </trkpt>
      <trkpt lat="47.24683" lon="-1.57773">
        <ele>55</ele>
        <time>2022-01-20T14:37:16Z</time>
      </trkpt>
      <trkpt lat="47.24682" lon="-1.57773">
        <ele>56</ele>
        <time>2022-01-20T14:37:17Z</time>
      </trkpt>
      <trkpt lat="47.24681" lon="-1.57773">
        <ele>56</ele>
        <time>2022-01-20T14:37:18Z</time>
      </trkpt>
      <trkpt lat="47.2468" lon="-1.57773">
        <ele>56</ele>
        <time>2022-01-20T14:37:19Z</time>
      </trkpt>
      <trkpt lat="47.2468" lon="-1.57774">
        <ele>56</ele>
        <time>2022-01-20T14:37:20Z</time>
      </trkpt>
      <trkpt lat="47.24679" lon="-1.57775">
        <ele>57</ele>
        <time>2022-01-20T14:37:21Z</time>
      </trkpt>
      <trkpt lat="47.24678" lon="-1.57777">
        <ele>57</ele>
        <time>2022-01-20T14:37:22Z</time>
      </trkpt>
      <trkpt lat="47.24678" lon="-1.57779">
        <ele>57</ele>
        <time>2022-01-20T14:37:23Z</time>
      </trkpt>
      <trkpt lat="47.24678" lon="-1.57781">
        <ele>57</ele>
        <time>2022-01-20T14:37:24Z</time>
      </trkpt>
      <trkpt lat="47.24678" lon="-1.57783">
        <ele>57</ele>
        <time>2022-01-20T14:37:25Z</time>
      </trkpt>
      <trkpt lat="47.24678" lon="-1.57784">
        <ele>57</ele>
        <time>2022-01-20T14:37:26Z</time>
      </trkpt>
      <trkpt lat="47.24678" lon="-1.57785">
        <ele>57</ele>
        <time>2022-01-20T14:37:27Z</time>
      </trkpt>
      <trkpt lat="47.24677" lon="-1.57786">
        <ele>57</ele>
        <time>2022-01-20T14:37:28Z</time>
      </trkpt>
      <trkpt lat="47.24677" lon="-1.57786">
        <ele>57</ele>
        <time>2022-01-20T14:37:29Z</time>
      </trkpt>
      <trkpt lat="47.24677" lon="-1.57786">
        <ele>57</ele>
        <time>2022-01-20T14:37:30Z</time>
      </trkpt>
      <trkpt lat="47.24678" lon="-1.57787">
        <ele>56</ele>
        <time>2022-01-20T14:37:31Z</time>
      </trkpt>
      <trkpt lat="47.24678" lon="-1.57788">
        <ele>56</ele>
        <time>2022-01-20T14:37:32Z</time>
      </trkpt>
      <trkpt lat="47.24678" lon="-1.57788">
        <ele>56</ele>
        <time>2022-01-20T14:37:33Z</time>
      </trkpt>
      <trkpt lat="47.24679" lon="-1.57788">
        <ele>56</ele>
        <time>2022-01-20T14:37:34Z</time>
      </trkpt>
      <trkpt lat="47.24679" lon="-1.57788">
        <ele>56</ele>
        <time>2022-01-20T14:37:35Z</time>
      </trkpt>
      <trkpt lat="47.24679" lon="-1.57788">
        <ele>56</ele>
        <time>2022-01-20T14:37:36Z</time>
      </trkpt>
      <trkpt lat="47.24679" lon="-1.57788">
        <ele>56</ele>
        <time>2022-01-20T14:37:37Z</time>
      </trkpt>
      <trkpt lat="47.24679" lon="-1.57788">
        <ele>56</ele>
        <time>2022-01-20T14:37:38Z</time>
      </trkpt>
      <trkpt lat="47.2468" lon="-1.57786">
        <ele>57</ele>
        <time>2022-01-20T14:37:39Z</time>
      </trkpt>
      <trkpt lat="47.24681" lon="-1.57786">
        <ele>57</ele>
        <time>2022-01-20T14:37:40Z</time>
      </trkpt>
      <trkpt lat="47.24681" lon="-1.57786">
        <ele>57</ele>
        <time>2022-01-20T14:37:41Z</time>
      </trkpt>
      <trkpt lat="47.24681" lon="-1.57786">
        <ele>57</ele>
        <time>2022-01-20T14:37:42Z</time>
      </trkpt>
      <trkpt lat="47.24682" lon="-1.57785">
        <ele>56</ele>
        <time>2022-01-20T14:37:43Z</time>
      </trkpt>
      <trkpt lat="47.24682" lon="-1.57785">
        <ele>56</ele>
        <time>2022-01-20T14:37:44Z</time>
      </trkpt>
      <trkpt lat="47.24682" lon="-1.57785">
        <ele>56</ele>
        <time>2022-01-20T14:37:45Z</time>
      </trkpt>
      <trkpt lat="47.24683" lon="-1.57785">
        <ele>56</ele>
        <time>2022-01-20T14:37:46Z</time>
      </trkpt>
      <trkpt lat="47.24682" lon="-1.57785">
        <ele>56</ele>
        <time>2022-01-20T14:37:47Z</time>
      </trkpt>
      <trkpt lat="47.24682" lon="-1.57785">
        <ele>56</ele>
        <time>2022-01-20T14:37:47Z</time>
      </trkpt>
      <trkpt lat="47.24682" lon="-1.57785">
        <ele>56</ele>
        <time>2022-01-20T14:37:47Z</time>
      </trkpt>
      <trkpt lat="47.24682" lon="-1.57792">
        <ele>56</ele>
        <time>2022-01-20T14:38:16Z</time>
      </trkpt>
      <trkpt lat="47.24683" lon="-1.5779">
        <ele>56</ele>
        <time>2022-01-20T14:38:17Z</time>
      </trkpt>
      <trkpt lat="47.24684" lon="-1.57788">
        <ele>56</ele>
        <time>2022-01-20T14:38:18Z</time>
      </trkpt>
      <trkpt lat="47.24685" lon="-1.57786">
        <ele>56</ele>
        <time>2022-01-20T14:38:20Z</time>
      </trkpt>
      <trkpt lat="47.24685" lon="-1.57787">
        <ele>56</ele>
        <time>2022-01-20T14:38:21Z</time>
      </trkpt>
      <trkpt lat="47.24685" lon="-1.57787">
        <ele>55</ele>
        <time>2022-01-20T14:38:22Z</time>
      </trkpt>
      <trkpt lat="47.24686" lon="-1.57786">
        <ele>56</ele>
        <time>2022-01-20T14:38:23Z</time>
      </trkpt>
      <trkpt lat="47.24686" lon="-1.57786">
        <ele>56</ele>
        <time>2022-01-20T14:38:23Z</time>
      </trkpt>
      <trkpt lat="47.24686" lon="-1.57786">
        <ele>56</ele>
        <time>2022-01-20T14:38:23Z</time>
      </trkpt>
      <trkpt lat="47.24679" lon="-1.57795">
        <ele>55</ele>
        <time>2022-01-20T14:38:30Z</time>
      </trkpt>
      <trkpt lat="47.24679" lon="-1.57795">
        <ele>55</ele>
        <time>2022-01-20T14:38:31Z</time>
      </trkpt>
      <trkpt lat="47.24679" lon="-1.57795">
        <ele>55</ele>
        <time>2022-01-20T14:38:32Z</time>
      </trkpt>
      <trkpt lat="47.24679" lon="-1.57795">
        <ele>55</ele>
        <time>2022-01-20T14:38:33Z</time>
      </trkpt>
      <trkpt lat="47.24679" lon="-1.57795">
        <ele>55</ele>
        <time>2022-01-20T14:38:34Z</time>
      </trkpt>
      <trkpt lat="47.24679" lon="-1.57795">
        <ele>55</ele>
        <time>2022-01-20T14:38:35Z</time>
      </trkpt>
      <trkpt lat="47.24679" lon="-1.57795">
        <ele>55</ele>
        <time>2022-01-20T14:38:36Z</time>
      </trkpt>
      <trkpt lat="47.24679" lon="-1.57795">
        <ele>55</ele>
        <time>2022-01-20T14:38:37Z</time>
      </trkpt>
      <trkpt lat="47.24679" lon="-1.57795">
        <ele>55</ele>
        <time>2022-01-20T14:38:38Z</time>
      </trkpt>
      <trkpt lat="47.24679" lon="-1.57795">
        <ele>55</ele>
        <time>2022-01-20T14:38:39Z</time>
      </trkpt>
      <trkpt lat="47.24679" lon="-1.578">
        <ele>54</ele>
        <time>2022-01-20T14:38:40Z</time>
      </trkpt>
      <trkpt lat="47.24679" lon="-1.57799">
        <ele>54</ele>
        <time>2022-01-20T14:38:41Z</time>
      </trkpt>
      <trkpt lat="47.24678" lon="-1.57798">
        <ele>54</ele>
        <time>2022-01-20T14:38:42Z</time>
      </trkpt>
      <trkpt lat="47.24677" lon="-1.57798">
        <ele>54</ele>
        <time>2022-01-20T14:38:43Z</time>
      </trkpt>
      <trkpt lat="47.24677" lon="-1.57798">
        <ele>54</ele>
        <time>2022-01-20T14:38:44Z</time>
      </trkpt>
      <trkpt lat="47.24677" lon="-1.57798">
        <ele>54</ele>
        <time>2022-01-20T14:38:45Z</time>
      </trkpt>
      <trkpt lat="47.24673" lon="-1.57795">
        <ele>51</ele>
        <time>2022-01-20T14:38:46Z</time>
      </trkpt>
      <trkpt lat="47.24672" lon="-1.57795">
        <ele>50</ele>
        <time>2022-01-20T14:38:47Z</time>
      </trkpt>
      <trkpt lat="47.24671" lon="-1.57794">
        <ele>49</ele>
        <time>2022-01-20T14:38:48Z</time>
      </trkpt>
      <trkpt lat="47.2467" lon="-1.57794">
        <ele>49</ele>
        <time>2022-01-20T14:38:49Z</time>
      </trkpt>
      <trkpt lat="47.2467" lon="-1.57794">
        <ele>49</ele>
        <time>2022-01-20T14:38:50Z</time>
      </trkpt>
      <trkpt lat="47.2467" lon="-1.57794">
        <ele>49</ele>
        <time>2022-01-20T14:38:51Z</time>
      </trkpt>
      <trkpt lat="47.24669" lon="-1.57794">
        <ele>50</ele>
        <time>2022-01-20T14:38:52Z</time>
      </trkpt>
      <trkpt lat="47.24669" lon="-1.57794">
        <ele>50</ele>
        <time>2022-01-20T14:38:53Z</time>
      </trkpt>
      <trkpt lat="47.24669" lon="-1.57795">
        <ele>50</ele>
        <time>2022-01-20T14:38:54Z</time>
      </trkpt>
      <trkpt lat="47.24668" lon="-1.57795">
        <ele>49</ele>
        <time>2022-01-20T14:38:55Z</time>
      </trkpt>
      <trkpt lat="47.24668" lon="-1.57795">
        <ele>49</ele>
        <time>2022-01-20T14:38:56Z</time>
      </trkpt>
      <trkpt lat="47.24668" lon="-1.57795">
        <ele>49</ele>
        <time>2022-01-20T14:38:57Z</time>
      </trkpt>
      <trkpt lat="47.24667" lon="-1.57796">
        <ele>49</ele>
        <time>2022-01-20T14:38:58Z</time>
      </trkpt>
      <trkpt lat="47.24667" lon="-1.57796">
        <ele>49</ele>
        <time>2022-01-20T14:38:59Z</time>
      </trkpt>
      <trkpt lat="47.24667" lon="-1.57796">
        <ele>49</ele>
        <time>2022-01-20T14:39:00Z</time>
      </trkpt>
      <trkpt lat="47.24667" lon="-1.57796">
        <ele>49</ele>
        <time>2022-01-20T14:39:00Z</time>
      </trkpt>
      <trkpt lat="47.24667" lon="-1.57796">
        <ele>49</ele>
        <time>2022-01-20T14:39:00Z</time>
      </trkpt>
      <trkpt lat="47.24678" lon="-1.57786">
        <ele>51</ele>
        <time>2022-01-20T14:46:26Z</time>
      </trkpt>
      <trkpt lat="47.24678" lon="-1.57786">
        <ele>51</ele>
        <time>2022-01-20T14:46:27Z</time>
      </trkpt>
      <trkpt lat="47.24679" lon="-1.57786">
        <ele>51</ele>
        <time>2022-01-20T14:46:28Z</time>
      </trkpt>
      <trkpt lat="47.24679" lon="-1.57786">
        <ele>51</ele>
        <time>2022-01-20T14:46:29Z</time>
      </trkpt>
      <trkpt lat="47.2468" lon="-1.57786">
        <ele>51</ele>
        <time>2022-01-20T14:46:30Z</time>
      </trkpt>
      <trkpt lat="47.2468" lon="-1.57785">
        <ele>51</ele>
        <time>2022-01-20T14:46:31Z</time>
      </trkpt>
      <trkpt lat="47.24681" lon="-1.57784">
        <ele>51</ele>
        <time>2022-01-20T14:46:32Z</time>
      </trkpt>
      <trkpt lat="47.24682" lon="-1.57783">
        <ele>51</ele>
        <time>2022-01-20T14:46:33Z</time>
      </trkpt>
      <trkpt lat="47.24682" lon="-1.57782">
        <ele>51</ele>
        <time>2022-01-20T14:46:34Z</time>
      </trkpt>
      <trkpt lat="47.24682" lon="-1.57782">
        <ele>51</ele>
        <time>2022-01-20T14:46:35Z</time>
      </trkpt>
      <trkpt lat="47.24682" lon="-1.5778">
        <ele>51</ele>
        <time>2022-01-20T14:46:36Z</time>
      </trkpt>
      <trkpt lat="47.24682" lon="-1.57779">
        <ele>50</ele>
        <time>2022-01-20T14:46:37Z</time>
      </trkpt>
      <trkpt lat="47.24682" lon="-1.57779">
        <ele>50</ele>
        <time>2022-01-20T14:46:38Z</time>
      </trkpt>
      <trkpt lat="47.24682" lon="-1.57777">
        <ele>49</ele>
        <time>2022-01-20T14:46:39Z</time>
      </trkpt>
      <trkpt lat="47.24682" lon="-1.57775">
        <ele>49</ele>
        <time>2022-01-20T14:46:40Z</time>
      </trkpt>
      <trkpt lat="47.24683" lon="-1.57773">
        <ele>49</ele>
        <time>2022-01-20T14:46:41Z</time>
      </trkpt>
      <trkpt lat="47.24683" lon="-1.5777">
        <ele>49</ele>
        <time>2022-01-20T14:46:42Z</time>
      </trkpt>
      <trkpt lat="47.24683" lon="-1.57768">
        <ele>49</ele>
        <time>2022-01-20T14:46:43Z</time>
      </trkpt>
      <trkpt lat="47.24684" lon="-1.57766">
        <ele>49</ele>
        <time>2022-01-20T14:46:44Z</time>
      </trkpt>
      <trkpt lat="47.24684" lon="-1.57764">
        <ele>49</ele>
        <time>2022-01-20T14:46:45Z</time>
      </trkpt>
      <trkpt lat="47.24685" lon="-1.57763">
        <ele>48</ele>
        <time>2022-01-20T14:46:46Z</time>
      </trkpt>
      <trkpt lat="47.24685" lon="-1.57761">
        <ele>48</ele>
        <time>2022-01-20T14:46:47Z</time>
      </trkpt>
      <trkpt lat="47.24685" lon="-1.57759">
        <ele>49</ele>
        <time>2022-01-20T14:46:48Z</time>
      </trkpt>
      <trkpt lat="47.24685" lon="-1.57758">
        <ele>49</ele>
        <time>2022-01-20T14:46:49Z</time>
      </trkpt>
      <trkpt lat="47.24686" lon="-1.57756">
        <ele>49</ele>
        <time>2022-01-20T14:46:50Z</time>
      </trkpt>
      <trkpt lat="47.24686" lon="-1.57754">
        <ele>50</ele>
        <time>2022-01-20T14:46:51Z</time>
      </trkpt>
      <trkpt lat="47.24686" lon="-1.57753">
        <ele>50</ele>
        <time>2022-01-20T14:46:52Z</time>
      </trkpt>
      <trkpt lat="47.24686" lon="-1.57752">
        <ele>50</ele>
        <time>2022-01-20T14:46:53Z</time>
      </trkpt>
      <trkpt lat="47.24686" lon="-1.5775">
        <ele>49</ele>
        <time>2022-01-20T14:46:54Z</time>
      </trkpt>
      <trkpt lat="47.24687" lon="-1.57748">
        <ele>49</ele>
        <time>2022-01-20T14:46:55Z</time>
      </trkpt>
      <trkpt lat="47.24687" lon="-1.57745">
        <ele>50</ele>
        <time>2022-01-20T14:46:56Z</time>
      </trkpt>
      <trkpt lat="47.24688" lon="-1.57743">
        <ele>49</ele>
        <time>2022-01-20T14:46:57Z</time>
      </trkpt>
      <trkpt lat="47.24688" lon="-1.57742">
        <ele>49</ele>
        <time>2022-01-20T14:46:58Z</time>
      </trkpt>
      <trkpt lat="47.24688" lon="-1.57739">
        <ele>49</ele>
        <time>2022-01-20T14:46:59Z</time>
      </trkpt>
      <trkpt lat="47.24688" lon="-1.57737">
        <ele>49</ele>
        <time>2022-01-20T14:47:00Z</time>
      </trkpt>
      <trkpt lat="47.24688" lon="-1.57736">
        <ele>49</ele>
        <time>2022-01-20T14:47:01Z</time>
      </trkpt>
      <trkpt lat="47.24689" lon="-1.57735">
        <ele>49</ele>
        <time>2022-01-20T14:47:02Z</time>
      </trkpt>
      <trkpt lat="47.2469" lon="-1.57734">
        <ele>49</ele>
        <time>2022-01-20T14:47:03Z</time>
      </trkpt>
      <trkpt lat="47.24692" lon="-1.57732">
        <ele>49</ele>
        <time>2022-01-20T14:47:04Z</time>
      </trkpt>
      <trkpt lat="47.24693" lon="-1.57732">
        <ele>49</ele>
        <time>2022-01-20T14:47:05Z</time>
      </trkpt>
      <trkpt lat="47.24693" lon="-1.57732">
        <ele>49</ele>
        <time>2022-01-20T14:47:06Z</time>
      </trkpt>
      <trkpt lat="47.24694" lon="-1.57732">
        <ele>49</ele>
        <time>2022-01-20T14:47:07Z</time>
      </trkpt>
      <trkpt lat="47.24694" lon="-1.57732">
        <ele>50</ele>
        <time>2022-01-20T14:47:08Z</time>
      </trkpt>
      <trkpt lat="47.24695" lon="-1.57732">
        <ele>50</ele>
        <time>2022-01-20T14:47:09Z</time>
      </trkpt>
      <trkpt lat="47.24696" lon="-1.57732">
        <ele>50</ele>
        <time>2022-01-20T14:47:10Z</time>
      </trkpt>
      <trkpt lat="47.24696" lon="-1.57732">
        <ele>50</ele>
        <time>2022-01-20T14:47:11Z</time>
      </trkpt>
      <trkpt lat="47.24696" lon="-1.57732">
        <ele>50</ele>
        <time>2022-01-20T14:47:12Z</time>
      </trkpt>
      <trkpt lat="47.24696" lon="-1.57732">
        <ele>51</ele>
        <time>2022-01-20T14:47:13Z</time>
      </trkpt>
      <trkpt lat="47.24697" lon="-1.57732">
        <ele>51</ele>
        <time>2022-01-20T14:47:14Z</time>
      </trkpt>
      <trkpt lat="47.24697" lon="-1.57732">
        <ele>51</ele>
        <time>2022-01-20T14:47:15Z</time>
      </trkpt>
      <trkpt lat="47.24697" lon="-1.57732">
        <ele>51</ele>
        <time>2022-01-20T14:47:16Z</time>
      </trkpt>
      <trkpt lat="47.24699" lon="-1.57731">
        <ele>50</ele>
        <time>2022-01-20T14:47:17Z</time>
      </trkpt>
      <trkpt lat="47.24701" lon="-1.57731">
        <ele>50</ele>
        <time>2022-01-20T14:47:18Z</time>
      </trkpt>
      <trkpt lat="47.24702" lon="-1.57731">
        <ele>50</ele>
        <time>2022-01-20T14:47:19Z</time>
      </trkpt>
      <trkpt lat="47.24703" lon="-1.57731">
        <ele>50</ele>
        <time>2022-01-20T14:47:20Z</time>
      </trkpt>
      <trkpt lat="47.24704" lon="-1.57731">
        <ele>51</ele>
        <time>2022-01-20T14:47:21Z</time>
      </trkpt>
      <trkpt lat="47.24705" lon="-1.57731">
        <ele>51</ele>
        <time>2022-01-20T14:47:22Z</time>
      </trkpt>
      <trkpt lat="47.24707" lon="-1.57731">
        <ele>52</ele>
        <time>2022-01-20T14:47:23Z</time>
      </trkpt>
      <trkpt lat="47.24708" lon="-1.57731">
        <ele>52</ele>
        <time>2022-01-20T14:47:24Z</time>
      </trkpt>
      <trkpt lat="47.2471" lon="-1.57732">
        <ele>52</ele>
        <time>2022-01-20T14:47:25Z</time>
      </trkpt>
      <trkpt lat="47.24712" lon="-1.57732">
        <ele>52</ele>
        <time>2022-01-20T14:47:26Z</time>
      </trkpt>
      <trkpt lat="47.24713" lon="-1.57733">
        <ele>52</ele>
        <time>2022-01-20T14:47:27Z</time>
      </trkpt>
      <trkpt lat="47.24714" lon="-1.57733">
        <ele>51</ele>
        <time>2022-01-20T14:47:28Z</time>
      </trkpt>
      <trkpt lat="47.24715" lon="-1.57733">
        <ele>51</ele>
        <time>2022-01-20T14:47:29Z</time>
      </trkpt>
      <trkpt lat="47.24717" lon="-1.57734">
        <ele>51</ele>
        <time>2022-01-20T14:47:30Z</time>
      </trkpt>
      <trkpt lat="47.24718" lon="-1.57734">
        <ele>51</ele>
        <time>2022-01-20T14:47:31Z</time>
      </trkpt>
      <trkpt lat="47.24719" lon="-1.57734">
        <ele>51</ele>
        <time>2022-01-20T14:47:32Z</time>
      </trkpt>
      <trkpt lat="47.2472" lon="-1.57734">
        <ele>51</ele>
        <time>2022-01-20T14:47:33Z</time>
      </trkpt>
      <trkpt lat="47.24722" lon="-1.57734">
        <ele>51</ele>
        <time>2022-01-20T14:47:34Z</time>
      </trkpt>
      <trkpt lat="47.24723" lon="-1.57734">
        <ele>51</ele>
        <time>2022-01-20T14:47:35Z</time>
      </trkpt>
      <trkpt lat="47.24724" lon="-1.57734">
        <ele>51</ele>
        <time>2022-01-20T14:47:36Z</time>
      </trkpt>
      <trkpt lat="47.24725" lon="-1.57734">
        <ele>51</ele>
        <time>2022-01-20T14:47:37Z</time>
      </trkpt>
      <trkpt lat="47.24727" lon="-1.57733">
        <ele>52</ele>
        <time>2022-01-20T14:47:38Z</time>
      </trkpt>
      <trkpt lat="47.24728" lon="-1.57732">
        <ele>52</ele>
        <time>2022-01-20T14:47:39Z</time>
      </trkpt>
      <trkpt lat="47.24728" lon="-1.57732">
        <ele>52</ele>
        <time>2022-01-20T14:47:40Z</time>
      </trkpt>
      <trkpt lat="47.24729" lon="-1.57732">
        <ele>52</ele>
        <time>2022-01-20T14:47:41Z</time>
      </trkpt>
      <trkpt lat="47.2473" lon="-1.57732">
        <ele>52</ele>
        <time>2022-01-20T14:47:42Z</time>
      </trkpt>
      <trkpt lat="47.2473" lon="-1.57732">
        <ele>52</ele>
        <time>2022-01-20T14:47:43Z</time>
      </trkpt>
      <trkpt lat="47.24731" lon="-1.57732">
        <ele>52</ele>
        <time>2022-01-20T14:47:44Z</time>
      </trkpt>
      <trkpt lat="47.24732" lon="-1.57732">
        <ele>52</ele>
        <time>2022-01-20T14:47:45Z</time>
      </trkpt>
      <trkpt lat="47.24733" lon="-1.57733">
        <ele>52</ele>
        <time>2022-01-20T14:47:46Z</time>
      </trkpt>
      <trkpt lat="47.24734" lon="-1.57733">
        <ele>52</ele>
        <time>2022-01-20T14:47:47Z</time>
      </trkpt>
      <trkpt lat="47.24734" lon="-1.57732">
        <ele>51</ele>
        <time>2022-01-20T14:47:48Z</time>
      </trkpt>
      <trkpt lat="47.24735" lon="-1.57732">
        <ele>51</ele>
        <time>2022-01-20T14:47:49Z</time>
      </trkpt>
      <trkpt lat="47.24735" lon="-1.57731">
        <ele>51</ele>
        <time>2022-01-20T14:47:50Z</time>
      </trkpt>
      <trkpt lat="47.24735" lon="-1.57731">
        <ele>51</ele>
        <time>2022-01-20T14:47:51Z</time>
      </trkpt>
      <trkpt lat="47.24735" lon="-1.57731">
        <ele>51</ele>
        <time>2022-01-20T14:47:52Z</time>
      </trkpt>
      <trkpt lat="47.24735" lon="-1.57731">
        <ele>51</ele>
        <time>2022-01-20T14:47:53Z</time>
      </trkpt>
      <trkpt lat="47.24735" lon="-1.57731">
        <ele>51</ele>
        <time>2022-01-20T14:47:54Z</time>
      </trkpt>
      <trkpt lat="47.24735" lon="-1.5773">
        <ele>50</ele>
        <time>2022-01-20T14:47:55Z</time>
      </trkpt>
      <trkpt lat="47.24735" lon="-1.57729">
        <ele>50</ele>
        <time>2022-01-20T14:47:56Z</time>
      </trkpt>
      <trkpt lat="47.24735" lon="-1.57728">
        <ele>50</ele>
        <time>2022-01-20T14:47:57Z</time>
      </trkpt>
      <trkpt lat="47.24734" lon="-1.57727">
        <ele>49</ele>
        <time>2022-01-20T14:47:58Z</time>
      </trkpt>
      <trkpt lat="47.24733" lon="-1.57726">
        <ele>49</ele>
        <time>2022-01-20T14:47:59Z</time>
      </trkpt>
      <trkpt lat="47.24733" lon="-1.57725">
        <ele>49</ele>
        <time>2022-01-20T14:48:00Z</time>
      </trkpt>
      <trkpt lat="47.24733" lon="-1.57723">
        <ele>49</ele>
        <time>2022-01-20T14:48:01Z</time>
      </trkpt>
      <trkpt lat="47.24733" lon="-1.57722">
        <ele>49</ele>
        <time>2022-01-20T14:48:02Z</time>
      </trkpt>
      <trkpt lat="47.24732" lon="-1.57721">
        <ele>49</ele>
        <time>2022-01-20T14:48:03Z</time>
      </trkpt>
      <trkpt lat="47.24732" lon="-1.5772">
        <ele>49</ele>
        <time>2022-01-20T14:48:04Z</time>
      </trkpt>
      <trkpt lat="47.24732" lon="-1.57719">
        <ele>49</ele>
        <time>2022-01-20T14:48:05Z</time>
      </trkpt>
      <trkpt lat="47.24732" lon="-1.57718">
        <ele>49</ele>
        <time>2022-01-20T14:48:06Z</time>
      </trkpt>
      <trkpt lat="47.24731" lon="-1.57717">
        <ele>49</ele>
        <time>2022-01-20T14:48:07Z</time>
      </trkpt>
      <trkpt lat="47.24731" lon="-1.57715">
        <ele>49</ele>
        <time>2022-01-20T14:48:08Z</time>
      </trkpt>
      <trkpt lat="47.24731" lon="-1.57714">
        <ele>49</ele>
        <time>2022-01-20T14:48:09Z</time>
      </trkpt>
      <trkpt lat="47.2473" lon="-1.57713">
        <ele>49</ele>
        <time>2022-01-20T14:48:10Z</time>
      </trkpt>
      <trkpt lat="47.2473" lon="-1.57713">
        <ele>49</ele>
        <time>2022-01-20T14:48:11Z</time>
      </trkpt>
      <trkpt lat="47.2473" lon="-1.57713">
        <ele>49</ele>
        <time>2022-01-20T14:48:12Z</time>
      </trkpt>
      <trkpt lat="47.24728" lon="-1.57712">
        <ele>49</ele>
        <time>2022-01-20T14:48:13Z</time>
      </trkpt>
      <trkpt lat="47.24727" lon="-1.57712">
        <ele>49</ele>
        <time>2022-01-20T14:48:14Z</time>
      </trkpt>
      <trkpt lat="47.24727" lon="-1.57712">
        <ele>49</ele>
        <time>2022-01-20T14:48:15Z</time>
      </trkpt>
      <trkpt lat="47.24726" lon="-1.57712">
        <ele>50</ele>
        <time>2022-01-20T14:48:16Z</time>
      </trkpt>
      <trkpt lat="47.24725" lon="-1.57711">
        <ele>50</ele>
        <time>2022-01-20T14:48:17Z</time>
      </trkpt>
      <trkpt lat="47.24725" lon="-1.5771">
        <ele>48</ele>
        <time>2022-01-20T14:48:18Z</time>
      </trkpt>
      <trkpt lat="47.24725" lon="-1.5771">
        <ele>49</ele>
        <time>2022-01-20T14:48:19Z</time>
      </trkpt>
      <trkpt lat="47.24725" lon="-1.57709">
        <ele>49</ele>
        <time>2022-01-20T14:48:20Z</time>
      </trkpt>
      <trkpt lat="47.24724" lon="-1.57707">
        <ele>48</ele>
        <time>2022-01-20T14:48:21Z</time>
      </trkpt>
      <trkpt lat="47.24723" lon="-1.57707">
        <ele>48</ele>
        <time>2022-01-20T14:48:22Z</time>
      </trkpt>
      <trkpt lat="47.24722" lon="-1.57706">
        <ele>49</ele>
        <time>2022-01-20T14:48:23Z</time>
      </trkpt>
      <trkpt lat="47.24722" lon="-1.57705">
        <ele>48</ele>
        <time>2022-01-20T14:48:24Z</time>
      </trkpt>
      <trkpt lat="47.24722" lon="-1.57705">
        <ele>48</ele>
        <time>2022-01-20T14:48:25Z</time>
      </trkpt>
      <trkpt lat="47.24722" lon="-1.57705">
        <ele>48</ele>
        <time>2022-01-20T14:48:26Z</time>
      </trkpt>
      <trkpt lat="47.24722" lon="-1.57703">
        <ele>48</ele>
        <time>2022-01-20T14:48:27Z</time>
      </trkpt>
      <trkpt lat="47.24721" lon="-1.57702">
        <ele>48</ele>
        <time>2022-01-20T14:48:28Z</time>
      </trkpt>
      <trkpt lat="47.2472" lon="-1.57702">
        <ele>49</ele>
        <time>2022-01-20T14:48:29Z</time>
      </trkpt>
      <trkpt lat="47.24719" lon="-1.57701">
        <ele>48</ele>
        <time>2022-01-20T14:48:30Z</time>
      </trkpt>
      <trkpt lat="47.24719" lon="-1.577">
        <ele>48</ele>
        <time>2022-01-20T14:48:31Z</time>
      </trkpt>
      <trkpt lat="47.24719" lon="-1.57699">
        <ele>48</ele>
        <time>2022-01-20T14:48:32Z</time>
      </trkpt>
      <trkpt lat="47.24718" lon="-1.57697">
        <ele>48</ele>
        <time>2022-01-20T14:48:33Z</time>
      </trkpt>
      <trkpt lat="47.24717" lon="-1.57696">
        <ele>48</ele>
        <time>2022-01-20T14:48:34Z</time>
      </trkpt>
      <trkpt lat="47.24717" lon="-1.57695">
        <ele>48</ele>
        <time>2022-01-20T14:48:35Z</time>
      </trkpt>
      <trkpt lat="47.24716" lon="-1.57695">
        <ele>47</ele>
        <time>2022-01-20T14:48:36Z</time>
      </trkpt>
      <trkpt lat="47.24715" lon="-1.57694">
        <ele>48</ele>
        <time>2022-01-20T14:48:37Z</time>
      </trkpt>
      <trkpt lat="47.24715" lon="-1.57692">
        <ele>47</ele>
        <time>2022-01-20T14:48:38Z</time>
      </trkpt>
      <trkpt lat="47.24714" lon="-1.57691">
        <ele>47</ele>
        <time>2022-01-20T14:48:39Z</time>
      </trkpt>
      <trkpt lat="47.24714" lon="-1.5769">
        <ele>47</ele>
        <time>2022-01-20T14:48:40Z</time>
      </trkpt>
      <trkpt lat="47.24713" lon="-1.57689">
        <ele>47</ele>
        <time>2022-01-20T14:48:41Z</time>
      </trkpt>
      <trkpt lat="47.24713" lon="-1.57687">
        <ele>47</ele>
        <time>2022-01-20T14:48:42Z</time>
      </trkpt>
      <trkpt lat="47.24712" lon="-1.57686">
        <ele>47</ele>
        <time>2022-01-20T14:48:43Z</time>
      </trkpt>
      <trkpt lat="47.24712" lon="-1.57685">
        <ele>47</ele>
        <time>2022-01-20T14:48:44Z</time>
      </trkpt>
      <trkpt lat="47.24711" lon="-1.57683">
        <ele>47</ele>
        <time>2022-01-20T14:48:45Z</time>
      </trkpt>
      <trkpt lat="47.24711" lon="-1.57683">
        <ele>47</ele>
        <time>2022-01-20T14:48:46Z</time>
      </trkpt>
      <trkpt lat="47.2471" lon="-1.57682">
        <ele>47</ele>
        <time>2022-01-20T14:48:47Z</time>
      </trkpt>
      <trkpt lat="47.24709" lon="-1.57681">
        <ele>47</ele>
        <time>2022-01-20T14:48:48Z</time>
      </trkpt>
      <trkpt lat="47.24709" lon="-1.5768">
        <ele>47</ele>
        <time>2022-01-20T14:48:49Z</time>
      </trkpt>
      <trkpt lat="47.24708" lon="-1.57679">
        <ele>48</ele>
        <time>2022-01-20T14:48:50Z</time>
      </trkpt>
      <trkpt lat="47.24707" lon="-1.57679">
        <ele>48</ele>
        <time>2022-01-20T14:48:51Z</time>
      </trkpt>
      <trkpt lat="47.24707" lon="-1.57678">
        <ele>49</ele>
        <time>2022-01-20T14:48:52Z</time>
      </trkpt>
      <trkpt lat="47.24706" lon="-1.57677">
        <ele>49</ele>
        <time>2022-01-20T14:48:53Z</time>
      </trkpt>
      <trkpt lat="47.24706" lon="-1.57676">
        <ele>49</ele>
        <time>2022-01-20T14:48:54Z</time>
      </trkpt>
      <trkpt lat="47.24705" lon="-1.57674">
        <ele>49</ele>
        <time>2022-01-20T14:48:55Z</time>
      </trkpt>
      <trkpt lat="47.24704" lon="-1.57673">
        <ele>48</ele>
        <time>2022-01-20T14:48:56Z</time>
      </trkpt>
      <trkpt lat="47.24704" lon="-1.57672">
        <ele>48</ele>
        <time>2022-01-20T14:48:57Z</time>
      </trkpt>
      <trkpt lat="47.24704" lon="-1.5767">
        <ele>48</ele>
        <time>2022-01-20T14:48:58Z</time>
      </trkpt>
      <trkpt lat="47.24703" lon="-1.57668">
        <ele>48</ele>
        <time>2022-01-20T14:48:59Z</time>
      </trkpt>
      <trkpt lat="47.24703" lon="-1.57666">
        <ele>48</ele>
        <time>2022-01-20T14:49:00Z</time>
      </trkpt>
      <trkpt lat="47.24702" lon="-1.57665">
        <ele>48</ele>
        <time>2022-01-20T14:49:01Z</time>
      </trkpt>
      <trkpt lat="47.24702" lon="-1.57663">
        <ele>47</ele>
        <time>2022-01-20T14:49:02Z</time>
      </trkpt>
      <trkpt lat="47.24701" lon="-1.57661">
        <ele>47</ele>
        <time>2022-01-20T14:49:03Z</time>
      </trkpt>
      <trkpt lat="47.247" lon="-1.5766">
        <ele>47</ele>
        <time>2022-01-20T14:49:04Z</time>
      </trkpt>
      <trkpt lat="47.24699" lon="-1.57659">
        <ele>47</ele>
        <time>2022-01-20T14:49:05Z</time>
      </trkpt>
      <trkpt lat="47.24698" lon="-1.57658">
        <ele>47</ele>
        <time>2022-01-20T14:49:06Z</time>
      </trkpt>
      <trkpt lat="47.24698" lon="-1.57656">
        <ele>47</ele>
        <time>2022-01-20T14:49:07Z</time>
      </trkpt>
      <trkpt lat="47.24697" lon="-1.57654">
        <ele>47</ele>
        <time>2022-01-20T14:49:08Z</time>
      </trkpt>
      <trkpt lat="47.24696" lon="-1.57653">
        <ele>47</ele>
        <time>2022-01-20T14:49:09Z</time>
      </trkpt>
      <trkpt lat="47.24696" lon="-1.57652">
        <ele>47</ele>
        <time>2022-01-20T14:49:10Z</time>
      </trkpt>
      <trkpt lat="47.24696" lon="-1.57651">
        <ele>47</ele>
        <time>2022-01-20T14:49:11Z</time>
      </trkpt>
      <trkpt lat="47.24694" lon="-1.5765">
        <ele>47</ele>
        <time>2022-01-20T14:49:12Z</time>
      </trkpt>
      <trkpt lat="47.24694" lon="-1.57649">
        <ele>47</ele>
        <time>2022-01-20T14:49:13Z</time>
      </trkpt>
      <trkpt lat="47.24693" lon="-1.57648">
        <ele>47</ele>
        <time>2022-01-20T14:49:14Z</time>
      </trkpt>
      <trkpt lat="47.24693" lon="-1.57646">
        <ele>47</ele>
        <time>2022-01-20T14:49:15Z</time>
      </trkpt>
      <trkpt lat="47.24692" lon="-1.57645">
        <ele>47</ele>
        <time>2022-01-20T14:49:16Z</time>
      </trkpt>
      <trkpt lat="47.24691" lon="-1.57644">
        <ele>47</ele>
        <time>2022-01-20T14:49:17Z</time>
      </trkpt>
      <trkpt lat="47.24691" lon="-1.57643">
        <ele>47</ele>
        <time>2022-01-20T14:49:18Z</time>
      </trkpt>
      <trkpt lat="47.2469" lon="-1.57641">
        <ele>46</ele>
        <time>2022-01-20T14:49:19Z</time>
      </trkpt>
      <trkpt lat="47.2469" lon="-1.5764">
        <ele>46</ele>
        <time>2022-01-20T14:49:20Z</time>
      </trkpt>
      <trkpt lat="47.24689" lon="-1.57638">
        <ele>45</ele>
        <time>2022-01-20T14:49:21Z</time>
      </trkpt>
      <trkpt lat="47.24688" lon="-1.57637">
        <ele>45</ele>
        <time>2022-01-20T14:49:22Z</time>
      </trkpt>
      <trkpt lat="47.24687" lon="-1.57635">
        <ele>45</ele>
        <time>2022-01-20T14:49:23Z</time>
      </trkpt>
      <trkpt lat="47.24687" lon="-1.57634">
        <ele>45</ele>
        <time>2022-01-20T14:49:24Z</time>
      </trkpt>
      <trkpt lat="47.24686" lon="-1.57633">
        <ele>45</ele>
        <time>2022-01-20T14:49:25Z</time>
      </trkpt>
      <trkpt lat="47.24685" lon="-1.57632">
        <ele>46</ele>
        <time>2022-01-20T14:49:26Z</time>
      </trkpt>
      <trkpt lat="47.24684" lon="-1.5763">
        <ele>45</ele>
        <time>2022-01-20T14:49:27Z</time>
      </trkpt>
      <trkpt lat="47.24683" lon="-1.57629">
        <ele>45</ele>
        <time>2022-01-20T14:49:28Z</time>
      </trkpt>
      <trkpt lat="47.24682" lon="-1.57628">
        <ele>45</ele>
        <time>2022-01-20T14:49:29Z</time>
      </trkpt>
      <trkpt lat="47.24682" lon="-1.57626">
        <ele>45</ele>
        <time>2022-01-20T14:49:30Z</time>
      </trkpt>
      <trkpt lat="47.24681" lon="-1.57625">
        <ele>44</ele>
        <time>2022-01-20T14:49:31Z</time>
      </trkpt>
      <trkpt lat="47.2468" lon="-1.57624">
        <ele>44</ele>
        <time>2022-01-20T14:49:32Z</time>
      </trkpt>
      <trkpt lat="47.2468" lon="-1.57623">
        <ele>45</ele>
        <time>2022-01-20T14:49:33Z</time>
      </trkpt>
      <trkpt lat="47.2468" lon="-1.57622">
        <ele>45</ele>
        <time>2022-01-20T14:49:34Z</time>
      </trkpt>
      <trkpt lat="47.24679" lon="-1.5762">
        <ele>45</ele>
        <time>2022-01-20T14:49:35Z</time>
      </trkpt>
      <trkpt lat="47.24679" lon="-1.57619">
        <ele>44</ele>
        <time>2022-01-20T14:49:36Z</time>
      </trkpt>
      <trkpt lat="47.24678" lon="-1.57617">
        <ele>44</ele>
        <time>2022-01-20T14:49:37Z</time>
      </trkpt>
      <trkpt lat="47.24678" lon="-1.57615">
        <ele>44</ele>
        <time>2022-01-20T14:49:38Z</time>
      </trkpt>
      <trkpt lat="47.24677" lon="-1.57613">
        <ele>44</ele>
        <time>2022-01-20T14:49:39Z</time>
      </trkpt>
      <trkpt lat="47.24677" lon="-1.57612">
        <ele>43</ele>
        <time>2022-01-20T14:49:40Z</time>
      </trkpt>
      <trkpt lat="47.24676" lon="-1.5761">
        <ele>43</ele>
        <time>2022-01-20T14:49:41Z</time>
      </trkpt>
      <trkpt lat="47.24675" lon="-1.57609">
        <ele>43</ele>
        <time>2022-01-20T14:49:42Z</time>
      </trkpt>
      <trkpt lat="47.24675" lon="-1.57607">
        <ele>42</ele>
        <time>2022-01-20T14:49:43Z</time>
      </trkpt>
      <trkpt lat="47.24675" lon="-1.57606">
        <ele>42</ele>
        <time>2022-01-20T14:49:44Z</time>
      </trkpt>
      <trkpt lat="47.24674" lon="-1.57605">
        <ele>41</ele>
        <time>2022-01-20T14:49:45Z</time>
      </trkpt>
      <trkpt lat="47.24674" lon="-1.57604">
        <ele>41</ele>
        <time>2022-01-20T14:49:46Z</time>
      </trkpt>
      <trkpt lat="47.24674" lon="-1.57602">
        <ele>41</ele>
        <time>2022-01-20T14:49:47Z</time>
      </trkpt>
      <trkpt lat="47.24674" lon="-1.57601">
        <ele>41</ele>
        <time>2022-01-20T14:49:48Z</time>
      </trkpt>
      <trkpt lat="47.24674" lon="-1.576">
        <ele>41</ele>
        <time>2022-01-20T14:49:49Z</time>
      </trkpt>
      <trkpt lat="47.24674" lon="-1.57598">
        <ele>40</ele>
        <time>2022-01-20T14:49:50Z</time>
      </trkpt>
      <trkpt lat="47.24674" lon="-1.57596">
        <ele>40</ele>
        <time>2022-01-20T14:49:51Z</time>
      </trkpt>
      <trkpt lat="47.24673" lon="-1.57594">
        <ele>39</ele>
        <time>2022-01-20T14:49:52Z</time>
      </trkpt>
      <trkpt lat="47.24672" lon="-1.57592">
        <ele>39</ele>
        <time>2022-01-20T14:49:53Z</time>
      </trkpt>
      <trkpt lat="47.24671" lon="-1.57591">
        <ele>39</ele>
        <time>2022-01-20T14:49:54Z</time>
      </trkpt>
      <trkpt lat="47.2467" lon="-1.57588">
        <ele>38</ele>
        <time>2022-01-20T14:49:55Z</time>
      </trkpt>
      <trkpt lat="47.24669" lon="-1.57586">
        <ele>38</ele>
        <time>2022-01-20T14:49:56Z</time>
      </trkpt>
      <trkpt lat="47.24668" lon="-1.57584">
        <ele>37</ele>
        <time>2022-01-20T14:49:57Z</time>
      </trkpt>
      <trkpt lat="47.24667" lon="-1.57582">
        <ele>37</ele>
        <time>2022-01-20T14:49:58Z</time>
      </trkpt>
      <trkpt lat="47.24667" lon="-1.5758">
        <ele>36</ele>
        <time>2022-01-20T14:49:59Z</time>
      </trkpt>
      <trkpt lat="47.24667" lon="-1.57579">
        <ele>36</ele>
        <time>2022-01-20T14:50:00Z</time>
      </trkpt>
      <trkpt lat="47.24666" lon="-1.57578">
        <ele>36</ele>
        <time>2022-01-20T14:50:01Z</time>
      </trkpt>
      <trkpt lat="47.24666" lon="-1.57577">
        <ele>36</ele>
        <time>2022-01-20T14:50:02Z</time>
      </trkpt>
      <trkpt lat="47.24666" lon="-1.57575">
        <ele>36</ele>
        <time>2022-01-20T14:50:03Z</time>
      </trkpt>
      <trkpt lat="47.24665" lon="-1.57573">
        <ele>36</ele>
        <time>2022-01-20T14:50:04Z</time>
      </trkpt>
      <trkpt lat="47.24664" lon="-1.57571">
        <ele>35</ele>
        <time>2022-01-20T14:50:05Z</time>
      </trkpt>
      <trkpt lat="47.24664" lon="-1.5757">
        <ele>35</ele>
        <time>2022-01-20T14:50:06Z</time>
      </trkpt>
      <trkpt lat="47.24664" lon="-1.57568">
        <ele>35</ele>
        <time>2022-01-20T14:50:07Z</time>
      </trkpt>
      <trkpt lat="47.24663" lon="-1.57566">
        <ele>35</ele>
        <time>2022-01-20T14:50:08Z</time>
      </trkpt>
      <trkpt lat="47.24662" lon="-1.57565">
        <ele>35</ele>
        <time>2022-01-20T14:50:09Z</time>
      </trkpt>
      <trkpt lat="47.24662" lon="-1.57563">
        <ele>35</ele>
        <time>2022-01-20T14:50:10Z</time>
      </trkpt>
      <trkpt lat="47.24661" lon="-1.57561">
        <ele>35</ele>
        <time>2022-01-20T14:50:11Z</time>
      </trkpt>
      <trkpt lat="47.2466" lon="-1.5756">
        <ele>35</ele>
        <time>2022-01-20T14:50:12Z</time>
      </trkpt>
      <trkpt lat="47.24659" lon="-1.57558">
        <ele>35</ele>
        <time>2022-01-20T14:50:13Z</time>
      </trkpt>
      <trkpt lat="47.24658" lon="-1.57557">
        <ele>36</ele>
        <time>2022-01-20T14:50:14Z</time>
      </trkpt>
      <trkpt lat="47.24658" lon="-1.57556">
        <ele>36</ele>
        <time>2022-01-20T14:50:15Z</time>
      </trkpt>
      <trkpt lat="47.24657" lon="-1.57555">
        <ele>36</ele>
        <time>2022-01-20T14:50:16Z</time>
      </trkpt>
      <trkpt lat="47.24656" lon="-1.57554">
        <ele>36</ele>
        <time>2022-01-20T14:50:17Z</time>
      </trkpt>
      <trkpt lat="47.24654" lon="-1.57552">
        <ele>36</ele>
        <time>2022-01-20T14:50:18Z</time>
      </trkpt>
      <trkpt lat="47.24653" lon="-1.57551">
        <ele>36</ele>
        <time>2022-01-20T14:50:19Z</time>
      </trkpt>
      <trkpt lat="47.24652" lon="-1.5755">
        <ele>36</ele>
        <time>2022-01-20T14:50:20Z</time>
      </trkpt>
      <trkpt lat="47.24651" lon="-1.5755">
        <ele>37</ele>
        <time>2022-01-20T14:50:21Z</time>
      </trkpt>
      <trkpt lat="47.24649" lon="-1.57548">
        <ele>37</ele>
        <time>2022-01-20T14:50:22Z</time>
      </trkpt>
      <trkpt lat="47.24647" lon="-1.57547">
        <ele>37</ele>
        <time>2022-01-20T14:50:23Z</time>
      </trkpt>
      <trkpt lat="47.24645" lon="-1.57547">
        <ele>38</ele>
        <time>2022-01-20T14:50:24Z</time>
      </trkpt>
      <trkpt lat="47.24644" lon="-1.57547">
        <ele>37</ele>
        <time>2022-01-20T14:50:25Z</time>
      </trkpt>
      <trkpt lat="47.24643" lon="-1.57546">
        <ele>38</ele>
        <time>2022-01-20T14:50:26Z</time>
      </trkpt>
      <trkpt lat="47.24641" lon="-1.57545">
        <ele>39</ele>
        <time>2022-01-20T14:50:27Z</time>
      </trkpt>
      <trkpt lat="47.2464" lon="-1.57544">
        <ele>38</ele>
        <time>2022-01-20T14:50:28Z</time>
      </trkpt>
      <trkpt lat="47.2464" lon="-1.57543">
        <ele>38</ele>
        <time>2022-01-20T14:50:29Z</time>
      </trkpt>
      <trkpt lat="47.24639" lon="-1.57542">
        <ele>38</ele>
        <time>2022-01-20T14:50:30Z</time>
      </trkpt>
      <trkpt lat="47.24638" lon="-1.57541">
        <ele>38</ele>
        <time>2022-01-20T14:50:31Z</time>
      </trkpt>
      <trkpt lat="47.24637" lon="-1.5754">
        <ele>38</ele>
        <time>2022-01-20T14:50:32Z</time>
      </trkpt>
      <trkpt lat="47.24635" lon="-1.57539">
        <ele>38</ele>
        <time>2022-01-20T14:50:33Z</time>
      </trkpt>
      <trkpt lat="47.24634" lon="-1.57537">
        <ele>38</ele>
        <time>2022-01-20T14:50:34Z</time>
      </trkpt>
      <trkpt lat="47.24633" lon="-1.57536">
        <ele>38</ele>
        <time>2022-01-20T14:50:35Z</time>
      </trkpt>
      <trkpt lat="47.24632" lon="-1.57535">
        <ele>38</ele>
        <time>2022-01-20T14:50:36Z</time>
      </trkpt>
      <trkpt lat="47.24631" lon="-1.57534">
        <ele>38</ele>
        <time>2022-01-20T14:50:37Z</time>
      </trkpt>
      <trkpt lat="47.2463" lon="-1.57533">
        <ele>38</ele>
        <time>2022-01-20T14:50:38Z</time>
      </trkpt>
      <trkpt lat="47.24629" lon="-1.57532">
        <ele>38</ele>
        <time>2022-01-20T14:50:39Z</time>
      </trkpt>
      <trkpt lat="47.24628" lon="-1.5753">
        <ele>38</ele>
        <time>2022-01-20T14:50:40Z</time>
      </trkpt>
      <trkpt lat="47.24627" lon="-1.57528">
        <ele>38</ele>
        <time>2022-01-20T14:50:41Z</time>
      </trkpt>
      <trkpt lat="47.24626" lon="-1.57527">
        <ele>38</ele>
        <time>2022-01-20T14:50:42Z</time>
      </trkpt>
      <trkpt lat="47.24625" lon="-1.57526">
        <ele>39</ele>
        <time>2022-01-20T14:50:43Z</time>
      </trkpt>
      <trkpt lat="47.24624" lon="-1.57525">
        <ele>39</ele>
        <time>2022-01-20T14:50:44Z</time>
      </trkpt>
      <trkpt lat="47.24623" lon="-1.57524">
        <ele>39</ele>
        <time>2022-01-20T14:50:45Z</time>
      </trkpt>
      <trkpt lat="47.24622" lon="-1.57522">
        <ele>39</ele>
        <time>2022-01-20T14:50:46Z</time>
      </trkpt>
      <trkpt lat="47.24621" lon="-1.5752">
        <ele>39</ele>
        <time>2022-01-20T14:50:47Z</time>
      </trkpt>
      <trkpt lat="47.2462" lon="-1.57519">
        <ele>39</ele>
        <time>2022-01-20T14:50:48Z</time>
      </trkpt>
      <trkpt lat="47.24619" lon="-1.57517">
        <ele>40</ele>
        <time>2022-01-20T14:50:49Z</time>
      </trkpt>
      <trkpt lat="47.24617" lon="-1.57517">
        <ele>39</ele>
        <time>2022-01-20T14:50:50Z</time>
      </trkpt>
      <trkpt lat="47.24616" lon="-1.57516">
        <ele>39</ele>
        <time>2022-01-20T14:50:51Z</time>
      </trkpt>
      <trkpt lat="47.24615" lon="-1.57516">
        <ele>39</ele>
        <time>2022-01-20T14:50:52Z</time>
      </trkpt>
      <trkpt lat="47.24614" lon="-1.57515">
        <ele>39</ele>
        <time>2022-01-20T14:50:53Z</time>
      </trkpt>
      <trkpt lat="47.24612" lon="-1.57514">
        <ele>39</ele>
        <time>2022-01-20T14:50:54Z</time>
      </trkpt>
      <trkpt lat="47.24611" lon="-1.57513">
        <ele>39</ele>
        <time>2022-01-20T14:50:55Z</time>
      </trkpt>
      <trkpt lat="47.24611" lon="-1.57513">
        <ele>39</ele>
        <time>2022-01-20T14:50:56Z</time>
      </trkpt>
      <trkpt lat="47.24609" lon="-1.57512">
        <ele>39</ele>
        <time>2022-01-20T14:50:57Z</time>
      </trkpt>
      <trkpt lat="47.24608" lon="-1.57511">
        <ele>39</ele>
        <time>2022-01-20T14:50:58Z</time>
      </trkpt>
      <trkpt lat="47.24607" lon="-1.5751">
        <ele>39</ele>
        <time>2022-01-20T14:50:59Z</time>
      </trkpt>
      <trkpt lat="47.24605" lon="-1.5751">
        <ele>39</ele>
        <time>2022-01-20T14:51:00Z</time>
      </trkpt>
      <trkpt lat="47.24604" lon="-1.57509">
        <ele>39</ele>
        <time>2022-01-20T14:51:01Z</time>
      </trkpt>
      <trkpt lat="47.24603" lon="-1.57508">
        <ele>39</ele>
        <time>2022-01-20T14:51:02Z</time>
      </trkpt>
      <trkpt lat="47.24602" lon="-1.57507">
        <ele>39</ele>
        <time>2022-01-20T14:51:03Z</time>
      </trkpt>
      <trkpt lat="47.24601" lon="-1.57506">
        <ele>39</ele>
        <time>2022-01-20T14:51:04Z</time>
      </trkpt>
      <trkpt lat="47.246" lon="-1.57506">
        <ele>39</ele>
        <time>2022-01-20T14:51:05Z</time>
      </trkpt>
      <trkpt lat="47.246" lon="-1.57505">
        <ele>39</ele>
        <time>2022-01-20T14:51:06Z</time>
      </trkpt>
      <trkpt lat="47.24598" lon="-1.57504">
        <ele>39</ele>
        <time>2022-01-20T14:51:07Z</time>
      </trkpt>
      <trkpt lat="47.24597" lon="-1.57503">
        <ele>39</ele>
        <time>2022-01-20T14:51:08Z</time>
      </trkpt>
      <trkpt lat="47.24596" lon="-1.57502">
        <ele>39</ele>
        <time>2022-01-20T14:51:09Z</time>
      </trkpt>
      <trkpt lat="47.24595" lon="-1.57502">
        <ele>40</ele>
        <time>2022-01-20T14:51:10Z</time>
      </trkpt>
      <trkpt lat="47.24594" lon="-1.57501">
        <ele>39</ele>
        <time>2022-01-20T14:51:11Z</time>
      </trkpt>
      <trkpt lat="47.24593" lon="-1.575">
        <ele>39</ele>
        <time>2022-01-20T14:51:12Z</time>
      </trkpt>
      <trkpt lat="47.24592" lon="-1.57499">
        <ele>38</ele>
        <time>2022-01-20T14:51:13Z</time>
      </trkpt>
      <trkpt lat="47.24591" lon="-1.57497">
        <ele>38</ele>
        <time>2022-01-20T14:51:14Z</time>
      </trkpt>
      <trkpt lat="47.2459" lon="-1.57496">
        <ele>38</ele>
        <time>2022-01-20T14:51:15Z</time>
      </trkpt>
      <trkpt lat="47.24589" lon="-1.57494">
        <ele>37</ele>
        <time>2022-01-20T14:51:16Z</time>
      </trkpt>
      <trkpt lat="47.24588" lon="-1.57493">
        <ele>37</ele>
        <time>2022-01-20T14:51:17Z</time>
      </trkpt>
      <trkpt lat="47.24587" lon="-1.57491">
        <ele>37</ele>
        <time>2022-01-20T14:51:18Z</time>
      </trkpt>
      <trkpt lat="47.24585" lon="-1.5749">
        <ele>37</ele>
        <time>2022-01-20T14:51:19Z</time>
      </trkpt>
      <trkpt lat="47.24584" lon="-1.57488">
        <ele>37</ele>
        <time>2022-01-20T14:51:20Z</time>
      </trkpt>
      <trkpt lat="47.24583" lon="-1.57487">
        <ele>36</ele>
        <time>2022-01-20T14:51:21Z</time>
      </trkpt>
      <trkpt lat="47.24583" lon="-1.57485">
        <ele>36</ele>
        <time>2022-01-20T14:51:22Z</time>
      </trkpt>
      <trkpt lat="47.24582" lon="-1.57483">
        <ele>36</ele>
        <time>2022-01-20T14:51:23Z</time>
      </trkpt>
      <trkpt lat="47.24581" lon="-1.57481">
        <ele>35</ele>
        <time>2022-01-20T14:51:24Z</time>
      </trkpt>
      <trkpt lat="47.2458" lon="-1.57479">
        <ele>35</ele>
        <time>2022-01-20T14:51:25Z</time>
      </trkpt>
      <trkpt lat="47.24579" lon="-1.57477">
        <ele>35</ele>
        <time>2022-01-20T14:51:26Z</time>
      </trkpt>
      <trkpt lat="47.24579" lon="-1.57476">
        <ele>35</ele>
        <time>2022-01-20T14:51:27Z</time>
      </trkpt>
      <trkpt lat="47.24577" lon="-1.57475">
        <ele>35</ele>
        <time>2022-01-20T14:51:28Z</time>
      </trkpt>
      <trkpt lat="47.24577" lon="-1.57473">
        <ele>35</ele>
        <time>2022-01-20T14:51:29Z</time>
      </trkpt>
      <trkpt lat="47.24576" lon="-1.57472">
        <ele>35</ele>
        <time>2022-01-20T14:51:30Z</time>
      </trkpt>
      <trkpt lat="47.24575" lon="-1.5747">
        <ele>34</ele>
        <time>2022-01-20T14:51:31Z</time>
      </trkpt>
      <trkpt lat="47.24574" lon="-1.57469">
        <ele>34</ele>
        <time>2022-01-20T14:51:32Z</time>
      </trkpt>
      <trkpt lat="47.24574" lon="-1.57468">
        <ele>35</ele>
        <time>2022-01-20T14:51:33Z</time>
      </trkpt>
      <trkpt lat="47.24573" lon="-1.57466">
        <ele>35</ele>
        <time>2022-01-20T14:51:34Z</time>
      </trkpt>
      <trkpt lat="47.24573" lon="-1.57465">
        <ele>35</ele>
        <time>2022-01-20T14:51:35Z</time>
      </trkpt>
      <trkpt lat="47.24572" lon="-1.57463">
        <ele>34</ele>
        <time>2022-01-20T14:51:36Z</time>
      </trkpt>
      <trkpt lat="47.24572" lon="-1.57462">
        <ele>34</ele>
        <time>2022-01-20T14:51:37Z</time>
      </trkpt>
      <trkpt lat="47.24571" lon="-1.5746">
        <ele>34</ele>
        <time>2022-01-20T14:51:38Z</time>
      </trkpt>
      <trkpt lat="47.24571" lon="-1.57458">
        <ele>34</ele>
        <time>2022-01-20T14:51:39Z</time>
      </trkpt>
      <trkpt lat="47.2457" lon="-1.57456">
        <ele>34</ele>
        <time>2022-01-20T14:51:40Z</time>
      </trkpt>
      <trkpt lat="47.24569" lon="-1.57454">
        <ele>34</ele>
        <time>2022-01-20T14:51:41Z</time>
      </trkpt>
      <trkpt lat="47.24569" lon="-1.57452">
        <ele>34</ele>
        <time>2022-01-20T14:51:42Z</time>
      </trkpt>
      <trkpt lat="47.24569" lon="-1.57451">
        <ele>34</ele>
        <time>2022-01-20T14:51:43Z</time>
      </trkpt>
      <trkpt lat="47.24569" lon="-1.57449">
        <ele>34</ele>
        <time>2022-01-20T14:51:44Z</time>
      </trkpt>
      <trkpt lat="47.24568" lon="-1.57447">
        <ele>33</ele>
        <time>2022-01-20T14:51:45Z</time>
      </trkpt>
      <trkpt lat="47.24567" lon="-1.57445">
        <ele>34</ele>
        <time>2022-01-20T14:51:46Z</time>
      </trkpt>
      <trkpt lat="47.24567" lon="-1.57443">
        <ele>33</ele>
        <time>2022-01-20T14:51:47Z</time>
      </trkpt>
      <trkpt lat="47.24567" lon="-1.57442">
        <ele>33</ele>
        <time>2022-01-20T14:51:48Z</time>
      </trkpt>
      <trkpt lat="47.24566" lon="-1.5744">
        <ele>33</ele>
        <time>2022-01-20T14:51:49Z</time>
      </trkpt>
      <trkpt lat="47.24566" lon="-1.57438">
        <ele>32</ele>
        <time>2022-01-20T14:51:50Z</time>
      </trkpt>
      <trkpt lat="47.24566" lon="-1.57436">
        <ele>32</ele>
        <time>2022-01-20T14:51:51Z</time>
      </trkpt>
      <trkpt lat="47.24565" lon="-1.57435">
        <ele>32</ele>
        <time>2022-01-20T14:51:52Z</time>
      </trkpt>
      <trkpt lat="47.24565" lon="-1.57433">
        <ele>31</ele>
        <time>2022-01-20T14:51:53Z</time>
      </trkpt>
      <trkpt lat="47.24564" lon="-1.57431">
        <ele>31</ele>
        <time>2022-01-20T14:51:54Z</time>
      </trkpt>
      <trkpt lat="47.24564" lon="-1.5743">
        <ele>31</ele>
        <time>2022-01-20T14:51:55Z</time>
      </trkpt>
      <trkpt lat="47.24563" lon="-1.57428">
        <ele>31</ele>
        <time>2022-01-20T14:51:56Z</time>
      </trkpt>
      <trkpt lat="47.24563" lon="-1.57427">
        <ele>30</ele>
        <time>2022-01-20T14:51:57Z</time>
      </trkpt>
      <trkpt lat="47.24562" lon="-1.57426">
        <ele>30</ele>
        <time>2022-01-20T14:51:58Z</time>
      </trkpt>
      <trkpt lat="47.24562" lon="-1.57426">
        <ele>30</ele>
        <time>2022-01-20T14:51:59Z</time>
      </trkpt>
      <trkpt lat="47.24562" lon="-1.57426">
        <ele>30</ele>
        <time>2022-01-20T14:52:00Z</time>
      </trkpt>
      <trkpt lat="47.24561" lon="-1.57422">
        <ele>30</ele>
        <time>2022-01-20T14:52:01Z</time>
      </trkpt>
      <trkpt lat="47.24561" lon="-1.5742">
        <ele>30</ele>
        <time>2022-01-20T14:52:02Z</time>
      </trkpt>
      <trkpt lat="47.2456" lon="-1.57419">
        <ele>30</ele>
        <time>2022-01-20T14:52:03Z</time>
      </trkpt>
      <trkpt lat="47.2456" lon="-1.57417">
        <ele>29</ele>
        <time>2022-01-20T14:52:04Z</time>
      </trkpt>
      <trkpt lat="47.24559" lon="-1.57416">
        <ele>29</ele>
        <time>2022-01-20T14:52:05Z</time>
      </trkpt>
      <trkpt lat="47.24559" lon="-1.57415">
        <ele>29</ele>
        <time>2022-01-20T14:52:06Z</time>
      </trkpt>
      <trkpt lat="47.24559" lon="-1.57414">
        <ele>28</ele>
        <time>2022-01-20T14:52:07Z</time>
      </trkpt>
      <trkpt lat="47.24558" lon="-1.57412">
        <ele>28</ele>
        <time>2022-01-20T14:52:08Z</time>
      </trkpt>
      <trkpt lat="47.24558" lon="-1.5741">
        <ele>28</ele>
        <time>2022-01-20T14:52:09Z</time>
      </trkpt>
      <trkpt lat="47.24558" lon="-1.57409">
        <ele>27</ele>
        <time>2022-01-20T14:52:10Z</time>
      </trkpt>
      <trkpt lat="47.24558" lon="-1.57407">
        <ele>27</ele>
        <time>2022-01-20T14:52:11Z</time>
      </trkpt>
      <trkpt lat="47.24557" lon="-1.57405">
        <ele>27</ele>
        <time>2022-01-20T14:52:12Z</time>
      </trkpt>
      <trkpt lat="47.24557" lon="-1.57403">
        <ele>26</ele>
        <time>2022-01-20T14:52:13Z</time>
      </trkpt>
      <trkpt lat="47.24556" lon="-1.574">
        <ele>26</ele>
        <time>2022-01-20T14:52:14Z</time>
      </trkpt>
      <trkpt lat="47.24556" lon="-1.57398">
        <ele>25</ele>
        <time>2022-01-20T14:52:15Z</time>
      </trkpt>
      <trkpt lat="47.24556" lon="-1.57395">
        <ele>25</ele>
        <time>2022-01-20T14:52:16Z</time>
      </trkpt>
      <trkpt lat="47.24556" lon="-1.57393">
        <ele>25</ele>
        <time>2022-01-20T14:52:17Z</time>
      </trkpt>
      <trkpt lat="47.24555" lon="-1.57391">
        <ele>25</ele>
        <time>2022-01-20T14:52:18Z</time>
      </trkpt>
      <trkpt lat="47.24555" lon="-1.57388">
        <ele>25</ele>
        <time>2022-01-20T14:52:19Z</time>
      </trkpt>
      <trkpt lat="47.24555" lon="-1.57386">
        <ele>25</ele>
        <time>2022-01-20T14:52:20Z</time>
      </trkpt>
      <trkpt lat="47.24555" lon="-1.57384">
        <ele>24</ele>
        <time>2022-01-20T14:52:21Z</time>
      </trkpt>
      <trkpt lat="47.24555" lon="-1.57383">
        <ele>24</ele>
        <time>2022-01-20T14:52:22Z</time>
      </trkpt>
      <trkpt lat="47.24555" lon="-1.5738">
        <ele>24</ele>
        <time>2022-01-20T14:52:23Z</time>
      </trkpt>
      <trkpt lat="47.24555" lon="-1.57379">
        <ele>24</ele>
        <time>2022-01-20T14:52:24Z</time>
      </trkpt>
      <trkpt lat="47.24556" lon="-1.57377">
        <ele>23</ele>
        <time>2022-01-20T14:52:25Z</time>
      </trkpt>
      <trkpt lat="47.24555" lon="-1.57375">
        <ele>23</ele>
        <time>2022-01-20T14:52:26Z</time>
      </trkpt>
      <trkpt lat="47.24556" lon="-1.57374">
        <ele>24</ele>
        <time>2022-01-20T14:52:27Z</time>
      </trkpt>
      <trkpt lat="47.24555" lon="-1.57372">
        <ele>24</ele>
        <time>2022-01-20T14:52:28Z</time>
      </trkpt>
      <trkpt lat="47.24554" lon="-1.57371">
        <ele>23</ele>
        <time>2022-01-20T14:52:29Z</time>
      </trkpt>
      <trkpt lat="47.24554" lon="-1.57369">
        <ele>23</ele>
        <time>2022-01-20T14:52:30Z</time>
      </trkpt>
      <trkpt lat="47.24554" lon="-1.57367">
        <ele>23</ele>
        <time>2022-01-20T14:52:31Z</time>
      </trkpt>
      <trkpt lat="47.24553" lon="-1.57365">
        <ele>22</ele>
        <time>2022-01-20T14:52:32Z</time>
      </trkpt>
      <trkpt lat="47.24553" lon="-1.57363">
        <ele>22</ele>
        <time>2022-01-20T14:52:33Z</time>
      </trkpt>
      <trkpt lat="47.24552" lon="-1.57362">
        <ele>22</ele>
        <time>2022-01-20T14:52:34Z</time>
      </trkpt>
      <trkpt lat="47.24552" lon="-1.5736">
        <ele>22</ele>
        <time>2022-01-20T14:52:35Z</time>
      </trkpt>
      <trkpt lat="47.24552" lon="-1.57358">
        <ele>21</ele>
        <time>2022-01-20T14:52:36Z</time>
      </trkpt>
      <trkpt lat="47.24552" lon="-1.57355">
        <ele>21</ele>
        <time>2022-01-20T14:52:37Z</time>
      </trkpt>
      <trkpt lat="47.24551" lon="-1.57353">
        <ele>21</ele>
        <time>2022-01-20T14:52:38Z</time>
      </trkpt>
      <trkpt lat="47.24551" lon="-1.57351">
        <ele>21</ele>
        <time>2022-01-20T14:52:39Z</time>
      </trkpt>
      <trkpt lat="47.2455" lon="-1.57348">
        <ele>21</ele>
        <time>2022-01-20T14:52:40Z</time>
      </trkpt>
      <trkpt lat="47.2455" lon="-1.57346">
        <ele>20</ele>
        <time>2022-01-20T14:52:41Z</time>
      </trkpt>
      <trkpt lat="47.24549" lon="-1.57344">
        <ele>20</ele>
        <time>2022-01-20T14:52:42Z</time>
      </trkpt>
      <trkpt lat="47.24548" lon="-1.57342">
        <ele>20</ele>
        <time>2022-01-20T14:52:43Z</time>
      </trkpt>
      <trkpt lat="47.24547" lon="-1.57339">
        <ele>19</ele>
        <time>2022-01-20T14:52:44Z</time>
      </trkpt>
      <trkpt lat="47.24546" lon="-1.57336">
        <ele>19</ele>
        <time>2022-01-20T14:52:45Z</time>
      </trkpt>
      <trkpt lat="47.24546" lon="-1.57334">
        <ele>19</ele>
        <time>2022-01-20T14:52:46Z</time>
      </trkpt>
      <trkpt lat="47.24546" lon="-1.57331">
        <ele>19</ele>
        <time>2022-01-20T14:52:47Z</time>
      </trkpt>
      <trkpt lat="47.24545" lon="-1.57328">
        <ele>19</ele>
        <time>2022-01-20T14:52:48Z</time>
      </trkpt>
      <trkpt lat="47.24545" lon="-1.57326">
        <ele>19</ele>
        <time>2022-01-20T14:52:49Z</time>
      </trkpt>
      <trkpt lat="47.24544" lon="-1.57324">
        <ele>19</ele>
        <time>2022-01-20T14:52:50Z</time>
      </trkpt>
      <trkpt lat="47.24544" lon="-1.57322">
        <ele>19</ele>
        <time>2022-01-20T14:52:51Z</time>
      </trkpt>
      <trkpt lat="47.24543" lon="-1.5732">
        <ele>19</ele>
        <time>2022-01-20T14:52:52Z</time>
      </trkpt>
      <trkpt lat="47.24543" lon="-1.57318">
        <ele>19</ele>
        <time>2022-01-20T14:52:53Z</time>
      </trkpt>
      <trkpt lat="47.24543" lon="-1.57316">
        <ele>19</ele>
        <time>2022-01-20T14:52:54Z</time>
      </trkpt>
      <trkpt lat="47.24543" lon="-1.57314">
        <ele>19</ele>
        <time>2022-01-20T14:52:55Z</time>
      </trkpt>
      <trkpt lat="47.24543" lon="-1.57312">
        <ele>19</ele>
        <time>2022-01-20T14:52:56Z</time>
      </trkpt>
      <trkpt lat="47.24543" lon="-1.5731">
        <ele>19</ele>
        <time>2022-01-20T14:52:57Z</time>
      </trkpt>
      <trkpt lat="47.24543" lon="-1.57307">
        <ele>18</ele>
        <time>2022-01-20T14:52:58Z</time>
      </trkpt>
      <trkpt lat="47.24542" lon="-1.57305">
        <ele>19</ele>
        <time>2022-01-20T14:52:59Z</time>
      </trkpt>
      <trkpt lat="47.24542" lon="-1.57304">
        <ele>18</ele>
        <time>2022-01-20T14:53:00Z</time>
      </trkpt>
      <trkpt lat="47.24542" lon="-1.57302">
        <ele>18</ele>
        <time>2022-01-20T14:53:01Z</time>
      </trkpt>
      <trkpt lat="47.24542" lon="-1.573">
        <ele>18</ele>
        <time>2022-01-20T14:53:02Z</time>
      </trkpt>
      <trkpt lat="47.24542" lon="-1.57298">
        <ele>18</ele>
        <time>2022-01-20T14:53:03Z</time>
      </trkpt>
      <trkpt lat="47.24542" lon="-1.57297">
        <ele>18</ele>
        <time>2022-01-20T14:53:04Z</time>
      </trkpt>
      <trkpt lat="47.24541" lon="-1.57296">
        <ele>18</ele>
        <time>2022-01-20T14:53:05Z</time>
      </trkpt>
      <trkpt lat="47.24541" lon="-1.57294">
        <ele>18</ele>
        <time>2022-01-20T14:53:06Z</time>
      </trkpt>
      <trkpt lat="47.24542" lon="-1.57293">
        <ele>18</ele>
        <time>2022-01-20T14:53:07Z</time>
      </trkpt>
      <trkpt lat="47.24542" lon="-1.57291">
        <ele>18</ele>
        <time>2022-01-20T14:53:08Z</time>
      </trkpt>
      <trkpt lat="47.24542" lon="-1.57289">
        <ele>18</ele>
        <time>2022-01-20T14:53:09Z</time>
      </trkpt>
      <trkpt lat="47.24542" lon="-1.57289">
        <ele>18</ele>
        <time>2022-01-20T14:53:10Z</time>
      </trkpt>
      <trkpt lat="47.24542" lon="-1.57289">
        <ele>18</ele>
        <time>2022-01-20T14:53:11Z</time>
      </trkpt>
      <trkpt lat="47.24542" lon="-1.57285">
        <ele>18</ele>
        <time>2022-01-20T14:53:12Z</time>
      </trkpt>
      <trkpt lat="47.24543" lon="-1.57284">
        <ele>18</ele>
        <time>2022-01-20T14:53:13Z</time>
      </trkpt>
      <trkpt lat="47.24543" lon="-1.57282">
        <ele>18</ele>
        <time>2022-01-20T14:53:14Z</time>
      </trkpt>
      <trkpt lat="47.24543" lon="-1.5728">
        <ele>18</ele>
        <time>2022-01-20T14:53:15Z</time>
      </trkpt>
      <trkpt lat="47.24543" lon="-1.57279">
        <ele>18</ele>
        <time>2022-01-20T14:53:16Z</time>
      </trkpt>
      <trkpt lat="47.24543" lon="-1.57277">
        <ele>18</ele>
        <time>2022-01-20T14:53:17Z</time>
      </trkpt>
      <trkpt lat="47.24543" lon="-1.57275">
        <ele>18</ele>
        <time>2022-01-20T14:53:18Z</time>
      </trkpt>
      <trkpt lat="47.24543" lon="-1.57274">
        <ele>17</ele>
        <time>2022-01-20T14:53:19Z</time>
      </trkpt>
      <trkpt lat="47.24544" lon="-1.57272">
        <ele>17</ele>
        <time>2022-01-20T14:53:20Z</time>
      </trkpt>
      <trkpt lat="47.24545" lon="-1.57271">
        <ele>17</ele>
        <time>2022-01-20T14:53:21Z</time>
      </trkpt>
      <trkpt lat="47.24546" lon="-1.57269">
        <ele>17</ele>
        <time>2022-01-20T14:53:22Z</time>
      </trkpt>
      <trkpt lat="47.24546" lon="-1.57267">
        <ele>18</ele>
        <time>2022-01-20T14:53:23Z</time>
      </trkpt>
      <trkpt lat="47.24546" lon="-1.57265">
        <ele>18</ele>
        <time>2022-01-20T14:53:24Z</time>
      </trkpt>
      <trkpt lat="47.24546" lon="-1.57264">
        <ele>18</ele>
        <time>2022-01-20T14:53:25Z</time>
      </trkpt>
      <trkpt lat="47.24548" lon="-1.57263">
        <ele>19</ele>
        <time>2022-01-20T14:53:26Z</time>
      </trkpt>
      <trkpt lat="47.24549" lon="-1.57262">
        <ele>19</ele>
        <time>2022-01-20T14:53:27Z</time>
      </trkpt>
      <trkpt lat="47.2455" lon="-1.5726">
        <ele>19</ele>
        <time>2022-01-20T14:53:28Z</time>
      </trkpt>
      <trkpt lat="47.2455" lon="-1.57259">
        <ele>19</ele>
        <time>2022-01-20T14:53:29Z</time>
      </trkpt>
      <trkpt lat="47.2455" lon="-1.57257">
        <ele>19</ele>
        <time>2022-01-20T14:53:30Z</time>
      </trkpt>
      <trkpt lat="47.2455" lon="-1.57255">
        <ele>19</ele>
        <time>2022-01-20T14:53:31Z</time>
      </trkpt>
      <trkpt lat="47.2455" lon="-1.57255">
        <ele>19</ele>
        <time>2022-01-20T14:53:32Z</time>
      </trkpt>
      <trkpt lat="47.2455" lon="-1.57252">
        <ele>19</ele>
        <time>2022-01-20T14:53:33Z</time>
      </trkpt>
      <trkpt lat="47.2455" lon="-1.5725">
        <ele>19</ele>
        <time>2022-01-20T14:53:34Z</time>
      </trkpt>
      <trkpt lat="47.2455" lon="-1.57248">
        <ele>19</ele>
        <time>2022-01-20T14:53:35Z</time>
      </trkpt>
      <trkpt lat="47.2455" lon="-1.57246">
        <ele>19</ele>
        <time>2022-01-20T14:53:36Z</time>
      </trkpt>
      <trkpt lat="47.24551" lon="-1.57244">
        <ele>19</ele>
        <time>2022-01-20T14:53:37Z</time>
      </trkpt>
      <trkpt lat="47.24551" lon="-1.57242">
        <ele>18</ele>
        <time>2022-01-20T14:53:38Z</time>
      </trkpt>
      <trkpt lat="47.24551" lon="-1.57241">
        <ele>18</ele>
        <time>2022-01-20T14:53:39Z</time>
      </trkpt>
      <trkpt lat="47.24551" lon="-1.57239">
        <ele>18</ele>
        <time>2022-01-20T14:53:40Z</time>
      </trkpt>
      <trkpt lat="47.24551" lon="-1.57237">
        <ele>18</ele>
        <time>2022-01-20T14:53:41Z</time>
      </trkpt>
      <trkpt lat="47.24551" lon="-1.57235">
        <ele>18</ele>
        <time>2022-01-20T14:53:42Z</time>
      </trkpt>
      <trkpt lat="47.24552" lon="-1.57234">
        <ele>18</ele>
        <time>2022-01-20T14:53:43Z</time>
      </trkpt>
      <trkpt lat="47.24552" lon="-1.57232">
        <ele>17</ele>
        <time>2022-01-20T14:53:44Z</time>
      </trkpt>
      <trkpt lat="47.24553" lon="-1.57231">
        <ele>17</ele>
        <time>2022-01-20T14:53:45Z</time>
      </trkpt>
      <trkpt lat="47.24553" lon="-1.57229">
        <ele>18</ele>
        <time>2022-01-20T14:53:46Z</time>
      </trkpt>
      <trkpt lat="47.24553" lon="-1.57228">
        <ele>18</ele>
        <time>2022-01-20T14:53:47Z</time>
      </trkpt>
      <trkpt lat="47.24553" lon="-1.57226">
        <ele>17</ele>
        <time>2022-01-20T14:53:48Z</time>
      </trkpt>
      <trkpt lat="47.24553" lon="-1.57225">
        <ele>17</ele>
        <time>2022-01-20T14:53:49Z</time>
      </trkpt>
      <trkpt lat="47.24553" lon="-1.57223">
        <ele>17</ele>
        <time>2022-01-20T14:53:50Z</time>
      </trkpt>
      <trkpt lat="47.24554" lon="-1.57221">
        <ele>17</ele>
        <time>2022-01-20T14:53:51Z</time>
      </trkpt>
      <trkpt lat="47.24554" lon="-1.57219">
        <ele>17</ele>
        <time>2022-01-20T14:53:52Z</time>
      </trkpt>
      <trkpt lat="47.24553" lon="-1.57218">
        <ele>16</ele>
        <time>2022-01-20T14:53:53Z</time>
      </trkpt>
      <trkpt lat="47.24553" lon="-1.57216">
        <ele>16</ele>
        <time>2022-01-20T14:53:54Z</time>
      </trkpt>
      <trkpt lat="47.24553" lon="-1.57214">
        <ele>16</ele>
        <time>2022-01-20T14:53:55Z</time>
      </trkpt>
      <trkpt lat="47.24553" lon="-1.57211">
        <ele>15</ele>
        <time>2022-01-20T14:53:56Z</time>
      </trkpt>
      <trkpt lat="47.24553" lon="-1.57208">
        <ele>15</ele>
        <time>2022-01-20T14:53:57Z</time>
      </trkpt>
      <trkpt lat="47.24552" lon="-1.57205">
        <ele>15</ele>
        <time>2022-01-20T14:53:58Z</time>
      </trkpt>
      <trkpt lat="47.24552" lon="-1.57202">
        <ele>15</ele>
        <time>2022-01-20T14:53:59Z</time>
      </trkpt>
      <trkpt lat="47.24552" lon="-1.572">
        <ele>15</ele>
        <time>2022-01-20T14:54:00Z</time>
      </trkpt>
      <trkpt lat="47.24552" lon="-1.57197">
        <ele>15</ele>
        <time>2022-01-20T14:54:01Z</time>
      </trkpt>
      <trkpt lat="47.24553" lon="-1.57195">
        <ele>15</ele>
        <time>2022-01-20T14:54:02Z</time>
      </trkpt>
      <trkpt lat="47.24553" lon="-1.57192">
        <ele>15</ele>
        <time>2022-01-20T14:54:03Z</time>
      </trkpt>
      <trkpt lat="47.24553" lon="-1.57189">
        <ele>15</ele>
        <time>2022-01-20T14:54:04Z</time>
      </trkpt>
      <trkpt lat="47.24553" lon="-1.57187">
        <ele>15</ele>
        <time>2022-01-20T14:54:05Z</time>
      </trkpt>
      <trkpt lat="47.24554" lon="-1.57184">
        <ele>15</ele>
        <time>2022-01-20T14:54:06Z</time>
      </trkpt>
      <trkpt lat="47.24554" lon="-1.57181">
        <ele>15</ele>
        <time>2022-01-20T14:54:07Z</time>
      </trkpt>
      <trkpt lat="47.24554" lon="-1.57179">
        <ele>16</ele>
        <time>2022-01-20T14:54:08Z</time>
      </trkpt>
      <trkpt lat="47.24554" lon="-1.57176">
        <ele>16</ele>
        <time>2022-01-20T14:54:09Z</time>
      </trkpt>
      <trkpt lat="47.24555" lon="-1.57173">
        <ele>16</ele>
        <time>2022-01-20T14:54:10Z</time>
      </trkpt>
      <trkpt lat="47.24554" lon="-1.5717">
        <ele>17</ele>
        <time>2022-01-20T14:54:11Z</time>
      </trkpt>
      <trkpt lat="47.24554" lon="-1.57168">
        <ele>17</ele>
        <time>2022-01-20T14:54:12Z</time>
      </trkpt>
      <trkpt lat="47.24554" lon="-1.57166">
        <ele>17</ele>
        <time>2022-01-20T14:54:13Z</time>
      </trkpt>
      <trkpt lat="47.24554" lon="-1.57163">
        <ele>17</ele>
        <time>2022-01-20T14:54:14Z</time>
      </trkpt>
      <trkpt lat="47.24554" lon="-1.57161">
        <ele>17</ele>
        <time>2022-01-20T14:54:15Z</time>
      </trkpt>
      <trkpt lat="47.24554" lon="-1.57158">
        <ele>17</ele>
        <time>2022-01-20T14:54:16Z</time>
      </trkpt>
      <trkpt lat="47.24554" lon="-1.57156">
        <ele>17</ele>
        <time>2022-01-20T14:54:17Z</time>
      </trkpt>
      <trkpt lat="47.24554" lon="-1.57153">
        <ele>17</ele>
        <time>2022-01-20T14:54:18Z</time>
      </trkpt>
      <trkpt lat="47.24554" lon="-1.57151">
        <ele>17</ele>
        <time>2022-01-20T14:54:19Z</time>
      </trkpt>
      <trkpt lat="47.24554" lon="-1.57148">
        <ele>17</ele>
        <time>2022-01-20T14:54:20Z</time>
      </trkpt>
      <trkpt lat="47.24554" lon="-1.57146">
        <ele>17</ele>
        <time>2022-01-20T14:54:21Z</time>
      </trkpt>
      <trkpt lat="47.24554" lon="-1.57143">
        <ele>18</ele>
        <time>2022-01-20T14:54:22Z</time>
      </trkpt>
      <trkpt lat="47.24554" lon="-1.57141">
        <ele>18</ele>
        <time>2022-01-20T14:54:23Z</time>
      </trkpt>
      <trkpt lat="47.24554" lon="-1.57138">
        <ele>19</ele>
        <time>2022-01-20T14:54:24Z</time>
      </trkpt>
      <trkpt lat="47.24554" lon="-1.57136">
        <ele>19</ele>
        <time>2022-01-20T14:54:25Z</time>
      </trkpt>
      <trkpt lat="47.24553" lon="-1.57133">
        <ele>19</ele>
        <time>2022-01-20T14:54:26Z</time>
      </trkpt>
      <trkpt lat="47.24552" lon="-1.57131">
        <ele>19</ele>
        <time>2022-01-20T14:54:27Z</time>
      </trkpt>
      <trkpt lat="47.24551" lon="-1.57128">
        <ele>20</ele>
        <time>2022-01-20T14:54:28Z</time>
      </trkpt>
      <trkpt lat="47.2455" lon="-1.57126">
        <ele>20</ele>
        <time>2022-01-20T14:54:29Z</time>
      </trkpt>
      <trkpt lat="47.24549" lon="-1.57125">
        <ele>21</ele>
        <time>2022-01-20T14:54:30Z</time>
      </trkpt>
      <trkpt lat="47.24548" lon="-1.57126">
        <ele>22</ele>
        <time>2022-01-20T14:54:31Z</time>
      </trkpt>
      <trkpt lat="47.24546" lon="-1.57125">
        <ele>23</ele>
        <time>2022-01-20T14:54:32Z</time>
      </trkpt>
      <trkpt lat="47.24545" lon="-1.57125">
        <ele>25</ele>
        <time>2022-01-20T14:54:33Z</time>
      </trkpt>
      <trkpt lat="47.24544" lon="-1.57125">
        <ele>26</ele>
        <time>2022-01-20T14:54:34Z</time>
      </trkpt>
      <trkpt lat="47.24543" lon="-1.57125">
        <ele>27</ele>
        <time>2022-01-20T14:54:35Z</time>
      </trkpt>
      <trkpt lat="47.24542" lon="-1.57125">
        <ele>28</ele>
        <time>2022-01-20T14:54:36Z</time>
      </trkpt>
      <trkpt lat="47.24541" lon="-1.57125">
        <ele>29</ele>
        <time>2022-01-20T14:54:37Z</time>
      </trkpt>
      <trkpt lat="47.2454" lon="-1.57125">
        <ele>29</ele>
        <time>2022-01-20T14:54:38Z</time>
      </trkpt>
      <trkpt lat="47.24538" lon="-1.57124">
        <ele>31</ele>
        <time>2022-01-20T14:54:39Z</time>
      </trkpt>
      <trkpt lat="47.24537" lon="-1.57125">
        <ele>31</ele>
        <time>2022-01-20T14:54:40Z</time>
      </trkpt>
      <trkpt lat="47.24536" lon="-1.57125">
        <ele>32</ele>
        <time>2022-01-20T14:54:41Z</time>
      </trkpt>
      <trkpt lat="47.24535" lon="-1.57126">
        <ele>32</ele>
        <time>2022-01-20T14:54:42Z</time>
      </trkpt>
      <trkpt lat="47.24534" lon="-1.57126">
        <ele>32</ele>
        <time>2022-01-20T14:54:43Z</time>
      </trkpt>
      <trkpt lat="47.24533" lon="-1.57126">
        <ele>32</ele>
        <time>2022-01-20T14:54:44Z</time>
      </trkpt>
      <trkpt lat="47.24532" lon="-1.57125">
        <ele>32</ele>
        <time>2022-01-20T14:54:45Z</time>
      </trkpt>
      <trkpt lat="47.24531" lon="-1.57125">
        <ele>32</ele>
        <time>2022-01-20T14:54:46Z</time>
      </trkpt>
      <trkpt lat="47.2453" lon="-1.57125">
        <ele>32</ele>
        <time>2022-01-20T14:54:47Z</time>
      </trkpt>
      <trkpt lat="47.24529" lon="-1.57124">
        <ele>32</ele>
        <time>2022-01-20T14:54:48Z</time>
      </trkpt>
      <trkpt lat="47.24528" lon="-1.57124">
        <ele>32</ele>
        <time>2022-01-20T14:54:49Z</time>
      </trkpt>
      <trkpt lat="47.24527" lon="-1.57124">
        <ele>32</ele>
        <time>2022-01-20T14:54:50Z</time>
      </trkpt>
      <trkpt lat="47.24527" lon="-1.57124">
        <ele>33</ele>
        <time>2022-01-20T14:54:51Z</time>
      </trkpt>
      <trkpt lat="47.24526" lon="-1.57123">
        <ele>33</ele>
        <time>2022-01-20T14:54:52Z</time>
      </trkpt>
      <trkpt lat="47.24525" lon="-1.57122">
        <ele>33</ele>
        <time>2022-01-20T14:54:53Z</time>
      </trkpt>
      <trkpt lat="47.24524" lon="-1.57121">
        <ele>32</ele>
        <time>2022-01-20T14:54:54Z</time>
      </trkpt>
      <trkpt lat="47.24522" lon="-1.57121">
        <ele>32</ele>
        <time>2022-01-20T14:54:55Z</time>
      </trkpt>
      <trkpt lat="47.24521" lon="-1.57121">
        <ele>32</ele>
        <time>2022-01-20T14:54:56Z</time>
      </trkpt>
      <trkpt lat="47.2452" lon="-1.57121">
        <ele>32</ele>
        <time>2022-01-20T14:54:57Z</time>
      </trkpt>
      <trkpt lat="47.24518" lon="-1.57121">
        <ele>32</ele>
        <time>2022-01-20T14:54:58Z</time>
      </trkpt>
      <trkpt lat="47.24516" lon="-1.57121">
        <ele>32</ele>
        <time>2022-01-20T14:54:59Z</time>
      </trkpt>
      <trkpt lat="47.24514" lon="-1.5712">
        <ele>32</ele>
        <time>2022-01-20T14:55:00Z</time>
      </trkpt>
      <trkpt lat="47.24513" lon="-1.57117">
        <ele>33</ele>
        <time>2022-01-20T14:55:01Z</time>
      </trkpt>
      <trkpt lat="47.24511" lon="-1.57116">
        <ele>33</ele>
        <time>2022-01-20T14:55:02Z</time>
      </trkpt>
      <trkpt lat="47.24509" lon="-1.57115">
        <ele>34</ele>
        <time>2022-01-20T14:55:03Z</time>
      </trkpt>
      <trkpt lat="47.24508" lon="-1.57113">
        <ele>34</ele>
        <time>2022-01-20T14:55:04Z</time>
      </trkpt>
      <trkpt lat="47.24507" lon="-1.57112">
        <ele>34</ele>
        <time>2022-01-20T14:55:05Z</time>
      </trkpt>
      <trkpt lat="47.24506" lon="-1.57111">
        <ele>34</ele>
        <time>2022-01-20T14:55:06Z</time>
      </trkpt>
      <trkpt lat="47.24505" lon="-1.57109">
        <ele>34</ele>
        <time>2022-01-20T14:55:07Z</time>
      </trkpt>
      <trkpt lat="47.24504" lon="-1.57108">
        <ele>34</ele>
        <time>2022-01-20T14:55:08Z</time>
      </trkpt>
      <trkpt lat="47.24503" lon="-1.57106">
        <ele>34</ele>
        <time>2022-01-20T14:55:09Z</time>
      </trkpt>
      <trkpt lat="47.24501" lon="-1.57105">
        <ele>35</ele>
        <time>2022-01-20T14:55:10Z</time>
      </trkpt>
      <trkpt lat="47.245" lon="-1.57103">
        <ele>35</ele>
        <time>2022-01-20T14:55:11Z</time>
      </trkpt>
      <trkpt lat="47.24499" lon="-1.57101">
        <ele>35</ele>
        <time>2022-01-20T14:55:12Z</time>
      </trkpt>
      <trkpt lat="47.24498" lon="-1.57099">
        <ele>35</ele>
        <time>2022-01-20T14:55:13Z</time>
      </trkpt>
      <trkpt lat="47.24497" lon="-1.57098">
        <ele>35</ele>
        <time>2022-01-20T14:55:14Z</time>
      </trkpt>
      <trkpt lat="47.24496" lon="-1.57096">
        <ele>35</ele>
        <time>2022-01-20T14:55:15Z</time>
      </trkpt>
      <trkpt lat="47.24495" lon="-1.57093">
        <ele>35</ele>
        <time>2022-01-20T14:55:16Z</time>
      </trkpt>
      <trkpt lat="47.24495" lon="-1.57092">
        <ele>35</ele>
        <time>2022-01-20T14:55:17Z</time>
      </trkpt>
      <trkpt lat="47.24494" lon="-1.5709">
        <ele>34</ele>
        <time>2022-01-20T14:55:18Z</time>
      </trkpt>
      <trkpt lat="47.24493" lon="-1.57088">
        <ele>34</ele>
        <time>2022-01-20T14:55:19Z</time>
      </trkpt>
      <trkpt lat="47.24492" lon="-1.57087">
        <ele>34</ele>
        <time>2022-01-20T14:55:20Z</time>
      </trkpt>
      <trkpt lat="47.24491" lon="-1.57085">
        <ele>34</ele>
        <time>2022-01-20T14:55:21Z</time>
      </trkpt>
      <trkpt lat="47.2449" lon="-1.57084">
        <ele>34</ele>
        <time>2022-01-20T14:55:22Z</time>
      </trkpt>
      <trkpt lat="47.24489" lon="-1.57083">
        <ele>34</ele>
        <time>2022-01-20T14:55:23Z</time>
      </trkpt>
      <trkpt lat="47.24488" lon="-1.57082">
        <ele>34</ele>
        <time>2022-01-20T14:55:24Z</time>
      </trkpt>
      <trkpt lat="47.24487" lon="-1.5708">
        <ele>34</ele>
        <time>2022-01-20T14:55:25Z</time>
      </trkpt>
      <trkpt lat="47.24486" lon="-1.57079">
        <ele>34</ele>
        <time>2022-01-20T14:55:26Z</time>
      </trkpt>
      <trkpt lat="47.24486" lon="-1.57078">
        <ele>35</ele>
        <time>2022-01-20T14:55:27Z</time>
      </trkpt>
      <trkpt lat="47.24485" lon="-1.57076">
        <ele>34</ele>
        <time>2022-01-20T14:55:28Z</time>
      </trkpt>
      <trkpt lat="47.24484" lon="-1.57074">
        <ele>34</ele>
        <time>2022-01-20T14:55:29Z</time>
      </trkpt>
      <trkpt lat="47.24483" lon="-1.57072">
        <ele>34</ele>
        <time>2022-01-20T14:55:30Z</time>
      </trkpt>
      <trkpt lat="47.24482" lon="-1.5707">
        <ele>34</ele>
        <time>2022-01-20T14:55:31Z</time>
      </trkpt>
      <trkpt lat="47.24482" lon="-1.57069">
        <ele>34</ele>
        <time>2022-01-20T14:55:32Z</time>
      </trkpt>
      <trkpt lat="47.24481" lon="-1.57067">
        <ele>34</ele>
        <time>2022-01-20T14:55:33Z</time>
      </trkpt>
      <trkpt lat="47.2448" lon="-1.57065">
        <ele>35</ele>
        <time>2022-01-20T14:55:34Z</time>
      </trkpt>
      <trkpt lat="47.24479" lon="-1.57064">
        <ele>34</ele>
        <time>2022-01-20T14:55:35Z</time>
      </trkpt>
      <trkpt lat="47.24478" lon="-1.57062">
        <ele>35</ele>
        <time>2022-01-20T14:55:36Z</time>
      </trkpt>
      <trkpt lat="47.24477" lon="-1.5706">
        <ele>35</ele>
        <time>2022-01-20T14:55:37Z</time>
      </trkpt>
      <trkpt lat="47.24477" lon="-1.57059">
        <ele>35</ele>
        <time>2022-01-20T14:55:38Z</time>
      </trkpt>
      <trkpt lat="47.24476" lon="-1.57057">
        <ele>35</ele>
        <time>2022-01-20T14:55:39Z</time>
      </trkpt>
      <trkpt lat="47.24475" lon="-1.57055">
        <ele>35</ele>
        <time>2022-01-20T14:55:40Z</time>
      </trkpt>
      <trkpt lat="47.24474" lon="-1.57053">
        <ele>35</ele>
        <time>2022-01-20T14:55:41Z</time>
      </trkpt>
      <trkpt lat="47.24473" lon="-1.57052">
        <ele>35</ele>
        <time>2022-01-20T14:55:42Z</time>
      </trkpt>
      <trkpt lat="47.24472" lon="-1.57049">
        <ele>35</ele>
        <time>2022-01-20T14:55:43Z</time>
      </trkpt>
      <trkpt lat="47.24471" lon="-1.57048">
        <ele>36</ele>
        <time>2022-01-20T14:55:44Z</time>
      </trkpt>
      <trkpt lat="47.24471" lon="-1.57046">
        <ele>36</ele>
        <time>2022-01-20T14:55:45Z</time>
      </trkpt>
      <trkpt lat="47.24469" lon="-1.57044">
        <ele>36</ele>
        <time>2022-01-20T14:55:46Z</time>
      </trkpt>
      <trkpt lat="47.24468" lon="-1.57043">
        <ele>36</ele>
        <time>2022-01-20T14:55:47Z</time>
      </trkpt>
      <trkpt lat="47.24467" lon="-1.57041">
        <ele>36</ele>
        <time>2022-01-20T14:55:48Z</time>
      </trkpt>
      <trkpt lat="47.24466" lon="-1.57039">
        <ele>36</ele>
        <time>2022-01-20T14:55:49Z</time>
      </trkpt>
      <trkpt lat="47.24466" lon="-1.57038">
        <ele>36</ele>
        <time>2022-01-20T14:55:50Z</time>
      </trkpt>
      <trkpt lat="47.24464" lon="-1.57036">
        <ele>36</ele>
        <time>2022-01-20T14:55:51Z</time>
      </trkpt>
      <trkpt lat="47.24463" lon="-1.57034">
        <ele>36</ele>
        <time>2022-01-20T14:55:52Z</time>
      </trkpt>
      <trkpt lat="47.24463" lon="-1.57032">
        <ele>36</ele>
        <time>2022-01-20T14:55:53Z</time>
      </trkpt>
      <trkpt lat="47.24461" lon="-1.57031">
        <ele>36</ele>
        <time>2022-01-20T14:55:54Z</time>
      </trkpt>
      <trkpt lat="47.24461" lon="-1.57028">
        <ele>36</ele>
        <time>2022-01-20T14:55:55Z</time>
      </trkpt>
      <trkpt lat="47.2446" lon="-1.57026">
        <ele>35</ele>
        <time>2022-01-20T14:55:56Z</time>
      </trkpt>
      <trkpt lat="47.24459" lon="-1.57024">
        <ele>35</ele>
        <time>2022-01-20T14:55:57Z</time>
      </trkpt>
      <trkpt lat="47.24458" lon="-1.57023">
        <ele>35</ele>
        <time>2022-01-20T14:55:58Z</time>
      </trkpt>
      <trkpt lat="47.24458" lon="-1.57021">
        <ele>35</ele>
        <time>2022-01-20T14:55:59Z</time>
      </trkpt>
      <trkpt lat="47.24457" lon="-1.57019">
        <ele>35</ele>
        <time>2022-01-20T14:56:00Z</time>
      </trkpt>
      <trkpt lat="47.24456" lon="-1.57018">
        <ele>35</ele>
        <time>2022-01-20T14:56:01Z</time>
      </trkpt>
      <trkpt lat="47.24455" lon="-1.57016">
        <ele>35</ele>
        <time>2022-01-20T14:56:02Z</time>
      </trkpt>
      <trkpt lat="47.24454" lon="-1.57014">
        <ele>36</ele>
        <time>2022-01-20T14:56:03Z</time>
      </trkpt>
      <trkpt lat="47.24453" lon="-1.57013">
        <ele>36</ele>
        <time>2022-01-20T14:56:04Z</time>
      </trkpt>
      <trkpt lat="47.24452" lon="-1.57012">
        <ele>36</ele>
        <time>2022-01-20T14:56:05Z</time>
      </trkpt>
      <trkpt lat="47.24451" lon="-1.5701">
        <ele>36</ele>
        <time>2022-01-20T14:56:06Z</time>
      </trkpt>
      <trkpt lat="47.2445" lon="-1.57008">
        <ele>36</ele>
        <time>2022-01-20T14:56:07Z</time>
      </trkpt>
      <trkpt lat="47.24449" lon="-1.57007">
        <ele>37</ele>
        <time>2022-01-20T14:56:08Z</time>
      </trkpt>
      <trkpt lat="47.24448" lon="-1.57005">
        <ele>37</ele>
        <time>2022-01-20T14:56:09Z</time>
      </trkpt>
      <trkpt lat="47.24447" lon="-1.57004">
        <ele>37</ele>
        <time>2022-01-20T14:56:10Z</time>
      </trkpt>
      <trkpt lat="47.24447" lon="-1.57002">
        <ele>37</ele>
        <time>2022-01-20T14:56:11Z</time>
      </trkpt>
      <trkpt lat="47.24445" lon="-1.57">
        <ele>37</ele>
        <time>2022-01-20T14:56:12Z</time>
      </trkpt>
      <trkpt lat="47.24445" lon="-1.56999">
        <ele>37</ele>
        <time>2022-01-20T14:56:13Z</time>
      </trkpt>
      <trkpt lat="47.24444" lon="-1.56997">
        <ele>38</ele>
        <time>2022-01-20T14:56:14Z</time>
      </trkpt>
      <trkpt lat="47.24443" lon="-1.56995">
        <ele>37</ele>
        <time>2022-01-20T14:56:15Z</time>
      </trkpt>
      <trkpt lat="47.24442" lon="-1.56994">
        <ele>37</ele>
        <time>2022-01-20T14:56:16Z</time>
      </trkpt>
      <trkpt lat="47.24441" lon="-1.56992">
        <ele>38</ele>
        <time>2022-01-20T14:56:17Z</time>
      </trkpt>
      <trkpt lat="47.2444" lon="-1.56991">
        <ele>38</ele>
        <time>2022-01-20T14:56:18Z</time>
      </trkpt>
      <trkpt lat="47.24439" lon="-1.56989">
        <ele>38</ele>
        <time>2022-01-20T14:56:19Z</time>
      </trkpt>
      <trkpt lat="47.24438" lon="-1.56988">
        <ele>38</ele>
        <time>2022-01-20T14:56:20Z</time>
      </trkpt>
      <trkpt lat="47.24437" lon="-1.56986">
        <ele>38</ele>
        <time>2022-01-20T14:56:21Z</time>
      </trkpt>
      <trkpt lat="47.24435" lon="-1.56984">
        <ele>39</ele>
        <time>2022-01-20T14:56:22Z</time>
      </trkpt>
      <trkpt lat="47.24434" lon="-1.56982">
        <ele>39</ele>
        <time>2022-01-20T14:56:23Z</time>
      </trkpt>
      <trkpt lat="47.24432" lon="-1.56979">
        <ele>40</ele>
        <time>2022-01-20T14:56:25Z</time>
      </trkpt>
      <trkpt lat="47.24431" lon="-1.56978">
        <ele>40</ele>
        <time>2022-01-20T14:56:26Z</time>
      </trkpt>
      <trkpt lat="47.2443" lon="-1.56976">
        <ele>40</ele>
        <time>2022-01-20T14:56:27Z</time>
      </trkpt>
      <trkpt lat="47.24429" lon="-1.56974">
        <ele>40</ele>
        <time>2022-01-20T14:56:28Z</time>
      </trkpt>
      <trkpt lat="47.24428" lon="-1.56972">
        <ele>40</ele>
        <time>2022-01-20T14:56:29Z</time>
      </trkpt>
      <trkpt lat="47.24428" lon="-1.56971">
        <ele>40</ele>
        <time>2022-01-20T14:56:30Z</time>
      </trkpt>
      <trkpt lat="47.24427" lon="-1.56969">
        <ele>40</ele>
        <time>2022-01-20T14:56:31Z</time>
      </trkpt>
      <trkpt lat="47.24426" lon="-1.56967">
        <ele>40</ele>
        <time>2022-01-20T14:56:32Z</time>
      </trkpt>
      <trkpt lat="47.24426" lon="-1.56966">
        <ele>40</ele>
        <time>2022-01-20T14:56:33Z</time>
      </trkpt>
      <trkpt lat="47.24425" lon="-1.56964">
        <ele>40</ele>
        <time>2022-01-20T14:56:34Z</time>
      </trkpt>
      <trkpt lat="47.24424" lon="-1.56963">
        <ele>40</ele>
        <time>2022-01-20T14:56:35Z</time>
      </trkpt>
      <trkpt lat="47.24424" lon="-1.56961">
        <ele>40</ele>
        <time>2022-01-20T14:56:36Z</time>
      </trkpt>
      <trkpt lat="47.24423" lon="-1.5696">
        <ele>40</ele>
        <time>2022-01-20T14:56:37Z</time>
      </trkpt>
      <trkpt lat="47.24422" lon="-1.56958">
        <ele>40</ele>
        <time>2022-01-20T14:56:38Z</time>
      </trkpt>
      <trkpt lat="47.24421" lon="-1.56957">
        <ele>40</ele>
        <time>2022-01-20T14:56:39Z</time>
      </trkpt>
      <trkpt lat="47.2442" lon="-1.56955">
        <ele>40</ele>
        <time>2022-01-20T14:56:40Z</time>
      </trkpt>
      <trkpt lat="47.24419" lon="-1.56954">
        <ele>41</ele>
        <time>2022-01-20T14:56:41Z</time>
      </trkpt>
      <trkpt lat="47.24418" lon="-1.56953">
        <ele>41</ele>
        <time>2022-01-20T14:56:42Z</time>
      </trkpt>
      <trkpt lat="47.24417" lon="-1.56952">
        <ele>41</ele>
        <time>2022-01-20T14:56:43Z</time>
      </trkpt>
      <trkpt lat="47.24416" lon="-1.5695">
        <ele>41</ele>
        <time>2022-01-20T14:56:44Z</time>
      </trkpt>
      <trkpt lat="47.24415" lon="-1.56948">
        <ele>40</ele>
        <time>2022-01-20T14:56:45Z</time>
      </trkpt>
      <trkpt lat="47.24414" lon="-1.56946">
        <ele>40</ele>
        <time>2022-01-20T14:56:46Z</time>
      </trkpt>
      <trkpt lat="47.24413" lon="-1.56944">
        <ele>40</ele>
        <time>2022-01-20T14:56:47Z</time>
      </trkpt>
      <trkpt lat="47.24412" lon="-1.56942">
        <ele>40</ele>
        <time>2022-01-20T14:56:48Z</time>
      </trkpt>
      <trkpt lat="47.24411" lon="-1.5694">
        <ele>40</ele>
        <time>2022-01-20T14:56:49Z</time>
      </trkpt>
      <trkpt lat="47.2441" lon="-1.56938">
        <ele>40</ele>
        <time>2022-01-20T14:56:50Z</time>
      </trkpt>
      <trkpt lat="47.24409" lon="-1.56936">
        <ele>40</ele>
        <time>2022-01-20T14:56:51Z</time>
      </trkpt>
      <trkpt lat="47.24408" lon="-1.56935">
        <ele>40</ele>
        <time>2022-01-20T14:56:52Z</time>
      </trkpt>
      <trkpt lat="47.24406" lon="-1.56933">
        <ele>40</ele>
        <time>2022-01-20T14:56:53Z</time>
      </trkpt>
      <trkpt lat="47.24406" lon="-1.56932">
        <ele>40</ele>
        <time>2022-01-20T14:56:54Z</time>
      </trkpt>
      <trkpt lat="47.24405" lon="-1.5693">
        <ele>40</ele>
        <time>2022-01-20T14:56:55Z</time>
      </trkpt>
      <trkpt lat="47.24404" lon="-1.56929">
        <ele>40</ele>
        <time>2022-01-20T14:56:56Z</time>
      </trkpt>
      <trkpt lat="47.24403" lon="-1.56927">
        <ele>40</ele>
        <time>2022-01-20T14:56:57Z</time>
      </trkpt>
      <trkpt lat="47.24403" lon="-1.56925">
        <ele>40</ele>
        <time>2022-01-20T14:56:58Z</time>
      </trkpt>
      <trkpt lat="47.24402" lon="-1.56924">
        <ele>40</ele>
        <time>2022-01-20T14:56:59Z</time>
      </trkpt>
      <trkpt lat="47.24401" lon="-1.56922">
        <ele>40</ele>
        <time>2022-01-20T14:57:00Z</time>
      </trkpt>
      <trkpt lat="47.244" lon="-1.56921">
        <ele>40</ele>
        <time>2022-01-20T14:57:01Z</time>
      </trkpt>
      <trkpt lat="47.24399" lon="-1.56919">
        <ele>40</ele>
        <time>2022-01-20T14:57:02Z</time>
      </trkpt>
      <trkpt lat="47.24398" lon="-1.56917">
        <ele>40</ele>
        <time>2022-01-20T14:57:03Z</time>
      </trkpt>
      <trkpt lat="47.24397" lon="-1.56916">
        <ele>41</ele>
        <time>2022-01-20T14:57:04Z</time>
      </trkpt>
      <trkpt lat="47.24397" lon="-1.56915">
        <ele>41</ele>
        <time>2022-01-20T14:57:05Z</time>
      </trkpt>
      <trkpt lat="47.24396" lon="-1.56913">
        <ele>41</ele>
        <time>2022-01-20T14:57:06Z</time>
      </trkpt>
      <trkpt lat="47.24395" lon="-1.56912">
        <ele>41</ele>
        <time>2022-01-20T14:57:07Z</time>
      </trkpt>
      <trkpt lat="47.24394" lon="-1.5691">
        <ele>41</ele>
        <time>2022-01-20T14:57:08Z</time>
      </trkpt>
      <trkpt lat="47.24394" lon="-1.56908">
        <ele>42</ele>
        <time>2022-01-20T14:57:09Z</time>
      </trkpt>
      <trkpt lat="47.24393" lon="-1.56906">
        <ele>42</ele>
        <time>2022-01-20T14:57:10Z</time>
      </trkpt>
      <trkpt lat="47.24392" lon="-1.56905">
        <ele>42</ele>
        <time>2022-01-20T14:57:11Z</time>
      </trkpt>
      <trkpt lat="47.24391" lon="-1.56904">
        <ele>42</ele>
        <time>2022-01-20T14:57:12Z</time>
      </trkpt>
      <trkpt lat="47.2439" lon="-1.56903">
        <ele>42</ele>
        <time>2022-01-20T14:57:13Z</time>
      </trkpt>
      <trkpt lat="47.2439" lon="-1.56901">
        <ele>42</ele>
        <time>2022-01-20T14:57:14Z</time>
      </trkpt>
      <trkpt lat="47.24389" lon="-1.56899">
        <ele>42</ele>
        <time>2022-01-20T14:57:15Z</time>
      </trkpt>
      <trkpt lat="47.24389" lon="-1.56898">
        <ele>43</ele>
        <time>2022-01-20T14:57:16Z</time>
      </trkpt>
      <trkpt lat="47.24388" lon="-1.56896">
        <ele>42</ele>
        <time>2022-01-20T14:57:17Z</time>
      </trkpt>
      <trkpt lat="47.24387" lon="-1.56895">
        <ele>42</ele>
        <time>2022-01-20T14:57:18Z</time>
      </trkpt>
      <trkpt lat="47.24387" lon="-1.56893">
        <ele>42</ele>
        <time>2022-01-20T14:57:19Z</time>
      </trkpt>
      <trkpt lat="47.24387" lon="-1.56891">
        <ele>42</ele>
        <time>2022-01-20T14:57:20Z</time>
      </trkpt>
      <trkpt lat="47.24386" lon="-1.56889">
        <ele>43</ele>
        <time>2022-01-20T14:57:21Z</time>
      </trkpt>
      <trkpt lat="47.24385" lon="-1.56888">
        <ele>43</ele>
        <time>2022-01-20T14:57:22Z</time>
      </trkpt>
      <trkpt lat="47.24384" lon="-1.56886">
        <ele>43</ele>
        <time>2022-01-20T14:57:23Z</time>
      </trkpt>
      <trkpt lat="47.24384" lon="-1.56884">
        <ele>43</ele>
        <time>2022-01-20T14:57:24Z</time>
      </trkpt>
      <trkpt lat="47.24383" lon="-1.56882">
        <ele>43</ele>
        <time>2022-01-20T14:57:25Z</time>
      </trkpt>
      <trkpt lat="47.24382" lon="-1.5688">
        <ele>43</ele>
        <time>2022-01-20T14:57:26Z</time>
      </trkpt>
      <trkpt lat="47.24382" lon="-1.56879">
        <ele>43</ele>
        <time>2022-01-20T14:57:27Z</time>
      </trkpt>
      <trkpt lat="47.24381" lon="-1.56878">
        <ele>43</ele>
        <time>2022-01-20T14:57:28Z</time>
      </trkpt>
      <trkpt lat="47.24381" lon="-1.56876">
        <ele>43</ele>
        <time>2022-01-20T14:57:29Z</time>
      </trkpt>
      <trkpt lat="47.24381" lon="-1.56875">
        <ele>43</ele>
        <time>2022-01-20T14:57:30Z</time>
      </trkpt>
      <trkpt lat="47.2438" lon="-1.56873">
        <ele>43</ele>
        <time>2022-01-20T14:57:31Z</time>
      </trkpt>
      <trkpt lat="47.24379" lon="-1.56872">
        <ele>43</ele>
        <time>2022-01-20T14:57:32Z</time>
      </trkpt>
      <trkpt lat="47.24379" lon="-1.5687">
        <ele>44</ele>
        <time>2022-01-20T14:57:33Z</time>
      </trkpt>
      <trkpt lat="47.24379" lon="-1.56869">
        <ele>44</ele>
        <time>2022-01-20T14:57:34Z</time>
      </trkpt>
      <trkpt lat="47.24377" lon="-1.56866">
        <ele>43</ele>
        <time>2022-01-20T14:57:35Z</time>
      </trkpt>
      <trkpt lat="47.24377" lon="-1.56865">
        <ele>43</ele>
        <time>2022-01-20T14:57:36Z</time>
      </trkpt>
      <trkpt lat="47.24376" lon="-1.56863">
        <ele>43</ele>
        <time>2022-01-20T14:57:37Z</time>
      </trkpt>
      <trkpt lat="47.24375" lon="-1.56861">
        <ele>43</ele>
        <time>2022-01-20T14:57:38Z</time>
      </trkpt>
      <trkpt lat="47.24374" lon="-1.56859">
        <ele>43</ele>
        <time>2022-01-20T14:57:39Z</time>
      </trkpt>
      <trkpt lat="47.24374" lon="-1.56858">
        <ele>42</ele>
        <time>2022-01-20T14:57:40Z</time>
      </trkpt>
      <trkpt lat="47.24374" lon="-1.56856">
        <ele>43</ele>
        <time>2022-01-20T14:57:41Z</time>
      </trkpt>
      <trkpt lat="47.24373" lon="-1.56855">
        <ele>42</ele>
        <time>2022-01-20T14:57:42Z</time>
      </trkpt>
      <trkpt lat="47.24373" lon="-1.56853">
        <ele>43</ele>
        <time>2022-01-20T14:57:43Z</time>
      </trkpt>
      <trkpt lat="47.24373" lon="-1.56851">
        <ele>43</ele>
        <time>2022-01-20T14:57:44Z</time>
      </trkpt>
      <trkpt lat="47.24372" lon="-1.56849">
        <ele>43</ele>
        <time>2022-01-20T14:57:45Z</time>
      </trkpt>
      <trkpt lat="47.24372" lon="-1.56847">
        <ele>44</ele>
        <time>2022-01-20T14:57:46Z</time>
      </trkpt>
      <trkpt lat="47.24371" lon="-1.56845">
        <ele>44</ele>
        <time>2022-01-20T14:57:47Z</time>
      </trkpt>
      <trkpt lat="47.24371" lon="-1.56843">
        <ele>44</ele>
        <time>2022-01-20T14:57:48Z</time>
      </trkpt>
      <trkpt lat="47.24371" lon="-1.56841">
        <ele>44</ele>
        <time>2022-01-20T14:57:49Z</time>
      </trkpt>
      <trkpt lat="47.24371" lon="-1.56839">
        <ele>44</ele>
        <time>2022-01-20T14:57:50Z</time>
      </trkpt>
      <trkpt lat="47.2437" lon="-1.56837">
        <ele>45</ele>
        <time>2022-01-20T14:57:51Z</time>
      </trkpt>
      <trkpt lat="47.24369" lon="-1.56835">
        <ele>45</ele>
        <time>2022-01-20T14:57:52Z</time>
      </trkpt>
      <trkpt lat="47.24368" lon="-1.56833">
        <ele>45</ele>
        <time>2022-01-20T14:57:53Z</time>
      </trkpt>
      <trkpt lat="47.24367" lon="-1.56832">
        <ele>45</ele>
        <time>2022-01-20T14:57:54Z</time>
      </trkpt>
      <trkpt lat="47.24367" lon="-1.5683">
        <ele>44</ele>
        <time>2022-01-20T14:57:55Z</time>
      </trkpt>
      <trkpt lat="47.24366" lon="-1.56828">
        <ele>44</ele>
        <time>2022-01-20T14:57:56Z</time>
      </trkpt>
      <trkpt lat="47.24365" lon="-1.56826">
        <ele>44</ele>
        <time>2022-01-20T14:57:57Z</time>
      </trkpt>
      <trkpt lat="47.24365" lon="-1.56824">
        <ele>44</ele>
        <time>2022-01-20T14:57:58Z</time>
      </trkpt>
      <trkpt lat="47.24365" lon="-1.56822">
        <ele>44</ele>
        <time>2022-01-20T14:57:59Z</time>
      </trkpt>
      <trkpt lat="47.24364" lon="-1.5682">
        <ele>44</ele>
        <time>2022-01-20T14:58:00Z</time>
      </trkpt>
      <trkpt lat="47.24363" lon="-1.56818">
        <ele>44</ele>
        <time>2022-01-20T14:58:01Z</time>
      </trkpt>
      <trkpt lat="47.24363" lon="-1.56816">
        <ele>44</ele>
        <time>2022-01-20T14:58:02Z</time>
      </trkpt>
      <trkpt lat="47.24362" lon="-1.56814">
        <ele>44</ele>
        <time>2022-01-20T14:58:03Z</time>
      </trkpt>
      <trkpt lat="47.24361" lon="-1.56813">
        <ele>44</ele>
        <time>2022-01-20T14:58:04Z</time>
      </trkpt>
      <trkpt lat="47.24361" lon="-1.56811">
        <ele>44</ele>
        <time>2022-01-20T14:58:05Z</time>
      </trkpt>
      <trkpt lat="47.24361" lon="-1.56809">
        <ele>44</ele>
        <time>2022-01-20T14:58:06Z</time>
      </trkpt>
      <trkpt lat="47.2436" lon="-1.56807">
        <ele>44</ele>
        <time>2022-01-20T14:58:07Z</time>
      </trkpt>
      <trkpt lat="47.2436" lon="-1.56805">
        <ele>43</ele>
        <time>2022-01-20T14:58:08Z</time>
      </trkpt>
      <trkpt lat="47.2436" lon="-1.56803">
        <ele>43</ele>
        <time>2022-01-20T14:58:09Z</time>
      </trkpt>
      <trkpt lat="47.24359" lon="-1.568">
        <ele>43</ele>
        <time>2022-01-20T14:58:10Z</time>
      </trkpt>
      <trkpt lat="47.24358" lon="-1.56798">
        <ele>43</ele>
        <time>2022-01-20T14:58:11Z</time>
      </trkpt>
      <trkpt lat="47.24358" lon="-1.56796">
        <ele>43</ele>
        <time>2022-01-20T14:58:12Z</time>
      </trkpt>
      <trkpt lat="47.24358" lon="-1.56794">
        <ele>43</ele>
        <time>2022-01-20T14:58:13Z</time>
      </trkpt>
      <trkpt lat="47.24357" lon="-1.56792">
        <ele>43</ele>
        <time>2022-01-20T14:58:14Z</time>
      </trkpt>
      <trkpt lat="47.24357" lon="-1.5679">
        <ele>43</ele>
        <time>2022-01-20T14:58:15Z</time>
      </trkpt>
      <trkpt lat="47.24357" lon="-1.56788">
        <ele>43</ele>
        <time>2022-01-20T14:58:16Z</time>
      </trkpt>
      <trkpt lat="47.24356" lon="-1.56787">
        <ele>43</ele>
        <time>2022-01-20T14:58:17Z</time>
      </trkpt>
      <trkpt lat="47.24355" lon="-1.56785">
        <ele>42</ele>
        <time>2022-01-20T14:58:18Z</time>
      </trkpt>
      <trkpt lat="47.24355" lon="-1.56783">
        <ele>42</ele>
        <time>2022-01-20T14:58:19Z</time>
      </trkpt>
      <trkpt lat="47.24354" lon="-1.56781">
        <ele>42</ele>
        <time>2022-01-20T14:58:20Z</time>
      </trkpt>
      <trkpt lat="47.24354" lon="-1.56779">
        <ele>43</ele>
        <time>2022-01-20T14:58:21Z</time>
      </trkpt>
      <trkpt lat="47.24354" lon="-1.56777">
        <ele>42</ele>
        <time>2022-01-20T14:58:22Z</time>
      </trkpt>
      <trkpt lat="47.24354" lon="-1.56775">
        <ele>42</ele>
        <time>2022-01-20T14:58:23Z</time>
      </trkpt>
      <trkpt lat="47.24353" lon="-1.56773">
        <ele>43</ele>
        <time>2022-01-20T14:58:24Z</time>
      </trkpt>
      <trkpt lat="47.24353" lon="-1.56771">
        <ele>43</ele>
        <time>2022-01-20T14:58:25Z</time>
      </trkpt>
      <trkpt lat="47.24353" lon="-1.56769">
        <ele>44</ele>
        <time>2022-01-20T14:58:26Z</time>
      </trkpt>
      <trkpt lat="47.24353" lon="-1.56767">
        <ele>44</ele>
        <time>2022-01-20T14:58:27Z</time>
      </trkpt>
      <trkpt lat="47.24352" lon="-1.56765">
        <ele>44</ele>
        <time>2022-01-20T14:58:28Z</time>
      </trkpt>
      <trkpt lat="47.24352" lon="-1.56764">
        <ele>44</ele>
        <time>2022-01-20T14:58:29Z</time>
      </trkpt>
      <trkpt lat="47.24352" lon="-1.56762">
        <ele>44</ele>
        <time>2022-01-20T14:58:30Z</time>
      </trkpt>
      <trkpt lat="47.24352" lon="-1.5676">
        <ele>44</ele>
        <time>2022-01-20T14:58:31Z</time>
      </trkpt>
      <trkpt lat="47.24352" lon="-1.56758">
        <ele>45</ele>
        <time>2022-01-20T14:58:32Z</time>
      </trkpt>
      <trkpt lat="47.24351" lon="-1.56757">
        <ele>45</ele>
        <time>2022-01-20T14:58:33Z</time>
      </trkpt>
      <trkpt lat="47.24351" lon="-1.56756">
        <ele>45</ele>
        <time>2022-01-20T14:58:34Z</time>
      </trkpt>
      <trkpt lat="47.24351" lon="-1.56754">
        <ele>45</ele>
        <time>2022-01-20T14:58:35Z</time>
      </trkpt>
      <trkpt lat="47.24351" lon="-1.56753">
        <ele>45</ele>
        <time>2022-01-20T14:58:36Z</time>
      </trkpt>
      <trkpt lat="47.24351" lon="-1.56751">
        <ele>44</ele>
        <time>2022-01-20T14:58:37Z</time>
      </trkpt>
      <trkpt lat="47.24351" lon="-1.56749">
        <ele>45</ele>
        <time>2022-01-20T14:58:38Z</time>
      </trkpt>
      <trkpt lat="47.24351" lon="-1.56747">
        <ele>44</ele>
        <time>2022-01-20T14:58:39Z</time>
      </trkpt>
      <trkpt lat="47.2435" lon="-1.56746">
        <ele>44</ele>
        <time>2022-01-20T14:58:40Z</time>
      </trkpt>
      <trkpt lat="47.2435" lon="-1.56743">
        <ele>44</ele>
        <time>2022-01-20T14:58:41Z</time>
      </trkpt>
      <trkpt lat="47.2435" lon="-1.56741">
        <ele>43</ele>
        <time>2022-01-20T14:58:42Z</time>
      </trkpt>
      <trkpt lat="47.2435" lon="-1.56739">
        <ele>43</ele>
        <time>2022-01-20T14:58:43Z</time>
      </trkpt>
      <trkpt lat="47.24349" lon="-1.56737">
        <ele>43</ele>
        <time>2022-01-20T14:58:44Z</time>
      </trkpt>
      <trkpt lat="47.24348" lon="-1.56735">
        <ele>43</ele>
        <time>2022-01-20T14:58:45Z</time>
      </trkpt>
      <trkpt lat="47.24348" lon="-1.56733">
        <ele>42</ele>
        <time>2022-01-20T14:58:46Z</time>
      </trkpt>
      <trkpt lat="47.24348" lon="-1.5673">
        <ele>42</ele>
        <time>2022-01-20T14:58:47Z</time>
      </trkpt>
      <trkpt lat="47.24348" lon="-1.56727">
        <ele>42</ele>
        <time>2022-01-20T14:58:48Z</time>
      </trkpt>
      <trkpt lat="47.24348" lon="-1.56726">
        <ele>43</ele>
        <time>2022-01-20T14:58:49Z</time>
      </trkpt>
      <trkpt lat="47.24348" lon="-1.56723">
        <ele>43</ele>
        <time>2022-01-20T14:58:50Z</time>
      </trkpt>
      <trkpt lat="47.24348" lon="-1.56721">
        <ele>43</ele>
        <time>2022-01-20T14:58:51Z</time>
      </trkpt>
      <trkpt lat="47.24348" lon="-1.56719">
        <ele>43</ele>
        <time>2022-01-20T14:58:52Z</time>
      </trkpt>
      <trkpt lat="47.24348" lon="-1.56717">
        <ele>43</ele>
        <time>2022-01-20T14:58:53Z</time>
      </trkpt>
      <trkpt lat="47.24348" lon="-1.56716">
        <ele>44</ele>
        <time>2022-01-20T14:58:54Z</time>
      </trkpt>
      <trkpt lat="47.24348" lon="-1.56714">
        <ele>43</ele>
        <time>2022-01-20T14:58:55Z</time>
      </trkpt>
      <trkpt lat="47.24348" lon="-1.56712">
        <ele>44</ele>
        <time>2022-01-20T14:58:56Z</time>
      </trkpt>
      <trkpt lat="47.24348" lon="-1.56711">
        <ele>44</ele>
        <time>2022-01-20T14:58:57Z</time>
      </trkpt>
      <trkpt lat="47.24348" lon="-1.5671">
        <ele>44</ele>
        <time>2022-01-20T14:58:58Z</time>
      </trkpt>
      <trkpt lat="47.24348" lon="-1.56708">
        <ele>44</ele>
        <time>2022-01-20T14:58:59Z</time>
      </trkpt>
      <trkpt lat="47.24349" lon="-1.56706">
        <ele>44</ele>
        <time>2022-01-20T14:59:00Z</time>
      </trkpt>
      <trkpt lat="47.24348" lon="-1.56705">
        <ele>44</ele>
        <time>2022-01-20T14:59:01Z</time>
      </trkpt>
      <trkpt lat="47.24348" lon="-1.56703">
        <ele>44</ele>
        <time>2022-01-20T14:59:02Z</time>
      </trkpt>
      <trkpt lat="47.24348" lon="-1.56701">
        <ele>44</ele>
        <time>2022-01-20T14:59:03Z</time>
      </trkpt>
      <trkpt lat="47.24348" lon="-1.56699">
        <ele>44</ele>
        <time>2022-01-20T14:59:04Z</time>
      </trkpt>
      <trkpt lat="47.24348" lon="-1.56698">
        <ele>44</ele>
        <time>2022-01-20T14:59:05Z</time>
      </trkpt>
      <trkpt lat="47.24348" lon="-1.56696">
        <ele>45</ele>
        <time>2022-01-20T14:59:06Z</time>
      </trkpt>
      <trkpt lat="47.24348" lon="-1.56694">
        <ele>45</ele>
        <time>2022-01-20T14:59:07Z</time>
      </trkpt>
      <trkpt lat="47.24347" lon="-1.56692">
        <ele>45</ele>
        <time>2022-01-20T14:59:08Z</time>
      </trkpt>
      <trkpt lat="47.24347" lon="-1.5669">
        <ele>45</ele>
        <time>2022-01-20T14:59:09Z</time>
      </trkpt>
      <trkpt lat="47.24346" lon="-1.56688">
        <ele>45</ele>
        <time>2022-01-20T14:59:10Z</time>
      </trkpt>
      <trkpt lat="47.24346" lon="-1.56686">
        <ele>45</ele>
        <time>2022-01-20T14:59:11Z</time>
      </trkpt>
      <trkpt lat="47.24345" lon="-1.56684">
        <ele>45</ele>
        <time>2022-01-20T14:59:12Z</time>
      </trkpt>
      <trkpt lat="47.24345" lon="-1.56682">
        <ele>44</ele>
        <time>2022-01-20T14:59:13Z</time>
      </trkpt>
      <trkpt lat="47.24345" lon="-1.56679">
        <ele>44</ele>
        <time>2022-01-20T14:59:14Z</time>
      </trkpt>
      <trkpt lat="47.24345" lon="-1.56677">
        <ele>44</ele>
        <time>2022-01-20T14:59:15Z</time>
      </trkpt>
      <trkpt lat="47.24344" lon="-1.56674">
        <ele>44</ele>
        <time>2022-01-20T14:59:16Z</time>
      </trkpt>
      <trkpt lat="47.24344" lon="-1.56671">
        <ele>44</ele>
        <time>2022-01-20T14:59:17Z</time>
      </trkpt>
      <trkpt lat="47.24344" lon="-1.56669">
        <ele>44</ele>
        <time>2022-01-20T14:59:18Z</time>
      </trkpt>
      <trkpt lat="47.24343" lon="-1.56666">
        <ele>45</ele>
        <time>2022-01-20T14:59:19Z</time>
      </trkpt>
      <trkpt lat="47.24344" lon="-1.56664">
        <ele>44</ele>
        <time>2022-01-20T14:59:20Z</time>
      </trkpt>
      <trkpt lat="47.24344" lon="-1.56662">
        <ele>44</ele>
        <time>2022-01-20T14:59:21Z</time>
      </trkpt>
      <trkpt lat="47.24345" lon="-1.5666">
        <ele>45</ele>
        <time>2022-01-20T14:59:22Z</time>
      </trkpt>
      <trkpt lat="47.24344" lon="-1.56658">
        <ele>45</ele>
        <time>2022-01-20T14:59:23Z</time>
      </trkpt>
      <trkpt lat="47.24345" lon="-1.56655">
        <ele>45</ele>
        <time>2022-01-20T14:59:24Z</time>
      </trkpt>
      <trkpt lat="47.24345" lon="-1.56653">
        <ele>45</ele>
        <time>2022-01-20T14:59:25Z</time>
      </trkpt>
      <trkpt lat="47.24345" lon="-1.5665">
        <ele>45</ele>
        <time>2022-01-20T14:59:26Z</time>
      </trkpt>
      <trkpt lat="47.24345" lon="-1.56649">
        <ele>45</ele>
        <time>2022-01-20T14:59:27Z</time>
      </trkpt>
      <trkpt lat="47.24345" lon="-1.56647">
        <ele>45</ele>
        <time>2022-01-20T14:59:28Z</time>
      </trkpt>
      <trkpt lat="47.24344" lon="-1.56646">
        <ele>45</ele>
        <time>2022-01-20T14:59:29Z</time>
      </trkpt>
      <trkpt lat="47.24344" lon="-1.56644">
        <ele>44</ele>
        <time>2022-01-20T14:59:30Z</time>
      </trkpt>
      <trkpt lat="47.24344" lon="-1.56642">
        <ele>44</ele>
        <time>2022-01-20T14:59:31Z</time>
      </trkpt>
      <trkpt lat="47.24344" lon="-1.5664">
        <ele>44</ele>
        <time>2022-01-20T14:59:32Z</time>
      </trkpt>
      <trkpt lat="47.24343" lon="-1.56638">
        <ele>44</ele>
        <time>2022-01-20T14:59:33Z</time>
      </trkpt>
      <trkpt lat="47.24343" lon="-1.56637">
        <ele>43</ele>
        <time>2022-01-20T14:59:34Z</time>
      </trkpt>
      <trkpt lat="47.24342" lon="-1.56635">
        <ele>43</ele>
        <time>2022-01-20T14:59:35Z</time>
      </trkpt>
      <trkpt lat="47.24342" lon="-1.56634">
        <ele>43</ele>
        <time>2022-01-20T14:59:36Z</time>
      </trkpt>
      <trkpt lat="47.24341" lon="-1.56632">
        <ele>42</ele>
        <time>2022-01-20T14:59:37Z</time>
      </trkpt>
      <trkpt lat="47.2434" lon="-1.5663">
        <ele>42</ele>
        <time>2022-01-20T14:59:38Z</time>
      </trkpt>
      <trkpt lat="47.2434" lon="-1.56628">
        <ele>42</ele>
        <time>2022-01-20T14:59:39Z</time>
      </trkpt>
      <trkpt lat="47.24339" lon="-1.56626">
        <ele>42</ele>
        <time>2022-01-20T14:59:40Z</time>
      </trkpt>
      <trkpt lat="47.24339" lon="-1.56624">
        <ele>41</ele>
        <time>2022-01-20T14:59:41Z</time>
      </trkpt>
      <trkpt lat="47.24337" lon="-1.56622">
        <ele>40</ele>
        <time>2022-01-20T14:59:42Z</time>
      </trkpt>
      <trkpt lat="47.24336" lon="-1.5662">
        <ele>40</ele>
        <time>2022-01-20T14:59:43Z</time>
      </trkpt>
      <trkpt lat="47.24336" lon="-1.56619">
        <ele>39</ele>
        <time>2022-01-20T14:59:44Z</time>
      </trkpt>
      <trkpt lat="47.24335" lon="-1.56617">
        <ele>38</ele>
        <time>2022-01-20T14:59:45Z</time>
      </trkpt>
      <trkpt lat="47.24335" lon="-1.56615">
        <ele>38</ele>
        <time>2022-01-20T14:59:46Z</time>
      </trkpt>
      <trkpt lat="47.24335" lon="-1.56613">
        <ele>38</ele>
        <time>2022-01-20T14:59:47Z</time>
      </trkpt>
      <trkpt lat="47.24336" lon="-1.56611">
        <ele>38</ele>
        <time>2022-01-20T14:59:48Z</time>
      </trkpt>
      <trkpt lat="47.24336" lon="-1.56609">
        <ele>38</ele>
        <time>2022-01-20T14:59:49Z</time>
      </trkpt>
      <trkpt lat="47.24336" lon="-1.56608">
        <ele>38</ele>
        <time>2022-01-20T14:59:50Z</time>
      </trkpt>
      <trkpt lat="47.24336" lon="-1.56606">
        <ele>38</ele>
        <time>2022-01-20T14:59:51Z</time>
      </trkpt>
      <trkpt lat="47.24336" lon="-1.56604">
        <ele>39</ele>
        <time>2022-01-20T14:59:52Z</time>
      </trkpt>
      <trkpt lat="47.24336" lon="-1.56603">
        <ele>39</ele>
        <time>2022-01-20T14:59:53Z</time>
      </trkpt>
      <trkpt lat="47.24337" lon="-1.56601">
        <ele>39</ele>
        <time>2022-01-20T14:59:54Z</time>
      </trkpt>
      <trkpt lat="47.24337" lon="-1.566">
        <ele>39</ele>
        <time>2022-01-20T14:59:55Z</time>
      </trkpt>
      <trkpt lat="47.24337" lon="-1.56599">
        <ele>38</ele>
        <time>2022-01-20T14:59:56Z</time>
      </trkpt>
      <trkpt lat="47.24337" lon="-1.56597">
        <ele>38</ele>
        <time>2022-01-20T14:59:57Z</time>
      </trkpt>
      <trkpt lat="47.24337" lon="-1.56596">
        <ele>38</ele>
        <time>2022-01-20T14:59:58Z</time>
      </trkpt>
      <trkpt lat="47.24337" lon="-1.56594">
        <ele>38</ele>
        <time>2022-01-20T14:59:59Z</time>
      </trkpt>
      <trkpt lat="47.24338" lon="-1.56592">
        <ele>37</ele>
        <time>2022-01-20T15:00:00Z</time>
      </trkpt>
      <trkpt lat="47.24338" lon="-1.5659">
        <ele>37</ele>
        <time>2022-01-20T15:00:01Z</time>
      </trkpt>
      <trkpt lat="47.24338" lon="-1.56588">
        <ele>36</ele>
        <time>2022-01-20T15:00:02Z</time>
      </trkpt>
      <trkpt lat="47.24337" lon="-1.56586">
        <ele>36</ele>
        <time>2022-01-20T15:00:03Z</time>
      </trkpt>
      <trkpt lat="47.24337" lon="-1.56584">
        <ele>36</ele>
        <time>2022-01-20T15:00:04Z</time>
      </trkpt>
      <trkpt lat="47.24337" lon="-1.56582">
        <ele>36</ele>
        <time>2022-01-20T15:00:05Z</time>
      </trkpt>
      <trkpt lat="47.24336" lon="-1.56579">
        <ele>35</ele>
        <time>2022-01-20T15:00:06Z</time>
      </trkpt>
      <trkpt lat="47.24335" lon="-1.56577">
        <ele>36</ele>
        <time>2022-01-20T15:00:07Z</time>
      </trkpt>
      <trkpt lat="47.24334" lon="-1.56575">
        <ele>36</ele>
        <time>2022-01-20T15:00:08Z</time>
      </trkpt>
      <trkpt lat="47.24334" lon="-1.56572">
        <ele>36</ele>
        <time>2022-01-20T15:00:09Z</time>
      </trkpt>
      <trkpt lat="47.24333" lon="-1.56571">
        <ele>36</ele>
        <time>2022-01-20T15:00:10Z</time>
      </trkpt>
      <trkpt lat="47.24332" lon="-1.56569">
        <ele>36</ele>
        <time>2022-01-20T15:00:11Z</time>
      </trkpt>
      <trkpt lat="47.24332" lon="-1.56568">
        <ele>36</ele>
        <time>2022-01-20T15:00:12Z</time>
      </trkpt>
      <trkpt lat="47.24333" lon="-1.56567">
        <ele>36</ele>
        <time>2022-01-20T15:00:13Z</time>
      </trkpt>
      <trkpt lat="47.24333" lon="-1.56566">
        <ele>36</ele>
        <time>2022-01-20T15:00:14Z</time>
      </trkpt>
      <trkpt lat="47.24333" lon="-1.56566">
        <ele>36</ele>
        <time>2022-01-20T15:00:15Z</time>
      </trkpt>
      <trkpt lat="47.24333" lon="-1.56566">
        <ele>36</ele>
        <time>2022-01-20T15:00:16Z</time>
      </trkpt>
      <trkpt lat="47.24333" lon="-1.56562">
        <ele>36</ele>
        <time>2022-01-20T15:00:17Z</time>
      </trkpt>
      <trkpt lat="47.24333" lon="-1.56561">
        <ele>35</ele>
        <time>2022-01-20T15:00:18Z</time>
      </trkpt>
      <trkpt lat="47.24334" lon="-1.5656">
        <ele>35</ele>
        <time>2022-01-20T15:00:19Z</time>
      </trkpt>
      <trkpt lat="47.24334" lon="-1.56559">
        <ele>35</ele>
        <time>2022-01-20T15:00:20Z</time>
      </trkpt>
      <trkpt lat="47.24334" lon="-1.56557">
        <ele>35</ele>
        <time>2022-01-20T15:00:21Z</time>
      </trkpt>
      <trkpt lat="47.24334" lon="-1.56557">
        <ele>35</ele>
        <time>2022-01-20T15:00:22Z</time>
      </trkpt>
      <trkpt lat="47.24334" lon="-1.56554">
        <ele>35</ele>
        <time>2022-01-20T15:00:23Z</time>
      </trkpt>
      <trkpt lat="47.24335" lon="-1.56551">
        <ele>35</ele>
        <time>2022-01-20T15:00:24Z</time>
      </trkpt>
      <trkpt lat="47.24336" lon="-1.56549">
        <ele>35</ele>
        <time>2022-01-20T15:00:25Z</time>
      </trkpt>
      <trkpt lat="47.24337" lon="-1.56547">
        <ele>35</ele>
        <time>2022-01-20T15:00:26Z</time>
      </trkpt>
      <trkpt lat="47.24337" lon="-1.56545">
        <ele>36</ele>
        <time>2022-01-20T15:00:27Z</time>
      </trkpt>
      <trkpt lat="47.24338" lon="-1.56543">
        <ele>36</ele>
        <time>2022-01-20T15:00:28Z</time>
      </trkpt>
      <trkpt lat="47.24339" lon="-1.56541">
        <ele>36</ele>
        <time>2022-01-20T15:00:29Z</time>
      </trkpt>
      <trkpt lat="47.2434" lon="-1.5654">
        <ele>37</ele>
        <time>2022-01-20T15:00:30Z</time>
      </trkpt>
      <trkpt lat="47.2434" lon="-1.56539">
        <ele>37</ele>
        <time>2022-01-20T15:00:31Z</time>
      </trkpt>
      <trkpt lat="47.24341" lon="-1.56537">
        <ele>37</ele>
        <time>2022-01-20T15:00:32Z</time>
      </trkpt>
      <trkpt lat="47.24342" lon="-1.56535">
        <ele>37</ele>
        <time>2022-01-20T15:00:33Z</time>
      </trkpt>
      <trkpt lat="47.24343" lon="-1.56534">
        <ele>37</ele>
        <time>2022-01-20T15:00:34Z</time>
      </trkpt>
      <trkpt lat="47.24344" lon="-1.56532">
        <ele>37</ele>
        <time>2022-01-20T15:00:35Z</time>
      </trkpt>
      <trkpt lat="47.24345" lon="-1.56531">
        <ele>37</ele>
        <time>2022-01-20T15:00:36Z</time>
      </trkpt>
      <trkpt lat="47.24346" lon="-1.5653">
        <ele>37</ele>
        <time>2022-01-20T15:00:37Z</time>
      </trkpt>
      <trkpt lat="47.24347" lon="-1.56527">
        <ele>37</ele>
        <time>2022-01-20T15:00:38Z</time>
      </trkpt>
      <trkpt lat="47.24347" lon="-1.56525">
        <ele>37</ele>
        <time>2022-01-20T15:00:39Z</time>
      </trkpt>
      <trkpt lat="47.24348" lon="-1.56523">
        <ele>37</ele>
        <time>2022-01-20T15:00:40Z</time>
      </trkpt>
      <trkpt lat="47.24348" lon="-1.56521">
        <ele>37</ele>
        <time>2022-01-20T15:00:41Z</time>
      </trkpt>
      <trkpt lat="47.24349" lon="-1.5652">
        <ele>37</ele>
        <time>2022-01-20T15:00:42Z</time>
      </trkpt>
      <trkpt lat="47.2435" lon="-1.56519">
        <ele>37</ele>
        <time>2022-01-20T15:00:43Z</time>
      </trkpt>
      <trkpt lat="47.24351" lon="-1.56518">
        <ele>37</ele>
        <time>2022-01-20T15:00:44Z</time>
      </trkpt>
      <trkpt lat="47.24352" lon="-1.56515">
        <ele>37</ele>
        <time>2022-01-20T15:00:45Z</time>
      </trkpt>
      <trkpt lat="47.24353" lon="-1.56513">
        <ele>37</ele>
        <time>2022-01-20T15:00:46Z</time>
      </trkpt>
      <trkpt lat="47.24353" lon="-1.56511">
        <ele>37</ele>
        <time>2022-01-20T15:00:47Z</time>
      </trkpt>
      <trkpt lat="47.24353" lon="-1.56509">
        <ele>37</ele>
        <time>2022-01-20T15:00:48Z</time>
      </trkpt>
      <trkpt lat="47.24353" lon="-1.56508">
        <ele>37</ele>
        <time>2022-01-20T15:00:49Z</time>
      </trkpt>
      <trkpt lat="47.24353" lon="-1.56506">
        <ele>38</ele>
        <time>2022-01-20T15:00:50Z</time>
      </trkpt>
      <trkpt lat="47.24353" lon="-1.56503">
        <ele>38</ele>
        <time>2022-01-20T15:00:51Z</time>
      </trkpt>
      <trkpt lat="47.24353" lon="-1.56501">
        <ele>37</ele>
        <time>2022-01-20T15:00:52Z</time>
      </trkpt>
      <trkpt lat="47.24353" lon="-1.56499">
        <ele>37</ele>
        <time>2022-01-20T15:00:53Z</time>
      </trkpt>
      <trkpt lat="47.24352" lon="-1.56496">
        <ele>37</ele>
        <time>2022-01-20T15:00:54Z</time>
      </trkpt>
      <trkpt lat="47.24352" lon="-1.56495">
        <ele>37</ele>
        <time>2022-01-20T15:00:55Z</time>
      </trkpt>
      <trkpt lat="47.24352" lon="-1.56495">
        <ele>37</ele>
        <time>2022-01-20T15:00:56Z</time>
      </trkpt>
      <trkpt lat="47.24352" lon="-1.56495">
        <ele>37</ele>
        <time>2022-01-20T15:00:57Z</time>
      </trkpt>
      <trkpt lat="47.24352" lon="-1.56491">
        <ele>38</ele>
        <time>2022-01-20T15:00:58Z</time>
      </trkpt>
      <trkpt lat="47.24352" lon="-1.56489">
        <ele>38</ele>
        <time>2022-01-20T15:00:59Z</time>
      </trkpt>
      <trkpt lat="47.24352" lon="-1.56487">
        <ele>38</ele>
        <time>2022-01-20T15:01:00Z</time>
      </trkpt>
      <trkpt lat="47.24352" lon="-1.56485">
        <ele>38</ele>
        <time>2022-01-20T15:01:01Z</time>
      </trkpt>
      <trkpt lat="47.24352" lon="-1.56483">
        <ele>38</ele>
        <time>2022-01-20T15:01:02Z</time>
      </trkpt>
      <trkpt lat="47.24352" lon="-1.56481">
        <ele>38</ele>
        <time>2022-01-20T15:01:03Z</time>
      </trkpt>
      <trkpt lat="47.24353" lon="-1.56478">
        <ele>38</ele>
        <time>2022-01-20T15:01:04Z</time>
      </trkpt>
      <trkpt lat="47.24352" lon="-1.56476">
        <ele>38</ele>
        <time>2022-01-20T15:01:05Z</time>
      </trkpt>
      <trkpt lat="47.24352" lon="-1.56474">
        <ele>38</ele>
        <time>2022-01-20T15:01:06Z</time>
      </trkpt>
      <trkpt lat="47.24352" lon="-1.56471">
        <ele>38</ele>
        <time>2022-01-20T15:01:07Z</time>
      </trkpt>
      <trkpt lat="47.24352" lon="-1.56469">
        <ele>37</ele>
        <time>2022-01-20T15:01:08Z</time>
      </trkpt>
      <trkpt lat="47.24352" lon="-1.56467">
        <ele>37</ele>
        <time>2022-01-20T15:01:09Z</time>
      </trkpt>
      <trkpt lat="47.24353" lon="-1.56466">
        <ele>37</ele>
        <time>2022-01-20T15:01:10Z</time>
      </trkpt>
      <trkpt lat="47.24353" lon="-1.56464">
        <ele>37</ele>
        <time>2022-01-20T15:01:11Z</time>
      </trkpt>
      <trkpt lat="47.24354" lon="-1.56463">
        <ele>38</ele>
        <time>2022-01-20T15:01:12Z</time>
      </trkpt>
      <trkpt lat="47.24355" lon="-1.56461">
        <ele>38</ele>
        <time>2022-01-20T15:01:13Z</time>
      </trkpt>
      <trkpt lat="47.24356" lon="-1.56459">
        <ele>38</ele>
        <time>2022-01-20T15:01:14Z</time>
      </trkpt>
      <trkpt lat="47.24357" lon="-1.56458">
        <ele>38</ele>
        <time>2022-01-20T15:01:15Z</time>
      </trkpt>
      <trkpt lat="47.24357" lon="-1.56457">
        <ele>38</ele>
        <time>2022-01-20T15:01:16Z</time>
      </trkpt>
      <trkpt lat="47.24357" lon="-1.56455">
        <ele>38</ele>
        <time>2022-01-20T15:01:17Z</time>
      </trkpt>
      <trkpt lat="47.24358" lon="-1.56453">
        <ele>38</ele>
        <time>2022-01-20T15:01:18Z</time>
      </trkpt>
      <trkpt lat="47.24359" lon="-1.56452">
        <ele>38</ele>
        <time>2022-01-20T15:01:19Z</time>
      </trkpt>
      <trkpt lat="47.2436" lon="-1.5645">
        <ele>37</ele>
        <time>2022-01-20T15:01:20Z</time>
      </trkpt>
      <trkpt lat="47.2436" lon="-1.56449">
        <ele>37</ele>
        <time>2022-01-20T15:01:21Z</time>
      </trkpt>
      <trkpt lat="47.24361" lon="-1.56448">
        <ele>38</ele>
        <time>2022-01-20T15:01:22Z</time>
      </trkpt>
      <trkpt lat="47.24361" lon="-1.56446">
        <ele>38</ele>
        <time>2022-01-20T15:01:23Z</time>
      </trkpt>
      <trkpt lat="47.24362" lon="-1.56446">
        <ele>38</ele>
        <time>2022-01-20T15:01:24Z</time>
      </trkpt>
      <trkpt lat="47.24363" lon="-1.56443">
        <ele>37</ele>
        <time>2022-01-20T15:01:26Z</time>
      </trkpt>
      <trkpt lat="47.24363" lon="-1.56443">
        <ele>37</ele>
        <time>2022-01-20T15:01:26Z</time>
      </trkpt>
      <trkpt lat="47.24364" lon="-1.56441">
        <ele>37</ele>
        <time>2022-01-20T15:01:27Z</time>
      </trkpt>
      <trkpt lat="47.24364" lon="-1.5644">
        <ele>37</ele>
        <time>2022-01-20T15:01:28Z</time>
      </trkpt>
      <trkpt lat="47.24365" lon="-1.56438">
        <ele>37</ele>
        <time>2022-01-20T15:01:29Z</time>
      </trkpt>
      <trkpt lat="47.24365" lon="-1.56436">
        <ele>36</ele>
        <time>2022-01-20T15:01:30Z</time>
      </trkpt>
      <trkpt lat="47.24365" lon="-1.56434">
        <ele>36</ele>
        <time>2022-01-20T15:01:31Z</time>
      </trkpt>
      <trkpt lat="47.24365" lon="-1.56432">
        <ele>35</ele>
        <time>2022-01-20T15:01:32Z</time>
      </trkpt>
      <trkpt lat="47.24365" lon="-1.5643">
        <ele>35</ele>
        <time>2022-01-20T15:01:33Z</time>
      </trkpt>
      <trkpt lat="47.24365" lon="-1.56428">
        <ele>35</ele>
        <time>2022-01-20T15:01:34Z</time>
      </trkpt>
      <trkpt lat="47.24365" lon="-1.56426">
        <ele>35</ele>
        <time>2022-01-20T15:01:35Z</time>
      </trkpt>
      <trkpt lat="47.24366" lon="-1.56423">
        <ele>35</ele>
        <time>2022-01-20T15:01:36Z</time>
      </trkpt>
      <trkpt lat="47.24366" lon="-1.56421">
        <ele>35</ele>
        <time>2022-01-20T15:01:37Z</time>
      </trkpt>
      <trkpt lat="47.24366" lon="-1.56419">
        <ele>35</ele>
        <time>2022-01-20T15:01:38Z</time>
      </trkpt>
      <trkpt lat="47.24366" lon="-1.56417">
        <ele>35</ele>
        <time>2022-01-20T15:01:39Z</time>
      </trkpt>
      <trkpt lat="47.24367" lon="-1.56415">
        <ele>35</ele>
        <time>2022-01-20T15:01:40Z</time>
      </trkpt>
      <trkpt lat="47.24367" lon="-1.56413">
        <ele>35</ele>
        <time>2022-01-20T15:01:41Z</time>
      </trkpt>
      <trkpt lat="47.24367" lon="-1.5641">
        <ele>35</ele>
        <time>2022-01-20T15:01:42Z</time>
      </trkpt>
      <trkpt lat="47.24368" lon="-1.56408">
        <ele>35</ele>
        <time>2022-01-20T15:01:43Z</time>
      </trkpt>
      <trkpt lat="47.24367" lon="-1.56406">
        <ele>35</ele>
        <time>2022-01-20T15:01:44Z</time>
      </trkpt>
      <trkpt lat="47.24367" lon="-1.56404">
        <ele>35</ele>
        <time>2022-01-20T15:01:45Z</time>
      </trkpt>
      <trkpt lat="47.24367" lon="-1.56402">
        <ele>35</ele>
        <time>2022-01-20T15:01:46Z</time>
      </trkpt>
      <trkpt lat="47.24367" lon="-1.564">
        <ele>35</ele>
        <time>2022-01-20T15:01:47Z</time>
      </trkpt>
      <trkpt lat="47.24367" lon="-1.56398">
        <ele>35</ele>
        <time>2022-01-20T15:01:48Z</time>
      </trkpt>
      <trkpt lat="47.24366" lon="-1.56396">
        <ele>35</ele>
        <time>2022-01-20T15:01:49Z</time>
      </trkpt>
      <trkpt lat="47.24366" lon="-1.56393">
        <ele>35</ele>
        <time>2022-01-20T15:01:50Z</time>
      </trkpt>
      <trkpt lat="47.24365" lon="-1.56391">
        <ele>34</ele>
        <time>2022-01-20T15:01:51Z</time>
      </trkpt>
      <trkpt lat="47.24365" lon="-1.56389">
        <ele>35</ele>
        <time>2022-01-20T15:01:52Z</time>
      </trkpt>
      <trkpt lat="47.24364" lon="-1.56387">
        <ele>35</ele>
        <time>2022-01-20T15:01:53Z</time>
      </trkpt>
      <trkpt lat="47.24364" lon="-1.56386">
        <ele>35</ele>
        <time>2022-01-20T15:01:54Z</time>
      </trkpt>
      <trkpt lat="47.24364" lon="-1.56384">
        <ele>35</ele>
        <time>2022-01-20T15:01:55Z</time>
      </trkpt>
      <trkpt lat="47.24364" lon="-1.56383">
        <ele>35</ele>
        <time>2022-01-20T15:01:56Z</time>
      </trkpt>
      <trkpt lat="47.24365" lon="-1.56381">
        <ele>35</ele>
        <time>2022-01-20T15:01:57Z</time>
      </trkpt>
      <trkpt lat="47.24366" lon="-1.56379">
        <ele>35</ele>
        <time>2022-01-20T15:01:58Z</time>
      </trkpt>
      <trkpt lat="47.24366" lon="-1.56378">
        <ele>35</ele>
        <time>2022-01-20T15:01:59Z</time>
      </trkpt>
      <trkpt lat="47.24366" lon="-1.56376">
        <ele>35</ele>
        <time>2022-01-20T15:02:00Z</time>
      </trkpt>
      <trkpt lat="47.24367" lon="-1.56374">
        <ele>35</ele>
        <time>2022-01-20T15:02:01Z</time>
      </trkpt>
      <trkpt lat="47.24368" lon="-1.56372">
        <ele>35</ele>
        <time>2022-01-20T15:02:02Z</time>
      </trkpt>
      <trkpt lat="47.24368" lon="-1.5637">
        <ele>35</ele>
        <time>2022-01-20T15:02:03Z</time>
      </trkpt>
      <trkpt lat="47.24368" lon="-1.56368">
        <ele>35</ele>
        <time>2022-01-20T15:02:04Z</time>
      </trkpt>
      <trkpt lat="47.24369" lon="-1.56366">
        <ele>36</ele>
        <time>2022-01-20T15:02:05Z</time>
      </trkpt>
      <trkpt lat="47.24369" lon="-1.56363">
        <ele>36</ele>
        <time>2022-01-20T15:02:06Z</time>
      </trkpt>
      <trkpt lat="47.24369" lon="-1.56361">
        <ele>36</ele>
        <time>2022-01-20T15:02:07Z</time>
      </trkpt>
      <trkpt lat="47.24369" lon="-1.56359">
        <ele>36</ele>
        <time>2022-01-20T15:02:08Z</time>
      </trkpt>
      <trkpt lat="47.2437" lon="-1.56357">
        <ele>36</ele>
        <time>2022-01-20T15:02:09Z</time>
      </trkpt>
      <trkpt lat="47.2437" lon="-1.56355">
        <ele>36</ele>
        <time>2022-01-20T15:02:10Z</time>
      </trkpt>
      <trkpt lat="47.24371" lon="-1.56353">
        <ele>36</ele>
        <time>2022-01-20T15:02:11Z</time>
      </trkpt>
      <trkpt lat="47.24371" lon="-1.56351">
        <ele>36</ele>
        <time>2022-01-20T15:02:12Z</time>
      </trkpt>
      <trkpt lat="47.24371" lon="-1.56349">
        <ele>36</ele>
        <time>2022-01-20T15:02:13Z</time>
      </trkpt>
      <trkpt lat="47.24371" lon="-1.56346">
        <ele>36</ele>
        <time>2022-01-20T15:02:14Z</time>
      </trkpt>
      <trkpt lat="47.24372" lon="-1.56344">
        <ele>36</ele>
        <time>2022-01-20T15:02:15Z</time>
      </trkpt>
      <trkpt lat="47.24372" lon="-1.56342">
        <ele>37</ele>
        <time>2022-01-20T15:02:16Z</time>
      </trkpt>
      <trkpt lat="47.24373" lon="-1.56341">
        <ele>37</ele>
        <time>2022-01-20T15:02:17Z</time>
      </trkpt>
      <trkpt lat="47.24374" lon="-1.56339">
        <ele>37</ele>
        <time>2022-01-20T15:02:18Z</time>
      </trkpt>
      <trkpt lat="47.24374" lon="-1.56337">
        <ele>37</ele>
        <time>2022-01-20T15:02:19Z</time>
      </trkpt>
      <trkpt lat="47.24375" lon="-1.56336">
        <ele>38</ele>
        <time>2022-01-20T15:02:20Z</time>
      </trkpt>
      <trkpt lat="47.24375" lon="-1.56334">
        <ele>37</ele>
        <time>2022-01-20T15:02:21Z</time>
      </trkpt>
      <trkpt lat="47.24375" lon="-1.56332">
        <ele>38</ele>
        <time>2022-01-20T15:02:22Z</time>
      </trkpt>
      <trkpt lat="47.24375" lon="-1.56331">
        <ele>38</ele>
        <time>2022-01-20T15:02:23Z</time>
      </trkpt>
      <trkpt lat="47.24375" lon="-1.56329">
        <ele>38</ele>
        <time>2022-01-20T15:02:24Z</time>
      </trkpt>
      <trkpt lat="47.24375" lon="-1.56327">
        <ele>38</ele>
        <time>2022-01-20T15:02:25Z</time>
      </trkpt>
      <trkpt lat="47.24375" lon="-1.56325">
        <ele>39</ele>
        <time>2022-01-20T15:02:26Z</time>
      </trkpt>
      <trkpt lat="47.24376" lon="-1.56323">
        <ele>39</ele>
        <time>2022-01-20T15:02:27Z</time>
      </trkpt>
      <trkpt lat="47.24376" lon="-1.56322">
        <ele>39</ele>
        <time>2022-01-20T15:02:28Z</time>
      </trkpt>
      <trkpt lat="47.24376" lon="-1.5632">
        <ele>39</ele>
        <time>2022-01-20T15:02:29Z</time>
      </trkpt>
      <trkpt lat="47.24376" lon="-1.56318">
        <ele>39</ele>
        <time>2022-01-20T15:02:30Z</time>
      </trkpt>
      <trkpt lat="47.24376" lon="-1.56316">
        <ele>39</ele>
        <time>2022-01-20T15:02:31Z</time>
      </trkpt>
      <trkpt lat="47.24376" lon="-1.56314">
        <ele>39</ele>
        <time>2022-01-20T15:02:32Z</time>
      </trkpt>
      <trkpt lat="47.24377" lon="-1.56313">
        <ele>39</ele>
        <time>2022-01-20T15:02:33Z</time>
      </trkpt>
      <trkpt lat="47.24377" lon="-1.56311">
        <ele>39</ele>
        <time>2022-01-20T15:02:34Z</time>
      </trkpt>
      <trkpt lat="47.24378" lon="-1.56309">
        <ele>39</ele>
        <time>2022-01-20T15:02:35Z</time>
      </trkpt>
      <trkpt lat="47.24379" lon="-1.56307">
        <ele>39</ele>
        <time>2022-01-20T15:02:36Z</time>
      </trkpt>
      <trkpt lat="47.2438" lon="-1.56305">
        <ele>39</ele>
        <time>2022-01-20T15:02:37Z</time>
      </trkpt>
      <trkpt lat="47.24381" lon="-1.56303">
        <ele>39</ele>
        <time>2022-01-20T15:02:38Z</time>
      </trkpt>
      <trkpt lat="47.24381" lon="-1.56301">
        <ele>39</ele>
        <time>2022-01-20T15:02:39Z</time>
      </trkpt>
      <trkpt lat="47.24381" lon="-1.56298">
        <ele>39</ele>
        <time>2022-01-20T15:02:40Z</time>
      </trkpt>
      <trkpt lat="47.24382" lon="-1.56293">
        <ele>40</ele>
        <time>2022-01-20T15:02:42Z</time>
      </trkpt>
      <trkpt lat="47.24382" lon="-1.56293">
        <ele>40</ele>
        <time>2022-01-20T15:02:42Z</time>
      </trkpt>
      <trkpt lat="47.24382" lon="-1.56291">
        <ele>40</ele>
        <time>2022-01-20T15:02:43Z</time>
      </trkpt>
      <trkpt lat="47.24382" lon="-1.56289">
        <ele>40</ele>
        <time>2022-01-20T15:02:44Z</time>
      </trkpt>
      <trkpt lat="47.24382" lon="-1.56286">
        <ele>40</ele>
        <time>2022-01-20T15:02:45Z</time>
      </trkpt>
      <trkpt lat="47.24382" lon="-1.56284">
        <ele>41</ele>
        <time>2022-01-20T15:02:46Z</time>
      </trkpt>
      <trkpt lat="47.24382" lon="-1.56283">
        <ele>41</ele>
        <time>2022-01-20T15:02:47Z</time>
      </trkpt>
      <trkpt lat="47.24383" lon="-1.56281">
        <ele>41</ele>
        <time>2022-01-20T15:02:48Z</time>
      </trkpt>
      <trkpt lat="47.24383" lon="-1.56278">
        <ele>41</ele>
        <time>2022-01-20T15:02:49Z</time>
      </trkpt>
      <trkpt lat="47.24383" lon="-1.56276">
        <ele>41</ele>
        <time>2022-01-20T15:02:50Z</time>
      </trkpt>
      <trkpt lat="47.24383" lon="-1.56275">
        <ele>41</ele>
        <time>2022-01-20T15:02:51Z</time>
      </trkpt>
      <trkpt lat="47.24383" lon="-1.56272">
        <ele>42</ele>
        <time>2022-01-20T15:02:52Z</time>
      </trkpt>
      <trkpt lat="47.24383" lon="-1.5627">
        <ele>42</ele>
        <time>2022-01-20T15:02:53Z</time>
      </trkpt>
      <trkpt lat="47.24384" lon="-1.56269">
        <ele>42</ele>
        <time>2022-01-20T15:02:54Z</time>
      </trkpt>
      <trkpt lat="47.24384" lon="-1.56267">
        <ele>42</ele>
        <time>2022-01-20T15:02:55Z</time>
      </trkpt>
      <trkpt lat="47.24384" lon="-1.56265">
        <ele>42</ele>
        <time>2022-01-20T15:02:56Z</time>
      </trkpt>
      <trkpt lat="47.24383" lon="-1.56263">
        <ele>42</ele>
        <time>2022-01-20T15:02:57Z</time>
      </trkpt>
      <trkpt lat="47.24382" lon="-1.5626">
        <ele>42</ele>
        <time>2022-01-20T15:02:58Z</time>
      </trkpt>
      <trkpt lat="47.24382" lon="-1.56258">
        <ele>42</ele>
        <time>2022-01-20T15:02:59Z</time>
      </trkpt>
      <trkpt lat="47.24381" lon="-1.56256">
        <ele>41</ele>
        <time>2022-01-20T15:03:00Z</time>
      </trkpt>
      <trkpt lat="47.24381" lon="-1.56255">
        <ele>41</ele>
        <time>2022-01-20T15:03:01Z</time>
      </trkpt>
      <trkpt lat="47.2438" lon="-1.56253">
        <ele>41</ele>
        <time>2022-01-20T15:03:02Z</time>
      </trkpt>
      <trkpt lat="47.24379" lon="-1.56251">
        <ele>40</ele>
        <time>2022-01-20T15:03:03Z</time>
      </trkpt>
      <trkpt lat="47.24379" lon="-1.56249">
        <ele>41</ele>
        <time>2022-01-20T15:03:04Z</time>
      </trkpt>
      <trkpt lat="47.24379" lon="-1.56247">
        <ele>41</ele>
        <time>2022-01-20T15:03:05Z</time>
      </trkpt>
      <trkpt lat="47.24379" lon="-1.56245">
        <ele>42</ele>
        <time>2022-01-20T15:03:06Z</time>
      </trkpt>
      <trkpt lat="47.24379" lon="-1.56243">
        <ele>42</ele>
        <time>2022-01-20T15:03:07Z</time>
      </trkpt>
      <trkpt lat="47.24378" lon="-1.56241">
        <ele>42</ele>
        <time>2022-01-20T15:03:08Z</time>
      </trkpt>
      <trkpt lat="47.24378" lon="-1.56239">
        <ele>42</ele>
        <time>2022-01-20T15:03:09Z</time>
      </trkpt>
      <trkpt lat="47.24377" lon="-1.56238">
        <ele>42</ele>
        <time>2022-01-20T15:03:10Z</time>
      </trkpt>
      <trkpt lat="47.24376" lon="-1.56236">
        <ele>42</ele>
        <time>2022-01-20T15:03:11Z</time>
      </trkpt>
      <trkpt lat="47.24374" lon="-1.56233">
        <ele>42</ele>
        <time>2022-01-20T15:03:12Z</time>
      </trkpt>
      <trkpt lat="47.24373" lon="-1.56232">
        <ele>42</ele>
        <time>2022-01-20T15:03:13Z</time>
      </trkpt>
      <trkpt lat="47.24372" lon="-1.5623">
        <ele>41</ele>
        <time>2022-01-20T15:03:14Z</time>
      </trkpt>
      <trkpt lat="47.24371" lon="-1.56229">
        <ele>41</ele>
        <time>2022-01-20T15:03:15Z</time>
      </trkpt>
      <trkpt lat="47.2437" lon="-1.56227">
        <ele>41</ele>
        <time>2022-01-20T15:03:16Z</time>
      </trkpt>
      <trkpt lat="47.24369" lon="-1.56226">
        <ele>41</ele>
        <time>2022-01-20T15:03:17Z</time>
      </trkpt>
      <trkpt lat="47.24369" lon="-1.56224">
        <ele>40</ele>
        <time>2022-01-20T15:03:18Z</time>
      </trkpt>
      <trkpt lat="47.24368" lon="-1.56223">
        <ele>40</ele>
        <time>2022-01-20T15:03:19Z</time>
      </trkpt>
      <trkpt lat="47.24368" lon="-1.56221">
        <ele>40</ele>
        <time>2022-01-20T15:03:20Z</time>
      </trkpt>
      <trkpt lat="47.24368" lon="-1.56219">
        <ele>40</ele>
        <time>2022-01-20T15:03:21Z</time>
      </trkpt>
      <trkpt lat="47.24367" lon="-1.56218">
        <ele>40</ele>
        <time>2022-01-20T15:03:22Z</time>
      </trkpt>
      <trkpt lat="47.24366" lon="-1.56217">
        <ele>40</ele>
        <time>2022-01-20T15:03:23Z</time>
      </trkpt>
      <trkpt lat="47.24365" lon="-1.56217">
        <ele>40</ele>
        <time>2022-01-20T15:03:24Z</time>
      </trkpt>
      <trkpt lat="47.24364" lon="-1.56216">
        <ele>39</ele>
        <time>2022-01-20T15:03:25Z</time>
      </trkpt>
      <trkpt lat="47.24363" lon="-1.56214">
        <ele>39</ele>
        <time>2022-01-20T15:03:26Z</time>
      </trkpt>
      <trkpt lat="47.24362" lon="-1.56213">
        <ele>39</ele>
        <time>2022-01-20T15:03:27Z</time>
      </trkpt>
      <trkpt lat="47.24361" lon="-1.56211">
        <ele>39</ele>
        <time>2022-01-20T15:03:28Z</time>
      </trkpt>
      <trkpt lat="47.2436" lon="-1.5621">
        <ele>39</ele>
        <time>2022-01-20T15:03:29Z</time>
      </trkpt>
      <trkpt lat="47.24359" lon="-1.56208">
        <ele>39</ele>
        <time>2022-01-20T15:03:30Z</time>
      </trkpt>
      <trkpt lat="47.24359" lon="-1.56206">
        <ele>39</ele>
        <time>2022-01-20T15:03:31Z</time>
      </trkpt>
      <trkpt lat="47.24359" lon="-1.56205">
        <ele>39</ele>
        <time>2022-01-20T15:03:32Z</time>
      </trkpt>
      <trkpt lat="47.24358" lon="-1.56203">
        <ele>39</ele>
        <time>2022-01-20T15:03:33Z</time>
      </trkpt>
      <trkpt lat="47.24358" lon="-1.56202">
        <ele>38</ele>
        <time>2022-01-20T15:03:34Z</time>
      </trkpt>
      <trkpt lat="47.24357" lon="-1.56201">
        <ele>38</ele>
        <time>2022-01-20T15:03:35Z</time>
      </trkpt>
      <trkpt lat="47.24355" lon="-1.56199">
        <ele>38</ele>
        <time>2022-01-20T15:03:36Z</time>
      </trkpt>
      <trkpt lat="47.24354" lon="-1.56197">
        <ele>37</ele>
        <time>2022-01-20T15:03:37Z</time>
      </trkpt>
      <trkpt lat="47.24354" lon="-1.56195">
        <ele>37</ele>
        <time>2022-01-20T15:03:38Z</time>
      </trkpt>
      <trkpt lat="47.24353" lon="-1.56194">
        <ele>37</ele>
        <time>2022-01-20T15:03:39Z</time>
      </trkpt>
      <trkpt lat="47.24352" lon="-1.56193">
        <ele>36</ele>
        <time>2022-01-20T15:03:40Z</time>
      </trkpt>
      <trkpt lat="47.24351" lon="-1.56192">
        <ele>37</ele>
        <time>2022-01-20T15:03:41Z</time>
      </trkpt>
      <trkpt lat="47.2435" lon="-1.56191">
        <ele>37</ele>
        <time>2022-01-20T15:03:42Z</time>
      </trkpt>
      <trkpt lat="47.2435" lon="-1.5619">
        <ele>36</ele>
        <time>2022-01-20T15:03:43Z</time>
      </trkpt>
      <trkpt lat="47.2435" lon="-1.5619">
        <ele>36</ele>
        <time>2022-01-20T15:03:44Z</time>
      </trkpt>
      <trkpt lat="47.24349" lon="-1.56188">
        <ele>35</ele>
        <time>2022-01-20T15:03:45Z</time>
      </trkpt>
      <trkpt lat="47.24348" lon="-1.56187">
        <ele>35</ele>
        <time>2022-01-20T15:03:46Z</time>
      </trkpt>
      <trkpt lat="47.24347" lon="-1.56185">
        <ele>35</ele>
        <time>2022-01-20T15:03:47Z</time>
      </trkpt>
      <trkpt lat="47.24347" lon="-1.56184">
        <ele>35</ele>
        <time>2022-01-20T15:03:48Z</time>
      </trkpt>
      <trkpt lat="47.24346" lon="-1.56183">
        <ele>35</ele>
        <time>2022-01-20T15:03:49Z</time>
      </trkpt>
      <trkpt lat="47.24345" lon="-1.56181">
        <ele>34</ele>
        <time>2022-01-20T15:03:50Z</time>
      </trkpt>
      <trkpt lat="47.24345" lon="-1.56179">
        <ele>34</ele>
        <time>2022-01-20T15:03:51Z</time>
      </trkpt>
      <trkpt lat="47.24344" lon="-1.56177">
        <ele>34</ele>
        <time>2022-01-20T15:03:52Z</time>
      </trkpt>
      <trkpt lat="47.24342" lon="-1.56175">
        <ele>34</ele>
        <time>2022-01-20T15:03:53Z</time>
      </trkpt>
      <trkpt lat="47.24342" lon="-1.56174">
        <ele>34</ele>
        <time>2022-01-20T15:03:54Z</time>
      </trkpt>
      <trkpt lat="47.24341" lon="-1.56172">
        <ele>34</ele>
        <time>2022-01-20T15:03:55Z</time>
      </trkpt>
      <trkpt lat="47.2434" lon="-1.5617">
        <ele>34</ele>
        <time>2022-01-20T15:03:56Z</time>
      </trkpt>
      <trkpt lat="47.24339" lon="-1.56168">
        <ele>34</ele>
        <time>2022-01-20T15:03:57Z</time>
      </trkpt>
      <trkpt lat="47.24337" lon="-1.56168">
        <ele>34</ele>
        <time>2022-01-20T15:03:58Z</time>
      </trkpt>
      <trkpt lat="47.24336" lon="-1.56167">
        <ele>34</ele>
        <time>2022-01-20T15:03:59Z</time>
      </trkpt>
      <trkpt lat="47.24336" lon="-1.56166">
        <ele>34</ele>
        <time>2022-01-20T15:04:00Z</time>
      </trkpt>
      <trkpt lat="47.24334" lon="-1.56166">
        <ele>34</ele>
        <time>2022-01-20T15:04:01Z</time>
      </trkpt>
      <trkpt lat="47.24333" lon="-1.56165">
        <ele>34</ele>
        <time>2022-01-20T15:04:02Z</time>
      </trkpt>
      <trkpt lat="47.24332" lon="-1.56163">
        <ele>34</ele>
        <time>2022-01-20T15:04:03Z</time>
      </trkpt>
      <trkpt lat="47.24331" lon="-1.56162">
        <ele>33</ele>
        <time>2022-01-20T15:04:04Z</time>
      </trkpt>
      <trkpt lat="47.24331" lon="-1.56161">
        <ele>33</ele>
        <time>2022-01-20T15:04:05Z</time>
      </trkpt>
      <trkpt lat="47.2433" lon="-1.5616">
        <ele>33</ele>
        <time>2022-01-20T15:04:06Z</time>
      </trkpt>
      <trkpt lat="47.24329" lon="-1.56159">
        <ele>33</ele>
        <time>2022-01-20T15:04:07Z</time>
      </trkpt>
      <trkpt lat="47.24328" lon="-1.56158">
        <ele>33</ele>
        <time>2022-01-20T15:04:08Z</time>
      </trkpt>
      <trkpt lat="47.24328" lon="-1.56156">
        <ele>33</ele>
        <time>2022-01-20T15:04:09Z</time>
      </trkpt>
      <trkpt lat="47.24327" lon="-1.56155">
        <ele>33</ele>
        <time>2022-01-20T15:04:10Z</time>
      </trkpt>
      <trkpt lat="47.24326" lon="-1.56155">
        <ele>33</ele>
        <time>2022-01-20T15:04:11Z</time>
      </trkpt>
      <trkpt lat="47.24325" lon="-1.56153">
        <ele>33</ele>
        <time>2022-01-20T15:04:12Z</time>
      </trkpt>
      <trkpt lat="47.24323" lon="-1.56152">
        <ele>33</ele>
        <time>2022-01-20T15:04:13Z</time>
      </trkpt>
      <trkpt lat="47.24322" lon="-1.56151">
        <ele>33</ele>
        <time>2022-01-20T15:04:14Z</time>
      </trkpt>
      <trkpt lat="47.24321" lon="-1.5615">
        <ele>33</ele>
        <time>2022-01-20T15:04:15Z</time>
      </trkpt>
      <trkpt lat="47.24321" lon="-1.56149">
        <ele>33</ele>
        <time>2022-01-20T15:04:16Z</time>
      </trkpt>
      <trkpt lat="47.2432" lon="-1.56147">
        <ele>32</ele>
        <time>2022-01-20T15:04:17Z</time>
      </trkpt>
      <trkpt lat="47.24319" lon="-1.56146">
        <ele>32</ele>
        <time>2022-01-20T15:04:18Z</time>
      </trkpt>
      <trkpt lat="47.24317" lon="-1.56145">
        <ele>32</ele>
        <time>2022-01-20T15:04:19Z</time>
      </trkpt>
      <trkpt lat="47.24316" lon="-1.56144">
        <ele>32</ele>
        <time>2022-01-20T15:04:20Z</time>
      </trkpt>
      <trkpt lat="47.24315" lon="-1.56143">
        <ele>32</ele>
        <time>2022-01-20T15:04:21Z</time>
      </trkpt>
      <trkpt lat="47.24314" lon="-1.56141">
        <ele>32</ele>
        <time>2022-01-20T15:04:22Z</time>
      </trkpt>
      <trkpt lat="47.24313" lon="-1.5614">
        <ele>32</ele>
        <time>2022-01-20T15:04:23Z</time>
      </trkpt>
      <trkpt lat="47.24312" lon="-1.56139">
        <ele>32</ele>
        <time>2022-01-20T15:04:24Z</time>
      </trkpt>
      <trkpt lat="47.24311" lon="-1.56138">
        <ele>32</ele>
        <time>2022-01-20T15:04:25Z</time>
      </trkpt>
      <trkpt lat="47.2431" lon="-1.56136">
        <ele>32</ele>
        <time>2022-01-20T15:04:26Z</time>
      </trkpt>
      <trkpt lat="47.24309" lon="-1.56134">
        <ele>32</ele>
        <time>2022-01-20T15:04:27Z</time>
      </trkpt>
      <trkpt lat="47.24308" lon="-1.56133">
        <ele>32</ele>
        <time>2022-01-20T15:04:28Z</time>
      </trkpt>
      <trkpt lat="47.24308" lon="-1.56132">
        <ele>32</ele>
        <time>2022-01-20T15:04:29Z</time>
      </trkpt>
      <trkpt lat="47.24307" lon="-1.56131">
        <ele>32</ele>
        <time>2022-01-20T15:04:30Z</time>
      </trkpt>
      <trkpt lat="47.24307" lon="-1.5613">
        <ele>32</ele>
        <time>2022-01-20T15:04:31Z</time>
      </trkpt>
      <trkpt lat="47.24306" lon="-1.56129">
        <ele>32</ele>
        <time>2022-01-20T15:04:32Z</time>
      </trkpt>
      <trkpt lat="47.24305" lon="-1.56128">
        <ele>32</ele>
        <time>2022-01-20T15:04:33Z</time>
      </trkpt>
      <trkpt lat="47.24304" lon="-1.56126">
        <ele>32</ele>
        <time>2022-01-20T15:04:34Z</time>
      </trkpt>
      <trkpt lat="47.24303" lon="-1.56125">
        <ele>32</ele>
        <time>2022-01-20T15:04:35Z</time>
      </trkpt>
      <trkpt lat="47.24303" lon="-1.56124">
        <ele>32</ele>
        <time>2022-01-20T15:04:36Z</time>
      </trkpt>
      <trkpt lat="47.24302" lon="-1.56123">
        <ele>32</ele>
        <time>2022-01-20T15:04:37Z</time>
      </trkpt>
      <trkpt lat="47.24302" lon="-1.56121">
        <ele>32</ele>
        <time>2022-01-20T15:04:38Z</time>
      </trkpt>
      <trkpt lat="47.24302" lon="-1.5612">
        <ele>33</ele>
        <time>2022-01-20T15:04:39Z</time>
      </trkpt>
      <trkpt lat="47.243" lon="-1.5612">
        <ele>33</ele>
        <time>2022-01-20T15:04:40Z</time>
      </trkpt>
      <trkpt lat="47.24299" lon="-1.5612">
        <ele>33</ele>
        <time>2022-01-20T15:04:41Z</time>
      </trkpt>
      <trkpt lat="47.24298" lon="-1.56119">
        <ele>33</ele>
        <time>2022-01-20T15:04:42Z</time>
      </trkpt>
      <trkpt lat="47.24297" lon="-1.56117">
        <ele>32</ele>
        <time>2022-01-20T15:04:43Z</time>
      </trkpt>
      <trkpt lat="47.24297" lon="-1.56116">
        <ele>32</ele>
        <time>2022-01-20T15:04:44Z</time>
      </trkpt>
      <trkpt lat="47.24296" lon="-1.56115">
        <ele>32</ele>
        <time>2022-01-20T15:04:45Z</time>
      </trkpt>
      <trkpt lat="47.24295" lon="-1.56114">
        <ele>32</ele>
        <time>2022-01-20T15:04:46Z</time>
      </trkpt>
      <trkpt lat="47.24294" lon="-1.56112">
        <ele>31</ele>
        <time>2022-01-20T15:04:47Z</time>
      </trkpt>
      <trkpt lat="47.24294" lon="-1.56112">
        <ele>31</ele>
        <time>2022-01-20T15:04:48Z</time>
      </trkpt>
      <trkpt lat="47.24294" lon="-1.56112">
        <ele>31</ele>
        <time>2022-01-20T15:04:49Z</time>
      </trkpt>
      <trkpt lat="47.24292" lon="-1.56108">
        <ele>31</ele>
        <time>2022-01-20T15:04:50Z</time>
      </trkpt>
      <trkpt lat="47.24291" lon="-1.56107">
        <ele>31</ele>
        <time>2022-01-20T15:04:51Z</time>
      </trkpt>
      <trkpt lat="47.2429" lon="-1.56105">
        <ele>31</ele>
        <time>2022-01-20T15:04:52Z</time>
      </trkpt>
      <trkpt lat="47.24289" lon="-1.56104">
        <ele>31</ele>
        <time>2022-01-20T15:04:53Z</time>
      </trkpt>
      <trkpt lat="47.24287" lon="-1.56102">
        <ele>31</ele>
        <time>2022-01-20T15:04:54Z</time>
      </trkpt>
      <trkpt lat="47.24286" lon="-1.561">
        <ele>31</ele>
        <time>2022-01-20T15:04:55Z</time>
      </trkpt>
      <trkpt lat="47.24285" lon="-1.56098">
        <ele>31</ele>
        <time>2022-01-20T15:04:56Z</time>
      </trkpt>
      <trkpt lat="47.24284" lon="-1.56096">
        <ele>31</ele>
        <time>2022-01-20T15:04:57Z</time>
      </trkpt>
      <trkpt lat="47.24284" lon="-1.56094">
        <ele>31</ele>
        <time>2022-01-20T15:04:58Z</time>
      </trkpt>
      <trkpt lat="47.24283" lon="-1.56092">
        <ele>31</ele>
        <time>2022-01-20T15:04:59Z</time>
      </trkpt>
      <trkpt lat="47.24281" lon="-1.5609">
        <ele>31</ele>
        <time>2022-01-20T15:05:00Z</time>
      </trkpt>
      <trkpt lat="47.24281" lon="-1.56088">
        <ele>31</ele>
        <time>2022-01-20T15:05:01Z</time>
      </trkpt>
      <trkpt lat="47.2428" lon="-1.56087">
        <ele>31</ele>
        <time>2022-01-20T15:05:02Z</time>
      </trkpt>
      <trkpt lat="47.24279" lon="-1.56085">
        <ele>32</ele>
        <time>2022-01-20T15:05:03Z</time>
      </trkpt>
      <trkpt lat="47.2428" lon="-1.56083">
        <ele>32</ele>
        <time>2022-01-20T15:05:04Z</time>
      </trkpt>
      <trkpt lat="47.24279" lon="-1.56081">
        <ele>32</ele>
        <time>2022-01-20T15:05:05Z</time>
      </trkpt>
      <trkpt lat="47.24279" lon="-1.56079">
        <ele>31</ele>
        <time>2022-01-20T15:05:06Z</time>
      </trkpt>
      <trkpt lat="47.24279" lon="-1.56077">
        <ele>31</ele>
        <time>2022-01-20T15:05:07Z</time>
      </trkpt>
      <trkpt lat="47.24278" lon="-1.56076">
        <ele>31</ele>
        <time>2022-01-20T15:05:08Z</time>
      </trkpt>
      <trkpt lat="47.24278" lon="-1.56074">
        <ele>31</ele>
        <time>2022-01-20T15:05:09Z</time>
      </trkpt>
      <trkpt lat="47.24278" lon="-1.56073">
        <ele>31</ele>
        <time>2022-01-20T15:05:10Z</time>
      </trkpt>
      <trkpt lat="47.24277" lon="-1.5607">
        <ele>31</ele>
        <time>2022-01-20T15:05:11Z</time>
      </trkpt>
      <trkpt lat="47.24277" lon="-1.56069">
        <ele>30</ele>
        <time>2022-01-20T15:05:12Z</time>
      </trkpt>
      <trkpt lat="47.24276" lon="-1.56066">
        <ele>30</ele>
        <time>2022-01-20T15:05:13Z</time>
      </trkpt>
      <trkpt lat="47.24276" lon="-1.56065">
        <ele>30</ele>
        <time>2022-01-20T15:05:14Z</time>
      </trkpt>
      <trkpt lat="47.24276" lon="-1.56063">
        <ele>30</ele>
        <time>2022-01-20T15:05:15Z</time>
      </trkpt>
      <trkpt lat="47.24277" lon="-1.56062">
        <ele>30</ele>
        <time>2022-01-20T15:05:17Z</time>
      </trkpt>
      <trkpt lat="47.24278" lon="-1.56061">
        <ele>30</ele>
        <time>2022-01-20T15:05:17Z</time>
      </trkpt>
      <trkpt lat="47.24278" lon="-1.56061">
        <ele>30</ele>
        <time>2022-01-20T15:05:18Z</time>
      </trkpt>
      <trkpt lat="47.24278" lon="-1.5606">
        <ele>29</ele>
        <time>2022-01-20T15:05:19Z</time>
      </trkpt>
      <trkpt lat="47.24279" lon="-1.5606">
        <ele>29</ele>
        <time>2022-01-20T15:05:21Z</time>
      </trkpt>
      <trkpt lat="47.24279" lon="-1.56059">
        <ele>28</ele>
        <time>2022-01-20T15:05:22Z</time>
      </trkpt>
      <trkpt lat="47.24281" lon="-1.56058">
        <ele>28</ele>
        <time>2022-01-20T15:05:23Z</time>
      </trkpt>
      <trkpt lat="47.24281" lon="-1.56057">
        <ele>28</ele>
        <time>2022-01-20T15:05:24Z</time>
      </trkpt>
      <trkpt lat="47.24281" lon="-1.56055">
        <ele>28</ele>
        <time>2022-01-20T15:05:25Z</time>
      </trkpt>
      <trkpt lat="47.24281" lon="-1.56053">
        <ele>28</ele>
        <time>2022-01-20T15:05:26Z</time>
      </trkpt>
      <trkpt lat="47.24281" lon="-1.56051">
        <ele>28</ele>
        <time>2022-01-20T15:05:27Z</time>
      </trkpt>
      <trkpt lat="47.2428" lon="-1.56049">
        <ele>28</ele>
        <time>2022-01-20T15:05:28Z</time>
      </trkpt>
      <trkpt lat="47.2428" lon="-1.56047">
        <ele>28</ele>
        <time>2022-01-20T15:05:29Z</time>
      </trkpt>
      <trkpt lat="47.24279" lon="-1.56045">
        <ele>28</ele>
        <time>2022-01-20T15:05:30Z</time>
      </trkpt>
      <trkpt lat="47.24279" lon="-1.56043">
        <ele>28</ele>
        <time>2022-01-20T15:05:31Z</time>
      </trkpt>
      <trkpt lat="47.24278" lon="-1.56041">
        <ele>28</ele>
        <time>2022-01-20T15:05:32Z</time>
      </trkpt>
      <trkpt lat="47.24277" lon="-1.5604">
        <ele>28</ele>
        <time>2022-01-20T15:05:33Z</time>
      </trkpt>
      <trkpt lat="47.24276" lon="-1.56038">
        <ele>28</ele>
        <time>2022-01-20T15:05:34Z</time>
      </trkpt>
      <trkpt lat="47.24276" lon="-1.56036">
        <ele>29</ele>
        <time>2022-01-20T15:05:35Z</time>
      </trkpt>
      <trkpt lat="47.24275" lon="-1.56033">
        <ele>29</ele>
        <time>2022-01-20T15:05:36Z</time>
      </trkpt>
      <trkpt lat="47.24275" lon="-1.56031">
        <ele>29</ele>
        <time>2022-01-20T15:05:37Z</time>
      </trkpt>
      <trkpt lat="47.24275" lon="-1.5603">
        <ele>29</ele>
        <time>2022-01-20T15:05:38Z</time>
      </trkpt>
      <trkpt lat="47.24275" lon="-1.56028">
        <ele>29</ele>
        <time>2022-01-20T15:05:39Z</time>
      </trkpt>
      <trkpt lat="47.24275" lon="-1.56027">
        <ele>30</ele>
        <time>2022-01-20T15:05:40Z</time>
      </trkpt>
      <trkpt lat="47.24274" lon="-1.56026">
        <ele>30</ele>
        <time>2022-01-20T15:05:41Z</time>
      </trkpt>
      <trkpt lat="47.24274" lon="-1.56025">
        <ele>30</ele>
        <time>2022-01-20T15:05:42Z</time>
      </trkpt>
      <trkpt lat="47.24274" lon="-1.56025">
        <ele>30</ele>
        <time>2022-01-20T15:05:43Z</time>
      </trkpt>
      <trkpt lat="47.24273" lon="-1.56025">
        <ele>30</ele>
        <time>2022-01-20T15:05:44Z</time>
      </trkpt>
      <trkpt lat="47.24273" lon="-1.56025">
        <ele>31</ele>
        <time>2022-01-20T15:05:45Z</time>
      </trkpt>
      <trkpt lat="47.24273" lon="-1.56024">
        <ele>31</ele>
        <time>2022-01-20T15:05:46Z</time>
      </trkpt>
      <trkpt lat="47.24273" lon="-1.56024">
        <ele>31</ele>
        <time>2022-01-20T15:05:46Z</time>
      </trkpt>
      <trkpt lat="47.24273" lon="-1.56024">
        <ele>31</ele>
        <time>2022-01-20T15:05:46Z</time>
      </trkpt>
      <trkpt lat="47.24274" lon="-1.5601">
        <ele>34</ele>
        <time>2022-01-20T15:06:14Z</time>
      </trkpt>
      <trkpt lat="47.24274" lon="-1.5601">
        <ele>34</ele>
        <time>2022-01-20T15:06:14Z</time>
      </trkpt>
      <trkpt lat="47.24274" lon="-1.5601">
        <ele>35</ele>
        <time>2022-01-20T15:06:16Z</time>
      </trkpt>
      <trkpt lat="47.24274" lon="-1.5601">
        <ele>35</ele>
        <time>2022-01-20T15:06:16Z</time>
      </trkpt>
      <trkpt lat="47.24274" lon="-1.5601">
        <ele>35</ele>
        <time>2022-01-20T15:06:16Z</time>
      </trkpt>
      <trkpt lat="47.24266" lon="-1.56001">
        <ele>34</ele>
        <time>2022-01-20T15:06:55Z</time>
      </trkpt>
      <trkpt lat="47.24266" lon="-1.56001">
        <ele>34</ele>
        <time>2022-01-20T15:06:55Z</time>
      </trkpt>
      <trkpt lat="47.24267" lon="-1.55999">
        <ele>35</ele>
        <time>2022-01-20T15:06:57Z</time>
      </trkpt>
      <trkpt lat="47.24268" lon="-1.55998">
        <ele>35</ele>
        <time>2022-01-20T15:06:58Z</time>
      </trkpt>
      <trkpt lat="47.24267" lon="-1.55996">
        <ele>35</ele>
        <time>2022-01-20T15:06:59Z</time>
      </trkpt>
      <trkpt lat="47.24267" lon="-1.55995">
        <ele>35</ele>
        <time>2022-01-20T15:07:00Z</time>
      </trkpt>
      <trkpt lat="47.24267" lon="-1.55995">
        <ele>35</ele>
        <time>2022-01-20T15:07:00Z</time>
      </trkpt>
      <trkpt lat="47.24267" lon="-1.55992">
        <ele>35</ele>
        <time>2022-01-20T15:07:02Z</time>
      </trkpt>
      <trkpt lat="47.24267" lon="-1.55992">
        <ele>35</ele>
        <time>2022-01-20T15:07:02Z</time>
      </trkpt>
      <trkpt lat="47.24267" lon="-1.5599">
        <ele>35</ele>
        <time>2022-01-20T15:07:04Z</time>
      </trkpt>
      <trkpt lat="47.24266" lon="-1.55988">
        <ele>35</ele>
        <time>2022-01-20T15:07:05Z</time>
      </trkpt>
      <trkpt lat="47.24266" lon="-1.55988">
        <ele>35</ele>
        <time>2022-01-20T15:07:05Z</time>
      </trkpt>
      <trkpt lat="47.24266" lon="-1.55984">
        <ele>35</ele>
        <time>2022-01-20T15:07:07Z</time>
      </trkpt>
      <trkpt lat="47.24265" lon="-1.55982">
        <ele>35</ele>
        <time>2022-01-20T15:07:08Z</time>
      </trkpt>
      <trkpt lat="47.24264" lon="-1.5598">
        <ele>35</ele>
        <time>2022-01-20T15:07:09Z</time>
      </trkpt>
      <trkpt lat="47.24263" lon="-1.55979">
        <ele>36</ele>
        <time>2022-01-20T15:07:10Z</time>
      </trkpt>
      <trkpt lat="47.24263" lon="-1.55977">
        <ele>36</ele>
        <time>2022-01-20T15:07:11Z</time>
      </trkpt>
      <trkpt lat="47.24262" lon="-1.55975">
        <ele>36</ele>
        <time>2022-01-20T15:07:12Z</time>
      </trkpt>
      <trkpt lat="47.24262" lon="-1.55974">
        <ele>36</ele>
        <time>2022-01-20T15:07:13Z</time>
      </trkpt>
      <trkpt lat="47.24261" lon="-1.55972">
        <ele>36</ele>
        <time>2022-01-20T15:07:14Z</time>
      </trkpt>
      <trkpt lat="47.2426" lon="-1.55971">
        <ele>36</ele>
        <time>2022-01-20T15:07:15Z</time>
      </trkpt>
      <trkpt lat="47.2426" lon="-1.5597">
        <ele>36</ele>
        <time>2022-01-20T15:07:16Z</time>
      </trkpt>
      <trkpt lat="47.2426" lon="-1.55968">
        <ele>36</ele>
        <time>2022-01-20T15:07:17Z</time>
      </trkpt>
      <trkpt lat="47.2426" lon="-1.55968">
        <ele>36</ele>
        <time>2022-01-20T15:07:18Z</time>
      </trkpt>
      <trkpt lat="47.2426" lon="-1.55966">
        <ele>36</ele>
        <time>2022-01-20T15:07:19Z</time>
      </trkpt>
      <trkpt lat="47.2426" lon="-1.55965">
        <ele>36</ele>
        <time>2022-01-20T15:07:20Z</time>
      </trkpt>
      <trkpt lat="47.24259" lon="-1.55964">
        <ele>36</ele>
        <time>2022-01-20T15:07:21Z</time>
      </trkpt>
      <trkpt lat="47.2426" lon="-1.55962">
        <ele>36</ele>
        <time>2022-01-20T15:07:22Z</time>
      </trkpt>
      <trkpt lat="47.24259" lon="-1.5596">
        <ele>36</ele>
        <time>2022-01-20T15:07:23Z</time>
      </trkpt>
      <trkpt lat="47.24259" lon="-1.55958">
        <ele>36</ele>
        <time>2022-01-20T15:07:24Z</time>
      </trkpt>
      <trkpt lat="47.24259" lon="-1.55956">
        <ele>36</ele>
        <time>2022-01-20T15:07:25Z</time>
      </trkpt>
      <trkpt lat="47.24259" lon="-1.55954">
        <ele>35</ele>
        <time>2022-01-20T15:07:26Z</time>
      </trkpt>
      <trkpt lat="47.24259" lon="-1.55952">
        <ele>35</ele>
        <time>2022-01-20T15:07:27Z</time>
      </trkpt>
      <trkpt lat="47.24259" lon="-1.5595">
        <ele>35</ele>
        <time>2022-01-20T15:07:28Z</time>
      </trkpt>
      <trkpt lat="47.24258" lon="-1.55948">
        <ele>35</ele>
        <time>2022-01-20T15:07:29Z</time>
      </trkpt>
      <trkpt lat="47.24258" lon="-1.55946">
        <ele>35</ele>
        <time>2022-01-20T15:07:30Z</time>
      </trkpt>
      <trkpt lat="47.24258" lon="-1.55946">
        <ele>35</ele>
        <time>2022-01-20T15:07:30Z</time>
      </trkpt>
      <trkpt lat="47.24258" lon="-1.55943">
        <ele>35</ele>
        <time>2022-01-20T15:07:32Z</time>
      </trkpt>
      <trkpt lat="47.24258" lon="-1.55941">
        <ele>35</ele>
        <time>2022-01-20T15:07:33Z</time>
      </trkpt>
      <trkpt lat="47.24258" lon="-1.55941">
        <ele>35</ele>
        <time>2022-01-20T15:07:33Z</time>
      </trkpt>
      <trkpt lat="47.24258" lon="-1.55937">
        <ele>35</ele>
        <time>2022-01-20T15:07:35Z</time>
      </trkpt>
      <trkpt lat="47.24258" lon="-1.55935">
        <ele>34</ele>
        <time>2022-01-20T15:07:36Z</time>
      </trkpt>
      <trkpt lat="47.24257" lon="-1.55933">
        <ele>34</ele>
        <time>2022-01-20T15:07:37Z</time>
      </trkpt>
      <trkpt lat="47.24257" lon="-1.55931">
        <ele>34</ele>
        <time>2022-01-20T15:07:38Z</time>
      </trkpt>
      <trkpt lat="47.24256" lon="-1.5593">
        <ele>34</ele>
        <time>2022-01-20T15:07:39Z</time>
      </trkpt>
      <trkpt lat="47.24256" lon="-1.55928">
        <ele>34</ele>
        <time>2022-01-20T15:07:40Z</time>
      </trkpt>
      <trkpt lat="47.24255" lon="-1.55926">
        <ele>33</ele>
        <time>2022-01-20T15:07:41Z</time>
      </trkpt>
      <trkpt lat="47.24255" lon="-1.55924">
        <ele>34</ele>
        <time>2022-01-20T15:07:42Z</time>
      </trkpt>
      <trkpt lat="47.24255" lon="-1.55922">
        <ele>34</ele>
        <time>2022-01-20T15:07:43Z</time>
      </trkpt>
      <trkpt lat="47.24255" lon="-1.5592">
        <ele>34</ele>
        <time>2022-01-20T15:07:44Z</time>
      </trkpt>
      <trkpt lat="47.24255" lon="-1.55918">
        <ele>34</ele>
        <time>2022-01-20T15:07:45Z</time>
      </trkpt>
      <trkpt lat="47.24255" lon="-1.55918">
        <ele>34</ele>
        <time>2022-01-20T15:07:45Z</time>
      </trkpt>
      <trkpt lat="47.24255" lon="-1.55916">
        <ele>34</ele>
        <time>2022-01-20T15:07:47Z</time>
      </trkpt>
      <trkpt lat="47.24255" lon="-1.55912">
        <ele>33</ele>
        <time>2022-01-20T15:07:48Z</time>
      </trkpt>
      <trkpt lat="47.24255" lon="-1.5591">
        <ele>34</ele>
        <time>2022-01-20T15:07:49Z</time>
      </trkpt>
      <trkpt lat="47.24256" lon="-1.55908">
        <ele>33</ele>
        <time>2022-01-20T15:07:50Z</time>
      </trkpt>
      <trkpt lat="47.24256" lon="-1.55906">
        <ele>33</ele>
        <time>2022-01-20T15:07:51Z</time>
      </trkpt>
      <trkpt lat="47.24256" lon="-1.55905">
        <ele>33</ele>
        <time>2022-01-20T15:07:52Z</time>
      </trkpt>
      <trkpt lat="47.24255" lon="-1.55903">
        <ele>33</ele>
        <time>2022-01-20T15:07:53Z</time>
      </trkpt>
      <trkpt lat="47.24255" lon="-1.55901">
        <ele>32</ele>
        <time>2022-01-20T15:07:54Z</time>
      </trkpt>
      <trkpt lat="47.24255" lon="-1.55899">
        <ele>32</ele>
        <time>2022-01-20T15:07:55Z</time>
      </trkpt>
      <trkpt lat="47.24255" lon="-1.55897">
        <ele>32</ele>
        <time>2022-01-20T15:07:56Z</time>
      </trkpt>
      <trkpt lat="47.24255" lon="-1.55895">
        <ele>32</ele>
        <time>2022-01-20T15:07:57Z</time>
      </trkpt>
      <trkpt lat="47.24255" lon="-1.55893">
        <ele>32</ele>
        <time>2022-01-20T15:07:58Z</time>
      </trkpt>
      <trkpt lat="47.24255" lon="-1.55892">
        <ele>32</ele>
        <time>2022-01-20T15:07:59Z</time>
      </trkpt>
      <trkpt lat="47.24255" lon="-1.5589">
        <ele>32</ele>
        <time>2022-01-20T15:08:00Z</time>
      </trkpt>
      <trkpt lat="47.24254" lon="-1.55888">
        <ele>32</ele>
        <time>2022-01-20T15:08:01Z</time>
      </trkpt>
      <trkpt lat="47.24254" lon="-1.55886">
        <ele>32</ele>
        <time>2022-01-20T15:08:02Z</time>
      </trkpt>
      <trkpt lat="47.24254" lon="-1.55884">
        <ele>31</ele>
        <time>2022-01-20T15:08:03Z</time>
      </trkpt>
      <trkpt lat="47.24254" lon="-1.55884">
        <ele>31</ele>
        <time>2022-01-20T15:08:04Z</time>
      </trkpt>
      <trkpt lat="47.24254" lon="-1.55881">
        <ele>32</ele>
        <time>2022-01-20T15:08:05Z</time>
      </trkpt>
      <trkpt lat="47.24254" lon="-1.55879">
        <ele>32</ele>
        <time>2022-01-20T15:08:06Z</time>
      </trkpt>
      <trkpt lat="47.24253" lon="-1.55877">
        <ele>32</ele>
        <time>2022-01-20T15:08:07Z</time>
      </trkpt>
      <trkpt lat="47.24252" lon="-1.55876">
        <ele>31</ele>
        <time>2022-01-20T15:08:08Z</time>
      </trkpt>
      <trkpt lat="47.24252" lon="-1.55874">
        <ele>31</ele>
        <time>2022-01-20T15:08:09Z</time>
      </trkpt>
      <trkpt lat="47.24251" lon="-1.55873">
        <ele>31</ele>
        <time>2022-01-20T15:08:10Z</time>
      </trkpt>
      <trkpt lat="47.24251" lon="-1.55871">
        <ele>31</ele>
        <time>2022-01-20T15:08:11Z</time>
      </trkpt>
      <trkpt lat="47.2425" lon="-1.5587">
        <ele>30</ele>
        <time>2022-01-20T15:08:12Z</time>
      </trkpt>
      <trkpt lat="47.2425" lon="-1.55868">
        <ele>31</ele>
        <time>2022-01-20T15:08:13Z</time>
      </trkpt>
      <trkpt lat="47.2425" lon="-1.55866">
        <ele>31</ele>
        <time>2022-01-20T15:08:14Z</time>
      </trkpt>
      <trkpt lat="47.24249" lon="-1.55864">
        <ele>31</ele>
        <time>2022-01-20T15:08:15Z</time>
      </trkpt>
      <trkpt lat="47.24249" lon="-1.55862">
        <ele>31</ele>
        <time>2022-01-20T15:08:16Z</time>
      </trkpt>
      <trkpt lat="47.24248" lon="-1.5586">
        <ele>31</ele>
        <time>2022-01-20T15:08:17Z</time>
      </trkpt>
      <trkpt lat="47.24247" lon="-1.55858">
        <ele>31</ele>
        <time>2022-01-20T15:08:18Z</time>
      </trkpt>
      <trkpt lat="47.24247" lon="-1.55856">
        <ele>31</ele>
        <time>2022-01-20T15:08:19Z</time>
      </trkpt>
      <trkpt lat="47.24247" lon="-1.55853">
        <ele>30</ele>
        <time>2022-01-20T15:08:20Z</time>
      </trkpt>
      <trkpt lat="47.24247" lon="-1.55851">
        <ele>30</ele>
        <time>2022-01-20T15:08:21Z</time>
      </trkpt>
      <trkpt lat="47.24247" lon="-1.55849">
        <ele>30</ele>
        <time>2022-01-20T15:08:22Z</time>
      </trkpt>
      <trkpt lat="47.24247" lon="-1.55847">
        <ele>30</ele>
        <time>2022-01-20T15:08:23Z</time>
      </trkpt>
      <trkpt lat="47.24246" lon="-1.55845">
        <ele>30</ele>
        <time>2022-01-20T15:08:24Z</time>
      </trkpt>
      <trkpt lat="47.24246" lon="-1.55844">
        <ele>29</ele>
        <time>2022-01-20T15:08:25Z</time>
      </trkpt>
      <trkpt lat="47.24246" lon="-1.55842">
        <ele>29</ele>
        <time>2022-01-20T15:08:26Z</time>
      </trkpt>
      <trkpt lat="47.24245" lon="-1.5584">
        <ele>30</ele>
        <time>2022-01-20T15:08:27Z</time>
      </trkpt>
      <trkpt lat="47.24245" lon="-1.55838">
        <ele>30</ele>
        <time>2022-01-20T15:08:28Z</time>
      </trkpt>
      <trkpt lat="47.24245" lon="-1.55836">
        <ele>30</ele>
        <time>2022-01-20T15:08:29Z</time>
      </trkpt>
      <trkpt lat="47.24245" lon="-1.55834">
        <ele>30</ele>
        <time>2022-01-20T15:08:30Z</time>
      </trkpt>
      <trkpt lat="47.24245" lon="-1.55832">
        <ele>30</ele>
        <time>2022-01-20T15:08:31Z</time>
      </trkpt>
      <trkpt lat="47.24246" lon="-1.5583">
        <ele>31</ele>
        <time>2022-01-20T15:08:32Z</time>
      </trkpt>
      <trkpt lat="47.24246" lon="-1.55828">
        <ele>31</ele>
        <time>2022-01-20T15:08:33Z</time>
      </trkpt>
      <trkpt lat="47.24246" lon="-1.55826">
        <ele>31</ele>
        <time>2022-01-20T15:08:34Z</time>
      </trkpt>
      <trkpt lat="47.24246" lon="-1.55824">
        <ele>31</ele>
        <time>2022-01-20T15:08:35Z</time>
      </trkpt>
      <trkpt lat="47.24245" lon="-1.55821">
        <ele>31</ele>
        <time>2022-01-20T15:08:36Z</time>
      </trkpt>
      <trkpt lat="47.24245" lon="-1.55818">
        <ele>31</ele>
        <time>2022-01-20T15:08:37Z</time>
      </trkpt>
      <trkpt lat="47.24246" lon="-1.55816">
        <ele>31</ele>
        <time>2022-01-20T15:08:38Z</time>
      </trkpt>
      <trkpt lat="47.24246" lon="-1.55814">
        <ele>31</ele>
        <time>2022-01-20T15:08:39Z</time>
      </trkpt>
      <trkpt lat="47.24246" lon="-1.55811">
        <ele>32</ele>
        <time>2022-01-20T15:08:40Z</time>
      </trkpt>
      <trkpt lat="47.24246" lon="-1.55809">
        <ele>32</ele>
        <time>2022-01-20T15:08:41Z</time>
      </trkpt>
      <trkpt lat="47.24246" lon="-1.55807">
        <ele>33</ele>
        <time>2022-01-20T15:08:42Z</time>
      </trkpt>
      <trkpt lat="47.24246" lon="-1.55805">
        <ele>33</ele>
        <time>2022-01-20T15:08:43Z</time>
      </trkpt>
      <trkpt lat="47.24246" lon="-1.55804">
        <ele>32</ele>
        <time>2022-01-20T15:08:44Z</time>
      </trkpt>
      <trkpt lat="47.24246" lon="-1.55802">
        <ele>32</ele>
        <time>2022-01-20T15:08:45Z</time>
      </trkpt>
      <trkpt lat="47.24246" lon="-1.55801">
        <ele>33</ele>
        <time>2022-01-20T15:08:46Z</time>
      </trkpt>
      <trkpt lat="47.24246" lon="-1.558">
        <ele>33</ele>
        <time>2022-01-20T15:08:47Z</time>
      </trkpt>
      <trkpt lat="47.24247" lon="-1.55798">
        <ele>33</ele>
        <time>2022-01-20T15:08:48Z</time>
      </trkpt>
      <trkpt lat="47.24247" lon="-1.55797">
        <ele>33</ele>
        <time>2022-01-20T15:08:49Z</time>
      </trkpt>
      <trkpt lat="47.24247" lon="-1.55796">
        <ele>33</ele>
        <time>2022-01-20T15:08:50Z</time>
      </trkpt>
      <trkpt lat="47.24247" lon="-1.55795">
        <ele>33</ele>
        <time>2022-01-20T15:08:51Z</time>
      </trkpt>
      <trkpt lat="47.24247" lon="-1.55795">
        <ele>33</ele>
        <time>2022-01-20T15:08:52Z</time>
      </trkpt>
      <trkpt lat="47.24247" lon="-1.55795">
        <ele>33</ele>
        <time>2022-01-20T15:08:53Z</time>
      </trkpt>
      <trkpt lat="47.24246" lon="-1.55791">
        <ele>32</ele>
        <time>2022-01-20T15:08:54Z</time>
      </trkpt>
      <trkpt lat="47.24246" lon="-1.55789">
        <ele>32</ele>
        <time>2022-01-20T15:08:55Z</time>
      </trkpt>
      <trkpt lat="47.24247" lon="-1.55787">
        <ele>32</ele>
        <time>2022-01-20T15:08:56Z</time>
      </trkpt>
      <trkpt lat="47.24246" lon="-1.55785">
        <ele>32</ele>
        <time>2022-01-20T15:08:57Z</time>
      </trkpt>
      <trkpt lat="47.24246" lon="-1.55783">
        <ele>32</ele>
        <time>2022-01-20T15:08:58Z</time>
      </trkpt>
      <trkpt lat="47.24246" lon="-1.5578">
        <ele>32</ele>
        <time>2022-01-20T15:08:59Z</time>
      </trkpt>
      <trkpt lat="47.24245" lon="-1.55779">
        <ele>31</ele>
        <time>2022-01-20T15:09:00Z</time>
      </trkpt>
      <trkpt lat="47.24245" lon="-1.55777">
        <ele>31</ele>
        <time>2022-01-20T15:09:01Z</time>
      </trkpt>
      <trkpt lat="47.24244" lon="-1.55775">
        <ele>31</ele>
        <time>2022-01-20T15:09:02Z</time>
      </trkpt>
      <trkpt lat="47.24244" lon="-1.55772">
        <ele>31</ele>
        <time>2022-01-20T15:09:03Z</time>
      </trkpt>
      <trkpt lat="47.24243" lon="-1.5577">
        <ele>31</ele>
        <time>2022-01-20T15:09:04Z</time>
      </trkpt>
      <trkpt lat="47.24243" lon="-1.55768">
        <ele>30</ele>
        <time>2022-01-20T15:09:05Z</time>
      </trkpt>
      <trkpt lat="47.24242" lon="-1.55766">
        <ele>30</ele>
        <time>2022-01-20T15:09:06Z</time>
      </trkpt>
      <trkpt lat="47.24242" lon="-1.55764">
        <ele>30</ele>
        <time>2022-01-20T15:09:07Z</time>
      </trkpt>
      <trkpt lat="47.24241" lon="-1.55762">
        <ele>30</ele>
        <time>2022-01-20T15:09:08Z</time>
      </trkpt>
      <trkpt lat="47.24241" lon="-1.5576">
        <ele>30</ele>
        <time>2022-01-20T15:09:09Z</time>
      </trkpt>
      <trkpt lat="47.2424" lon="-1.55758">
        <ele>30</ele>
        <time>2022-01-20T15:09:10Z</time>
      </trkpt>
      <trkpt lat="47.24239" lon="-1.55756">
        <ele>30</ele>
        <time>2022-01-20T15:09:11Z</time>
      </trkpt>
      <trkpt lat="47.24239" lon="-1.55755">
        <ele>30</ele>
        <time>2022-01-20T15:09:12Z</time>
      </trkpt>
      <trkpt lat="47.24238" lon="-1.55753">
        <ele>29</ele>
        <time>2022-01-20T15:09:13Z</time>
      </trkpt>
      <trkpt lat="47.24238" lon="-1.55751">
        <ele>30</ele>
        <time>2022-01-20T15:09:14Z</time>
      </trkpt>
      <trkpt lat="47.24238" lon="-1.55749">
        <ele>29</ele>
        <time>2022-01-20T15:09:15Z</time>
      </trkpt>
      <trkpt lat="47.24238" lon="-1.55747">
        <ele>29</ele>
        <time>2022-01-20T15:09:16Z</time>
      </trkpt>
      <trkpt lat="47.24238" lon="-1.55745">
        <ele>29</ele>
        <time>2022-01-20T15:09:17Z</time>
      </trkpt>
      <trkpt lat="47.24238" lon="-1.55744">
        <ele>29</ele>
        <time>2022-01-20T15:09:18Z</time>
      </trkpt>
      <trkpt lat="47.24238" lon="-1.55742">
        <ele>29</ele>
        <time>2022-01-20T15:09:19Z</time>
      </trkpt>
      <trkpt lat="47.24237" lon="-1.5574">
        <ele>29</ele>
        <time>2022-01-20T15:09:20Z</time>
      </trkpt>
      <trkpt lat="47.24237" lon="-1.55739">
        <ele>29</ele>
        <time>2022-01-20T15:09:21Z</time>
      </trkpt>
      <trkpt lat="47.24238" lon="-1.55737">
        <ele>29</ele>
        <time>2022-01-20T15:09:22Z</time>
      </trkpt>
      <trkpt lat="47.24238" lon="-1.55735">
        <ele>30</ele>
        <time>2022-01-20T15:09:23Z</time>
      </trkpt>
      <trkpt lat="47.24238" lon="-1.55733">
        <ele>30</ele>
        <time>2022-01-20T15:09:24Z</time>
      </trkpt>
      <trkpt lat="47.24239" lon="-1.55732">
        <ele>30</ele>
        <time>2022-01-20T15:09:25Z</time>
      </trkpt>
      <trkpt lat="47.24239" lon="-1.5573">
        <ele>30</ele>
        <time>2022-01-20T15:09:26Z</time>
      </trkpt>
      <trkpt lat="47.24239" lon="-1.55728">
        <ele>30</ele>
        <time>2022-01-20T15:09:27Z</time>
      </trkpt>
      <trkpt lat="47.24238" lon="-1.55726">
        <ele>31</ele>
        <time>2022-01-20T15:09:28Z</time>
      </trkpt>
      <trkpt lat="47.24238" lon="-1.55724">
        <ele>30</ele>
        <time>2022-01-20T15:09:29Z</time>
      </trkpt>
      <trkpt lat="47.24238" lon="-1.55722">
        <ele>31</ele>
        <time>2022-01-20T15:09:30Z</time>
      </trkpt>
      <trkpt lat="47.24238" lon="-1.55721">
        <ele>31</ele>
        <time>2022-01-20T15:09:31Z</time>
      </trkpt>
      <trkpt lat="47.24239" lon="-1.55719">
        <ele>31</ele>
        <time>2022-01-20T15:09:32Z</time>
      </trkpt>
      <trkpt lat="47.24238" lon="-1.55717">
        <ele>30</ele>
        <time>2022-01-20T15:09:33Z</time>
      </trkpt>
      <trkpt lat="47.24238" lon="-1.55715">
        <ele>30</ele>
        <time>2022-01-20T15:09:34Z</time>
      </trkpt>
      <trkpt lat="47.24238" lon="-1.55713">
        <ele>30</ele>
        <time>2022-01-20T15:09:35Z</time>
      </trkpt>
      <trkpt lat="47.24237" lon="-1.55712">
        <ele>31</ele>
        <time>2022-01-20T15:09:36Z</time>
      </trkpt>
      <trkpt lat="47.24237" lon="-1.5571">
        <ele>30</ele>
        <time>2022-01-20T15:09:37Z</time>
      </trkpt>
      <trkpt lat="47.24237" lon="-1.55708">
        <ele>30</ele>
        <time>2022-01-20T15:09:38Z</time>
      </trkpt>
      <trkpt lat="47.24237" lon="-1.55706">
        <ele>30</ele>
        <time>2022-01-20T15:09:39Z</time>
      </trkpt>
      <trkpt lat="47.24237" lon="-1.55705">
        <ele>30</ele>
        <time>2022-01-20T15:09:40Z</time>
      </trkpt>
      <trkpt lat="47.24237" lon="-1.55702">
        <ele>30</ele>
        <time>2022-01-20T15:09:41Z</time>
      </trkpt>
      <trkpt lat="47.24237" lon="-1.55701">
        <ele>30</ele>
        <time>2022-01-20T15:09:42Z</time>
      </trkpt>
      <trkpt lat="47.24238" lon="-1.55699">
        <ele>30</ele>
        <time>2022-01-20T15:09:43Z</time>
      </trkpt>
      <trkpt lat="47.24238" lon="-1.55698">
        <ele>30</ele>
        <time>2022-01-20T15:09:44Z</time>
      </trkpt>
      <trkpt lat="47.24238" lon="-1.55696">
        <ele>30</ele>
        <time>2022-01-20T15:09:45Z</time>
      </trkpt>
      <trkpt lat="47.24238" lon="-1.55694">
        <ele>30</ele>
        <time>2022-01-20T15:09:46Z</time>
      </trkpt>
      <trkpt lat="47.24238" lon="-1.55693">
        <ele>30</ele>
        <time>2022-01-20T15:09:47Z</time>
      </trkpt>
      <trkpt lat="47.24237" lon="-1.55691">
        <ele>29</ele>
        <time>2022-01-20T15:09:48Z</time>
      </trkpt>
      <trkpt lat="47.24237" lon="-1.55689">
        <ele>29</ele>
        <time>2022-01-20T15:09:49Z</time>
      </trkpt>
      <trkpt lat="47.24237" lon="-1.55687">
        <ele>29</ele>
        <time>2022-01-20T15:09:50Z</time>
      </trkpt>
      <trkpt lat="47.24236" lon="-1.55686">
        <ele>29</ele>
        <time>2022-01-20T15:09:51Z</time>
      </trkpt>
      <trkpt lat="47.24237" lon="-1.55685">
        <ele>29</ele>
        <time>2022-01-20T15:09:52Z</time>
      </trkpt>
      <trkpt lat="47.24236" lon="-1.55685">
        <ele>29</ele>
        <time>2022-01-20T15:09:53Z</time>
      </trkpt>
      <trkpt lat="47.24236" lon="-1.55685">
        <ele>29</ele>
        <time>2022-01-20T15:09:54Z</time>
      </trkpt>
      <trkpt lat="47.24236" lon="-1.55685">
        <ele>29</ele>
        <time>2022-01-20T15:09:55Z</time>
      </trkpt>
      <trkpt lat="47.24235" lon="-1.55681">
        <ele>30</ele>
        <time>2022-01-20T15:09:56Z</time>
      </trkpt>
      <trkpt lat="47.24235" lon="-1.5568">
        <ele>30</ele>
        <time>2022-01-20T15:09:57Z</time>
      </trkpt>
      <trkpt lat="47.24235" lon="-1.55679">
        <ele>30</ele>
        <time>2022-01-20T15:09:58Z</time>
      </trkpt>
      <trkpt lat="47.24235" lon="-1.55677">
        <ele>31</ele>
        <time>2022-01-20T15:09:59Z</time>
      </trkpt>
      <trkpt lat="47.24235" lon="-1.55677">
        <ele>31</ele>
        <time>2022-01-20T15:09:59Z</time>
      </trkpt>
      <trkpt lat="47.24234" lon="-1.55674">
        <ele>30</ele>
        <time>2022-01-20T15:10:01Z</time>
      </trkpt>
      <trkpt lat="47.24234" lon="-1.55672">
        <ele>30</ele>
        <time>2022-01-20T15:10:02Z</time>
      </trkpt>
      <trkpt lat="47.24234" lon="-1.5567">
        <ele>30</ele>
        <time>2022-01-20T15:10:03Z</time>
      </trkpt>
      <trkpt lat="47.24234" lon="-1.55668">
        <ele>30</ele>
        <time>2022-01-20T15:10:04Z</time>
      </trkpt>
      <trkpt lat="47.24234" lon="-1.55666">
        <ele>30</ele>
        <time>2022-01-20T15:10:05Z</time>
      </trkpt>
      <trkpt lat="47.24234" lon="-1.55665">
        <ele>30</ele>
        <time>2022-01-20T15:10:06Z</time>
      </trkpt>
      <trkpt lat="47.24234" lon="-1.55663">
        <ele>30</ele>
        <time>2022-01-20T15:10:07Z</time>
      </trkpt>
      <trkpt lat="47.24234" lon="-1.55662">
        <ele>30</ele>
        <time>2022-01-20T15:10:08Z</time>
      </trkpt>
      <trkpt lat="47.24234" lon="-1.55661">
        <ele>30</ele>
        <time>2022-01-20T15:10:09Z</time>
      </trkpt>
      <trkpt lat="47.24234" lon="-1.55659">
        <ele>30</ele>
        <time>2022-01-20T15:10:10Z</time>
      </trkpt>
      <trkpt lat="47.24234" lon="-1.55657">
        <ele>30</ele>
        <time>2022-01-20T15:10:11Z</time>
      </trkpt>
      <trkpt lat="47.24234" lon="-1.55657">
        <ele>30</ele>
        <time>2022-01-20T15:10:12Z</time>
      </trkpt>
      <trkpt lat="47.24234" lon="-1.55657">
        <ele>30</ele>
        <time>2022-01-20T15:10:13Z</time>
      </trkpt>
      <trkpt lat="47.24234" lon="-1.55654">
        <ele>30</ele>
        <time>2022-01-20T15:10:14Z</time>
      </trkpt>
      <trkpt lat="47.24234" lon="-1.55652">
        <ele>30</ele>
        <time>2022-01-20T15:10:15Z</time>
      </trkpt>
      <trkpt lat="47.24233" lon="-1.55651">
        <ele>30</ele>
        <time>2022-01-20T15:10:16Z</time>
      </trkpt>
      <trkpt lat="47.24232" lon="-1.55649">
        <ele>30</ele>
        <time>2022-01-20T15:10:17Z</time>
      </trkpt>
      <trkpt lat="47.24231" lon="-1.55649">
        <ele>30</ele>
        <time>2022-01-20T15:10:18Z</time>
      </trkpt>
      <trkpt lat="47.2423" lon="-1.55649">
        <ele>30</ele>
        <time>2022-01-20T15:10:19Z</time>
      </trkpt>
      <trkpt lat="47.2423" lon="-1.55649">
        <ele>30</ele>
        <time>2022-01-20T15:10:20Z</time>
      </trkpt>
      <trkpt lat="47.2423" lon="-1.55649">
        <ele>30</ele>
        <time>2022-01-20T15:10:21Z</time>
      </trkpt>
      <trkpt lat="47.24228" lon="-1.55649">
        <ele>32</ele>
        <time>2022-01-20T15:10:22Z</time>
      </trkpt>
      <trkpt lat="47.24226" lon="-1.55649">
        <ele>32</ele>
        <time>2022-01-20T15:10:23Z</time>
      </trkpt>
      <trkpt lat="47.24225" lon="-1.55648">
        <ele>32</ele>
        <time>2022-01-20T15:10:24Z</time>
      </trkpt>
      <trkpt lat="47.24224" lon="-1.55648">
        <ele>33</ele>
        <time>2022-01-20T15:10:25Z</time>
      </trkpt>
      <trkpt lat="47.24223" lon="-1.55647">
        <ele>34</ele>
        <time>2022-01-20T15:10:26Z</time>
      </trkpt>
      <trkpt lat="47.24222" lon="-1.55646">
        <ele>34</ele>
        <time>2022-01-20T15:10:27Z</time>
      </trkpt>
      <trkpt lat="47.24221" lon="-1.55646">
        <ele>35</ele>
        <time>2022-01-20T15:10:28Z</time>
      </trkpt>
      <trkpt lat="47.2422" lon="-1.55646">
        <ele>36</ele>
        <time>2022-01-20T15:10:29Z</time>
      </trkpt>
      <trkpt lat="47.24219" lon="-1.55645">
        <ele>37</ele>
        <time>2022-01-20T15:10:30Z</time>
      </trkpt>
      <trkpt lat="47.24218" lon="-1.55645">
        <ele>37</ele>
        <time>2022-01-20T15:10:31Z</time>
      </trkpt>
      <trkpt lat="47.24217" lon="-1.55645">
        <ele>37</ele>
        <time>2022-01-20T15:10:32Z</time>
      </trkpt>
      <trkpt lat="47.24215" lon="-1.55644">
        <ele>37</ele>
        <time>2022-01-20T15:10:33Z</time>
      </trkpt>
      <trkpt lat="47.24214" lon="-1.55643">
        <ele>37</ele>
        <time>2022-01-20T15:10:34Z</time>
      </trkpt>
      <trkpt lat="47.24213" lon="-1.55641">
        <ele>37</ele>
        <time>2022-01-20T15:10:35Z</time>
      </trkpt>
      <trkpt lat="47.24212" lon="-1.5564">
        <ele>38</ele>
        <time>2022-01-20T15:10:36Z</time>
      </trkpt>
      <trkpt lat="47.24211" lon="-1.55638">
        <ele>38</ele>
        <time>2022-01-20T15:10:37Z</time>
      </trkpt>
      <trkpt lat="47.2421" lon="-1.55637">
        <ele>38</ele>
        <time>2022-01-20T15:10:38Z</time>
      </trkpt>
      <trkpt lat="47.2421" lon="-1.55635">
        <ele>38</ele>
        <time>2022-01-20T15:10:39Z</time>
      </trkpt>
      <trkpt lat="47.2421" lon="-1.55634">
        <ele>38</ele>
        <time>2022-01-20T15:10:40Z</time>
      </trkpt>
      <trkpt lat="47.2421" lon="-1.55632">
        <ele>38</ele>
        <time>2022-01-20T15:10:41Z</time>
      </trkpt>
      <trkpt lat="47.2421" lon="-1.5563">
        <ele>39</ele>
        <time>2022-01-20T15:10:42Z</time>
      </trkpt>
      <trkpt lat="47.2421" lon="-1.55629">
        <ele>39</ele>
        <time>2022-01-20T15:10:43Z</time>
      </trkpt>
      <trkpt lat="47.2421" lon="-1.55627">
        <ele>39</ele>
        <time>2022-01-20T15:10:44Z</time>
      </trkpt>
      <trkpt lat="47.2421" lon="-1.55626">
        <ele>39</ele>
        <time>2022-01-20T15:10:45Z</time>
      </trkpt>
      <trkpt lat="47.2421" lon="-1.55624">
        <ele>39</ele>
        <time>2022-01-20T15:10:46Z</time>
      </trkpt>
      <trkpt lat="47.24211" lon="-1.55623">
        <ele>39</ele>
        <time>2022-01-20T15:10:47Z</time>
      </trkpt>
      <trkpt lat="47.24211" lon="-1.55622">
        <ele>39</ele>
        <time>2022-01-20T15:10:48Z</time>
      </trkpt>
      <trkpt lat="47.24212" lon="-1.55621">
        <ele>39</ele>
        <time>2022-01-20T15:10:49Z</time>
      </trkpt>
      <trkpt lat="47.24213" lon="-1.5562">
        <ele>39</ele>
        <time>2022-01-20T15:10:50Z</time>
      </trkpt>
      <trkpt lat="47.24215" lon="-1.55619">
        <ele>39</ele>
        <time>2022-01-20T15:10:51Z</time>
      </trkpt>
      <trkpt lat="47.24216" lon="-1.55618">
        <ele>39</ele>
        <time>2022-01-20T15:10:52Z</time>
      </trkpt>
      <trkpt lat="47.24217" lon="-1.55617">
        <ele>39</ele>
        <time>2022-01-20T15:10:53Z</time>
      </trkpt>
      <trkpt lat="47.24218" lon="-1.55615">
        <ele>39</ele>
        <time>2022-01-20T15:10:54Z</time>
      </trkpt>
      <trkpt lat="47.24219" lon="-1.55613">
        <ele>39</ele>
        <time>2022-01-20T15:10:55Z</time>
      </trkpt>
      <trkpt lat="47.2422" lon="-1.55611">
        <ele>40</ele>
        <time>2022-01-20T15:10:56Z</time>
      </trkpt>
      <trkpt lat="47.2422" lon="-1.55609">
        <ele>40</ele>
        <time>2022-01-20T15:10:57Z</time>
      </trkpt>
      <trkpt lat="47.2422" lon="-1.55607">
        <ele>40</ele>
        <time>2022-01-20T15:10:58Z</time>
      </trkpt>
      <trkpt lat="47.2422" lon="-1.55604">
        <ele>40</ele>
        <time>2022-01-20T15:10:59Z</time>
      </trkpt>
      <trkpt lat="47.2422" lon="-1.55602">
        <ele>40</ele>
        <time>2022-01-20T15:11:00Z</time>
      </trkpt>
      <trkpt lat="47.2422" lon="-1.55599">
        <ele>40</ele>
        <time>2022-01-20T15:11:01Z</time>
      </trkpt>
      <trkpt lat="47.2422" lon="-1.55597">
        <ele>40</ele>
        <time>2022-01-20T15:11:02Z</time>
      </trkpt>
      <trkpt lat="47.2422" lon="-1.55595">
        <ele>40</ele>
        <time>2022-01-20T15:11:03Z</time>
      </trkpt>
      <trkpt lat="47.24221" lon="-1.55593">
        <ele>39</ele>
        <time>2022-01-20T15:11:04Z</time>
      </trkpt>
      <trkpt lat="47.24221" lon="-1.5559">
        <ele>40</ele>
        <time>2022-01-20T15:11:05Z</time>
      </trkpt>
      <trkpt lat="47.24222" lon="-1.55588">
        <ele>40</ele>
        <time>2022-01-20T15:11:06Z</time>
      </trkpt>
      <trkpt lat="47.24223" lon="-1.55586">
        <ele>39</ele>
        <time>2022-01-20T15:11:07Z</time>
      </trkpt>
      <trkpt lat="47.24223" lon="-1.55584">
        <ele>39</ele>
        <time>2022-01-20T15:11:08Z</time>
      </trkpt>
      <trkpt lat="47.24225" lon="-1.55582">
        <ele>39</ele>
        <time>2022-01-20T15:11:09Z</time>
      </trkpt>
      <trkpt lat="47.24225" lon="-1.5558">
        <ele>39</ele>
        <time>2022-01-20T15:11:10Z</time>
      </trkpt>
      <trkpt lat="47.24226" lon="-1.55579">
        <ele>39</ele>
        <time>2022-01-20T15:11:11Z</time>
      </trkpt>
      <trkpt lat="47.24227" lon="-1.55578">
        <ele>39</ele>
        <time>2022-01-20T15:11:12Z</time>
      </trkpt>
      <trkpt lat="47.24228" lon="-1.55576">
        <ele>39</ele>
        <time>2022-01-20T15:11:13Z</time>
      </trkpt>
      <trkpt lat="47.24226" lon="-1.55574">
        <ele>40</ele>
        <time>2022-01-20T15:11:14Z</time>
      </trkpt>
      <trkpt lat="47.24226" lon="-1.55573">
        <ele>40</ele>
        <time>2022-01-20T15:11:15Z</time>
      </trkpt>
      <trkpt lat="47.24226" lon="-1.55571">
        <ele>39</ele>
        <time>2022-01-20T15:11:16Z</time>
      </trkpt>
      <trkpt lat="47.24226" lon="-1.55568">
        <ele>39</ele>
        <time>2022-01-20T15:11:17Z</time>
      </trkpt>
      <trkpt lat="47.24226" lon="-1.55567">
        <ele>39</ele>
        <time>2022-01-20T15:11:18Z</time>
      </trkpt>
      <trkpt lat="47.24226" lon="-1.55565">
        <ele>40</ele>
        <time>2022-01-20T15:11:19Z</time>
      </trkpt>
      <trkpt lat="47.24226" lon="-1.55563">
        <ele>40</ele>
        <time>2022-01-20T15:11:20Z</time>
      </trkpt>
      <trkpt lat="47.24226" lon="-1.55561">
        <ele>40</ele>
        <time>2022-01-20T15:11:21Z</time>
      </trkpt>
      <trkpt lat="47.24225" lon="-1.55558">
        <ele>40</ele>
        <time>2022-01-20T15:11:22Z</time>
      </trkpt>
      <trkpt lat="47.24225" lon="-1.55556">
        <ele>40</ele>
        <time>2022-01-20T15:11:23Z</time>
      </trkpt>
      <trkpt lat="47.24225" lon="-1.55553">
        <ele>40</ele>
        <time>2022-01-20T15:11:24Z</time>
      </trkpt>
      <trkpt lat="47.24225" lon="-1.55551">
        <ele>40</ele>
        <time>2022-01-20T15:11:25Z</time>
      </trkpt>
      <trkpt lat="47.24225" lon="-1.55549">
        <ele>40</ele>
        <time>2022-01-20T15:11:26Z</time>
      </trkpt>
      <trkpt lat="47.24225" lon="-1.55546">
        <ele>40</ele>
        <time>2022-01-20T15:11:27Z</time>
      </trkpt>
      <trkpt lat="47.24225" lon="-1.55544">
        <ele>40</ele>
        <time>2022-01-20T15:11:28Z</time>
      </trkpt>
      <trkpt lat="47.24225" lon="-1.55542">
        <ele>40</ele>
        <time>2022-01-20T15:11:29Z</time>
      </trkpt>
      <trkpt lat="47.24226" lon="-1.5554">
        <ele>41</ele>
        <time>2022-01-20T15:11:30Z</time>
      </trkpt>
      <trkpt lat="47.24228" lon="-1.55537">
        <ele>41</ele>
        <time>2022-01-20T15:11:31Z</time>
      </trkpt>
      <trkpt lat="47.24229" lon="-1.55535">
        <ele>41</ele>
        <time>2022-01-20T15:11:32Z</time>
      </trkpt>
      <trkpt lat="47.2423" lon="-1.55533">
        <ele>41</ele>
        <time>2022-01-20T15:11:33Z</time>
      </trkpt>
      <trkpt lat="47.24232" lon="-1.55529">
        <ele>41</ele>
        <time>2022-01-20T15:11:35Z</time>
      </trkpt>
      <trkpt lat="47.24233" lon="-1.55528">
        <ele>41</ele>
        <time>2022-01-20T15:11:36Z</time>
      </trkpt>
      <trkpt lat="47.24233" lon="-1.55526">
        <ele>41</ele>
        <time>2022-01-20T15:11:37Z</time>
      </trkpt>
      <trkpt lat="47.24234" lon="-1.55525">
        <ele>41</ele>
        <time>2022-01-20T15:11:38Z</time>
      </trkpt>
      <trkpt lat="47.24234" lon="-1.55523">
        <ele>41</ele>
        <time>2022-01-20T15:11:39Z</time>
      </trkpt>
      <trkpt lat="47.24235" lon="-1.55522">
        <ele>41</ele>
        <time>2022-01-20T15:11:40Z</time>
      </trkpt>
      <trkpt lat="47.24234" lon="-1.5552">
        <ele>41</ele>
        <time>2022-01-20T15:11:41Z</time>
      </trkpt>
      <trkpt lat="47.24234" lon="-1.55518">
        <ele>40</ele>
        <time>2022-01-20T15:11:42Z</time>
      </trkpt>
      <trkpt lat="47.24234" lon="-1.55517">
        <ele>40</ele>
        <time>2022-01-20T15:11:43Z</time>
      </trkpt>
      <trkpt lat="47.24234" lon="-1.55514">
        <ele>40</ele>
        <time>2022-01-20T15:11:44Z</time>
      </trkpt>
      <trkpt lat="47.24234" lon="-1.55513">
        <ele>40</ele>
        <time>2022-01-20T15:11:45Z</time>
      </trkpt>
      <trkpt lat="47.24234" lon="-1.55511">
        <ele>40</ele>
        <time>2022-01-20T15:11:46Z</time>
      </trkpt>
      <trkpt lat="47.24233" lon="-1.55509">
        <ele>40</ele>
        <time>2022-01-20T15:11:47Z</time>
      </trkpt>
      <trkpt lat="47.24234" lon="-1.55508">
        <ele>40</ele>
        <time>2022-01-20T15:11:48Z</time>
      </trkpt>
      <trkpt lat="47.24234" lon="-1.55506">
        <ele>40</ele>
        <time>2022-01-20T15:11:49Z</time>
      </trkpt>
      <trkpt lat="47.24234" lon="-1.55504">
        <ele>40</ele>
        <time>2022-01-20T15:11:50Z</time>
      </trkpt>
      <trkpt lat="47.24233" lon="-1.55502">
        <ele>40</ele>
        <time>2022-01-20T15:11:51Z</time>
      </trkpt>
      <trkpt lat="47.24233" lon="-1.555">
        <ele>40</ele>
        <time>2022-01-20T15:11:52Z</time>
      </trkpt>
      <trkpt lat="47.24233" lon="-1.55498">
        <ele>40</ele>
        <time>2022-01-20T15:11:53Z</time>
      </trkpt>
      <trkpt lat="47.24233" lon="-1.55496">
        <ele>40</ele>
        <time>2022-01-20T15:11:54Z</time>
      </trkpt>
      <trkpt lat="47.24233" lon="-1.55493">
        <ele>40</ele>
        <time>2022-01-20T15:11:55Z</time>
      </trkpt>
      <trkpt lat="47.24233" lon="-1.55492">
        <ele>40</ele>
        <time>2022-01-20T15:11:56Z</time>
      </trkpt>
      <trkpt lat="47.24233" lon="-1.5549">
        <ele>40</ele>
        <time>2022-01-20T15:11:57Z</time>
      </trkpt>
      <trkpt lat="47.24233" lon="-1.55489">
        <ele>40</ele>
        <time>2022-01-20T15:11:58Z</time>
      </trkpt>
      <trkpt lat="47.24232" lon="-1.55488">
        <ele>40</ele>
        <time>2022-01-20T15:11:59Z</time>
      </trkpt>
      <trkpt lat="47.24232" lon="-1.55487">
        <ele>40</ele>
        <time>2022-01-20T15:12:00Z</time>
      </trkpt>
      <trkpt lat="47.24232" lon="-1.55486">
        <ele>40</ele>
        <time>2022-01-20T15:12:01Z</time>
      </trkpt>
      <trkpt lat="47.24232" lon="-1.55484">
        <ele>40</ele>
        <time>2022-01-20T15:12:02Z</time>
      </trkpt>
      <trkpt lat="47.24232" lon="-1.55482">
        <ele>40</ele>
        <time>2022-01-20T15:12:03Z</time>
      </trkpt>
      <trkpt lat="47.24233" lon="-1.5548">
        <ele>40</ele>
        <time>2022-01-20T15:12:04Z</time>
      </trkpt>
      <trkpt lat="47.24233" lon="-1.55478">
        <ele>40</ele>
        <time>2022-01-20T15:12:05Z</time>
      </trkpt>
      <trkpt lat="47.24233" lon="-1.55476">
        <ele>40</ele>
        <time>2022-01-20T15:12:06Z</time>
      </trkpt>
      <trkpt lat="47.24234" lon="-1.55474">
        <ele>40</ele>
        <time>2022-01-20T15:12:07Z</time>
      </trkpt>
      <trkpt lat="47.24235" lon="-1.55473">
        <ele>40</ele>
        <time>2022-01-20T15:12:08Z</time>
      </trkpt>
      <trkpt lat="47.24235" lon="-1.55471">
        <ele>40</ele>
        <time>2022-01-20T15:12:09Z</time>
      </trkpt>
      <trkpt lat="47.24235" lon="-1.55469">
        <ele>40</ele>
        <time>2022-01-20T15:12:10Z</time>
      </trkpt>
      <trkpt lat="47.24236" lon="-1.55468">
        <ele>39</ele>
        <time>2022-01-20T15:12:11Z</time>
      </trkpt>
      <trkpt lat="47.24236" lon="-1.55466">
        <ele>39</ele>
        <time>2022-01-20T15:12:12Z</time>
      </trkpt>
      <trkpt lat="47.24236" lon="-1.55464">
        <ele>39</ele>
        <time>2022-01-20T15:12:13Z</time>
      </trkpt>
      <trkpt lat="47.24236" lon="-1.55462">
        <ele>39</ele>
        <time>2022-01-20T15:12:14Z</time>
      </trkpt>
      <trkpt lat="47.24237" lon="-1.55461">
        <ele>39</ele>
        <time>2022-01-20T15:12:15Z</time>
      </trkpt>
      <trkpt lat="47.24237" lon="-1.55459">
        <ele>39</ele>
        <time>2022-01-20T15:12:16Z</time>
      </trkpt>
      <trkpt lat="47.24237" lon="-1.55457">
        <ele>39</ele>
        <time>2022-01-20T15:12:17Z</time>
      </trkpt>
      <trkpt lat="47.24237" lon="-1.55454">
        <ele>38</ele>
        <time>2022-01-20T15:12:18Z</time>
      </trkpt>
      <trkpt lat="47.24237" lon="-1.55452">
        <ele>38</ele>
        <time>2022-01-20T15:12:19Z</time>
      </trkpt>
      <trkpt lat="47.24238" lon="-1.5545">
        <ele>38</ele>
        <time>2022-01-20T15:12:20Z</time>
      </trkpt>
      <trkpt lat="47.24238" lon="-1.55447">
        <ele>38</ele>
        <time>2022-01-20T15:12:21Z</time>
      </trkpt>
      <trkpt lat="47.24238" lon="-1.55445">
        <ele>37</ele>
        <time>2022-01-20T15:12:22Z</time>
      </trkpt>
      <trkpt lat="47.24239" lon="-1.55443">
        <ele>37</ele>
        <time>2022-01-20T15:12:23Z</time>
      </trkpt>
      <trkpt lat="47.24239" lon="-1.55441">
        <ele>37</ele>
        <time>2022-01-20T15:12:24Z</time>
      </trkpt>
      <trkpt lat="47.24239" lon="-1.55438">
        <ele>38</ele>
        <time>2022-01-20T15:12:25Z</time>
      </trkpt>
      <trkpt lat="47.2424" lon="-1.55436">
        <ele>38</ele>
        <time>2022-01-20T15:12:26Z</time>
      </trkpt>
      <trkpt lat="47.24241" lon="-1.55434">
        <ele>38</ele>
        <time>2022-01-20T15:12:27Z</time>
      </trkpt>
      <trkpt lat="47.24241" lon="-1.55432">
        <ele>38</ele>
        <time>2022-01-20T15:12:28Z</time>
      </trkpt>
      <trkpt lat="47.24242" lon="-1.55431">
        <ele>38</ele>
        <time>2022-01-20T15:12:29Z</time>
      </trkpt>
      <trkpt lat="47.24242" lon="-1.55429">
        <ele>38</ele>
        <time>2022-01-20T15:12:30Z</time>
      </trkpt>
      <trkpt lat="47.24243" lon="-1.55427">
        <ele>38</ele>
        <time>2022-01-20T15:12:31Z</time>
      </trkpt>
      <trkpt lat="47.24244" lon="-1.55425">
        <ele>38</ele>
        <time>2022-01-20T15:12:32Z</time>
      </trkpt>
      <trkpt lat="47.24244" lon="-1.55424">
        <ele>38</ele>
        <time>2022-01-20T15:12:33Z</time>
      </trkpt>
      <trkpt lat="47.24244" lon="-1.55422">
        <ele>38</ele>
        <time>2022-01-20T15:12:34Z</time>
      </trkpt>
      <trkpt lat="47.24245" lon="-1.55421">
        <ele>38</ele>
        <time>2022-01-20T15:12:35Z</time>
      </trkpt>
      <trkpt lat="47.24245" lon="-1.55419">
        <ele>38</ele>
        <time>2022-01-20T15:12:36Z</time>
      </trkpt>
      <trkpt lat="47.24245" lon="-1.55417">
        <ele>38</ele>
        <time>2022-01-20T15:12:37Z</time>
      </trkpt>
      <trkpt lat="47.24245" lon="-1.55416">
        <ele>38</ele>
        <time>2022-01-20T15:12:38Z</time>
      </trkpt>
      <trkpt lat="47.24246" lon="-1.55414">
        <ele>38</ele>
        <time>2022-01-20T15:12:39Z</time>
      </trkpt>
      <trkpt lat="47.24246" lon="-1.55412">
        <ele>38</ele>
        <time>2022-01-20T15:12:40Z</time>
      </trkpt>
      <trkpt lat="47.24247" lon="-1.55409">
        <ele>38</ele>
        <time>2022-01-20T15:12:41Z</time>
      </trkpt>
      <trkpt lat="47.24247" lon="-1.55407">
        <ele>38</ele>
        <time>2022-01-20T15:12:42Z</time>
      </trkpt>
      <trkpt lat="47.24247" lon="-1.55405">
        <ele>38</ele>
        <time>2022-01-20T15:12:43Z</time>
      </trkpt>
      <trkpt lat="47.24247" lon="-1.55403">
        <ele>38</ele>
        <time>2022-01-20T15:12:44Z</time>
      </trkpt>
      <trkpt lat="47.24248" lon="-1.55401">
        <ele>38</ele>
        <time>2022-01-20T15:12:45Z</time>
      </trkpt>
      <trkpt lat="47.24248" lon="-1.55399">
        <ele>38</ele>
        <time>2022-01-20T15:12:46Z</time>
      </trkpt>
      <trkpt lat="47.24249" lon="-1.55397">
        <ele>38</ele>
        <time>2022-01-20T15:12:47Z</time>
      </trkpt>
      <trkpt lat="47.24249" lon="-1.55395">
        <ele>38</ele>
        <time>2022-01-20T15:12:48Z</time>
      </trkpt>
      <trkpt lat="47.2425" lon="-1.55393">
        <ele>38</ele>
        <time>2022-01-20T15:12:49Z</time>
      </trkpt>
      <trkpt lat="47.2425" lon="-1.55391">
        <ele>39</ele>
        <time>2022-01-20T15:12:50Z</time>
      </trkpt>
      <trkpt lat="47.24252" lon="-1.55389">
        <ele>39</ele>
        <time>2022-01-20T15:12:51Z</time>
      </trkpt>
      <trkpt lat="47.24252" lon="-1.55387">
        <ele>38</ele>
        <time>2022-01-20T15:12:52Z</time>
      </trkpt>
      <trkpt lat="47.24253" lon="-1.55385">
        <ele>38</ele>
        <time>2022-01-20T15:12:53Z</time>
      </trkpt>
      <trkpt lat="47.24254" lon="-1.55383">
        <ele>38</ele>
        <time>2022-01-20T15:12:54Z</time>
      </trkpt>
      <trkpt lat="47.24254" lon="-1.55382">
        <ele>38</ele>
        <time>2022-01-20T15:12:55Z</time>
      </trkpt>
      <trkpt lat="47.24255" lon="-1.5538">
        <ele>37</ele>
        <time>2022-01-20T15:12:56Z</time>
      </trkpt>
      <trkpt lat="47.24256" lon="-1.55379">
        <ele>38</ele>
        <time>2022-01-20T15:12:57Z</time>
      </trkpt>
      <trkpt lat="47.24257" lon="-1.55377">
        <ele>38</ele>
        <time>2022-01-20T15:12:58Z</time>
      </trkpt>
      <trkpt lat="47.24258" lon="-1.55376">
        <ele>38</ele>
        <time>2022-01-20T15:12:59Z</time>
      </trkpt>
      <trkpt lat="47.24259" lon="-1.55376">
        <ele>38</ele>
        <time>2022-01-20T15:13:00Z</time>
      </trkpt>
      <trkpt lat="47.2426" lon="-1.55375">
        <ele>38</ele>
        <time>2022-01-20T15:13:01Z</time>
      </trkpt>
      <trkpt lat="47.24261" lon="-1.55375">
        <ele>39</ele>
        <time>2022-01-20T15:13:02Z</time>
      </trkpt>
      <trkpt lat="47.24262" lon="-1.55375">
        <ele>39</ele>
        <time>2022-01-20T15:13:03Z</time>
      </trkpt>
      <trkpt lat="47.24262" lon="-1.55374">
        <ele>39</ele>
        <time>2022-01-20T15:13:04Z</time>
      </trkpt>
      <trkpt lat="47.24262" lon="-1.55374">
        <ele>39</ele>
        <time>2022-01-20T15:13:05Z</time>
      </trkpt>
      <trkpt lat="47.24262" lon="-1.55374">
        <ele>39</ele>
        <time>2022-01-20T15:13:06Z</time>
      </trkpt>
      <trkpt lat="47.24264" lon="-1.55373">
        <ele>38</ele>
        <time>2022-01-20T15:13:07Z</time>
      </trkpt>
      <trkpt lat="47.24265" lon="-1.55373">
        <ele>38</ele>
        <time>2022-01-20T15:13:08Z</time>
      </trkpt>
      <trkpt lat="47.24265" lon="-1.55372">
        <ele>38</ele>
        <time>2022-01-20T15:13:09Z</time>
      </trkpt>
      <trkpt lat="47.24266" lon="-1.55372">
        <ele>38</ele>
        <time>2022-01-20T15:13:10Z</time>
      </trkpt>
      <trkpt lat="47.24266" lon="-1.55373">
        <ele>39</ele>
        <time>2022-01-20T15:13:11Z</time>
      </trkpt>
      <trkpt lat="47.24268" lon="-1.55372">
        <ele>39</ele>
        <time>2022-01-20T15:13:12Z</time>
      </trkpt>
      <trkpt lat="47.24269" lon="-1.55372">
        <ele>39</ele>
        <time>2022-01-20T15:13:13Z</time>
      </trkpt>
      <trkpt lat="47.24271" lon="-1.55371">
        <ele>39</ele>
        <time>2022-01-20T15:13:14Z</time>
      </trkpt>
      <trkpt lat="47.24272" lon="-1.55371">
        <ele>39</ele>
        <time>2022-01-20T15:13:15Z</time>
      </trkpt>
      <trkpt lat="47.24274" lon="-1.55371">
        <ele>39</ele>
        <time>2022-01-20T15:13:16Z</time>
      </trkpt>
      <trkpt lat="47.24275" lon="-1.55371">
        <ele>39</ele>
        <time>2022-01-20T15:13:17Z</time>
      </trkpt>
      <trkpt lat="47.24276" lon="-1.55372">
        <ele>39</ele>
        <time>2022-01-20T15:13:18Z</time>
      </trkpt>
      <trkpt lat="47.24278" lon="-1.55373">
        <ele>39</ele>
        <time>2022-01-20T15:13:19Z</time>
      </trkpt>
      <trkpt lat="47.24279" lon="-1.55373">
        <ele>39</ele>
        <time>2022-01-20T15:13:20Z</time>
      </trkpt>
      <trkpt lat="47.2428" lon="-1.55373">
        <ele>39</ele>
        <time>2022-01-20T15:13:21Z</time>
      </trkpt>
      <trkpt lat="47.24281" lon="-1.55373">
        <ele>39</ele>
        <time>2022-01-20T15:13:22Z</time>
      </trkpt>
      <trkpt lat="47.24283" lon="-1.55373">
        <ele>39</ele>
        <time>2022-01-20T15:13:23Z</time>
      </trkpt>
      <trkpt lat="47.24283" lon="-1.55373">
        <ele>39</ele>
        <time>2022-01-20T15:13:24Z</time>
      </trkpt>
      <trkpt lat="47.24284" lon="-1.55373">
        <ele>39</ele>
        <time>2022-01-20T15:13:25Z</time>
      </trkpt>
      <trkpt lat="47.24285" lon="-1.55372">
        <ele>39</ele>
        <time>2022-01-20T15:13:26Z</time>
      </trkpt>
      <trkpt lat="47.24286" lon="-1.5537">
        <ele>39</ele>
        <time>2022-01-20T15:13:27Z</time>
      </trkpt>
      <trkpt lat="47.24286" lon="-1.55369">
        <ele>40</ele>
        <time>2022-01-20T15:13:28Z</time>
      </trkpt>
      <trkpt lat="47.24287" lon="-1.55367">
        <ele>40</ele>
        <time>2022-01-20T15:13:29Z</time>
      </trkpt>
      <trkpt lat="47.24287" lon="-1.55366">
        <ele>40</ele>
        <time>2022-01-20T15:13:30Z</time>
      </trkpt>
      <trkpt lat="47.24287" lon="-1.55365">
        <ele>40</ele>
        <time>2022-01-20T15:13:31Z</time>
      </trkpt>
      <trkpt lat="47.24288" lon="-1.55363">
        <ele>40</ele>
        <time>2022-01-20T15:13:32Z</time>
      </trkpt>
      <trkpt lat="47.24288" lon="-1.55361">
        <ele>40</ele>
        <time>2022-01-20T15:13:33Z</time>
      </trkpt>
      <trkpt lat="47.24289" lon="-1.55359">
        <ele>40</ele>
        <time>2022-01-20T15:13:34Z</time>
      </trkpt>
      <trkpt lat="47.24289" lon="-1.55357">
        <ele>40</ele>
        <time>2022-01-20T15:13:35Z</time>
      </trkpt>
      <trkpt lat="47.2429" lon="-1.55355">
        <ele>40</ele>
        <time>2022-01-20T15:13:36Z</time>
      </trkpt>
      <trkpt lat="47.2429" lon="-1.55354">
        <ele>40</ele>
        <time>2022-01-20T15:13:37Z</time>
      </trkpt>
      <trkpt lat="47.24291" lon="-1.55352">
        <ele>40</ele>
        <time>2022-01-20T15:13:38Z</time>
      </trkpt>
      <trkpt lat="47.24292" lon="-1.5535">
        <ele>40</ele>
        <time>2022-01-20T15:13:39Z</time>
      </trkpt>
      <trkpt lat="47.24293" lon="-1.55348">
        <ele>40</ele>
        <time>2022-01-20T15:13:40Z</time>
      </trkpt>
      <trkpt lat="47.24294" lon="-1.55347">
        <ele>40</ele>
        <time>2022-01-20T15:13:41Z</time>
      </trkpt>
      <trkpt lat="47.24295" lon="-1.55345">
        <ele>40</ele>
        <time>2022-01-20T15:13:42Z</time>
      </trkpt>
      <trkpt lat="47.24296" lon="-1.55343">
        <ele>40</ele>
        <time>2022-01-20T15:13:43Z</time>
      </trkpt>
      <trkpt lat="47.24297" lon="-1.55341">
        <ele>39</ele>
        <time>2022-01-20T15:13:44Z</time>
      </trkpt>
      <trkpt lat="47.24298" lon="-1.5534">
        <ele>39</ele>
        <time>2022-01-20T15:13:45Z</time>
      </trkpt>
      <trkpt lat="47.24299" lon="-1.55338">
        <ele>39</ele>
        <time>2022-01-20T15:13:46Z</time>
      </trkpt>
      <trkpt lat="47.243" lon="-1.55337">
        <ele>39</ele>
        <time>2022-01-20T15:13:47Z</time>
      </trkpt>
      <trkpt lat="47.24301" lon="-1.55335">
        <ele>39</ele>
        <time>2022-01-20T15:13:48Z</time>
      </trkpt>
      <trkpt lat="47.24302" lon="-1.55334">
        <ele>39</ele>
        <time>2022-01-20T15:13:49Z</time>
      </trkpt>
      <trkpt lat="47.24303" lon="-1.55332">
        <ele>39</ele>
        <time>2022-01-20T15:13:50Z</time>
      </trkpt>
      <trkpt lat="47.24303" lon="-1.5533">
        <ele>40</ele>
        <time>2022-01-20T15:13:51Z</time>
      </trkpt>
      <trkpt lat="47.24304" lon="-1.55328">
        <ele>40</ele>
        <time>2022-01-20T15:13:52Z</time>
      </trkpt>
      <trkpt lat="47.24305" lon="-1.55326">
        <ele>40</ele>
        <time>2022-01-20T15:13:53Z</time>
      </trkpt>
      <trkpt lat="47.24306" lon="-1.55324">
        <ele>40</ele>
        <time>2022-01-20T15:13:54Z</time>
      </trkpt>
      <trkpt lat="47.24307" lon="-1.55322">
        <ele>40</ele>
        <time>2022-01-20T15:13:55Z</time>
      </trkpt>
      <trkpt lat="47.24307" lon="-1.5532">
        <ele>40</ele>
        <time>2022-01-20T15:13:56Z</time>
      </trkpt>
      <trkpt lat="47.24308" lon="-1.55318">
        <ele>40</ele>
        <time>2022-01-20T15:13:57Z</time>
      </trkpt>
      <trkpt lat="47.24308" lon="-1.55317">
        <ele>40</ele>
        <time>2022-01-20T15:13:58Z</time>
      </trkpt>
      <trkpt lat="47.24309" lon="-1.55315">
        <ele>40</ele>
        <time>2022-01-20T15:13:59Z</time>
      </trkpt>
      <trkpt lat="47.2431" lon="-1.55314">
        <ele>40</ele>
        <time>2022-01-20T15:14:00Z</time>
      </trkpt>
      <trkpt lat="47.2431" lon="-1.55312">
        <ele>40</ele>
        <time>2022-01-20T15:14:01Z</time>
      </trkpt>
      <trkpt lat="47.24311" lon="-1.5531">
        <ele>40</ele>
        <time>2022-01-20T15:14:02Z</time>
      </trkpt>
      <trkpt lat="47.24311" lon="-1.55309">
        <ele>40</ele>
        <time>2022-01-20T15:14:03Z</time>
      </trkpt>
      <trkpt lat="47.24311" lon="-1.55307">
        <ele>40</ele>
        <time>2022-01-20T15:14:04Z</time>
      </trkpt>
      <trkpt lat="47.24312" lon="-1.55304">
        <ele>40</ele>
        <time>2022-01-20T15:14:05Z</time>
      </trkpt>
      <trkpt lat="47.24313" lon="-1.55302">
        <ele>40</ele>
        <time>2022-01-20T15:14:06Z</time>
      </trkpt>
      <trkpt lat="47.24313" lon="-1.55301">
        <ele>41</ele>
        <time>2022-01-20T15:14:07Z</time>
      </trkpt>
      <trkpt lat="47.24314" lon="-1.55299">
        <ele>40</ele>
        <time>2022-01-20T15:14:08Z</time>
      </trkpt>
      <trkpt lat="47.24314" lon="-1.55297">
        <ele>41</ele>
        <time>2022-01-20T15:14:09Z</time>
      </trkpt>
      <trkpt lat="47.24315" lon="-1.55295">
        <ele>41</ele>
        <time>2022-01-20T15:14:10Z</time>
      </trkpt>
      <trkpt lat="47.24316" lon="-1.55293">
        <ele>41</ele>
        <time>2022-01-20T15:14:11Z</time>
      </trkpt>
      <trkpt lat="47.24316" lon="-1.55291">
        <ele>40</ele>
        <time>2022-01-20T15:14:12Z</time>
      </trkpt>
      <trkpt lat="47.24317" lon="-1.55289">
        <ele>40</ele>
        <time>2022-01-20T15:14:13Z</time>
      </trkpt>
      <trkpt lat="47.24317" lon="-1.55287">
        <ele>40</ele>
        <time>2022-01-20T15:14:14Z</time>
      </trkpt>
      <trkpt lat="47.24318" lon="-1.55285">
        <ele>40</ele>
        <time>2022-01-20T15:14:15Z</time>
      </trkpt>
      <trkpt lat="47.24318" lon="-1.55284">
        <ele>40</ele>
        <time>2022-01-20T15:14:16Z</time>
      </trkpt>
      <trkpt lat="47.24318" lon="-1.55282">
        <ele>40</ele>
        <time>2022-01-20T15:14:17Z</time>
      </trkpt>
      <trkpt lat="47.24319" lon="-1.5528">
        <ele>40</ele>
        <time>2022-01-20T15:14:18Z</time>
      </trkpt>
      <trkpt lat="47.2432" lon="-1.55277">
        <ele>40</ele>
        <time>2022-01-20T15:14:19Z</time>
      </trkpt>
      <trkpt lat="47.2432" lon="-1.55276">
        <ele>40</ele>
        <time>2022-01-20T15:14:20Z</time>
      </trkpt>
      <trkpt lat="47.2432" lon="-1.55274">
        <ele>40</ele>
        <time>2022-01-20T15:14:21Z</time>
      </trkpt>
      <trkpt lat="47.2432" lon="-1.55272">
        <ele>41</ele>
        <time>2022-01-20T15:14:22Z</time>
      </trkpt>
      <trkpt lat="47.2432" lon="-1.5527">
        <ele>41</ele>
        <time>2022-01-20T15:14:23Z</time>
      </trkpt>
      <trkpt lat="47.24321" lon="-1.55268">
        <ele>41</ele>
        <time>2022-01-20T15:14:24Z</time>
      </trkpt>
      <trkpt lat="47.24321" lon="-1.55266">
        <ele>41</ele>
        <time>2022-01-20T15:14:25Z</time>
      </trkpt>
      <trkpt lat="47.24321" lon="-1.55264">
        <ele>41</ele>
        <time>2022-01-20T15:14:26Z</time>
      </trkpt>
      <trkpt lat="47.24322" lon="-1.55262">
        <ele>41</ele>
        <time>2022-01-20T15:14:27Z</time>
      </trkpt>
      <trkpt lat="47.24322" lon="-1.5526">
        <ele>41</ele>
        <time>2022-01-20T15:14:28Z</time>
      </trkpt>
      <trkpt lat="47.24322" lon="-1.55259">
        <ele>41</ele>
        <time>2022-01-20T15:14:29Z</time>
      </trkpt>
      <trkpt lat="47.24323" lon="-1.55257">
        <ele>42</ele>
        <time>2022-01-20T15:14:30Z</time>
      </trkpt>
      <trkpt lat="47.24323" lon="-1.55255">
        <ele>42</ele>
        <time>2022-01-20T15:14:31Z</time>
      </trkpt>
      <trkpt lat="47.24323" lon="-1.55253">
        <ele>42</ele>
        <time>2022-01-20T15:14:32Z</time>
      </trkpt>
      <trkpt lat="47.24323" lon="-1.55251">
        <ele>42</ele>
        <time>2022-01-20T15:14:33Z</time>
      </trkpt>
      <trkpt lat="47.24323" lon="-1.55249">
        <ele>42</ele>
        <time>2022-01-20T15:14:34Z</time>
      </trkpt>
      <trkpt lat="47.24323" lon="-1.55247">
        <ele>42</ele>
        <time>2022-01-20T15:14:35Z</time>
      </trkpt>
      <trkpt lat="47.24324" lon="-1.55245">
        <ele>42</ele>
        <time>2022-01-20T15:14:36Z</time>
      </trkpt>
      <trkpt lat="47.24324" lon="-1.55243">
        <ele>42</ele>
        <time>2022-01-20T15:14:37Z</time>
      </trkpt>
      <trkpt lat="47.24324" lon="-1.55242">
        <ele>42</ele>
        <time>2022-01-20T15:14:38Z</time>
      </trkpt>
      <trkpt lat="47.24324" lon="-1.55241">
        <ele>42</ele>
        <time>2022-01-20T15:14:39Z</time>
      </trkpt>
      <trkpt lat="47.24324" lon="-1.55239">
        <ele>42</ele>
        <time>2022-01-20T15:14:40Z</time>
      </trkpt>
      <trkpt lat="47.24324" lon="-1.55236">
        <ele>41</ele>
        <time>2022-01-20T15:14:41Z</time>
      </trkpt>
      <trkpt lat="47.24325" lon="-1.55235">
        <ele>42</ele>
        <time>2022-01-20T15:14:42Z</time>
      </trkpt>
      <trkpt lat="47.24325" lon="-1.55233">
        <ele>42</ele>
        <time>2022-01-20T15:14:43Z</time>
      </trkpt>
      <trkpt lat="47.24325" lon="-1.55231">
        <ele>42</ele>
        <time>2022-01-20T15:14:44Z</time>
      </trkpt>
      <trkpt lat="47.24325" lon="-1.5523">
        <ele>41</ele>
        <time>2022-01-20T15:14:45Z</time>
      </trkpt>
      <trkpt lat="47.24326" lon="-1.55228">
        <ele>41</ele>
        <time>2022-01-20T15:14:46Z</time>
      </trkpt>
      <trkpt lat="47.24326" lon="-1.55226">
        <ele>41</ele>
        <time>2022-01-20T15:14:47Z</time>
      </trkpt>
      <trkpt lat="47.24326" lon="-1.55224">
        <ele>41</ele>
        <time>2022-01-20T15:14:48Z</time>
      </trkpt>
      <trkpt lat="47.24327" lon="-1.55222">
        <ele>41</ele>
        <time>2022-01-20T15:14:49Z</time>
      </trkpt>
      <trkpt lat="47.24327" lon="-1.5522">
        <ele>41</ele>
        <time>2022-01-20T15:14:50Z</time>
      </trkpt>
      <trkpt lat="47.24328" lon="-1.55218">
        <ele>42</ele>
        <time>2022-01-20T15:14:51Z</time>
      </trkpt>
      <trkpt lat="47.24328" lon="-1.55217">
        <ele>41</ele>
        <time>2022-01-20T15:14:52Z</time>
      </trkpt>
      <trkpt lat="47.24328" lon="-1.55215">
        <ele>41</ele>
        <time>2022-01-20T15:14:53Z</time>
      </trkpt>
      <trkpt lat="47.24329" lon="-1.55213">
        <ele>42</ele>
        <time>2022-01-20T15:14:54Z</time>
      </trkpt>
      <trkpt lat="47.24329" lon="-1.55212">
        <ele>42</ele>
        <time>2022-01-20T15:14:55Z</time>
      </trkpt>
      <trkpt lat="47.2433" lon="-1.5521">
        <ele>42</ele>
        <time>2022-01-20T15:14:56Z</time>
      </trkpt>
      <trkpt lat="47.2433" lon="-1.55209">
        <ele>42</ele>
        <time>2022-01-20T15:14:57Z</time>
      </trkpt>
      <trkpt lat="47.24331" lon="-1.55207">
        <ele>42</ele>
        <time>2022-01-20T15:14:58Z</time>
      </trkpt>
      <trkpt lat="47.24331" lon="-1.55206">
        <ele>41</ele>
        <time>2022-01-20T15:14:59Z</time>
      </trkpt>
      <trkpt lat="47.24332" lon="-1.55205">
        <ele>41</ele>
        <time>2022-01-20T15:15:00Z</time>
      </trkpt>
      <trkpt lat="47.24332" lon="-1.55203">
        <ele>41</ele>
        <time>2022-01-20T15:15:01Z</time>
      </trkpt>
      <trkpt lat="47.24332" lon="-1.55201">
        <ele>41</ele>
        <time>2022-01-20T15:15:02Z</time>
      </trkpt>
      <trkpt lat="47.24332" lon="-1.552">
        <ele>41</ele>
        <time>2022-01-20T15:15:03Z</time>
      </trkpt>
      <trkpt lat="47.24332" lon="-1.55198">
        <ele>41</ele>
        <time>2022-01-20T15:15:04Z</time>
      </trkpt>
      <trkpt lat="47.24333" lon="-1.55195">
        <ele>41</ele>
        <time>2022-01-20T15:15:05Z</time>
      </trkpt>
      <trkpt lat="47.24334" lon="-1.55194">
        <ele>41</ele>
        <time>2022-01-20T15:15:06Z</time>
      </trkpt>
      <trkpt lat="47.24334" lon="-1.55192">
        <ele>41</ele>
        <time>2022-01-20T15:15:07Z</time>
      </trkpt>
      <trkpt lat="47.24334" lon="-1.5519">
        <ele>40</ele>
        <time>2022-01-20T15:15:08Z</time>
      </trkpt>
      <trkpt lat="47.24335" lon="-1.55188">
        <ele>40</ele>
        <time>2022-01-20T15:15:09Z</time>
      </trkpt>
      <trkpt lat="47.24335" lon="-1.55186">
        <ele>40</ele>
        <time>2022-01-20T15:15:10Z</time>
      </trkpt>
      <trkpt lat="47.24335" lon="-1.55184">
        <ele>40</ele>
        <time>2022-01-20T15:15:11Z</time>
      </trkpt>
      <trkpt lat="47.24336" lon="-1.55182">
        <ele>40</ele>
        <time>2022-01-20T15:15:12Z</time>
      </trkpt>
      <trkpt lat="47.24336" lon="-1.5518">
        <ele>41</ele>
        <time>2022-01-20T15:15:13Z</time>
      </trkpt>
      <trkpt lat="47.24336" lon="-1.55179">
        <ele>41</ele>
        <time>2022-01-20T15:15:14Z</time>
      </trkpt>
      <trkpt lat="47.24337" lon="-1.55178">
        <ele>41</ele>
        <time>2022-01-20T15:15:15Z</time>
      </trkpt>
      <trkpt lat="47.24337" lon="-1.55176">
        <ele>40</ele>
        <time>2022-01-20T15:15:16Z</time>
      </trkpt>
      <trkpt lat="47.24338" lon="-1.55174">
        <ele>40</ele>
        <time>2022-01-20T15:15:17Z</time>
      </trkpt>
      <trkpt lat="47.24339" lon="-1.55172">
        <ele>40</ele>
        <time>2022-01-20T15:15:18Z</time>
      </trkpt>
      <trkpt lat="47.24339" lon="-1.5517">
        <ele>40</ele>
        <time>2022-01-20T15:15:19Z</time>
      </trkpt>
      <trkpt lat="47.2434" lon="-1.55169">
        <ele>41</ele>
        <time>2022-01-20T15:15:20Z</time>
      </trkpt>
      <trkpt lat="47.2434" lon="-1.55167">
        <ele>41</ele>
        <time>2022-01-20T15:15:21Z</time>
      </trkpt>
      <trkpt lat="47.24341" lon="-1.55166">
        <ele>41</ele>
        <time>2022-01-20T15:15:22Z</time>
      </trkpt>
      <trkpt lat="47.24341" lon="-1.55164">
        <ele>40</ele>
        <time>2022-01-20T15:15:23Z</time>
      </trkpt>
      <trkpt lat="47.24342" lon="-1.55162">
        <ele>41</ele>
        <time>2022-01-20T15:15:24Z</time>
      </trkpt>
      <trkpt lat="47.24342" lon="-1.5516">
        <ele>41</ele>
        <time>2022-01-20T15:15:25Z</time>
      </trkpt>
      <trkpt lat="47.24343" lon="-1.55159">
        <ele>41</ele>
        <time>2022-01-20T15:15:26Z</time>
      </trkpt>
      <trkpt lat="47.24343" lon="-1.55157">
        <ele>41</ele>
        <time>2022-01-20T15:15:27Z</time>
      </trkpt>
      <trkpt lat="47.24344" lon="-1.55155">
        <ele>41</ele>
        <time>2022-01-20T15:15:28Z</time>
      </trkpt>
      <trkpt lat="47.24344" lon="-1.55154">
        <ele>41</ele>
        <time>2022-01-20T15:15:29Z</time>
      </trkpt>
      <trkpt lat="47.24345" lon="-1.55153">
        <ele>41</ele>
        <time>2022-01-20T15:15:30Z</time>
      </trkpt>
      <trkpt lat="47.24345" lon="-1.55151">
        <ele>40</ele>
        <time>2022-01-20T15:15:31Z</time>
      </trkpt>
      <trkpt lat="47.24346" lon="-1.5515">
        <ele>40</ele>
        <time>2022-01-20T15:15:32Z</time>
      </trkpt>
      <trkpt lat="47.24347" lon="-1.55148">
        <ele>40</ele>
        <time>2022-01-20T15:15:33Z</time>
      </trkpt>
      <trkpt lat="47.24348" lon="-1.55147">
        <ele>40</ele>
        <time>2022-01-20T15:15:34Z</time>
      </trkpt>
      <trkpt lat="47.24348" lon="-1.55146">
        <ele>40</ele>
        <time>2022-01-20T15:15:35Z</time>
      </trkpt>
      <trkpt lat="47.24349" lon="-1.55144">
        <ele>40</ele>
        <time>2022-01-20T15:15:36Z</time>
      </trkpt>
      <trkpt lat="47.24349" lon="-1.55142">
        <ele>40</ele>
        <time>2022-01-20T15:15:37Z</time>
      </trkpt>
      <trkpt lat="47.24348" lon="-1.5514">
        <ele>40</ele>
        <time>2022-01-20T15:15:38Z</time>
      </trkpt>
      <trkpt lat="47.24348" lon="-1.55138">
        <ele>40</ele>
        <time>2022-01-20T15:15:39Z</time>
      </trkpt>
      <trkpt lat="47.24348" lon="-1.55137">
        <ele>40</ele>
        <time>2022-01-20T15:15:40Z</time>
      </trkpt>
      <trkpt lat="47.24348" lon="-1.55135">
        <ele>40</ele>
        <time>2022-01-20T15:15:41Z</time>
      </trkpt>
      <trkpt lat="47.24348" lon="-1.55133">
        <ele>40</ele>
        <time>2022-01-20T15:15:42Z</time>
      </trkpt>
      <trkpt lat="47.24349" lon="-1.55131">
        <ele>39</ele>
        <time>2022-01-20T15:15:43Z</time>
      </trkpt>
      <trkpt lat="47.24349" lon="-1.55129">
        <ele>39</ele>
        <time>2022-01-20T15:15:44Z</time>
      </trkpt>
      <trkpt lat="47.24349" lon="-1.55127">
        <ele>39</ele>
        <time>2022-01-20T15:15:45Z</time>
      </trkpt>
      <trkpt lat="47.24349" lon="-1.55126">
        <ele>39</ele>
        <time>2022-01-20T15:15:46Z</time>
      </trkpt>
      <trkpt lat="47.2435" lon="-1.55124">
        <ele>39</ele>
        <time>2022-01-20T15:15:47Z</time>
      </trkpt>
      <trkpt lat="47.2435" lon="-1.55122">
        <ele>38</ele>
        <time>2022-01-20T15:15:48Z</time>
      </trkpt>
      <trkpt lat="47.2435" lon="-1.5512">
        <ele>38</ele>
        <time>2022-01-20T15:15:49Z</time>
      </trkpt>
      <trkpt lat="47.2435" lon="-1.55118">
        <ele>38</ele>
        <time>2022-01-20T15:15:50Z</time>
      </trkpt>
      <trkpt lat="47.2435" lon="-1.55117">
        <ele>38</ele>
        <time>2022-01-20T15:15:51Z</time>
      </trkpt>
      <trkpt lat="47.2435" lon="-1.55115">
        <ele>38</ele>
        <time>2022-01-20T15:15:52Z</time>
      </trkpt>
      <trkpt lat="47.24351" lon="-1.55114">
        <ele>38</ele>
        <time>2022-01-20T15:15:53Z</time>
      </trkpt>
      <trkpt lat="47.24351" lon="-1.55113">
        <ele>38</ele>
        <time>2022-01-20T15:15:54Z</time>
      </trkpt>
      <trkpt lat="47.24352" lon="-1.55112">
        <ele>38</ele>
        <time>2022-01-20T15:15:55Z</time>
      </trkpt>
      <trkpt lat="47.24352" lon="-1.55111">
        <ele>38</ele>
        <time>2022-01-20T15:15:56Z</time>
      </trkpt>
      <trkpt lat="47.24353" lon="-1.5511">
        <ele>38</ele>
        <time>2022-01-20T15:15:57Z</time>
      </trkpt>
      <trkpt lat="47.24353" lon="-1.55108">
        <ele>38</ele>
        <time>2022-01-20T15:15:58Z</time>
      </trkpt>
      <trkpt lat="47.24353" lon="-1.55107">
        <ele>38</ele>
        <time>2022-01-20T15:15:59Z</time>
      </trkpt>
      <trkpt lat="47.24352" lon="-1.55105">
        <ele>38</ele>
        <time>2022-01-20T15:16:00Z</time>
      </trkpt>
      <trkpt lat="47.24352" lon="-1.55102">
        <ele>38</ele>
        <time>2022-01-20T15:16:01Z</time>
      </trkpt>
      <trkpt lat="47.24352" lon="-1.55101">
        <ele>39</ele>
        <time>2022-01-20T15:16:02Z</time>
      </trkpt>
      <trkpt lat="47.24352" lon="-1.55098">
        <ele>39</ele>
        <time>2022-01-20T15:16:03Z</time>
      </trkpt>
      <trkpt lat="47.24353" lon="-1.55096">
        <ele>39</ele>
        <time>2022-01-20T15:16:04Z</time>
      </trkpt>
      <trkpt lat="47.24353" lon="-1.55094">
        <ele>39</ele>
        <time>2022-01-20T15:16:05Z</time>
      </trkpt>
      <trkpt lat="47.24353" lon="-1.55092">
        <ele>39</ele>
        <time>2022-01-20T15:16:06Z</time>
      </trkpt>
      <trkpt lat="47.24353" lon="-1.5509">
        <ele>39</ele>
        <time>2022-01-20T15:16:07Z</time>
      </trkpt>
      <trkpt lat="47.24353" lon="-1.55088">
        <ele>39</ele>
        <time>2022-01-20T15:16:08Z</time>
      </trkpt>
      <trkpt lat="47.24353" lon="-1.55086">
        <ele>39</ele>
        <time>2022-01-20T15:16:09Z</time>
      </trkpt>
      <trkpt lat="47.24354" lon="-1.55084">
        <ele>39</ele>
        <time>2022-01-20T15:16:10Z</time>
      </trkpt>
      <trkpt lat="47.24354" lon="-1.55082">
        <ele>39</ele>
        <time>2022-01-20T15:16:11Z</time>
      </trkpt>
      <trkpt lat="47.24355" lon="-1.5508">
        <ele>39</ele>
        <time>2022-01-20T15:16:12Z</time>
      </trkpt>
      <trkpt lat="47.24355" lon="-1.55078">
        <ele>38</ele>
        <time>2022-01-20T15:16:13Z</time>
      </trkpt>
      <trkpt lat="47.24355" lon="-1.55077">
        <ele>38</ele>
        <time>2022-01-20T15:16:14Z</time>
      </trkpt>
      <trkpt lat="47.24356" lon="-1.55075">
        <ele>37</ele>
        <time>2022-01-20T15:16:15Z</time>
      </trkpt>
      <trkpt lat="47.24356" lon="-1.55073">
        <ele>37</ele>
        <time>2022-01-20T15:16:16Z</time>
      </trkpt>
      <trkpt lat="47.24356" lon="-1.5507">
        <ele>37</ele>
        <time>2022-01-20T15:16:17Z</time>
      </trkpt>
      <trkpt lat="47.24356" lon="-1.55068">
        <ele>37</ele>
        <time>2022-01-20T15:16:18Z</time>
      </trkpt>
      <trkpt lat="47.24356" lon="-1.55066">
        <ele>37</ele>
        <time>2022-01-20T15:16:19Z</time>
      </trkpt>
      <trkpt lat="47.24356" lon="-1.55063">
        <ele>37</ele>
        <time>2022-01-20T15:16:20Z</time>
      </trkpt>
      <trkpt lat="47.24356" lon="-1.55061">
        <ele>37</ele>
        <time>2022-01-20T15:16:21Z</time>
      </trkpt>
      <trkpt lat="47.24357" lon="-1.55059">
        <ele>37</ele>
        <time>2022-01-20T15:16:22Z</time>
      </trkpt>
      <trkpt lat="47.24357" lon="-1.55057">
        <ele>37</ele>
        <time>2022-01-20T15:16:23Z</time>
      </trkpt>
      <trkpt lat="47.24357" lon="-1.55055">
        <ele>36</ele>
        <time>2022-01-20T15:16:24Z</time>
      </trkpt>
      <trkpt lat="47.24357" lon="-1.55053">
        <ele>36</ele>
        <time>2022-01-20T15:16:25Z</time>
      </trkpt>
      <trkpt lat="47.24357" lon="-1.55051">
        <ele>36</ele>
        <time>2022-01-20T15:16:26Z</time>
      </trkpt>
      <trkpt lat="47.24358" lon="-1.5505">
        <ele>36</ele>
        <time>2022-01-20T15:16:27Z</time>
      </trkpt>
      <trkpt lat="47.24358" lon="-1.55048">
        <ele>35</ele>
        <time>2022-01-20T15:16:28Z</time>
      </trkpt>
      <trkpt lat="47.24358" lon="-1.55046">
        <ele>35</ele>
        <time>2022-01-20T15:16:29Z</time>
      </trkpt>
      <trkpt lat="47.24359" lon="-1.55044">
        <ele>35</ele>
        <time>2022-01-20T15:16:30Z</time>
      </trkpt>
      <trkpt lat="47.24359" lon="-1.55042">
        <ele>35</ele>
        <time>2022-01-20T15:16:31Z</time>
      </trkpt>
      <trkpt lat="47.24359" lon="-1.5504">
        <ele>35</ele>
        <time>2022-01-20T15:16:32Z</time>
      </trkpt>
      <trkpt lat="47.24358" lon="-1.55039">
        <ele>34</ele>
        <time>2022-01-20T15:16:33Z</time>
      </trkpt>
      <trkpt lat="47.24358" lon="-1.55037">
        <ele>34</ele>
        <time>2022-01-20T15:16:34Z</time>
      </trkpt>
      <trkpt lat="47.24358" lon="-1.55036">
        <ele>34</ele>
        <time>2022-01-20T15:16:35Z</time>
      </trkpt>
      <trkpt lat="47.24358" lon="-1.55034">
        <ele>34</ele>
        <time>2022-01-20T15:16:36Z</time>
      </trkpt>
      <trkpt lat="47.24358" lon="-1.55032">
        <ele>34</ele>
        <time>2022-01-20T15:16:37Z</time>
      </trkpt>
      <trkpt lat="47.24358" lon="-1.5503">
        <ele>34</ele>
        <time>2022-01-20T15:16:38Z</time>
      </trkpt>
      <trkpt lat="47.24358" lon="-1.55029">
        <ele>34</ele>
        <time>2022-01-20T15:16:39Z</time>
      </trkpt>
      <trkpt lat="47.24358" lon="-1.55027">
        <ele>33</ele>
        <time>2022-01-20T15:16:40Z</time>
      </trkpt>
      <trkpt lat="47.24358" lon="-1.55024">
        <ele>33</ele>
        <time>2022-01-20T15:16:41Z</time>
      </trkpt>
      <trkpt lat="47.24358" lon="-1.55022">
        <ele>33</ele>
        <time>2022-01-20T15:16:42Z</time>
      </trkpt>
      <trkpt lat="47.24358" lon="-1.5502">
        <ele>33</ele>
        <time>2022-01-20T15:16:43Z</time>
      </trkpt>
      <trkpt lat="47.24358" lon="-1.55019">
        <ele>33</ele>
        <time>2022-01-20T15:16:44Z</time>
      </trkpt>
      <trkpt lat="47.24358" lon="-1.55017">
        <ele>33</ele>
        <time>2022-01-20T15:16:45Z</time>
      </trkpt>
      <trkpt lat="47.24358" lon="-1.55015">
        <ele>32</ele>
        <time>2022-01-20T15:16:46Z</time>
      </trkpt>
      <trkpt lat="47.24358" lon="-1.55013">
        <ele>32</ele>
        <time>2022-01-20T15:16:47Z</time>
      </trkpt>
      <trkpt lat="47.24358" lon="-1.55011">
        <ele>32</ele>
        <time>2022-01-20T15:16:48Z</time>
      </trkpt>
      <trkpt lat="47.24359" lon="-1.55009">
        <ele>32</ele>
        <time>2022-01-20T15:16:49Z</time>
      </trkpt>
      <trkpt lat="47.24359" lon="-1.55007">
        <ele>31</ele>
        <time>2022-01-20T15:16:50Z</time>
      </trkpt>
      <trkpt lat="47.24359" lon="-1.55006">
        <ele>31</ele>
        <time>2022-01-20T15:16:51Z</time>
      </trkpt>
      <trkpt lat="47.24359" lon="-1.55004">
        <ele>31</ele>
        <time>2022-01-20T15:16:52Z</time>
      </trkpt>
      <trkpt lat="47.2436" lon="-1.55002">
        <ele>31</ele>
        <time>2022-01-20T15:16:53Z</time>
      </trkpt>
      <trkpt lat="47.2436" lon="-1.55">
        <ele>31</ele>
        <time>2022-01-20T15:16:54Z</time>
      </trkpt>
      <trkpt lat="47.24361" lon="-1.54998">
        <ele>31</ele>
        <time>2022-01-20T15:16:55Z</time>
      </trkpt>
      <trkpt lat="47.24361" lon="-1.54996">
        <ele>31</ele>
        <time>2022-01-20T15:16:56Z</time>
      </trkpt>
      <trkpt lat="47.24361" lon="-1.54994">
        <ele>30</ele>
        <time>2022-01-20T15:16:57Z</time>
      </trkpt>
      <trkpt lat="47.24361" lon="-1.54993">
        <ele>30</ele>
        <time>2022-01-20T15:16:58Z</time>
      </trkpt>
      <trkpt lat="47.24361" lon="-1.54991">
        <ele>30</ele>
        <time>2022-01-20T15:16:59Z</time>
      </trkpt>
      <trkpt lat="47.24361" lon="-1.54988">
        <ele>30</ele>
        <time>2022-01-20T15:17:00Z</time>
      </trkpt>
      <trkpt lat="47.24361" lon="-1.54987">
        <ele>29</ele>
        <time>2022-01-20T15:17:01Z</time>
      </trkpt>
      <trkpt lat="47.24361" lon="-1.54985">
        <ele>29</ele>
        <time>2022-01-20T15:17:02Z</time>
      </trkpt>
      <trkpt lat="47.24362" lon="-1.54984">
        <ele>29</ele>
        <time>2022-01-20T15:17:03Z</time>
      </trkpt>
      <trkpt lat="47.24362" lon="-1.54982">
        <ele>29</ele>
        <time>2022-01-20T15:17:04Z</time>
      </trkpt>
      <trkpt lat="47.24362" lon="-1.5498">
        <ele>29</ele>
        <time>2022-01-20T15:17:05Z</time>
      </trkpt>
      <trkpt lat="47.24362" lon="-1.54978">
        <ele>29</ele>
        <time>2022-01-20T15:17:06Z</time>
      </trkpt>
      <trkpt lat="47.24362" lon="-1.54978">
        <ele>29</ele>
        <time>2022-01-20T15:17:07Z</time>
      </trkpt>
      <trkpt lat="47.24362" lon="-1.54974">
        <ele>29</ele>
        <time>2022-01-20T15:17:08Z</time>
      </trkpt>
      <trkpt lat="47.24363" lon="-1.54971">
        <ele>29</ele>
        <time>2022-01-20T15:17:09Z</time>
      </trkpt>
      <trkpt lat="47.24363" lon="-1.54969">
        <ele>29</ele>
        <time>2022-01-20T15:17:10Z</time>
      </trkpt>
      <trkpt lat="47.24363" lon="-1.54967">
        <ele>29</ele>
        <time>2022-01-20T15:17:11Z</time>
      </trkpt>
      <trkpt lat="47.24363" lon="-1.54965">
        <ele>29</ele>
        <time>2022-01-20T15:17:12Z</time>
      </trkpt>
      <trkpt lat="47.24363" lon="-1.54963">
        <ele>29</ele>
        <time>2022-01-20T15:17:13Z</time>
      </trkpt>
      <trkpt lat="47.24363" lon="-1.54961">
        <ele>29</ele>
        <time>2022-01-20T15:17:14Z</time>
      </trkpt>
      <trkpt lat="47.24363" lon="-1.5496">
        <ele>29</ele>
        <time>2022-01-20T15:17:15Z</time>
      </trkpt>
      <trkpt lat="47.24363" lon="-1.5496">
        <ele>29</ele>
        <time>2022-01-20T15:17:16Z</time>
      </trkpt>
      <trkpt lat="47.24363" lon="-1.5496">
        <ele>29</ele>
        <time>2022-01-20T15:17:17Z</time>
      </trkpt>
      <trkpt lat="47.24363" lon="-1.54956">
        <ele>29</ele>
        <time>2022-01-20T15:17:18Z</time>
      </trkpt>
      <trkpt lat="47.24363" lon="-1.54954">
        <ele>29</ele>
        <time>2022-01-20T15:17:19Z</time>
      </trkpt>
      <trkpt lat="47.24363" lon="-1.54952">
        <ele>29</ele>
        <time>2022-01-20T15:17:20Z</time>
      </trkpt>
      <trkpt lat="47.24363" lon="-1.54951">
        <ele>29</ele>
        <time>2022-01-20T15:17:21Z</time>
      </trkpt>
      <trkpt lat="47.24364" lon="-1.54949">
        <ele>29</ele>
        <time>2022-01-20T15:17:22Z</time>
      </trkpt>
      <trkpt lat="47.24364" lon="-1.54948">
        <ele>29</ele>
        <time>2022-01-20T15:17:23Z</time>
      </trkpt>
      <trkpt lat="47.24363" lon="-1.54947">
        <ele>30</ele>
        <time>2022-01-20T15:17:24Z</time>
      </trkpt>
      <trkpt lat="47.24363" lon="-1.54945">
        <ele>30</ele>
        <time>2022-01-20T15:17:25Z</time>
      </trkpt>
      <trkpt lat="47.24364" lon="-1.54943">
        <ele>30</ele>
        <time>2022-01-20T15:17:26Z</time>
      </trkpt>
      <trkpt lat="47.24364" lon="-1.54942">
        <ele>30</ele>
        <time>2022-01-20T15:17:27Z</time>
      </trkpt>
      <trkpt lat="47.24364" lon="-1.5494">
        <ele>30</ele>
        <time>2022-01-20T15:17:28Z</time>
      </trkpt>
      <trkpt lat="47.24364" lon="-1.54938">
        <ele>31</ele>
        <time>2022-01-20T15:17:29Z</time>
      </trkpt>
      <trkpt lat="47.24364" lon="-1.54936">
        <ele>31</ele>
        <time>2022-01-20T15:17:30Z</time>
      </trkpt>
      <trkpt lat="47.24364" lon="-1.54935">
        <ele>31</ele>
        <time>2022-01-20T15:17:31Z</time>
      </trkpt>
      <trkpt lat="47.24365" lon="-1.54933">
        <ele>31</ele>
        <time>2022-01-20T15:17:32Z</time>
      </trkpt>
      <trkpt lat="47.24365" lon="-1.54931">
        <ele>31</ele>
        <time>2022-01-20T15:17:33Z</time>
      </trkpt>
      <trkpt lat="47.24365" lon="-1.54928">
        <ele>31</ele>
        <time>2022-01-20T15:17:34Z</time>
      </trkpt>
      <trkpt lat="47.24365" lon="-1.54927">
        <ele>31</ele>
        <time>2022-01-20T15:17:35Z</time>
      </trkpt>
      <trkpt lat="47.24365" lon="-1.54925">
        <ele>31</ele>
        <time>2022-01-20T15:17:36Z</time>
      </trkpt>
      <trkpt lat="47.24365" lon="-1.54923">
        <ele>31</ele>
        <time>2022-01-20T15:17:37Z</time>
      </trkpt>
      <trkpt lat="47.24365" lon="-1.54921">
        <ele>31</ele>
        <time>2022-01-20T15:17:38Z</time>
      </trkpt>
      <trkpt lat="47.24365" lon="-1.54921">
        <ele>31</ele>
        <time>2022-01-20T15:17:39Z</time>
      </trkpt>
      <trkpt lat="47.24365" lon="-1.54917">
        <ele>31</ele>
        <time>2022-01-20T15:17:40Z</time>
      </trkpt>
      <trkpt lat="47.24365" lon="-1.54915">
        <ele>30</ele>
        <time>2022-01-20T15:17:41Z</time>
      </trkpt>
      <trkpt lat="47.24365" lon="-1.54913">
        <ele>30</ele>
        <time>2022-01-20T15:17:42Z</time>
      </trkpt>
      <trkpt lat="47.24365" lon="-1.54911">
        <ele>30</ele>
        <time>2022-01-20T15:17:43Z</time>
      </trkpt>
      <trkpt lat="47.24365" lon="-1.54909">
        <ele>30</ele>
        <time>2022-01-20T15:17:44Z</time>
      </trkpt>
      <trkpt lat="47.24364" lon="-1.54907">
        <ele>30</ele>
        <time>2022-01-20T15:17:45Z</time>
      </trkpt>
      <trkpt lat="47.24364" lon="-1.54905">
        <ele>30</ele>
        <time>2022-01-20T15:17:46Z</time>
      </trkpt>
      <trkpt lat="47.24364" lon="-1.54902">
        <ele>30</ele>
        <time>2022-01-20T15:17:47Z</time>
      </trkpt>
      <trkpt lat="47.24364" lon="-1.549">
        <ele>30</ele>
        <time>2022-01-20T15:17:48Z</time>
      </trkpt>
      <trkpt lat="47.24363" lon="-1.54898">
        <ele>30</ele>
        <time>2022-01-20T15:17:49Z</time>
      </trkpt>
      <trkpt lat="47.24363" lon="-1.54896">
        <ele>30</ele>
        <time>2022-01-20T15:17:50Z</time>
      </trkpt>
      <trkpt lat="47.24364" lon="-1.54894">
        <ele>30</ele>
        <time>2022-01-20T15:17:51Z</time>
      </trkpt>
      <trkpt lat="47.24365" lon="-1.54892">
        <ele>29</ele>
        <time>2022-01-20T15:17:52Z</time>
      </trkpt>
      <trkpt lat="47.24365" lon="-1.5489">
        <ele>29</ele>
        <time>2022-01-20T15:17:53Z</time>
      </trkpt>
      <trkpt lat="47.24365" lon="-1.54888">
        <ele>30</ele>
        <time>2022-01-20T15:17:54Z</time>
      </trkpt>
      <trkpt lat="47.24366" lon="-1.54886">
        <ele>30</ele>
        <time>2022-01-20T15:17:55Z</time>
      </trkpt>
      <trkpt lat="47.24366" lon="-1.54884">
        <ele>29</ele>
        <time>2022-01-20T15:17:56Z</time>
      </trkpt>
      <trkpt lat="47.24366" lon="-1.54883">
        <ele>30</ele>
        <time>2022-01-20T15:17:57Z</time>
      </trkpt>
      <trkpt lat="47.24367" lon="-1.54882">
        <ele>30</ele>
        <time>2022-01-20T15:17:58Z</time>
      </trkpt>
      <trkpt lat="47.24368" lon="-1.5488">
        <ele>29</ele>
        <time>2022-01-20T15:17:59Z</time>
      </trkpt>
      <trkpt lat="47.24369" lon="-1.54879">
        <ele>29</ele>
        <time>2022-01-20T15:18:00Z</time>
      </trkpt>
      <trkpt lat="47.24369" lon="-1.54879">
        <ele>29</ele>
        <time>2022-01-20T15:18:01Z</time>
      </trkpt>
      <trkpt lat="47.24369" lon="-1.54879">
        <ele>29</ele>
        <time>2022-01-20T15:18:02Z</time>
      </trkpt>
      <trkpt lat="47.24369" lon="-1.54876">
        <ele>30</ele>
        <time>2022-01-20T15:18:03Z</time>
      </trkpt>
      <trkpt lat="47.24369" lon="-1.54875">
        <ele>30</ele>
        <time>2022-01-20T15:18:04Z</time>
      </trkpt>
      <trkpt lat="47.24369" lon="-1.54873">
        <ele>30</ele>
        <time>2022-01-20T15:18:05Z</time>
      </trkpt>
      <trkpt lat="47.24369" lon="-1.54871">
        <ele>30</ele>
        <time>2022-01-20T15:18:06Z</time>
      </trkpt>
      <trkpt lat="47.24369" lon="-1.54869">
        <ele>29</ele>
        <time>2022-01-20T15:18:07Z</time>
      </trkpt>
      <trkpt lat="47.24369" lon="-1.54867">
        <ele>29</ele>
        <time>2022-01-20T15:18:08Z</time>
      </trkpt>
      <trkpt lat="47.24369" lon="-1.54865">
        <ele>30</ele>
        <time>2022-01-20T15:18:09Z</time>
      </trkpt>
      <trkpt lat="47.24369" lon="-1.54862">
        <ele>30</ele>
        <time>2022-01-20T15:18:10Z</time>
      </trkpt>
      <trkpt lat="47.24368" lon="-1.54861">
        <ele>30</ele>
        <time>2022-01-20T15:18:11Z</time>
      </trkpt>
      <trkpt lat="47.24368" lon="-1.54859">
        <ele>30</ele>
        <time>2022-01-20T15:18:12Z</time>
      </trkpt>
      <trkpt lat="47.24368" lon="-1.54856">
        <ele>31</ele>
        <time>2022-01-20T15:18:13Z</time>
      </trkpt>
      <trkpt lat="47.24368" lon="-1.54854">
        <ele>30</ele>
        <time>2022-01-20T15:18:14Z</time>
      </trkpt>
      <trkpt lat="47.24368" lon="-1.54852">
        <ele>30</ele>
        <time>2022-01-20T15:18:15Z</time>
      </trkpt>
      <trkpt lat="47.24368" lon="-1.54851">
        <ele>30</ele>
        <time>2022-01-20T15:18:16Z</time>
      </trkpt>
      <trkpt lat="47.24368" lon="-1.5485">
        <ele>30</ele>
        <time>2022-01-20T15:18:17Z</time>
      </trkpt>
      <trkpt lat="47.24368" lon="-1.54848">
        <ele>30</ele>
        <time>2022-01-20T15:18:18Z</time>
      </trkpt>
      <trkpt lat="47.24368" lon="-1.54846">
        <ele>30</ele>
        <time>2022-01-20T15:18:19Z</time>
      </trkpt>
      <trkpt lat="47.24369" lon="-1.54845">
        <ele>30</ele>
        <time>2022-01-20T15:18:20Z</time>
      </trkpt>
      <trkpt lat="47.24369" lon="-1.54843">
        <ele>30</ele>
        <time>2022-01-20T15:18:21Z</time>
      </trkpt>
      <trkpt lat="47.24369" lon="-1.54841">
        <ele>30</ele>
        <time>2022-01-20T15:18:22Z</time>
      </trkpt>
      <trkpt lat="47.24369" lon="-1.54839">
        <ele>30</ele>
        <time>2022-01-20T15:18:23Z</time>
      </trkpt>
      <trkpt lat="47.24369" lon="-1.54838">
        <ele>30</ele>
        <time>2022-01-20T15:18:24Z</time>
      </trkpt>
      <trkpt lat="47.24369" lon="-1.54836">
        <ele>30</ele>
        <time>2022-01-20T15:18:25Z</time>
      </trkpt>
      <trkpt lat="47.2437" lon="-1.54835">
        <ele>30</ele>
        <time>2022-01-20T15:18:26Z</time>
      </trkpt>
      <trkpt lat="47.2437" lon="-1.54833">
        <ele>31</ele>
        <time>2022-01-20T15:18:27Z</time>
      </trkpt>
      <trkpt lat="47.2437" lon="-1.54831">
        <ele>30</ele>
        <time>2022-01-20T15:18:28Z</time>
      </trkpt>
      <trkpt lat="47.2437" lon="-1.54829">
        <ele>31</ele>
        <time>2022-01-20T15:18:29Z</time>
      </trkpt>
      <trkpt lat="47.2437" lon="-1.54828">
        <ele>31</ele>
        <time>2022-01-20T15:18:30Z</time>
      </trkpt>
      <trkpt lat="47.2437" lon="-1.54826">
        <ele>31</ele>
        <time>2022-01-20T15:18:31Z</time>
      </trkpt>
      <trkpt lat="47.2437" lon="-1.54825">
        <ele>31</ele>
        <time>2022-01-20T15:18:32Z</time>
      </trkpt>
      <trkpt lat="47.24371" lon="-1.54823">
        <ele>30</ele>
        <time>2022-01-20T15:18:33Z</time>
      </trkpt>
      <trkpt lat="47.24371" lon="-1.54821">
        <ele>30</ele>
        <time>2022-01-20T15:18:34Z</time>
      </trkpt>
      <trkpt lat="47.24371" lon="-1.5482">
        <ele>31</ele>
        <time>2022-01-20T15:18:35Z</time>
      </trkpt>
      <trkpt lat="47.24371" lon="-1.54818">
        <ele>31</ele>
        <time>2022-01-20T15:18:36Z</time>
      </trkpt>
      <trkpt lat="47.24371" lon="-1.54817">
        <ele>31</ele>
        <time>2022-01-20T15:18:37Z</time>
      </trkpt>
      <trkpt lat="47.24371" lon="-1.54815">
        <ele>31</ele>
        <time>2022-01-20T15:18:38Z</time>
      </trkpt>
      <trkpt lat="47.24371" lon="-1.54813">
        <ele>31</ele>
        <time>2022-01-20T15:18:39Z</time>
      </trkpt>
      <trkpt lat="47.24372" lon="-1.54811">
        <ele>31</ele>
        <time>2022-01-20T15:18:40Z</time>
      </trkpt>
      <trkpt lat="47.24372" lon="-1.54809">
        <ele>31</ele>
        <time>2022-01-20T15:18:41Z</time>
      </trkpt>
      <trkpt lat="47.24373" lon="-1.54807">
        <ele>31</ele>
        <time>2022-01-20T15:18:42Z</time>
      </trkpt>
      <trkpt lat="47.24374" lon="-1.54804">
        <ele>30</ele>
        <time>2022-01-20T15:18:43Z</time>
      </trkpt>
      <trkpt lat="47.24374" lon="-1.54802">
        <ele>30</ele>
        <time>2022-01-20T15:18:44Z</time>
      </trkpt>
      <trkpt lat="47.24374" lon="-1.54801">
        <ele>30</ele>
        <time>2022-01-20T15:18:45Z</time>
      </trkpt>
      <trkpt lat="47.24375" lon="-1.548">
        <ele>30</ele>
        <time>2022-01-20T15:18:46Z</time>
      </trkpt>
      <trkpt lat="47.24376" lon="-1.54798">
        <ele>29</ele>
        <time>2022-01-20T15:18:47Z</time>
      </trkpt>
      <trkpt lat="47.24376" lon="-1.54796">
        <ele>29</ele>
        <time>2022-01-20T15:18:48Z</time>
      </trkpt>
      <trkpt lat="47.24377" lon="-1.54795">
        <ele>29</ele>
        <time>2022-01-20T15:18:49Z</time>
      </trkpt>
      <trkpt lat="47.24377" lon="-1.54793">
        <ele>29</ele>
        <time>2022-01-20T15:18:50Z</time>
      </trkpt>
      <trkpt lat="47.24378" lon="-1.54791">
        <ele>29</ele>
        <time>2022-01-20T15:18:51Z</time>
      </trkpt>
      <trkpt lat="47.24379" lon="-1.5479">
        <ele>30</ele>
        <time>2022-01-20T15:18:52Z</time>
      </trkpt>
      <trkpt lat="47.2438" lon="-1.54789">
        <ele>30</ele>
        <time>2022-01-20T15:18:53Z</time>
      </trkpt>
      <trkpt lat="47.24381" lon="-1.54787">
        <ele>30</ele>
        <time>2022-01-20T15:18:54Z</time>
      </trkpt>
      <trkpt lat="47.24381" lon="-1.54786">
        <ele>30</ele>
        <time>2022-01-20T15:18:55Z</time>
      </trkpt>
      <trkpt lat="47.24381" lon="-1.54786">
        <ele>30</ele>
        <time>2022-01-20T15:18:56Z</time>
      </trkpt>
      <trkpt lat="47.24381" lon="-1.54786">
        <ele>30</ele>
        <time>2022-01-20T15:18:57Z</time>
      </trkpt>
      <trkpt lat="47.24382" lon="-1.54783">
        <ele>29</ele>
        <time>2022-01-20T15:18:58Z</time>
      </trkpt>
      <trkpt lat="47.24383" lon="-1.54782">
        <ele>28</ele>
        <time>2022-01-20T15:18:59Z</time>
      </trkpt>
      <trkpt lat="47.24384" lon="-1.54781">
        <ele>29</ele>
        <time>2022-01-20T15:19:00Z</time>
      </trkpt>
      <trkpt lat="47.24384" lon="-1.5478">
        <ele>29</ele>
        <time>2022-01-20T15:19:01Z</time>
      </trkpt>
      <trkpt lat="47.24386" lon="-1.54779">
        <ele>29</ele>
        <time>2022-01-20T15:19:02Z</time>
      </trkpt>
      <trkpt lat="47.24387" lon="-1.54778">
        <ele>29</ele>
        <time>2022-01-20T15:19:03Z</time>
      </trkpt>
      <trkpt lat="47.24388" lon="-1.54777">
        <ele>29</ele>
        <time>2022-01-20T15:19:04Z</time>
      </trkpt>
      <trkpt lat="47.24389" lon="-1.54776">
        <ele>30</ele>
        <time>2022-01-20T15:19:05Z</time>
      </trkpt>
      <trkpt lat="47.2439" lon="-1.54775">
        <ele>30</ele>
        <time>2022-01-20T15:19:06Z</time>
      </trkpt>
      <trkpt lat="47.24391" lon="-1.54775">
        <ele>30</ele>
        <time>2022-01-20T15:19:07Z</time>
      </trkpt>
      <trkpt lat="47.24392" lon="-1.54774">
        <ele>30</ele>
        <time>2022-01-20T15:19:08Z</time>
      </trkpt>
      <trkpt lat="47.24394" lon="-1.54773">
        <ele>30</ele>
        <time>2022-01-20T15:19:09Z</time>
      </trkpt>
      <trkpt lat="47.24394" lon="-1.54772">
        <ele>30</ele>
        <time>2022-01-20T15:19:10Z</time>
      </trkpt>
      <trkpt lat="47.24395" lon="-1.54771">
        <ele>29</ele>
        <time>2022-01-20T15:19:11Z</time>
      </trkpt>
      <trkpt lat="47.24396" lon="-1.5477">
        <ele>30</ele>
        <time>2022-01-20T15:19:12Z</time>
      </trkpt>
      <trkpt lat="47.24397" lon="-1.54768">
        <ele>30</ele>
        <time>2022-01-20T15:19:13Z</time>
      </trkpt>
      <trkpt lat="47.24398" lon="-1.54767">
        <ele>30</ele>
        <time>2022-01-20T15:19:14Z</time>
      </trkpt>
      <trkpt lat="47.24399" lon="-1.54766">
        <ele>30</ele>
        <time>2022-01-20T15:19:15Z</time>
      </trkpt>
      <trkpt lat="47.244" lon="-1.54764">
        <ele>30</ele>
        <time>2022-01-20T15:19:16Z</time>
      </trkpt>
      <trkpt lat="47.24401" lon="-1.54763">
        <ele>30</ele>
        <time>2022-01-20T15:19:17Z</time>
      </trkpt>
      <trkpt lat="47.24402" lon="-1.54762">
        <ele>30</ele>
        <time>2022-01-20T15:19:18Z</time>
      </trkpt>
      <trkpt lat="47.24402" lon="-1.54761">
        <ele>30</ele>
        <time>2022-01-20T15:19:19Z</time>
      </trkpt>
      <trkpt lat="47.24403" lon="-1.5476">
        <ele>30</ele>
        <time>2022-01-20T15:19:20Z</time>
      </trkpt>
      <trkpt lat="47.24404" lon="-1.54759">
        <ele>30</ele>
        <time>2022-01-20T15:19:21Z</time>
      </trkpt>
      <trkpt lat="47.24405" lon="-1.54758">
        <ele>30</ele>
        <time>2022-01-20T15:19:22Z</time>
      </trkpt>
      <trkpt lat="47.24406" lon="-1.54756">
        <ele>30</ele>
        <time>2022-01-20T15:19:23Z</time>
      </trkpt>
      <trkpt lat="47.24408" lon="-1.54754">
        <ele>31</ele>
        <time>2022-01-20T15:19:24Z</time>
      </trkpt>
      <trkpt lat="47.24408" lon="-1.54753">
        <ele>31</ele>
        <time>2022-01-20T15:19:25Z</time>
      </trkpt>
      <trkpt lat="47.24409" lon="-1.54752">
        <ele>31</ele>
        <time>2022-01-20T15:19:26Z</time>
      </trkpt>
      <trkpt lat="47.2441" lon="-1.54751">
        <ele>32</ele>
        <time>2022-01-20T15:19:27Z</time>
      </trkpt>
      <trkpt lat="47.24411" lon="-1.5475">
        <ele>32</ele>
        <time>2022-01-20T15:19:28Z</time>
      </trkpt>
      <trkpt lat="47.24412" lon="-1.54749">
        <ele>32</ele>
        <time>2022-01-20T15:19:29Z</time>
      </trkpt>
      <trkpt lat="47.24413" lon="-1.54748">
        <ele>32</ele>
        <time>2022-01-20T15:19:30Z</time>
      </trkpt>
      <trkpt lat="47.24414" lon="-1.54747">
        <ele>33</ele>
        <time>2022-01-20T15:19:31Z</time>
      </trkpt>
      <trkpt lat="47.24415" lon="-1.54747">
        <ele>33</ele>
        <time>2022-01-20T15:19:32Z</time>
      </trkpt>
      <trkpt lat="47.24416" lon="-1.54746">
        <ele>33</ele>
        <time>2022-01-20T15:19:33Z</time>
      </trkpt>
      <trkpt lat="47.24418" lon="-1.54745">
        <ele>33</ele>
        <time>2022-01-20T15:19:34Z</time>
      </trkpt>
      <trkpt lat="47.24419" lon="-1.54744">
        <ele>34</ele>
        <time>2022-01-20T15:19:35Z</time>
      </trkpt>
      <trkpt lat="47.2442" lon="-1.54743">
        <ele>34</ele>
        <time>2022-01-20T15:19:36Z</time>
      </trkpt>
      <trkpt lat="47.24421" lon="-1.54741">
        <ele>34</ele>
        <time>2022-01-20T15:19:37Z</time>
      </trkpt>
      <trkpt lat="47.24423" lon="-1.5474">
        <ele>34</ele>
        <time>2022-01-20T15:19:38Z</time>
      </trkpt>
      <trkpt lat="47.24424" lon="-1.54739">
        <ele>35</ele>
        <time>2022-01-20T15:19:39Z</time>
      </trkpt>
      <trkpt lat="47.24425" lon="-1.54737">
        <ele>35</ele>
        <time>2022-01-20T15:19:40Z</time>
      </trkpt>
      <trkpt lat="47.24426" lon="-1.54736">
        <ele>35</ele>
        <time>2022-01-20T15:19:41Z</time>
      </trkpt>
      <trkpt lat="47.24427" lon="-1.54735">
        <ele>35</ele>
        <time>2022-01-20T15:19:42Z</time>
      </trkpt>
      <trkpt lat="47.24428" lon="-1.54734">
        <ele>36</ele>
        <time>2022-01-20T15:19:43Z</time>
      </trkpt>
      <trkpt lat="47.24429" lon="-1.54733">
        <ele>36</ele>
        <time>2022-01-20T15:19:44Z</time>
      </trkpt>
      <trkpt lat="47.2443" lon="-1.54732">
        <ele>36</ele>
        <time>2022-01-20T15:19:45Z</time>
      </trkpt>
      <trkpt lat="47.24431" lon="-1.54732">
        <ele>36</ele>
        <time>2022-01-20T15:19:46Z</time>
      </trkpt>
      <trkpt lat="47.24431" lon="-1.54731">
        <ele>36</ele>
        <time>2022-01-20T15:19:47Z</time>
      </trkpt>
      <trkpt lat="47.24431" lon="-1.54731">
        <ele>36</ele>
        <time>2022-01-20T15:19:48Z</time>
      </trkpt>
      <trkpt lat="47.24431" lon="-1.54731">
        <ele>36</ele>
        <time>2022-01-20T15:19:49Z</time>
      </trkpt>
      <trkpt lat="47.24434" lon="-1.5473">
        <ele>37</ele>
        <time>2022-01-20T15:19:50Z</time>
      </trkpt>
      <trkpt lat="47.24436" lon="-1.54729">
        <ele>37</ele>
        <time>2022-01-20T15:19:51Z</time>
      </trkpt>
      <trkpt lat="47.24437" lon="-1.54728">
        <ele>38</ele>
        <time>2022-01-20T15:19:52Z</time>
      </trkpt>
      <trkpt lat="47.24438" lon="-1.54727">
        <ele>38</ele>
        <time>2022-01-20T15:19:53Z</time>
      </trkpt>
      <trkpt lat="47.2444" lon="-1.54726">
        <ele>38</ele>
        <time>2022-01-20T15:19:54Z</time>
      </trkpt>
      <trkpt lat="47.24441" lon="-1.54725">
        <ele>38</ele>
        <time>2022-01-20T15:19:55Z</time>
      </trkpt>
      <trkpt lat="47.24442" lon="-1.54724">
        <ele>39</ele>
        <time>2022-01-20T15:19:56Z</time>
      </trkpt>
      <trkpt lat="47.24442" lon="-1.54724">
        <ele>39</ele>
        <time>2022-01-20T15:19:57Z</time>
      </trkpt>
      <trkpt lat="47.24444" lon="-1.54723">
        <ele>39</ele>
        <time>2022-01-20T15:19:58Z</time>
      </trkpt>
      <trkpt lat="47.24445" lon="-1.54723">
        <ele>39</ele>
        <time>2022-01-20T15:19:59Z</time>
      </trkpt>
      <trkpt lat="47.24445" lon="-1.54723">
        <ele>39</ele>
        <time>2022-01-20T15:20:00Z</time>
      </trkpt>
      <trkpt lat="47.24447" lon="-1.54722">
        <ele>39</ele>
        <time>2022-01-20T15:20:01Z</time>
      </trkpt>
      <trkpt lat="47.24448" lon="-1.54721">
        <ele>40</ele>
        <time>2022-01-20T15:20:02Z</time>
      </trkpt>
      <trkpt lat="47.24449" lon="-1.54721">
        <ele>40</ele>
        <time>2022-01-20T15:20:03Z</time>
      </trkpt>
      <trkpt lat="47.2445" lon="-1.54721">
        <ele>40</ele>
        <time>2022-01-20T15:20:04Z</time>
      </trkpt>
      <trkpt lat="47.2445" lon="-1.54721">
        <ele>39</ele>
        <time>2022-01-20T15:20:05Z</time>
      </trkpt>
      <trkpt lat="47.24451" lon="-1.54721">
        <ele>40</ele>
        <time>2022-01-20T15:20:06Z</time>
      </trkpt>
      <trkpt lat="47.24452" lon="-1.54721">
        <ele>40</ele>
        <time>2022-01-20T15:20:07Z</time>
      </trkpt>
      <trkpt lat="47.24453" lon="-1.54721">
        <ele>40</ele>
        <time>2022-01-20T15:20:08Z</time>
      </trkpt>
      <trkpt lat="47.24455" lon="-1.54721">
        <ele>40</ele>
        <time>2022-01-20T15:20:09Z</time>
      </trkpt>
      <trkpt lat="47.24455" lon="-1.5472">
        <ele>41</ele>
        <time>2022-01-20T15:20:10Z</time>
      </trkpt>
      <trkpt lat="47.24456" lon="-1.5472">
        <ele>40</ele>
        <time>2022-01-20T15:20:11Z</time>
      </trkpt>
      <trkpt lat="47.24456" lon="-1.5472">
        <ele>40</ele>
        <time>2022-01-20T15:20:12Z</time>
      </trkpt>
      <trkpt lat="47.24456" lon="-1.5472">
        <ele>40</ele>
        <time>2022-01-20T15:20:13Z</time>
      </trkpt>
      <trkpt lat="47.24458" lon="-1.54719">
        <ele>42</ele>
        <time>2022-01-20T15:20:14Z</time>
      </trkpt>
      <trkpt lat="47.24459" lon="-1.54718">
        <ele>42</ele>
        <time>2022-01-20T15:20:15Z</time>
      </trkpt>
      <trkpt lat="47.2446" lon="-1.54717">
        <ele>43</ele>
        <time>2022-01-20T15:20:16Z</time>
      </trkpt>
      <trkpt lat="47.24461" lon="-1.54717">
        <ele>43</ele>
        <time>2022-01-20T15:20:17Z</time>
      </trkpt>
      <trkpt lat="47.24463" lon="-1.54716">
        <ele>43</ele>
        <time>2022-01-20T15:20:18Z</time>
      </trkpt>
      <trkpt lat="47.24464" lon="-1.54716">
        <ele>43</ele>
        <time>2022-01-20T15:20:19Z</time>
      </trkpt>
      <trkpt lat="47.24466" lon="-1.54715">
        <ele>44</ele>
        <time>2022-01-20T15:20:20Z</time>
      </trkpt>
      <trkpt lat="47.24468" lon="-1.54713">
        <ele>44</ele>
        <time>2022-01-20T15:20:21Z</time>
      </trkpt>
      <trkpt lat="47.2447" lon="-1.54712">
        <ele>45</ele>
        <time>2022-01-20T15:20:22Z</time>
      </trkpt>
      <trkpt lat="47.24472" lon="-1.54712">
        <ele>45</ele>
        <time>2022-01-20T15:20:23Z</time>
      </trkpt>
      <trkpt lat="47.24473" lon="-1.54712">
        <ele>45</ele>
        <time>2022-01-20T15:20:24Z</time>
      </trkpt>
      <trkpt lat="47.24474" lon="-1.54711">
        <ele>45</ele>
        <time>2022-01-20T15:20:25Z</time>
      </trkpt>
      <trkpt lat="47.24475" lon="-1.54711">
        <ele>45</ele>
        <time>2022-01-20T15:20:26Z</time>
      </trkpt>
      <trkpt lat="47.24476" lon="-1.54711">
        <ele>45</ele>
        <time>2022-01-20T15:20:27Z</time>
      </trkpt>
      <trkpt lat="47.24478" lon="-1.54711">
        <ele>46</ele>
        <time>2022-01-20T15:20:28Z</time>
      </trkpt>
      <trkpt lat="47.24479" lon="-1.5471">
        <ele>46</ele>
        <time>2022-01-20T15:20:29Z</time>
      </trkpt>
      <trkpt lat="47.2448" lon="-1.54709">
        <ele>46</ele>
        <time>2022-01-20T15:20:30Z</time>
      </trkpt>
      <trkpt lat="47.24482" lon="-1.54707">
        <ele>47</ele>
        <time>2022-01-20T15:20:31Z</time>
      </trkpt>
      <trkpt lat="47.24483" lon="-1.54706">
        <ele>47</ele>
        <time>2022-01-20T15:20:32Z</time>
      </trkpt>
      <trkpt lat="47.24484" lon="-1.54705">
        <ele>47</ele>
        <time>2022-01-20T15:20:33Z</time>
      </trkpt>
      <trkpt lat="47.24486" lon="-1.54705">
        <ele>47</ele>
        <time>2022-01-20T15:20:34Z</time>
      </trkpt>
      <trkpt lat="47.24488" lon="-1.54705">
        <ele>47</ele>
        <time>2022-01-20T15:20:35Z</time>
      </trkpt>
      <trkpt lat="47.2449" lon="-1.54704">
        <ele>47</ele>
        <time>2022-01-20T15:20:36Z</time>
      </trkpt>
      <trkpt lat="47.24491" lon="-1.54703">
        <ele>47</ele>
        <time>2022-01-20T15:20:37Z</time>
      </trkpt>
      <trkpt lat="47.24493" lon="-1.54703">
        <ele>47</ele>
        <time>2022-01-20T15:20:38Z</time>
      </trkpt>
      <trkpt lat="47.24494" lon="-1.54702">
        <ele>47</ele>
        <time>2022-01-20T15:20:39Z</time>
      </trkpt>
      <trkpt lat="47.24495" lon="-1.54702">
        <ele>47</ele>
        <time>2022-01-20T15:20:40Z</time>
      </trkpt>
      <trkpt lat="47.24496" lon="-1.54701">
        <ele>47</ele>
        <time>2022-01-20T15:20:41Z</time>
      </trkpt>
      <trkpt lat="47.24498" lon="-1.54701">
        <ele>47</ele>
        <time>2022-01-20T15:20:42Z</time>
      </trkpt>
      <trkpt lat="47.24499" lon="-1.547">
        <ele>47</ele>
        <time>2022-01-20T15:20:43Z</time>
      </trkpt>
      <trkpt lat="47.24501" lon="-1.547">
        <ele>47</ele>
        <time>2022-01-20T15:20:44Z</time>
      </trkpt>
      <trkpt lat="47.24502" lon="-1.547">
        <ele>47</ele>
        <time>2022-01-20T15:20:45Z</time>
      </trkpt>
      <trkpt lat="47.24504" lon="-1.54699">
        <ele>47</ele>
        <time>2022-01-20T15:20:46Z</time>
      </trkpt>
      <trkpt lat="47.24506" lon="-1.547">
        <ele>47</ele>
        <time>2022-01-20T15:20:47Z</time>
      </trkpt>
      <trkpt lat="47.24508" lon="-1.547">
        <ele>47</ele>
        <time>2022-01-20T15:20:48Z</time>
      </trkpt>
      <trkpt lat="47.2451" lon="-1.54699">
        <ele>47</ele>
        <time>2022-01-20T15:20:49Z</time>
      </trkpt>
      <trkpt lat="47.24511" lon="-1.54699">
        <ele>47</ele>
        <time>2022-01-20T15:20:50Z</time>
      </trkpt>
      <trkpt lat="47.24513" lon="-1.547">
        <ele>47</ele>
        <time>2022-01-20T15:20:51Z</time>
      </trkpt>
      <trkpt lat="47.24514" lon="-1.547">
        <ele>47</ele>
        <time>2022-01-20T15:20:52Z</time>
      </trkpt>
      <trkpt lat="47.24516" lon="-1.54701">
        <ele>47</ele>
        <time>2022-01-20T15:20:53Z</time>
      </trkpt>
      <trkpt lat="47.24518" lon="-1.547">
        <ele>47</ele>
        <time>2022-01-20T15:20:54Z</time>
      </trkpt>
      <trkpt lat="47.24519" lon="-1.547">
        <ele>48</ele>
        <time>2022-01-20T15:20:55Z</time>
      </trkpt>
      <trkpt lat="47.24521" lon="-1.547">
        <ele>48</ele>
        <time>2022-01-20T15:20:56Z</time>
      </trkpt>
      <trkpt lat="47.24522" lon="-1.54699">
        <ele>48</ele>
        <time>2022-01-20T15:20:57Z</time>
      </trkpt>
      <trkpt lat="47.24524" lon="-1.54699">
        <ele>48</ele>
        <time>2022-01-20T15:20:58Z</time>
      </trkpt>
      <trkpt lat="47.24525" lon="-1.54699">
        <ele>49</ele>
        <time>2022-01-20T15:20:59Z</time>
      </trkpt>
      <trkpt lat="47.24527" lon="-1.54698">
        <ele>49</ele>
        <time>2022-01-20T15:21:00Z</time>
      </trkpt>
      <trkpt lat="47.24528" lon="-1.54698">
        <ele>49</ele>
        <time>2022-01-20T15:21:01Z</time>
      </trkpt>
      <trkpt lat="47.2453" lon="-1.54697">
        <ele>49</ele>
        <time>2022-01-20T15:21:02Z</time>
      </trkpt>
      <trkpt lat="47.24531" lon="-1.54697">
        <ele>49</ele>
        <time>2022-01-20T15:21:03Z</time>
      </trkpt>
      <trkpt lat="47.24533" lon="-1.54697">
        <ele>49</ele>
        <time>2022-01-20T15:21:04Z</time>
      </trkpt>
      <trkpt lat="47.24534" lon="-1.54697">
        <ele>49</ele>
        <time>2022-01-20T15:21:05Z</time>
      </trkpt>
      <trkpt lat="47.24536" lon="-1.54696">
        <ele>49</ele>
        <time>2022-01-20T15:21:06Z</time>
      </trkpt>
      <trkpt lat="47.24537" lon="-1.54696">
        <ele>49</ele>
        <time>2022-01-20T15:21:07Z</time>
      </trkpt>
      <trkpt lat="47.24538" lon="-1.54696">
        <ele>49</ele>
        <time>2022-01-20T15:21:08Z</time>
      </trkpt>
      <trkpt lat="47.2454" lon="-1.54695">
        <ele>49</ele>
        <time>2022-01-20T15:21:09Z</time>
      </trkpt>
      <trkpt lat="47.24542" lon="-1.54696">
        <ele>49</ele>
        <time>2022-01-20T15:21:10Z</time>
      </trkpt>
      <trkpt lat="47.24543" lon="-1.54696">
        <ele>49</ele>
        <time>2022-01-20T15:21:11Z</time>
      </trkpt>
      <trkpt lat="47.24544" lon="-1.54696">
        <ele>49</ele>
        <time>2022-01-20T15:21:12Z</time>
      </trkpt>
      <trkpt lat="47.24545" lon="-1.54696">
        <ele>49</ele>
        <time>2022-01-20T15:21:13Z</time>
      </trkpt>
      <trkpt lat="47.24546" lon="-1.54695">
        <ele>49</ele>
        <time>2022-01-20T15:21:14Z</time>
      </trkpt>
      <trkpt lat="47.24548" lon="-1.54695">
        <ele>49</ele>
        <time>2022-01-20T15:21:15Z</time>
      </trkpt>
      <trkpt lat="47.24549" lon="-1.54695">
        <ele>49</ele>
        <time>2022-01-20T15:21:16Z</time>
      </trkpt>
      <trkpt lat="47.2455" lon="-1.54695">
        <ele>50</ele>
        <time>2022-01-20T15:21:17Z</time>
      </trkpt>
      <trkpt lat="47.24551" lon="-1.54695">
        <ele>50</ele>
        <time>2022-01-20T15:21:18Z</time>
      </trkpt>
      <trkpt lat="47.24553" lon="-1.54695">
        <ele>50</ele>
        <time>2022-01-20T15:21:19Z</time>
      </trkpt>
      <trkpt lat="47.24554" lon="-1.54693">
        <ele>50</ele>
        <time>2022-01-20T15:21:20Z</time>
      </trkpt>
      <trkpt lat="47.24555" lon="-1.54693">
        <ele>50</ele>
        <time>2022-01-20T15:21:21Z</time>
      </trkpt>
      <trkpt lat="47.24556" lon="-1.54692">
        <ele>49</ele>
        <time>2022-01-20T15:21:22Z</time>
      </trkpt>
      <trkpt lat="47.24557" lon="-1.54691">
        <ele>49</ele>
        <time>2022-01-20T15:21:23Z</time>
      </trkpt>
      <trkpt lat="47.24557" lon="-1.5469">
        <ele>49</ele>
        <time>2022-01-20T15:21:24Z</time>
      </trkpt>
      <trkpt lat="47.24558" lon="-1.5469">
        <ele>49</ele>
        <time>2022-01-20T15:21:25Z</time>
      </trkpt>
      <trkpt lat="47.24559" lon="-1.54689">
        <ele>49</ele>
        <time>2022-01-20T15:21:26Z</time>
      </trkpt>
      <trkpt lat="47.24559" lon="-1.54689">
        <ele>49</ele>
        <time>2022-01-20T15:21:27Z</time>
      </trkpt>
      <trkpt lat="47.24559" lon="-1.54688">
        <ele>49</ele>
        <time>2022-01-20T15:21:28Z</time>
      </trkpt>
      <trkpt lat="47.24559" lon="-1.54688">
        <ele>49</ele>
        <time>2022-01-20T15:21:29Z</time>
      </trkpt>
      <trkpt lat="47.24559" lon="-1.54687">
        <ele>48</ele>
        <time>2022-01-20T15:21:30Z</time>
      </trkpt>
      <trkpt lat="47.24558" lon="-1.54685">
        <ele>48</ele>
        <time>2022-01-20T15:21:31Z</time>
      </trkpt>
      <trkpt lat="47.24558" lon="-1.54684">
        <ele>48</ele>
        <time>2022-01-20T15:21:32Z</time>
      </trkpt>
      <trkpt lat="47.24557" lon="-1.54682">
        <ele>48</ele>
        <time>2022-01-20T15:21:33Z</time>
      </trkpt>
      <trkpt lat="47.24556" lon="-1.54681">
        <ele>48</ele>
        <time>2022-01-20T15:21:34Z</time>
      </trkpt>
      <trkpt lat="47.24556" lon="-1.54679">
        <ele>48</ele>
        <time>2022-01-20T15:21:35Z</time>
      </trkpt>
      <trkpt lat="47.24555" lon="-1.54677">
        <ele>48</ele>
        <time>2022-01-20T15:21:36Z</time>
      </trkpt>
      <trkpt lat="47.24554" lon="-1.54676">
        <ele>48</ele>
        <time>2022-01-20T15:21:37Z</time>
      </trkpt>
      <trkpt lat="47.24553" lon="-1.54674">
        <ele>48</ele>
        <time>2022-01-20T15:21:38Z</time>
      </trkpt>
      <trkpt lat="47.24552" lon="-1.54672">
        <ele>48</ele>
        <time>2022-01-20T15:21:39Z</time>
      </trkpt>
      <trkpt lat="47.24551" lon="-1.54671">
        <ele>48</ele>
        <time>2022-01-20T15:21:40Z</time>
      </trkpt>
      <trkpt lat="47.24551" lon="-1.54669">
        <ele>47</ele>
        <time>2022-01-20T15:21:41Z</time>
      </trkpt>
      <trkpt lat="47.2455" lon="-1.54667">
        <ele>47</ele>
        <time>2022-01-20T15:21:42Z</time>
      </trkpt>
      <trkpt lat="47.2455" lon="-1.54666">
        <ele>47</ele>
        <time>2022-01-20T15:21:43Z</time>
      </trkpt>
      <trkpt lat="47.2455" lon="-1.54664">
        <ele>47</ele>
        <time>2022-01-20T15:21:44Z</time>
      </trkpt>
      <trkpt lat="47.24549" lon="-1.54663">
        <ele>47</ele>
        <time>2022-01-20T15:21:45Z</time>
      </trkpt>
      <trkpt lat="47.24548" lon="-1.54662">
        <ele>47</ele>
        <time>2022-01-20T15:21:46Z</time>
      </trkpt>
      <trkpt lat="47.24547" lon="-1.54661">
        <ele>47</ele>
        <time>2022-01-20T15:21:47Z</time>
      </trkpt>
      <trkpt lat="47.24546" lon="-1.5466">
        <ele>47</ele>
        <time>2022-01-20T15:21:48Z</time>
      </trkpt>
      <trkpt lat="47.24545" lon="-1.54658">
        <ele>46</ele>
        <time>2022-01-20T15:21:49Z</time>
      </trkpt>
      <trkpt lat="47.24545" lon="-1.54657">
        <ele>46</ele>
        <time>2022-01-20T15:21:50Z</time>
      </trkpt>
      <trkpt lat="47.24544" lon="-1.54656">
        <ele>46</ele>
        <time>2022-01-20T15:21:51Z</time>
      </trkpt>
      <trkpt lat="47.24543" lon="-1.54655">
        <ele>46</ele>
        <time>2022-01-20T15:21:52Z</time>
      </trkpt>
      <trkpt lat="47.24542" lon="-1.54654">
        <ele>46</ele>
        <time>2022-01-20T15:21:53Z</time>
      </trkpt>
      <trkpt lat="47.24542" lon="-1.54653">
        <ele>45</ele>
        <time>2022-01-20T15:21:54Z</time>
      </trkpt>
      <trkpt lat="47.24541" lon="-1.54652">
        <ele>45</ele>
        <time>2022-01-20T15:21:55Z</time>
      </trkpt>
      <trkpt lat="47.2454" lon="-1.54651">
        <ele>45</ele>
        <time>2022-01-20T15:21:56Z</time>
      </trkpt>
      <trkpt lat="47.24538" lon="-1.5465">
        <ele>45</ele>
        <time>2022-01-20T15:21:57Z</time>
      </trkpt>
      <trkpt lat="47.24538" lon="-1.54649">
        <ele>45</ele>
        <time>2022-01-20T15:21:58Z</time>
      </trkpt>
      <trkpt lat="47.24537" lon="-1.54648">
        <ele>45</ele>
        <time>2022-01-20T15:21:59Z</time>
      </trkpt>
      <trkpt lat="47.24537" lon="-1.54647">
        <ele>45</ele>
        <time>2022-01-20T15:22:00Z</time>
      </trkpt>
      <trkpt lat="47.24536" lon="-1.54645">
        <ele>45</ele>
        <time>2022-01-20T15:22:01Z</time>
      </trkpt>
      <trkpt lat="47.24536" lon="-1.54643">
        <ele>45</ele>
        <time>2022-01-20T15:22:02Z</time>
      </trkpt>
      <trkpt lat="47.24537" lon="-1.5464">
        <ele>44</ele>
        <time>2022-01-20T15:22:03Z</time>
      </trkpt>
      <trkpt lat="47.24537" lon="-1.54639">
        <ele>44</ele>
        <time>2022-01-20T15:22:04Z</time>
      </trkpt>
      <trkpt lat="47.24538" lon="-1.54638">
        <ele>43</ele>
        <time>2022-01-20T15:22:05Z</time>
      </trkpt>
      <trkpt lat="47.24538" lon="-1.54637">
        <ele>43</ele>
        <time>2022-01-20T15:22:06Z</time>
      </trkpt>
      <trkpt lat="47.24539" lon="-1.54636">
        <ele>42</ele>
        <time>2022-01-20T15:22:07Z</time>
      </trkpt>
      <trkpt lat="47.2454" lon="-1.54635">
        <ele>42</ele>
        <time>2022-01-20T15:22:08Z</time>
      </trkpt>
      <trkpt lat="47.24541" lon="-1.54634">
        <ele>41</ele>
        <time>2022-01-20T15:22:09Z</time>
      </trkpt>
      <trkpt lat="47.24542" lon="-1.54634">
        <ele>41</ele>
        <time>2022-01-20T15:22:10Z</time>
      </trkpt>
      <trkpt lat="47.24543" lon="-1.54633">
        <ele>41</ele>
        <time>2022-01-20T15:22:11Z</time>
      </trkpt>
      <trkpt lat="47.24544" lon="-1.54633">
        <ele>41</ele>
        <time>2022-01-20T15:22:12Z</time>
      </trkpt>
      <trkpt lat="47.24545" lon="-1.54633">
        <ele>40</ele>
        <time>2022-01-20T15:22:13Z</time>
      </trkpt>
      <trkpt lat="47.24546" lon="-1.54633">
        <ele>40</ele>
        <time>2022-01-20T15:22:14Z</time>
      </trkpt>
      <trkpt lat="47.24547" lon="-1.54632">
        <ele>40</ele>
        <time>2022-01-20T15:22:15Z</time>
      </trkpt>
      <trkpt lat="47.24548" lon="-1.54632">
        <ele>40</ele>
        <time>2022-01-20T15:22:16Z</time>
      </trkpt>
      <trkpt lat="47.24548" lon="-1.54631">
        <ele>40</ele>
        <time>2022-01-20T15:22:17Z</time>
      </trkpt>
      <trkpt lat="47.24548" lon="-1.54631">
        <ele>39</ele>
        <time>2022-01-20T15:22:18Z</time>
      </trkpt>
      <trkpt lat="47.24548" lon="-1.54631">
        <ele>39</ele>
        <time>2022-01-20T15:22:19Z</time>
      </trkpt>
      <trkpt lat="47.2455" lon="-1.5463">
        <ele>39</ele>
        <time>2022-01-20T15:22:20Z</time>
      </trkpt>
      <trkpt lat="47.24551" lon="-1.54629">
        <ele>39</ele>
        <time>2022-01-20T15:22:21Z</time>
      </trkpt>
      <trkpt lat="47.24552" lon="-1.54628">
        <ele>39</ele>
        <time>2022-01-20T15:22:22Z</time>
      </trkpt>
      <trkpt lat="47.24554" lon="-1.54628">
        <ele>39</ele>
        <time>2022-01-20T15:22:23Z</time>
      </trkpt>
      <trkpt lat="47.24556" lon="-1.54627">
        <ele>39</ele>
        <time>2022-01-20T15:22:24Z</time>
      </trkpt>
      <trkpt lat="47.24557" lon="-1.54626">
        <ele>39</ele>
        <time>2022-01-20T15:22:25Z</time>
      </trkpt>
      <trkpt lat="47.24558" lon="-1.54625">
        <ele>39</ele>
        <time>2022-01-20T15:22:26Z</time>
      </trkpt>
      <trkpt lat="47.2456" lon="-1.54625">
        <ele>38</ele>
        <time>2022-01-20T15:22:27Z</time>
      </trkpt>
      <trkpt lat="47.24562" lon="-1.54624">
        <ele>38</ele>
        <time>2022-01-20T15:22:28Z</time>
      </trkpt>
      <trkpt lat="47.24563" lon="-1.54624">
        <ele>38</ele>
        <time>2022-01-20T15:22:29Z</time>
      </trkpt>
      <trkpt lat="47.24564" lon="-1.54623">
        <ele>38</ele>
        <time>2022-01-20T15:22:30Z</time>
      </trkpt>
      <trkpt lat="47.24565" lon="-1.54623">
        <ele>38</ele>
        <time>2022-01-20T15:22:31Z</time>
      </trkpt>
      <trkpt lat="47.24566" lon="-1.54622">
        <ele>38</ele>
        <time>2022-01-20T15:22:32Z</time>
      </trkpt>
      <trkpt lat="47.24567" lon="-1.54621">
        <ele>38</ele>
        <time>2022-01-20T15:22:33Z</time>
      </trkpt>
      <trkpt lat="47.24569" lon="-1.5462">
        <ele>38</ele>
        <time>2022-01-20T15:22:34Z</time>
      </trkpt>
      <trkpt lat="47.2457" lon="-1.5462">
        <ele>38</ele>
        <time>2022-01-20T15:22:35Z</time>
      </trkpt>
      <trkpt lat="47.24572" lon="-1.5462">
        <ele>38</ele>
        <time>2022-01-20T15:22:36Z</time>
      </trkpt>
      <trkpt lat="47.24573" lon="-1.5462">
        <ele>37</ele>
        <time>2022-01-20T15:22:37Z</time>
      </trkpt>
      <trkpt lat="47.24574" lon="-1.5462">
        <ele>37</ele>
        <time>2022-01-20T15:22:38Z</time>
      </trkpt>
      <trkpt lat="47.24575" lon="-1.5462">
        <ele>37</ele>
        <time>2022-01-20T15:22:39Z</time>
      </trkpt>
      <trkpt lat="47.24577" lon="-1.5462">
        <ele>37</ele>
        <time>2022-01-20T15:22:40Z</time>
      </trkpt>
      <trkpt lat="47.24578" lon="-1.54619">
        <ele>37</ele>
        <time>2022-01-20T15:22:41Z</time>
      </trkpt>
      <trkpt lat="47.24579" lon="-1.54619">
        <ele>37</ele>
        <time>2022-01-20T15:22:42Z</time>
      </trkpt>
      <trkpt lat="47.2458" lon="-1.54619">
        <ele>37</ele>
        <time>2022-01-20T15:22:43Z</time>
      </trkpt>
      <trkpt lat="47.24582" lon="-1.54618">
        <ele>38</ele>
        <time>2022-01-20T15:22:44Z</time>
      </trkpt>
      <trkpt lat="47.24583" lon="-1.54618">
        <ele>38</ele>
        <time>2022-01-20T15:22:45Z</time>
      </trkpt>
      <trkpt lat="47.24584" lon="-1.54617">
        <ele>38</ele>
        <time>2022-01-20T15:22:46Z</time>
      </trkpt>
      <trkpt lat="47.24585" lon="-1.54616">
        <ele>38</ele>
        <time>2022-01-20T15:22:47Z</time>
      </trkpt>
      <trkpt lat="47.24587" lon="-1.54616">
        <ele>38</ele>
        <time>2022-01-20T15:22:48Z</time>
      </trkpt>
      <trkpt lat="47.24588" lon="-1.54615">
        <ele>38</ele>
        <time>2022-01-20T15:22:49Z</time>
      </trkpt>
      <trkpt lat="47.24589" lon="-1.54615">
        <ele>38</ele>
        <time>2022-01-20T15:22:50Z</time>
      </trkpt>
      <trkpt lat="47.24591" lon="-1.54616">
        <ele>38</ele>
        <time>2022-01-20T15:22:51Z</time>
      </trkpt>
      <trkpt lat="47.24592" lon="-1.54616">
        <ele>38</ele>
        <time>2022-01-20T15:22:52Z</time>
      </trkpt>
      <trkpt lat="47.24592" lon="-1.54616">
        <ele>39</ele>
        <time>2022-01-20T15:22:53Z</time>
      </trkpt>
      <trkpt lat="47.24593" lon="-1.54615">
        <ele>39</ele>
        <time>2022-01-20T15:22:54Z</time>
      </trkpt>
      <trkpt lat="47.24595" lon="-1.54615">
        <ele>39</ele>
        <time>2022-01-20T15:22:55Z</time>
      </trkpt>
      <trkpt lat="47.24596" lon="-1.54614">
        <ele>39</ele>
        <time>2022-01-20T15:22:56Z</time>
      </trkpt>
      <trkpt lat="47.24598" lon="-1.54614">
        <ele>39</ele>
        <time>2022-01-20T15:22:57Z</time>
      </trkpt>
      <trkpt lat="47.24599" lon="-1.54614">
        <ele>39</ele>
        <time>2022-01-20T15:22:58Z</time>
      </trkpt>
      <trkpt lat="47.24601" lon="-1.54613">
        <ele>39</ele>
        <time>2022-01-20T15:22:59Z</time>
      </trkpt>
      <trkpt lat="47.24603" lon="-1.54614">
        <ele>39</ele>
        <time>2022-01-20T15:23:00Z</time>
      </trkpt>
      <trkpt lat="47.24604" lon="-1.54614">
        <ele>39</ele>
        <time>2022-01-20T15:23:01Z</time>
      </trkpt>
      <trkpt lat="47.24606" lon="-1.54613">
        <ele>39</ele>
        <time>2022-01-20T15:23:02Z</time>
      </trkpt>
      <trkpt lat="47.24607" lon="-1.54613">
        <ele>39</ele>
        <time>2022-01-20T15:23:03Z</time>
      </trkpt>
      <trkpt lat="47.24609" lon="-1.54613">
        <ele>39</ele>
        <time>2022-01-20T15:23:04Z</time>
      </trkpt>
      <trkpt lat="47.2461" lon="-1.54614">
        <ele>39</ele>
        <time>2022-01-20T15:23:05Z</time>
      </trkpt>
      <trkpt lat="47.24612" lon="-1.54614">
        <ele>39</ele>
        <time>2022-01-20T15:23:06Z</time>
      </trkpt>
      <trkpt lat="47.24613" lon="-1.54613">
        <ele>39</ele>
        <time>2022-01-20T15:23:07Z</time>
      </trkpt>
      <trkpt lat="47.24615" lon="-1.54614">
        <ele>40</ele>
        <time>2022-01-20T15:23:08Z</time>
      </trkpt>
      <trkpt lat="47.24616" lon="-1.54615">
        <ele>40</ele>
        <time>2022-01-20T15:23:09Z</time>
      </trkpt>
      <trkpt lat="47.24617" lon="-1.54615">
        <ele>40</ele>
        <time>2022-01-20T15:23:10Z</time>
      </trkpt>
      <trkpt lat="47.24619" lon="-1.54614">
        <ele>40</ele>
        <time>2022-01-20T15:23:11Z</time>
      </trkpt>
      <trkpt lat="47.2462" lon="-1.54614">
        <ele>40</ele>
        <time>2022-01-20T15:23:12Z</time>
      </trkpt>
      <trkpt lat="47.24622" lon="-1.54613">
        <ele>40</ele>
        <time>2022-01-20T15:23:13Z</time>
      </trkpt>
      <trkpt lat="47.24622" lon="-1.54613">
        <ele>40</ele>
        <time>2022-01-20T15:23:14Z</time>
      </trkpt>
      <trkpt lat="47.24624" lon="-1.54612">
        <ele>40</ele>
        <time>2022-01-20T15:23:15Z</time>
      </trkpt>
      <trkpt lat="47.24625" lon="-1.54611">
        <ele>40</ele>
        <time>2022-01-20T15:23:16Z</time>
      </trkpt>
      <trkpt lat="47.24626" lon="-1.5461">
        <ele>40</ele>
        <time>2022-01-20T15:23:17Z</time>
      </trkpt>
      <trkpt lat="47.24627" lon="-1.54609">
        <ele>40</ele>
        <time>2022-01-20T15:23:18Z</time>
      </trkpt>
      <trkpt lat="47.24628" lon="-1.54608">
        <ele>40</ele>
        <time>2022-01-20T15:23:19Z</time>
      </trkpt>
      <trkpt lat="47.2463" lon="-1.54608">
        <ele>40</ele>
        <time>2022-01-20T15:23:20Z</time>
      </trkpt>
      <trkpt lat="47.24631" lon="-1.54607">
        <ele>40</ele>
        <time>2022-01-20T15:23:21Z</time>
      </trkpt>
      <trkpt lat="47.24632" lon="-1.54607">
        <ele>40</ele>
        <time>2022-01-20T15:23:22Z</time>
      </trkpt>
      <trkpt lat="47.24632" lon="-1.54608">
        <ele>41</ele>
        <time>2022-01-20T15:23:23Z</time>
      </trkpt>
      <trkpt lat="47.24633" lon="-1.54609">
        <ele>41</ele>
        <time>2022-01-20T15:23:24Z</time>
      </trkpt>
      <trkpt lat="47.24634" lon="-1.54608">
        <ele>41</ele>
        <time>2022-01-20T15:23:25Z</time>
      </trkpt>
      <trkpt lat="47.24634" lon="-1.54608">
        <ele>42</ele>
        <time>2022-01-20T15:23:26Z</time>
      </trkpt>
      <trkpt lat="47.24636" lon="-1.54607">
        <ele>42</ele>
        <time>2022-01-20T15:23:27Z</time>
      </trkpt>
      <trkpt lat="47.24637" lon="-1.54606">
        <ele>42</ele>
        <time>2022-01-20T15:23:28Z</time>
      </trkpt>
      <trkpt lat="47.24638" lon="-1.54605">
        <ele>42</ele>
        <time>2022-01-20T15:23:29Z</time>
      </trkpt>
      <trkpt lat="47.24639" lon="-1.54604">
        <ele>42</ele>
        <time>2022-01-20T15:23:30Z</time>
      </trkpt>
      <trkpt lat="47.2464" lon="-1.54604">
        <ele>42</ele>
        <time>2022-01-20T15:23:31Z</time>
      </trkpt>
      <trkpt lat="47.24641" lon="-1.54602">
        <ele>42</ele>
        <time>2022-01-20T15:23:32Z</time>
      </trkpt>
      <trkpt lat="47.24642" lon="-1.54602">
        <ele>41</ele>
        <time>2022-01-20T15:23:33Z</time>
      </trkpt>
      <trkpt lat="47.24643" lon="-1.546">
        <ele>41</ele>
        <time>2022-01-20T15:23:34Z</time>
      </trkpt>
      <trkpt lat="47.24643" lon="-1.54599">
        <ele>41</ele>
        <time>2022-01-20T15:23:35Z</time>
      </trkpt>
      <trkpt lat="47.24644" lon="-1.54597">
        <ele>40</ele>
        <time>2022-01-20T15:23:36Z</time>
      </trkpt>
      <trkpt lat="47.24645" lon="-1.54596">
        <ele>41</ele>
        <time>2022-01-20T15:23:37Z</time>
      </trkpt>
      <trkpt lat="47.24645" lon="-1.54596">
        <ele>40</ele>
        <time>2022-01-20T15:23:38Z</time>
      </trkpt>
      <trkpt lat="47.24646" lon="-1.54595">
        <ele>40</ele>
        <time>2022-01-20T15:23:39Z</time>
      </trkpt>
      <trkpt lat="47.24647" lon="-1.54595">
        <ele>40</ele>
        <time>2022-01-20T15:23:40Z</time>
      </trkpt>
      <trkpt lat="47.24648" lon="-1.54594">
        <ele>40</ele>
        <time>2022-01-20T15:23:41Z</time>
      </trkpt>
      <trkpt lat="47.24649" lon="-1.54593">
        <ele>39</ele>
        <time>2022-01-20T15:23:42Z</time>
      </trkpt>
      <trkpt lat="47.2465" lon="-1.54593">
        <ele>39</ele>
        <time>2022-01-20T15:23:43Z</time>
      </trkpt>
      <trkpt lat="47.24651" lon="-1.54593">
        <ele>39</ele>
        <time>2022-01-20T15:23:44Z</time>
      </trkpt>
      <trkpt lat="47.24652" lon="-1.54593">
        <ele>39</ele>
        <time>2022-01-20T15:23:45Z</time>
      </trkpt>
      <trkpt lat="47.24654" lon="-1.54592">
        <ele>39</ele>
        <time>2022-01-20T15:23:46Z</time>
      </trkpt>
      <trkpt lat="47.24655" lon="-1.54592">
        <ele>39</ele>
        <time>2022-01-20T15:23:47Z</time>
      </trkpt>
      <trkpt lat="47.24656" lon="-1.54591">
        <ele>39</ele>
        <time>2022-01-20T15:23:48Z</time>
      </trkpt>
      <trkpt lat="47.24657" lon="-1.5459">
        <ele>38</ele>
        <time>2022-01-20T15:23:49Z</time>
      </trkpt>
      <trkpt lat="47.24658" lon="-1.5459">
        <ele>38</ele>
        <time>2022-01-20T15:23:50Z</time>
      </trkpt>
      <trkpt lat="47.24659" lon="-1.5459">
        <ele>38</ele>
        <time>2022-01-20T15:23:51Z</time>
      </trkpt>
      <trkpt lat="47.2466" lon="-1.5459">
        <ele>37</ele>
        <time>2022-01-20T15:23:52Z</time>
      </trkpt>
      <trkpt lat="47.24661" lon="-1.5459">
        <ele>37</ele>
        <time>2022-01-20T15:23:53Z</time>
      </trkpt>
      <trkpt lat="47.24662" lon="-1.5459">
        <ele>37</ele>
        <time>2022-01-20T15:23:54Z</time>
      </trkpt>
      <trkpt lat="47.24662" lon="-1.5459">
        <ele>37</ele>
        <time>2022-01-20T15:23:55Z</time>
      </trkpt>
      <trkpt lat="47.24664" lon="-1.54589">
        <ele>38</ele>
        <time>2022-01-20T15:23:56Z</time>
      </trkpt>
      <trkpt lat="47.24665" lon="-1.54588">
        <ele>38</ele>
        <time>2022-01-20T15:23:57Z</time>
      </trkpt>
      <trkpt lat="47.24666" lon="-1.54587">
        <ele>39</ele>
        <time>2022-01-20T15:23:58Z</time>
      </trkpt>
      <trkpt lat="47.24667" lon="-1.54587">
        <ele>39</ele>
        <time>2022-01-20T15:23:59Z</time>
      </trkpt>
      <trkpt lat="47.24669" lon="-1.54586">
        <ele>38</ele>
        <time>2022-01-20T15:24:00Z</time>
      </trkpt>
      <trkpt lat="47.2467" lon="-1.54585">
        <ele>39</ele>
        <time>2022-01-20T15:24:01Z</time>
      </trkpt>
      <trkpt lat="47.24672" lon="-1.54585">
        <ele>39</ele>
        <time>2022-01-20T15:24:02Z</time>
      </trkpt>
      <trkpt lat="47.24674" lon="-1.54585">
        <ele>39</ele>
        <time>2022-01-20T15:24:03Z</time>
      </trkpt>
      <trkpt lat="47.24675" lon="-1.54585">
        <ele>40</ele>
        <time>2022-01-20T15:24:04Z</time>
      </trkpt>
      <trkpt lat="47.24677" lon="-1.54584">
        <ele>40</ele>
        <time>2022-01-20T15:24:05Z</time>
      </trkpt>
      <trkpt lat="47.24678" lon="-1.54583">
        <ele>39</ele>
        <time>2022-01-20T15:24:06Z</time>
      </trkpt>
      <trkpt lat="47.24679" lon="-1.54583">
        <ele>39</ele>
        <time>2022-01-20T15:24:07Z</time>
      </trkpt>
      <trkpt lat="47.2468" lon="-1.54582">
        <ele>40</ele>
        <time>2022-01-20T15:24:08Z</time>
      </trkpt>
      <trkpt lat="47.24682" lon="-1.54583">
        <ele>39</ele>
        <time>2022-01-20T15:24:09Z</time>
      </trkpt>
      <trkpt lat="47.24683" lon="-1.54582">
        <ele>39</ele>
        <time>2022-01-20T15:24:10Z</time>
      </trkpt>
      <trkpt lat="47.24685" lon="-1.54581">
        <ele>39</ele>
        <time>2022-01-20T15:24:11Z</time>
      </trkpt>
      <trkpt lat="47.24686" lon="-1.54581">
        <ele>39</ele>
        <time>2022-01-20T15:24:12Z</time>
      </trkpt>
      <trkpt lat="47.24688" lon="-1.5458">
        <ele>39</ele>
        <time>2022-01-20T15:24:13Z</time>
      </trkpt>
      <trkpt lat="47.24689" lon="-1.5458">
        <ele>39</ele>
        <time>2022-01-20T15:24:14Z</time>
      </trkpt>
      <trkpt lat="47.2469" lon="-1.54579">
        <ele>39</ele>
        <time>2022-01-20T15:24:15Z</time>
      </trkpt>
      <trkpt lat="47.24691" lon="-1.54578">
        <ele>39</ele>
        <time>2022-01-20T15:24:16Z</time>
      </trkpt>
      <trkpt lat="47.24693" lon="-1.54578">
        <ele>39</ele>
        <time>2022-01-20T15:24:17Z</time>
      </trkpt>
      <trkpt lat="47.24694" lon="-1.54577">
        <ele>39</ele>
        <time>2022-01-20T15:24:18Z</time>
      </trkpt>
      <trkpt lat="47.24695" lon="-1.54576">
        <ele>39</ele>
        <time>2022-01-20T15:24:19Z</time>
      </trkpt>
      <trkpt lat="47.24696" lon="-1.54576">
        <ele>40</ele>
        <time>2022-01-20T15:24:20Z</time>
      </trkpt>
      <trkpt lat="47.24698" lon="-1.54576">
        <ele>39</ele>
        <time>2022-01-20T15:24:21Z</time>
      </trkpt>
      <trkpt lat="47.24699" lon="-1.54576">
        <ele>39</ele>
        <time>2022-01-20T15:24:22Z</time>
      </trkpt>
      <trkpt lat="47.247" lon="-1.54576">
        <ele>39</ele>
        <time>2022-01-20T15:24:23Z</time>
      </trkpt>
      <trkpt lat="47.24701" lon="-1.54575">
        <ele>39</ele>
        <time>2022-01-20T15:24:24Z</time>
      </trkpt>
      <trkpt lat="47.24702" lon="-1.54575">
        <ele>39</ele>
        <time>2022-01-20T15:24:25Z</time>
      </trkpt>
      <trkpt lat="47.24703" lon="-1.54574">
        <ele>39</ele>
        <time>2022-01-20T15:24:26Z</time>
      </trkpt>
      <trkpt lat="47.24703" lon="-1.54573">
        <ele>39</ele>
        <time>2022-01-20T15:24:27Z</time>
      </trkpt>
      <trkpt lat="47.24704" lon="-1.54572">
        <ele>39</ele>
        <time>2022-01-20T15:24:28Z</time>
      </trkpt>
      <trkpt lat="47.24705" lon="-1.54571">
        <ele>39</ele>
        <time>2022-01-20T15:24:29Z</time>
      </trkpt>
      <trkpt lat="47.24706" lon="-1.5457">
        <ele>39</ele>
        <time>2022-01-20T15:24:30Z</time>
      </trkpt>
      <trkpt lat="47.24707" lon="-1.5457">
        <ele>39</ele>
        <time>2022-01-20T15:24:31Z</time>
      </trkpt>
      <trkpt lat="47.24708" lon="-1.54569">
        <ele>39</ele>
        <time>2022-01-20T15:24:32Z</time>
      </trkpt>
      <trkpt lat="47.24708" lon="-1.54568">
        <ele>39</ele>
        <time>2022-01-20T15:24:33Z</time>
      </trkpt>
      <trkpt lat="47.24709" lon="-1.54568">
        <ele>38</ele>
        <time>2022-01-20T15:24:34Z</time>
      </trkpt>
      <trkpt lat="47.24711" lon="-1.54567">
        <ele>38</ele>
        <time>2022-01-20T15:24:35Z</time>
      </trkpt>
      <trkpt lat="47.24711" lon="-1.54567">
        <ele>38</ele>
        <time>2022-01-20T15:24:36Z</time>
      </trkpt>
      <trkpt lat="47.24712" lon="-1.54566">
        <ele>38</ele>
        <time>2022-01-20T15:24:37Z</time>
      </trkpt>
      <trkpt lat="47.24713" lon="-1.54565">
        <ele>38</ele>
        <time>2022-01-20T15:24:38Z</time>
      </trkpt>
      <trkpt lat="47.24714" lon="-1.54565">
        <ele>38</ele>
        <time>2022-01-20T15:24:39Z</time>
      </trkpt>
      <trkpt lat="47.24715" lon="-1.54564">
        <ele>39</ele>
        <time>2022-01-20T15:24:40Z</time>
      </trkpt>
      <trkpt lat="47.24716" lon="-1.54563">
        <ele>38</ele>
        <time>2022-01-20T15:24:41Z</time>
      </trkpt>
      <trkpt lat="47.24717" lon="-1.54562">
        <ele>38</ele>
        <time>2022-01-20T15:24:42Z</time>
      </trkpt>
      <trkpt lat="47.24718" lon="-1.54561">
        <ele>38</ele>
        <time>2022-01-20T15:24:43Z</time>
      </trkpt>
      <trkpt lat="47.24718" lon="-1.5456">
        <ele>38</ele>
        <time>2022-01-20T15:24:44Z</time>
      </trkpt>
      <trkpt lat="47.24718" lon="-1.54559">
        <ele>38</ele>
        <time>2022-01-20T15:24:45Z</time>
      </trkpt>
      <trkpt lat="47.24719" lon="-1.54559">
        <ele>38</ele>
        <time>2022-01-20T15:24:46Z</time>
      </trkpt>
      <trkpt lat="47.2472" lon="-1.54559">
        <ele>38</ele>
        <time>2022-01-20T15:24:47Z</time>
      </trkpt>
      <trkpt lat="47.2472" lon="-1.54559">
        <ele>38</ele>
        <time>2022-01-20T15:24:48Z</time>
      </trkpt>
      <trkpt lat="47.2472" lon="-1.54559">
        <ele>38</ele>
        <time>2022-01-20T15:24:49Z</time>
      </trkpt>
      <trkpt lat="47.24722" lon="-1.54558">
        <ele>38</ele>
        <time>2022-01-20T15:24:50Z</time>
      </trkpt>
      <trkpt lat="47.24723" lon="-1.54557">
        <ele>38</ele>
        <time>2022-01-20T15:24:51Z</time>
      </trkpt>
      <trkpt lat="47.24724" lon="-1.54556">
        <ele>38</ele>
        <time>2022-01-20T15:24:52Z</time>
      </trkpt>
      <trkpt lat="47.24725" lon="-1.54556">
        <ele>38</ele>
        <time>2022-01-20T15:24:53Z</time>
      </trkpt>
      <trkpt lat="47.24726" lon="-1.54555">
        <ele>38</ele>
        <time>2022-01-20T15:24:54Z</time>
      </trkpt>
      <trkpt lat="47.24727" lon="-1.54555">
        <ele>38</ele>
        <time>2022-01-20T15:24:55Z</time>
      </trkpt>
      <trkpt lat="47.24728" lon="-1.54554">
        <ele>38</ele>
        <time>2022-01-20T15:24:56Z</time>
      </trkpt>
      <trkpt lat="47.24729" lon="-1.54554">
        <ele>38</ele>
        <time>2022-01-20T15:24:57Z</time>
      </trkpt>
      <trkpt lat="47.24729" lon="-1.54553">
        <ele>38</ele>
        <time>2022-01-20T15:24:58Z</time>
      </trkpt>
      <trkpt lat="47.2473" lon="-1.54553">
        <ele>37</ele>
        <time>2022-01-20T15:24:59Z</time>
      </trkpt>
      <trkpt lat="47.2473" lon="-1.54553">
        <ele>37</ele>
        <time>2022-01-20T15:25:00Z</time>
      </trkpt>
      <trkpt lat="47.2473" lon="-1.54553">
        <ele>37</ele>
        <time>2022-01-20T15:25:01Z</time>
      </trkpt>
      <trkpt lat="47.24732" lon="-1.54551">
        <ele>38</ele>
        <time>2022-01-20T15:25:02Z</time>
      </trkpt>
      <trkpt lat="47.24733" lon="-1.5455">
        <ele>38</ele>
        <time>2022-01-20T15:25:03Z</time>
      </trkpt>
      <trkpt lat="47.24735" lon="-1.54549">
        <ele>38</ele>
        <time>2022-01-20T15:25:04Z</time>
      </trkpt>
      <trkpt lat="47.24736" lon="-1.54549">
        <ele>38</ele>
        <time>2022-01-20T15:25:05Z</time>
      </trkpt>
      <trkpt lat="47.24737" lon="-1.54548">
        <ele>38</ele>
        <time>2022-01-20T15:25:06Z</time>
      </trkpt>
      <trkpt lat="47.24738" lon="-1.54546">
        <ele>38</ele>
        <time>2022-01-20T15:25:07Z</time>
      </trkpt>
      <trkpt lat="47.24739" lon="-1.54545">
        <ele>38</ele>
        <time>2022-01-20T15:25:08Z</time>
      </trkpt>
      <trkpt lat="47.2474" lon="-1.54544">
        <ele>38</ele>
        <time>2022-01-20T15:25:09Z</time>
      </trkpt>
      <trkpt lat="47.24741" lon="-1.54544">
        <ele>38</ele>
        <time>2022-01-20T15:25:10Z</time>
      </trkpt>
      <trkpt lat="47.24742" lon="-1.54543">
        <ele>38</ele>
        <time>2022-01-20T15:25:11Z</time>
      </trkpt>
      <trkpt lat="47.24743" lon="-1.54543">
        <ele>38</ele>
        <time>2022-01-20T15:25:12Z</time>
      </trkpt>
      <trkpt lat="47.24744" lon="-1.54542">
        <ele>38</ele>
        <time>2022-01-20T15:25:13Z</time>
      </trkpt>
      <trkpt lat="47.24744" lon="-1.54541">
        <ele>38</ele>
        <time>2022-01-20T15:25:14Z</time>
      </trkpt>
      <trkpt lat="47.24744" lon="-1.54541">
        <ele>38</ele>
        <time>2022-01-20T15:25:15Z</time>
      </trkpt>
      <trkpt lat="47.24745" lon="-1.5454">
        <ele>38</ele>
        <time>2022-01-20T15:25:16Z</time>
      </trkpt>
      <trkpt lat="47.24746" lon="-1.54538">
        <ele>38</ele>
        <time>2022-01-20T15:25:17Z</time>
      </trkpt>
      <trkpt lat="47.24747" lon="-1.54537">
        <ele>37</ele>
        <time>2022-01-20T15:25:18Z</time>
      </trkpt>
      <trkpt lat="47.24748" lon="-1.54536">
        <ele>37</ele>
        <time>2022-01-20T15:25:19Z</time>
      </trkpt>
      <trkpt lat="47.24749" lon="-1.54536">
        <ele>37</ele>
        <time>2022-01-20T15:25:20Z</time>
      </trkpt>
      <trkpt lat="47.24751" lon="-1.54535">
        <ele>37</ele>
        <time>2022-01-20T15:25:21Z</time>
      </trkpt>
      <trkpt lat="47.24751" lon="-1.54534">
        <ele>37</ele>
        <time>2022-01-20T15:25:22Z</time>
      </trkpt>
      <trkpt lat="47.24752" lon="-1.54533">
        <ele>37</ele>
        <time>2022-01-20T15:25:23Z</time>
      </trkpt>
      <trkpt lat="47.24753" lon="-1.54532">
        <ele>37</ele>
        <time>2022-01-20T15:25:24Z</time>
      </trkpt>
      <trkpt lat="47.24755" lon="-1.5453">
        <ele>37</ele>
        <time>2022-01-20T15:25:25Z</time>
      </trkpt>
      <trkpt lat="47.24756" lon="-1.54529">
        <ele>37</ele>
        <time>2022-01-20T15:25:26Z</time>
      </trkpt>
      <trkpt lat="47.24756" lon="-1.54528">
        <ele>37</ele>
        <time>2022-01-20T15:25:27Z</time>
      </trkpt>
      <trkpt lat="47.24757" lon="-1.54526">
        <ele>37</ele>
        <time>2022-01-20T15:25:28Z</time>
      </trkpt>
      <trkpt lat="47.24757" lon="-1.54526">
        <ele>37</ele>
        <time>2022-01-20T15:25:29Z</time>
      </trkpt>
      <trkpt lat="47.24757" lon="-1.54526">
        <ele>37</ele>
        <time>2022-01-20T15:25:30Z</time>
      </trkpt>
      <trkpt lat="47.2476" lon="-1.54522">
        <ele>37</ele>
        <time>2022-01-20T15:25:31Z</time>
      </trkpt>
      <trkpt lat="47.2476" lon="-1.54521">
        <ele>37</ele>
        <time>2022-01-20T15:25:32Z</time>
      </trkpt>
      <trkpt lat="47.24761" lon="-1.5452">
        <ele>37</ele>
        <time>2022-01-20T15:25:33Z</time>
      </trkpt>
      <trkpt lat="47.24762" lon="-1.54519">
        <ele>37</ele>
        <time>2022-01-20T15:25:34Z</time>
      </trkpt>
      <trkpt lat="47.24762" lon="-1.54519">
        <ele>37</ele>
        <time>2022-01-20T15:25:35Z</time>
      </trkpt>
      <trkpt lat="47.24762" lon="-1.54519">
        <ele>37</ele>
        <time>2022-01-20T15:25:36Z</time>
      </trkpt>
      <trkpt lat="47.24763" lon="-1.54518">
        <ele>37</ele>
        <time>2022-01-20T15:25:37Z</time>
      </trkpt>
      <trkpt lat="47.24764" lon="-1.54517">
        <ele>37</ele>
        <time>2022-01-20T15:25:38Z</time>
      </trkpt>
      <trkpt lat="47.24765" lon="-1.54516">
        <ele>37</ele>
        <time>2022-01-20T15:25:39Z</time>
      </trkpt>
      <trkpt lat="47.24766" lon="-1.54515">
        <ele>37</ele>
        <time>2022-01-20T15:25:40Z</time>
      </trkpt>
      <trkpt lat="47.24767" lon="-1.54514">
        <ele>38</ele>
        <time>2022-01-20T15:25:41Z</time>
      </trkpt>
      <trkpt lat="47.24768" lon="-1.54513">
        <ele>38</ele>
        <time>2022-01-20T15:25:42Z</time>
      </trkpt>
      <trkpt lat="47.2477" lon="-1.54511">
        <ele>38</ele>
        <time>2022-01-20T15:25:43Z</time>
      </trkpt>
      <trkpt lat="47.24771" lon="-1.5451">
        <ele>38</ele>
        <time>2022-01-20T15:25:44Z</time>
      </trkpt>
      <trkpt lat="47.24772" lon="-1.54509">
        <ele>38</ele>
        <time>2022-01-20T15:25:45Z</time>
      </trkpt>
      <trkpt lat="47.24772" lon="-1.54508">
        <ele>38</ele>
        <time>2022-01-20T15:25:46Z</time>
      </trkpt>
      <trkpt lat="47.24773" lon="-1.54506">
        <ele>38</ele>
        <time>2022-01-20T15:25:47Z</time>
      </trkpt>
      <trkpt lat="47.24774" lon="-1.54505">
        <ele>38</ele>
        <time>2022-01-20T15:25:48Z</time>
      </trkpt>
      <trkpt lat="47.24775" lon="-1.54503">
        <ele>38</ele>
        <time>2022-01-20T15:25:49Z</time>
      </trkpt>
      <trkpt lat="47.24777" lon="-1.54502">
        <ele>37</ele>
        <time>2022-01-20T15:25:50Z</time>
      </trkpt>
      <trkpt lat="47.24777" lon="-1.54499">
        <ele>37</ele>
        <time>2022-01-20T15:25:51Z</time>
      </trkpt>
      <trkpt lat="47.24778" lon="-1.54498">
        <ele>37</ele>
        <time>2022-01-20T15:25:52Z</time>
      </trkpt>
      <trkpt lat="47.24778" lon="-1.54496">
        <ele>37</ele>
        <time>2022-01-20T15:25:53Z</time>
      </trkpt>
      <trkpt lat="47.24779" lon="-1.54495">
        <ele>38</ele>
        <time>2022-01-20T15:25:54Z</time>
      </trkpt>
      <trkpt lat="47.2478" lon="-1.54494">
        <ele>38</ele>
        <time>2022-01-20T15:25:55Z</time>
      </trkpt>
      <trkpt lat="47.24781" lon="-1.54493">
        <ele>37</ele>
        <time>2022-01-20T15:25:56Z</time>
      </trkpt>
      <trkpt lat="47.24783" lon="-1.54492">
        <ele>37</ele>
        <time>2022-01-20T15:25:57Z</time>
      </trkpt>
      <trkpt lat="47.24784" lon="-1.54491">
        <ele>37</ele>
        <time>2022-01-20T15:25:58Z</time>
      </trkpt>
      <trkpt lat="47.24785" lon="-1.5449">
        <ele>37</ele>
        <time>2022-01-20T15:25:59Z</time>
      </trkpt>
      <trkpt lat="47.24785" lon="-1.54489">
        <ele>37</ele>
        <time>2022-01-20T15:26:00Z</time>
      </trkpt>
      <trkpt lat="47.24786" lon="-1.54489">
        <ele>37</ele>
        <time>2022-01-20T15:26:01Z</time>
      </trkpt>
      <trkpt lat="47.24788" lon="-1.54488">
        <ele>37</ele>
        <time>2022-01-20T15:26:02Z</time>
      </trkpt>
      <trkpt lat="47.24789" lon="-1.54488">
        <ele>37</ele>
        <time>2022-01-20T15:26:03Z</time>
      </trkpt>
      <trkpt lat="47.2479" lon="-1.54487">
        <ele>37</ele>
        <time>2022-01-20T15:26:04Z</time>
      </trkpt>
      <trkpt lat="47.24791" lon="-1.54486">
        <ele>37</ele>
        <time>2022-01-20T15:26:05Z</time>
      </trkpt>
      <trkpt lat="47.24792" lon="-1.54485">
        <ele>37</ele>
        <time>2022-01-20T15:26:06Z</time>
      </trkpt>
      <trkpt lat="47.24794" lon="-1.54484">
        <ele>37</ele>
        <time>2022-01-20T15:26:07Z</time>
      </trkpt>
      <trkpt lat="47.24794" lon="-1.54484">
        <ele>37</ele>
        <time>2022-01-20T15:26:08Z</time>
      </trkpt>
      <trkpt lat="47.24796" lon="-1.54483">
        <ele>37</ele>
        <time>2022-01-20T15:26:09Z</time>
      </trkpt>
      <trkpt lat="47.24797" lon="-1.54482">
        <ele>37</ele>
        <time>2022-01-20T15:26:10Z</time>
      </trkpt>
      <trkpt lat="47.24798" lon="-1.54481">
        <ele>37</ele>
        <time>2022-01-20T15:26:11Z</time>
      </trkpt>
      <trkpt lat="47.24798" lon="-1.5448">
        <ele>36</ele>
        <time>2022-01-20T15:26:12Z</time>
      </trkpt>
      <trkpt lat="47.24799" lon="-1.54479">
        <ele>36</ele>
        <time>2022-01-20T15:26:13Z</time>
      </trkpt>
      <trkpt lat="47.248" lon="-1.54478">
        <ele>36</ele>
        <time>2022-01-20T15:26:14Z</time>
      </trkpt>
      <trkpt lat="47.24801" lon="-1.54477">
        <ele>36</ele>
        <time>2022-01-20T15:26:15Z</time>
      </trkpt>
      <trkpt lat="47.24802" lon="-1.54476">
        <ele>36</ele>
        <time>2022-01-20T15:26:16Z</time>
      </trkpt>
      <trkpt lat="47.24803" lon="-1.54475">
        <ele>36</ele>
        <time>2022-01-20T15:26:17Z</time>
      </trkpt>
      <trkpt lat="47.24804" lon="-1.54474">
        <ele>36</ele>
        <time>2022-01-20T15:26:18Z</time>
      </trkpt>
      <trkpt lat="47.24805" lon="-1.54473">
        <ele>36</ele>
        <time>2022-01-20T15:26:19Z</time>
      </trkpt>
      <trkpt lat="47.24806" lon="-1.54472">
        <ele>36</ele>
        <time>2022-01-20T15:26:20Z</time>
      </trkpt>
      <trkpt lat="47.24807" lon="-1.54471">
        <ele>36</ele>
        <time>2022-01-20T15:26:21Z</time>
      </trkpt>
      <trkpt lat="47.24808" lon="-1.5447">
        <ele>36</ele>
        <time>2022-01-20T15:26:22Z</time>
      </trkpt>
      <trkpt lat="47.24809" lon="-1.54468">
        <ele>36</ele>
        <time>2022-01-20T15:26:23Z</time>
      </trkpt>
      <trkpt lat="47.2481" lon="-1.54467">
        <ele>36</ele>
        <time>2022-01-20T15:26:24Z</time>
      </trkpt>
      <trkpt lat="47.24811" lon="-1.54466">
        <ele>36</ele>
        <time>2022-01-20T15:26:25Z</time>
      </trkpt>
      <trkpt lat="47.24812" lon="-1.54465">
        <ele>36</ele>
        <time>2022-01-20T15:26:26Z</time>
      </trkpt>
      <trkpt lat="47.24813" lon="-1.54464">
        <ele>35</ele>
        <time>2022-01-20T15:26:27Z</time>
      </trkpt>
      <trkpt lat="47.24814" lon="-1.54463">
        <ele>36</ele>
        <time>2022-01-20T15:26:28Z</time>
      </trkpt>
      <trkpt lat="47.24815" lon="-1.54462">
        <ele>35</ele>
        <time>2022-01-20T15:26:29Z</time>
      </trkpt>
      <trkpt lat="47.24817" lon="-1.54461">
        <ele>35</ele>
        <time>2022-01-20T15:26:30Z</time>
      </trkpt>
      <trkpt lat="47.24818" lon="-1.5446">
        <ele>35</ele>
        <time>2022-01-20T15:26:31Z</time>
      </trkpt>
      <trkpt lat="47.24819" lon="-1.54459">
        <ele>35</ele>
        <time>2022-01-20T15:26:32Z</time>
      </trkpt>
      <trkpt lat="47.24821" lon="-1.54458">
        <ele>35</ele>
        <time>2022-01-20T15:26:33Z</time>
      </trkpt>
      <trkpt lat="47.24822" lon="-1.54457">
        <ele>35</ele>
        <time>2022-01-20T15:26:34Z</time>
      </trkpt>
      <trkpt lat="47.24823" lon="-1.54456">
        <ele>35</ele>
        <time>2022-01-20T15:26:35Z</time>
      </trkpt>
      <trkpt lat="47.24825" lon="-1.54455">
        <ele>35</ele>
        <time>2022-01-20T15:26:36Z</time>
      </trkpt>
      <trkpt lat="47.24826" lon="-1.54453">
        <ele>35</ele>
        <time>2022-01-20T15:26:37Z</time>
      </trkpt>
      <trkpt lat="47.24827" lon="-1.54452">
        <ele>34</ele>
        <time>2022-01-20T15:26:38Z</time>
      </trkpt>
      <trkpt lat="47.24828" lon="-1.54451">
        <ele>34</ele>
        <time>2022-01-20T15:26:39Z</time>
      </trkpt>
      <trkpt lat="47.2483" lon="-1.5445">
        <ele>34</ele>
        <time>2022-01-20T15:26:40Z</time>
      </trkpt>
      <trkpt lat="47.24831" lon="-1.54448">
        <ele>34</ele>
        <time>2022-01-20T15:26:41Z</time>
      </trkpt>
      <trkpt lat="47.24833" lon="-1.54446">
        <ele>34</ele>
        <time>2022-01-20T15:26:42Z</time>
      </trkpt>
      <trkpt lat="47.24834" lon="-1.54444">
        <ele>34</ele>
        <time>2022-01-20T15:26:43Z</time>
      </trkpt>
      <trkpt lat="47.24836" lon="-1.54443">
        <ele>34</ele>
        <time>2022-01-20T15:26:44Z</time>
      </trkpt>
      <trkpt lat="47.24837" lon="-1.54442">
        <ele>33</ele>
        <time>2022-01-20T15:26:45Z</time>
      </trkpt>
      <trkpt lat="47.24838" lon="-1.54441">
        <ele>33</ele>
        <time>2022-01-20T15:26:46Z</time>
      </trkpt>
      <trkpt lat="47.24839" lon="-1.5444">
        <ele>33</ele>
        <time>2022-01-20T15:26:47Z</time>
      </trkpt>
      <trkpt lat="47.2484" lon="-1.54439">
        <ele>33</ele>
        <time>2022-01-20T15:26:48Z</time>
      </trkpt>
      <trkpt lat="47.24841" lon="-1.54438">
        <ele>33</ele>
        <time>2022-01-20T15:26:49Z</time>
      </trkpt>
      <trkpt lat="47.24842" lon="-1.54436">
        <ele>33</ele>
        <time>2022-01-20T15:26:50Z</time>
      </trkpt>
      <trkpt lat="47.24843" lon="-1.54435">
        <ele>33</ele>
        <time>2022-01-20T15:26:51Z</time>
      </trkpt>
      <trkpt lat="47.24845" lon="-1.54434">
        <ele>33</ele>
        <time>2022-01-20T15:26:52Z</time>
      </trkpt>
      <trkpt lat="47.24846" lon="-1.54433">
        <ele>33</ele>
        <time>2022-01-20T15:26:53Z</time>
      </trkpt>
      <trkpt lat="47.24847" lon="-1.54432">
        <ele>33</ele>
        <time>2022-01-20T15:26:54Z</time>
      </trkpt>
      <trkpt lat="47.24849" lon="-1.54431">
        <ele>32</ele>
        <time>2022-01-20T15:26:55Z</time>
      </trkpt>
      <trkpt lat="47.2485" lon="-1.5443">
        <ele>33</ele>
        <time>2022-01-20T15:26:56Z</time>
      </trkpt>
      <trkpt lat="47.24851" lon="-1.54428">
        <ele>33</ele>
        <time>2022-01-20T15:26:57Z</time>
      </trkpt>
      <trkpt lat="47.24852" lon="-1.54427">
        <ele>33</ele>
        <time>2022-01-20T15:26:58Z</time>
      </trkpt>
      <trkpt lat="47.24853" lon="-1.54425">
        <ele>33</ele>
        <time>2022-01-20T15:26:59Z</time>
      </trkpt>
      <trkpt lat="47.24854" lon="-1.54424">
        <ele>33</ele>
        <time>2022-01-20T15:27:00Z</time>
      </trkpt>
      <trkpt lat="47.24855" lon="-1.54423">
        <ele>34</ele>
        <time>2022-01-20T15:27:01Z</time>
      </trkpt>
      <trkpt lat="47.24855" lon="-1.54421">
        <ele>34</ele>
        <time>2022-01-20T15:27:02Z</time>
      </trkpt>
      <trkpt lat="47.24856" lon="-1.54419">
        <ele>34</ele>
        <time>2022-01-20T15:27:03Z</time>
      </trkpt>
      <trkpt lat="47.24857" lon="-1.54417">
        <ele>34</ele>
        <time>2022-01-20T15:27:04Z</time>
      </trkpt>
      <trkpt lat="47.24859" lon="-1.54416">
        <ele>33</ele>
        <time>2022-01-20T15:27:05Z</time>
      </trkpt>
      <trkpt lat="47.24859" lon="-1.54415">
        <ele>34</ele>
        <time>2022-01-20T15:27:06Z</time>
      </trkpt>
      <trkpt lat="47.2486" lon="-1.54415">
        <ele>34</ele>
        <time>2022-01-20T15:27:07Z</time>
      </trkpt>
      <trkpt lat="47.24862" lon="-1.54414">
        <ele>34</ele>
        <time>2022-01-20T15:27:08Z</time>
      </trkpt>
      <trkpt lat="47.24863" lon="-1.54413">
        <ele>34</ele>
        <time>2022-01-20T15:27:09Z</time>
      </trkpt>
      <trkpt lat="47.24865" lon="-1.54412">
        <ele>34</ele>
        <time>2022-01-20T15:27:10Z</time>
      </trkpt>
      <trkpt lat="47.24866" lon="-1.54411">
        <ele>34</ele>
        <time>2022-01-20T15:27:11Z</time>
      </trkpt>
      <trkpt lat="47.24867" lon="-1.5441">
        <ele>34</ele>
        <time>2022-01-20T15:27:12Z</time>
      </trkpt>
      <trkpt lat="47.24868" lon="-1.54409">
        <ele>34</ele>
        <time>2022-01-20T15:27:13Z</time>
      </trkpt>
      <trkpt lat="47.2487" lon="-1.54408">
        <ele>33</ele>
        <time>2022-01-20T15:27:14Z</time>
      </trkpt>
      <trkpt lat="47.24871" lon="-1.54407">
        <ele>34</ele>
        <time>2022-01-20T15:27:15Z</time>
      </trkpt>
      <trkpt lat="47.24872" lon="-1.54405">
        <ele>33</ele>
        <time>2022-01-20T15:27:16Z</time>
      </trkpt>
      <trkpt lat="47.24873" lon="-1.54404">
        <ele>33</ele>
        <time>2022-01-20T15:27:17Z</time>
      </trkpt>
      <trkpt lat="47.24874" lon="-1.54403">
        <ele>34</ele>
        <time>2022-01-20T15:27:18Z</time>
      </trkpt>
      <trkpt lat="47.24875" lon="-1.54401">
        <ele>33</ele>
        <time>2022-01-20T15:27:19Z</time>
      </trkpt>
      <trkpt lat="47.24876" lon="-1.54399">
        <ele>33</ele>
        <time>2022-01-20T15:27:20Z</time>
      </trkpt>
      <trkpt lat="47.24877" lon="-1.54398">
        <ele>33</ele>
        <time>2022-01-20T15:27:21Z</time>
      </trkpt>
      <trkpt lat="47.24878" lon="-1.54397">
        <ele>33</ele>
        <time>2022-01-20T15:27:22Z</time>
      </trkpt>
      <trkpt lat="47.24878" lon="-1.54396">
        <ele>34</ele>
        <time>2022-01-20T15:27:23Z</time>
      </trkpt>
      <trkpt lat="47.24879" lon="-1.54394">
        <ele>34</ele>
        <time>2022-01-20T15:27:24Z</time>
      </trkpt>
      <trkpt lat="47.2488" lon="-1.54393">
        <ele>34</ele>
        <time>2022-01-20T15:27:25Z</time>
      </trkpt>
      <trkpt lat="47.24881" lon="-1.54391">
        <ele>34</ele>
        <time>2022-01-20T15:27:26Z</time>
      </trkpt>
      <trkpt lat="47.24881" lon="-1.5439">
        <ele>34</ele>
        <time>2022-01-20T15:27:27Z</time>
      </trkpt>
      <trkpt lat="47.24882" lon="-1.54389">
        <ele>34</ele>
        <time>2022-01-20T15:27:28Z</time>
      </trkpt>
      <trkpt lat="47.24883" lon="-1.54387">
        <ele>34</ele>
        <time>2022-01-20T15:27:29Z</time>
      </trkpt>
      <trkpt lat="47.24884" lon="-1.54386">
        <ele>34</ele>
        <time>2022-01-20T15:27:30Z</time>
      </trkpt>
      <trkpt lat="47.24885" lon="-1.54384">
        <ele>34</ele>
        <time>2022-01-20T15:27:31Z</time>
      </trkpt>
      <trkpt lat="47.24886" lon="-1.54383">
        <ele>34</ele>
        <time>2022-01-20T15:27:32Z</time>
      </trkpt>
      <trkpt lat="47.24887" lon="-1.54382">
        <ele>34</ele>
        <time>2022-01-20T15:27:33Z</time>
      </trkpt>
      <trkpt lat="47.24888" lon="-1.5438">
        <ele>34</ele>
        <time>2022-01-20T15:27:34Z</time>
      </trkpt>
      <trkpt lat="47.24889" lon="-1.54378">
        <ele>34</ele>
        <time>2022-01-20T15:27:35Z</time>
      </trkpt>
      <trkpt lat="47.24891" lon="-1.54377">
        <ele>34</ele>
        <time>2022-01-20T15:27:36Z</time>
      </trkpt>
      <trkpt lat="47.24892" lon="-1.54376">
        <ele>34</ele>
        <time>2022-01-20T15:27:37Z</time>
      </trkpt>
      <trkpt lat="47.24892" lon="-1.54375">
        <ele>34</ele>
        <time>2022-01-20T15:27:38Z</time>
      </trkpt>
      <trkpt lat="47.24894" lon="-1.54375">
        <ele>34</ele>
        <time>2022-01-20T15:27:39Z</time>
      </trkpt>
      <trkpt lat="47.24894" lon="-1.54374">
        <ele>34</ele>
        <time>2022-01-20T15:27:40Z</time>
      </trkpt>
      <trkpt lat="47.24896" lon="-1.54372">
        <ele>34</ele>
        <time>2022-01-20T15:27:41Z</time>
      </trkpt>
      <trkpt lat="47.24897" lon="-1.54371">
        <ele>34</ele>
        <time>2022-01-20T15:27:42Z</time>
      </trkpt>
      <trkpt lat="47.24898" lon="-1.54369">
        <ele>34</ele>
        <time>2022-01-20T15:27:43Z</time>
      </trkpt>
      <trkpt lat="47.24899" lon="-1.54368">
        <ele>34</ele>
        <time>2022-01-20T15:27:44Z</time>
      </trkpt>
      <trkpt lat="47.249" lon="-1.54367">
        <ele>34</ele>
        <time>2022-01-20T15:27:45Z</time>
      </trkpt>
      <trkpt lat="47.24902" lon="-1.54367">
        <ele>34</ele>
        <time>2022-01-20T15:27:46Z</time>
      </trkpt>
      <trkpt lat="47.24903" lon="-1.54366">
        <ele>34</ele>
        <time>2022-01-20T15:27:47Z</time>
      </trkpt>
      <trkpt lat="47.24904" lon="-1.54364">
        <ele>34</ele>
        <time>2022-01-20T15:27:48Z</time>
      </trkpt>
      <trkpt lat="47.24905" lon="-1.54363">
        <ele>33</ele>
        <time>2022-01-20T15:27:49Z</time>
      </trkpt>
      <trkpt lat="47.24907" lon="-1.54362">
        <ele>33</ele>
        <time>2022-01-20T15:27:50Z</time>
      </trkpt>
      <trkpt lat="47.24908" lon="-1.54362">
        <ele>33</ele>
        <time>2022-01-20T15:27:51Z</time>
      </trkpt>
      <trkpt lat="47.24909" lon="-1.5436">
        <ele>33</ele>
        <time>2022-01-20T15:27:52Z</time>
      </trkpt>
      <trkpt lat="47.2491" lon="-1.54359">
        <ele>33</ele>
        <time>2022-01-20T15:27:53Z</time>
      </trkpt>
      <trkpt lat="47.24911" lon="-1.54358">
        <ele>33</ele>
        <time>2022-01-20T15:27:54Z</time>
      </trkpt>
      <trkpt lat="47.24912" lon="-1.54357">
        <ele>34</ele>
        <time>2022-01-20T15:27:55Z</time>
      </trkpt>
      <trkpt lat="47.24913" lon="-1.54356">
        <ele>34</ele>
        <time>2022-01-20T15:27:56Z</time>
      </trkpt>
      <trkpt lat="47.24913" lon="-1.54355">
        <ele>34</ele>
        <time>2022-01-20T15:27:57Z</time>
      </trkpt>
      <trkpt lat="47.24915" lon="-1.54354">
        <ele>34</ele>
        <time>2022-01-20T15:27:58Z</time>
      </trkpt>
      <trkpt lat="47.24916" lon="-1.54353">
        <ele>34</ele>
        <time>2022-01-20T15:27:59Z</time>
      </trkpt>
      <trkpt lat="47.24917" lon="-1.54351">
        <ele>34</ele>
        <time>2022-01-20T15:28:00Z</time>
      </trkpt>
      <trkpt lat="47.24919" lon="-1.54351">
        <ele>34</ele>
        <time>2022-01-20T15:28:01Z</time>
      </trkpt>
      <trkpt lat="47.2492" lon="-1.5435">
        <ele>33</ele>
        <time>2022-01-20T15:28:02Z</time>
      </trkpt>
      <trkpt lat="47.24921" lon="-1.54349">
        <ele>33</ele>
        <time>2022-01-20T15:28:03Z</time>
      </trkpt>
      <trkpt lat="47.24921" lon="-1.54348">
        <ele>33</ele>
        <time>2022-01-20T15:28:04Z</time>
      </trkpt>
      <trkpt lat="47.24923" lon="-1.54346">
        <ele>33</ele>
        <time>2022-01-20T15:28:05Z</time>
      </trkpt>
      <trkpt lat="47.24923" lon="-1.54344">
        <ele>33</ele>
        <time>2022-01-20T15:28:06Z</time>
      </trkpt>
      <trkpt lat="47.24925" lon="-1.54343">
        <ele>33</ele>
        <time>2022-01-20T15:28:07Z</time>
      </trkpt>
      <trkpt lat="47.24926" lon="-1.54342">
        <ele>33</ele>
        <time>2022-01-20T15:28:08Z</time>
      </trkpt>
      <trkpt lat="47.24927" lon="-1.5434">
        <ele>34</ele>
        <time>2022-01-20T15:28:09Z</time>
      </trkpt>
      <trkpt lat="47.24928" lon="-1.54339">
        <ele>34</ele>
        <time>2022-01-20T15:28:10Z</time>
      </trkpt>
      <trkpt lat="47.24929" lon="-1.54338">
        <ele>34</ele>
        <time>2022-01-20T15:28:11Z</time>
      </trkpt>
      <trkpt lat="47.2493" lon="-1.54336">
        <ele>34</ele>
        <time>2022-01-20T15:28:12Z</time>
      </trkpt>
      <trkpt lat="47.24931" lon="-1.54335">
        <ele>34</ele>
        <time>2022-01-20T15:28:13Z</time>
      </trkpt>
      <trkpt lat="47.24932" lon="-1.54334">
        <ele>34</ele>
        <time>2022-01-20T15:28:14Z</time>
      </trkpt>
      <trkpt lat="47.24933" lon="-1.54332">
        <ele>34</ele>
        <time>2022-01-20T15:28:15Z</time>
      </trkpt>
      <trkpt lat="47.24934" lon="-1.54331">
        <ele>34</ele>
        <time>2022-01-20T15:28:16Z</time>
      </trkpt>
      <trkpt lat="47.24934" lon="-1.5433">
        <ele>34</ele>
        <time>2022-01-20T15:28:17Z</time>
      </trkpt>
      <trkpt lat="47.24935" lon="-1.54328">
        <ele>34</ele>
        <time>2022-01-20T15:28:18Z</time>
      </trkpt>
      <trkpt lat="47.24936" lon="-1.54327">
        <ele>33</ele>
        <time>2022-01-20T15:28:19Z</time>
      </trkpt>
      <trkpt lat="47.24937" lon="-1.54326">
        <ele>33</ele>
        <time>2022-01-20T15:28:20Z</time>
      </trkpt>
      <trkpt lat="47.24938" lon="-1.54326">
        <ele>33</ele>
        <time>2022-01-20T15:28:21Z</time>
      </trkpt>
      <trkpt lat="47.24939" lon="-1.54325">
        <ele>33</ele>
        <time>2022-01-20T15:28:22Z</time>
      </trkpt>
      <trkpt lat="47.24941" lon="-1.54325">
        <ele>33</ele>
        <time>2022-01-20T15:28:23Z</time>
      </trkpt>
      <trkpt lat="47.24942" lon="-1.54324">
        <ele>33</ele>
        <time>2022-01-20T15:28:24Z</time>
      </trkpt>
      <trkpt lat="47.24943" lon="-1.54323">
        <ele>33</ele>
        <time>2022-01-20T15:28:25Z</time>
      </trkpt>
      <trkpt lat="47.24944" lon="-1.54322">
        <ele>33</ele>
        <time>2022-01-20T15:28:26Z</time>
      </trkpt>
      <trkpt lat="47.24945" lon="-1.54321">
        <ele>32</ele>
        <time>2022-01-20T15:28:27Z</time>
      </trkpt>
      <trkpt lat="47.24946" lon="-1.54319">
        <ele>32</ele>
        <time>2022-01-20T15:28:28Z</time>
      </trkpt>
      <trkpt lat="47.24947" lon="-1.54319">
        <ele>33</ele>
        <time>2022-01-20T15:28:29Z</time>
      </trkpt>
      <trkpt lat="47.24949" lon="-1.54318">
        <ele>33</ele>
        <time>2022-01-20T15:28:30Z</time>
      </trkpt>
      <trkpt lat="47.24949" lon="-1.54317">
        <ele>33</ele>
        <time>2022-01-20T15:28:31Z</time>
      </trkpt>
      <trkpt lat="47.2495" lon="-1.54316">
        <ele>33</ele>
        <time>2022-01-20T15:28:32Z</time>
      </trkpt>
      <trkpt lat="47.24951" lon="-1.54315">
        <ele>33</ele>
        <time>2022-01-20T15:28:33Z</time>
      </trkpt>
      <trkpt lat="47.24952" lon="-1.54314">
        <ele>33</ele>
        <time>2022-01-20T15:28:34Z</time>
      </trkpt>
      <trkpt lat="47.24953" lon="-1.54313">
        <ele>33</ele>
        <time>2022-01-20T15:28:35Z</time>
      </trkpt>
      <trkpt lat="47.24954" lon="-1.54312">
        <ele>33</ele>
        <time>2022-01-20T15:28:36Z</time>
      </trkpt>
      <trkpt lat="47.24955" lon="-1.54311">
        <ele>32</ele>
        <time>2022-01-20T15:28:37Z</time>
      </trkpt>
      <trkpt lat="47.24956" lon="-1.5431">
        <ele>32</ele>
        <time>2022-01-20T15:28:38Z</time>
      </trkpt>
      <trkpt lat="47.24957" lon="-1.54308">
        <ele>32</ele>
        <time>2022-01-20T15:28:39Z</time>
      </trkpt>
      <trkpt lat="47.24958" lon="-1.54307">
        <ele>32</ele>
        <time>2022-01-20T15:28:40Z</time>
      </trkpt>
      <trkpt lat="47.24959" lon="-1.54305">
        <ele>32</ele>
        <time>2022-01-20T15:28:41Z</time>
      </trkpt>
      <trkpt lat="47.2496" lon="-1.54304">
        <ele>32</ele>
        <time>2022-01-20T15:28:42Z</time>
      </trkpt>
      <trkpt lat="47.2496" lon="-1.54303">
        <ele>32</ele>
        <time>2022-01-20T15:28:43Z</time>
      </trkpt>
      <trkpt lat="47.24961" lon="-1.54302">
        <ele>33</ele>
        <time>2022-01-20T15:28:44Z</time>
      </trkpt>
      <trkpt lat="47.24962" lon="-1.54301">
        <ele>33</ele>
        <time>2022-01-20T15:28:45Z</time>
      </trkpt>
      <trkpt lat="47.24962" lon="-1.54301">
        <ele>32</ele>
        <time>2022-01-20T15:28:46Z</time>
      </trkpt>
      <trkpt lat="47.24962" lon="-1.543">
        <ele>32</ele>
        <time>2022-01-20T15:28:47Z</time>
      </trkpt>
      <trkpt lat="47.24963" lon="-1.54299">
        <ele>32</ele>
        <time>2022-01-20T15:28:48Z</time>
      </trkpt>
      <trkpt lat="47.24964" lon="-1.54297">
        <ele>33</ele>
        <time>2022-01-20T15:28:49Z</time>
      </trkpt>
      <trkpt lat="47.24965" lon="-1.54295">
        <ele>33</ele>
        <time>2022-01-20T15:28:50Z</time>
      </trkpt>
      <trkpt lat="47.24965" lon="-1.54293">
        <ele>33</ele>
        <time>2022-01-20T15:28:51Z</time>
      </trkpt>
      <trkpt lat="47.24966" lon="-1.54291">
        <ele>33</ele>
        <time>2022-01-20T15:28:52Z</time>
      </trkpt>
      <trkpt lat="47.24967" lon="-1.54289">
        <ele>32</ele>
        <time>2022-01-20T15:28:53Z</time>
      </trkpt>
      <trkpt lat="47.24968" lon="-1.54288">
        <ele>32</ele>
        <time>2022-01-20T15:28:54Z</time>
      </trkpt>
      <trkpt lat="47.24968" lon="-1.54286">
        <ele>32</ele>
        <time>2022-01-20T15:28:55Z</time>
      </trkpt>
      <trkpt lat="47.24969" lon="-1.54284">
        <ele>32</ele>
        <time>2022-01-20T15:28:56Z</time>
      </trkpt>
      <trkpt lat="47.2497" lon="-1.54283">
        <ele>33</ele>
        <time>2022-01-20T15:28:57Z</time>
      </trkpt>
      <trkpt lat="47.2497" lon="-1.54281">
        <ele>33</ele>
        <time>2022-01-20T15:28:58Z</time>
      </trkpt>
      <trkpt lat="47.2497" lon="-1.54279">
        <ele>33</ele>
        <time>2022-01-20T15:28:59Z</time>
      </trkpt>
      <trkpt lat="47.24971" lon="-1.54277">
        <ele>33</ele>
        <time>2022-01-20T15:29:00Z</time>
      </trkpt>
      <trkpt lat="47.24971" lon="-1.54276">
        <ele>34</ele>
        <time>2022-01-20T15:29:01Z</time>
      </trkpt>
      <trkpt lat="47.24973" lon="-1.54274">
        <ele>34</ele>
        <time>2022-01-20T15:29:02Z</time>
      </trkpt>
      <trkpt lat="47.24974" lon="-1.54273">
        <ele>34</ele>
        <time>2022-01-20T15:29:03Z</time>
      </trkpt>
      <trkpt lat="47.24975" lon="-1.54271">
        <ele>34</ele>
        <time>2022-01-20T15:29:04Z</time>
      </trkpt>
      <trkpt lat="47.24976" lon="-1.5427">
        <ele>34</ele>
        <time>2022-01-20T15:29:05Z</time>
      </trkpt>
      <trkpt lat="47.24977" lon="-1.54268">
        <ele>34</ele>
        <time>2022-01-20T15:29:06Z</time>
      </trkpt>
      <trkpt lat="47.24978" lon="-1.54266">
        <ele>34</ele>
        <time>2022-01-20T15:29:07Z</time>
      </trkpt>
      <trkpt lat="47.24979" lon="-1.54264">
        <ele>34</ele>
        <time>2022-01-20T15:29:08Z</time>
      </trkpt>
      <trkpt lat="47.24981" lon="-1.54263">
        <ele>35</ele>
        <time>2022-01-20T15:29:09Z</time>
      </trkpt>
      <trkpt lat="47.24981" lon="-1.54261">
        <ele>35</ele>
        <time>2022-01-20T15:29:10Z</time>
      </trkpt>
      <trkpt lat="47.24983" lon="-1.5426">
        <ele>35</ele>
        <time>2022-01-20T15:29:11Z</time>
      </trkpt>
      <trkpt lat="47.24984" lon="-1.54258">
        <ele>35</ele>
        <time>2022-01-20T15:29:12Z</time>
      </trkpt>
      <trkpt lat="47.24985" lon="-1.54257">
        <ele>35</ele>
        <time>2022-01-20T15:29:13Z</time>
      </trkpt>
      <trkpt lat="47.24986" lon="-1.54256">
        <ele>35</ele>
        <time>2022-01-20T15:29:14Z</time>
      </trkpt>
      <trkpt lat="47.24987" lon="-1.54254">
        <ele>35</ele>
        <time>2022-01-20T15:29:15Z</time>
      </trkpt>
      <trkpt lat="47.24988" lon="-1.54253">
        <ele>35</ele>
        <time>2022-01-20T15:29:16Z</time>
      </trkpt>
      <trkpt lat="47.24989" lon="-1.54252">
        <ele>36</ele>
        <time>2022-01-20T15:29:17Z</time>
      </trkpt>
      <trkpt lat="47.2499" lon="-1.5425">
        <ele>36</ele>
        <time>2022-01-20T15:29:18Z</time>
      </trkpt>
      <trkpt lat="47.24991" lon="-1.54249">
        <ele>36</ele>
        <time>2022-01-20T15:29:19Z</time>
      </trkpt>
      <trkpt lat="47.24992" lon="-1.54248">
        <ele>36</ele>
        <time>2022-01-20T15:29:20Z</time>
      </trkpt>
      <trkpt lat="47.24993" lon="-1.54246">
        <ele>36</ele>
        <time>2022-01-20T15:29:21Z</time>
      </trkpt>
      <trkpt lat="47.24994" lon="-1.54245">
        <ele>36</ele>
        <time>2022-01-20T15:29:22Z</time>
      </trkpt>
      <trkpt lat="47.24995" lon="-1.54243">
        <ele>35</ele>
        <time>2022-01-20T15:29:23Z</time>
      </trkpt>
      <trkpt lat="47.24996" lon="-1.54242">
        <ele>35</ele>
        <time>2022-01-20T15:29:24Z</time>
      </trkpt>
      <trkpt lat="47.24997" lon="-1.54241">
        <ele>35</ele>
        <time>2022-01-20T15:29:25Z</time>
      </trkpt>
      <trkpt lat="47.24998" lon="-1.5424">
        <ele>35</ele>
        <time>2022-01-20T15:29:26Z</time>
      </trkpt>
      <trkpt lat="47.24999" lon="-1.54238">
        <ele>35</ele>
        <time>2022-01-20T15:29:27Z</time>
      </trkpt>
      <trkpt lat="47.25" lon="-1.54236">
        <ele>35</ele>
        <time>2022-01-20T15:29:28Z</time>
      </trkpt>
      <trkpt lat="47.25002" lon="-1.54235">
        <ele>35</ele>
        <time>2022-01-20T15:29:29Z</time>
      </trkpt>
      <trkpt lat="47.25002" lon="-1.54234">
        <ele>35</ele>
        <time>2022-01-20T15:29:30Z</time>
      </trkpt>
      <trkpt lat="47.25004" lon="-1.54233">
        <ele>34</ele>
        <time>2022-01-20T15:29:31Z</time>
      </trkpt>
      <trkpt lat="47.25005" lon="-1.54231">
        <ele>35</ele>
        <time>2022-01-20T15:29:32Z</time>
      </trkpt>
      <trkpt lat="47.25006" lon="-1.5423">
        <ele>35</ele>
        <time>2022-01-20T15:29:33Z</time>
      </trkpt>
      <trkpt lat="47.25008" lon="-1.54228">
        <ele>35</ele>
        <time>2022-01-20T15:29:34Z</time>
      </trkpt>
      <trkpt lat="47.25009" lon="-1.54227">
        <ele>35</ele>
        <time>2022-01-20T15:29:35Z</time>
      </trkpt>
      <trkpt lat="47.2501" lon="-1.54226">
        <ele>36</ele>
        <time>2022-01-20T15:29:36Z</time>
      </trkpt>
      <trkpt lat="47.25011" lon="-1.54224">
        <ele>36</ele>
        <time>2022-01-20T15:29:37Z</time>
      </trkpt>
      <trkpt lat="47.25012" lon="-1.54223">
        <ele>36</ele>
        <time>2022-01-20T15:29:38Z</time>
      </trkpt>
      <trkpt lat="47.25013" lon="-1.54222">
        <ele>36</ele>
        <time>2022-01-20T15:29:39Z</time>
      </trkpt>
      <trkpt lat="47.25015" lon="-1.54221">
        <ele>36</ele>
        <time>2022-01-20T15:29:40Z</time>
      </trkpt>
      <trkpt lat="47.25016" lon="-1.5422">
        <ele>36</ele>
        <time>2022-01-20T15:29:41Z</time>
      </trkpt>
      <trkpt lat="47.25017" lon="-1.54219">
        <ele>37</ele>
        <time>2022-01-20T15:29:42Z</time>
      </trkpt>
      <trkpt lat="47.25018" lon="-1.54218">
        <ele>37</ele>
        <time>2022-01-20T15:29:43Z</time>
      </trkpt>
      <trkpt lat="47.25019" lon="-1.54216">
        <ele>37</ele>
        <time>2022-01-20T15:29:44Z</time>
      </trkpt>
      <trkpt lat="47.2502" lon="-1.54215">
        <ele>38</ele>
        <time>2022-01-20T15:29:45Z</time>
      </trkpt>
      <trkpt lat="47.25021" lon="-1.54214">
        <ele>37</ele>
        <time>2022-01-20T15:29:46Z</time>
      </trkpt>
      <trkpt lat="47.25021" lon="-1.54213">
        <ele>37</ele>
        <time>2022-01-20T15:29:47Z</time>
      </trkpt>
      <trkpt lat="47.25022" lon="-1.54211">
        <ele>37</ele>
        <time>2022-01-20T15:29:48Z</time>
      </trkpt>
      <trkpt lat="47.25023" lon="-1.5421">
        <ele>38</ele>
        <time>2022-01-20T15:29:49Z</time>
      </trkpt>
      <trkpt lat="47.25024" lon="-1.54209">
        <ele>38</ele>
        <time>2022-01-20T15:29:50Z</time>
      </trkpt>
      <trkpt lat="47.25026" lon="-1.54208">
        <ele>39</ele>
        <time>2022-01-20T15:29:51Z</time>
      </trkpt>
      <trkpt lat="47.25027" lon="-1.54207">
        <ele>38</ele>
        <time>2022-01-20T15:29:52Z</time>
      </trkpt>
      <trkpt lat="47.25028" lon="-1.54205">
        <ele>39</ele>
        <time>2022-01-20T15:29:53Z</time>
      </trkpt>
      <trkpt lat="47.25029" lon="-1.54204">
        <ele>39</ele>
        <time>2022-01-20T15:29:54Z</time>
      </trkpt>
      <trkpt lat="47.2503" lon="-1.54204">
        <ele>39</ele>
        <time>2022-01-20T15:29:55Z</time>
      </trkpt>
      <trkpt lat="47.25031" lon="-1.54203">
        <ele>39</ele>
        <time>2022-01-20T15:29:56Z</time>
      </trkpt>
      <trkpt lat="47.25032" lon="-1.54203">
        <ele>39</ele>
        <time>2022-01-20T15:29:57Z</time>
      </trkpt>
      <trkpt lat="47.25033" lon="-1.54202">
        <ele>38</ele>
        <time>2022-01-20T15:29:58Z</time>
      </trkpt>
      <trkpt lat="47.25034" lon="-1.54201">
        <ele>38</ele>
        <time>2022-01-20T15:29:59Z</time>
      </trkpt>
      <trkpt lat="47.25036" lon="-1.542">
        <ele>38</ele>
        <time>2022-01-20T15:30:00Z</time>
      </trkpt>
      <trkpt lat="47.25037" lon="-1.54199">
        <ele>38</ele>
        <time>2022-01-20T15:30:01Z</time>
      </trkpt>
      <trkpt lat="47.25038" lon="-1.54198">
        <ele>38</ele>
        <time>2022-01-20T15:30:02Z</time>
      </trkpt>
      <trkpt lat="47.25039" lon="-1.54196">
        <ele>38</ele>
        <time>2022-01-20T15:30:03Z</time>
      </trkpt>
      <trkpt lat="47.25039" lon="-1.54195">
        <ele>38</ele>
        <time>2022-01-20T15:30:04Z</time>
      </trkpt>
      <trkpt lat="47.2504" lon="-1.54193">
        <ele>38</ele>
        <time>2022-01-20T15:30:05Z</time>
      </trkpt>
      <trkpt lat="47.25042" lon="-1.54192">
        <ele>38</ele>
        <time>2022-01-20T15:30:06Z</time>
      </trkpt>
      <trkpt lat="47.25042" lon="-1.54191">
        <ele>38</ele>
        <time>2022-01-20T15:30:07Z</time>
      </trkpt>
      <trkpt lat="47.25044" lon="-1.5419">
        <ele>38</ele>
        <time>2022-01-20T15:30:08Z</time>
      </trkpt>
      <trkpt lat="47.25045" lon="-1.54189">
        <ele>38</ele>
        <time>2022-01-20T15:30:09Z</time>
      </trkpt>
      <trkpt lat="47.25045" lon="-1.54188">
        <ele>38</ele>
        <time>2022-01-20T15:30:10Z</time>
      </trkpt>
      <trkpt lat="47.25047" lon="-1.54188">
        <ele>38</ele>
        <time>2022-01-20T15:30:11Z</time>
      </trkpt>
      <trkpt lat="47.25047" lon="-1.54186">
        <ele>37</ele>
        <time>2022-01-20T15:30:12Z</time>
      </trkpt>
      <trkpt lat="47.25048" lon="-1.54185">
        <ele>37</ele>
        <time>2022-01-20T15:30:13Z</time>
      </trkpt>
      <trkpt lat="47.2505" lon="-1.54184">
        <ele>37</ele>
        <time>2022-01-20T15:30:14Z</time>
      </trkpt>
      <trkpt lat="47.2505" lon="-1.54182">
        <ele>37</ele>
        <time>2022-01-20T15:30:15Z</time>
      </trkpt>
      <trkpt lat="47.25051" lon="-1.54181">
        <ele>37</ele>
        <time>2022-01-20T15:30:16Z</time>
      </trkpt>
      <trkpt lat="47.25052" lon="-1.5418">
        <ele>37</ele>
        <time>2022-01-20T15:30:17Z</time>
      </trkpt>
      <trkpt lat="47.25053" lon="-1.54178">
        <ele>37</ele>
        <time>2022-01-20T15:30:18Z</time>
      </trkpt>
      <trkpt lat="47.25054" lon="-1.54177">
        <ele>37</ele>
        <time>2022-01-20T15:30:19Z</time>
      </trkpt>
      <trkpt lat="47.25056" lon="-1.54176">
        <ele>37</ele>
        <time>2022-01-20T15:30:20Z</time>
      </trkpt>
      <trkpt lat="47.25057" lon="-1.54174">
        <ele>36</ele>
        <time>2022-01-20T15:30:21Z</time>
      </trkpt>
      <trkpt lat="47.25058" lon="-1.54173">
        <ele>36</ele>
        <time>2022-01-20T15:30:22Z</time>
      </trkpt>
      <trkpt lat="47.25059" lon="-1.54172">
        <ele>36</ele>
        <time>2022-01-20T15:30:23Z</time>
      </trkpt>
      <trkpt lat="47.2506" lon="-1.54171">
        <ele>36</ele>
        <time>2022-01-20T15:30:24Z</time>
      </trkpt>
      <trkpt lat="47.2506" lon="-1.54169">
        <ele>36</ele>
        <time>2022-01-20T15:30:25Z</time>
      </trkpt>
      <trkpt lat="47.2506" lon="-1.5417">
        <ele>36</ele>
        <time>2022-01-20T15:30:26Z</time>
      </trkpt>
      <trkpt lat="47.2506" lon="-1.54169">
        <ele>36</ele>
        <time>2022-01-20T15:30:27Z</time>
      </trkpt>
      <trkpt lat="47.25061" lon="-1.54168">
        <ele>36</ele>
        <time>2022-01-20T15:30:28Z</time>
      </trkpt>
      <trkpt lat="47.25062" lon="-1.54167">
        <ele>36</ele>
        <time>2022-01-20T15:30:29Z</time>
      </trkpt>
      <trkpt lat="47.25063" lon="-1.54166">
        <ele>36</ele>
        <time>2022-01-20T15:30:30Z</time>
      </trkpt>
      <trkpt lat="47.25064" lon="-1.54165">
        <ele>36</ele>
        <time>2022-01-20T15:30:31Z</time>
      </trkpt>
      <trkpt lat="47.25065" lon="-1.54164">
        <ele>36</ele>
        <time>2022-01-20T15:30:32Z</time>
      </trkpt>
      <trkpt lat="47.25066" lon="-1.54163">
        <ele>37</ele>
        <time>2022-01-20T15:30:33Z</time>
      </trkpt>
      <trkpt lat="47.25066" lon="-1.54162">
        <ele>37</ele>
        <time>2022-01-20T15:30:34Z</time>
      </trkpt>
      <trkpt lat="47.25068" lon="-1.54161">
        <ele>37</ele>
        <time>2022-01-20T15:30:35Z</time>
      </trkpt>
      <trkpt lat="47.25069" lon="-1.54159">
        <ele>37</ele>
        <time>2022-01-20T15:30:36Z</time>
      </trkpt>
      <trkpt lat="47.2507" lon="-1.54157">
        <ele>37</ele>
        <time>2022-01-20T15:30:37Z</time>
      </trkpt>
      <trkpt lat="47.25071" lon="-1.54156">
        <ele>37</ele>
        <time>2022-01-20T15:30:38Z</time>
      </trkpt>
      <trkpt lat="47.25072" lon="-1.54154">
        <ele>37</ele>
        <time>2022-01-20T15:30:39Z</time>
      </trkpt>
      <trkpt lat="47.25074" lon="-1.54153">
        <ele>36</ele>
        <time>2022-01-20T15:30:40Z</time>
      </trkpt>
      <trkpt lat="47.25075" lon="-1.54151">
        <ele>36</ele>
        <time>2022-01-20T15:30:41Z</time>
      </trkpt>
      <trkpt lat="47.25076" lon="-1.54149">
        <ele>36</ele>
        <time>2022-01-20T15:30:42Z</time>
      </trkpt>
      <trkpt lat="47.25077" lon="-1.54148">
        <ele>36</ele>
        <time>2022-01-20T15:30:43Z</time>
      </trkpt>
      <trkpt lat="47.25079" lon="-1.54146">
        <ele>36</ele>
        <time>2022-01-20T15:30:44Z</time>
      </trkpt>
      <trkpt lat="47.2508" lon="-1.54145">
        <ele>36</ele>
        <time>2022-01-20T15:30:45Z</time>
      </trkpt>
      <trkpt lat="47.25081" lon="-1.54144">
        <ele>35</ele>
        <time>2022-01-20T15:30:46Z</time>
      </trkpt>
      <trkpt lat="47.25082" lon="-1.54143">
        <ele>35</ele>
        <time>2022-01-20T15:30:47Z</time>
      </trkpt>
      <trkpt lat="47.25083" lon="-1.54142">
        <ele>35</ele>
        <time>2022-01-20T15:30:48Z</time>
      </trkpt>
      <trkpt lat="47.25085" lon="-1.54141">
        <ele>35</ele>
        <time>2022-01-20T15:30:49Z</time>
      </trkpt>
      <trkpt lat="47.25086" lon="-1.5414">
        <ele>35</ele>
        <time>2022-01-20T15:30:50Z</time>
      </trkpt>
      <trkpt lat="47.25087" lon="-1.54139">
        <ele>35</ele>
        <time>2022-01-20T15:30:51Z</time>
      </trkpt>
      <trkpt lat="47.25088" lon="-1.54137">
        <ele>35</ele>
        <time>2022-01-20T15:30:52Z</time>
      </trkpt>
      <trkpt lat="47.25089" lon="-1.54136">
        <ele>35</ele>
        <time>2022-01-20T15:30:53Z</time>
      </trkpt>
      <trkpt lat="47.2509" lon="-1.54135">
        <ele>35</ele>
        <time>2022-01-20T15:30:54Z</time>
      </trkpt>
      <trkpt lat="47.25092" lon="-1.54134">
        <ele>35</ele>
        <time>2022-01-20T15:30:55Z</time>
      </trkpt>
      <trkpt lat="47.25093" lon="-1.54133">
        <ele>35</ele>
        <time>2022-01-20T15:30:56Z</time>
      </trkpt>
      <trkpt lat="47.25094" lon="-1.54132">
        <ele>34</ele>
        <time>2022-01-20T15:30:57Z</time>
      </trkpt>
      <trkpt lat="47.25095" lon="-1.54132">
        <ele>34</ele>
        <time>2022-01-20T15:30:58Z</time>
      </trkpt>
      <trkpt lat="47.25096" lon="-1.54131">
        <ele>34</ele>
        <time>2022-01-20T15:30:59Z</time>
      </trkpt>
      <trkpt lat="47.25097" lon="-1.5413">
        <ele>34</ele>
        <time>2022-01-20T15:31:00Z</time>
      </trkpt>
      <trkpt lat="47.25099" lon="-1.5413">
        <ele>34</ele>
        <time>2022-01-20T15:31:01Z</time>
      </trkpt>
      <trkpt lat="47.251" lon="-1.54129">
        <ele>34</ele>
        <time>2022-01-20T15:31:02Z</time>
      </trkpt>
      <trkpt lat="47.25102" lon="-1.54129">
        <ele>34</ele>
        <time>2022-01-20T15:31:03Z</time>
      </trkpt>
      <trkpt lat="47.25103" lon="-1.54128">
        <ele>34</ele>
        <time>2022-01-20T15:31:04Z</time>
      </trkpt>
      <trkpt lat="47.25104" lon="-1.54128">
        <ele>34</ele>
        <time>2022-01-20T15:31:05Z</time>
      </trkpt>
      <trkpt lat="47.25105" lon="-1.54127">
        <ele>34</ele>
        <time>2022-01-20T15:31:06Z</time>
      </trkpt>
      <trkpt lat="47.25106" lon="-1.54126">
        <ele>34</ele>
        <time>2022-01-20T15:31:07Z</time>
      </trkpt>
      <trkpt lat="47.25107" lon="-1.54125">
        <ele>34</ele>
        <time>2022-01-20T15:31:08Z</time>
      </trkpt>
      <trkpt lat="47.25108" lon="-1.54125">
        <ele>34</ele>
        <time>2022-01-20T15:31:09Z</time>
      </trkpt>
      <trkpt lat="47.25108" lon="-1.54124">
        <ele>34</ele>
        <time>2022-01-20T15:31:10Z</time>
      </trkpt>
      <trkpt lat="47.2511" lon="-1.54123">
        <ele>34</ele>
        <time>2022-01-20T15:31:11Z</time>
      </trkpt>
      <trkpt lat="47.25111" lon="-1.54122">
        <ele>34</ele>
        <time>2022-01-20T15:31:12Z</time>
      </trkpt>
      <trkpt lat="47.25112" lon="-1.54121">
        <ele>34</ele>
        <time>2022-01-20T15:31:13Z</time>
      </trkpt>
      <trkpt lat="47.25113" lon="-1.5412">
        <ele>34</ele>
        <time>2022-01-20T15:31:14Z</time>
      </trkpt>
      <trkpt lat="47.25114" lon="-1.54119">
        <ele>34</ele>
        <time>2022-01-20T15:31:15Z</time>
      </trkpt>
      <trkpt lat="47.25116" lon="-1.54118">
        <ele>35</ele>
        <time>2022-01-20T15:31:16Z</time>
      </trkpt>
      <trkpt lat="47.25118" lon="-1.54117">
        <ele>35</ele>
        <time>2022-01-20T15:31:17Z</time>
      </trkpt>
      <trkpt lat="47.25119" lon="-1.54116">
        <ele>35</ele>
        <time>2022-01-20T15:31:18Z</time>
      </trkpt>
      <trkpt lat="47.2512" lon="-1.54115">
        <ele>35</ele>
        <time>2022-01-20T15:31:19Z</time>
      </trkpt>
      <trkpt lat="47.25121" lon="-1.54114">
        <ele>35</ele>
        <time>2022-01-20T15:31:20Z</time>
      </trkpt>
      <trkpt lat="47.25122" lon="-1.54113">
        <ele>35</ele>
        <time>2022-01-20T15:31:21Z</time>
      </trkpt>
      <trkpt lat="47.25123" lon="-1.54113">
        <ele>36</ele>
        <time>2022-01-20T15:31:22Z</time>
      </trkpt>
      <trkpt lat="47.25124" lon="-1.54112">
        <ele>36</ele>
        <time>2022-01-20T15:31:23Z</time>
      </trkpt>
      <trkpt lat="47.25126" lon="-1.54111">
        <ele>36</ele>
        <time>2022-01-20T15:31:24Z</time>
      </trkpt>
      <trkpt lat="47.25126" lon="-1.5411">
        <ele>37</ele>
        <time>2022-01-20T15:31:25Z</time>
      </trkpt>
      <trkpt lat="47.25127" lon="-1.54109">
        <ele>37</ele>
        <time>2022-01-20T15:31:26Z</time>
      </trkpt>
      <trkpt lat="47.25128" lon="-1.54108">
        <ele>37</ele>
        <time>2022-01-20T15:31:27Z</time>
      </trkpt>
      <trkpt lat="47.25129" lon="-1.54106">
        <ele>37</ele>
        <time>2022-01-20T15:31:28Z</time>
      </trkpt>
      <trkpt lat="47.2513" lon="-1.54105">
        <ele>37</ele>
        <time>2022-01-20T15:31:29Z</time>
      </trkpt>
      <trkpt lat="47.25131" lon="-1.54104">
        <ele>37</ele>
        <time>2022-01-20T15:31:30Z</time>
      </trkpt>
      <trkpt lat="47.25132" lon="-1.54102">
        <ele>37</ele>
        <time>2022-01-20T15:31:31Z</time>
      </trkpt>
      <trkpt lat="47.25133" lon="-1.54101">
        <ele>37</ele>
        <time>2022-01-20T15:31:32Z</time>
      </trkpt>
      <trkpt lat="47.25134" lon="-1.541">
        <ele>36</ele>
        <time>2022-01-20T15:31:33Z</time>
      </trkpt>
      <trkpt lat="47.25135" lon="-1.54098">
        <ele>37</ele>
        <time>2022-01-20T15:31:34Z</time>
      </trkpt>
      <trkpt lat="47.25135" lon="-1.54097">
        <ele>36</ele>
        <time>2022-01-20T15:31:35Z</time>
      </trkpt>
      <trkpt lat="47.25136" lon="-1.54095">
        <ele>37</ele>
        <time>2022-01-20T15:31:36Z</time>
      </trkpt>
      <trkpt lat="47.25137" lon="-1.54093">
        <ele>37</ele>
        <time>2022-01-20T15:31:37Z</time>
      </trkpt>
      <trkpt lat="47.25139" lon="-1.54092">
        <ele>37</ele>
        <time>2022-01-20T15:31:38Z</time>
      </trkpt>
      <trkpt lat="47.25139" lon="-1.54091">
        <ele>37</ele>
        <time>2022-01-20T15:31:39Z</time>
      </trkpt>
      <trkpt lat="47.25141" lon="-1.54089">
        <ele>37</ele>
        <time>2022-01-20T15:31:40Z</time>
      </trkpt>
      <trkpt lat="47.25142" lon="-1.54088">
        <ele>37</ele>
        <time>2022-01-20T15:31:41Z</time>
      </trkpt>
      <trkpt lat="47.25143" lon="-1.54088">
        <ele>37</ele>
        <time>2022-01-20T15:31:42Z</time>
      </trkpt>
      <trkpt lat="47.25144" lon="-1.54087">
        <ele>37</ele>
        <time>2022-01-20T15:31:43Z</time>
      </trkpt>
      <trkpt lat="47.25144" lon="-1.54086">
        <ele>37</ele>
        <time>2022-01-20T15:31:44Z</time>
      </trkpt>
      <trkpt lat="47.25146" lon="-1.54085">
        <ele>37</ele>
        <time>2022-01-20T15:31:45Z</time>
      </trkpt>
      <trkpt lat="47.25147" lon="-1.54084">
        <ele>37</ele>
        <time>2022-01-20T15:31:46Z</time>
      </trkpt>
      <trkpt lat="47.25148" lon="-1.54083">
        <ele>37</ele>
        <time>2022-01-20T15:31:47Z</time>
      </trkpt>
      <trkpt lat="47.25148" lon="-1.54083">
        <ele>37</ele>
        <time>2022-01-20T15:31:48Z</time>
      </trkpt>
      <trkpt lat="47.2515" lon="-1.54082">
        <ele>37</ele>
        <time>2022-01-20T15:31:49Z</time>
      </trkpt>
      <trkpt lat="47.25151" lon="-1.54081">
        <ele>36</ele>
        <time>2022-01-20T15:31:50Z</time>
      </trkpt>
      <trkpt lat="47.25151" lon="-1.5408">
        <ele>36</ele>
        <time>2022-01-20T15:31:51Z</time>
      </trkpt>
      <trkpt lat="47.25153" lon="-1.5408">
        <ele>36</ele>
        <time>2022-01-20T15:31:52Z</time>
      </trkpt>
      <trkpt lat="47.25154" lon="-1.54079">
        <ele>36</ele>
        <time>2022-01-20T15:31:53Z</time>
      </trkpt>
      <trkpt lat="47.25155" lon="-1.54079">
        <ele>35</ele>
        <time>2022-01-20T15:31:54Z</time>
      </trkpt>
      <trkpt lat="47.25157" lon="-1.54079">
        <ele>35</ele>
        <time>2022-01-20T15:31:55Z</time>
      </trkpt>
      <trkpt lat="47.25158" lon="-1.54078">
        <ele>35</ele>
        <time>2022-01-20T15:31:56Z</time>
      </trkpt>
      <trkpt lat="47.25159" lon="-1.54078">
        <ele>35</ele>
        <time>2022-01-20T15:31:57Z</time>
      </trkpt>
      <trkpt lat="47.25161" lon="-1.54078">
        <ele>35</ele>
        <time>2022-01-20T15:31:58Z</time>
      </trkpt>
      <trkpt lat="47.25162" lon="-1.54078">
        <ele>34</ele>
        <time>2022-01-20T15:31:59Z</time>
      </trkpt>
      <trkpt lat="47.25163" lon="-1.54077">
        <ele>34</ele>
        <time>2022-01-20T15:32:00Z</time>
      </trkpt>
      <trkpt lat="47.25164" lon="-1.54077">
        <ele>34</ele>
        <time>2022-01-20T15:32:01Z</time>
      </trkpt>
      <trkpt lat="47.25166" lon="-1.54076">
        <ele>33</ele>
        <time>2022-01-20T15:32:02Z</time>
      </trkpt>
      <trkpt lat="47.25167" lon="-1.54076">
        <ele>34</ele>
        <time>2022-01-20T15:32:03Z</time>
      </trkpt>
      <trkpt lat="47.25168" lon="-1.54076">
        <ele>34</ele>
        <time>2022-01-20T15:32:04Z</time>
      </trkpt>
      <trkpt lat="47.2517" lon="-1.54075">
        <ele>34</ele>
        <time>2022-01-20T15:32:05Z</time>
      </trkpt>
      <trkpt lat="47.25171" lon="-1.54075">
        <ele>34</ele>
        <time>2022-01-20T15:32:06Z</time>
      </trkpt>
      <trkpt lat="47.25172" lon="-1.54075">
        <ele>34</ele>
        <time>2022-01-20T15:32:07Z</time>
      </trkpt>
      <trkpt lat="47.25174" lon="-1.54075">
        <ele>34</ele>
        <time>2022-01-20T15:32:08Z</time>
      </trkpt>
      <trkpt lat="47.25175" lon="-1.54074">
        <ele>34</ele>
        <time>2022-01-20T15:32:09Z</time>
      </trkpt>
      <trkpt lat="47.25176" lon="-1.54074">
        <ele>34</ele>
        <time>2022-01-20T15:32:10Z</time>
      </trkpt>
      <trkpt lat="47.25177" lon="-1.54073">
        <ele>34</ele>
        <time>2022-01-20T15:32:11Z</time>
      </trkpt>
      <trkpt lat="47.25179" lon="-1.54073">
        <ele>34</ele>
        <time>2022-01-20T15:32:12Z</time>
      </trkpt>
      <trkpt lat="47.2518" lon="-1.54072">
        <ele>34</ele>
        <time>2022-01-20T15:32:13Z</time>
      </trkpt>
      <trkpt lat="47.25181" lon="-1.54072">
        <ele>34</ele>
        <time>2022-01-20T15:32:14Z</time>
      </trkpt>
      <trkpt lat="47.25182" lon="-1.54071">
        <ele>34</ele>
        <time>2022-01-20T15:32:15Z</time>
      </trkpt>
      <trkpt lat="47.25183" lon="-1.54071">
        <ele>34</ele>
        <time>2022-01-20T15:32:16Z</time>
      </trkpt>
      <trkpt lat="47.25184" lon="-1.5407">
        <ele>34</ele>
        <time>2022-01-20T15:32:17Z</time>
      </trkpt>
      <trkpt lat="47.25185" lon="-1.5407">
        <ele>34</ele>
        <time>2022-01-20T15:32:18Z</time>
      </trkpt>
      <trkpt lat="47.25187" lon="-1.5407">
        <ele>35</ele>
        <time>2022-01-20T15:32:19Z</time>
      </trkpt>
      <trkpt lat="47.25188" lon="-1.54069">
        <ele>35</ele>
        <time>2022-01-20T15:32:20Z</time>
      </trkpt>
      <trkpt lat="47.25189" lon="-1.54068">
        <ele>35</ele>
        <time>2022-01-20T15:32:21Z</time>
      </trkpt>
      <trkpt lat="47.2519" lon="-1.54068">
        <ele>35</ele>
        <time>2022-01-20T15:32:22Z</time>
      </trkpt>
      <trkpt lat="47.25192" lon="-1.54067">
        <ele>36</ele>
        <time>2022-01-20T15:32:23Z</time>
      </trkpt>
      <trkpt lat="47.25193" lon="-1.54066">
        <ele>36</ele>
        <time>2022-01-20T15:32:24Z</time>
      </trkpt>
      <trkpt lat="47.25194" lon="-1.54066">
        <ele>36</ele>
        <time>2022-01-20T15:32:25Z</time>
      </trkpt>
      <trkpt lat="47.25195" lon="-1.54066">
        <ele>36</ele>
        <time>2022-01-20T15:32:26Z</time>
      </trkpt>
      <trkpt lat="47.25197" lon="-1.54065">
        <ele>36</ele>
        <time>2022-01-20T15:32:27Z</time>
      </trkpt>
      <trkpt lat="47.25198" lon="-1.54065">
        <ele>36</ele>
        <time>2022-01-20T15:32:28Z</time>
      </trkpt>
      <trkpt lat="47.252" lon="-1.54064">
        <ele>36</ele>
        <time>2022-01-20T15:32:29Z</time>
      </trkpt>
      <trkpt lat="47.25201" lon="-1.54063">
        <ele>36</ele>
        <time>2022-01-20T15:32:30Z</time>
      </trkpt>
      <trkpt lat="47.25203" lon="-1.54063">
        <ele>37</ele>
        <time>2022-01-20T15:32:31Z</time>
      </trkpt>
      <trkpt lat="47.25204" lon="-1.54063">
        <ele>37</ele>
        <time>2022-01-20T15:32:32Z</time>
      </trkpt>
      <trkpt lat="47.25205" lon="-1.54062">
        <ele>37</ele>
        <time>2022-01-20T15:32:33Z</time>
      </trkpt>
      <trkpt lat="47.25207" lon="-1.54062">
        <ele>36</ele>
        <time>2022-01-20T15:32:34Z</time>
      </trkpt>
      <trkpt lat="47.25208" lon="-1.54062">
        <ele>36</ele>
        <time>2022-01-20T15:32:35Z</time>
      </trkpt>
      <trkpt lat="47.25208" lon="-1.54062">
        <ele>37</ele>
        <time>2022-01-20T15:32:36Z</time>
      </trkpt>
      <trkpt lat="47.25208" lon="-1.54062">
        <ele>37</ele>
        <time>2022-01-20T15:32:37Z</time>
      </trkpt>
      <trkpt lat="47.25209" lon="-1.54061">
        <ele>36</ele>
        <time>2022-01-20T15:32:38Z</time>
      </trkpt>
      <trkpt lat="47.25211" lon="-1.54061">
        <ele>36</ele>
        <time>2022-01-20T15:32:39Z</time>
      </trkpt>
      <trkpt lat="47.25212" lon="-1.5406">
        <ele>36</ele>
        <time>2022-01-20T15:32:40Z</time>
      </trkpt>
      <trkpt lat="47.25214" lon="-1.54059">
        <ele>36</ele>
        <time>2022-01-20T15:32:41Z</time>
      </trkpt>
      <trkpt lat="47.25215" lon="-1.54059">
        <ele>36</ele>
        <time>2022-01-20T15:32:42Z</time>
      </trkpt>
      <trkpt lat="47.25216" lon="-1.54058">
        <ele>36</ele>
        <time>2022-01-20T15:32:43Z</time>
      </trkpt>
      <trkpt lat="47.25217" lon="-1.54058">
        <ele>36</ele>
        <time>2022-01-20T15:32:44Z</time>
      </trkpt>
      <trkpt lat="47.25219" lon="-1.54058">
        <ele>36</ele>
        <time>2022-01-20T15:32:45Z</time>
      </trkpt>
      <trkpt lat="47.2522" lon="-1.54057">
        <ele>37</ele>
        <time>2022-01-20T15:32:46Z</time>
      </trkpt>
      <trkpt lat="47.25222" lon="-1.54057">
        <ele>37</ele>
        <time>2022-01-20T15:32:47Z</time>
      </trkpt>
      <trkpt lat="47.25223" lon="-1.54057">
        <ele>37</ele>
        <time>2022-01-20T15:32:48Z</time>
      </trkpt>
      <trkpt lat="47.25224" lon="-1.54056">
        <ele>37</ele>
        <time>2022-01-20T15:32:49Z</time>
      </trkpt>
      <trkpt lat="47.25226" lon="-1.54056">
        <ele>37</ele>
        <time>2022-01-20T15:32:50Z</time>
      </trkpt>
      <trkpt lat="47.25227" lon="-1.54055">
        <ele>37</ele>
        <time>2022-01-20T15:32:51Z</time>
      </trkpt>
      <trkpt lat="47.25227" lon="-1.54055">
        <ele>37</ele>
        <time>2022-01-20T15:32:52Z</time>
      </trkpt>
      <trkpt lat="47.25227" lon="-1.54055">
        <ele>37</ele>
        <time>2022-01-20T15:32:53Z</time>
      </trkpt>
      <trkpt lat="47.25229" lon="-1.54055">
        <ele>37</ele>
        <time>2022-01-20T15:32:54Z</time>
      </trkpt>
      <trkpt lat="47.2523" lon="-1.54055">
        <ele>37</ele>
        <time>2022-01-20T15:32:55Z</time>
      </trkpt>
      <trkpt lat="47.25231" lon="-1.54055">
        <ele>37</ele>
        <time>2022-01-20T15:32:56Z</time>
      </trkpt>
      <trkpt lat="47.25232" lon="-1.54054">
        <ele>37</ele>
        <time>2022-01-20T15:32:57Z</time>
      </trkpt>
      <trkpt lat="47.25233" lon="-1.54054">
        <ele>37</ele>
        <time>2022-01-20T15:32:58Z</time>
      </trkpt>
      <trkpt lat="47.25235" lon="-1.54054">
        <ele>37</ele>
        <time>2022-01-20T15:32:59Z</time>
      </trkpt>
      <trkpt lat="47.25236" lon="-1.54053">
        <ele>36</ele>
        <time>2022-01-20T15:33:00Z</time>
      </trkpt>
      <trkpt lat="47.25237" lon="-1.54053">
        <ele>37</ele>
        <time>2022-01-20T15:33:01Z</time>
      </trkpt>
      <trkpt lat="47.25238" lon="-1.54053">
        <ele>36</ele>
        <time>2022-01-20T15:33:02Z</time>
      </trkpt>
      <trkpt lat="47.2524" lon="-1.54053">
        <ele>36</ele>
        <time>2022-01-20T15:33:03Z</time>
      </trkpt>
      <trkpt lat="47.25241" lon="-1.54052">
        <ele>36</ele>
        <time>2022-01-20T15:33:04Z</time>
      </trkpt>
      <trkpt lat="47.25242" lon="-1.54052">
        <ele>36</ele>
        <time>2022-01-20T15:33:05Z</time>
      </trkpt>
      <trkpt lat="47.25244" lon="-1.54053">
        <ele>36</ele>
        <time>2022-01-20T15:33:06Z</time>
      </trkpt>
      <trkpt lat="47.25245" lon="-1.54053">
        <ele>36</ele>
        <time>2022-01-20T15:33:07Z</time>
      </trkpt>
      <trkpt lat="47.25246" lon="-1.54054">
        <ele>36</ele>
        <time>2022-01-20T15:33:08Z</time>
      </trkpt>
      <trkpt lat="47.25246" lon="-1.54053">
        <ele>37</ele>
        <time>2022-01-20T15:33:09Z</time>
      </trkpt>
      <trkpt lat="47.25246" lon="-1.54053">
        <ele>37</ele>
        <time>2022-01-20T15:33:10Z</time>
      </trkpt>
      <trkpt lat="47.25247" lon="-1.54052">
        <ele>37</ele>
        <time>2022-01-20T15:33:11Z</time>
      </trkpt>
      <trkpt lat="47.25249" lon="-1.54051">
        <ele>36</ele>
        <time>2022-01-20T15:33:12Z</time>
      </trkpt>
      <trkpt lat="47.2525" lon="-1.54051">
        <ele>36</ele>
        <time>2022-01-20T15:33:13Z</time>
      </trkpt>
      <trkpt lat="47.25251" lon="-1.5405">
        <ele>36</ele>
        <time>2022-01-20T15:33:14Z</time>
      </trkpt>
      <trkpt lat="47.25253" lon="-1.5405">
        <ele>36</ele>
        <time>2022-01-20T15:33:15Z</time>
      </trkpt>
      <trkpt lat="47.25254" lon="-1.5405">
        <ele>37</ele>
        <time>2022-01-20T15:33:16Z</time>
      </trkpt>
      <trkpt lat="47.25255" lon="-1.54049">
        <ele>37</ele>
        <time>2022-01-20T15:33:17Z</time>
      </trkpt>
      <trkpt lat="47.25257" lon="-1.54049">
        <ele>37</ele>
        <time>2022-01-20T15:33:18Z</time>
      </trkpt>
      <trkpt lat="47.25258" lon="-1.54048">
        <ele>36</ele>
        <time>2022-01-20T15:33:19Z</time>
      </trkpt>
      <trkpt lat="47.2526" lon="-1.54048">
        <ele>37</ele>
        <time>2022-01-20T15:33:20Z</time>
      </trkpt>
      <trkpt lat="47.25261" lon="-1.54048">
        <ele>37</ele>
        <time>2022-01-20T15:33:21Z</time>
      </trkpt>
      <trkpt lat="47.25263" lon="-1.54048">
        <ele>37</ele>
        <time>2022-01-20T15:33:22Z</time>
      </trkpt>
      <trkpt lat="47.25265" lon="-1.54047">
        <ele>37</ele>
        <time>2022-01-20T15:33:23Z</time>
      </trkpt>
      <trkpt lat="47.25267" lon="-1.54047">
        <ele>37</ele>
        <time>2022-01-20T15:33:24Z</time>
      </trkpt>
      <trkpt lat="47.25269" lon="-1.54047">
        <ele>37</ele>
        <time>2022-01-20T15:33:25Z</time>
      </trkpt>
      <trkpt lat="47.2527" lon="-1.54046">
        <ele>36</ele>
        <time>2022-01-20T15:33:26Z</time>
      </trkpt>
      <trkpt lat="47.25272" lon="-1.54046">
        <ele>36</ele>
        <time>2022-01-20T15:33:27Z</time>
      </trkpt>
      <trkpt lat="47.25273" lon="-1.54046">
        <ele>37</ele>
        <time>2022-01-20T15:33:28Z</time>
      </trkpt>
      <trkpt lat="47.25274" lon="-1.54046">
        <ele>36</ele>
        <time>2022-01-20T15:33:29Z</time>
      </trkpt>
      <trkpt lat="47.25276" lon="-1.54046">
        <ele>36</ele>
        <time>2022-01-20T15:33:30Z</time>
      </trkpt>
      <trkpt lat="47.25277" lon="-1.54046">
        <ele>36</ele>
        <time>2022-01-20T15:33:31Z</time>
      </trkpt>
      <trkpt lat="47.25278" lon="-1.54045">
        <ele>36</ele>
        <time>2022-01-20T15:33:32Z</time>
      </trkpt>
      <trkpt lat="47.25279" lon="-1.54045">
        <ele>36</ele>
        <time>2022-01-20T15:33:33Z</time>
      </trkpt>
      <trkpt lat="47.2528" lon="-1.54044">
        <ele>35</ele>
        <time>2022-01-20T15:33:34Z</time>
      </trkpt>
      <trkpt lat="47.25282" lon="-1.54044">
        <ele>35</ele>
        <time>2022-01-20T15:33:35Z</time>
      </trkpt>
      <trkpt lat="47.25283" lon="-1.54043">
        <ele>35</ele>
        <time>2022-01-20T15:33:36Z</time>
      </trkpt>
      <trkpt lat="47.25285" lon="-1.54042">
        <ele>35</ele>
        <time>2022-01-20T15:33:37Z</time>
      </trkpt>
      <trkpt lat="47.25286" lon="-1.54042">
        <ele>35</ele>
        <time>2022-01-20T15:33:38Z</time>
      </trkpt>
      <trkpt lat="47.25287" lon="-1.54042">
        <ele>35</ele>
        <time>2022-01-20T15:33:39Z</time>
      </trkpt>
      <trkpt lat="47.25288" lon="-1.54042">
        <ele>35</ele>
        <time>2022-01-20T15:33:40Z</time>
      </trkpt>
      <trkpt lat="47.2529" lon="-1.54042">
        <ele>35</ele>
        <time>2022-01-20T15:33:41Z</time>
      </trkpt>
      <trkpt lat="47.25291" lon="-1.54041">
        <ele>35</ele>
        <time>2022-01-20T15:33:42Z</time>
      </trkpt>
      <trkpt lat="47.25293" lon="-1.5404">
        <ele>36</ele>
        <time>2022-01-20T15:33:43Z</time>
      </trkpt>
      <trkpt lat="47.25295" lon="-1.5404">
        <ele>36</ele>
        <time>2022-01-20T15:33:44Z</time>
      </trkpt>
      <trkpt lat="47.25296" lon="-1.5404">
        <ele>36</ele>
        <time>2022-01-20T15:33:45Z</time>
      </trkpt>
      <trkpt lat="47.25297" lon="-1.54039">
        <ele>36</ele>
        <time>2022-01-20T15:33:46Z</time>
      </trkpt>
      <trkpt lat="47.25298" lon="-1.54038">
        <ele>36</ele>
        <time>2022-01-20T15:33:47Z</time>
      </trkpt>
      <trkpt lat="47.253" lon="-1.54038">
        <ele>37</ele>
        <time>2022-01-20T15:33:48Z</time>
      </trkpt>
      <trkpt lat="47.25301" lon="-1.54038">
        <ele>37</ele>
        <time>2022-01-20T15:33:49Z</time>
      </trkpt>
      <trkpt lat="47.25302" lon="-1.54038">
        <ele>36</ele>
        <time>2022-01-20T15:33:50Z</time>
      </trkpt>
      <trkpt lat="47.25303" lon="-1.54038">
        <ele>36</ele>
        <time>2022-01-20T15:33:51Z</time>
      </trkpt>
      <trkpt lat="47.25304" lon="-1.54039">
        <ele>36</ele>
        <time>2022-01-20T15:33:52Z</time>
      </trkpt>
      <trkpt lat="47.25306" lon="-1.54038">
        <ele>37</ele>
        <time>2022-01-20T15:33:53Z</time>
      </trkpt>
      <trkpt lat="47.25307" lon="-1.54038">
        <ele>37</ele>
        <time>2022-01-20T15:33:54Z</time>
      </trkpt>
      <trkpt lat="47.25308" lon="-1.54038">
        <ele>37</ele>
        <time>2022-01-20T15:33:55Z</time>
      </trkpt>
      <trkpt lat="47.2531" lon="-1.54038">
        <ele>37</ele>
        <time>2022-01-20T15:33:56Z</time>
      </trkpt>
      <trkpt lat="47.25311" lon="-1.54037">
        <ele>37</ele>
        <time>2022-01-20T15:33:57Z</time>
      </trkpt>
      <trkpt lat="47.25312" lon="-1.54037">
        <ele>37</ele>
        <time>2022-01-20T15:33:58Z</time>
      </trkpt>
      <trkpt lat="47.25313" lon="-1.54037">
        <ele>37</ele>
        <time>2022-01-20T15:33:59Z</time>
      </trkpt>
      <trkpt lat="47.25314" lon="-1.54036">
        <ele>37</ele>
        <time>2022-01-20T15:34:00Z</time>
      </trkpt>
      <trkpt lat="47.25315" lon="-1.54037">
        <ele>37</ele>
        <time>2022-01-20T15:34:01Z</time>
      </trkpt>
      <trkpt lat="47.25316" lon="-1.54037">
        <ele>37</ele>
        <time>2022-01-20T15:34:02Z</time>
      </trkpt>
      <trkpt lat="47.25317" lon="-1.54036">
        <ele>37</ele>
        <time>2022-01-20T15:34:03Z</time>
      </trkpt>
      <trkpt lat="47.25318" lon="-1.54035">
        <ele>37</ele>
        <time>2022-01-20T15:34:04Z</time>
      </trkpt>
      <trkpt lat="47.25319" lon="-1.54035">
        <ele>38</ele>
        <time>2022-01-20T15:34:05Z</time>
      </trkpt>
      <trkpt lat="47.2532" lon="-1.54035">
        <ele>38</ele>
        <time>2022-01-20T15:34:06Z</time>
      </trkpt>
      <trkpt lat="47.25322" lon="-1.54035">
        <ele>38</ele>
        <time>2022-01-20T15:34:07Z</time>
      </trkpt>
      <trkpt lat="47.25322" lon="-1.54035">
        <ele>38</ele>
        <time>2022-01-20T15:34:08Z</time>
      </trkpt>
      <trkpt lat="47.25323" lon="-1.54036">
        <ele>38</ele>
        <time>2022-01-20T15:34:09Z</time>
      </trkpt>
      <trkpt lat="47.25324" lon="-1.54037">
        <ele>38</ele>
        <time>2022-01-20T15:34:10Z</time>
      </trkpt>
      <trkpt lat="47.25325" lon="-1.54037">
        <ele>38</ele>
        <time>2022-01-20T15:34:11Z</time>
      </trkpt>
      <trkpt lat="47.25325" lon="-1.54038">
        <ele>38</ele>
        <time>2022-01-20T15:34:12Z</time>
      </trkpt>
      <trkpt lat="47.25325" lon="-1.54038">
        <ele>38</ele>
        <time>2022-01-20T15:34:13Z</time>
      </trkpt>
      <trkpt lat="47.25326" lon="-1.54037">
        <ele>38</ele>
        <time>2022-01-20T15:34:14Z</time>
      </trkpt>
      <trkpt lat="47.25326" lon="-1.54037">
        <ele>38</ele>
        <time>2022-01-20T15:34:15Z</time>
      </trkpt>
      <trkpt lat="47.25326" lon="-1.54037">
        <ele>38</ele>
        <time>2022-01-20T15:34:16Z</time>
      </trkpt>
      <trkpt lat="47.25326" lon="-1.54037">
        <ele>38</ele>
        <time>2022-01-20T15:34:17Z</time>
      </trkpt>
      <trkpt lat="47.25328" lon="-1.54036">
        <ele>38</ele>
        <time>2022-01-20T15:34:18Z</time>
      </trkpt>
      <trkpt lat="47.25329" lon="-1.54036">
        <ele>38</ele>
        <time>2022-01-20T15:34:19Z</time>
      </trkpt>
      <trkpt lat="47.2533" lon="-1.54036">
        <ele>38</ele>
        <time>2022-01-20T15:34:20Z</time>
      </trkpt>
      <trkpt lat="47.25331" lon="-1.54036">
        <ele>38</ele>
        <time>2022-01-20T15:34:21Z</time>
      </trkpt>
      <trkpt lat="47.25332" lon="-1.54036">
        <ele>38</ele>
        <time>2022-01-20T15:34:22Z</time>
      </trkpt>
      <trkpt lat="47.25333" lon="-1.54036">
        <ele>38</ele>
        <time>2022-01-20T15:34:23Z</time>
      </trkpt>
      <trkpt lat="47.25334" lon="-1.54035">
        <ele>39</ele>
        <time>2022-01-20T15:34:24Z</time>
      </trkpt>
      <trkpt lat="47.25334" lon="-1.54035">
        <ele>39</ele>
        <time>2022-01-20T15:34:25Z</time>
      </trkpt>
      <trkpt lat="47.25336" lon="-1.54035">
        <ele>38</ele>
        <time>2022-01-20T15:34:26Z</time>
      </trkpt>
      <trkpt lat="47.25338" lon="-1.54034">
        <ele>38</ele>
        <time>2022-01-20T15:34:27Z</time>
      </trkpt>
      <trkpt lat="47.25339" lon="-1.54034">
        <ele>38</ele>
        <time>2022-01-20T15:34:28Z</time>
      </trkpt>
      <trkpt lat="47.2534" lon="-1.54034">
        <ele>38</ele>
        <time>2022-01-20T15:34:29Z</time>
      </trkpt>
      <trkpt lat="47.25341" lon="-1.54034">
        <ele>38</ele>
        <time>2022-01-20T15:34:30Z</time>
      </trkpt>
      <trkpt lat="47.25342" lon="-1.54034">
        <ele>38</ele>
        <time>2022-01-20T15:34:31Z</time>
      </trkpt>
      <trkpt lat="47.25343" lon="-1.54033">
        <ele>39</ele>
        <time>2022-01-20T15:34:32Z</time>
      </trkpt>
      <trkpt lat="47.25343" lon="-1.54034">
        <ele>39</ele>
        <time>2022-01-20T15:34:33Z</time>
      </trkpt>
      <trkpt lat="47.25344" lon="-1.54033">
        <ele>38</ele>
        <time>2022-01-20T15:34:34Z</time>
      </trkpt>
      <trkpt lat="47.25345" lon="-1.54034">
        <ele>38</ele>
        <time>2022-01-20T15:34:35Z</time>
      </trkpt>
      <trkpt lat="47.25347" lon="-1.54033">
        <ele>38</ele>
        <time>2022-01-20T15:34:36Z</time>
      </trkpt>
      <trkpt lat="47.25348" lon="-1.54033">
        <ele>38</ele>
        <time>2022-01-20T15:34:37Z</time>
      </trkpt>
      <trkpt lat="47.25349" lon="-1.54033">
        <ele>38</ele>
        <time>2022-01-20T15:34:38Z</time>
      </trkpt>
      <trkpt lat="47.2535" lon="-1.54033">
        <ele>39</ele>
        <time>2022-01-20T15:34:39Z</time>
      </trkpt>
      <trkpt lat="47.25351" lon="-1.54033">
        <ele>39</ele>
        <time>2022-01-20T15:34:40Z</time>
      </trkpt>
      <trkpt lat="47.25351" lon="-1.54033">
        <ele>39</ele>
        <time>2022-01-20T15:34:41Z</time>
      </trkpt>
      <trkpt lat="47.25351" lon="-1.54033">
        <ele>39</ele>
        <time>2022-01-20T15:34:42Z</time>
      </trkpt>
      <trkpt lat="47.25354" lon="-1.54032">
        <ele>39</ele>
        <time>2022-01-20T15:34:43Z</time>
      </trkpt>
      <trkpt lat="47.25355" lon="-1.54032">
        <ele>40</ele>
        <time>2022-01-20T15:34:44Z</time>
      </trkpt>
      <trkpt lat="47.25356" lon="-1.54032">
        <ele>40</ele>
        <time>2022-01-20T15:34:45Z</time>
      </trkpt>
      <trkpt lat="47.25356" lon="-1.54032">
        <ele>40</ele>
        <time>2022-01-20T15:34:46Z</time>
      </trkpt>
      <trkpt lat="47.25356" lon="-1.54032">
        <ele>40</ele>
        <time>2022-01-20T15:34:47Z</time>
      </trkpt>
      <trkpt lat="47.25356" lon="-1.54032">
        <ele>40</ele>
        <time>2022-01-20T15:34:48Z</time>
      </trkpt>
      <trkpt lat="47.25359" lon="-1.54032">
        <ele>40</ele>
        <time>2022-01-20T15:34:49Z</time>
      </trkpt>
      <trkpt lat="47.2536" lon="-1.54032">
        <ele>40</ele>
        <time>2022-01-20T15:34:50Z</time>
      </trkpt>
      <trkpt lat="47.25361" lon="-1.54031">
        <ele>40</ele>
        <time>2022-01-20T15:34:51Z</time>
      </trkpt>
      <trkpt lat="47.25362" lon="-1.54031">
        <ele>40</ele>
        <time>2022-01-20T15:34:52Z</time>
      </trkpt>
      <trkpt lat="47.25363" lon="-1.5403">
        <ele>40</ele>
        <time>2022-01-20T15:34:53Z</time>
      </trkpt>
      <trkpt lat="47.25365" lon="-1.5403">
        <ele>40</ele>
        <time>2022-01-20T15:34:54Z</time>
      </trkpt>
      <trkpt lat="47.25365" lon="-1.5403">
        <ele>39</ele>
        <time>2022-01-20T15:34:55Z</time>
      </trkpt>
      <trkpt lat="47.25367" lon="-1.54029">
        <ele>40</ele>
        <time>2022-01-20T15:34:56Z</time>
      </trkpt>
      <trkpt lat="47.25367" lon="-1.54029">
        <ele>39</ele>
        <time>2022-01-20T15:34:57Z</time>
      </trkpt>
      <trkpt lat="47.25369" lon="-1.54029">
        <ele>40</ele>
        <time>2022-01-20T15:34:58Z</time>
      </trkpt>
      <trkpt lat="47.25369" lon="-1.54028">
        <ele>40</ele>
        <time>2022-01-20T15:34:59Z</time>
      </trkpt>
      <trkpt lat="47.2537" lon="-1.54027">
        <ele>39</ele>
        <time>2022-01-20T15:35:00Z</time>
      </trkpt>
      <trkpt lat="47.25371" lon="-1.54026">
        <ele>39</ele>
        <time>2022-01-20T15:35:01Z</time>
      </trkpt>
      <trkpt lat="47.25373" lon="-1.54026">
        <ele>40</ele>
        <time>2022-01-20T15:35:02Z</time>
      </trkpt>
      <trkpt lat="47.25374" lon="-1.54025">
        <ele>40</ele>
        <time>2022-01-20T15:35:03Z</time>
      </trkpt>
      <trkpt lat="47.25376" lon="-1.54026">
        <ele>40</ele>
        <time>2022-01-20T15:35:04Z</time>
      </trkpt>
      <trkpt lat="47.25377" lon="-1.54028">
        <ele>41</ele>
        <time>2022-01-20T15:35:05Z</time>
      </trkpt>
      <trkpt lat="47.25378" lon="-1.54028">
        <ele>41</ele>
        <time>2022-01-20T15:35:06Z</time>
      </trkpt>
      <trkpt lat="47.2538" lon="-1.54028">
        <ele>41</ele>
        <time>2022-01-20T15:35:07Z</time>
      </trkpt>
      <trkpt lat="47.25381" lon="-1.54028">
        <ele>41</ele>
        <time>2022-01-20T15:35:08Z</time>
      </trkpt>
      <trkpt lat="47.25382" lon="-1.54027">
        <ele>41</ele>
        <time>2022-01-20T15:35:09Z</time>
      </trkpt>
      <trkpt lat="47.25382" lon="-1.54027">
        <ele>41</ele>
        <time>2022-01-20T15:35:10Z</time>
      </trkpt>
      <trkpt lat="47.25383" lon="-1.54027">
        <ele>40</ele>
        <time>2022-01-20T15:35:11Z</time>
      </trkpt>
      <trkpt lat="47.25385" lon="-1.54027">
        <ele>40</ele>
        <time>2022-01-20T15:35:12Z</time>
      </trkpt>
      <trkpt lat="47.25386" lon="-1.54026">
        <ele>39</ele>
        <time>2022-01-20T15:35:13Z</time>
      </trkpt>
      <trkpt lat="47.25387" lon="-1.54026">
        <ele>39</ele>
        <time>2022-01-20T15:35:14Z</time>
      </trkpt>
      <trkpt lat="47.25388" lon="-1.54025">
        <ele>39</ele>
        <time>2022-01-20T15:35:15Z</time>
      </trkpt>
      <trkpt lat="47.2539" lon="-1.54025">
        <ele>39</ele>
        <time>2022-01-20T15:35:16Z</time>
      </trkpt>
      <trkpt lat="47.25391" lon="-1.54025">
        <ele>38</ele>
        <time>2022-01-20T15:35:17Z</time>
      </trkpt>
      <trkpt lat="47.25393" lon="-1.54025">
        <ele>38</ele>
        <time>2022-01-20T15:35:18Z</time>
      </trkpt>
      <trkpt lat="47.25394" lon="-1.54024">
        <ele>38</ele>
        <time>2022-01-20T15:35:19Z</time>
      </trkpt>
      <trkpt lat="47.25395" lon="-1.54024">
        <ele>38</ele>
        <time>2022-01-20T15:35:20Z</time>
      </trkpt>
      <trkpt lat="47.25395" lon="-1.54024">
        <ele>38</ele>
        <time>2022-01-20T15:35:21Z</time>
      </trkpt>
      <trkpt lat="47.25395" lon="-1.54024">
        <ele>38</ele>
        <time>2022-01-20T15:35:22Z</time>
      </trkpt>
      <trkpt lat="47.25398" lon="-1.54023">
        <ele>38</ele>
        <time>2022-01-20T15:35:23Z</time>
      </trkpt>
      <trkpt lat="47.25399" lon="-1.54022">
        <ele>37</ele>
        <time>2022-01-20T15:35:24Z</time>
      </trkpt>
      <trkpt lat="47.254" lon="-1.54021">
        <ele>37</ele>
        <time>2022-01-20T15:35:25Z</time>
      </trkpt>
      <trkpt lat="47.25401" lon="-1.54021">
        <ele>37</ele>
        <time>2022-01-20T15:35:26Z</time>
      </trkpt>
      <trkpt lat="47.25401" lon="-1.54021">
        <ele>37</ele>
        <time>2022-01-20T15:35:27Z</time>
      </trkpt>
      <trkpt lat="47.25401" lon="-1.54021">
        <ele>37</ele>
        <time>2022-01-20T15:35:28Z</time>
      </trkpt>
      <trkpt lat="47.25404" lon="-1.5402">
        <ele>36</ele>
        <time>2022-01-20T15:35:29Z</time>
      </trkpt>
      <trkpt lat="47.25406" lon="-1.54019">
        <ele>36</ele>
        <time>2022-01-20T15:35:30Z</time>
      </trkpt>
      <trkpt lat="47.25407" lon="-1.54019">
        <ele>36</ele>
        <time>2022-01-20T15:35:31Z</time>
      </trkpt>
      <trkpt lat="47.25408" lon="-1.54018">
        <ele>36</ele>
        <time>2022-01-20T15:35:32Z</time>
      </trkpt>
      <trkpt lat="47.25408" lon="-1.54018">
        <ele>36</ele>
        <time>2022-01-20T15:35:33Z</time>
      </trkpt>
      <trkpt lat="47.25408" lon="-1.54018">
        <ele>36</ele>
        <time>2022-01-20T15:35:34Z</time>
      </trkpt>
      <trkpt lat="47.25411" lon="-1.54017">
        <ele>36</ele>
        <time>2022-01-20T15:35:35Z</time>
      </trkpt>
      <trkpt lat="47.25411" lon="-1.54016">
        <ele>36</ele>
        <time>2022-01-20T15:35:36Z</time>
      </trkpt>
      <trkpt lat="47.25413" lon="-1.54015">
        <ele>36</ele>
        <time>2022-01-20T15:35:37Z</time>
      </trkpt>
      <trkpt lat="47.25414" lon="-1.54015">
        <ele>36</ele>
        <time>2022-01-20T15:35:38Z</time>
      </trkpt>
      <trkpt lat="47.25415" lon="-1.54015">
        <ele>36</ele>
        <time>2022-01-20T15:35:39Z</time>
      </trkpt>
      <trkpt lat="47.25417" lon="-1.54014">
        <ele>36</ele>
        <time>2022-01-20T15:35:40Z</time>
      </trkpt>
      <trkpt lat="47.25419" lon="-1.54014">
        <ele>36</ele>
        <time>2022-01-20T15:35:41Z</time>
      </trkpt>
      <trkpt lat="47.2542" lon="-1.54013">
        <ele>37</ele>
        <time>2022-01-20T15:35:42Z</time>
      </trkpt>
      <trkpt lat="47.25422" lon="-1.54013">
        <ele>37</ele>
        <time>2022-01-20T15:35:43Z</time>
      </trkpt>
      <trkpt lat="47.25424" lon="-1.54013">
        <ele>37</ele>
        <time>2022-01-20T15:35:44Z</time>
      </trkpt>
      <trkpt lat="47.25426" lon="-1.54012">
        <ele>37</ele>
        <time>2022-01-20T15:35:45Z</time>
      </trkpt>
      <trkpt lat="47.25427" lon="-1.54011">
        <ele>38</ele>
        <time>2022-01-20T15:35:46Z</time>
      </trkpt>
      <trkpt lat="47.25429" lon="-1.54011">
        <ele>38</ele>
        <time>2022-01-20T15:35:47Z</time>
      </trkpt>
      <trkpt lat="47.2543" lon="-1.54011">
        <ele>37</ele>
        <time>2022-01-20T15:35:48Z</time>
      </trkpt>
      <trkpt lat="47.25431" lon="-1.54011">
        <ele>37</ele>
        <time>2022-01-20T15:35:49Z</time>
      </trkpt>
      <trkpt lat="47.25433" lon="-1.5401">
        <ele>37</ele>
        <time>2022-01-20T15:35:50Z</time>
      </trkpt>
      <trkpt lat="47.25434" lon="-1.5401">
        <ele>37</ele>
        <time>2022-01-20T15:35:51Z</time>
      </trkpt>
      <trkpt lat="47.25435" lon="-1.54011">
        <ele>37</ele>
        <time>2022-01-20T15:35:52Z</time>
      </trkpt>
      <trkpt lat="47.25437" lon="-1.5401">
        <ele>37</ele>
        <time>2022-01-20T15:35:53Z</time>
      </trkpt>
      <trkpt lat="47.25438" lon="-1.54009">
        <ele>36</ele>
        <time>2022-01-20T15:35:54Z</time>
      </trkpt>
      <trkpt lat="47.2544" lon="-1.54009">
        <ele>36</ele>
        <time>2022-01-20T15:35:55Z</time>
      </trkpt>
      <trkpt lat="47.25441" lon="-1.54009">
        <ele>36</ele>
        <time>2022-01-20T15:35:56Z</time>
      </trkpt>
      <trkpt lat="47.25443" lon="-1.54009">
        <ele>36</ele>
        <time>2022-01-20T15:35:57Z</time>
      </trkpt>
      <trkpt lat="47.25444" lon="-1.54008">
        <ele>37</ele>
        <time>2022-01-20T15:35:58Z</time>
      </trkpt>
      <trkpt lat="47.25444" lon="-1.54008">
        <ele>37</ele>
        <time>2022-01-20T15:35:59Z</time>
      </trkpt>
      <trkpt lat="47.25445" lon="-1.54008">
        <ele>37</ele>
        <time>2022-01-20T15:36:00Z</time>
      </trkpt>
      <trkpt lat="47.25445" lon="-1.54008">
        <ele>37</ele>
        <time>2022-01-20T15:36:01Z</time>
      </trkpt>
      <trkpt lat="47.25447" lon="-1.54007">
        <ele>37</ele>
        <time>2022-01-20T15:36:02Z</time>
      </trkpt>
      <trkpt lat="47.25449" lon="-1.54007">
        <ele>37</ele>
        <time>2022-01-20T15:36:03Z</time>
      </trkpt>
      <trkpt lat="47.2545" lon="-1.54007">
        <ele>36</ele>
        <time>2022-01-20T15:36:04Z</time>
      </trkpt>
      <trkpt lat="47.25452" lon="-1.54007">
        <ele>36</ele>
        <time>2022-01-20T15:36:05Z</time>
      </trkpt>
      <trkpt lat="47.25454" lon="-1.54006">
        <ele>36</ele>
        <time>2022-01-20T15:36:06Z</time>
      </trkpt>
      <trkpt lat="47.25456" lon="-1.54006">
        <ele>37</ele>
        <time>2022-01-20T15:36:07Z</time>
      </trkpt>
      <trkpt lat="47.25457" lon="-1.54006">
        <ele>37</ele>
        <time>2022-01-20T15:36:08Z</time>
      </trkpt>
      <trkpt lat="47.25459" lon="-1.54006">
        <ele>36</ele>
        <time>2022-01-20T15:36:09Z</time>
      </trkpt>
      <trkpt lat="47.2546" lon="-1.54006">
        <ele>36</ele>
        <time>2022-01-20T15:36:10Z</time>
      </trkpt>
      <trkpt lat="47.25462" lon="-1.54006">
        <ele>36</ele>
        <time>2022-01-20T15:36:11Z</time>
      </trkpt>
      <trkpt lat="47.25463" lon="-1.54006">
        <ele>35</ele>
        <time>2022-01-20T15:36:12Z</time>
      </trkpt>
      <trkpt lat="47.25465" lon="-1.54007">
        <ele>35</ele>
        <time>2022-01-20T15:36:13Z</time>
      </trkpt>
      <trkpt lat="47.25467" lon="-1.54007">
        <ele>36</ele>
        <time>2022-01-20T15:36:14Z</time>
      </trkpt>
      <trkpt lat="47.25469" lon="-1.54007">
        <ele>36</ele>
        <time>2022-01-20T15:36:15Z</time>
      </trkpt>
      <trkpt lat="47.2547" lon="-1.54007">
        <ele>36</ele>
        <time>2022-01-20T15:36:16Z</time>
      </trkpt>
      <trkpt lat="47.25473" lon="-1.54007">
        <ele>36</ele>
        <time>2022-01-20T15:36:17Z</time>
      </trkpt>
      <trkpt lat="47.25475" lon="-1.54007">
        <ele>35</ele>
        <time>2022-01-20T15:36:18Z</time>
      </trkpt>
      <trkpt lat="47.25476" lon="-1.54007">
        <ele>35</ele>
        <time>2022-01-20T15:36:19Z</time>
      </trkpt>
      <trkpt lat="47.25478" lon="-1.54007">
        <ele>36</ele>
        <time>2022-01-20T15:36:20Z</time>
      </trkpt>
      <trkpt lat="47.2548" lon="-1.54006">
        <ele>36</ele>
        <time>2022-01-20T15:36:21Z</time>
      </trkpt>
      <trkpt lat="47.25481" lon="-1.54006">
        <ele>37</ele>
        <time>2022-01-20T15:36:22Z</time>
      </trkpt>
      <trkpt lat="47.25483" lon="-1.54005">
        <ele>37</ele>
        <time>2022-01-20T15:36:23Z</time>
      </trkpt>
      <trkpt lat="47.25484" lon="-1.54005">
        <ele>36</ele>
        <time>2022-01-20T15:36:24Z</time>
      </trkpt>
      <trkpt lat="47.25485" lon="-1.54005">
        <ele>37</ele>
        <time>2022-01-20T15:36:25Z</time>
      </trkpt>
      <trkpt lat="47.25486" lon="-1.54006">
        <ele>37</ele>
        <time>2022-01-20T15:36:26Z</time>
      </trkpt>
      <trkpt lat="47.25487" lon="-1.54006">
        <ele>37</ele>
        <time>2022-01-20T15:36:27Z</time>
      </trkpt>
      <trkpt lat="47.25488" lon="-1.54007">
        <ele>37</ele>
        <time>2022-01-20T15:36:28Z</time>
      </trkpt>
      <trkpt lat="47.25489" lon="-1.54006">
        <ele>37</ele>
        <time>2022-01-20T15:36:29Z</time>
      </trkpt>
      <trkpt lat="47.25489" lon="-1.54007">
        <ele>37</ele>
        <time>2022-01-20T15:36:30Z</time>
      </trkpt>
      <trkpt lat="47.25489" lon="-1.54008">
        <ele>36</ele>
        <time>2022-01-20T15:36:31Z</time>
      </trkpt>
      <trkpt lat="47.2549" lon="-1.54009">
        <ele>36</ele>
        <time>2022-01-20T15:36:32Z</time>
      </trkpt>
      <trkpt lat="47.25491" lon="-1.5401">
        <ele>36</ele>
        <time>2022-01-20T15:36:33Z</time>
      </trkpt>
      <trkpt lat="47.25491" lon="-1.5401">
        <ele>37</ele>
        <time>2022-01-20T15:36:34Z</time>
      </trkpt>
      <trkpt lat="47.25492" lon="-1.54009">
        <ele>37</ele>
        <time>2022-01-20T15:36:35Z</time>
      </trkpt>
      <trkpt lat="47.25493" lon="-1.54009">
        <ele>37</ele>
        <time>2022-01-20T15:36:36Z</time>
      </trkpt>
      <trkpt lat="47.25494" lon="-1.54009">
        <ele>38</ele>
        <time>2022-01-20T15:36:37Z</time>
      </trkpt>
      <trkpt lat="47.25495" lon="-1.54009">
        <ele>38</ele>
        <time>2022-01-20T15:36:38Z</time>
      </trkpt>
      <trkpt lat="47.25497" lon="-1.54009">
        <ele>38</ele>
        <time>2022-01-20T15:36:39Z</time>
      </trkpt>
      <trkpt lat="47.25498" lon="-1.54008">
        <ele>39</ele>
        <time>2022-01-20T15:36:40Z</time>
      </trkpt>
      <trkpt lat="47.25499" lon="-1.54008">
        <ele>39</ele>
        <time>2022-01-20T15:36:41Z</time>
      </trkpt>
      <trkpt lat="47.255" lon="-1.54008">
        <ele>39</ele>
        <time>2022-01-20T15:36:42Z</time>
      </trkpt>
      <trkpt lat="47.25501" lon="-1.54008">
        <ele>40</ele>
        <time>2022-01-20T15:36:43Z</time>
      </trkpt>
      <trkpt lat="47.25502" lon="-1.54007">
        <ele>40</ele>
        <time>2022-01-20T15:36:44Z</time>
      </trkpt>
      <trkpt lat="47.25503" lon="-1.54007">
        <ele>41</ele>
        <time>2022-01-20T15:36:45Z</time>
      </trkpt>
      <trkpt lat="47.25504" lon="-1.54007">
        <ele>41</ele>
        <time>2022-01-20T15:36:46Z</time>
      </trkpt>
      <trkpt lat="47.25505" lon="-1.54007">
        <ele>41</ele>
        <time>2022-01-20T15:36:47Z</time>
      </trkpt>
      <trkpt lat="47.25506" lon="-1.54007">
        <ele>41</ele>
        <time>2022-01-20T15:36:48Z</time>
      </trkpt>
      <trkpt lat="47.25507" lon="-1.54006">
        <ele>41</ele>
        <time>2022-01-20T15:36:49Z</time>
      </trkpt>
      <trkpt lat="47.25507" lon="-1.54006">
        <ele>41</ele>
        <time>2022-01-20T15:36:50Z</time>
      </trkpt>
      <trkpt lat="47.25507" lon="-1.54006">
        <ele>41</ele>
        <time>2022-01-20T15:36:51Z</time>
      </trkpt>
      <trkpt lat="47.2551" lon="-1.54002">
        <ele>42</ele>
        <time>2022-01-20T15:36:52Z</time>
      </trkpt>
      <trkpt lat="47.25511" lon="-1.54001">
        <ele>41</ele>
        <time>2022-01-20T15:36:53Z</time>
      </trkpt>
      <trkpt lat="47.25512" lon="-1.54">
        <ele>41</ele>
        <time>2022-01-20T15:36:54Z</time>
      </trkpt>
      <trkpt lat="47.25514" lon="-1.53999">
        <ele>41</ele>
        <time>2022-01-20T15:36:55Z</time>
      </trkpt>
      <trkpt lat="47.25515" lon="-1.53998">
        <ele>40</ele>
        <time>2022-01-20T15:36:56Z</time>
      </trkpt>
      <trkpt lat="47.25517" lon="-1.53997">
        <ele>40</ele>
        <time>2022-01-20T15:36:57Z</time>
      </trkpt>
      <trkpt lat="47.25518" lon="-1.53996">
        <ele>39</ele>
        <time>2022-01-20T15:36:58Z</time>
      </trkpt>
      <trkpt lat="47.25519" lon="-1.53995">
        <ele>39</ele>
        <time>2022-01-20T15:36:59Z</time>
      </trkpt>
      <trkpt lat="47.25521" lon="-1.53994">
        <ele>39</ele>
        <time>2022-01-20T15:37:00Z</time>
      </trkpt>
      <trkpt lat="47.25523" lon="-1.53993">
        <ele>39</ele>
        <time>2022-01-20T15:37:01Z</time>
      </trkpt>
      <trkpt lat="47.25524" lon="-1.53993">
        <ele>38</ele>
        <time>2022-01-20T15:37:02Z</time>
      </trkpt>
      <trkpt lat="47.25526" lon="-1.53993">
        <ele>39</ele>
        <time>2022-01-20T15:37:03Z</time>
      </trkpt>
      <trkpt lat="47.25527" lon="-1.53992">
        <ele>39</ele>
        <time>2022-01-20T15:37:04Z</time>
      </trkpt>
      <trkpt lat="47.2553" lon="-1.53992">
        <ele>39</ele>
        <time>2022-01-20T15:37:05Z</time>
      </trkpt>
      <trkpt lat="47.2553" lon="-1.53993">
        <ele>39</ele>
        <time>2022-01-20T15:37:06Z</time>
      </trkpt>
      <trkpt lat="47.25532" lon="-1.53993">
        <ele>39</ele>
        <time>2022-01-20T15:37:07Z</time>
      </trkpt>
      <trkpt lat="47.25533" lon="-1.53992">
        <ele>39</ele>
        <time>2022-01-20T15:37:08Z</time>
      </trkpt>
      <trkpt lat="47.25534" lon="-1.53992">
        <ele>39</ele>
        <time>2022-01-20T15:37:09Z</time>
      </trkpt>
      <trkpt lat="47.25536" lon="-1.53992">
        <ele>39</ele>
        <time>2022-01-20T15:37:10Z</time>
      </trkpt>
      <trkpt lat="47.25538" lon="-1.53992">
        <ele>39</ele>
        <time>2022-01-20T15:37:11Z</time>
      </trkpt>
      <trkpt lat="47.25539" lon="-1.53992">
        <ele>39</ele>
        <time>2022-01-20T15:37:12Z</time>
      </trkpt>
      <trkpt lat="47.25541" lon="-1.53992">
        <ele>39</ele>
        <time>2022-01-20T15:37:13Z</time>
      </trkpt>
      <trkpt lat="47.25542" lon="-1.53991">
        <ele>39</ele>
        <time>2022-01-20T15:37:14Z</time>
      </trkpt>
      <trkpt lat="47.25544" lon="-1.53991">
        <ele>38</ele>
        <time>2022-01-20T15:37:15Z</time>
      </trkpt>
      <trkpt lat="47.25545" lon="-1.53991">
        <ele>38</ele>
        <time>2022-01-20T15:37:16Z</time>
      </trkpt>
      <trkpt lat="47.25547" lon="-1.5399">
        <ele>38</ele>
        <time>2022-01-20T15:37:17Z</time>
      </trkpt>
      <trkpt lat="47.25549" lon="-1.5399">
        <ele>37</ele>
        <time>2022-01-20T15:37:18Z</time>
      </trkpt>
      <trkpt lat="47.25551" lon="-1.5399">
        <ele>37</ele>
        <time>2022-01-20T15:37:19Z</time>
      </trkpt>
      <trkpt lat="47.25552" lon="-1.53989">
        <ele>37</ele>
        <time>2022-01-20T15:37:20Z</time>
      </trkpt>
      <trkpt lat="47.25553" lon="-1.5399">
        <ele>37</ele>
        <time>2022-01-20T15:37:21Z</time>
      </trkpt>
      <trkpt lat="47.25555" lon="-1.53989">
        <ele>37</ele>
        <time>2022-01-20T15:37:22Z</time>
      </trkpt>
      <trkpt lat="47.25556" lon="-1.53989">
        <ele>37</ele>
        <time>2022-01-20T15:37:23Z</time>
      </trkpt>
      <trkpt lat="47.25557" lon="-1.53988">
        <ele>37</ele>
        <time>2022-01-20T15:37:24Z</time>
      </trkpt>
      <trkpt lat="47.25559" lon="-1.53988">
        <ele>37</ele>
        <time>2022-01-20T15:37:25Z</time>
      </trkpt>
      <trkpt lat="47.2556" lon="-1.53988">
        <ele>37</ele>
        <time>2022-01-20T15:37:26Z</time>
      </trkpt>
      <trkpt lat="47.25562" lon="-1.53988">
        <ele>37</ele>
        <time>2022-01-20T15:37:27Z</time>
      </trkpt>
      <trkpt lat="47.25563" lon="-1.53987">
        <ele>37</ele>
        <time>2022-01-20T15:37:28Z</time>
      </trkpt>
      <trkpt lat="47.25565" lon="-1.53987">
        <ele>37</ele>
        <time>2022-01-20T15:37:29Z</time>
      </trkpt>
      <trkpt lat="47.25566" lon="-1.53986">
        <ele>37</ele>
        <time>2022-01-20T15:37:30Z</time>
      </trkpt>
      <trkpt lat="47.25567" lon="-1.53985">
        <ele>37</ele>
        <time>2022-01-20T15:37:31Z</time>
      </trkpt>
      <trkpt lat="47.25568" lon="-1.53984">
        <ele>37</ele>
        <time>2022-01-20T15:37:32Z</time>
      </trkpt>
      <trkpt lat="47.25569" lon="-1.53984">
        <ele>37</ele>
        <time>2022-01-20T15:37:33Z</time>
      </trkpt>
      <trkpt lat="47.2557" lon="-1.53984">
        <ele>37</ele>
        <time>2022-01-20T15:37:34Z</time>
      </trkpt>
      <trkpt lat="47.25571" lon="-1.53983">
        <ele>36</ele>
        <time>2022-01-20T15:37:35Z</time>
      </trkpt>
      <trkpt lat="47.25572" lon="-1.53982">
        <ele>36</ele>
        <time>2022-01-20T15:37:36Z</time>
      </trkpt>
      <trkpt lat="47.25573" lon="-1.5398">
        <ele>36</ele>
        <time>2022-01-20T15:37:37Z</time>
      </trkpt>
      <trkpt lat="47.25575" lon="-1.53979">
        <ele>36</ele>
        <time>2022-01-20T15:37:38Z</time>
      </trkpt>
      <trkpt lat="47.25576" lon="-1.53978">
        <ele>35</ele>
        <time>2022-01-20T15:37:39Z</time>
      </trkpt>
      <trkpt lat="47.25577" lon="-1.53977">
        <ele>35</ele>
        <time>2022-01-20T15:37:40Z</time>
      </trkpt>
      <trkpt lat="47.25578" lon="-1.53977">
        <ele>35</ele>
        <time>2022-01-20T15:37:41Z</time>
      </trkpt>
      <trkpt lat="47.25579" lon="-1.53976">
        <ele>35</ele>
        <time>2022-01-20T15:37:42Z</time>
      </trkpt>
      <trkpt lat="47.2558" lon="-1.53974">
        <ele>35</ele>
        <time>2022-01-20T15:37:43Z</time>
      </trkpt>
      <trkpt lat="47.25581" lon="-1.53974">
        <ele>34</ele>
        <time>2022-01-20T15:37:44Z</time>
      </trkpt>
      <trkpt lat="47.25581" lon="-1.53973">
        <ele>34</ele>
        <time>2022-01-20T15:37:45Z</time>
      </trkpt>
      <trkpt lat="47.25582" lon="-1.53973">
        <ele>34</ele>
        <time>2022-01-20T15:37:46Z</time>
      </trkpt>
      <trkpt lat="47.25582" lon="-1.53973">
        <ele>34</ele>
        <time>2022-01-20T15:37:47Z</time>
      </trkpt>
      <trkpt lat="47.25583" lon="-1.53973">
        <ele>35</ele>
        <time>2022-01-20T15:37:48Z</time>
      </trkpt>
      <trkpt lat="47.25584" lon="-1.53971">
        <ele>35</ele>
        <time>2022-01-20T15:37:49Z</time>
      </trkpt>
      <trkpt lat="47.25585" lon="-1.5397">
        <ele>35</ele>
        <time>2022-01-20T15:37:50Z</time>
      </trkpt>
      <trkpt lat="47.25587" lon="-1.53969">
        <ele>35</ele>
        <time>2022-01-20T15:37:51Z</time>
      </trkpt>
      <trkpt lat="47.25588" lon="-1.53968">
        <ele>35</ele>
        <time>2022-01-20T15:37:52Z</time>
      </trkpt>
      <trkpt lat="47.25589" lon="-1.53968">
        <ele>35</ele>
        <time>2022-01-20T15:37:53Z</time>
      </trkpt>
      <trkpt lat="47.2559" lon="-1.53968">
        <ele>34</ele>
        <time>2022-01-20T15:37:54Z</time>
      </trkpt>
      <trkpt lat="47.25592" lon="-1.53967">
        <ele>34</ele>
        <time>2022-01-20T15:37:55Z</time>
      </trkpt>
      <trkpt lat="47.25593" lon="-1.53967">
        <ele>34</ele>
        <time>2022-01-20T15:37:56Z</time>
      </trkpt>
      <trkpt lat="47.25594" lon="-1.53967">
        <ele>34</ele>
        <time>2022-01-20T15:37:57Z</time>
      </trkpt>
      <trkpt lat="47.25595" lon="-1.53967">
        <ele>34</ele>
        <time>2022-01-20T15:37:58Z</time>
      </trkpt>
      <trkpt lat="47.25597" lon="-1.53967">
        <ele>34</ele>
        <time>2022-01-20T15:37:59Z</time>
      </trkpt>
      <trkpt lat="47.25598" lon="-1.53967">
        <ele>34</ele>
        <time>2022-01-20T15:38:00Z</time>
      </trkpt>
      <trkpt lat="47.25599" lon="-1.53967">
        <ele>34</ele>
        <time>2022-01-20T15:38:01Z</time>
      </trkpt>
      <trkpt lat="47.256" lon="-1.53968">
        <ele>34</ele>
        <time>2022-01-20T15:38:02Z</time>
      </trkpt>
      <trkpt lat="47.25601" lon="-1.53968">
        <ele>33</ele>
        <time>2022-01-20T15:38:03Z</time>
      </trkpt>
      <trkpt lat="47.25602" lon="-1.53968">
        <ele>33</ele>
        <time>2022-01-20T15:38:04Z</time>
      </trkpt>
      <trkpt lat="47.25603" lon="-1.53968">
        <ele>33</ele>
        <time>2022-01-20T15:38:05Z</time>
      </trkpt>
      <trkpt lat="47.25604" lon="-1.53968">
        <ele>33</ele>
        <time>2022-01-20T15:38:06Z</time>
      </trkpt>
      <trkpt lat="47.25604" lon="-1.53967">
        <ele>33</ele>
        <time>2022-01-20T15:38:07Z</time>
      </trkpt>
      <trkpt lat="47.25605" lon="-1.53966">
        <ele>33</ele>
        <time>2022-01-20T15:38:08Z</time>
      </trkpt>
      <trkpt lat="47.25607" lon="-1.53965">
        <ele>33</ele>
        <time>2022-01-20T15:38:09Z</time>
      </trkpt>
      <trkpt lat="47.25608" lon="-1.53964">
        <ele>33</ele>
        <time>2022-01-20T15:38:10Z</time>
      </trkpt>
      <trkpt lat="47.25609" lon="-1.53963">
        <ele>33</ele>
        <time>2022-01-20T15:38:11Z</time>
      </trkpt>
      <trkpt lat="47.2561" lon="-1.53962">
        <ele>33</ele>
        <time>2022-01-20T15:38:12Z</time>
      </trkpt>
      <trkpt lat="47.25612" lon="-1.53962">
        <ele>33</ele>
        <time>2022-01-20T15:38:13Z</time>
      </trkpt>
      <trkpt lat="47.25613" lon="-1.53961">
        <ele>33</ele>
        <time>2022-01-20T15:38:14Z</time>
      </trkpt>
      <trkpt lat="47.25614" lon="-1.53961">
        <ele>33</ele>
        <time>2022-01-20T15:38:15Z</time>
      </trkpt>
      <trkpt lat="47.25615" lon="-1.53961">
        <ele>34</ele>
        <time>2022-01-20T15:38:16Z</time>
      </trkpt>
      <trkpt lat="47.25617" lon="-1.5396">
        <ele>34</ele>
        <time>2022-01-20T15:38:17Z</time>
      </trkpt>
      <trkpt lat="47.25618" lon="-1.53959">
        <ele>34</ele>
        <time>2022-01-20T15:38:18Z</time>
      </trkpt>
      <trkpt lat="47.25618" lon="-1.53959">
        <ele>34</ele>
        <time>2022-01-20T15:38:19Z</time>
      </trkpt>
      <trkpt lat="47.25619" lon="-1.53959">
        <ele>33</ele>
        <time>2022-01-20T15:38:20Z</time>
      </trkpt>
      <trkpt lat="47.2562" lon="-1.53959">
        <ele>33</ele>
        <time>2022-01-20T15:38:21Z</time>
      </trkpt>
      <trkpt lat="47.25621" lon="-1.53959">
        <ele>33</ele>
        <time>2022-01-20T15:38:22Z</time>
      </trkpt>
      <trkpt lat="47.25623" lon="-1.53959">
        <ele>32</ele>
        <time>2022-01-20T15:38:23Z</time>
      </trkpt>
      <trkpt lat="47.25624" lon="-1.53959">
        <ele>32</ele>
        <time>2022-01-20T15:38:24Z</time>
      </trkpt>
      <trkpt lat="47.25625" lon="-1.53958">
        <ele>32</ele>
        <time>2022-01-20T15:38:25Z</time>
      </trkpt>
      <trkpt lat="47.25626" lon="-1.53957">
        <ele>33</ele>
        <time>2022-01-20T15:38:26Z</time>
      </trkpt>
      <trkpt lat="47.25627" lon="-1.53958">
        <ele>32</ele>
        <time>2022-01-20T15:38:27Z</time>
      </trkpt>
      <trkpt lat="47.25627" lon="-1.53957">
        <ele>31</ele>
        <time>2022-01-20T15:38:28Z</time>
      </trkpt>
      <trkpt lat="47.25628" lon="-1.53956">
        <ele>31</ele>
        <time>2022-01-20T15:38:29Z</time>
      </trkpt>
      <trkpt lat="47.25629" lon="-1.53955">
        <ele>31</ele>
        <time>2022-01-20T15:38:30Z</time>
      </trkpt>
      <trkpt lat="47.25629" lon="-1.53954">
        <ele>30</ele>
        <time>2022-01-20T15:38:31Z</time>
      </trkpt>
      <trkpt lat="47.2563" lon="-1.53953">
        <ele>30</ele>
        <time>2022-01-20T15:38:32Z</time>
      </trkpt>
      <trkpt lat="47.2563" lon="-1.53953">
        <ele>30</ele>
        <time>2022-01-20T15:38:33Z</time>
      </trkpt>
      <trkpt lat="47.25632" lon="-1.53952">
        <ele>30</ele>
        <time>2022-01-20T15:38:34Z</time>
      </trkpt>
      <trkpt lat="47.25633" lon="-1.53951">
        <ele>31</ele>
        <time>2022-01-20T15:38:35Z</time>
      </trkpt>
      <trkpt lat="47.25634" lon="-1.5395">
        <ele>31</ele>
        <time>2022-01-20T15:38:36Z</time>
      </trkpt>
      <trkpt lat="47.25636" lon="-1.5395">
        <ele>31</ele>
        <time>2022-01-20T15:38:37Z</time>
      </trkpt>
      <trkpt lat="47.25637" lon="-1.53949">
        <ele>31</ele>
        <time>2022-01-20T15:38:38Z</time>
      </trkpt>
      <trkpt lat="47.25639" lon="-1.53949">
        <ele>31</ele>
        <time>2022-01-20T15:38:39Z</time>
      </trkpt>
      <trkpt lat="47.25641" lon="-1.53948">
        <ele>31</ele>
        <time>2022-01-20T15:38:40Z</time>
      </trkpt>
      <trkpt lat="47.25642" lon="-1.53947">
        <ele>31</ele>
        <time>2022-01-20T15:38:41Z</time>
      </trkpt>
      <trkpt lat="47.25644" lon="-1.53947">
        <ele>31</ele>
        <time>2022-01-20T15:38:42Z</time>
      </trkpt>
      <trkpt lat="47.25645" lon="-1.53946">
        <ele>31</ele>
        <time>2022-01-20T15:38:43Z</time>
      </trkpt>
      <trkpt lat="47.25646" lon="-1.53946">
        <ele>32</ele>
        <time>2022-01-20T15:38:44Z</time>
      </trkpt>
      <trkpt lat="47.25647" lon="-1.53946">
        <ele>32</ele>
        <time>2022-01-20T15:38:45Z</time>
      </trkpt>
      <trkpt lat="47.25649" lon="-1.53945">
        <ele>32</ele>
        <time>2022-01-20T15:38:46Z</time>
      </trkpt>
      <trkpt lat="47.2565" lon="-1.53944">
        <ele>32</ele>
        <time>2022-01-20T15:38:47Z</time>
      </trkpt>
      <trkpt lat="47.25651" lon="-1.53943">
        <ele>33</ele>
        <time>2022-01-20T15:38:48Z</time>
      </trkpt>
      <trkpt lat="47.25652" lon="-1.53943">
        <ele>33</ele>
        <time>2022-01-20T15:38:49Z</time>
      </trkpt>
      <trkpt lat="47.25654" lon="-1.53943">
        <ele>33</ele>
        <time>2022-01-20T15:38:50Z</time>
      </trkpt>
      <trkpt lat="47.25655" lon="-1.53942">
        <ele>33</ele>
        <time>2022-01-20T15:38:51Z</time>
      </trkpt>
      <trkpt lat="47.25656" lon="-1.53942">
        <ele>33</ele>
        <time>2022-01-20T15:38:52Z</time>
      </trkpt>
      <trkpt lat="47.25658" lon="-1.53942">
        <ele>33</ele>
        <time>2022-01-20T15:38:53Z</time>
      </trkpt>
      <trkpt lat="47.25659" lon="-1.53942">
        <ele>32</ele>
        <time>2022-01-20T15:38:54Z</time>
      </trkpt>
      <trkpt lat="47.2566" lon="-1.53941">
        <ele>32</ele>
        <time>2022-01-20T15:38:55Z</time>
      </trkpt>
      <trkpt lat="47.25662" lon="-1.5394">
        <ele>32</ele>
        <time>2022-01-20T15:38:56Z</time>
      </trkpt>
      <trkpt lat="47.25663" lon="-1.53939">
        <ele>32</ele>
        <time>2022-01-20T15:38:57Z</time>
      </trkpt>
      <trkpt lat="47.25664" lon="-1.53938">
        <ele>33</ele>
        <time>2022-01-20T15:38:58Z</time>
      </trkpt>
      <trkpt lat="47.25665" lon="-1.53937">
        <ele>33</ele>
        <time>2022-01-20T15:38:59Z</time>
      </trkpt>
      <trkpt lat="47.25666" lon="-1.53937">
        <ele>33</ele>
        <time>2022-01-20T15:39:00Z</time>
      </trkpt>
      <trkpt lat="47.25668" lon="-1.53936">
        <ele>33</ele>
        <time>2022-01-20T15:39:01Z</time>
      </trkpt>
      <trkpt lat="47.25669" lon="-1.53935">
        <ele>33</ele>
        <time>2022-01-20T15:39:02Z</time>
      </trkpt>
      <trkpt lat="47.2567" lon="-1.53934">
        <ele>33</ele>
        <time>2022-01-20T15:39:03Z</time>
      </trkpt>
      <trkpt lat="47.25671" lon="-1.53933">
        <ele>33</ele>
        <time>2022-01-20T15:39:04Z</time>
      </trkpt>
      <trkpt lat="47.25673" lon="-1.53932">
        <ele>33</ele>
        <time>2022-01-20T15:39:05Z</time>
      </trkpt>
      <trkpt lat="47.25674" lon="-1.53932">
        <ele>33</ele>
        <time>2022-01-20T15:39:06Z</time>
      </trkpt>
      <trkpt lat="47.25675" lon="-1.53931">
        <ele>34</ele>
        <time>2022-01-20T15:39:07Z</time>
      </trkpt>
      <trkpt lat="47.25676" lon="-1.53931">
        <ele>34</ele>
        <time>2022-01-20T15:39:08Z</time>
      </trkpt>
      <trkpt lat="47.25678" lon="-1.5393">
        <ele>34</ele>
        <time>2022-01-20T15:39:09Z</time>
      </trkpt>
      <trkpt lat="47.25679" lon="-1.53929">
        <ele>33</ele>
        <time>2022-01-20T15:39:10Z</time>
      </trkpt>
      <trkpt lat="47.2568" lon="-1.53927">
        <ele>33</ele>
        <time>2022-01-20T15:39:11Z</time>
      </trkpt>
      <trkpt lat="47.25681" lon="-1.53926">
        <ele>33</ele>
        <time>2022-01-20T15:39:12Z</time>
      </trkpt>
      <trkpt lat="47.25683" lon="-1.53925">
        <ele>33</ele>
        <time>2022-01-20T15:39:13Z</time>
      </trkpt>
      <trkpt lat="47.25685" lon="-1.53924">
        <ele>33</ele>
        <time>2022-01-20T15:39:14Z</time>
      </trkpt>
      <trkpt lat="47.25687" lon="-1.53923">
        <ele>34</ele>
        <time>2022-01-20T15:39:15Z</time>
      </trkpt>
      <trkpt lat="47.25688" lon="-1.53922">
        <ele>34</ele>
        <time>2022-01-20T15:39:16Z</time>
      </trkpt>
      <trkpt lat="47.25689" lon="-1.53921">
        <ele>33</ele>
        <time>2022-01-20T15:39:17Z</time>
      </trkpt>
      <trkpt lat="47.25691" lon="-1.53921">
        <ele>34</ele>
        <time>2022-01-20T15:39:18Z</time>
      </trkpt>
      <trkpt lat="47.25692" lon="-1.5392">
        <ele>33</ele>
        <time>2022-01-20T15:39:19Z</time>
      </trkpt>
      <trkpt lat="47.25694" lon="-1.53919">
        <ele>33</ele>
        <time>2022-01-20T15:39:20Z</time>
      </trkpt>
      <trkpt lat="47.25695" lon="-1.53919">
        <ele>34</ele>
        <time>2022-01-20T15:39:21Z</time>
      </trkpt>
      <trkpt lat="47.25697" lon="-1.53918">
        <ele>33</ele>
        <time>2022-01-20T15:39:22Z</time>
      </trkpt>
      <trkpt lat="47.25699" lon="-1.53918">
        <ele>34</ele>
        <time>2022-01-20T15:39:23Z</time>
      </trkpt>
      <trkpt lat="47.25701" lon="-1.53918">
        <ele>33</ele>
        <time>2022-01-20T15:39:24Z</time>
      </trkpt>
      <trkpt lat="47.25703" lon="-1.53918">
        <ele>34</ele>
        <time>2022-01-20T15:39:25Z</time>
      </trkpt>
      <trkpt lat="47.25705" lon="-1.53918">
        <ele>34</ele>
        <time>2022-01-20T15:39:26Z</time>
      </trkpt>
      <trkpt lat="47.25707" lon="-1.53917">
        <ele>34</ele>
        <time>2022-01-20T15:39:27Z</time>
      </trkpt>
      <trkpt lat="47.25709" lon="-1.53917">
        <ele>34</ele>
        <time>2022-01-20T15:39:28Z</time>
      </trkpt>
      <trkpt lat="47.2571" lon="-1.53916">
        <ele>34</ele>
        <time>2022-01-20T15:39:29Z</time>
      </trkpt>
      <trkpt lat="47.25712" lon="-1.53916">
        <ele>34</ele>
        <time>2022-01-20T15:39:30Z</time>
      </trkpt>
      <trkpt lat="47.25713" lon="-1.53916">
        <ele>34</ele>
        <time>2022-01-20T15:39:31Z</time>
      </trkpt>
      <trkpt lat="47.25715" lon="-1.53916">
        <ele>34</ele>
        <time>2022-01-20T15:39:32Z</time>
      </trkpt>
      <trkpt lat="47.25716" lon="-1.53916">
        <ele>35</ele>
        <time>2022-01-20T15:39:33Z</time>
      </trkpt>
      <trkpt lat="47.25716" lon="-1.53916">
        <ele>35</ele>
        <time>2022-01-20T15:39:34Z</time>
      </trkpt>
      <trkpt lat="47.25717" lon="-1.53916">
        <ele>35</ele>
        <time>2022-01-20T15:39:35Z</time>
      </trkpt>
      <trkpt lat="47.25718" lon="-1.53916">
        <ele>36</ele>
        <time>2022-01-20T15:39:36Z</time>
      </trkpt>
      <trkpt lat="47.25719" lon="-1.53917">
        <ele>36</ele>
        <time>2022-01-20T15:39:37Z</time>
      </trkpt>
      <trkpt lat="47.2572" lon="-1.53917">
        <ele>36</ele>
        <time>2022-01-20T15:39:38Z</time>
      </trkpt>
      <trkpt lat="47.25721" lon="-1.53918">
        <ele>36</ele>
        <time>2022-01-20T15:39:39Z</time>
      </trkpt>
      <trkpt lat="47.25722" lon="-1.53919">
        <ele>36</ele>
        <time>2022-01-20T15:39:40Z</time>
      </trkpt>
      <trkpt lat="47.25723" lon="-1.5392">
        <ele>37</ele>
        <time>2022-01-20T15:39:41Z</time>
      </trkpt>
      <trkpt lat="47.25724" lon="-1.53922">
        <ele>37</ele>
        <time>2022-01-20T15:39:42Z</time>
      </trkpt>
      <trkpt lat="47.25725" lon="-1.53923">
        <ele>37</ele>
        <time>2022-01-20T15:39:44Z</time>
      </trkpt>
      <trkpt lat="47.25726" lon="-1.53924">
        <ele>38</ele>
        <time>2022-01-20T15:39:45Z</time>
      </trkpt>
      <trkpt lat="47.25726" lon="-1.53925">
        <ele>38</ele>
        <time>2022-01-20T15:39:46Z</time>
      </trkpt>
      <trkpt lat="47.25727" lon="-1.53926">
        <ele>38</ele>
        <time>2022-01-20T15:39:47Z</time>
      </trkpt>
      <trkpt lat="47.25728" lon="-1.53928">
        <ele>38</ele>
        <time>2022-01-20T15:39:48Z</time>
      </trkpt>
      <trkpt lat="47.25729" lon="-1.53929">
        <ele>38</ele>
        <time>2022-01-20T15:39:49Z</time>
      </trkpt>
      <trkpt lat="47.2573" lon="-1.5393">
        <ele>38</ele>
        <time>2022-01-20T15:39:50Z</time>
      </trkpt>
      <trkpt lat="47.25731" lon="-1.53932">
        <ele>38</ele>
        <time>2022-01-20T15:39:51Z</time>
      </trkpt>
      <trkpt lat="47.25732" lon="-1.53934">
        <ele>38</ele>
        <time>2022-01-20T15:39:52Z</time>
      </trkpt>
      <trkpt lat="47.25732" lon="-1.53935">
        <ele>38</ele>
        <time>2022-01-20T15:39:53Z</time>
      </trkpt>
      <trkpt lat="47.25732" lon="-1.53937">
        <ele>38</ele>
        <time>2022-01-20T15:39:54Z</time>
      </trkpt>
      <trkpt lat="47.25733" lon="-1.53938">
        <ele>38</ele>
        <time>2022-01-20T15:39:55Z</time>
      </trkpt>
      <trkpt lat="47.25734" lon="-1.53939">
        <ele>38</ele>
        <time>2022-01-20T15:39:56Z</time>
      </trkpt>
      <trkpt lat="47.25734" lon="-1.53939">
        <ele>38</ele>
        <time>2022-01-20T15:39:57Z</time>
      </trkpt>
      <trkpt lat="47.25735" lon="-1.5394">
        <ele>38</ele>
        <time>2022-01-20T15:39:58Z</time>
      </trkpt>
      <trkpt lat="47.25736" lon="-1.53942">
        <ele>39</ele>
        <time>2022-01-20T15:39:59Z</time>
      </trkpt>
      <trkpt lat="47.25737" lon="-1.53943">
        <ele>39</ele>
        <time>2022-01-20T15:40:00Z</time>
      </trkpt>
      <trkpt lat="47.25737" lon="-1.53944">
        <ele>39</ele>
        <time>2022-01-20T15:40:01Z</time>
      </trkpt>
      <trkpt lat="47.25738" lon="-1.53946">
        <ele>39</ele>
        <time>2022-01-20T15:40:02Z</time>
      </trkpt>
      <trkpt lat="47.25739" lon="-1.53947">
        <ele>40</ele>
        <time>2022-01-20T15:40:03Z</time>
      </trkpt>
      <trkpt lat="47.2574" lon="-1.53949">
        <ele>40</ele>
        <time>2022-01-20T15:40:04Z</time>
      </trkpt>
      <trkpt lat="47.2574" lon="-1.5395">
        <ele>40</ele>
        <time>2022-01-20T15:40:05Z</time>
      </trkpt>
      <trkpt lat="47.25741" lon="-1.53952">
        <ele>40</ele>
        <time>2022-01-20T15:40:06Z</time>
      </trkpt>
      <trkpt lat="47.25742" lon="-1.53953">
        <ele>40</ele>
        <time>2022-01-20T15:40:07Z</time>
      </trkpt>
      <trkpt lat="47.25743" lon="-1.53954">
        <ele>39</ele>
        <time>2022-01-20T15:40:08Z</time>
      </trkpt>
      <trkpt lat="47.25744" lon="-1.53955">
        <ele>40</ele>
        <time>2022-01-20T15:40:09Z</time>
      </trkpt>
      <trkpt lat="47.25745" lon="-1.53957">
        <ele>40</ele>
        <time>2022-01-20T15:40:10Z</time>
      </trkpt>
      <trkpt lat="47.25745" lon="-1.53957">
        <ele>40</ele>
        <time>2022-01-20T15:40:11Z</time>
      </trkpt>
      <trkpt lat="47.25745" lon="-1.53958">
        <ele>40</ele>
        <time>2022-01-20T15:40:12Z</time>
      </trkpt>
      <trkpt lat="47.25746" lon="-1.53959">
        <ele>40</ele>
        <time>2022-01-20T15:40:13Z</time>
      </trkpt>
      <trkpt lat="47.25747" lon="-1.5396">
        <ele>40</ele>
        <time>2022-01-20T15:40:14Z</time>
      </trkpt>
      <trkpt lat="47.25748" lon="-1.53961">
        <ele>40</ele>
        <time>2022-01-20T15:40:15Z</time>
      </trkpt>
      <trkpt lat="47.25749" lon="-1.53962">
        <ele>40</ele>
        <time>2022-01-20T15:40:16Z</time>
      </trkpt>
      <trkpt lat="47.25749" lon="-1.53962">
        <ele>40</ele>
        <time>2022-01-20T15:40:17Z</time>
      </trkpt>
      <trkpt lat="47.25749" lon="-1.53962">
        <ele>40</ele>
        <time>2022-01-20T15:40:18Z</time>
      </trkpt>
      <trkpt lat="47.25751" lon="-1.53963">
        <ele>40</ele>
        <time>2022-01-20T15:40:19Z</time>
      </trkpt>
      <trkpt lat="47.25752" lon="-1.53964">
        <ele>40</ele>
        <time>2022-01-20T15:40:20Z</time>
      </trkpt>
      <trkpt lat="47.25753" lon="-1.53965">
        <ele>41</ele>
        <time>2022-01-20T15:40:21Z</time>
      </trkpt>
      <trkpt lat="47.25754" lon="-1.53965">
        <ele>41</ele>
        <time>2022-01-20T15:40:22Z</time>
      </trkpt>
      <trkpt lat="47.25755" lon="-1.53966">
        <ele>41</ele>
        <time>2022-01-20T15:40:23Z</time>
      </trkpt>
      <trkpt lat="47.25757" lon="-1.53966">
        <ele>41</ele>
        <time>2022-01-20T15:40:24Z</time>
      </trkpt>
      <trkpt lat="47.25757" lon="-1.53967">
        <ele>41</ele>
        <time>2022-01-20T15:40:25Z</time>
      </trkpt>
      <trkpt lat="47.25758" lon="-1.53967">
        <ele>41</ele>
        <time>2022-01-20T15:40:26Z</time>
      </trkpt>
      <trkpt lat="47.25759" lon="-1.53967">
        <ele>41</ele>
        <time>2022-01-20T15:40:27Z</time>
      </trkpt>
      <trkpt lat="47.2576" lon="-1.53967">
        <ele>41</ele>
        <time>2022-01-20T15:40:28Z</time>
      </trkpt>
      <trkpt lat="47.25761" lon="-1.53966">
        <ele>40</ele>
        <time>2022-01-20T15:40:29Z</time>
      </trkpt>
      <trkpt lat="47.25764" lon="-1.53966">
        <ele>40</ele>
        <time>2022-01-20T15:40:30Z</time>
      </trkpt>
      <trkpt lat="47.25764" lon="-1.53966">
        <ele>40</ele>
        <time>2022-01-20T15:40:30Z</time>
      </trkpt>
      <trkpt lat="47.25765" lon="-1.53965">
        <ele>39</ele>
        <time>2022-01-20T15:40:32Z</time>
      </trkpt>
      <trkpt lat="47.25767" lon="-1.53964">
        <ele>39</ele>
        <time>2022-01-20T15:40:33Z</time>
      </trkpt>
      <trkpt lat="47.25769" lon="-1.53963">
        <ele>39</ele>
        <time>2022-01-20T15:40:34Z</time>
      </trkpt>
      <trkpt lat="47.25771" lon="-1.53962">
        <ele>38</ele>
        <time>2022-01-20T15:40:35Z</time>
      </trkpt>
      <trkpt lat="47.25773" lon="-1.53962">
        <ele>38</ele>
        <time>2022-01-20T15:40:36Z</time>
      </trkpt>
      <trkpt lat="47.25774" lon="-1.53961">
        <ele>37</ele>
        <time>2022-01-20T15:40:37Z</time>
      </trkpt>
      <trkpt lat="47.25776" lon="-1.53961">
        <ele>37</ele>
        <time>2022-01-20T15:40:38Z</time>
      </trkpt>
      <trkpt lat="47.25778" lon="-1.53961">
        <ele>37</ele>
        <time>2022-01-20T15:40:39Z</time>
      </trkpt>
      <trkpt lat="47.2578" lon="-1.5396">
        <ele>36</ele>
        <time>2022-01-20T15:40:40Z</time>
      </trkpt>
      <trkpt lat="47.25782" lon="-1.5396">
        <ele>37</ele>
        <time>2022-01-20T15:40:41Z</time>
      </trkpt>
      <trkpt lat="47.25783" lon="-1.5396">
        <ele>36</ele>
        <time>2022-01-20T15:40:42Z</time>
      </trkpt>
      <trkpt lat="47.25785" lon="-1.5396">
        <ele>36</ele>
        <time>2022-01-20T15:40:43Z</time>
      </trkpt>
      <trkpt lat="47.25787" lon="-1.53959">
        <ele>36</ele>
        <time>2022-01-20T15:40:44Z</time>
      </trkpt>
      <trkpt lat="47.2579" lon="-1.53959">
        <ele>36</ele>
        <time>2022-01-20T15:40:45Z</time>
      </trkpt>
      <trkpt lat="47.25792" lon="-1.53958">
        <ele>36</ele>
        <time>2022-01-20T15:40:46Z</time>
      </trkpt>
      <trkpt lat="47.25794" lon="-1.53958">
        <ele>36</ele>
        <time>2022-01-20T15:40:47Z</time>
      </trkpt>
      <trkpt lat="47.25795" lon="-1.53957">
        <ele>36</ele>
        <time>2022-01-20T15:40:48Z</time>
      </trkpt>
      <trkpt lat="47.25797" lon="-1.53957">
        <ele>36</ele>
        <time>2022-01-20T15:40:49Z</time>
      </trkpt>
      <trkpt lat="47.25798" lon="-1.53957">
        <ele>35</ele>
        <time>2022-01-20T15:40:50Z</time>
      </trkpt>
      <trkpt lat="47.258" lon="-1.53957">
        <ele>35</ele>
        <time>2022-01-20T15:40:51Z</time>
      </trkpt>
      <trkpt lat="47.25801" lon="-1.53957">
        <ele>35</ele>
        <time>2022-01-20T15:40:52Z</time>
      </trkpt>
      <trkpt lat="47.25803" lon="-1.53957">
        <ele>35</ele>
        <time>2022-01-20T15:40:53Z</time>
      </trkpt>
      <trkpt lat="47.25804" lon="-1.53957">
        <ele>35</ele>
        <time>2022-01-20T15:40:54Z</time>
      </trkpt>
      <trkpt lat="47.25805" lon="-1.53958">
        <ele>35</ele>
        <time>2022-01-20T15:40:55Z</time>
      </trkpt>
      <trkpt lat="47.25807" lon="-1.53958">
        <ele>36</ele>
        <time>2022-01-20T15:40:56Z</time>
      </trkpt>
      <trkpt lat="47.25807" lon="-1.53957">
        <ele>36</ele>
        <time>2022-01-20T15:40:57Z</time>
      </trkpt>
      <trkpt lat="47.25808" lon="-1.53957">
        <ele>36</ele>
        <time>2022-01-20T15:40:58Z</time>
      </trkpt>
      <trkpt lat="47.25808" lon="-1.53957">
        <ele>36</ele>
        <time>2022-01-20T15:40:59Z</time>
      </trkpt>
      <trkpt lat="47.25809" lon="-1.53957">
        <ele>36</ele>
        <time>2022-01-20T15:41:00Z</time>
      </trkpt>
      <trkpt lat="47.25811" lon="-1.53956">
        <ele>36</ele>
        <time>2022-01-20T15:41:01Z</time>
      </trkpt>
      <trkpt lat="47.25812" lon="-1.53956">
        <ele>37</ele>
        <time>2022-01-20T15:41:02Z</time>
      </trkpt>
      <trkpt lat="47.25813" lon="-1.53955">
        <ele>37</ele>
        <time>2022-01-20T15:41:03Z</time>
      </trkpt>
      <trkpt lat="47.25814" lon="-1.53955">
        <ele>37</ele>
        <time>2022-01-20T15:41:04Z</time>
      </trkpt>
      <trkpt lat="47.25816" lon="-1.53955">
        <ele>37</ele>
        <time>2022-01-20T15:41:05Z</time>
      </trkpt>
      <trkpt lat="47.25817" lon="-1.53955">
        <ele>37</ele>
        <time>2022-01-20T15:41:06Z</time>
      </trkpt>
      <trkpt lat="47.25818" lon="-1.53954">
        <ele>37</ele>
        <time>2022-01-20T15:41:07Z</time>
      </trkpt>
      <trkpt lat="47.2582" lon="-1.53954">
        <ele>37</ele>
        <time>2022-01-20T15:41:08Z</time>
      </trkpt>
      <trkpt lat="47.25821" lon="-1.53953">
        <ele>37</ele>
        <time>2022-01-20T15:41:09Z</time>
      </trkpt>
      <trkpt lat="47.25822" lon="-1.53953">
        <ele>37</ele>
        <time>2022-01-20T15:41:10Z</time>
      </trkpt>
      <trkpt lat="47.25823" lon="-1.53952">
        <ele>37</ele>
        <time>2022-01-20T15:41:11Z</time>
      </trkpt>
      <trkpt lat="47.25824" lon="-1.53952">
        <ele>37</ele>
        <time>2022-01-20T15:41:12Z</time>
      </trkpt>
      <trkpt lat="47.25825" lon="-1.53951">
        <ele>37</ele>
        <time>2022-01-20T15:41:13Z</time>
      </trkpt>
      <trkpt lat="47.25826" lon="-1.53951">
        <ele>37</ele>
        <time>2022-01-20T15:41:14Z</time>
      </trkpt>
      <trkpt lat="47.25827" lon="-1.53951">
        <ele>37</ele>
        <time>2022-01-20T15:41:15Z</time>
      </trkpt>
      <trkpt lat="47.25829" lon="-1.5395">
        <ele>38</ele>
        <time>2022-01-20T15:41:16Z</time>
      </trkpt>
      <trkpt lat="47.2583" lon="-1.5395">
        <ele>38</ele>
        <time>2022-01-20T15:41:17Z</time>
      </trkpt>
      <trkpt lat="47.25831" lon="-1.5395">
        <ele>38</ele>
        <time>2022-01-20T15:41:18Z</time>
      </trkpt>
      <trkpt lat="47.25832" lon="-1.5395">
        <ele>38</ele>
        <time>2022-01-20T15:41:19Z</time>
      </trkpt>
      <trkpt lat="47.25833" lon="-1.5395">
        <ele>38</ele>
        <time>2022-01-20T15:41:20Z</time>
      </trkpt>
      <trkpt lat="47.25836" lon="-1.53949">
        <ele>39</ele>
        <time>2022-01-20T15:41:21Z</time>
      </trkpt>
      <trkpt lat="47.25836" lon="-1.53949">
        <ele>39</ele>
        <time>2022-01-20T15:41:21Z</time>
      </trkpt>
      <trkpt lat="47.25838" lon="-1.53948">
        <ele>39</ele>
        <time>2022-01-20T15:41:23Z</time>
      </trkpt>
      <trkpt lat="47.25839" lon="-1.53947">
        <ele>39</ele>
        <time>2022-01-20T15:41:24Z</time>
      </trkpt>
      <trkpt lat="47.25841" lon="-1.53946">
        <ele>39</ele>
        <time>2022-01-20T15:41:25Z</time>
      </trkpt>
      <trkpt lat="47.25842" lon="-1.53946">
        <ele>39</ele>
        <time>2022-01-20T15:41:26Z</time>
      </trkpt>
      <trkpt lat="47.25843" lon="-1.53945">
        <ele>38</ele>
        <time>2022-01-20T15:41:27Z</time>
      </trkpt>
      <trkpt lat="47.25843" lon="-1.53945">
        <ele>38</ele>
        <time>2022-01-20T15:41:27Z</time>
      </trkpt>
      <trkpt lat="47.25845" lon="-1.53944">
        <ele>39</ele>
        <time>2022-01-20T15:41:29Z</time>
      </trkpt>
      <trkpt lat="47.25847" lon="-1.53943">
        <ele>39</ele>
        <time>2022-01-20T15:41:30Z</time>
      </trkpt>
      <trkpt lat="47.25848" lon="-1.53943">
        <ele>38</ele>
        <time>2022-01-20T15:41:31Z</time>
      </trkpt>
      <trkpt lat="47.25849" lon="-1.53942">
        <ele>38</ele>
        <time>2022-01-20T15:41:32Z</time>
      </trkpt>
      <trkpt lat="47.25851" lon="-1.53942">
        <ele>38</ele>
        <time>2022-01-20T15:41:33Z</time>
      </trkpt>
      <trkpt lat="47.25852" lon="-1.53941">
        <ele>38</ele>
        <time>2022-01-20T15:41:34Z</time>
      </trkpt>
      <trkpt lat="47.25853" lon="-1.5394">
        <ele>38</ele>
        <time>2022-01-20T15:41:35Z</time>
      </trkpt>
      <trkpt lat="47.25855" lon="-1.53939">
        <ele>38</ele>
        <time>2022-01-20T15:41:36Z</time>
      </trkpt>
      <trkpt lat="47.25856" lon="-1.53937">
        <ele>38</ele>
        <time>2022-01-20T15:41:37Z</time>
      </trkpt>
      <trkpt lat="47.25856" lon="-1.53936">
        <ele>38</ele>
        <time>2022-01-20T15:41:38Z</time>
      </trkpt>
      <trkpt lat="47.25858" lon="-1.53936">
        <ele>39</ele>
        <time>2022-01-20T15:41:39Z</time>
      </trkpt>
      <trkpt lat="47.25859" lon="-1.53935">
        <ele>39</ele>
        <time>2022-01-20T15:41:40Z</time>
      </trkpt>
      <trkpt lat="47.25861" lon="-1.53934">
        <ele>38</ele>
        <time>2022-01-20T15:41:41Z</time>
      </trkpt>
      <trkpt lat="47.25862" lon="-1.53933">
        <ele>38</ele>
        <time>2022-01-20T15:41:42Z</time>
      </trkpt>
      <trkpt lat="47.25863" lon="-1.53932">
        <ele>38</ele>
        <time>2022-01-20T15:41:43Z</time>
      </trkpt>
      <trkpt lat="47.25864" lon="-1.53931">
        <ele>38</ele>
        <time>2022-01-20T15:41:44Z</time>
      </trkpt>
      <trkpt lat="47.25866" lon="-1.53928">
        <ele>37</ele>
        <time>2022-01-20T15:41:45Z</time>
      </trkpt>
      <trkpt lat="47.25866" lon="-1.53928">
        <ele>37</ele>
        <time>2022-01-20T15:41:45Z</time>
      </trkpt>
      <trkpt lat="47.25869" lon="-1.53926">
        <ele>37</ele>
        <time>2022-01-20T15:41:47Z</time>
      </trkpt>
      <trkpt lat="47.25869" lon="-1.53926">
        <ele>37</ele>
        <time>2022-01-20T15:41:47Z</time>
      </trkpt>
      <trkpt lat="47.2587" lon="-1.53925">
        <ele>37</ele>
        <time>2022-01-20T15:41:49Z</time>
      </trkpt>
      <trkpt lat="47.25871" lon="-1.53925">
        <ele>38</ele>
        <time>2022-01-20T15:41:50Z</time>
      </trkpt>
      <trkpt lat="47.25873" lon="-1.53925">
        <ele>38</ele>
        <time>2022-01-20T15:41:51Z</time>
      </trkpt>
      <trkpt lat="47.25874" lon="-1.53924">
        <ele>38</ele>
        <time>2022-01-20T15:41:52Z</time>
      </trkpt>
      <trkpt lat="47.25875" lon="-1.53924">
        <ele>38</ele>
        <time>2022-01-20T15:41:53Z</time>
      </trkpt>
      <trkpt lat="47.25877" lon="-1.53923">
        <ele>38</ele>
        <time>2022-01-20T15:41:54Z</time>
      </trkpt>
      <trkpt lat="47.2588" lon="-1.53921">
        <ele>38</ele>
        <time>2022-01-20T15:41:55Z</time>
      </trkpt>
      <trkpt lat="47.2588" lon="-1.53921">
        <ele>38</ele>
        <time>2022-01-20T15:41:55Z</time>
      </trkpt>
      <trkpt lat="47.25881" lon="-1.53919">
        <ele>38</ele>
        <time>2022-01-20T15:41:57Z</time>
      </trkpt>
      <trkpt lat="47.25883" lon="-1.53918">
        <ele>39</ele>
        <time>2022-01-20T15:41:58Z</time>
      </trkpt>
      <trkpt lat="47.25886" lon="-1.53915">
        <ele>39</ele>
        <time>2022-01-20T15:41:59Z</time>
      </trkpt>
      <trkpt lat="47.25887" lon="-1.53914">
        <ele>38</ele>
        <time>2022-01-20T15:42:00Z</time>
      </trkpt>
      <trkpt lat="47.25888" lon="-1.53913">
        <ele>38</ele>
        <time>2022-01-20T15:42:01Z</time>
      </trkpt>
      <trkpt lat="47.2589" lon="-1.53912">
        <ele>38</ele>
        <time>2022-01-20T15:42:02Z</time>
      </trkpt>
      <trkpt lat="47.25891" lon="-1.53912">
        <ele>38</ele>
        <time>2022-01-20T15:42:03Z</time>
      </trkpt>
      <trkpt lat="47.25892" lon="-1.53911">
        <ele>37</ele>
        <time>2022-01-20T15:42:04Z</time>
      </trkpt>
      <trkpt lat="47.25894" lon="-1.5391">
        <ele>37</ele>
        <time>2022-01-20T15:42:05Z</time>
      </trkpt>
      <trkpt lat="47.25894" lon="-1.5391">
        <ele>37</ele>
        <time>2022-01-20T15:42:05Z</time>
      </trkpt>
      <trkpt lat="47.25897" lon="-1.53908">
        <ele>36</ele>
        <time>2022-01-20T15:42:07Z</time>
      </trkpt>
      <trkpt lat="47.25899" lon="-1.53908">
        <ele>36</ele>
        <time>2022-01-20T15:42:08Z</time>
      </trkpt>
      <trkpt lat="47.25899" lon="-1.53908">
        <ele>36</ele>
        <time>2022-01-20T15:42:08Z</time>
      </trkpt>
      <trkpt lat="47.25902" lon="-1.53906">
        <ele>36</ele>
        <time>2022-01-20T15:42:10Z</time>
      </trkpt>
      <trkpt lat="47.25903" lon="-1.53905">
        <ele>36</ele>
        <time>2022-01-20T15:42:11Z</time>
      </trkpt>
      <trkpt lat="47.25903" lon="-1.53905">
        <ele>36</ele>
        <time>2022-01-20T15:42:11Z</time>
      </trkpt>
      <trkpt lat="47.25906" lon="-1.53904">
        <ele>36</ele>
        <time>2022-01-20T15:42:13Z</time>
      </trkpt>
      <trkpt lat="47.25908" lon="-1.53903">
        <ele>36</ele>
        <time>2022-01-20T15:42:14Z</time>
      </trkpt>
      <trkpt lat="47.25909" lon="-1.53903">
        <ele>36</ele>
        <time>2022-01-20T15:42:15Z</time>
      </trkpt>
      <trkpt lat="47.25911" lon="-1.53903">
        <ele>36</ele>
        <time>2022-01-20T15:42:16Z</time>
      </trkpt>
      <trkpt lat="47.25911" lon="-1.53902">
        <ele>36</ele>
        <time>2022-01-20T15:42:17Z</time>
      </trkpt>
      <trkpt lat="47.25913" lon="-1.53901">
        <ele>36</ele>
        <time>2022-01-20T15:42:18Z</time>
      </trkpt>
      <trkpt lat="47.25915" lon="-1.539">
        <ele>36</ele>
        <time>2022-01-20T15:42:19Z</time>
      </trkpt>
      <trkpt lat="47.25916" lon="-1.539">
        <ele>36</ele>
        <time>2022-01-20T15:42:20Z</time>
      </trkpt>
      <trkpt lat="47.25918" lon="-1.53899">
        <ele>36</ele>
        <time>2022-01-20T15:42:21Z</time>
      </trkpt>
      <trkpt lat="47.25919" lon="-1.53899">
        <ele>36</ele>
        <time>2022-01-20T15:42:22Z</time>
      </trkpt>
      <trkpt lat="47.25921" lon="-1.53898">
        <ele>36</ele>
        <time>2022-01-20T15:42:23Z</time>
      </trkpt>
      <trkpt lat="47.25922" lon="-1.53898">
        <ele>36</ele>
        <time>2022-01-20T15:42:24Z</time>
      </trkpt>
      <trkpt lat="47.25923" lon="-1.53897">
        <ele>35</ele>
        <time>2022-01-20T15:42:25Z</time>
      </trkpt>
      <trkpt lat="47.25924" lon="-1.53897">
        <ele>36</ele>
        <time>2022-01-20T15:42:26Z</time>
      </trkpt>
      <trkpt lat="47.25925" lon="-1.53897">
        <ele>35</ele>
        <time>2022-01-20T15:42:27Z</time>
      </trkpt>
      <trkpt lat="47.25927" lon="-1.53897">
        <ele>35</ele>
        <time>2022-01-20T15:42:28Z</time>
      </trkpt>
      <trkpt lat="47.25929" lon="-1.53896">
        <ele>35</ele>
        <time>2022-01-20T15:42:29Z</time>
      </trkpt>
      <trkpt lat="47.2593" lon="-1.53896">
        <ele>35</ele>
        <time>2022-01-20T15:42:30Z</time>
      </trkpt>
      <trkpt lat="47.25931" lon="-1.53896">
        <ele>35</ele>
        <time>2022-01-20T15:42:31Z</time>
      </trkpt>
      <trkpt lat="47.25932" lon="-1.53895">
        <ele>35</ele>
        <time>2022-01-20T15:42:32Z</time>
      </trkpt>
      <trkpt lat="47.25934" lon="-1.53895">
        <ele>35</ele>
        <time>2022-01-20T15:42:33Z</time>
      </trkpt>
      <trkpt lat="47.25935" lon="-1.53894">
        <ele>35</ele>
        <time>2022-01-20T15:42:34Z</time>
      </trkpt>
      <trkpt lat="47.25935" lon="-1.53893">
        <ele>36</ele>
        <time>2022-01-20T15:42:35Z</time>
      </trkpt>
      <trkpt lat="47.25936" lon="-1.53893">
        <ele>36</ele>
        <time>2022-01-20T15:42:36Z</time>
      </trkpt>
      <trkpt lat="47.25937" lon="-1.53892">
        <ele>36</ele>
        <time>2022-01-20T15:42:37Z</time>
      </trkpt>
      <trkpt lat="47.25937" lon="-1.53892">
        <ele>36</ele>
        <time>2022-01-20T15:42:38Z</time>
      </trkpt>
      <trkpt lat="47.25937" lon="-1.53891">
        <ele>36</ele>
        <time>2022-01-20T15:42:39Z</time>
      </trkpt>
      <trkpt lat="47.25938" lon="-1.53892">
        <ele>36</ele>
        <time>2022-01-20T15:42:40Z</time>
      </trkpt>
      <trkpt lat="47.25939" lon="-1.53891">
        <ele>36</ele>
        <time>2022-01-20T15:42:41Z</time>
      </trkpt>
      <trkpt lat="47.2594" lon="-1.5389">
        <ele>36</ele>
        <time>2022-01-20T15:42:42Z</time>
      </trkpt>
      <trkpt lat="47.25941" lon="-1.53889">
        <ele>36</ele>
        <time>2022-01-20T15:42:43Z</time>
      </trkpt>
      <trkpt lat="47.25942" lon="-1.53888">
        <ele>36</ele>
        <time>2022-01-20T15:42:44Z</time>
      </trkpt>
      <trkpt lat="47.25943" lon="-1.53887">
        <ele>35</ele>
        <time>2022-01-20T15:42:45Z</time>
      </trkpt>
      <trkpt lat="47.25944" lon="-1.53886">
        <ele>35</ele>
        <time>2022-01-20T15:42:46Z</time>
      </trkpt>
      <trkpt lat="47.25946" lon="-1.53885">
        <ele>35</ele>
        <time>2022-01-20T15:42:47Z</time>
      </trkpt>
      <trkpt lat="47.25947" lon="-1.53885">
        <ele>34</ele>
        <time>2022-01-20T15:42:48Z</time>
      </trkpt>
      <trkpt lat="47.25948" lon="-1.53884">
        <ele>34</ele>
        <time>2022-01-20T15:42:49Z</time>
      </trkpt>
      <trkpt lat="47.25948" lon="-1.53884">
        <ele>34</ele>
        <time>2022-01-20T15:42:49Z</time>
      </trkpt>
      <trkpt lat="47.25951" lon="-1.53882">
        <ele>33</ele>
        <time>2022-01-20T15:42:51Z</time>
      </trkpt>
      <trkpt lat="47.25951" lon="-1.53881">
        <ele>33</ele>
        <time>2022-01-20T15:42:52Z</time>
      </trkpt>
      <trkpt lat="47.25953" lon="-1.53881">
        <ele>33</ele>
        <time>2022-01-20T15:42:53Z</time>
      </trkpt>
      <trkpt lat="47.25953" lon="-1.53881">
        <ele>33</ele>
        <time>2022-01-20T15:42:54Z</time>
      </trkpt>
      <trkpt lat="47.25954" lon="-1.5388">
        <ele>33</ele>
        <time>2022-01-20T15:42:55Z</time>
      </trkpt>
      <trkpt lat="47.25955" lon="-1.5388">
        <ele>33</ele>
        <time>2022-01-20T15:42:56Z</time>
      </trkpt>
      <trkpt lat="47.25956" lon="-1.53879">
        <ele>34</ele>
        <time>2022-01-20T15:42:57Z</time>
      </trkpt>
      <trkpt lat="47.25957" lon="-1.53878">
        <ele>34</ele>
        <time>2022-01-20T15:42:58Z</time>
      </trkpt>
      <trkpt lat="47.25958" lon="-1.53878">
        <ele>34</ele>
        <time>2022-01-20T15:42:59Z</time>
      </trkpt>
      <trkpt lat="47.25958" lon="-1.53877">
        <ele>34</ele>
        <time>2022-01-20T15:43:00Z</time>
      </trkpt>
      <trkpt lat="47.25959" lon="-1.53877">
        <ele>34</ele>
        <time>2022-01-20T15:43:01Z</time>
      </trkpt>
      <trkpt lat="47.2596" lon="-1.53876">
        <ele>35</ele>
        <time>2022-01-20T15:43:02Z</time>
      </trkpt>
      <trkpt lat="47.25961" lon="-1.53876">
        <ele>35</ele>
        <time>2022-01-20T15:43:03Z</time>
      </trkpt>
      <trkpt lat="47.25961" lon="-1.53875">
        <ele>35</ele>
        <time>2022-01-20T15:43:04Z</time>
      </trkpt>
      <trkpt lat="47.25962" lon="-1.53874">
        <ele>34</ele>
        <time>2022-01-20T15:43:05Z</time>
      </trkpt>
      <trkpt lat="47.25964" lon="-1.53873">
        <ele>34</ele>
        <time>2022-01-20T15:43:06Z</time>
      </trkpt>
      <trkpt lat="47.25964" lon="-1.53872">
        <ele>34</ele>
        <time>2022-01-20T15:43:07Z</time>
      </trkpt>
      <trkpt lat="47.25965" lon="-1.53871">
        <ele>34</ele>
        <time>2022-01-20T15:43:08Z</time>
      </trkpt>
      <trkpt lat="47.25966" lon="-1.5387">
        <ele>34</ele>
        <time>2022-01-20T15:43:09Z</time>
      </trkpt>
      <trkpt lat="47.25967" lon="-1.53869">
        <ele>34</ele>
        <time>2022-01-20T15:43:10Z</time>
      </trkpt>
      <trkpt lat="47.25968" lon="-1.53869">
        <ele>34</ele>
        <time>2022-01-20T15:43:11Z</time>
      </trkpt>
      <trkpt lat="47.25969" lon="-1.53868">
        <ele>33</ele>
        <time>2022-01-20T15:43:12Z</time>
      </trkpt>
      <trkpt lat="47.25971" lon="-1.53867">
        <ele>33</ele>
        <time>2022-01-20T15:43:13Z</time>
      </trkpt>
      <trkpt lat="47.25972" lon="-1.53866">
        <ele>33</ele>
        <time>2022-01-20T15:43:14Z</time>
      </trkpt>
      <trkpt lat="47.25973" lon="-1.53865">
        <ele>34</ele>
        <time>2022-01-20T15:43:15Z</time>
      </trkpt>
      <trkpt lat="47.25974" lon="-1.53864">
        <ele>34</ele>
        <time>2022-01-20T15:43:16Z</time>
      </trkpt>
      <trkpt lat="47.25975" lon="-1.53864">
        <ele>34</ele>
        <time>2022-01-20T15:43:17Z</time>
      </trkpt>
      <trkpt lat="47.25976" lon="-1.53863">
        <ele>34</ele>
        <time>2022-01-20T15:43:18Z</time>
      </trkpt>
      <trkpt lat="47.25977" lon="-1.53863">
        <ele>34</ele>
        <time>2022-01-20T15:43:19Z</time>
      </trkpt>
      <trkpt lat="47.25979" lon="-1.53862">
        <ele>34</ele>
        <time>2022-01-20T15:43:20Z</time>
      </trkpt>
      <trkpt lat="47.25979" lon="-1.53862">
        <ele>34</ele>
        <time>2022-01-20T15:43:21Z</time>
      </trkpt>
      <trkpt lat="47.2598" lon="-1.53861">
        <ele>33</ele>
        <time>2022-01-20T15:43:22Z</time>
      </trkpt>
      <trkpt lat="47.25982" lon="-1.53861">
        <ele>34</ele>
        <time>2022-01-20T15:43:23Z</time>
      </trkpt>
      <trkpt lat="47.25983" lon="-1.53861">
        <ele>33</ele>
        <time>2022-01-20T15:43:24Z</time>
      </trkpt>
      <trkpt lat="47.25984" lon="-1.53861">
        <ele>33</ele>
        <time>2022-01-20T15:43:25Z</time>
      </trkpt>
      <trkpt lat="47.25985" lon="-1.53859">
        <ele>33</ele>
        <time>2022-01-20T15:43:26Z</time>
      </trkpt>
      <trkpt lat="47.25987" lon="-1.53859">
        <ele>33</ele>
        <time>2022-01-20T15:43:27Z</time>
      </trkpt>
      <trkpt lat="47.25988" lon="-1.53858">
        <ele>33</ele>
        <time>2022-01-20T15:43:28Z</time>
      </trkpt>
      <trkpt lat="47.25989" lon="-1.53858">
        <ele>32</ele>
        <time>2022-01-20T15:43:29Z</time>
      </trkpt>
      <trkpt lat="47.2599" lon="-1.53858">
        <ele>32</ele>
        <time>2022-01-20T15:43:30Z</time>
      </trkpt>
      <trkpt lat="47.25991" lon="-1.53858">
        <ele>32</ele>
        <time>2022-01-20T15:43:31Z</time>
      </trkpt>
      <trkpt lat="47.25992" lon="-1.53857">
        <ele>32</ele>
        <time>2022-01-20T15:43:32Z</time>
      </trkpt>
      <trkpt lat="47.25994" lon="-1.53857">
        <ele>32</ele>
        <time>2022-01-20T15:43:33Z</time>
      </trkpt>
      <trkpt lat="47.25996" lon="-1.53857">
        <ele>31</ele>
        <time>2022-01-20T15:43:34Z</time>
      </trkpt>
      <trkpt lat="47.25998" lon="-1.53857">
        <ele>31</ele>
        <time>2022-01-20T15:43:35Z</time>
      </trkpt>
      <trkpt lat="47.26" lon="-1.53857">
        <ele>31</ele>
        <time>2022-01-20T15:43:36Z</time>
      </trkpt>
      <trkpt lat="47.26001" lon="-1.53856">
        <ele>31</ele>
        <time>2022-01-20T15:43:37Z</time>
      </trkpt>
      <trkpt lat="47.26003" lon="-1.53856">
        <ele>30</ele>
        <time>2022-01-20T15:43:38Z</time>
      </trkpt>
      <trkpt lat="47.26004" lon="-1.53856">
        <ele>30</ele>
        <time>2022-01-20T15:43:39Z</time>
      </trkpt>
      <trkpt lat="47.26006" lon="-1.53855">
        <ele>30</ele>
        <time>2022-01-20T15:43:40Z</time>
      </trkpt>
      <trkpt lat="47.26007" lon="-1.53855">
        <ele>30</ele>
        <time>2022-01-20T15:43:41Z</time>
      </trkpt>
      <trkpt lat="47.26009" lon="-1.53854">
        <ele>30</ele>
        <time>2022-01-20T15:43:42Z</time>
      </trkpt>
      <trkpt lat="47.2601" lon="-1.53853">
        <ele>30</ele>
        <time>2022-01-20T15:43:43Z</time>
      </trkpt>
      <trkpt lat="47.26011" lon="-1.53853">
        <ele>30</ele>
        <time>2022-01-20T15:43:44Z</time>
      </trkpt>
      <trkpt lat="47.26012" lon="-1.53852">
        <ele>30</ele>
        <time>2022-01-20T15:43:45Z</time>
      </trkpt>
      <trkpt lat="47.26013" lon="-1.53852">
        <ele>30</ele>
        <time>2022-01-20T15:43:46Z</time>
      </trkpt>
      <trkpt lat="47.26014" lon="-1.53851">
        <ele>30</ele>
        <time>2022-01-20T15:43:47Z</time>
      </trkpt>
      <trkpt lat="47.26015" lon="-1.53851">
        <ele>30</ele>
        <time>2022-01-20T15:43:48Z</time>
      </trkpt>
      <trkpt lat="47.26016" lon="-1.53851">
        <ele>30</ele>
        <time>2022-01-20T15:43:49Z</time>
      </trkpt>
      <trkpt lat="47.26017" lon="-1.53851">
        <ele>30</ele>
        <time>2022-01-20T15:43:50Z</time>
      </trkpt>
      <trkpt lat="47.26019" lon="-1.5385">
        <ele>31</ele>
        <time>2022-01-20T15:43:51Z</time>
      </trkpt>
      <trkpt lat="47.2602" lon="-1.5385">
        <ele>31</ele>
        <time>2022-01-20T15:43:52Z</time>
      </trkpt>
      <trkpt lat="47.26021" lon="-1.5385">
        <ele>31</ele>
        <time>2022-01-20T15:43:53Z</time>
      </trkpt>
      <trkpt lat="47.26022" lon="-1.5385">
        <ele>31</ele>
        <time>2022-01-20T15:43:54Z</time>
      </trkpt>
      <trkpt lat="47.26024" lon="-1.5385">
        <ele>31</ele>
        <time>2022-01-20T15:43:55Z</time>
      </trkpt>
      <trkpt lat="47.26025" lon="-1.5385">
        <ele>31</ele>
        <time>2022-01-20T15:43:56Z</time>
      </trkpt>
      <trkpt lat="47.26027" lon="-1.5385">
        <ele>32</ele>
        <time>2022-01-20T15:43:57Z</time>
      </trkpt>
      <trkpt lat="47.26028" lon="-1.5385">
        <ele>32</ele>
        <time>2022-01-20T15:43:58Z</time>
      </trkpt>
      <trkpt lat="47.26028" lon="-1.53849">
        <ele>32</ele>
        <time>2022-01-20T15:43:59Z</time>
      </trkpt>
      <trkpt lat="47.2603" lon="-1.53849">
        <ele>32</ele>
        <time>2022-01-20T15:44:00Z</time>
      </trkpt>
      <trkpt lat="47.2603" lon="-1.53849">
        <ele>32</ele>
        <time>2022-01-20T15:44:01Z</time>
      </trkpt>
      <trkpt lat="47.2603" lon="-1.53849">
        <ele>32</ele>
        <time>2022-01-20T15:44:02Z</time>
      </trkpt>
      <trkpt lat="47.26033" lon="-1.53849">
        <ele>32</ele>
        <time>2022-01-20T15:44:03Z</time>
      </trkpt>
      <trkpt lat="47.26034" lon="-1.53849">
        <ele>32</ele>
        <time>2022-01-20T15:44:04Z</time>
      </trkpt>
      <trkpt lat="47.26035" lon="-1.53849">
        <ele>32</ele>
        <time>2022-01-20T15:44:05Z</time>
      </trkpt>
      <trkpt lat="47.26035" lon="-1.53849">
        <ele>32</ele>
        <time>2022-01-20T15:44:06Z</time>
      </trkpt>
      <trkpt lat="47.26037" lon="-1.53849">
        <ele>32</ele>
        <time>2022-01-20T15:44:07Z</time>
      </trkpt>
      <trkpt lat="47.26038" lon="-1.53849">
        <ele>32</ele>
        <time>2022-01-20T15:44:08Z</time>
      </trkpt>
      <trkpt lat="47.26039" lon="-1.53849">
        <ele>32</ele>
        <time>2022-01-20T15:44:09Z</time>
      </trkpt>
      <trkpt lat="47.2604" lon="-1.53848">
        <ele>33</ele>
        <time>2022-01-20T15:44:10Z</time>
      </trkpt>
      <trkpt lat="47.26041" lon="-1.53849">
        <ele>33</ele>
        <time>2022-01-20T15:44:11Z</time>
      </trkpt>
      <trkpt lat="47.26042" lon="-1.53849">
        <ele>33</ele>
        <time>2022-01-20T15:44:12Z</time>
      </trkpt>
      <trkpt lat="47.26043" lon="-1.53849">
        <ele>33</ele>
        <time>2022-01-20T15:44:13Z</time>
      </trkpt>
      <trkpt lat="47.26044" lon="-1.53849">
        <ele>33</ele>
        <time>2022-01-20T15:44:14Z</time>
      </trkpt>
      <trkpt lat="47.26045" lon="-1.53849">
        <ele>33</ele>
        <time>2022-01-20T15:44:15Z</time>
      </trkpt>
      <trkpt lat="47.26047" lon="-1.53848">
        <ele>33</ele>
        <time>2022-01-20T15:44:16Z</time>
      </trkpt>
      <trkpt lat="47.26048" lon="-1.53848">
        <ele>33</ele>
        <time>2022-01-20T15:44:17Z</time>
      </trkpt>
      <trkpt lat="47.2605" lon="-1.53848">
        <ele>33</ele>
        <time>2022-01-20T15:44:18Z</time>
      </trkpt>
      <trkpt lat="47.26051" lon="-1.53848">
        <ele>33</ele>
        <time>2022-01-20T15:44:19Z</time>
      </trkpt>
      <trkpt lat="47.26052" lon="-1.53848">
        <ele>33</ele>
        <time>2022-01-20T15:44:20Z</time>
      </trkpt>
      <trkpt lat="47.26054" lon="-1.53849">
        <ele>34</ele>
        <time>2022-01-20T15:44:21Z</time>
      </trkpt>
      <trkpt lat="47.26054" lon="-1.53849">
        <ele>33</ele>
        <time>2022-01-20T15:44:22Z</time>
      </trkpt>
      <trkpt lat="47.26056" lon="-1.53849">
        <ele>33</ele>
        <time>2022-01-20T15:44:23Z</time>
      </trkpt>
      <trkpt lat="47.26057" lon="-1.53849">
        <ele>34</ele>
        <time>2022-01-20T15:44:24Z</time>
      </trkpt>
      <trkpt lat="47.26059" lon="-1.53849">
        <ele>34</ele>
        <time>2022-01-20T15:44:25Z</time>
      </trkpt>
      <trkpt lat="47.2606" lon="-1.53848">
        <ele>34</ele>
        <time>2022-01-20T15:44:26Z</time>
      </trkpt>
      <trkpt lat="47.26061" lon="-1.53848">
        <ele>34</ele>
        <time>2022-01-20T15:44:27Z</time>
      </trkpt>
      <trkpt lat="47.26061" lon="-1.53848">
        <ele>34</ele>
        <time>2022-01-20T15:44:28Z</time>
      </trkpt>
      <trkpt lat="47.26063" lon="-1.53847">
        <ele>34</ele>
        <time>2022-01-20T15:44:29Z</time>
      </trkpt>
      <trkpt lat="47.26064" lon="-1.53847">
        <ele>34</ele>
        <time>2022-01-20T15:44:30Z</time>
      </trkpt>
      <trkpt lat="47.26065" lon="-1.53847">
        <ele>34</ele>
        <time>2022-01-20T15:44:31Z</time>
      </trkpt>
      <trkpt lat="47.26067" lon="-1.53847">
        <ele>34</ele>
        <time>2022-01-20T15:44:32Z</time>
      </trkpt>
      <trkpt lat="47.26067" lon="-1.53847">
        <ele>34</ele>
        <time>2022-01-20T15:44:33Z</time>
      </trkpt>
      <trkpt lat="47.26069" lon="-1.53847">
        <ele>34</ele>
        <time>2022-01-20T15:44:34Z</time>
      </trkpt>
      <trkpt lat="47.2607" lon="-1.53847">
        <ele>34</ele>
        <time>2022-01-20T15:44:35Z</time>
      </trkpt>
      <trkpt lat="47.26071" lon="-1.53847">
        <ele>34</ele>
        <time>2022-01-20T15:44:36Z</time>
      </trkpt>
      <trkpt lat="47.26072" lon="-1.53847">
        <ele>34</ele>
        <time>2022-01-20T15:44:37Z</time>
      </trkpt>
      <trkpt lat="47.26074" lon="-1.53847">
        <ele>35</ele>
        <time>2022-01-20T15:44:38Z</time>
      </trkpt>
      <trkpt lat="47.26075" lon="-1.53847">
        <ele>34</ele>
        <time>2022-01-20T15:44:39Z</time>
      </trkpt>
      <trkpt lat="47.26076" lon="-1.53848">
        <ele>34</ele>
        <time>2022-01-20T15:44:40Z</time>
      </trkpt>
      <trkpt lat="47.26077" lon="-1.53848">
        <ele>35</ele>
        <time>2022-01-20T15:44:41Z</time>
      </trkpt>
      <trkpt lat="47.26078" lon="-1.53848">
        <ele>35</ele>
        <time>2022-01-20T15:44:42Z</time>
      </trkpt>
      <trkpt lat="47.26079" lon="-1.53848">
        <ele>35</ele>
        <time>2022-01-20T15:44:43Z</time>
      </trkpt>
      <trkpt lat="47.2608" lon="-1.53848">
        <ele>35</ele>
        <time>2022-01-20T15:44:44Z</time>
      </trkpt>
      <trkpt lat="47.26081" lon="-1.53847">
        <ele>35</ele>
        <time>2022-01-20T15:44:45Z</time>
      </trkpt>
      <trkpt lat="47.26082" lon="-1.53847">
        <ele>35</ele>
        <time>2022-01-20T15:44:46Z</time>
      </trkpt>
      <trkpt lat="47.26083" lon="-1.53846">
        <ele>35</ele>
        <time>2022-01-20T15:44:47Z</time>
      </trkpt>
      <trkpt lat="47.26085" lon="-1.53845">
        <ele>35</ele>
        <time>2022-01-20T15:44:48Z</time>
      </trkpt>
      <trkpt lat="47.26087" lon="-1.53845">
        <ele>35</ele>
        <time>2022-01-20T15:44:49Z</time>
      </trkpt>
      <trkpt lat="47.26088" lon="-1.53845">
        <ele>35</ele>
        <time>2022-01-20T15:44:50Z</time>
      </trkpt>
      <trkpt lat="47.2609" lon="-1.53845">
        <ele>35</ele>
        <time>2022-01-20T15:44:51Z</time>
      </trkpt>
      <trkpt lat="47.26091" lon="-1.53845">
        <ele>35</ele>
        <time>2022-01-20T15:44:52Z</time>
      </trkpt>
      <trkpt lat="47.26093" lon="-1.53845">
        <ele>35</ele>
        <time>2022-01-20T15:44:53Z</time>
      </trkpt>
      <trkpt lat="47.26094" lon="-1.53845">
        <ele>35</ele>
        <time>2022-01-20T15:44:54Z</time>
      </trkpt>
      <trkpt lat="47.26095" lon="-1.53845">
        <ele>35</ele>
        <time>2022-01-20T15:44:55Z</time>
      </trkpt>
      <trkpt lat="47.26096" lon="-1.53845">
        <ele>35</ele>
        <time>2022-01-20T15:44:56Z</time>
      </trkpt>
      <trkpt lat="47.26098" lon="-1.53845">
        <ele>35</ele>
        <time>2022-01-20T15:44:57Z</time>
      </trkpt>
      <trkpt lat="47.261" lon="-1.53845">
        <ele>36</ele>
        <time>2022-01-20T15:44:58Z</time>
      </trkpt>
      <trkpt lat="47.26102" lon="-1.53844">
        <ele>36</ele>
        <time>2022-01-20T15:44:59Z</time>
      </trkpt>
      <trkpt lat="47.26104" lon="-1.53843">
        <ele>36</ele>
        <time>2022-01-20T15:45:00Z</time>
      </trkpt>
      <trkpt lat="47.26105" lon="-1.53843">
        <ele>36</ele>
        <time>2022-01-20T15:45:01Z</time>
      </trkpt>
      <trkpt lat="47.26106" lon="-1.53842">
        <ele>36</ele>
        <time>2022-01-20T15:45:02Z</time>
      </trkpt>
      <trkpt lat="47.26107" lon="-1.53842">
        <ele>36</ele>
        <time>2022-01-20T15:45:03Z</time>
      </trkpt>
      <trkpt lat="47.26108" lon="-1.53842">
        <ele>36</ele>
        <time>2022-01-20T15:45:04Z</time>
      </trkpt>
      <trkpt lat="47.26109" lon="-1.53842">
        <ele>36</ele>
        <time>2022-01-20T15:45:05Z</time>
      </trkpt>
      <trkpt lat="47.2611" lon="-1.53841">
        <ele>36</ele>
        <time>2022-01-20T15:45:06Z</time>
      </trkpt>
      <trkpt lat="47.26111" lon="-1.53841">
        <ele>36</ele>
        <time>2022-01-20T15:45:07Z</time>
      </trkpt>
      <trkpt lat="47.26113" lon="-1.53841">
        <ele>37</ele>
        <time>2022-01-20T15:45:08Z</time>
      </trkpt>
      <trkpt lat="47.26114" lon="-1.53841">
        <ele>37</ele>
        <time>2022-01-20T15:45:09Z</time>
      </trkpt>
      <trkpt lat="47.26115" lon="-1.53841">
        <ele>38</ele>
        <time>2022-01-20T15:45:10Z</time>
      </trkpt>
      <trkpt lat="47.26117" lon="-1.53842">
        <ele>38</ele>
        <time>2022-01-20T15:45:11Z</time>
      </trkpt>
      <trkpt lat="47.26118" lon="-1.53842">
        <ele>38</ele>
        <time>2022-01-20T15:45:12Z</time>
      </trkpt>
      <trkpt lat="47.26119" lon="-1.53842">
        <ele>39</ele>
        <time>2022-01-20T15:45:13Z</time>
      </trkpt>
      <trkpt lat="47.2612" lon="-1.53842">
        <ele>38</ele>
        <time>2022-01-20T15:45:14Z</time>
      </trkpt>
      <trkpt lat="47.26122" lon="-1.53842">
        <ele>38</ele>
        <time>2022-01-20T15:45:15Z</time>
      </trkpt>
      <trkpt lat="47.26122" lon="-1.53842">
        <ele>38</ele>
        <time>2022-01-20T15:45:16Z</time>
      </trkpt>
      <trkpt lat="47.26122" lon="-1.53842">
        <ele>38</ele>
        <time>2022-01-20T15:45:17Z</time>
      </trkpt>
      <trkpt lat="47.26125" lon="-1.53841">
        <ele>38</ele>
        <time>2022-01-20T15:45:18Z</time>
      </trkpt>
      <trkpt lat="47.26126" lon="-1.5384">
        <ele>38</ele>
        <time>2022-01-20T15:45:19Z</time>
      </trkpt>
      <trkpt lat="47.26127" lon="-1.5384">
        <ele>38</ele>
        <time>2022-01-20T15:45:20Z</time>
      </trkpt>
      <trkpt lat="47.26128" lon="-1.53839">
        <ele>38</ele>
        <time>2022-01-20T15:45:21Z</time>
      </trkpt>
      <trkpt lat="47.26129" lon="-1.53839">
        <ele>38</ele>
        <time>2022-01-20T15:45:22Z</time>
      </trkpt>
      <trkpt lat="47.2613" lon="-1.53839">
        <ele>38</ele>
        <time>2022-01-20T15:45:23Z</time>
      </trkpt>
      <trkpt lat="47.26131" lon="-1.53838">
        <ele>39</ele>
        <time>2022-01-20T15:45:24Z</time>
      </trkpt>
      <trkpt lat="47.26132" lon="-1.53837">
        <ele>39</ele>
        <time>2022-01-20T15:45:25Z</time>
      </trkpt>
      <trkpt lat="47.26133" lon="-1.53837">
        <ele>39</ele>
        <time>2022-01-20T15:45:26Z</time>
      </trkpt>
      <trkpt lat="47.26135" lon="-1.53837">
        <ele>39</ele>
        <time>2022-01-20T15:45:27Z</time>
      </trkpt>
      <trkpt lat="47.26136" lon="-1.53837">
        <ele>40</ele>
        <time>2022-01-20T15:45:28Z</time>
      </trkpt>
      <trkpt lat="47.26138" lon="-1.53837">
        <ele>41</ele>
        <time>2022-01-20T15:45:29Z</time>
      </trkpt>
      <trkpt lat="47.26139" lon="-1.53838">
        <ele>41</ele>
        <time>2022-01-20T15:45:30Z</time>
      </trkpt>
      <trkpt lat="47.2614" lon="-1.53838">
        <ele>41</ele>
        <time>2022-01-20T15:45:31Z</time>
      </trkpt>
      <trkpt lat="47.26142" lon="-1.53838">
        <ele>41</ele>
        <time>2022-01-20T15:45:32Z</time>
      </trkpt>
      <trkpt lat="47.26143" lon="-1.53838">
        <ele>40</ele>
        <time>2022-01-20T15:45:33Z</time>
      </trkpt>
      <trkpt lat="47.26144" lon="-1.53839">
        <ele>40</ele>
        <time>2022-01-20T15:45:34Z</time>
      </trkpt>
      <trkpt lat="47.26145" lon="-1.53839">
        <ele>41</ele>
        <time>2022-01-20T15:45:35Z</time>
      </trkpt>
      <trkpt lat="47.26146" lon="-1.5384">
        <ele>41</ele>
        <time>2022-01-20T15:45:36Z</time>
      </trkpt>
      <trkpt lat="47.26147" lon="-1.5384">
        <ele>41</ele>
        <time>2022-01-20T15:45:37Z</time>
      </trkpt>
      <trkpt lat="47.26147" lon="-1.5384">
        <ele>41</ele>
        <time>2022-01-20T15:45:38Z</time>
      </trkpt>
      <trkpt lat="47.26149" lon="-1.53841">
        <ele>41</ele>
        <time>2022-01-20T15:45:39Z</time>
      </trkpt>
      <trkpt lat="47.2615" lon="-1.53841">
        <ele>41</ele>
        <time>2022-01-20T15:45:40Z</time>
      </trkpt>
      <trkpt lat="47.26152" lon="-1.53842">
        <ele>40</ele>
        <time>2022-01-20T15:45:41Z</time>
      </trkpt>
      <trkpt lat="47.26153" lon="-1.53842">
        <ele>40</ele>
        <time>2022-01-20T15:45:42Z</time>
      </trkpt>
      <trkpt lat="47.26154" lon="-1.53843">
        <ele>40</ele>
        <time>2022-01-20T15:45:43Z</time>
      </trkpt>
      <trkpt lat="47.26155" lon="-1.53844">
        <ele>40</ele>
        <time>2022-01-20T15:45:44Z</time>
      </trkpt>
      <trkpt lat="47.26156" lon="-1.53844">
        <ele>40</ele>
        <time>2022-01-20T15:45:45Z</time>
      </trkpt>
      <trkpt lat="47.26157" lon="-1.53844">
        <ele>40</ele>
        <time>2022-01-20T15:45:46Z</time>
      </trkpt>
      <trkpt lat="47.26158" lon="-1.53845">
        <ele>40</ele>
        <time>2022-01-20T15:45:47Z</time>
      </trkpt>
      <trkpt lat="47.26159" lon="-1.53846">
        <ele>40</ele>
        <time>2022-01-20T15:45:48Z</time>
      </trkpt>
      <trkpt lat="47.2616" lon="-1.53847">
        <ele>40</ele>
        <time>2022-01-20T15:45:49Z</time>
      </trkpt>
      <trkpt lat="47.26162" lon="-1.53847">
        <ele>40</ele>
        <time>2022-01-20T15:45:50Z</time>
      </trkpt>
      <trkpt lat="47.26163" lon="-1.53847">
        <ele>39</ele>
        <time>2022-01-20T15:45:51Z</time>
      </trkpt>
      <trkpt lat="47.26164" lon="-1.53848">
        <ele>39</ele>
        <time>2022-01-20T15:45:52Z</time>
      </trkpt>
      <trkpt lat="47.26165" lon="-1.53848">
        <ele>38</ele>
        <time>2022-01-20T15:45:53Z</time>
      </trkpt>
      <trkpt lat="47.26167" lon="-1.53849">
        <ele>39</ele>
        <time>2022-01-20T15:45:54Z</time>
      </trkpt>
      <trkpt lat="47.26168" lon="-1.53849">
        <ele>39</ele>
        <time>2022-01-20T15:45:55Z</time>
      </trkpt>
      <trkpt lat="47.2617" lon="-1.5385">
        <ele>40</ele>
        <time>2022-01-20T15:45:56Z</time>
      </trkpt>
      <trkpt lat="47.2617" lon="-1.5385">
        <ele>40</ele>
        <time>2022-01-20T15:45:57Z</time>
      </trkpt>
      <trkpt lat="47.26172" lon="-1.53851">
        <ele>40</ele>
        <time>2022-01-20T15:45:58Z</time>
      </trkpt>
      <trkpt lat="47.26172" lon="-1.53851">
        <ele>40</ele>
        <time>2022-01-20T15:45:59Z</time>
      </trkpt>
      <trkpt lat="47.26174" lon="-1.5385">
        <ele>39</ele>
        <time>2022-01-20T15:46:00Z</time>
      </trkpt>
      <trkpt lat="47.26175" lon="-1.53851">
        <ele>39</ele>
        <time>2022-01-20T15:46:01Z</time>
      </trkpt>
      <trkpt lat="47.26177" lon="-1.53851">
        <ele>39</ele>
        <time>2022-01-20T15:46:02Z</time>
      </trkpt>
      <trkpt lat="47.26178" lon="-1.53852">
        <ele>39</ele>
        <time>2022-01-20T15:46:03Z</time>
      </trkpt>
      <trkpt lat="47.2618" lon="-1.53852">
        <ele>39</ele>
        <time>2022-01-20T15:46:04Z</time>
      </trkpt>
      <trkpt lat="47.26181" lon="-1.53853">
        <ele>39</ele>
        <time>2022-01-20T15:46:05Z</time>
      </trkpt>
      <trkpt lat="47.26182" lon="-1.53853">
        <ele>39</ele>
        <time>2022-01-20T15:46:06Z</time>
      </trkpt>
      <trkpt lat="47.26183" lon="-1.53854">
        <ele>39</ele>
        <time>2022-01-20T15:46:07Z</time>
      </trkpt>
      <trkpt lat="47.26184" lon="-1.53855">
        <ele>39</ele>
        <time>2022-01-20T15:46:08Z</time>
      </trkpt>
      <trkpt lat="47.26184" lon="-1.53855">
        <ele>39</ele>
        <time>2022-01-20T15:46:09Z</time>
      </trkpt>
      <trkpt lat="47.26184" lon="-1.53855">
        <ele>39</ele>
        <time>2022-01-20T15:46:10Z</time>
      </trkpt>
      <trkpt lat="47.26186" lon="-1.53856">
        <ele>38</ele>
        <time>2022-01-20T15:46:11Z</time>
      </trkpt>
      <trkpt lat="47.26187" lon="-1.53857">
        <ele>39</ele>
        <time>2022-01-20T15:46:12Z</time>
      </trkpt>
      <trkpt lat="47.26188" lon="-1.53859">
        <ele>39</ele>
        <time>2022-01-20T15:46:13Z</time>
      </trkpt>
      <trkpt lat="47.26189" lon="-1.5386">
        <ele>39</ele>
        <time>2022-01-20T15:46:14Z</time>
      </trkpt>
      <trkpt lat="47.26191" lon="-1.53861">
        <ele>39</ele>
        <time>2022-01-20T15:46:15Z</time>
      </trkpt>
      <trkpt lat="47.26192" lon="-1.53862">
        <ele>39</ele>
        <time>2022-01-20T15:46:16Z</time>
      </trkpt>
      <trkpt lat="47.26193" lon="-1.53862">
        <ele>39</ele>
        <time>2022-01-20T15:46:17Z</time>
      </trkpt>
      <trkpt lat="47.26194" lon="-1.53864">
        <ele>40</ele>
        <time>2022-01-20T15:46:18Z</time>
      </trkpt>
      <trkpt lat="47.26195" lon="-1.53865">
        <ele>40</ele>
        <time>2022-01-20T15:46:19Z</time>
      </trkpt>
      <trkpt lat="47.26196" lon="-1.53865">
        <ele>40</ele>
        <time>2022-01-20T15:46:20Z</time>
      </trkpt>
      <trkpt lat="47.26197" lon="-1.53866">
        <ele>41</ele>
        <time>2022-01-20T15:46:21Z</time>
      </trkpt>
      <trkpt lat="47.26198" lon="-1.53867">
        <ele>41</ele>
        <time>2022-01-20T15:46:22Z</time>
      </trkpt>
      <trkpt lat="47.26198" lon="-1.53867">
        <ele>41</ele>
        <time>2022-01-20T15:46:23Z</time>
      </trkpt>
      <trkpt lat="47.26198" lon="-1.53867">
        <ele>41</ele>
        <time>2022-01-20T15:46:24Z</time>
      </trkpt>
      <trkpt lat="47.26201" lon="-1.53869">
        <ele>41</ele>
        <time>2022-01-20T15:46:25Z</time>
      </trkpt>
      <trkpt lat="47.26202" lon="-1.5387">
        <ele>41</ele>
        <time>2022-01-20T15:46:26Z</time>
      </trkpt>
      <trkpt lat="47.26202" lon="-1.53871">
        <ele>42</ele>
        <time>2022-01-20T15:46:27Z</time>
      </trkpt>
      <trkpt lat="47.26204" lon="-1.53872">
        <ele>42</ele>
        <time>2022-01-20T15:46:28Z</time>
      </trkpt>
      <trkpt lat="47.26205" lon="-1.53874">
        <ele>42</ele>
        <time>2022-01-20T15:46:29Z</time>
      </trkpt>
      <trkpt lat="47.26206" lon="-1.53875">
        <ele>43</ele>
        <time>2022-01-20T15:46:30Z</time>
      </trkpt>
      <trkpt lat="47.26207" lon="-1.53876">
        <ele>43</ele>
        <time>2022-01-20T15:46:31Z</time>
      </trkpt>
      <trkpt lat="47.26208" lon="-1.53876">
        <ele>43</ele>
        <time>2022-01-20T15:46:32Z</time>
      </trkpt>
      <trkpt lat="47.26209" lon="-1.53877">
        <ele>44</ele>
        <time>2022-01-20T15:46:33Z</time>
      </trkpt>
      <trkpt lat="47.26209" lon="-1.53877">
        <ele>44</ele>
        <time>2022-01-20T15:46:34Z</time>
      </trkpt>
      <trkpt lat="47.26209" lon="-1.53877">
        <ele>44</ele>
        <time>2022-01-20T15:46:35Z</time>
      </trkpt>
      <trkpt lat="47.26211" lon="-1.53879">
        <ele>43</ele>
        <time>2022-01-20T15:46:36Z</time>
      </trkpt>
      <trkpt lat="47.26211" lon="-1.5388">
        <ele>44</ele>
        <time>2022-01-20T15:46:37Z</time>
      </trkpt>
      <trkpt lat="47.26212" lon="-1.53881">
        <ele>43</ele>
        <time>2022-01-20T15:46:38Z</time>
      </trkpt>
      <trkpt lat="47.26213" lon="-1.53881">
        <ele>44</ele>
        <time>2022-01-20T15:46:39Z</time>
      </trkpt>
      <trkpt lat="47.26213" lon="-1.53881">
        <ele>44</ele>
        <time>2022-01-20T15:46:40Z</time>
      </trkpt>
      <trkpt lat="47.26215" lon="-1.53883">
        <ele>44</ele>
        <time>2022-01-20T15:46:41Z</time>
      </trkpt>
      <trkpt lat="47.26216" lon="-1.53885">
        <ele>43</ele>
        <time>2022-01-20T15:46:42Z</time>
      </trkpt>
      <trkpt lat="47.26218" lon="-1.53886">
        <ele>44</ele>
        <time>2022-01-20T15:46:43Z</time>
      </trkpt>
      <trkpt lat="47.26219" lon="-1.53887">
        <ele>44</ele>
        <time>2022-01-20T15:46:44Z</time>
      </trkpt>
      <trkpt lat="47.2622" lon="-1.53888">
        <ele>43</ele>
        <time>2022-01-20T15:46:45Z</time>
      </trkpt>
      <trkpt lat="47.26222" lon="-1.53889">
        <ele>43</ele>
        <time>2022-01-20T15:46:46Z</time>
      </trkpt>
      <trkpt lat="47.26223" lon="-1.53889">
        <ele>43</ele>
        <time>2022-01-20T15:46:47Z</time>
      </trkpt>
      <trkpt lat="47.26224" lon="-1.5389">
        <ele>42</ele>
        <time>2022-01-20T15:46:48Z</time>
      </trkpt>
      <trkpt lat="47.26226" lon="-1.53891">
        <ele>42</ele>
        <time>2022-01-20T15:46:49Z</time>
      </trkpt>
      <trkpt lat="47.26227" lon="-1.53892">
        <ele>42</ele>
        <time>2022-01-20T15:46:50Z</time>
      </trkpt>
      <trkpt lat="47.26228" lon="-1.53893">
        <ele>41</ele>
        <time>2022-01-20T15:46:51Z</time>
      </trkpt>
      <trkpt lat="47.2623" lon="-1.53894">
        <ele>41</ele>
        <time>2022-01-20T15:46:52Z</time>
      </trkpt>
      <trkpt lat="47.26231" lon="-1.53895">
        <ele>42</ele>
        <time>2022-01-20T15:46:53Z</time>
      </trkpt>
      <trkpt lat="47.26232" lon="-1.53896">
        <ele>41</ele>
        <time>2022-01-20T15:46:54Z</time>
      </trkpt>
      <trkpt lat="47.26234" lon="-1.53897">
        <ele>41</ele>
        <time>2022-01-20T15:46:55Z</time>
      </trkpt>
      <trkpt lat="47.26234" lon="-1.53898">
        <ele>41</ele>
        <time>2022-01-20T15:46:56Z</time>
      </trkpt>
      <trkpt lat="47.26235" lon="-1.53899">
        <ele>41</ele>
        <time>2022-01-20T15:46:57Z</time>
      </trkpt>
      <trkpt lat="47.26236" lon="-1.539">
        <ele>41</ele>
        <time>2022-01-20T15:46:58Z</time>
      </trkpt>
      <trkpt lat="47.26237" lon="-1.53901">
        <ele>42</ele>
        <time>2022-01-20T15:46:59Z</time>
      </trkpt>
      <trkpt lat="47.26239" lon="-1.53902">
        <ele>42</ele>
        <time>2022-01-20T15:47:00Z</time>
      </trkpt>
      <trkpt lat="47.2624" lon="-1.53903">
        <ele>42</ele>
        <time>2022-01-20T15:47:01Z</time>
      </trkpt>
      <trkpt lat="47.26241" lon="-1.53903">
        <ele>42</ele>
        <time>2022-01-20T15:47:02Z</time>
      </trkpt>
      <trkpt lat="47.26242" lon="-1.53904">
        <ele>41</ele>
        <time>2022-01-20T15:47:03Z</time>
      </trkpt>
      <trkpt lat="47.26243" lon="-1.53905">
        <ele>41</ele>
        <time>2022-01-20T15:47:04Z</time>
      </trkpt>
      <trkpt lat="47.26244" lon="-1.53906">
        <ele>41</ele>
        <time>2022-01-20T15:47:05Z</time>
      </trkpt>
      <trkpt lat="47.26244" lon="-1.53906">
        <ele>41</ele>
        <time>2022-01-20T15:47:06Z</time>
      </trkpt>
      <trkpt lat="47.26244" lon="-1.53906">
        <ele>41</ele>
        <time>2022-01-20T15:47:07Z</time>
      </trkpt>
      <trkpt lat="47.26246" lon="-1.53909">
        <ele>40</ele>
        <time>2022-01-20T15:47:08Z</time>
      </trkpt>
      <trkpt lat="47.26247" lon="-1.53909">
        <ele>40</ele>
        <time>2022-01-20T15:47:09Z</time>
      </trkpt>
      <trkpt lat="47.26247" lon="-1.5391">
        <ele>41</ele>
        <time>2022-01-20T15:47:10Z</time>
      </trkpt>
      <trkpt lat="47.26248" lon="-1.53911">
        <ele>41</ele>
        <time>2022-01-20T15:47:11Z</time>
      </trkpt>
      <trkpt lat="47.26249" lon="-1.53913">
        <ele>41</ele>
        <time>2022-01-20T15:47:12Z</time>
      </trkpt>
      <trkpt lat="47.2625" lon="-1.53914">
        <ele>42</ele>
        <time>2022-01-20T15:47:13Z</time>
      </trkpt>
      <trkpt lat="47.26251" lon="-1.53915">
        <ele>42</ele>
        <time>2022-01-20T15:47:14Z</time>
      </trkpt>
      <trkpt lat="47.26252" lon="-1.53917">
        <ele>43</ele>
        <time>2022-01-20T15:47:15Z</time>
      </trkpt>
      <trkpt lat="47.26253" lon="-1.53918">
        <ele>43</ele>
        <time>2022-01-20T15:47:16Z</time>
      </trkpt>
      <trkpt lat="47.26254" lon="-1.5392">
        <ele>44</ele>
        <time>2022-01-20T15:47:17Z</time>
      </trkpt>
      <trkpt lat="47.26255" lon="-1.53921">
        <ele>44</ele>
        <time>2022-01-20T15:47:18Z</time>
      </trkpt>
      <trkpt lat="47.26257" lon="-1.53921">
        <ele>43</ele>
        <time>2022-01-20T15:47:19Z</time>
      </trkpt>
      <trkpt lat="47.26258" lon="-1.53923">
        <ele>43</ele>
        <time>2022-01-20T15:47:20Z</time>
      </trkpt>
      <trkpt lat="47.2626" lon="-1.53923">
        <ele>43</ele>
        <time>2022-01-20T15:47:21Z</time>
      </trkpt>
      <trkpt lat="47.26261" lon="-1.53924">
        <ele>43</ele>
        <time>2022-01-20T15:47:22Z</time>
      </trkpt>
      <trkpt lat="47.26263" lon="-1.53925">
        <ele>43</ele>
        <time>2022-01-20T15:47:23Z</time>
      </trkpt>
      <trkpt lat="47.26263" lon="-1.53926">
        <ele>44</ele>
        <time>2022-01-20T15:47:24Z</time>
      </trkpt>
      <trkpt lat="47.26264" lon="-1.53927">
        <ele>44</ele>
        <time>2022-01-20T15:47:25Z</time>
      </trkpt>
      <trkpt lat="47.26266" lon="-1.53928">
        <ele>44</ele>
        <time>2022-01-20T15:47:26Z</time>
      </trkpt>
      <trkpt lat="47.26267" lon="-1.53929">
        <ele>43</ele>
        <time>2022-01-20T15:47:27Z</time>
      </trkpt>
      <trkpt lat="47.26268" lon="-1.53929">
        <ele>43</ele>
        <time>2022-01-20T15:47:28Z</time>
      </trkpt>
      <trkpt lat="47.2627" lon="-1.5393">
        <ele>43</ele>
        <time>2022-01-20T15:47:29Z</time>
      </trkpt>
      <trkpt lat="47.2627" lon="-1.53931">
        <ele>42</ele>
        <time>2022-01-20T15:47:30Z</time>
      </trkpt>
      <trkpt lat="47.2627" lon="-1.53931">
        <ele>42</ele>
        <time>2022-01-20T15:47:31Z</time>
      </trkpt>
      <trkpt lat="47.26272" lon="-1.53933">
        <ele>42</ele>
        <time>2022-01-20T15:47:32Z</time>
      </trkpt>
      <trkpt lat="47.26273" lon="-1.53934">
        <ele>42</ele>
        <time>2022-01-20T15:47:33Z</time>
      </trkpt>
      <trkpt lat="47.26274" lon="-1.53935">
        <ele>42</ele>
        <time>2022-01-20T15:47:34Z</time>
      </trkpt>
      <trkpt lat="47.26276" lon="-1.53936">
        <ele>43</ele>
        <time>2022-01-20T15:47:35Z</time>
      </trkpt>
      <trkpt lat="47.26277" lon="-1.53937">
        <ele>43</ele>
        <time>2022-01-20T15:47:36Z</time>
      </trkpt>
      <trkpt lat="47.26278" lon="-1.53938">
        <ele>44</ele>
        <time>2022-01-20T15:47:37Z</time>
      </trkpt>
      <trkpt lat="47.26279" lon="-1.53939">
        <ele>44</ele>
        <time>2022-01-20T15:47:38Z</time>
      </trkpt>
      <trkpt lat="47.2628" lon="-1.53939">
        <ele>44</ele>
        <time>2022-01-20T15:47:39Z</time>
      </trkpt>
      <trkpt lat="47.26281" lon="-1.5394">
        <ele>44</ele>
        <time>2022-01-20T15:47:40Z</time>
      </trkpt>
      <trkpt lat="47.26283" lon="-1.5394">
        <ele>44</ele>
        <time>2022-01-20T15:47:41Z</time>
      </trkpt>
      <trkpt lat="47.26284" lon="-1.53941">
        <ele>44</ele>
        <time>2022-01-20T15:47:42Z</time>
      </trkpt>
      <trkpt lat="47.26284" lon="-1.53941">
        <ele>44</ele>
        <time>2022-01-20T15:47:43Z</time>
      </trkpt>
      <trkpt lat="47.26286" lon="-1.53943">
        <ele>43</ele>
        <time>2022-01-20T15:47:44Z</time>
      </trkpt>
      <trkpt lat="47.26287" lon="-1.53944">
        <ele>43</ele>
        <time>2022-01-20T15:47:45Z</time>
      </trkpt>
      <trkpt lat="47.26288" lon="-1.53946">
        <ele>44</ele>
        <time>2022-01-20T15:47:46Z</time>
      </trkpt>
      <trkpt lat="47.26289" lon="-1.53947">
        <ele>44</ele>
        <time>2022-01-20T15:47:47Z</time>
      </trkpt>
      <trkpt lat="47.2629" lon="-1.53948">
        <ele>44</ele>
        <time>2022-01-20T15:47:48Z</time>
      </trkpt>
      <trkpt lat="47.26291" lon="-1.5395">
        <ele>44</ele>
        <time>2022-01-20T15:47:49Z</time>
      </trkpt>
      <trkpt lat="47.26292" lon="-1.53951">
        <ele>44</ele>
        <time>2022-01-20T15:47:50Z</time>
      </trkpt>
      <trkpt lat="47.26294" lon="-1.53953">
        <ele>44</ele>
        <time>2022-01-20T15:47:51Z</time>
      </trkpt>
      <trkpt lat="47.26295" lon="-1.53955">
        <ele>43</ele>
        <time>2022-01-20T15:47:52Z</time>
      </trkpt>
      <trkpt lat="47.26297" lon="-1.53955">
        <ele>43</ele>
        <time>2022-01-20T15:47:53Z</time>
      </trkpt>
      <trkpt lat="47.26298" lon="-1.53956">
        <ele>43</ele>
        <time>2022-01-20T15:47:54Z</time>
      </trkpt>
      <trkpt lat="47.26299" lon="-1.53957">
        <ele>43</ele>
        <time>2022-01-20T15:47:55Z</time>
      </trkpt>
      <trkpt lat="47.26301" lon="-1.53958">
        <ele>43</ele>
        <time>2022-01-20T15:47:56Z</time>
      </trkpt>
      <trkpt lat="47.26302" lon="-1.53959">
        <ele>43</ele>
        <time>2022-01-20T15:47:57Z</time>
      </trkpt>
      <trkpt lat="47.26304" lon="-1.53959">
        <ele>42</ele>
        <time>2022-01-20T15:47:58Z</time>
      </trkpt>
      <trkpt lat="47.26304" lon="-1.5396">
        <ele>43</ele>
        <time>2022-01-20T15:47:59Z</time>
      </trkpt>
      <trkpt lat="47.26305" lon="-1.5396">
        <ele>43</ele>
        <time>2022-01-20T15:48:00Z</time>
      </trkpt>
      <trkpt lat="47.26305" lon="-1.5396">
        <ele>43</ele>
        <time>2022-01-20T15:48:01Z</time>
      </trkpt>
      <trkpt lat="47.26307" lon="-1.53962">
        <ele>43</ele>
        <time>2022-01-20T15:48:02Z</time>
      </trkpt>
      <trkpt lat="47.26308" lon="-1.53962">
        <ele>43</ele>
        <time>2022-01-20T15:48:03Z</time>
      </trkpt>
      <trkpt lat="47.2631" lon="-1.53963">
        <ele>44</ele>
        <time>2022-01-20T15:48:04Z</time>
      </trkpt>
      <trkpt lat="47.26311" lon="-1.53964">
        <ele>44</ele>
        <time>2022-01-20T15:48:05Z</time>
      </trkpt>
      <trkpt lat="47.26312" lon="-1.53964">
        <ele>44</ele>
        <time>2022-01-20T15:48:06Z</time>
      </trkpt>
      <trkpt lat="47.26314" lon="-1.53965">
        <ele>45</ele>
        <time>2022-01-20T15:48:07Z</time>
      </trkpt>
      <trkpt lat="47.26315" lon="-1.53966">
        <ele>45</ele>
        <time>2022-01-20T15:48:08Z</time>
      </trkpt>
      <trkpt lat="47.26317" lon="-1.53967">
        <ele>45</ele>
        <time>2022-01-20T15:48:09Z</time>
      </trkpt>
      <trkpt lat="47.26318" lon="-1.53968">
        <ele>45</ele>
        <time>2022-01-20T15:48:10Z</time>
      </trkpt>
      <trkpt lat="47.26319" lon="-1.53969">
        <ele>45</ele>
        <time>2022-01-20T15:48:11Z</time>
      </trkpt>
      <trkpt lat="47.2632" lon="-1.5397">
        <ele>46</ele>
        <time>2022-01-20T15:48:12Z</time>
      </trkpt>
      <trkpt lat="47.26322" lon="-1.5397">
        <ele>46</ele>
        <time>2022-01-20T15:48:13Z</time>
      </trkpt>
      <trkpt lat="47.26323" lon="-1.53971">
        <ele>46</ele>
        <time>2022-01-20T15:48:14Z</time>
      </trkpt>
      <trkpt lat="47.26324" lon="-1.53971">
        <ele>45</ele>
        <time>2022-01-20T15:48:15Z</time>
      </trkpt>
      <trkpt lat="47.26324" lon="-1.53971">
        <ele>45</ele>
        <time>2022-01-20T15:48:16Z</time>
      </trkpt>
      <trkpt lat="47.26324" lon="-1.53971">
        <ele>45</ele>
        <time>2022-01-20T15:48:17Z</time>
      </trkpt>
      <trkpt lat="47.26325" lon="-1.53974">
        <ele>46</ele>
        <time>2022-01-20T15:48:18Z</time>
      </trkpt>
      <trkpt lat="47.26326" lon="-1.53974">
        <ele>46</ele>
        <time>2022-01-20T15:48:19Z</time>
      </trkpt>
      <trkpt lat="47.26328" lon="-1.53975">
        <ele>46</ele>
        <time>2022-01-20T15:48:20Z</time>
      </trkpt>
      <trkpt lat="47.26329" lon="-1.53975">
        <ele>46</ele>
        <time>2022-01-20T15:48:21Z</time>
      </trkpt>
      <trkpt lat="47.2633" lon="-1.53976">
        <ele>46</ele>
        <time>2022-01-20T15:48:22Z</time>
      </trkpt>
      <trkpt lat="47.26331" lon="-1.53976">
        <ele>45</ele>
        <time>2022-01-20T15:48:23Z</time>
      </trkpt>
      <trkpt lat="47.26331" lon="-1.53976">
        <ele>45</ele>
        <time>2022-01-20T15:48:24Z</time>
      </trkpt>
      <trkpt lat="47.26331" lon="-1.53976">
        <ele>45</ele>
        <time>2022-01-20T15:48:25Z</time>
      </trkpt>
      <trkpt lat="47.26331" lon="-1.53976">
        <ele>45</ele>
        <time>2022-01-20T15:48:26Z</time>
      </trkpt>
      <trkpt lat="47.26334" lon="-1.53976">
        <ele>45</ele>
        <time>2022-01-20T15:48:27Z</time>
      </trkpt>
      <trkpt lat="47.26335" lon="-1.53976">
        <ele>45</ele>
        <time>2022-01-20T15:48:28Z</time>
      </trkpt>
      <trkpt lat="47.26336" lon="-1.53975">
        <ele>45</ele>
        <time>2022-01-20T15:48:29Z</time>
      </trkpt>
      <trkpt lat="47.26336" lon="-1.53976">
        <ele>45</ele>
        <time>2022-01-20T15:48:30Z</time>
      </trkpt>
      <trkpt lat="47.26337" lon="-1.53976">
        <ele>44</ele>
        <time>2022-01-20T15:48:31Z</time>
      </trkpt>
      <trkpt lat="47.26337" lon="-1.53977">
        <ele>44</ele>
        <time>2022-01-20T15:48:32Z</time>
      </trkpt>
      <trkpt lat="47.26338" lon="-1.53978">
        <ele>43</ele>
        <time>2022-01-20T15:48:33Z</time>
      </trkpt>
      <trkpt lat="47.26339" lon="-1.53978">
        <ele>43</ele>
        <time>2022-01-20T15:48:34Z</time>
      </trkpt>
      <trkpt lat="47.2634" lon="-1.5398">
        <ele>43</ele>
        <time>2022-01-20T15:48:35Z</time>
      </trkpt>
      <trkpt lat="47.26342" lon="-1.53982">
        <ele>42</ele>
        <time>2022-01-20T15:48:36Z</time>
      </trkpt>
      <trkpt lat="47.26343" lon="-1.53983">
        <ele>41</ele>
        <time>2022-01-20T15:48:37Z</time>
      </trkpt>
      <trkpt lat="47.26344" lon="-1.53985">
        <ele>41</ele>
        <time>2022-01-20T15:48:38Z</time>
      </trkpt>
      <trkpt lat="47.26345" lon="-1.53985">
        <ele>41</ele>
        <time>2022-01-20T15:48:39Z</time>
      </trkpt>
      <trkpt lat="47.26346" lon="-1.53985">
        <ele>41</ele>
        <time>2022-01-20T15:48:40Z</time>
      </trkpt>
      <trkpt lat="47.26347" lon="-1.53985">
        <ele>40</ele>
        <time>2022-01-20T15:48:41Z</time>
      </trkpt>
      <trkpt lat="47.26347" lon="-1.53985">
        <ele>40</ele>
        <time>2022-01-20T15:48:42Z</time>
      </trkpt>
      <trkpt lat="47.26347" lon="-1.53985">
        <ele>40</ele>
        <time>2022-01-20T15:48:43Z</time>
      </trkpt>
      <trkpt lat="47.2635" lon="-1.53987">
        <ele>40</ele>
        <time>2022-01-20T15:48:44Z</time>
      </trkpt>
      <trkpt lat="47.26352" lon="-1.53987">
        <ele>40</ele>
        <time>2022-01-20T15:48:45Z</time>
      </trkpt>
      <trkpt lat="47.26353" lon="-1.53987">
        <ele>40</ele>
        <time>2022-01-20T15:48:46Z</time>
      </trkpt>
      <trkpt lat="47.26354" lon="-1.53987">
        <ele>39</ele>
        <time>2022-01-20T15:48:47Z</time>
      </trkpt>
      <trkpt lat="47.26357" lon="-1.53987">
        <ele>39</ele>
        <time>2022-01-20T15:48:48Z</time>
      </trkpt>
      <trkpt lat="47.26358" lon="-1.53988">
        <ele>39</ele>
        <time>2022-01-20T15:48:49Z</time>
      </trkpt>
      <trkpt lat="47.2636" lon="-1.53988">
        <ele>38</ele>
        <time>2022-01-20T15:48:50Z</time>
      </trkpt>
      <trkpt lat="47.26362" lon="-1.53988">
        <ele>38</ele>
        <time>2022-01-20T15:48:51Z</time>
      </trkpt>
      <trkpt lat="47.26363" lon="-1.53989">
        <ele>38</ele>
        <time>2022-01-20T15:48:52Z</time>
      </trkpt>
      <trkpt lat="47.26366" lon="-1.53989">
        <ele>37</ele>
        <time>2022-01-20T15:48:53Z</time>
      </trkpt>
      <trkpt lat="47.26368" lon="-1.53989">
        <ele>36</ele>
        <time>2022-01-20T15:48:54Z</time>
      </trkpt>
      <trkpt lat="47.26369" lon="-1.5399">
        <ele>36</ele>
        <time>2022-01-20T15:48:55Z</time>
      </trkpt>
      <trkpt lat="47.2637" lon="-1.5399">
        <ele>36</ele>
        <time>2022-01-20T15:48:56Z</time>
      </trkpt>
      <trkpt lat="47.26372" lon="-1.5399">
        <ele>36</ele>
        <time>2022-01-20T15:48:57Z</time>
      </trkpt>
      <trkpt lat="47.26372" lon="-1.5399">
        <ele>36</ele>
        <time>2022-01-20T15:48:58Z</time>
      </trkpt>
      <trkpt lat="47.26372" lon="-1.5399">
        <ele>36</ele>
        <time>2022-01-20T15:48:59Z</time>
      </trkpt>
      <trkpt lat="47.26374" lon="-1.53991">
        <ele>36</ele>
        <time>2022-01-20T15:49:00Z</time>
      </trkpt>
      <trkpt lat="47.26376" lon="-1.53991">
        <ele>36</ele>
        <time>2022-01-20T15:49:01Z</time>
      </trkpt>
      <trkpt lat="47.26377" lon="-1.53992">
        <ele>37</ele>
        <time>2022-01-20T15:49:02Z</time>
      </trkpt>
      <trkpt lat="47.26378" lon="-1.53992">
        <ele>37</ele>
        <time>2022-01-20T15:49:03Z</time>
      </trkpt>
      <trkpt lat="47.26378" lon="-1.53992">
        <ele>37</ele>
        <time>2022-01-20T15:49:04Z</time>
      </trkpt>
      <trkpt lat="47.26378" lon="-1.53992">
        <ele>37</ele>
        <time>2022-01-20T15:49:05Z</time>
      </trkpt>
      <trkpt lat="47.26382" lon="-1.53993">
        <ele>37</ele>
        <time>2022-01-20T15:49:06Z</time>
      </trkpt>
      <trkpt lat="47.26382" lon="-1.53994">
        <ele>37</ele>
        <time>2022-01-20T15:49:07Z</time>
      </trkpt>
      <trkpt lat="47.26384" lon="-1.53993">
        <ele>37</ele>
        <time>2022-01-20T15:49:08Z</time>
      </trkpt>
      <trkpt lat="47.26386" lon="-1.53993">
        <ele>37</ele>
        <time>2022-01-20T15:49:09Z</time>
      </trkpt>
      <trkpt lat="47.26387" lon="-1.53993">
        <ele>37</ele>
        <time>2022-01-20T15:49:10Z</time>
      </trkpt>
      <trkpt lat="47.26388" lon="-1.53993">
        <ele>37</ele>
        <time>2022-01-20T15:49:11Z</time>
      </trkpt>
      <trkpt lat="47.26389" lon="-1.53993">
        <ele>38</ele>
        <time>2022-01-20T15:49:12Z</time>
      </trkpt>
      <trkpt lat="47.26391" lon="-1.53994">
        <ele>38</ele>
        <time>2022-01-20T15:49:13Z</time>
      </trkpt>
      <trkpt lat="47.26392" lon="-1.53994">
        <ele>38</ele>
        <time>2022-01-20T15:49:14Z</time>
      </trkpt>
      <trkpt lat="47.26392" lon="-1.53994">
        <ele>38</ele>
        <time>2022-01-20T15:49:15Z</time>
      </trkpt>
      <trkpt lat="47.26394" lon="-1.53994">
        <ele>39</ele>
        <time>2022-01-20T15:49:16Z</time>
      </trkpt>
      <trkpt lat="47.26395" lon="-1.53994">
        <ele>39</ele>
        <time>2022-01-20T15:49:17Z</time>
      </trkpt>
      <trkpt lat="47.26395" lon="-1.53994">
        <ele>39</ele>
        <time>2022-01-20T15:49:18Z</time>
      </trkpt>
      <trkpt lat="47.26395" lon="-1.53994">
        <ele>39</ele>
        <time>2022-01-20T15:49:19Z</time>
      </trkpt>
      <trkpt lat="47.26398" lon="-1.53994">
        <ele>39</ele>
        <time>2022-01-20T15:49:20Z</time>
      </trkpt>
      <trkpt lat="47.26399" lon="-1.53994">
        <ele>39</ele>
        <time>2022-01-20T15:49:21Z</time>
      </trkpt>
      <trkpt lat="47.26401" lon="-1.53994">
        <ele>39</ele>
        <time>2022-01-20T15:49:22Z</time>
      </trkpt>
      <trkpt lat="47.26403" lon="-1.53995">
        <ele>38</ele>
        <time>2022-01-20T15:49:23Z</time>
      </trkpt>
      <trkpt lat="47.26405" lon="-1.53995">
        <ele>38</ele>
        <time>2022-01-20T15:49:24Z</time>
      </trkpt>
      <trkpt lat="47.26407" lon="-1.53996">
        <ele>38</ele>
        <time>2022-01-20T15:49:25Z</time>
      </trkpt>
      <trkpt lat="47.26409" lon="-1.53996">
        <ele>37</ele>
        <time>2022-01-20T15:49:26Z</time>
      </trkpt>
      <trkpt lat="47.2641" lon="-1.53997">
        <ele>36</ele>
        <time>2022-01-20T15:49:27Z</time>
      </trkpt>
      <trkpt lat="47.26412" lon="-1.53998">
        <ele>36</ele>
        <time>2022-01-20T15:49:28Z</time>
      </trkpt>
      <trkpt lat="47.26413" lon="-1.53999">
        <ele>36</ele>
        <time>2022-01-20T15:49:29Z</time>
      </trkpt>
      <trkpt lat="47.26416" lon="-1.53999">
        <ele>35</ele>
        <time>2022-01-20T15:49:30Z</time>
      </trkpt>
      <trkpt lat="47.26418" lon="-1.53999">
        <ele>35</ele>
        <time>2022-01-20T15:49:31Z</time>
      </trkpt>
      <trkpt lat="47.2642" lon="-1.54">
        <ele>35</ele>
        <time>2022-01-20T15:49:32Z</time>
      </trkpt>
      <trkpt lat="47.26421" lon="-1.54">
        <ele>35</ele>
        <time>2022-01-20T15:49:33Z</time>
      </trkpt>
      <trkpt lat="47.26424" lon="-1.54001">
        <ele>35</ele>
        <time>2022-01-20T15:49:34Z</time>
      </trkpt>
      <trkpt lat="47.26426" lon="-1.54001">
        <ele>35</ele>
        <time>2022-01-20T15:49:35Z</time>
      </trkpt>
      <trkpt lat="47.26428" lon="-1.54001">
        <ele>36</ele>
        <time>2022-01-20T15:49:36Z</time>
      </trkpt>
      <trkpt lat="47.2643" lon="-1.54002">
        <ele>35</ele>
        <time>2022-01-20T15:49:37Z</time>
      </trkpt>
      <trkpt lat="47.26432" lon="-1.54002">
        <ele>35</ele>
        <time>2022-01-20T15:49:38Z</time>
      </trkpt>
      <trkpt lat="47.26433" lon="-1.54002">
        <ele>35</ele>
        <time>2022-01-20T15:49:39Z</time>
      </trkpt>
      <trkpt lat="47.26435" lon="-1.54002">
        <ele>35</ele>
        <time>2022-01-20T15:49:40Z</time>
      </trkpt>
      <trkpt lat="47.26436" lon="-1.54002">
        <ele>35</ele>
        <time>2022-01-20T15:49:41Z</time>
      </trkpt>
      <trkpt lat="47.26438" lon="-1.54002">
        <ele>36</ele>
        <time>2022-01-20T15:49:42Z</time>
      </trkpt>
      <trkpt lat="47.2644" lon="-1.54002">
        <ele>36</ele>
        <time>2022-01-20T15:49:43Z</time>
      </trkpt>
      <trkpt lat="47.26441" lon="-1.54002">
        <ele>36</ele>
        <time>2022-01-20T15:49:44Z</time>
      </trkpt>
      <trkpt lat="47.26443" lon="-1.54002">
        <ele>35</ele>
        <time>2022-01-20T15:49:45Z</time>
      </trkpt>
      <trkpt lat="47.26444" lon="-1.54002">
        <ele>35</ele>
        <time>2022-01-20T15:49:46Z</time>
      </trkpt>
      <trkpt lat="47.26446" lon="-1.54001">
        <ele>36</ele>
        <time>2022-01-20T15:49:47Z</time>
      </trkpt>
      <trkpt lat="47.26448" lon="-1.54001">
        <ele>36</ele>
        <time>2022-01-20T15:49:48Z</time>
      </trkpt>
      <trkpt lat="47.26449" lon="-1.54001">
        <ele>36</ele>
        <time>2022-01-20T15:49:49Z</time>
      </trkpt>
      <trkpt lat="47.26451" lon="-1.54001">
        <ele>37</ele>
        <time>2022-01-20T15:49:50Z</time>
      </trkpt>
      <trkpt lat="47.26452" lon="-1.54001">
        <ele>37</ele>
        <time>2022-01-20T15:49:51Z</time>
      </trkpt>
      <trkpt lat="47.26454" lon="-1.54">
        <ele>36</ele>
        <time>2022-01-20T15:49:52Z</time>
      </trkpt>
      <trkpt lat="47.26455" lon="-1.54">
        <ele>36</ele>
        <time>2022-01-20T15:49:53Z</time>
      </trkpt>
      <trkpt lat="47.26457" lon="-1.54">
        <ele>36</ele>
        <time>2022-01-20T15:49:54Z</time>
      </trkpt>
      <trkpt lat="47.26458" lon="-1.54">
        <ele>37</ele>
        <time>2022-01-20T15:49:55Z</time>
      </trkpt>
      <trkpt lat="47.2646" lon="-1.53999">
        <ele>37</ele>
        <time>2022-01-20T15:49:56Z</time>
      </trkpt>
      <trkpt lat="47.26461" lon="-1.53999">
        <ele>37</ele>
        <time>2022-01-20T15:49:57Z</time>
      </trkpt>
      <trkpt lat="47.26463" lon="-1.53999">
        <ele>37</ele>
        <time>2022-01-20T15:49:58Z</time>
      </trkpt>
      <trkpt lat="47.26464" lon="-1.53998">
        <ele>37</ele>
        <time>2022-01-20T15:49:59Z</time>
      </trkpt>
      <trkpt lat="47.26466" lon="-1.53998">
        <ele>37</ele>
        <time>2022-01-20T15:50:00Z</time>
      </trkpt>
      <trkpt lat="47.26467" lon="-1.53997">
        <ele>37</ele>
        <time>2022-01-20T15:50:01Z</time>
      </trkpt>
      <trkpt lat="47.26468" lon="-1.53996">
        <ele>37</ele>
        <time>2022-01-20T15:50:02Z</time>
      </trkpt>
      <trkpt lat="47.26469" lon="-1.53995">
        <ele>37</ele>
        <time>2022-01-20T15:50:03Z</time>
      </trkpt>
      <trkpt lat="47.26471" lon="-1.53994">
        <ele>36</ele>
        <time>2022-01-20T15:50:04Z</time>
      </trkpt>
      <trkpt lat="47.26472" lon="-1.53994">
        <ele>37</ele>
        <time>2022-01-20T15:50:05Z</time>
      </trkpt>
      <trkpt lat="47.26473" lon="-1.53994">
        <ele>36</ele>
        <time>2022-01-20T15:50:06Z</time>
      </trkpt>
      <trkpt lat="47.26474" lon="-1.53993">
        <ele>36</ele>
        <time>2022-01-20T15:50:07Z</time>
      </trkpt>
      <trkpt lat="47.26475" lon="-1.53993">
        <ele>36</ele>
        <time>2022-01-20T15:50:08Z</time>
      </trkpt>
      <trkpt lat="47.26476" lon="-1.53992">
        <ele>35</ele>
        <time>2022-01-20T15:50:09Z</time>
      </trkpt>
      <trkpt lat="47.26477" lon="-1.53992">
        <ele>35</ele>
        <time>2022-01-20T15:50:10Z</time>
      </trkpt>
      <trkpt lat="47.26478" lon="-1.53992">
        <ele>35</ele>
        <time>2022-01-20T15:50:11Z</time>
      </trkpt>
      <trkpt lat="47.26479" lon="-1.53991">
        <ele>36</ele>
        <time>2022-01-20T15:50:12Z</time>
      </trkpt>
      <trkpt lat="47.2648" lon="-1.5399">
        <ele>35</ele>
        <time>2022-01-20T15:50:13Z</time>
      </trkpt>
      <trkpt lat="47.26481" lon="-1.5399">
        <ele>35</ele>
        <time>2022-01-20T15:50:14Z</time>
      </trkpt>
      <trkpt lat="47.26482" lon="-1.5399">
        <ele>35</ele>
        <time>2022-01-20T15:50:15Z</time>
      </trkpt>
      <trkpt lat="47.26483" lon="-1.5399">
        <ele>36</ele>
        <time>2022-01-20T15:50:16Z</time>
      </trkpt>
      <trkpt lat="47.26484" lon="-1.53989">
        <ele>36</ele>
        <time>2022-01-20T15:50:17Z</time>
      </trkpt>
      <trkpt lat="47.26485" lon="-1.53989">
        <ele>36</ele>
        <time>2022-01-20T15:50:18Z</time>
      </trkpt>
      <trkpt lat="47.26486" lon="-1.53988">
        <ele>36</ele>
        <time>2022-01-20T15:50:19Z</time>
      </trkpt>
      <trkpt lat="47.26486" lon="-1.53987">
        <ele>37</ele>
        <time>2022-01-20T15:50:20Z</time>
      </trkpt>
      <trkpt lat="47.26487" lon="-1.53986">
        <ele>37</ele>
        <time>2022-01-20T15:50:21Z</time>
      </trkpt>
      <trkpt lat="47.26487" lon="-1.53985">
        <ele>37</ele>
        <time>2022-01-20T15:50:22Z</time>
      </trkpt>
      <trkpt lat="47.26487" lon="-1.53985">
        <ele>37</ele>
        <time>2022-01-20T15:50:23Z</time>
      </trkpt>
      <trkpt lat="47.26487" lon="-1.53985">
        <ele>37</ele>
        <time>2022-01-20T15:50:24Z</time>
      </trkpt>
      <trkpt lat="47.26489" lon="-1.53985">
        <ele>37</ele>
        <time>2022-01-20T15:50:25Z</time>
      </trkpt>
      <trkpt lat="47.26489" lon="-1.53985">
        <ele>37</ele>
        <time>2022-01-20T15:50:26Z</time>
      </trkpt>
      <trkpt lat="47.2649" lon="-1.53984">
        <ele>38</ele>
        <time>2022-01-20T15:50:27Z</time>
      </trkpt>
      <trkpt lat="47.26491" lon="-1.53984">
        <ele>38</ele>
        <time>2022-01-20T15:50:28Z</time>
      </trkpt>
      <trkpt lat="47.26491" lon="-1.53984">
        <ele>38</ele>
        <time>2022-01-20T15:50:29Z</time>
      </trkpt>
      <trkpt lat="47.26491" lon="-1.53984">
        <ele>38</ele>
        <time>2022-01-20T15:50:30Z</time>
      </trkpt>
      <trkpt lat="47.26493" lon="-1.53983">
        <ele>37</ele>
        <time>2022-01-20T15:50:31Z</time>
      </trkpt>
      <trkpt lat="47.26494" lon="-1.53983">
        <ele>37</ele>
        <time>2022-01-20T15:50:32Z</time>
      </trkpt>
      <trkpt lat="47.26494" lon="-1.53983">
        <ele>37</ele>
        <time>2022-01-20T15:50:33Z</time>
      </trkpt>
      <trkpt lat="47.26495" lon="-1.53982">
        <ele>36</ele>
        <time>2022-01-20T15:50:34Z</time>
      </trkpt>
      <trkpt lat="47.26496" lon="-1.53982">
        <ele>36</ele>
        <time>2022-01-20T15:50:35Z</time>
      </trkpt>
      <trkpt lat="47.26497" lon="-1.53983">
        <ele>36</ele>
        <time>2022-01-20T15:50:36Z</time>
      </trkpt>
      <trkpt lat="47.26498" lon="-1.53983">
        <ele>37</ele>
        <time>2022-01-20T15:50:37Z</time>
      </trkpt>
      <trkpt lat="47.26499" lon="-1.53983">
        <ele>37</ele>
        <time>2022-01-20T15:50:38Z</time>
      </trkpt>
      <trkpt lat="47.26499" lon="-1.53983">
        <ele>38</ele>
        <time>2022-01-20T15:50:39Z</time>
      </trkpt>
      <trkpt lat="47.265" lon="-1.53984">
        <ele>38</ele>
        <time>2022-01-20T15:50:40Z</time>
      </trkpt>
      <trkpt lat="47.265" lon="-1.53984">
        <ele>38</ele>
        <time>2022-01-20T15:50:41Z</time>
      </trkpt>
      <trkpt lat="47.265" lon="-1.53984">
        <ele>38</ele>
        <time>2022-01-20T15:50:42Z</time>
      </trkpt>
      <trkpt lat="47.265" lon="-1.53984">
        <ele>38</ele>
        <time>2022-01-20T15:50:43Z</time>
      </trkpt>
      <trkpt lat="47.26502" lon="-1.53984">
        <ele>38</ele>
        <time>2022-01-20T15:50:44Z</time>
      </trkpt>
      <trkpt lat="47.26503" lon="-1.53984">
        <ele>37</ele>
        <time>2022-01-20T15:50:45Z</time>
      </trkpt>
      <trkpt lat="47.26505" lon="-1.53985">
        <ele>37</ele>
        <time>2022-01-20T15:50:46Z</time>
      </trkpt>
      <trkpt lat="47.26506" lon="-1.53985">
        <ele>37</ele>
        <time>2022-01-20T15:50:47Z</time>
      </trkpt>
      <trkpt lat="47.26507" lon="-1.53985">
        <ele>38</ele>
        <time>2022-01-20T15:50:48Z</time>
      </trkpt>
      <trkpt lat="47.26508" lon="-1.53985">
        <ele>38</ele>
        <time>2022-01-20T15:50:49Z</time>
      </trkpt>
      <trkpt lat="47.26509" lon="-1.53986">
        <ele>38</ele>
        <time>2022-01-20T15:50:50Z</time>
      </trkpt>
      <trkpt lat="47.2651" lon="-1.53987">
        <ele>39</ele>
        <time>2022-01-20T15:50:51Z</time>
      </trkpt>
      <trkpt lat="47.26511" lon="-1.53988">
        <ele>39</ele>
        <time>2022-01-20T15:50:52Z</time>
      </trkpt>
      <trkpt lat="47.26513" lon="-1.53989">
        <ele>39</ele>
        <time>2022-01-20T15:50:53Z</time>
      </trkpt>
      <trkpt lat="47.26513" lon="-1.53989">
        <ele>40</ele>
        <time>2022-01-20T15:50:54Z</time>
      </trkpt>
      <trkpt lat="47.26514" lon="-1.5399">
        <ele>40</ele>
        <time>2022-01-20T15:50:55Z</time>
      </trkpt>
      <trkpt lat="47.26516" lon="-1.53991">
        <ele>40</ele>
        <time>2022-01-20T15:50:56Z</time>
      </trkpt>
      <trkpt lat="47.26517" lon="-1.53991">
        <ele>39</ele>
        <time>2022-01-20T15:50:57Z</time>
      </trkpt>
      <trkpt lat="47.26518" lon="-1.53992">
        <ele>39</ele>
        <time>2022-01-20T15:50:58Z</time>
      </trkpt>
      <trkpt lat="47.2652" lon="-1.53993">
        <ele>39</ele>
        <time>2022-01-20T15:50:59Z</time>
      </trkpt>
      <trkpt lat="47.26521" lon="-1.53994">
        <ele>40</ele>
        <time>2022-01-20T15:51:00Z</time>
      </trkpt>
      <trkpt lat="47.26522" lon="-1.53994">
        <ele>41</ele>
        <time>2022-01-20T15:51:01Z</time>
      </trkpt>
      <trkpt lat="47.26522" lon="-1.53995">
        <ele>41</ele>
        <time>2022-01-20T15:51:02Z</time>
      </trkpt>
      <trkpt lat="47.26523" lon="-1.53996">
        <ele>41</ele>
        <time>2022-01-20T15:51:03Z</time>
      </trkpt>
      <trkpt lat="47.26524" lon="-1.53996">
        <ele>41</ele>
        <time>2022-01-20T15:51:04Z</time>
      </trkpt>
      <trkpt lat="47.26524" lon="-1.53996">
        <ele>41</ele>
        <time>2022-01-20T15:51:05Z</time>
      </trkpt>
      <trkpt lat="47.26524" lon="-1.53996">
        <ele>41</ele>
        <time>2022-01-20T15:51:06Z</time>
      </trkpt>
      <trkpt lat="47.26526" lon="-1.53997">
        <ele>41</ele>
        <time>2022-01-20T15:51:07Z</time>
      </trkpt>
      <trkpt lat="47.26527" lon="-1.53998">
        <ele>41</ele>
        <time>2022-01-20T15:51:08Z</time>
      </trkpt>
      <trkpt lat="47.26528" lon="-1.53998">
        <ele>41</ele>
        <time>2022-01-20T15:51:09Z</time>
      </trkpt>
      <trkpt lat="47.26529" lon="-1.53999">
        <ele>40</ele>
        <time>2022-01-20T15:51:10Z</time>
      </trkpt>
      <trkpt lat="47.26531" lon="-1.53999">
        <ele>40</ele>
        <time>2022-01-20T15:51:11Z</time>
      </trkpt>
      <trkpt lat="47.26532" lon="-1.54">
        <ele>40</ele>
        <time>2022-01-20T15:51:12Z</time>
      </trkpt>
      <trkpt lat="47.26534" lon="-1.54001">
        <ele>40</ele>
        <time>2022-01-20T15:51:13Z</time>
      </trkpt>
      <trkpt lat="47.26535" lon="-1.54001">
        <ele>40</ele>
        <time>2022-01-20T15:51:14Z</time>
      </trkpt>
      <trkpt lat="47.26537" lon="-1.54002">
        <ele>40</ele>
        <time>2022-01-20T15:51:15Z</time>
      </trkpt>
      <trkpt lat="47.26538" lon="-1.54003">
        <ele>40</ele>
        <time>2022-01-20T15:51:16Z</time>
      </trkpt>
      <trkpt lat="47.2654" lon="-1.54004">
        <ele>41</ele>
        <time>2022-01-20T15:51:17Z</time>
      </trkpt>
      <trkpt lat="47.26541" lon="-1.54004">
        <ele>41</ele>
        <time>2022-01-20T15:51:18Z</time>
      </trkpt>
      <trkpt lat="47.26543" lon="-1.54006">
        <ele>41</ele>
        <time>2022-01-20T15:51:19Z</time>
      </trkpt>
      <trkpt lat="47.26544" lon="-1.54007">
        <ele>40</ele>
        <time>2022-01-20T15:51:20Z</time>
      </trkpt>
      <trkpt lat="47.26545" lon="-1.54007">
        <ele>40</ele>
        <time>2022-01-20T15:51:21Z</time>
      </trkpt>
      <trkpt lat="47.26547" lon="-1.54008">
        <ele>40</ele>
        <time>2022-01-20T15:51:22Z</time>
      </trkpt>
      <trkpt lat="47.26549" lon="-1.54009">
        <ele>40</ele>
        <time>2022-01-20T15:51:23Z</time>
      </trkpt>
      <trkpt lat="47.2655" lon="-1.54011">
        <ele>40</ele>
        <time>2022-01-20T15:51:24Z</time>
      </trkpt>
      <trkpt lat="47.26551" lon="-1.54012">
        <ele>41</ele>
        <time>2022-01-20T15:51:25Z</time>
      </trkpt>
      <trkpt lat="47.26552" lon="-1.54014">
        <ele>41</ele>
        <time>2022-01-20T15:51:26Z</time>
      </trkpt>
      <trkpt lat="47.26553" lon="-1.54015">
        <ele>41</ele>
        <time>2022-01-20T15:51:27Z</time>
      </trkpt>
      <trkpt lat="47.26554" lon="-1.54015">
        <ele>41</ele>
        <time>2022-01-20T15:51:28Z</time>
      </trkpt>
      <trkpt lat="47.26556" lon="-1.54015">
        <ele>41</ele>
        <time>2022-01-20T15:51:29Z</time>
      </trkpt>
      <trkpt lat="47.26557" lon="-1.54016">
        <ele>41</ele>
        <time>2022-01-20T15:51:30Z</time>
      </trkpt>
      <trkpt lat="47.26558" lon="-1.54017">
        <ele>42</ele>
        <time>2022-01-20T15:51:31Z</time>
      </trkpt>
      <trkpt lat="47.26559" lon="-1.54017">
        <ele>42</ele>
        <time>2022-01-20T15:51:32Z</time>
      </trkpt>
      <trkpt lat="47.26561" lon="-1.54017">
        <ele>42</ele>
        <time>2022-01-20T15:51:33Z</time>
      </trkpt>
      <trkpt lat="47.26561" lon="-1.54018">
        <ele>42</ele>
        <time>2022-01-20T15:51:34Z</time>
      </trkpt>
      <trkpt lat="47.26563" lon="-1.54019">
        <ele>42</ele>
        <time>2022-01-20T15:51:35Z</time>
      </trkpt>
      <trkpt lat="47.26563" lon="-1.54019">
        <ele>42</ele>
        <time>2022-01-20T15:51:36Z</time>
      </trkpt>
      <trkpt lat="47.26564" lon="-1.5402">
        <ele>42</ele>
        <time>2022-01-20T15:51:37Z</time>
      </trkpt>
      <trkpt lat="47.26565" lon="-1.54021">
        <ele>42</ele>
        <time>2022-01-20T15:51:38Z</time>
      </trkpt>
      <trkpt lat="47.26566" lon="-1.54023">
        <ele>42</ele>
        <time>2022-01-20T15:51:39Z</time>
      </trkpt>
      <trkpt lat="47.26566" lon="-1.54023">
        <ele>42</ele>
        <time>2022-01-20T15:51:40Z</time>
      </trkpt>
      <trkpt lat="47.26567" lon="-1.54024">
        <ele>43</ele>
        <time>2022-01-20T15:51:41Z</time>
      </trkpt>
      <trkpt lat="47.26568" lon="-1.54025">
        <ele>43</ele>
        <time>2022-01-20T15:51:42Z</time>
      </trkpt>
      <trkpt lat="47.26569" lon="-1.54026">
        <ele>44</ele>
        <time>2022-01-20T15:51:43Z</time>
      </trkpt>
      <trkpt lat="47.2657" lon="-1.54027">
        <ele>44</ele>
        <time>2022-01-20T15:51:44Z</time>
      </trkpt>
      <trkpt lat="47.26571" lon="-1.54028">
        <ele>44</ele>
        <time>2022-01-20T15:51:45Z</time>
      </trkpt>
      <trkpt lat="47.26572" lon="-1.5403">
        <ele>45</ele>
        <time>2022-01-20T15:51:46Z</time>
      </trkpt>
      <trkpt lat="47.26572" lon="-1.54031">
        <ele>44</ele>
        <time>2022-01-20T15:51:47Z</time>
      </trkpt>
      <trkpt lat="47.26573" lon="-1.54033">
        <ele>44</ele>
        <time>2022-01-20T15:51:48Z</time>
      </trkpt>
      <trkpt lat="47.26573" lon="-1.54034">
        <ele>44</ele>
        <time>2022-01-20T15:51:49Z</time>
      </trkpt>
      <trkpt lat="47.26574" lon="-1.54035">
        <ele>45</ele>
        <time>2022-01-20T15:51:50Z</time>
      </trkpt>
      <trkpt lat="47.26574" lon="-1.54036">
        <ele>45</ele>
        <time>2022-01-20T15:51:51Z</time>
      </trkpt>
      <trkpt lat="47.26575" lon="-1.54038">
        <ele>45</ele>
        <time>2022-01-20T15:51:52Z</time>
      </trkpt>
      <trkpt lat="47.26575" lon="-1.54039">
        <ele>44</ele>
        <time>2022-01-20T15:51:53Z</time>
      </trkpt>
      <trkpt lat="47.26576" lon="-1.5404">
        <ele>44</ele>
        <time>2022-01-20T15:51:54Z</time>
      </trkpt>
      <trkpt lat="47.26576" lon="-1.54041">
        <ele>44</ele>
        <time>2022-01-20T15:51:55Z</time>
      </trkpt>
      <trkpt lat="47.26577" lon="-1.54043">
        <ele>44</ele>
        <time>2022-01-20T15:51:56Z</time>
      </trkpt>
      <trkpt lat="47.26578" lon="-1.54045">
        <ele>45</ele>
        <time>2022-01-20T15:51:57Z</time>
      </trkpt>
      <trkpt lat="47.26579" lon="-1.54046">
        <ele>46</ele>
        <time>2022-01-20T15:51:58Z</time>
      </trkpt>
      <trkpt lat="47.2658" lon="-1.54047">
        <ele>47</ele>
        <time>2022-01-20T15:51:59Z</time>
      </trkpt>
      <trkpt lat="47.2658" lon="-1.54048">
        <ele>47</ele>
        <time>2022-01-20T15:52:00Z</time>
      </trkpt>
      <trkpt lat="47.26581" lon="-1.5405">
        <ele>47</ele>
        <time>2022-01-20T15:52:01Z</time>
      </trkpt>
      <trkpt lat="47.26581" lon="-1.54051">
        <ele>47</ele>
        <time>2022-01-20T15:52:02Z</time>
      </trkpt>
      <trkpt lat="47.26581" lon="-1.54052">
        <ele>47</ele>
        <time>2022-01-20T15:52:03Z</time>
      </trkpt>
      <trkpt lat="47.26581" lon="-1.54052">
        <ele>47</ele>
        <time>2022-01-20T15:52:04Z</time>
      </trkpt>
      <trkpt lat="47.26582" lon="-1.54054">
        <ele>47</ele>
        <time>2022-01-20T15:52:05Z</time>
      </trkpt>
      <trkpt lat="47.26583" lon="-1.54055">
        <ele>47</ele>
        <time>2022-01-20T15:52:06Z</time>
      </trkpt>
      <trkpt lat="47.26584" lon="-1.54056">
        <ele>47</ele>
        <time>2022-01-20T15:52:07Z</time>
      </trkpt>
      <trkpt lat="47.26585" lon="-1.54057">
        <ele>47</ele>
        <time>2022-01-20T15:52:08Z</time>
      </trkpt>
      <trkpt lat="47.26587" lon="-1.54058">
        <ele>48</ele>
        <time>2022-01-20T15:52:09Z</time>
      </trkpt>
      <trkpt lat="47.26587" lon="-1.5406">
        <ele>47</ele>
        <time>2022-01-20T15:52:10Z</time>
      </trkpt>
      <trkpt lat="47.26588" lon="-1.5406">
        <ele>47</ele>
        <time>2022-01-20T15:52:11Z</time>
      </trkpt>
      <trkpt lat="47.26589" lon="-1.54061">
        <ele>47</ele>
        <time>2022-01-20T15:52:12Z</time>
      </trkpt>
      <trkpt lat="47.2659" lon="-1.54063">
        <ele>47</ele>
        <time>2022-01-20T15:52:13Z</time>
      </trkpt>
      <trkpt lat="47.26591" lon="-1.54064">
        <ele>47</ele>
        <time>2022-01-20T15:52:14Z</time>
      </trkpt>
      <trkpt lat="47.26592" lon="-1.54064">
        <ele>47</ele>
        <time>2022-01-20T15:52:15Z</time>
      </trkpt>
      <trkpt lat="47.26592" lon="-1.54065">
        <ele>47</ele>
        <time>2022-01-20T15:52:16Z</time>
      </trkpt>
      <trkpt lat="47.26593" lon="-1.54066">
        <ele>48</ele>
        <time>2022-01-20T15:52:17Z</time>
      </trkpt>
      <trkpt lat="47.26594" lon="-1.54068">
        <ele>48</ele>
        <time>2022-01-20T15:52:18Z</time>
      </trkpt>
      <trkpt lat="47.26595" lon="-1.54069">
        <ele>48</ele>
        <time>2022-01-20T15:52:19Z</time>
      </trkpt>
      <trkpt lat="47.26596" lon="-1.5407">
        <ele>48</ele>
        <time>2022-01-20T15:52:20Z</time>
      </trkpt>
      <trkpt lat="47.26597" lon="-1.54071">
        <ele>47</ele>
        <time>2022-01-20T15:52:21Z</time>
      </trkpt>
      <trkpt lat="47.26598" lon="-1.54072">
        <ele>46</ele>
        <time>2022-01-20T15:52:22Z</time>
      </trkpt>
      <trkpt lat="47.26599" lon="-1.54073">
        <ele>46</ele>
        <time>2022-01-20T15:52:23Z</time>
      </trkpt>
      <trkpt lat="47.26599" lon="-1.54074">
        <ele>47</ele>
        <time>2022-01-20T15:52:24Z</time>
      </trkpt>
      <trkpt lat="47.266" lon="-1.54076">
        <ele>47</ele>
        <time>2022-01-20T15:52:25Z</time>
      </trkpt>
      <trkpt lat="47.26601" lon="-1.54078">
        <ele>47</ele>
        <time>2022-01-20T15:52:26Z</time>
      </trkpt>
      <trkpt lat="47.26602" lon="-1.54079">
        <ele>47</ele>
        <time>2022-01-20T15:52:27Z</time>
      </trkpt>
      <trkpt lat="47.26603" lon="-1.5408">
        <ele>47</ele>
        <time>2022-01-20T15:52:28Z</time>
      </trkpt>
      <trkpt lat="47.26604" lon="-1.54081">
        <ele>47</ele>
        <time>2022-01-20T15:52:29Z</time>
      </trkpt>
      <trkpt lat="47.26605" lon="-1.54083">
        <ele>47</ele>
        <time>2022-01-20T15:52:30Z</time>
      </trkpt>
      <trkpt lat="47.26606" lon="-1.54084">
        <ele>46</ele>
        <time>2022-01-20T15:52:31Z</time>
      </trkpt>
      <trkpt lat="47.26607" lon="-1.54085">
        <ele>47</ele>
        <time>2022-01-20T15:52:32Z</time>
      </trkpt>
      <trkpt lat="47.26608" lon="-1.54087">
        <ele>47</ele>
        <time>2022-01-20T15:52:33Z</time>
      </trkpt>
      <trkpt lat="47.26608" lon="-1.54088">
        <ele>46</ele>
        <time>2022-01-20T15:52:34Z</time>
      </trkpt>
      <trkpt lat="47.26608" lon="-1.54089">
        <ele>47</ele>
        <time>2022-01-20T15:52:35Z</time>
      </trkpt>
      <trkpt lat="47.26609" lon="-1.5409">
        <ele>48</ele>
        <time>2022-01-20T15:52:36Z</time>
      </trkpt>
      <trkpt lat="47.26609" lon="-1.54092">
        <ele>48</ele>
        <time>2022-01-20T15:52:37Z</time>
      </trkpt>
      <trkpt lat="47.26609" lon="-1.54093">
        <ele>49</ele>
        <time>2022-01-20T15:52:38Z</time>
      </trkpt>
      <trkpt lat="47.2661" lon="-1.54094">
        <ele>49</ele>
        <time>2022-01-20T15:52:39Z</time>
      </trkpt>
      <trkpt lat="47.26611" lon="-1.54096">
        <ele>49</ele>
        <time>2022-01-20T15:52:40Z</time>
      </trkpt>
      <trkpt lat="47.26612" lon="-1.54097">
        <ele>50</ele>
        <time>2022-01-20T15:52:41Z</time>
      </trkpt>
      <trkpt lat="47.26613" lon="-1.54098">
        <ele>50</ele>
        <time>2022-01-20T15:52:42Z</time>
      </trkpt>
      <trkpt lat="47.26613" lon="-1.54099">
        <ele>50</ele>
        <time>2022-01-20T15:52:43Z</time>
      </trkpt>
      <trkpt lat="47.26614" lon="-1.541">
        <ele>50</ele>
        <time>2022-01-20T15:52:44Z</time>
      </trkpt>
      <trkpt lat="47.26614" lon="-1.541">
        <ele>50</ele>
        <time>2022-01-20T15:52:45Z</time>
      </trkpt>
      <trkpt lat="47.26615" lon="-1.54101">
        <ele>50</ele>
        <time>2022-01-20T15:52:46Z</time>
      </trkpt>
      <trkpt lat="47.26615" lon="-1.54101">
        <ele>50</ele>
        <time>2022-01-20T15:52:47Z</time>
      </trkpt>
      <trkpt lat="47.26615" lon="-1.54101">
        <ele>50</ele>
        <time>2022-01-20T15:52:48Z</time>
      </trkpt>
      <trkpt lat="47.26616" lon="-1.54104">
        <ele>51</ele>
        <time>2022-01-20T15:52:49Z</time>
      </trkpt>
      <trkpt lat="47.26616" lon="-1.54105">
        <ele>51</ele>
        <time>2022-01-20T15:52:50Z</time>
      </trkpt>
      <trkpt lat="47.26617" lon="-1.54106">
        <ele>53</ele>
        <time>2022-01-20T15:52:51Z</time>
      </trkpt>
      <trkpt lat="47.26617" lon="-1.54108">
        <ele>53</ele>
        <time>2022-01-20T15:52:52Z</time>
      </trkpt>
      <trkpt lat="47.26617" lon="-1.54109">
        <ele>54</ele>
        <time>2022-01-20T15:52:53Z</time>
      </trkpt>
      <trkpt lat="47.26617" lon="-1.54111">
        <ele>54</ele>
        <time>2022-01-20T15:52:54Z</time>
      </trkpt>
      <trkpt lat="47.26618" lon="-1.54112">
        <ele>53</ele>
        <time>2022-01-20T15:52:55Z</time>
      </trkpt>
      <trkpt lat="47.26618" lon="-1.54114">
        <ele>53</ele>
        <time>2022-01-20T15:52:56Z</time>
      </trkpt>
      <trkpt lat="47.26618" lon="-1.54116">
        <ele>53</ele>
        <time>2022-01-20T15:52:57Z</time>
      </trkpt>
      <trkpt lat="47.26618" lon="-1.54118">
        <ele>54</ele>
        <time>2022-01-20T15:52:58Z</time>
      </trkpt>
      <trkpt lat="47.26619" lon="-1.5412">
        <ele>53</ele>
        <time>2022-01-20T15:52:59Z</time>
      </trkpt>
      <trkpt lat="47.26619" lon="-1.54121">
        <ele>53</ele>
        <time>2022-01-20T15:53:00Z</time>
      </trkpt>
      <trkpt lat="47.2662" lon="-1.54122">
        <ele>53</ele>
        <time>2022-01-20T15:53:01Z</time>
      </trkpt>
      <trkpt lat="47.26621" lon="-1.54123">
        <ele>53</ele>
        <time>2022-01-20T15:53:02Z</time>
      </trkpt>
      <trkpt lat="47.26622" lon="-1.54125">
        <ele>53</ele>
        <time>2022-01-20T15:53:03Z</time>
      </trkpt>
      <trkpt lat="47.26623" lon="-1.54127">
        <ele>52</ele>
        <time>2022-01-20T15:53:04Z</time>
      </trkpt>
      <trkpt lat="47.26624" lon="-1.54129">
        <ele>52</ele>
        <time>2022-01-20T15:53:05Z</time>
      </trkpt>
      <trkpt lat="47.26624" lon="-1.54131">
        <ele>52</ele>
        <time>2022-01-20T15:53:06Z</time>
      </trkpt>
      <trkpt lat="47.26625" lon="-1.54132">
        <ele>52</ele>
        <time>2022-01-20T15:53:07Z</time>
      </trkpt>
      <trkpt lat="47.26625" lon="-1.54133">
        <ele>52</ele>
        <time>2022-01-20T15:53:08Z</time>
      </trkpt>
      <trkpt lat="47.26627" lon="-1.54134">
        <ele>52</ele>
        <time>2022-01-20T15:53:09Z</time>
      </trkpt>
      <trkpt lat="47.26627" lon="-1.54135">
        <ele>53</ele>
        <time>2022-01-20T15:53:10Z</time>
      </trkpt>
      <trkpt lat="47.26628" lon="-1.54136">
        <ele>53</ele>
        <time>2022-01-20T15:53:11Z</time>
      </trkpt>
      <trkpt lat="47.26629" lon="-1.54138">
        <ele>53</ele>
        <time>2022-01-20T15:53:12Z</time>
      </trkpt>
      <trkpt lat="47.26629" lon="-1.54138">
        <ele>53</ele>
        <time>2022-01-20T15:53:13Z</time>
      </trkpt>
      <trkpt lat="47.2663" lon="-1.5414">
        <ele>53</ele>
        <time>2022-01-20T15:53:14Z</time>
      </trkpt>
      <trkpt lat="47.26631" lon="-1.54142">
        <ele>52</ele>
        <time>2022-01-20T15:53:15Z</time>
      </trkpt>
      <trkpt lat="47.26632" lon="-1.54144">
        <ele>52</ele>
        <time>2022-01-20T15:53:16Z</time>
      </trkpt>
      <trkpt lat="47.26632" lon="-1.54145">
        <ele>52</ele>
        <time>2022-01-20T15:53:17Z</time>
      </trkpt>
      <trkpt lat="47.26633" lon="-1.54147">
        <ele>53</ele>
        <time>2022-01-20T15:53:18Z</time>
      </trkpt>
      <trkpt lat="47.26633" lon="-1.54148">
        <ele>54</ele>
        <time>2022-01-20T15:53:19Z</time>
      </trkpt>
      <trkpt lat="47.26634" lon="-1.54149">
        <ele>54</ele>
        <time>2022-01-20T15:53:20Z</time>
      </trkpt>
      <trkpt lat="47.26635" lon="-1.54151">
        <ele>54</ele>
        <time>2022-01-20T15:53:21Z</time>
      </trkpt>
      <trkpt lat="47.26635" lon="-1.54152">
        <ele>54</ele>
        <time>2022-01-20T15:53:22Z</time>
      </trkpt>
      <trkpt lat="47.26636" lon="-1.54153">
        <ele>54</ele>
        <time>2022-01-20T15:53:23Z</time>
      </trkpt>
      <trkpt lat="47.26636" lon="-1.54155">
        <ele>54</ele>
        <time>2022-01-20T15:53:24Z</time>
      </trkpt>
      <trkpt lat="47.26637" lon="-1.54156">
        <ele>53</ele>
        <time>2022-01-20T15:53:25Z</time>
      </trkpt>
      <trkpt lat="47.26637" lon="-1.54157">
        <ele>53</ele>
        <time>2022-01-20T15:53:26Z</time>
      </trkpt>
      <trkpt lat="47.26638" lon="-1.54158">
        <ele>54</ele>
        <time>2022-01-20T15:53:27Z</time>
      </trkpt>
      <trkpt lat="47.26638" lon="-1.54159">
        <ele>54</ele>
        <time>2022-01-20T15:53:28Z</time>
      </trkpt>
      <trkpt lat="47.26638" lon="-1.54161">
        <ele>55</ele>
        <time>2022-01-20T15:53:29Z</time>
      </trkpt>
      <trkpt lat="47.26639" lon="-1.54162">
        <ele>55</ele>
        <time>2022-01-20T15:53:30Z</time>
      </trkpt>
      <trkpt lat="47.2664" lon="-1.54164">
        <ele>56</ele>
        <time>2022-01-20T15:53:31Z</time>
      </trkpt>
      <trkpt lat="47.26641" lon="-1.54165">
        <ele>57</ele>
        <time>2022-01-20T15:53:32Z</time>
      </trkpt>
      <trkpt lat="47.26641" lon="-1.54166">
        <ele>57</ele>
        <time>2022-01-20T15:53:33Z</time>
      </trkpt>
      <trkpt lat="47.26642" lon="-1.54168">
        <ele>57</ele>
        <time>2022-01-20T15:53:34Z</time>
      </trkpt>
      <trkpt lat="47.26643" lon="-1.54169">
        <ele>57</ele>
        <time>2022-01-20T15:53:35Z</time>
      </trkpt>
      <trkpt lat="47.26643" lon="-1.5417">
        <ele>57</ele>
        <time>2022-01-20T15:53:36Z</time>
      </trkpt>
      <trkpt lat="47.26644" lon="-1.54171">
        <ele>57</ele>
        <time>2022-01-20T15:53:37Z</time>
      </trkpt>
      <trkpt lat="47.26644" lon="-1.54173">
        <ele>57</ele>
        <time>2022-01-20T15:53:38Z</time>
      </trkpt>
      <trkpt lat="47.26644" lon="-1.54174">
        <ele>57</ele>
        <time>2022-01-20T15:53:39Z</time>
      </trkpt>
      <trkpt lat="47.26644" lon="-1.54174">
        <ele>57</ele>
        <time>2022-01-20T15:53:40Z</time>
      </trkpt>
      <trkpt lat="47.26644" lon="-1.54174">
        <ele>57</ele>
        <time>2022-01-20T15:53:41Z</time>
      </trkpt>
      <trkpt lat="47.26644" lon="-1.54177">
        <ele>58</ele>
        <time>2022-01-20T15:53:42Z</time>
      </trkpt>
      <trkpt lat="47.26645" lon="-1.54178">
        <ele>57</ele>
        <time>2022-01-20T15:53:43Z</time>
      </trkpt>
      <trkpt lat="47.26645" lon="-1.54179">
        <ele>58</ele>
        <time>2022-01-20T15:53:44Z</time>
      </trkpt>
      <trkpt lat="47.26645" lon="-1.5418">
        <ele>57</ele>
        <time>2022-01-20T15:53:45Z</time>
      </trkpt>
      <trkpt lat="47.26645" lon="-1.5418">
        <ele>57</ele>
        <time>2022-01-20T15:53:46Z</time>
      </trkpt>
      <trkpt lat="47.26645" lon="-1.5418">
        <ele>57</ele>
        <time>2022-01-20T15:53:47Z</time>
      </trkpt>
      <trkpt lat="47.26645" lon="-1.54184">
        <ele>57</ele>
        <time>2022-01-20T15:53:48Z</time>
      </trkpt>
      <trkpt lat="47.26646" lon="-1.54185">
        <ele>57</ele>
        <time>2022-01-20T15:53:49Z</time>
      </trkpt>
      <trkpt lat="47.26646" lon="-1.54187">
        <ele>57</ele>
        <time>2022-01-20T15:53:50Z</time>
      </trkpt>
      <trkpt lat="47.26646" lon="-1.54189">
        <ele>58</ele>
        <time>2022-01-20T15:53:51Z</time>
      </trkpt>
      <trkpt lat="47.26646" lon="-1.54191">
        <ele>57</ele>
        <time>2022-01-20T15:53:52Z</time>
      </trkpt>
      <trkpt lat="47.26646" lon="-1.54194">
        <ele>57</ele>
        <time>2022-01-20T15:53:53Z</time>
      </trkpt>
      <trkpt lat="47.26646" lon="-1.54195">
        <ele>57</ele>
        <time>2022-01-20T15:53:54Z</time>
      </trkpt>
      <trkpt lat="47.26646" lon="-1.54197">
        <ele>57</ele>
        <time>2022-01-20T15:53:55Z</time>
      </trkpt>
      <trkpt lat="47.26646" lon="-1.54198">
        <ele>57</ele>
        <time>2022-01-20T15:53:56Z</time>
      </trkpt>
      <trkpt lat="47.26647" lon="-1.54199">
        <ele>57</ele>
        <time>2022-01-20T15:53:57Z</time>
      </trkpt>
      <trkpt lat="47.26647" lon="-1.542">
        <ele>57</ele>
        <time>2022-01-20T15:53:58Z</time>
      </trkpt>
      <trkpt lat="47.26648" lon="-1.542">
        <ele>57</ele>
        <time>2022-01-20T15:53:59Z</time>
      </trkpt>
      <trkpt lat="47.26648" lon="-1.54201">
        <ele>57</ele>
        <time>2022-01-20T15:54:00Z</time>
      </trkpt>
      <trkpt lat="47.26648" lon="-1.54201">
        <ele>57</ele>
        <time>2022-01-20T15:54:01Z</time>
      </trkpt>
      <trkpt lat="47.26648" lon="-1.54201">
        <ele>57</ele>
        <time>2022-01-20T15:54:02Z</time>
      </trkpt>
      <trkpt lat="47.26648" lon="-1.54205">
        <ele>58</ele>
        <time>2022-01-20T15:54:03Z</time>
      </trkpt>
      <trkpt lat="47.26648" lon="-1.54207">
        <ele>58</ele>
        <time>2022-01-20T15:54:04Z</time>
      </trkpt>
      <trkpt lat="47.26648" lon="-1.54209">
        <ele>58</ele>
        <time>2022-01-20T15:54:05Z</time>
      </trkpt>
      <trkpt lat="47.26648" lon="-1.54211">
        <ele>58</ele>
        <time>2022-01-20T15:54:06Z</time>
      </trkpt>
      <trkpt lat="47.26647" lon="-1.54213">
        <ele>57</ele>
        <time>2022-01-20T15:54:07Z</time>
      </trkpt>
      <trkpt lat="47.26647" lon="-1.54215">
        <ele>57</ele>
        <time>2022-01-20T15:54:08Z</time>
      </trkpt>
      <trkpt lat="47.26647" lon="-1.54217">
        <ele>56</ele>
        <time>2022-01-20T15:54:09Z</time>
      </trkpt>
      <trkpt lat="47.26647" lon="-1.54218">
        <ele>56</ele>
        <time>2022-01-20T15:54:10Z</time>
      </trkpt>
      <trkpt lat="47.26647" lon="-1.54219">
        <ele>56</ele>
        <time>2022-01-20T15:54:11Z</time>
      </trkpt>
      <trkpt lat="47.26647" lon="-1.54219">
        <ele>56</ele>
        <time>2022-01-20T15:54:12Z</time>
      </trkpt>
      <trkpt lat="47.26647" lon="-1.54219">
        <ele>56</ele>
        <time>2022-01-20T15:54:13Z</time>
      </trkpt>
      <trkpt lat="47.26646" lon="-1.54222">
        <ele>56</ele>
        <time>2022-01-20T15:54:14Z</time>
      </trkpt>
      <trkpt lat="47.26646" lon="-1.54223">
        <ele>56</ele>
        <time>2022-01-20T15:54:15Z</time>
      </trkpt>
      <trkpt lat="47.26646" lon="-1.54224">
        <ele>56</ele>
        <time>2022-01-20T15:54:16Z</time>
      </trkpt>
      <trkpt lat="47.26645" lon="-1.54226">
        <ele>56</ele>
        <time>2022-01-20T15:54:17Z</time>
      </trkpt>
      <trkpt lat="47.26645" lon="-1.54227">
        <ele>56</ele>
        <time>2022-01-20T15:54:18Z</time>
      </trkpt>
      <trkpt lat="47.26644" lon="-1.54228">
        <ele>56</ele>
        <time>2022-01-20T15:54:19Z</time>
      </trkpt>
      <trkpt lat="47.26644" lon="-1.54229">
        <ele>56</ele>
        <time>2022-01-20T15:54:20Z</time>
      </trkpt>
      <trkpt lat="47.26644" lon="-1.54231">
        <ele>56</ele>
        <time>2022-01-20T15:54:21Z</time>
      </trkpt>
      <trkpt lat="47.26644" lon="-1.54232">
        <ele>56</ele>
        <time>2022-01-20T15:54:22Z</time>
      </trkpt>
      <trkpt lat="47.26645" lon="-1.54233">
        <ele>56</ele>
        <time>2022-01-20T15:54:23Z</time>
      </trkpt>
      <trkpt lat="47.26645" lon="-1.54235">
        <ele>56</ele>
        <time>2022-01-20T15:54:24Z</time>
      </trkpt>
      <trkpt lat="47.26644" lon="-1.54237">
        <ele>56</ele>
        <time>2022-01-20T15:54:25Z</time>
      </trkpt>
      <trkpt lat="47.26643" lon="-1.54239">
        <ele>56</ele>
        <time>2022-01-20T15:54:26Z</time>
      </trkpt>
      <trkpt lat="47.26643" lon="-1.5424">
        <ele>56</ele>
        <time>2022-01-20T15:54:27Z</time>
      </trkpt>
      <trkpt lat="47.26642" lon="-1.54242">
        <ele>55</ele>
        <time>2022-01-20T15:54:28Z</time>
      </trkpt>
      <trkpt lat="47.26642" lon="-1.54244">
        <ele>55</ele>
        <time>2022-01-20T15:54:29Z</time>
      </trkpt>
      <trkpt lat="47.26641" lon="-1.54245">
        <ele>54</ele>
        <time>2022-01-20T15:54:30Z</time>
      </trkpt>
      <trkpt lat="47.2664" lon="-1.54247">
        <ele>54</ele>
        <time>2022-01-20T15:54:31Z</time>
      </trkpt>
      <trkpt lat="47.26638" lon="-1.54249">
        <ele>54</ele>
        <time>2022-01-20T15:54:32Z</time>
      </trkpt>
      <trkpt lat="47.26637" lon="-1.54251">
        <ele>54</ele>
        <time>2022-01-20T15:54:33Z</time>
      </trkpt>
      <trkpt lat="47.26636" lon="-1.54253">
        <ele>54</ele>
        <time>2022-01-20T15:54:34Z</time>
      </trkpt>
      <trkpt lat="47.26635" lon="-1.54255">
        <ele>54</ele>
        <time>2022-01-20T15:54:35Z</time>
      </trkpt>
      <trkpt lat="47.26635" lon="-1.54256">
        <ele>54</ele>
        <time>2022-01-20T15:54:36Z</time>
      </trkpt>
      <trkpt lat="47.26634" lon="-1.54257">
        <ele>54</ele>
        <time>2022-01-20T15:54:37Z</time>
      </trkpt>
      <trkpt lat="47.26634" lon="-1.54259">
        <ele>54</ele>
        <time>2022-01-20T15:54:38Z</time>
      </trkpt>
      <trkpt lat="47.26634" lon="-1.54261">
        <ele>54</ele>
        <time>2022-01-20T15:54:39Z</time>
      </trkpt>
      <trkpt lat="47.26633" lon="-1.54263">
        <ele>54</ele>
        <time>2022-01-20T15:54:40Z</time>
      </trkpt>
      <trkpt lat="47.26633" lon="-1.54264">
        <ele>53</ele>
        <time>2022-01-20T15:54:41Z</time>
      </trkpt>
      <trkpt lat="47.26632" lon="-1.54266">
        <ele>53</ele>
        <time>2022-01-20T15:54:42Z</time>
      </trkpt>
      <trkpt lat="47.26632" lon="-1.54267">
        <ele>53</ele>
        <time>2022-01-20T15:54:43Z</time>
      </trkpt>
      <trkpt lat="47.26631" lon="-1.54269">
        <ele>52</ele>
        <time>2022-01-20T15:54:44Z</time>
      </trkpt>
      <trkpt lat="47.26631" lon="-1.54271">
        <ele>52</ele>
        <time>2022-01-20T15:54:45Z</time>
      </trkpt>
      <trkpt lat="47.26631" lon="-1.54272">
        <ele>52</ele>
        <time>2022-01-20T15:54:46Z</time>
      </trkpt>
      <trkpt lat="47.2663" lon="-1.54274">
        <ele>51</ele>
        <time>2022-01-20T15:54:47Z</time>
      </trkpt>
      <trkpt lat="47.2663" lon="-1.54276">
        <ele>51</ele>
        <time>2022-01-20T15:54:48Z</time>
      </trkpt>
      <trkpt lat="47.2663" lon="-1.54278">
        <ele>51</ele>
        <time>2022-01-20T15:54:49Z</time>
      </trkpt>
      <trkpt lat="47.2663" lon="-1.54279">
        <ele>51</ele>
        <time>2022-01-20T15:54:50Z</time>
      </trkpt>
      <trkpt lat="47.2663" lon="-1.54282">
        <ele>51</ele>
        <time>2022-01-20T15:54:51Z</time>
      </trkpt>
      <trkpt lat="47.2663" lon="-1.54283">
        <ele>51</ele>
        <time>2022-01-20T15:54:52Z</time>
      </trkpt>
      <trkpt lat="47.2663" lon="-1.54284">
        <ele>51</ele>
        <time>2022-01-20T15:54:53Z</time>
      </trkpt>
      <trkpt lat="47.2663" lon="-1.54286">
        <ele>51</ele>
        <time>2022-01-20T15:54:54Z</time>
      </trkpt>
      <trkpt lat="47.2663" lon="-1.54288">
        <ele>50</ele>
        <time>2022-01-20T15:54:55Z</time>
      </trkpt>
      <trkpt lat="47.2663" lon="-1.5429">
        <ele>50</ele>
        <time>2022-01-20T15:54:56Z</time>
      </trkpt>
      <trkpt lat="47.2663" lon="-1.54292">
        <ele>50</ele>
        <time>2022-01-20T15:54:57Z</time>
      </trkpt>
      <trkpt lat="47.2663" lon="-1.54294">
        <ele>50</ele>
        <time>2022-01-20T15:54:58Z</time>
      </trkpt>
      <trkpt lat="47.2663" lon="-1.54296">
        <ele>50</ele>
        <time>2022-01-20T15:54:59Z</time>
      </trkpt>
      <trkpt lat="47.2663" lon="-1.54298">
        <ele>50</ele>
        <time>2022-01-20T15:55:00Z</time>
      </trkpt>
      <trkpt lat="47.26629" lon="-1.543">
        <ele>50</ele>
        <time>2022-01-20T15:55:01Z</time>
      </trkpt>
      <trkpt lat="47.26629" lon="-1.54303">
        <ele>51</ele>
        <time>2022-01-20T15:55:02Z</time>
      </trkpt>
      <trkpt lat="47.26629" lon="-1.54305">
        <ele>51</ele>
        <time>2022-01-20T15:55:03Z</time>
      </trkpt>
      <trkpt lat="47.26628" lon="-1.54307">
        <ele>51</ele>
        <time>2022-01-20T15:55:04Z</time>
      </trkpt>
      <trkpt lat="47.26628" lon="-1.5431">
        <ele>53</ele>
        <time>2022-01-20T15:55:05Z</time>
      </trkpt>
      <trkpt lat="47.26628" lon="-1.54312">
        <ele>53</ele>
        <time>2022-01-20T15:55:06Z</time>
      </trkpt>
      <trkpt lat="47.26628" lon="-1.54315">
        <ele>52</ele>
        <time>2022-01-20T15:55:07Z</time>
      </trkpt>
      <trkpt lat="47.26628" lon="-1.54318">
        <ele>52</ele>
        <time>2022-01-20T15:55:08Z</time>
      </trkpt>
      <trkpt lat="47.26628" lon="-1.5432">
        <ele>52</ele>
        <time>2022-01-20T15:55:09Z</time>
      </trkpt>
      <trkpt lat="47.26628" lon="-1.54321">
        <ele>52</ele>
        <time>2022-01-20T15:55:10Z</time>
      </trkpt>
      <trkpt lat="47.26628" lon="-1.54323">
        <ele>52</ele>
        <time>2022-01-20T15:55:11Z</time>
      </trkpt>
      <trkpt lat="47.26627" lon="-1.54324">
        <ele>53</ele>
        <time>2022-01-20T15:55:12Z</time>
      </trkpt>
      <trkpt lat="47.26628" lon="-1.54326">
        <ele>53</ele>
        <time>2022-01-20T15:55:13Z</time>
      </trkpt>
      <trkpt lat="47.26628" lon="-1.54329">
        <ele>53</ele>
        <time>2022-01-20T15:55:14Z</time>
      </trkpt>
      <trkpt lat="47.26628" lon="-1.54331">
        <ele>53</ele>
        <time>2022-01-20T15:55:15Z</time>
      </trkpt>
      <trkpt lat="47.26629" lon="-1.54332">
        <ele>53</ele>
        <time>2022-01-20T15:55:16Z</time>
      </trkpt>
      <trkpt lat="47.26628" lon="-1.54334">
        <ele>54</ele>
        <time>2022-01-20T15:55:17Z</time>
      </trkpt>
      <trkpt lat="47.26628" lon="-1.54337">
        <ele>53</ele>
        <time>2022-01-20T15:55:18Z</time>
      </trkpt>
      <trkpt lat="47.26629" lon="-1.54339">
        <ele>54</ele>
        <time>2022-01-20T15:55:19Z</time>
      </trkpt>
      <trkpt lat="47.26629" lon="-1.5434">
        <ele>54</ele>
        <time>2022-01-20T15:55:20Z</time>
      </trkpt>
      <trkpt lat="47.26629" lon="-1.54341">
        <ele>54</ele>
        <time>2022-01-20T15:55:21Z</time>
      </trkpt>
      <trkpt lat="47.26629" lon="-1.54343">
        <ele>54</ele>
        <time>2022-01-20T15:55:22Z</time>
      </trkpt>
      <trkpt lat="47.26629" lon="-1.54345">
        <ele>54</ele>
        <time>2022-01-20T15:55:23Z</time>
      </trkpt>
      <trkpt lat="47.26629" lon="-1.54347">
        <ele>54</ele>
        <time>2022-01-20T15:55:24Z</time>
      </trkpt>
      <trkpt lat="47.26629" lon="-1.54349">
        <ele>54</ele>
        <time>2022-01-20T15:55:25Z</time>
      </trkpt>
      <trkpt lat="47.26629" lon="-1.5435">
        <ele>54</ele>
        <time>2022-01-20T15:55:26Z</time>
      </trkpt>
      <trkpt lat="47.26629" lon="-1.54352">
        <ele>54</ele>
        <time>2022-01-20T15:55:27Z</time>
      </trkpt>
      <trkpt lat="47.26629" lon="-1.54353">
        <ele>55</ele>
        <time>2022-01-20T15:55:28Z</time>
      </trkpt>
      <trkpt lat="47.26629" lon="-1.54355">
        <ele>55</ele>
        <time>2022-01-20T15:55:29Z</time>
      </trkpt>
      <trkpt lat="47.26628" lon="-1.54356">
        <ele>55</ele>
        <time>2022-01-20T15:55:30Z</time>
      </trkpt>
      <trkpt lat="47.26627" lon="-1.54358">
        <ele>55</ele>
        <time>2022-01-20T15:55:31Z</time>
      </trkpt>
      <trkpt lat="47.26627" lon="-1.54359">
        <ele>56</ele>
        <time>2022-01-20T15:55:32Z</time>
      </trkpt>
      <trkpt lat="47.26626" lon="-1.54361">
        <ele>56</ele>
        <time>2022-01-20T15:55:33Z</time>
      </trkpt>
      <trkpt lat="47.26625" lon="-1.54362">
        <ele>56</ele>
        <time>2022-01-20T15:55:34Z</time>
      </trkpt>
      <trkpt lat="47.26625" lon="-1.54364">
        <ele>56</ele>
        <time>2022-01-20T15:55:35Z</time>
      </trkpt>
      <trkpt lat="47.26625" lon="-1.54365">
        <ele>56</ele>
        <time>2022-01-20T15:55:36Z</time>
      </trkpt>
      <trkpt lat="47.26625" lon="-1.54366">
        <ele>56</ele>
        <time>2022-01-20T15:55:37Z</time>
      </trkpt>
      <trkpt lat="47.26624" lon="-1.54368">
        <ele>56</ele>
        <time>2022-01-20T15:55:38Z</time>
      </trkpt>
      <trkpt lat="47.26623" lon="-1.54368">
        <ele>56</ele>
        <time>2022-01-20T15:55:39Z</time>
      </trkpt>
      <trkpt lat="47.26623" lon="-1.54369">
        <ele>55</ele>
        <time>2022-01-20T15:55:40Z</time>
      </trkpt>
      <trkpt lat="47.26622" lon="-1.5437">
        <ele>55</ele>
        <time>2022-01-20T15:55:41Z</time>
      </trkpt>
      <trkpt lat="47.26621" lon="-1.5437">
        <ele>55</ele>
        <time>2022-01-20T15:55:42Z</time>
      </trkpt>
      <trkpt lat="47.2662" lon="-1.54371">
        <ele>55</ele>
        <time>2022-01-20T15:55:43Z</time>
      </trkpt>
      <trkpt lat="47.26619" lon="-1.54372">
        <ele>55</ele>
        <time>2022-01-20T15:55:44Z</time>
      </trkpt>
      <trkpt lat="47.26618" lon="-1.54372">
        <ele>55</ele>
        <time>2022-01-20T15:55:45Z</time>
      </trkpt>
      <trkpt lat="47.26618" lon="-1.54373">
        <ele>55</ele>
        <time>2022-01-20T15:55:46Z</time>
      </trkpt>
      <trkpt lat="47.26617" lon="-1.54374">
        <ele>55</ele>
        <time>2022-01-20T15:55:47Z</time>
      </trkpt>
      <trkpt lat="47.26616" lon="-1.54374">
        <ele>55</ele>
        <time>2022-01-20T15:55:48Z</time>
      </trkpt>
      <trkpt lat="47.26614" lon="-1.54375">
        <ele>55</ele>
        <time>2022-01-20T15:55:49Z</time>
      </trkpt>
      <trkpt lat="47.26613" lon="-1.54375">
        <ele>55</ele>
        <time>2022-01-20T15:55:50Z</time>
      </trkpt>
      <trkpt lat="47.26613" lon="-1.54375">
        <ele>55</ele>
        <time>2022-01-20T15:55:51Z</time>
      </trkpt>
      <trkpt lat="47.26612" lon="-1.54375">
        <ele>55</ele>
        <time>2022-01-20T15:55:52Z</time>
      </trkpt>
      <trkpt lat="47.26611" lon="-1.54375">
        <ele>55</ele>
        <time>2022-01-20T15:55:53Z</time>
      </trkpt>
      <trkpt lat="47.2661" lon="-1.54375">
        <ele>55</ele>
        <time>2022-01-20T15:55:54Z</time>
      </trkpt>
      <trkpt lat="47.26609" lon="-1.54375">
        <ele>55</ele>
        <time>2022-01-20T15:55:55Z</time>
      </trkpt>
      <trkpt lat="47.26608" lon="-1.54375">
        <ele>55</ele>
        <time>2022-01-20T15:55:56Z</time>
      </trkpt>
      <trkpt lat="47.26607" lon="-1.54374">
        <ele>55</ele>
        <time>2022-01-20T15:55:57Z</time>
      </trkpt>
      <trkpt lat="47.26606" lon="-1.54374">
        <ele>55</ele>
        <time>2022-01-20T15:55:58Z</time>
      </trkpt>
      <trkpt lat="47.26606" lon="-1.54374">
        <ele>55</ele>
        <time>2022-01-20T15:55:59Z</time>
      </trkpt>
      <trkpt lat="47.26605" lon="-1.54374">
        <ele>55</ele>
        <time>2022-01-20T15:56:00Z</time>
      </trkpt>
      <trkpt lat="47.26604" lon="-1.54375">
        <ele>55</ele>
        <time>2022-01-20T15:56:01Z</time>
      </trkpt>
      <trkpt lat="47.26603" lon="-1.54375">
        <ele>55</ele>
        <time>2022-01-20T15:56:02Z</time>
      </trkpt>
      <trkpt lat="47.26603" lon="-1.54375">
        <ele>56</ele>
        <time>2022-01-20T15:56:03Z</time>
      </trkpt>
      <trkpt lat="47.26602" lon="-1.54376">
        <ele>56</ele>
        <time>2022-01-20T15:56:04Z</time>
      </trkpt>
      <trkpt lat="47.26601" lon="-1.54377">
        <ele>56</ele>
        <time>2022-01-20T15:56:05Z</time>
      </trkpt>
      <trkpt lat="47.266" lon="-1.54378">
        <ele>56</ele>
        <time>2022-01-20T15:56:06Z</time>
      </trkpt>
      <trkpt lat="47.26598" lon="-1.54378">
        <ele>56</ele>
        <time>2022-01-20T15:56:07Z</time>
      </trkpt>
      <trkpt lat="47.26597" lon="-1.54378">
        <ele>56</ele>
        <time>2022-01-20T15:56:08Z</time>
      </trkpt>
      <trkpt lat="47.26596" lon="-1.54378">
        <ele>56</ele>
        <time>2022-01-20T15:56:09Z</time>
      </trkpt>
      <trkpt lat="47.26594" lon="-1.54378">
        <ele>56</ele>
        <time>2022-01-20T15:56:10Z</time>
      </trkpt>
      <trkpt lat="47.26593" lon="-1.54379">
        <ele>56</ele>
        <time>2022-01-20T15:56:11Z</time>
      </trkpt>
      <trkpt lat="47.26592" lon="-1.5438">
        <ele>57</ele>
        <time>2022-01-20T15:56:12Z</time>
      </trkpt>
      <trkpt lat="47.2659" lon="-1.54381">
        <ele>56</ele>
        <time>2022-01-20T15:56:13Z</time>
      </trkpt>
      <trkpt lat="47.26588" lon="-1.54382">
        <ele>56</ele>
        <time>2022-01-20T15:56:14Z</time>
      </trkpt>
      <trkpt lat="47.26586" lon="-1.54384">
        <ele>57</ele>
        <time>2022-01-20T15:56:15Z</time>
      </trkpt>
      <trkpt lat="47.26585" lon="-1.54386">
        <ele>57</ele>
        <time>2022-01-20T15:56:16Z</time>
      </trkpt>
      <trkpt lat="47.26584" lon="-1.54387">
        <ele>58</ele>
        <time>2022-01-20T15:56:17Z</time>
      </trkpt>
      <trkpt lat="47.26583" lon="-1.54389">
        <ele>58</ele>
        <time>2022-01-20T15:56:18Z</time>
      </trkpt>
      <trkpt lat="47.26583" lon="-1.5439">
        <ele>58</ele>
        <time>2022-01-20T15:56:19Z</time>
      </trkpt>
      <trkpt lat="47.26582" lon="-1.54391">
        <ele>59</ele>
        <time>2022-01-20T15:56:20Z</time>
      </trkpt>
      <trkpt lat="47.26581" lon="-1.54393">
        <ele>59</ele>
        <time>2022-01-20T15:56:21Z</time>
      </trkpt>
      <trkpt lat="47.26581" lon="-1.54394">
        <ele>59</ele>
        <time>2022-01-20T15:56:22Z</time>
      </trkpt>
      <trkpt lat="47.26581" lon="-1.54395">
        <ele>59</ele>
        <time>2022-01-20T15:56:23Z</time>
      </trkpt>
      <trkpt lat="47.2658" lon="-1.54397">
        <ele>59</ele>
        <time>2022-01-20T15:56:24Z</time>
      </trkpt>
      <trkpt lat="47.2658" lon="-1.54399">
        <ele>59</ele>
        <time>2022-01-20T15:56:25Z</time>
      </trkpt>
      <trkpt lat="47.2658" lon="-1.544">
        <ele>59</ele>
        <time>2022-01-20T15:56:26Z</time>
      </trkpt>
      <trkpt lat="47.2658" lon="-1.54403">
        <ele>59</ele>
        <time>2022-01-20T15:56:27Z</time>
      </trkpt>
      <trkpt lat="47.2658" lon="-1.54404">
        <ele>59</ele>
        <time>2022-01-20T15:56:28Z</time>
      </trkpt>
      <trkpt lat="47.2658" lon="-1.54406">
        <ele>61</ele>
        <time>2022-01-20T15:56:29Z</time>
      </trkpt>
      <trkpt lat="47.2658" lon="-1.54407">
        <ele>61</ele>
        <time>2022-01-20T15:56:30Z</time>
      </trkpt>
      <trkpt lat="47.26581" lon="-1.54409">
        <ele>61</ele>
        <time>2022-01-20T15:56:31Z</time>
      </trkpt>
      <trkpt lat="47.26581" lon="-1.54411">
        <ele>61</ele>
        <time>2022-01-20T15:56:32Z</time>
      </trkpt>
      <trkpt lat="47.26582" lon="-1.54413">
        <ele>60</ele>
        <time>2022-01-20T15:56:33Z</time>
      </trkpt>
      <trkpt lat="47.26582" lon="-1.54415">
        <ele>60</ele>
        <time>2022-01-20T15:56:34Z</time>
      </trkpt>
      <trkpt lat="47.26582" lon="-1.54416">
        <ele>60</ele>
        <time>2022-01-20T15:56:35Z</time>
      </trkpt>
      <trkpt lat="47.26583" lon="-1.54417">
        <ele>61</ele>
        <time>2022-01-20T15:56:36Z</time>
      </trkpt>
      <trkpt lat="47.26583" lon="-1.54419">
        <ele>60</ele>
        <time>2022-01-20T15:56:37Z</time>
      </trkpt>
      <trkpt lat="47.26584" lon="-1.54421">
        <ele>61</ele>
        <time>2022-01-20T15:56:38Z</time>
      </trkpt>
      <trkpt lat="47.26584" lon="-1.54422">
        <ele>61</ele>
        <time>2022-01-20T15:56:39Z</time>
      </trkpt>
      <trkpt lat="47.26584" lon="-1.54424">
        <ele>61</ele>
        <time>2022-01-20T15:56:40Z</time>
      </trkpt>
      <trkpt lat="47.26585" lon="-1.54426">
        <ele>61</ele>
        <time>2022-01-20T15:56:41Z</time>
      </trkpt>
      <trkpt lat="47.26585" lon="-1.54427">
        <ele>62</ele>
        <time>2022-01-20T15:56:42Z</time>
      </trkpt>
      <trkpt lat="47.26585" lon="-1.54429">
        <ele>61</ele>
        <time>2022-01-20T15:56:43Z</time>
      </trkpt>
      <trkpt lat="47.26585" lon="-1.54431">
        <ele>61</ele>
        <time>2022-01-20T15:56:44Z</time>
      </trkpt>
      <trkpt lat="47.26585" lon="-1.54433">
        <ele>61</ele>
        <time>2022-01-20T15:56:45Z</time>
      </trkpt>
      <trkpt lat="47.26585" lon="-1.54434">
        <ele>61</ele>
        <time>2022-01-20T15:56:46Z</time>
      </trkpt>
      <trkpt lat="47.26585" lon="-1.54435">
        <ele>61</ele>
        <time>2022-01-20T15:56:47Z</time>
      </trkpt>
      <trkpt lat="47.26585" lon="-1.54437">
        <ele>61</ele>
        <time>2022-01-20T15:56:48Z</time>
      </trkpt>
      <trkpt lat="47.26585" lon="-1.54438">
        <ele>60</ele>
        <time>2022-01-20T15:56:49Z</time>
      </trkpt>
      <trkpt lat="47.26585" lon="-1.5444">
        <ele>61</ele>
        <time>2022-01-20T15:56:50Z</time>
      </trkpt>
      <trkpt lat="47.26585" lon="-1.54442">
        <ele>61</ele>
        <time>2022-01-20T15:56:51Z</time>
      </trkpt>
      <trkpt lat="47.26586" lon="-1.54443">
        <ele>61</ele>
        <time>2022-01-20T15:56:52Z</time>
      </trkpt>
      <trkpt lat="47.26587" lon="-1.54446">
        <ele>61</ele>
        <time>2022-01-20T15:56:53Z</time>
      </trkpt>
      <trkpt lat="47.26588" lon="-1.54447">
        <ele>61</ele>
        <time>2022-01-20T15:56:54Z</time>
      </trkpt>
      <trkpt lat="47.26588" lon="-1.54449">
        <ele>61</ele>
        <time>2022-01-20T15:56:55Z</time>
      </trkpt>
      <trkpt lat="47.26589" lon="-1.54451">
        <ele>62</ele>
        <time>2022-01-20T15:56:56Z</time>
      </trkpt>
      <trkpt lat="47.2659" lon="-1.54453">
        <ele>62</ele>
        <time>2022-01-20T15:56:57Z</time>
      </trkpt>
      <trkpt lat="47.2659" lon="-1.54454">
        <ele>62</ele>
        <time>2022-01-20T15:56:58Z</time>
      </trkpt>
      <trkpt lat="47.26591" lon="-1.54456">
        <ele>62</ele>
        <time>2022-01-20T15:56:59Z</time>
      </trkpt>
      <trkpt lat="47.26591" lon="-1.54457">
        <ele>62</ele>
        <time>2022-01-20T15:57:00Z</time>
      </trkpt>
      <trkpt lat="47.26592" lon="-1.54458">
        <ele>62</ele>
        <time>2022-01-20T15:57:01Z</time>
      </trkpt>
      <trkpt lat="47.26592" lon="-1.54459">
        <ele>62</ele>
        <time>2022-01-20T15:57:02Z</time>
      </trkpt>
      <trkpt lat="47.26593" lon="-1.54461">
        <ele>62</ele>
        <time>2022-01-20T15:57:03Z</time>
      </trkpt>
      <trkpt lat="47.26594" lon="-1.54461">
        <ele>62</ele>
        <time>2022-01-20T15:57:04Z</time>
      </trkpt>
      <trkpt lat="47.26595" lon="-1.54462">
        <ele>63</ele>
        <time>2022-01-20T15:57:05Z</time>
      </trkpt>
      <trkpt lat="47.26595" lon="-1.54463">
        <ele>62</ele>
        <time>2022-01-20T15:57:06Z</time>
      </trkpt>
      <trkpt lat="47.26596" lon="-1.54463">
        <ele>62</ele>
        <time>2022-01-20T15:57:07Z</time>
      </trkpt>
      <trkpt lat="47.26598" lon="-1.54463">
        <ele>61</ele>
        <time>2022-01-20T15:57:08Z</time>
      </trkpt>
      <trkpt lat="47.26599" lon="-1.54463">
        <ele>61</ele>
        <time>2022-01-20T15:57:09Z</time>
      </trkpt>
      <trkpt lat="47.26601" lon="-1.54463">
        <ele>60</ele>
        <time>2022-01-20T15:57:10Z</time>
      </trkpt>
      <trkpt lat="47.26603" lon="-1.54462">
        <ele>60</ele>
        <time>2022-01-20T15:57:11Z</time>
      </trkpt>
      <trkpt lat="47.26605" lon="-1.54462">
        <ele>61</ele>
        <time>2022-01-20T15:57:12Z</time>
      </trkpt>
      <trkpt lat="47.26606" lon="-1.54462">
        <ele>61</ele>
        <time>2022-01-20T15:57:13Z</time>
      </trkpt>
      <trkpt lat="47.26608" lon="-1.54463">
        <ele>61</ele>
        <time>2022-01-20T15:57:14Z</time>
      </trkpt>
      <trkpt lat="47.2661" lon="-1.54463">
        <ele>60</ele>
        <time>2022-01-20T15:57:15Z</time>
      </trkpt>
      <trkpt lat="47.26611" lon="-1.54462">
        <ele>60</ele>
        <time>2022-01-20T15:57:16Z</time>
      </trkpt>
      <trkpt lat="47.26612" lon="-1.54462">
        <ele>60</ele>
        <time>2022-01-20T15:57:17Z</time>
      </trkpt>
      <trkpt lat="47.26613" lon="-1.54461">
        <ele>60</ele>
        <time>2022-01-20T15:57:18Z</time>
      </trkpt>
      <trkpt lat="47.26614" lon="-1.54461">
        <ele>60</ele>
        <time>2022-01-20T15:57:19Z</time>
      </trkpt>
      <trkpt lat="47.26616" lon="-1.5446">
        <ele>60</ele>
        <time>2022-01-20T15:57:20Z</time>
      </trkpt>
      <trkpt lat="47.26617" lon="-1.5446">
        <ele>61</ele>
        <time>2022-01-20T15:57:21Z</time>
      </trkpt>
      <trkpt lat="47.26619" lon="-1.5446">
        <ele>61</ele>
        <time>2022-01-20T15:57:22Z</time>
      </trkpt>
      <trkpt lat="47.26619" lon="-1.5446">
        <ele>61</ele>
        <time>2022-01-20T15:57:23Z</time>
      </trkpt>
      <trkpt lat="47.26621" lon="-1.54459">
        <ele>61</ele>
        <time>2022-01-20T15:57:24Z</time>
      </trkpt>
      <trkpt lat="47.26621" lon="-1.54459">
        <ele>61</ele>
        <time>2022-01-20T15:57:25Z</time>
      </trkpt>
      <trkpt lat="47.26621" lon="-1.54459">
        <ele>61</ele>
        <time>2022-01-20T15:57:26Z</time>
      </trkpt>
      <trkpt lat="47.26621" lon="-1.54459">
        <ele>61</ele>
        <time>2022-01-20T15:57:27Z</time>
      </trkpt>
      <trkpt lat="47.26624" lon="-1.54459">
        <ele>60</ele>
        <time>2022-01-20T15:57:28Z</time>
      </trkpt>
      <trkpt lat="47.26625" lon="-1.54459">
        <ele>60</ele>
        <time>2022-01-20T15:57:29Z</time>
      </trkpt>
      <trkpt lat="47.26626" lon="-1.54459">
        <ele>61</ele>
        <time>2022-01-20T15:57:30Z</time>
      </trkpt>
      <trkpt lat="47.26627" lon="-1.54458">
        <ele>61</ele>
        <time>2022-01-20T15:57:31Z</time>
      </trkpt>
      <trkpt lat="47.26629" lon="-1.54458">
        <ele>62</ele>
        <time>2022-01-20T15:57:32Z</time>
      </trkpt>
      <trkpt lat="47.2663" lon="-1.54458">
        <ele>62</ele>
        <time>2022-01-20T15:57:33Z</time>
      </trkpt>
      <trkpt lat="47.26632" lon="-1.54458">
        <ele>62</ele>
        <time>2022-01-20T15:57:34Z</time>
      </trkpt>
      <trkpt lat="47.26634" lon="-1.54458">
        <ele>62</ele>
        <time>2022-01-20T15:57:35Z</time>
      </trkpt>
      <trkpt lat="47.26635" lon="-1.54457">
        <ele>63</ele>
        <time>2022-01-20T15:57:36Z</time>
      </trkpt>
      <trkpt lat="47.26636" lon="-1.54457">
        <ele>62</ele>
        <time>2022-01-20T15:57:37Z</time>
      </trkpt>
      <trkpt lat="47.26637" lon="-1.54456">
        <ele>63</ele>
        <time>2022-01-20T15:57:38Z</time>
      </trkpt>
      <trkpt lat="47.26639" lon="-1.54456">
        <ele>62</ele>
        <time>2022-01-20T15:57:39Z</time>
      </trkpt>
      <trkpt lat="47.2664" lon="-1.54456">
        <ele>62</ele>
        <time>2022-01-20T15:57:40Z</time>
      </trkpt>
      <trkpt lat="47.26642" lon="-1.54455">
        <ele>62</ele>
        <time>2022-01-20T15:57:41Z</time>
      </trkpt>
      <trkpt lat="47.26643" lon="-1.54455">
        <ele>62</ele>
        <time>2022-01-20T15:57:42Z</time>
      </trkpt>
      <trkpt lat="47.26645" lon="-1.54454">
        <ele>62</ele>
        <time>2022-01-20T15:57:43Z</time>
      </trkpt>
      <trkpt lat="47.26646" lon="-1.54454">
        <ele>62</ele>
        <time>2022-01-20T15:57:44Z</time>
      </trkpt>
      <trkpt lat="47.26648" lon="-1.54454">
        <ele>62</ele>
        <time>2022-01-20T15:57:45Z</time>
      </trkpt>
      <trkpt lat="47.26649" lon="-1.54454">
        <ele>62</ele>
        <time>2022-01-20T15:57:46Z</time>
      </trkpt>
      <trkpt lat="47.2665" lon="-1.54453">
        <ele>63</ele>
        <time>2022-01-20T15:57:47Z</time>
      </trkpt>
      <trkpt lat="47.26652" lon="-1.54453">
        <ele>63</ele>
        <time>2022-01-20T15:57:48Z</time>
      </trkpt>
      <trkpt lat="47.26653" lon="-1.54453">
        <ele>63</ele>
        <time>2022-01-20T15:57:49Z</time>
      </trkpt>
      <trkpt lat="47.26654" lon="-1.54453">
        <ele>63</ele>
        <time>2022-01-20T15:57:50Z</time>
      </trkpt>
      <trkpt lat="47.26656" lon="-1.54453">
        <ele>63</ele>
        <time>2022-01-20T15:57:51Z</time>
      </trkpt>
      <trkpt lat="47.26657" lon="-1.54453">
        <ele>63</ele>
        <time>2022-01-20T15:57:52Z</time>
      </trkpt>
      <trkpt lat="47.26658" lon="-1.54453">
        <ele>63</ele>
        <time>2022-01-20T15:57:53Z</time>
      </trkpt>
      <trkpt lat="47.26659" lon="-1.54453">
        <ele>64</ele>
        <time>2022-01-20T15:57:54Z</time>
      </trkpt>
      <trkpt lat="47.26661" lon="-1.54453">
        <ele>64</ele>
        <time>2022-01-20T15:57:55Z</time>
      </trkpt>
      <trkpt lat="47.26662" lon="-1.54453">
        <ele>64</ele>
        <time>2022-01-20T15:57:56Z</time>
      </trkpt>
      <trkpt lat="47.26663" lon="-1.54453">
        <ele>64</ele>
        <time>2022-01-20T15:57:57Z</time>
      </trkpt>
      <trkpt lat="47.26664" lon="-1.54453">
        <ele>64</ele>
        <time>2022-01-20T15:57:58Z</time>
      </trkpt>
      <trkpt lat="47.26665" lon="-1.54453">
        <ele>64</ele>
        <time>2022-01-20T15:57:59Z</time>
      </trkpt>
      <trkpt lat="47.26666" lon="-1.54453">
        <ele>64</ele>
        <time>2022-01-20T15:58:00Z</time>
      </trkpt>
      <trkpt lat="47.26668" lon="-1.54453">
        <ele>64</ele>
        <time>2022-01-20T15:58:01Z</time>
      </trkpt>
      <trkpt lat="47.26669" lon="-1.54454">
        <ele>64</ele>
        <time>2022-01-20T15:58:02Z</time>
      </trkpt>
      <trkpt lat="47.2667" lon="-1.54454">
        <ele>64</ele>
        <time>2022-01-20T15:58:03Z</time>
      </trkpt>
      <trkpt lat="47.26672" lon="-1.54454">
        <ele>64</ele>
        <time>2022-01-20T15:58:04Z</time>
      </trkpt>
      <trkpt lat="47.26673" lon="-1.54454">
        <ele>64</ele>
        <time>2022-01-20T15:58:05Z</time>
      </trkpt>
      <trkpt lat="47.26673" lon="-1.54454">
        <ele>64</ele>
        <time>2022-01-20T15:58:06Z</time>
      </trkpt>
      <trkpt lat="47.26674" lon="-1.54454">
        <ele>64</ele>
        <time>2022-01-20T15:58:07Z</time>
      </trkpt>
      <trkpt lat="47.26675" lon="-1.54454">
        <ele>64</ele>
        <time>2022-01-20T15:58:08Z</time>
      </trkpt>
      <trkpt lat="47.26676" lon="-1.54454">
        <ele>64</ele>
        <time>2022-01-20T15:58:09Z</time>
      </trkpt>
      <trkpt lat="47.26677" lon="-1.54454">
        <ele>64</ele>
        <time>2022-01-20T15:58:10Z</time>
      </trkpt>
      <trkpt lat="47.26678" lon="-1.54455">
        <ele>63</ele>
        <time>2022-01-20T15:58:11Z</time>
      </trkpt>
      <trkpt lat="47.2668" lon="-1.54456">
        <ele>64</ele>
        <time>2022-01-20T15:58:12Z</time>
      </trkpt>
      <trkpt lat="47.2668" lon="-1.54457">
        <ele>64</ele>
        <time>2022-01-20T15:58:13Z</time>
      </trkpt>
      <trkpt lat="47.26682" lon="-1.54457">
        <ele>64</ele>
        <time>2022-01-20T15:58:14Z</time>
      </trkpt>
      <trkpt lat="47.26683" lon="-1.54456">
        <ele>64</ele>
        <time>2022-01-20T15:58:15Z</time>
      </trkpt>
      <trkpt lat="47.26684" lon="-1.54457">
        <ele>64</ele>
        <time>2022-01-20T15:58:16Z</time>
      </trkpt>
      <trkpt lat="47.26685" lon="-1.54457">
        <ele>64</ele>
        <time>2022-01-20T15:58:17Z</time>
      </trkpt>
      <trkpt lat="47.26686" lon="-1.54457">
        <ele>64</ele>
        <time>2022-01-20T15:58:18Z</time>
      </trkpt>
      <trkpt lat="47.26687" lon="-1.54458">
        <ele>63</ele>
        <time>2022-01-20T15:58:19Z</time>
      </trkpt>
      <trkpt lat="47.26687" lon="-1.54458">
        <ele>63</ele>
        <time>2022-01-20T15:58:20Z</time>
      </trkpt>
      <trkpt lat="47.26687" lon="-1.54458">
        <ele>63</ele>
        <time>2022-01-20T15:58:21Z</time>
      </trkpt>
      <trkpt lat="47.26689" lon="-1.54458">
        <ele>63</ele>
        <time>2022-01-20T15:58:22Z</time>
      </trkpt>
      <trkpt lat="47.2669" lon="-1.54458">
        <ele>63</ele>
        <time>2022-01-20T15:58:23Z</time>
      </trkpt>
      <trkpt lat="47.26691" lon="-1.54458">
        <ele>63</ele>
        <time>2022-01-20T15:58:24Z</time>
      </trkpt>
      <trkpt lat="47.26693" lon="-1.54459">
        <ele>64</ele>
        <time>2022-01-20T15:58:25Z</time>
      </trkpt>
      <trkpt lat="47.26695" lon="-1.54459">
        <ele>64</ele>
        <time>2022-01-20T15:58:26Z</time>
      </trkpt>
      <trkpt lat="47.26696" lon="-1.5446">
        <ele>64</ele>
        <time>2022-01-20T15:58:27Z</time>
      </trkpt>
      <trkpt lat="47.26698" lon="-1.54461">
        <ele>64</ele>
        <time>2022-01-20T15:58:28Z</time>
      </trkpt>
      <trkpt lat="47.26699" lon="-1.54461">
        <ele>64</ele>
        <time>2022-01-20T15:58:29Z</time>
      </trkpt>
      <trkpt lat="47.26701" lon="-1.54462">
        <ele>64</ele>
        <time>2022-01-20T15:58:30Z</time>
      </trkpt>
      <trkpt lat="47.26702" lon="-1.54463">
        <ele>63</ele>
        <time>2022-01-20T15:58:31Z</time>
      </trkpt>
      <trkpt lat="47.26703" lon="-1.54463">
        <ele>64</ele>
        <time>2022-01-20T15:58:32Z</time>
      </trkpt>
      <trkpt lat="47.26705" lon="-1.54463">
        <ele>63</ele>
        <time>2022-01-20T15:58:33Z</time>
      </trkpt>
      <trkpt lat="47.26706" lon="-1.54464">
        <ele>63</ele>
        <time>2022-01-20T15:58:34Z</time>
      </trkpt>
      <trkpt lat="47.26708" lon="-1.54464">
        <ele>63</ele>
        <time>2022-01-20T15:58:35Z</time>
      </trkpt>
      <trkpt lat="47.26709" lon="-1.54464">
        <ele>63</ele>
        <time>2022-01-20T15:58:36Z</time>
      </trkpt>
      <trkpt lat="47.26711" lon="-1.54465">
        <ele>63</ele>
        <time>2022-01-20T15:58:37Z</time>
      </trkpt>
      <trkpt lat="47.26712" lon="-1.54466">
        <ele>63</ele>
        <time>2022-01-20T15:58:38Z</time>
      </trkpt>
      <trkpt lat="47.26714" lon="-1.54466">
        <ele>62</ele>
        <time>2022-01-20T15:58:39Z</time>
      </trkpt>
      <trkpt lat="47.26715" lon="-1.54466">
        <ele>62</ele>
        <time>2022-01-20T15:58:40Z</time>
      </trkpt>
      <trkpt lat="47.26717" lon="-1.54467">
        <ele>63</ele>
        <time>2022-01-20T15:58:41Z</time>
      </trkpt>
      <trkpt lat="47.26719" lon="-1.54467">
        <ele>63</ele>
        <time>2022-01-20T15:58:42Z</time>
      </trkpt>
      <trkpt lat="47.2672" lon="-1.54468">
        <ele>63</ele>
        <time>2022-01-20T15:58:43Z</time>
      </trkpt>
      <trkpt lat="47.26721" lon="-1.54468">
        <ele>63</ele>
        <time>2022-01-20T15:58:44Z</time>
      </trkpt>
      <trkpt lat="47.26722" lon="-1.54469">
        <ele>63</ele>
        <time>2022-01-20T15:58:45Z</time>
      </trkpt>
      <trkpt lat="47.26723" lon="-1.54469">
        <ele>63</ele>
        <time>2022-01-20T15:58:46Z</time>
      </trkpt>
      <trkpt lat="47.26724" lon="-1.54469">
        <ele>63</ele>
        <time>2022-01-20T15:58:47Z</time>
      </trkpt>
      <trkpt lat="47.26725" lon="-1.54469">
        <ele>62</ele>
        <time>2022-01-20T15:58:48Z</time>
      </trkpt>
      <trkpt lat="47.26726" lon="-1.5447">
        <ele>62</ele>
        <time>2022-01-20T15:58:49Z</time>
      </trkpt>
      <trkpt lat="47.26727" lon="-1.54471">
        <ele>62</ele>
        <time>2022-01-20T15:58:50Z</time>
      </trkpt>
      <trkpt lat="47.26728" lon="-1.54471">
        <ele>62</ele>
        <time>2022-01-20T15:58:51Z</time>
      </trkpt>
      <trkpt lat="47.26728" lon="-1.54472">
        <ele>62</ele>
        <time>2022-01-20T15:58:52Z</time>
      </trkpt>
      <trkpt lat="47.26729" lon="-1.54472">
        <ele>62</ele>
        <time>2022-01-20T15:58:53Z</time>
      </trkpt>
      <trkpt lat="47.2673" lon="-1.54473">
        <ele>62</ele>
        <time>2022-01-20T15:58:54Z</time>
      </trkpt>
      <trkpt lat="47.26731" lon="-1.54474">
        <ele>62</ele>
        <time>2022-01-20T15:58:55Z</time>
      </trkpt>
      <trkpt lat="47.26733" lon="-1.54475">
        <ele>62</ele>
        <time>2022-01-20T15:58:56Z</time>
      </trkpt>
      <trkpt lat="47.26734" lon="-1.54476">
        <ele>62</ele>
        <time>2022-01-20T15:58:57Z</time>
      </trkpt>
      <trkpt lat="47.26735" lon="-1.54477">
        <ele>62</ele>
        <time>2022-01-20T15:58:58Z</time>
      </trkpt>
      <trkpt lat="47.26737" lon="-1.54478">
        <ele>61</ele>
        <time>2022-01-20T15:58:59Z</time>
      </trkpt>
      <trkpt lat="47.26737" lon="-1.5448">
        <ele>61</ele>
        <time>2022-01-20T15:59:00Z</time>
      </trkpt>
      <trkpt lat="47.26738" lon="-1.54481">
        <ele>61</ele>
        <time>2022-01-20T15:59:01Z</time>
      </trkpt>
      <trkpt lat="47.2674" lon="-1.54482">
        <ele>62</ele>
        <time>2022-01-20T15:59:02Z</time>
      </trkpt>
      <trkpt lat="47.26741" lon="-1.54484">
        <ele>62</ele>
        <time>2022-01-20T15:59:03Z</time>
      </trkpt>
      <trkpt lat="47.26742" lon="-1.54485">
        <ele>62</ele>
        <time>2022-01-20T15:59:04Z</time>
      </trkpt>
      <trkpt lat="47.26743" lon="-1.54487">
        <ele>62</ele>
        <time>2022-01-20T15:59:05Z</time>
      </trkpt>
      <trkpt lat="47.26744" lon="-1.54488">
        <ele>62</ele>
        <time>2022-01-20T15:59:06Z</time>
      </trkpt>
      <trkpt lat="47.26745" lon="-1.5449">
        <ele>62</ele>
        <time>2022-01-20T15:59:07Z</time>
      </trkpt>
      <trkpt lat="47.26746" lon="-1.54491">
        <ele>62</ele>
        <time>2022-01-20T15:59:08Z</time>
      </trkpt>
      <trkpt lat="47.26748" lon="-1.54492">
        <ele>62</ele>
        <time>2022-01-20T15:59:09Z</time>
      </trkpt>
      <trkpt lat="47.26749" lon="-1.54493">
        <ele>62</ele>
        <time>2022-01-20T15:59:10Z</time>
      </trkpt>
      <trkpt lat="47.2675" lon="-1.54495">
        <ele>62</ele>
        <time>2022-01-20T15:59:11Z</time>
      </trkpt>
      <trkpt lat="47.26751" lon="-1.54496">
        <ele>62</ele>
        <time>2022-01-20T15:59:12Z</time>
      </trkpt>
      <trkpt lat="47.26752" lon="-1.54498">
        <ele>63</ele>
        <time>2022-01-20T15:59:13Z</time>
      </trkpt>
      <trkpt lat="47.26753" lon="-1.54499">
        <ele>63</ele>
        <time>2022-01-20T15:59:14Z</time>
      </trkpt>
      <trkpt lat="47.26754" lon="-1.545">
        <ele>63</ele>
        <time>2022-01-20T15:59:15Z</time>
      </trkpt>
      <trkpt lat="47.26755" lon="-1.54501">
        <ele>63</ele>
        <time>2022-01-20T15:59:16Z</time>
      </trkpt>
      <trkpt lat="47.26757" lon="-1.54501">
        <ele>62</ele>
        <time>2022-01-20T15:59:17Z</time>
      </trkpt>
      <trkpt lat="47.26759" lon="-1.54502">
        <ele>62</ele>
        <time>2022-01-20T15:59:18Z</time>
      </trkpt>
      <trkpt lat="47.2676" lon="-1.54502">
        <ele>62</ele>
        <time>2022-01-20T15:59:19Z</time>
      </trkpt>
      <trkpt lat="47.26761" lon="-1.54502">
        <ele>63</ele>
        <time>2022-01-20T15:59:20Z</time>
      </trkpt>
      <trkpt lat="47.26762" lon="-1.54503">
        <ele>63</ele>
        <time>2022-01-20T15:59:21Z</time>
      </trkpt>
      <trkpt lat="47.26763" lon="-1.54503">
        <ele>63</ele>
        <time>2022-01-20T15:59:22Z</time>
      </trkpt>
      <trkpt lat="47.26764" lon="-1.54504">
        <ele>63</ele>
        <time>2022-01-20T15:59:23Z</time>
      </trkpt>
      <trkpt lat="47.26765" lon="-1.54505">
        <ele>63</ele>
        <time>2022-01-20T15:59:24Z</time>
      </trkpt>
      <trkpt lat="47.26767" lon="-1.54506">
        <ele>63</ele>
        <time>2022-01-20T15:59:25Z</time>
      </trkpt>
      <trkpt lat="47.26768" lon="-1.54506">
        <ele>64</ele>
        <time>2022-01-20T15:59:26Z</time>
      </trkpt>
      <trkpt lat="47.26769" lon="-1.54507">
        <ele>63</ele>
        <time>2022-01-20T15:59:27Z</time>
      </trkpt>
      <trkpt lat="47.26771" lon="-1.54508">
        <ele>64</ele>
        <time>2022-01-20T15:59:28Z</time>
      </trkpt>
      <trkpt lat="47.26772" lon="-1.54509">
        <ele>64</ele>
        <time>2022-01-20T15:59:29Z</time>
      </trkpt>
      <trkpt lat="47.26774" lon="-1.5451">
        <ele>64</ele>
        <time>2022-01-20T15:59:30Z</time>
      </trkpt>
      <trkpt lat="47.26775" lon="-1.54511">
        <ele>64</ele>
        <time>2022-01-20T15:59:31Z</time>
      </trkpt>
      <trkpt lat="47.26776" lon="-1.54512">
        <ele>64</ele>
        <time>2022-01-20T15:59:32Z</time>
      </trkpt>
      <trkpt lat="47.26778" lon="-1.54513">
        <ele>64</ele>
        <time>2022-01-20T15:59:33Z</time>
      </trkpt>
      <trkpt lat="47.26779" lon="-1.54514">
        <ele>64</ele>
        <time>2022-01-20T15:59:34Z</time>
      </trkpt>
      <trkpt lat="47.2678" lon="-1.54515">
        <ele>64</ele>
        <time>2022-01-20T15:59:35Z</time>
      </trkpt>
      <trkpt lat="47.26781" lon="-1.54516">
        <ele>64</ele>
        <time>2022-01-20T15:59:36Z</time>
      </trkpt>
      <trkpt lat="47.26782" lon="-1.54517">
        <ele>64</ele>
        <time>2022-01-20T15:59:37Z</time>
      </trkpt>
      <trkpt lat="47.26783" lon="-1.54519">
        <ele>65</ele>
        <time>2022-01-20T15:59:38Z</time>
      </trkpt>
      <trkpt lat="47.26784" lon="-1.5452">
        <ele>65</ele>
        <time>2022-01-20T15:59:39Z</time>
      </trkpt>
      <trkpt lat="47.26785" lon="-1.54521">
        <ele>65</ele>
        <time>2022-01-20T15:59:40Z</time>
      </trkpt>
      <trkpt lat="47.26785" lon="-1.54522">
        <ele>65</ele>
        <time>2022-01-20T15:59:41Z</time>
      </trkpt>
      <trkpt lat="47.26786" lon="-1.54523">
        <ele>66</ele>
        <time>2022-01-20T15:59:42Z</time>
      </trkpt>
      <trkpt lat="47.26787" lon="-1.54524">
        <ele>65</ele>
        <time>2022-01-20T15:59:43Z</time>
      </trkpt>
      <trkpt lat="47.26788" lon="-1.54525">
        <ele>66</ele>
        <time>2022-01-20T15:59:44Z</time>
      </trkpt>
      <trkpt lat="47.2679" lon="-1.54526">
        <ele>66</ele>
        <time>2022-01-20T15:59:45Z</time>
      </trkpt>
      <trkpt lat="47.26791" lon="-1.54527">
        <ele>67</ele>
        <time>2022-01-20T15:59:46Z</time>
      </trkpt>
      <trkpt lat="47.26792" lon="-1.54529">
        <ele>68</ele>
        <time>2022-01-20T15:59:47Z</time>
      </trkpt>
      <trkpt lat="47.26793" lon="-1.5453">
        <ele>68</ele>
        <time>2022-01-20T15:59:48Z</time>
      </trkpt>
      <trkpt lat="47.26794" lon="-1.54531">
        <ele>68</ele>
        <time>2022-01-20T15:59:49Z</time>
      </trkpt>
      <trkpt lat="47.26795" lon="-1.54533">
        <ele>69</ele>
        <time>2022-01-20T15:59:50Z</time>
      </trkpt>
      <trkpt lat="47.26796" lon="-1.54534">
        <ele>69</ele>
        <time>2022-01-20T15:59:51Z</time>
      </trkpt>
      <trkpt lat="47.26797" lon="-1.54535">
        <ele>69</ele>
        <time>2022-01-20T15:59:52Z</time>
      </trkpt>
      <trkpt lat="47.26798" lon="-1.54536">
        <ele>69</ele>
        <time>2022-01-20T15:59:53Z</time>
      </trkpt>
      <trkpt lat="47.26799" lon="-1.54537">
        <ele>69</ele>
        <time>2022-01-20T15:59:54Z</time>
      </trkpt>
      <trkpt lat="47.26801" lon="-1.54539">
        <ele>69</ele>
        <time>2022-01-20T15:59:55Z</time>
      </trkpt>
      <trkpt lat="47.26802" lon="-1.54541">
        <ele>69</ele>
        <time>2022-01-20T15:59:56Z</time>
      </trkpt>
      <trkpt lat="47.26803" lon="-1.54542">
        <ele>69</ele>
        <time>2022-01-20T15:59:57Z</time>
      </trkpt>
      <trkpt lat="47.26804" lon="-1.54543">
        <ele>69</ele>
        <time>2022-01-20T15:59:58Z</time>
      </trkpt>
      <trkpt lat="47.26806" lon="-1.54544">
        <ele>70</ele>
        <time>2022-01-20T15:59:59Z</time>
      </trkpt>
      <trkpt lat="47.26807" lon="-1.54545">
        <ele>69</ele>
        <time>2022-01-20T16:00:00Z</time>
      </trkpt>
      <trkpt lat="47.26808" lon="-1.54546">
        <ele>69</ele>
        <time>2022-01-20T16:00:01Z</time>
      </trkpt>
      <trkpt lat="47.26809" lon="-1.54547">
        <ele>69</ele>
        <time>2022-01-20T16:00:02Z</time>
      </trkpt>
      <trkpt lat="47.26811" lon="-1.54548">
        <ele>69</ele>
        <time>2022-01-20T16:00:03Z</time>
      </trkpt>
      <trkpt lat="47.26812" lon="-1.54549">
        <ele>69</ele>
        <time>2022-01-20T16:00:04Z</time>
      </trkpt>
      <trkpt lat="47.26813" lon="-1.54551">
        <ele>69</ele>
        <time>2022-01-20T16:00:05Z</time>
      </trkpt>
      <trkpt lat="47.26814" lon="-1.54552">
        <ele>69</ele>
        <time>2022-01-20T16:00:06Z</time>
      </trkpt>
      <trkpt lat="47.26815" lon="-1.54553">
        <ele>70</ele>
        <time>2022-01-20T16:00:07Z</time>
      </trkpt>
      <trkpt lat="47.26816" lon="-1.54554">
        <ele>70</ele>
        <time>2022-01-20T16:00:08Z</time>
      </trkpt>
      <trkpt lat="47.26817" lon="-1.54555">
        <ele>70</ele>
        <time>2022-01-20T16:00:09Z</time>
      </trkpt>
      <trkpt lat="47.26817" lon="-1.54556">
        <ele>70</ele>
        <time>2022-01-20T16:00:10Z</time>
      </trkpt>
      <trkpt lat="47.26819" lon="-1.54557">
        <ele>70</ele>
        <time>2022-01-20T16:00:11Z</time>
      </trkpt>
      <trkpt lat="47.2682" lon="-1.54557">
        <ele>70</ele>
        <time>2022-01-20T16:00:12Z</time>
      </trkpt>
      <trkpt lat="47.26822" lon="-1.54558">
        <ele>70</ele>
        <time>2022-01-20T16:00:13Z</time>
      </trkpt>
      <trkpt lat="47.26823" lon="-1.54559">
        <ele>70</ele>
        <time>2022-01-20T16:00:14Z</time>
      </trkpt>
      <trkpt lat="47.26825" lon="-1.54559">
        <ele>70</ele>
        <time>2022-01-20T16:00:15Z</time>
      </trkpt>
      <trkpt lat="47.26826" lon="-1.5456">
        <ele>70</ele>
        <time>2022-01-20T16:00:16Z</time>
      </trkpt>
      <trkpt lat="47.26827" lon="-1.54561">
        <ele>69</ele>
        <time>2022-01-20T16:00:17Z</time>
      </trkpt>
      <trkpt lat="47.26828" lon="-1.54562">
        <ele>70</ele>
        <time>2022-01-20T16:00:18Z</time>
      </trkpt>
      <trkpt lat="47.26829" lon="-1.54562">
        <ele>70</ele>
        <time>2022-01-20T16:00:19Z</time>
      </trkpt>
      <trkpt lat="47.26831" lon="-1.54563">
        <ele>69</ele>
        <time>2022-01-20T16:00:20Z</time>
      </trkpt>
      <trkpt lat="47.26833" lon="-1.54563">
        <ele>69</ele>
        <time>2022-01-20T16:00:21Z</time>
      </trkpt>
      <trkpt lat="47.26835" lon="-1.54563">
        <ele>69</ele>
        <time>2022-01-20T16:00:22Z</time>
      </trkpt>
      <trkpt lat="47.26836" lon="-1.54564">
        <ele>69</ele>
        <time>2022-01-20T16:00:23Z</time>
      </trkpt>
      <trkpt lat="47.26838" lon="-1.54565">
        <ele>69</ele>
        <time>2022-01-20T16:00:24Z</time>
      </trkpt>
      <trkpt lat="47.2684" lon="-1.54565">
        <ele>69</ele>
        <time>2022-01-20T16:00:25Z</time>
      </trkpt>
      <trkpt lat="47.26841" lon="-1.54564">
        <ele>68</ele>
        <time>2022-01-20T16:00:26Z</time>
      </trkpt>
      <trkpt lat="47.26843" lon="-1.54564">
        <ele>69</ele>
        <time>2022-01-20T16:00:27Z</time>
      </trkpt>
      <trkpt lat="47.26844" lon="-1.54564">
        <ele>69</ele>
        <time>2022-01-20T16:00:28Z</time>
      </trkpt>
      <trkpt lat="47.26846" lon="-1.54563">
        <ele>68</ele>
        <time>2022-01-20T16:00:29Z</time>
      </trkpt>
      <trkpt lat="47.26847" lon="-1.54563">
        <ele>69</ele>
        <time>2022-01-20T16:00:30Z</time>
      </trkpt>
      <trkpt lat="47.26848" lon="-1.54563">
        <ele>69</ele>
        <time>2022-01-20T16:00:31Z</time>
      </trkpt>
      <trkpt lat="47.26849" lon="-1.54563">
        <ele>68</ele>
        <time>2022-01-20T16:00:32Z</time>
      </trkpt>
      <trkpt lat="47.26851" lon="-1.54563">
        <ele>69</ele>
        <time>2022-01-20T16:00:33Z</time>
      </trkpt>
      <trkpt lat="47.26852" lon="-1.54563">
        <ele>69</ele>
        <time>2022-01-20T16:00:34Z</time>
      </trkpt>
      <trkpt lat="47.26854" lon="-1.54563">
        <ele>69</ele>
        <time>2022-01-20T16:00:35Z</time>
      </trkpt>
      <trkpt lat="47.26855" lon="-1.54563">
        <ele>69</ele>
        <time>2022-01-20T16:00:36Z</time>
      </trkpt>
      <trkpt lat="47.26857" lon="-1.54563">
        <ele>69</ele>
        <time>2022-01-20T16:00:37Z</time>
      </trkpt>
      <trkpt lat="47.26858" lon="-1.54563">
        <ele>68</ele>
        <time>2022-01-20T16:00:38Z</time>
      </trkpt>
      <trkpt lat="47.2686" lon="-1.54563">
        <ele>68</ele>
        <time>2022-01-20T16:00:39Z</time>
      </trkpt>
      <trkpt lat="47.26861" lon="-1.54563">
        <ele>68</ele>
        <time>2022-01-20T16:00:40Z</time>
      </trkpt>
      <trkpt lat="47.26862" lon="-1.54564">
        <ele>68</ele>
        <time>2022-01-20T16:00:41Z</time>
      </trkpt>
      <trkpt lat="47.26863" lon="-1.54564">
        <ele>68</ele>
        <time>2022-01-20T16:00:42Z</time>
      </trkpt>
      <trkpt lat="47.26865" lon="-1.54565">
        <ele>68</ele>
        <time>2022-01-20T16:00:43Z</time>
      </trkpt>
      <trkpt lat="47.26866" lon="-1.54566">
        <ele>69</ele>
        <time>2022-01-20T16:00:44Z</time>
      </trkpt>
      <trkpt lat="47.26867" lon="-1.54566">
        <ele>69</ele>
        <time>2022-01-20T16:00:45Z</time>
      </trkpt>
      <trkpt lat="47.26868" lon="-1.54566">
        <ele>68</ele>
        <time>2022-01-20T16:00:46Z</time>
      </trkpt>
      <trkpt lat="47.26869" lon="-1.54566">
        <ele>68</ele>
        <time>2022-01-20T16:00:47Z</time>
      </trkpt>
      <trkpt lat="47.2687" lon="-1.54567">
        <ele>68</ele>
        <time>2022-01-20T16:00:48Z</time>
      </trkpt>
      <trkpt lat="47.26871" lon="-1.54567">
        <ele>68</ele>
        <time>2022-01-20T16:00:49Z</time>
      </trkpt>
      <trkpt lat="47.26872" lon="-1.54569">
        <ele>68</ele>
        <time>2022-01-20T16:00:50Z</time>
      </trkpt>
      <trkpt lat="47.26873" lon="-1.5457">
        <ele>68</ele>
        <time>2022-01-20T16:00:51Z</time>
      </trkpt>
      <trkpt lat="47.26874" lon="-1.5457">
        <ele>67</ele>
        <time>2022-01-20T16:00:52Z</time>
      </trkpt>
      <trkpt lat="47.26875" lon="-1.54571">
        <ele>68</ele>
        <time>2022-01-20T16:00:53Z</time>
      </trkpt>
      <trkpt lat="47.26875" lon="-1.54572">
        <ele>68</ele>
        <time>2022-01-20T16:00:54Z</time>
      </trkpt>
      <trkpt lat="47.26876" lon="-1.54573">
        <ele>68</ele>
        <time>2022-01-20T16:00:55Z</time>
      </trkpt>
      <trkpt lat="47.26876" lon="-1.54574">
        <ele>67</ele>
        <time>2022-01-20T16:00:56Z</time>
      </trkpt>
      <trkpt lat="47.26876" lon="-1.54575">
        <ele>68</ele>
        <time>2022-01-20T16:00:57Z</time>
      </trkpt>
      <trkpt lat="47.26876" lon="-1.54577">
        <ele>68</ele>
        <time>2022-01-20T16:00:58Z</time>
      </trkpt>
      <trkpt lat="47.26876" lon="-1.54579">
        <ele>69</ele>
        <time>2022-01-20T16:00:59Z</time>
      </trkpt>
      <trkpt lat="47.26876" lon="-1.5458">
        <ele>69</ele>
        <time>2022-01-20T16:01:00Z</time>
      </trkpt>
      <trkpt lat="47.26876" lon="-1.54582">
        <ele>69</ele>
        <time>2022-01-20T16:01:01Z</time>
      </trkpt>
      <trkpt lat="47.26876" lon="-1.54583">
        <ele>69</ele>
        <time>2022-01-20T16:01:02Z</time>
      </trkpt>
      <trkpt lat="47.26876" lon="-1.54584">
        <ele>69</ele>
        <time>2022-01-20T16:01:03Z</time>
      </trkpt>
      <trkpt lat="47.26876" lon="-1.54587">
        <ele>69</ele>
        <time>2022-01-20T16:01:04Z</time>
      </trkpt>
      <trkpt lat="47.26876" lon="-1.54588">
        <ele>68</ele>
        <time>2022-01-20T16:01:05Z</time>
      </trkpt>
      <trkpt lat="47.26876" lon="-1.5459">
        <ele>68</ele>
        <time>2022-01-20T16:01:06Z</time>
      </trkpt>
      <trkpt lat="47.26876" lon="-1.54591">
        <ele>68</ele>
        <time>2022-01-20T16:01:07Z</time>
      </trkpt>
      <trkpt lat="47.26877" lon="-1.54592">
        <ele>67</ele>
        <time>2022-01-20T16:01:08Z</time>
      </trkpt>
      <trkpt lat="47.26877" lon="-1.54594">
        <ele>68</ele>
        <time>2022-01-20T16:01:09Z</time>
      </trkpt>
      <trkpt lat="47.26877" lon="-1.54596">
        <ele>67</ele>
        <time>2022-01-20T16:01:10Z</time>
      </trkpt>
      <trkpt lat="47.26876" lon="-1.54598">
        <ele>67</ele>
        <time>2022-01-20T16:01:11Z</time>
      </trkpt>
      <trkpt lat="47.26876" lon="-1.54599">
        <ele>67</ele>
        <time>2022-01-20T16:01:12Z</time>
      </trkpt>
      <trkpt lat="47.26876" lon="-1.54601">
        <ele>67</ele>
        <time>2022-01-20T16:01:13Z</time>
      </trkpt>
      <trkpt lat="47.26876" lon="-1.54602">
        <ele>67</ele>
        <time>2022-01-20T16:01:14Z</time>
      </trkpt>
      <trkpt lat="47.26876" lon="-1.54604">
        <ele>67</ele>
        <time>2022-01-20T16:01:15Z</time>
      </trkpt>
      <trkpt lat="47.26875" lon="-1.54606">
        <ele>67</ele>
        <time>2022-01-20T16:01:16Z</time>
      </trkpt>
      <trkpt lat="47.26875" lon="-1.54608">
        <ele>67</ele>
        <time>2022-01-20T16:01:17Z</time>
      </trkpt>
      <trkpt lat="47.26874" lon="-1.54609">
        <ele>67</ele>
        <time>2022-01-20T16:01:18Z</time>
      </trkpt>
      <trkpt lat="47.26873" lon="-1.54611">
        <ele>67</ele>
        <time>2022-01-20T16:01:19Z</time>
      </trkpt>
      <trkpt lat="47.26873" lon="-1.54612">
        <ele>67</ele>
        <time>2022-01-20T16:01:20Z</time>
      </trkpt>
      <trkpt lat="47.26872" lon="-1.54613">
        <ele>67</ele>
        <time>2022-01-20T16:01:21Z</time>
      </trkpt>
      <trkpt lat="47.26871" lon="-1.54614">
        <ele>67</ele>
        <time>2022-01-20T16:01:22Z</time>
      </trkpt>
      <trkpt lat="47.2687" lon="-1.54616">
        <ele>68</ele>
        <time>2022-01-20T16:01:23Z</time>
      </trkpt>
      <trkpt lat="47.26869" lon="-1.54617">
        <ele>69</ele>
        <time>2022-01-20T16:01:24Z</time>
      </trkpt>
      <trkpt lat="47.26868" lon="-1.54618">
        <ele>69</ele>
        <time>2022-01-20T16:01:25Z</time>
      </trkpt>
      <trkpt lat="47.26868" lon="-1.5462">
        <ele>68</ele>
        <time>2022-01-20T16:01:26Z</time>
      </trkpt>
      <trkpt lat="47.26868" lon="-1.54621">
        <ele>68</ele>
        <time>2022-01-20T16:01:27Z</time>
      </trkpt>
      <trkpt lat="47.26867" lon="-1.54623">
        <ele>68</ele>
        <time>2022-01-20T16:01:28Z</time>
      </trkpt>
      <trkpt lat="47.26867" lon="-1.54624">
        <ele>68</ele>
        <time>2022-01-20T16:01:29Z</time>
      </trkpt>
      <trkpt lat="47.26866" lon="-1.54626">
        <ele>68</ele>
        <time>2022-01-20T16:01:30Z</time>
      </trkpt>
      <trkpt lat="47.26866" lon="-1.54627">
        <ele>68</ele>
        <time>2022-01-20T16:01:31Z</time>
      </trkpt>
      <trkpt lat="47.26865" lon="-1.54629">
        <ele>68</ele>
        <time>2022-01-20T16:01:32Z</time>
      </trkpt>
      <trkpt lat="47.26865" lon="-1.54632">
        <ele>68</ele>
        <time>2022-01-20T16:01:33Z</time>
      </trkpt>
      <trkpt lat="47.26865" lon="-1.54633">
        <ele>69</ele>
        <time>2022-01-20T16:01:34Z</time>
      </trkpt>
      <trkpt lat="47.26865" lon="-1.54635">
        <ele>69</ele>
        <time>2022-01-20T16:01:35Z</time>
      </trkpt>
      <trkpt lat="47.26865" lon="-1.54637">
        <ele>69</ele>
        <time>2022-01-20T16:01:36Z</time>
      </trkpt>
      <trkpt lat="47.26865" lon="-1.54638">
        <ele>69</ele>
        <time>2022-01-20T16:01:37Z</time>
      </trkpt>
      <trkpt lat="47.26865" lon="-1.5464">
        <ele>69</ele>
        <time>2022-01-20T16:01:38Z</time>
      </trkpt>
      <trkpt lat="47.26865" lon="-1.54642">
        <ele>68</ele>
        <time>2022-01-20T16:01:39Z</time>
      </trkpt>
      <trkpt lat="47.26865" lon="-1.54644">
        <ele>68</ele>
        <time>2022-01-20T16:01:40Z</time>
      </trkpt>
      <trkpt lat="47.26866" lon="-1.54646">
        <ele>67</ele>
        <time>2022-01-20T16:01:41Z</time>
      </trkpt>
      <trkpt lat="47.26866" lon="-1.54647">
        <ele>67</ele>
        <time>2022-01-20T16:01:42Z</time>
      </trkpt>
      <trkpt lat="47.26865" lon="-1.54649">
        <ele>67</ele>
        <time>2022-01-20T16:01:43Z</time>
      </trkpt>
      <trkpt lat="47.26866" lon="-1.54651">
        <ele>67</ele>
        <time>2022-01-20T16:01:44Z</time>
      </trkpt>
      <trkpt lat="47.26866" lon="-1.54653">
        <ele>67</ele>
        <time>2022-01-20T16:01:45Z</time>
      </trkpt>
      <trkpt lat="47.26867" lon="-1.54654">
        <ele>68</ele>
        <time>2022-01-20T16:01:46Z</time>
      </trkpt>
      <trkpt lat="47.26867" lon="-1.54656">
        <ele>68</ele>
        <time>2022-01-20T16:01:47Z</time>
      </trkpt>
      <trkpt lat="47.26868" lon="-1.54658">
        <ele>68</ele>
        <time>2022-01-20T16:01:48Z</time>
      </trkpt>
      <trkpt lat="47.26868" lon="-1.54659">
        <ele>68</ele>
        <time>2022-01-20T16:01:49Z</time>
      </trkpt>
      <trkpt lat="47.26869" lon="-1.54661">
        <ele>68</ele>
        <time>2022-01-20T16:01:50Z</time>
      </trkpt>
      <trkpt lat="47.26869" lon="-1.54663">
        <ele>68</ele>
        <time>2022-01-20T16:01:51Z</time>
      </trkpt>
      <trkpt lat="47.26869" lon="-1.54665">
        <ele>68</ele>
        <time>2022-01-20T16:01:52Z</time>
      </trkpt>
      <trkpt lat="47.2687" lon="-1.54667">
        <ele>68</ele>
        <time>2022-01-20T16:01:53Z</time>
      </trkpt>
      <trkpt lat="47.2687" lon="-1.54668">
        <ele>68</ele>
        <time>2022-01-20T16:01:54Z</time>
      </trkpt>
      <trkpt lat="47.26871" lon="-1.5467">
        <ele>68</ele>
        <time>2022-01-20T16:01:55Z</time>
      </trkpt>
      <trkpt lat="47.26871" lon="-1.54672">
        <ele>68</ele>
        <time>2022-01-20T16:01:56Z</time>
      </trkpt>
      <trkpt lat="47.26872" lon="-1.54673">
        <ele>68</ele>
        <time>2022-01-20T16:01:57Z</time>
      </trkpt>
      <trkpt lat="47.26872" lon="-1.54675">
        <ele>69</ele>
        <time>2022-01-20T16:01:58Z</time>
      </trkpt>
      <trkpt lat="47.26873" lon="-1.54676">
        <ele>69</ele>
        <time>2022-01-20T16:01:59Z</time>
      </trkpt>
      <trkpt lat="47.26873" lon="-1.54677">
        <ele>69</ele>
        <time>2022-01-20T16:02:00Z</time>
      </trkpt>
      <trkpt lat="47.26873" lon="-1.54679">
        <ele>69</ele>
        <time>2022-01-20T16:02:01Z</time>
      </trkpt>
      <trkpt lat="47.26874" lon="-1.54681">
        <ele>70</ele>
        <time>2022-01-20T16:02:02Z</time>
      </trkpt>
      <trkpt lat="47.26874" lon="-1.54683">
        <ele>69</ele>
        <time>2022-01-20T16:02:03Z</time>
      </trkpt>
      <trkpt lat="47.26875" lon="-1.54685">
        <ele>69</ele>
        <time>2022-01-20T16:02:04Z</time>
      </trkpt>
      <trkpt lat="47.26875" lon="-1.54687">
        <ele>69</ele>
        <time>2022-01-20T16:02:05Z</time>
      </trkpt>
      <trkpt lat="47.26875" lon="-1.54689">
        <ele>69</ele>
        <time>2022-01-20T16:02:06Z</time>
      </trkpt>
      <trkpt lat="47.26875" lon="-1.54691">
        <ele>69</ele>
        <time>2022-01-20T16:02:07Z</time>
      </trkpt>
      <trkpt lat="47.26875" lon="-1.54693">
        <ele>69</ele>
        <time>2022-01-20T16:02:08Z</time>
      </trkpt>
      <trkpt lat="47.26875" lon="-1.54694">
        <ele>69</ele>
        <time>2022-01-20T16:02:09Z</time>
      </trkpt>
      <trkpt lat="47.26876" lon="-1.54696">
        <ele>70</ele>
        <time>2022-01-20T16:02:10Z</time>
      </trkpt>
      <trkpt lat="47.26876" lon="-1.54698">
        <ele>70</ele>
        <time>2022-01-20T16:02:11Z</time>
      </trkpt>
      <trkpt lat="47.26876" lon="-1.547">
        <ele>69</ele>
        <time>2022-01-20T16:02:12Z</time>
      </trkpt>
      <trkpt lat="47.26876" lon="-1.54701">
        <ele>69</ele>
        <time>2022-01-20T16:02:13Z</time>
      </trkpt>
      <trkpt lat="47.26877" lon="-1.54703">
        <ele>69</ele>
        <time>2022-01-20T16:02:14Z</time>
      </trkpt>
      <trkpt lat="47.26877" lon="-1.54705">
        <ele>70</ele>
        <time>2022-01-20T16:02:15Z</time>
      </trkpt>
      <trkpt lat="47.26878" lon="-1.54707">
        <ele>69</ele>
        <time>2022-01-20T16:02:16Z</time>
      </trkpt>
      <trkpt lat="47.26878" lon="-1.54708">
        <ele>69</ele>
        <time>2022-01-20T16:02:17Z</time>
      </trkpt>
      <trkpt lat="47.26879" lon="-1.5471">
        <ele>69</ele>
        <time>2022-01-20T16:02:18Z</time>
      </trkpt>
      <trkpt lat="47.2688" lon="-1.54712">
        <ele>69</ele>
        <time>2022-01-20T16:02:19Z</time>
      </trkpt>
      <trkpt lat="47.2688" lon="-1.54714">
        <ele>69</ele>
        <time>2022-01-20T16:02:20Z</time>
      </trkpt>
      <trkpt lat="47.2688" lon="-1.54716">
        <ele>68</ele>
        <time>2022-01-20T16:02:21Z</time>
      </trkpt>
      <trkpt lat="47.2688" lon="-1.54717">
        <ele>68</ele>
        <time>2022-01-20T16:02:22Z</time>
      </trkpt>
      <trkpt lat="47.2688" lon="-1.54719">
        <ele>68</ele>
        <time>2022-01-20T16:02:23Z</time>
      </trkpt>
      <trkpt lat="47.2688" lon="-1.54721">
        <ele>67</ele>
        <time>2022-01-20T16:02:24Z</time>
      </trkpt>
      <trkpt lat="47.26881" lon="-1.54722">
        <ele>68</ele>
        <time>2022-01-20T16:02:25Z</time>
      </trkpt>
      <trkpt lat="47.26881" lon="-1.54724">
        <ele>68</ele>
        <time>2022-01-20T16:02:26Z</time>
      </trkpt>
      <trkpt lat="47.26881" lon="-1.54725">
        <ele>68</ele>
        <time>2022-01-20T16:02:27Z</time>
      </trkpt>
      <trkpt lat="47.26882" lon="-1.54727">
        <ele>67</ele>
        <time>2022-01-20T16:02:28Z</time>
      </trkpt>
      <trkpt lat="47.26882" lon="-1.54729">
        <ele>67</ele>
        <time>2022-01-20T16:02:29Z</time>
      </trkpt>
      <trkpt lat="47.26883" lon="-1.5473">
        <ele>67</ele>
        <time>2022-01-20T16:02:30Z</time>
      </trkpt>
      <trkpt lat="47.26883" lon="-1.54732">
        <ele>66</ele>
        <time>2022-01-20T16:02:31Z</time>
      </trkpt>
      <trkpt lat="47.26883" lon="-1.54734">
        <ele>66</ele>
        <time>2022-01-20T16:02:32Z</time>
      </trkpt>
      <trkpt lat="47.26883" lon="-1.54736">
        <ele>66</ele>
        <time>2022-01-20T16:02:33Z</time>
      </trkpt>
      <trkpt lat="47.26884" lon="-1.54738">
        <ele>66</ele>
        <time>2022-01-20T16:02:34Z</time>
      </trkpt>
      <trkpt lat="47.26885" lon="-1.5474">
        <ele>66</ele>
        <time>2022-01-20T16:02:35Z</time>
      </trkpt>
      <trkpt lat="47.26885" lon="-1.54742">
        <ele>65</ele>
        <time>2022-01-20T16:02:36Z</time>
      </trkpt>
      <trkpt lat="47.26886" lon="-1.54744">
        <ele>65</ele>
        <time>2022-01-20T16:02:37Z</time>
      </trkpt>
      <trkpt lat="47.26886" lon="-1.54746">
        <ele>65</ele>
        <time>2022-01-20T16:02:38Z</time>
      </trkpt>
      <trkpt lat="47.26887" lon="-1.54748">
        <ele>65</ele>
        <time>2022-01-20T16:02:39Z</time>
      </trkpt>
      <trkpt lat="47.26888" lon="-1.54749">
        <ele>65</ele>
        <time>2022-01-20T16:02:40Z</time>
      </trkpt>
      <trkpt lat="47.26888" lon="-1.54751">
        <ele>65</ele>
        <time>2022-01-20T16:02:41Z</time>
      </trkpt>
      <trkpt lat="47.26889" lon="-1.54753">
        <ele>65</ele>
        <time>2022-01-20T16:02:42Z</time>
      </trkpt>
      <trkpt lat="47.26889" lon="-1.54754">
        <ele>64</ele>
        <time>2022-01-20T16:02:43Z</time>
      </trkpt>
      <trkpt lat="47.26889" lon="-1.54756">
        <ele>64</ele>
        <time>2022-01-20T16:02:44Z</time>
      </trkpt>
      <trkpt lat="47.26889" lon="-1.54758">
        <ele>64</ele>
        <time>2022-01-20T16:02:45Z</time>
      </trkpt>
      <trkpt lat="47.2689" lon="-1.54759">
        <ele>64</ele>
        <time>2022-01-20T16:02:46Z</time>
      </trkpt>
      <trkpt lat="47.26891" lon="-1.54762">
        <ele>64</ele>
        <time>2022-01-20T16:02:47Z</time>
      </trkpt>
      <trkpt lat="47.26892" lon="-1.54763">
        <ele>64</ele>
        <time>2022-01-20T16:02:48Z</time>
      </trkpt>
      <trkpt lat="47.26893" lon="-1.54765">
        <ele>64</ele>
        <time>2022-01-20T16:02:49Z</time>
      </trkpt>
      <trkpt lat="47.26893" lon="-1.54767">
        <ele>64</ele>
        <time>2022-01-20T16:02:50Z</time>
      </trkpt>
      <trkpt lat="47.26894" lon="-1.54769">
        <ele>64</ele>
        <time>2022-01-20T16:02:51Z</time>
      </trkpt>
      <trkpt lat="47.26894" lon="-1.54771">
        <ele>64</ele>
        <time>2022-01-20T16:02:52Z</time>
      </trkpt>
      <trkpt lat="47.26894" lon="-1.54773">
        <ele>65</ele>
        <time>2022-01-20T16:02:53Z</time>
      </trkpt>
      <trkpt lat="47.26894" lon="-1.54775">
        <ele>64</ele>
        <time>2022-01-20T16:02:54Z</time>
      </trkpt>
      <trkpt lat="47.26894" lon="-1.54776">
        <ele>64</ele>
        <time>2022-01-20T16:02:55Z</time>
      </trkpt>
      <trkpt lat="47.26895" lon="-1.54778">
        <ele>65</ele>
        <time>2022-01-20T16:02:56Z</time>
      </trkpt>
      <trkpt lat="47.26896" lon="-1.5478">
        <ele>64</ele>
        <time>2022-01-20T16:02:57Z</time>
      </trkpt>
      <trkpt lat="47.26896" lon="-1.54783">
        <ele>64</ele>
        <time>2022-01-20T16:02:58Z</time>
      </trkpt>
      <trkpt lat="47.26897" lon="-1.54784">
        <ele>64</ele>
        <time>2022-01-20T16:02:59Z</time>
      </trkpt>
      <trkpt lat="47.26897" lon="-1.54786">
        <ele>64</ele>
        <time>2022-01-20T16:03:00Z</time>
      </trkpt>
      <trkpt lat="47.26898" lon="-1.54788">
        <ele>64</ele>
        <time>2022-01-20T16:03:01Z</time>
      </trkpt>
      <trkpt lat="47.26899" lon="-1.54789">
        <ele>64</ele>
        <time>2022-01-20T16:03:02Z</time>
      </trkpt>
      <trkpt lat="47.26899" lon="-1.54791">
        <ele>63</ele>
        <time>2022-01-20T16:03:03Z</time>
      </trkpt>
      <trkpt lat="47.269" lon="-1.54793">
        <ele>64</ele>
        <time>2022-01-20T16:03:04Z</time>
      </trkpt>
      <trkpt lat="47.26901" lon="-1.54795">
        <ele>64</ele>
        <time>2022-01-20T16:03:05Z</time>
      </trkpt>
      <trkpt lat="47.269" lon="-1.54796">
        <ele>64</ele>
        <time>2022-01-20T16:03:06Z</time>
      </trkpt>
      <trkpt lat="47.269" lon="-1.54797">
        <ele>63</ele>
        <time>2022-01-20T16:03:07Z</time>
      </trkpt>
      <trkpt lat="47.269" lon="-1.54799">
        <ele>63</ele>
        <time>2022-01-20T16:03:08Z</time>
      </trkpt>
      <trkpt lat="47.26901" lon="-1.54801">
        <ele>64</ele>
        <time>2022-01-20T16:03:09Z</time>
      </trkpt>
      <trkpt lat="47.26901" lon="-1.54802">
        <ele>64</ele>
        <time>2022-01-20T16:03:10Z</time>
      </trkpt>
      <trkpt lat="47.26902" lon="-1.54804">
        <ele>63</ele>
        <time>2022-01-20T16:03:11Z</time>
      </trkpt>
      <trkpt lat="47.26903" lon="-1.54806">
        <ele>63</ele>
        <time>2022-01-20T16:03:12Z</time>
      </trkpt>
      <trkpt lat="47.26903" lon="-1.54808">
        <ele>63</ele>
        <time>2022-01-20T16:03:13Z</time>
      </trkpt>
      <trkpt lat="47.26904" lon="-1.5481">
        <ele>63</ele>
        <time>2022-01-20T16:03:14Z</time>
      </trkpt>
      <trkpt lat="47.26905" lon="-1.54811">
        <ele>63</ele>
        <time>2022-01-20T16:03:15Z</time>
      </trkpt>
      <trkpt lat="47.26905" lon="-1.54813">
        <ele>63</ele>
        <time>2022-01-20T16:03:16Z</time>
      </trkpt>
      <trkpt lat="47.26905" lon="-1.54815">
        <ele>63</ele>
        <time>2022-01-20T16:03:17Z</time>
      </trkpt>
      <trkpt lat="47.26906" lon="-1.54816">
        <ele>63</ele>
        <time>2022-01-20T16:03:18Z</time>
      </trkpt>
      <trkpt lat="47.26907" lon="-1.54818">
        <ele>63</ele>
        <time>2022-01-20T16:03:19Z</time>
      </trkpt>
      <trkpt lat="47.26907" lon="-1.5482">
        <ele>63</ele>
        <time>2022-01-20T16:03:20Z</time>
      </trkpt>
      <trkpt lat="47.26908" lon="-1.54821">
        <ele>62</ele>
        <time>2022-01-20T16:03:21Z</time>
      </trkpt>
      <trkpt lat="47.26909" lon="-1.54824">
        <ele>62</ele>
        <time>2022-01-20T16:03:22Z</time>
      </trkpt>
      <trkpt lat="47.26909" lon="-1.54825">
        <ele>62</ele>
        <time>2022-01-20T16:03:23Z</time>
      </trkpt>
      <trkpt lat="47.2691" lon="-1.54827">
        <ele>62</ele>
        <time>2022-01-20T16:03:24Z</time>
      </trkpt>
      <trkpt lat="47.2691" lon="-1.54829">
        <ele>62</ele>
        <time>2022-01-20T16:03:25Z</time>
      </trkpt>
      <trkpt lat="47.2691" lon="-1.5483">
        <ele>61</ele>
        <time>2022-01-20T16:03:26Z</time>
      </trkpt>
      <trkpt lat="47.26911" lon="-1.54831">
        <ele>62</ele>
        <time>2022-01-20T16:03:27Z</time>
      </trkpt>
      <trkpt lat="47.26911" lon="-1.54834">
        <ele>62</ele>
        <time>2022-01-20T16:03:28Z</time>
      </trkpt>
      <trkpt lat="47.26911" lon="-1.54836">
        <ele>62</ele>
        <time>2022-01-20T16:03:29Z</time>
      </trkpt>
      <trkpt lat="47.2691" lon="-1.54837">
        <ele>62</ele>
        <time>2022-01-20T16:03:30Z</time>
      </trkpt>
      <trkpt lat="47.26911" lon="-1.5484">
        <ele>63</ele>
        <time>2022-01-20T16:03:31Z</time>
      </trkpt>
      <trkpt lat="47.26911" lon="-1.54842">
        <ele>63</ele>
        <time>2022-01-20T16:03:32Z</time>
      </trkpt>
      <trkpt lat="47.26911" lon="-1.54843">
        <ele>62</ele>
        <time>2022-01-20T16:03:33Z</time>
      </trkpt>
      <trkpt lat="47.26912" lon="-1.54845">
        <ele>62</ele>
        <time>2022-01-20T16:03:34Z</time>
      </trkpt>
      <trkpt lat="47.26912" lon="-1.54846">
        <ele>62</ele>
        <time>2022-01-20T16:03:35Z</time>
      </trkpt>
      <trkpt lat="47.26912" lon="-1.54848">
        <ele>61</ele>
        <time>2022-01-20T16:03:36Z</time>
      </trkpt>
      <trkpt lat="47.26912" lon="-1.5485">
        <ele>61</ele>
        <time>2022-01-20T16:03:37Z</time>
      </trkpt>
      <trkpt lat="47.26913" lon="-1.54852">
        <ele>61</ele>
        <time>2022-01-20T16:03:38Z</time>
      </trkpt>
      <trkpt lat="47.26914" lon="-1.54854">
        <ele>61</ele>
        <time>2022-01-20T16:03:39Z</time>
      </trkpt>
      <trkpt lat="47.26914" lon="-1.54855">
        <ele>61</ele>
        <time>2022-01-20T16:03:40Z</time>
      </trkpt>
      <trkpt lat="47.26915" lon="-1.54857">
        <ele>61</ele>
        <time>2022-01-20T16:03:41Z</time>
      </trkpt>
      <trkpt lat="47.26916" lon="-1.54859">
        <ele>61</ele>
        <time>2022-01-20T16:03:42Z</time>
      </trkpt>
      <trkpt lat="47.26917" lon="-1.54861">
        <ele>60</ele>
        <time>2022-01-20T16:03:43Z</time>
      </trkpt>
      <trkpt lat="47.26917" lon="-1.54863">
        <ele>60</ele>
        <time>2022-01-20T16:03:44Z</time>
      </trkpt>
      <trkpt lat="47.26918" lon="-1.54865">
        <ele>60</ele>
        <time>2022-01-20T16:03:45Z</time>
      </trkpt>
      <trkpt lat="47.26918" lon="-1.54867">
        <ele>60</ele>
        <time>2022-01-20T16:03:46Z</time>
      </trkpt>
      <trkpt lat="47.26919" lon="-1.54869">
        <ele>61</ele>
        <time>2022-01-20T16:03:47Z</time>
      </trkpt>
      <trkpt lat="47.26918" lon="-1.54872">
        <ele>61</ele>
        <time>2022-01-20T16:03:48Z</time>
      </trkpt>
      <trkpt lat="47.26919" lon="-1.54873">
        <ele>61</ele>
        <time>2022-01-20T16:03:49Z</time>
      </trkpt>
      <trkpt lat="47.2692" lon="-1.54875">
        <ele>61</ele>
        <time>2022-01-20T16:03:50Z</time>
      </trkpt>
      <trkpt lat="47.2692" lon="-1.54877">
        <ele>61</ele>
        <time>2022-01-20T16:03:51Z</time>
      </trkpt>
      <trkpt lat="47.26921" lon="-1.54878">
        <ele>61</ele>
        <time>2022-01-20T16:03:52Z</time>
      </trkpt>
      <trkpt lat="47.26921" lon="-1.54879">
        <ele>61</ele>
        <time>2022-01-20T16:03:53Z</time>
      </trkpt>
      <trkpt lat="47.26922" lon="-1.54881">
        <ele>61</ele>
        <time>2022-01-20T16:03:54Z</time>
      </trkpt>
      <trkpt lat="47.26922" lon="-1.54882">
        <ele>61</ele>
        <time>2022-01-20T16:03:55Z</time>
      </trkpt>
      <trkpt lat="47.26923" lon="-1.54884">
        <ele>62</ele>
        <time>2022-01-20T16:03:56Z</time>
      </trkpt>
      <trkpt lat="47.26923" lon="-1.54885">
        <ele>62</ele>
        <time>2022-01-20T16:03:57Z</time>
      </trkpt>
      <trkpt lat="47.26923" lon="-1.54886">
        <ele>62</ele>
        <time>2022-01-20T16:03:58Z</time>
      </trkpt>
      <trkpt lat="47.26924" lon="-1.54888">
        <ele>61</ele>
        <time>2022-01-20T16:03:59Z</time>
      </trkpt>
      <trkpt lat="47.26924" lon="-1.54889">
        <ele>62</ele>
        <time>2022-01-20T16:04:00Z</time>
      </trkpt>
      <trkpt lat="47.26924" lon="-1.54891">
        <ele>62</ele>
        <time>2022-01-20T16:04:01Z</time>
      </trkpt>
      <trkpt lat="47.26925" lon="-1.54893">
        <ele>61</ele>
        <time>2022-01-20T16:04:02Z</time>
      </trkpt>
      <trkpt lat="47.26924" lon="-1.54895">
        <ele>61</ele>
        <time>2022-01-20T16:04:03Z</time>
      </trkpt>
      <trkpt lat="47.26924" lon="-1.54897">
        <ele>61</ele>
        <time>2022-01-20T16:04:04Z</time>
      </trkpt>
      <trkpt lat="47.26925" lon="-1.54899">
        <ele>60</ele>
        <time>2022-01-20T16:04:05Z</time>
      </trkpt>
      <trkpt lat="47.26926" lon="-1.54902">
        <ele>60</ele>
        <time>2022-01-20T16:04:06Z</time>
      </trkpt>
      <trkpt lat="47.26927" lon="-1.54904">
        <ele>61</ele>
        <time>2022-01-20T16:04:07Z</time>
      </trkpt>
      <trkpt lat="47.26928" lon="-1.54906">
        <ele>60</ele>
        <time>2022-01-20T16:04:08Z</time>
      </trkpt>
      <trkpt lat="47.26929" lon="-1.54908">
        <ele>61</ele>
        <time>2022-01-20T16:04:09Z</time>
      </trkpt>
      <trkpt lat="47.26929" lon="-1.5491">
        <ele>61</ele>
        <time>2022-01-20T16:04:10Z</time>
      </trkpt>
      <trkpt lat="47.2693" lon="-1.54911">
        <ele>61</ele>
        <time>2022-01-20T16:04:11Z</time>
      </trkpt>
      <trkpt lat="47.2693" lon="-1.54913">
        <ele>61</ele>
        <time>2022-01-20T16:04:12Z</time>
      </trkpt>
      <trkpt lat="47.2693" lon="-1.54915">
        <ele>62</ele>
        <time>2022-01-20T16:04:13Z</time>
      </trkpt>
      <trkpt lat="47.2693" lon="-1.54917">
        <ele>62</ele>
        <time>2022-01-20T16:04:14Z</time>
      </trkpt>
      <trkpt lat="47.26929" lon="-1.54918">
        <ele>61</ele>
        <time>2022-01-20T16:04:15Z</time>
      </trkpt>
      <trkpt lat="47.26929" lon="-1.54919">
        <ele>61</ele>
        <time>2022-01-20T16:04:16Z</time>
      </trkpt>
      <trkpt lat="47.26929" lon="-1.5492">
        <ele>60</ele>
        <time>2022-01-20T16:04:17Z</time>
      </trkpt>
      <trkpt lat="47.26929" lon="-1.54922">
        <ele>60</ele>
        <time>2022-01-20T16:04:18Z</time>
      </trkpt>
      <trkpt lat="47.26929" lon="-1.54923">
        <ele>59</ele>
        <time>2022-01-20T16:04:19Z</time>
      </trkpt>
      <trkpt lat="47.26928" lon="-1.54925">
        <ele>59</ele>
        <time>2022-01-20T16:04:20Z</time>
      </trkpt>
      <trkpt lat="47.26927" lon="-1.54926">
        <ele>58</ele>
        <time>2022-01-20T16:04:21Z</time>
      </trkpt>
      <trkpt lat="47.26927" lon="-1.54928">
        <ele>58</ele>
        <time>2022-01-20T16:04:22Z</time>
      </trkpt>
      <trkpt lat="47.26926" lon="-1.54929">
        <ele>57</ele>
        <time>2022-01-20T16:04:23Z</time>
      </trkpt>
      <trkpt lat="47.26926" lon="-1.5493">
        <ele>57</ele>
        <time>2022-01-20T16:04:24Z</time>
      </trkpt>
      <trkpt lat="47.26926" lon="-1.54932">
        <ele>57</ele>
        <time>2022-01-20T16:04:25Z</time>
      </trkpt>
      <trkpt lat="47.26925" lon="-1.54934">
        <ele>57</ele>
        <time>2022-01-20T16:04:26Z</time>
      </trkpt>
      <trkpt lat="47.26925" lon="-1.54937">
        <ele>56</ele>
        <time>2022-01-20T16:04:27Z</time>
      </trkpt>
      <trkpt lat="47.26924" lon="-1.54939">
        <ele>56</ele>
        <time>2022-01-20T16:04:28Z</time>
      </trkpt>
      <trkpt lat="47.26924" lon="-1.54941">
        <ele>56</ele>
        <time>2022-01-20T16:04:29Z</time>
      </trkpt>
      <trkpt lat="47.26923" lon="-1.54943">
        <ele>56</ele>
        <time>2022-01-20T16:04:30Z</time>
      </trkpt>
      <trkpt lat="47.26923" lon="-1.54945">
        <ele>56</ele>
        <time>2022-01-20T16:04:31Z</time>
      </trkpt>
      <trkpt lat="47.26923" lon="-1.54947">
        <ele>56</ele>
        <time>2022-01-20T16:04:32Z</time>
      </trkpt>
      <trkpt lat="47.26922" lon="-1.5495">
        <ele>56</ele>
        <time>2022-01-20T16:04:33Z</time>
      </trkpt>
      <trkpt lat="47.26922" lon="-1.54952">
        <ele>56</ele>
        <time>2022-01-20T16:04:34Z</time>
      </trkpt>
      <trkpt lat="47.26922" lon="-1.54954">
        <ele>57</ele>
        <time>2022-01-20T16:04:35Z</time>
      </trkpt>
      <trkpt lat="47.26922" lon="-1.54955">
        <ele>57</ele>
        <time>2022-01-20T16:04:36Z</time>
      </trkpt>
      <trkpt lat="47.26922" lon="-1.54957">
        <ele>57</ele>
        <time>2022-01-20T16:04:37Z</time>
      </trkpt>
      <trkpt lat="47.26922" lon="-1.54958">
        <ele>57</ele>
        <time>2022-01-20T16:04:38Z</time>
      </trkpt>
      <trkpt lat="47.26921" lon="-1.5496">
        <ele>57</ele>
        <time>2022-01-20T16:04:39Z</time>
      </trkpt>
      <trkpt lat="47.26921" lon="-1.54963">
        <ele>58</ele>
        <time>2022-01-20T16:04:40Z</time>
      </trkpt>
      <trkpt lat="47.26921" lon="-1.54964">
        <ele>58</ele>
        <time>2022-01-20T16:04:41Z</time>
      </trkpt>
      <trkpt lat="47.26921" lon="-1.54966">
        <ele>58</ele>
        <time>2022-01-20T16:04:42Z</time>
      </trkpt>
      <trkpt lat="47.26921" lon="-1.54968">
        <ele>58</ele>
        <time>2022-01-20T16:04:43Z</time>
      </trkpt>
      <trkpt lat="47.26921" lon="-1.5497">
        <ele>58</ele>
        <time>2022-01-20T16:04:44Z</time>
      </trkpt>
      <trkpt lat="47.2692" lon="-1.54972">
        <ele>58</ele>
        <time>2022-01-20T16:04:45Z</time>
      </trkpt>
      <trkpt lat="47.2692" lon="-1.54973">
        <ele>58</ele>
        <time>2022-01-20T16:04:46Z</time>
      </trkpt>
      <trkpt lat="47.2692" lon="-1.54975">
        <ele>58</ele>
        <time>2022-01-20T16:04:47Z</time>
      </trkpt>
      <trkpt lat="47.26919" lon="-1.54977">
        <ele>58</ele>
        <time>2022-01-20T16:04:48Z</time>
      </trkpt>
      <trkpt lat="47.26919" lon="-1.54979">
        <ele>58</ele>
        <time>2022-01-20T16:04:49Z</time>
      </trkpt>
      <trkpt lat="47.26919" lon="-1.54982">
        <ele>58</ele>
        <time>2022-01-20T16:04:50Z</time>
      </trkpt>
      <trkpt lat="47.26919" lon="-1.54984">
        <ele>58</ele>
        <time>2022-01-20T16:04:51Z</time>
      </trkpt>
      <trkpt lat="47.2692" lon="-1.54986">
        <ele>58</ele>
        <time>2022-01-20T16:04:52Z</time>
      </trkpt>
      <trkpt lat="47.26921" lon="-1.54987">
        <ele>58</ele>
        <time>2022-01-20T16:04:53Z</time>
      </trkpt>
      <trkpt lat="47.26922" lon="-1.54989">
        <ele>57</ele>
        <time>2022-01-20T16:04:54Z</time>
      </trkpt>
      <trkpt lat="47.26922" lon="-1.54991">
        <ele>57</ele>
        <time>2022-01-20T16:04:55Z</time>
      </trkpt>
      <trkpt lat="47.26923" lon="-1.54993">
        <ele>56</ele>
        <time>2022-01-20T16:04:56Z</time>
      </trkpt>
      <trkpt lat="47.26923" lon="-1.54995">
        <ele>56</ele>
        <time>2022-01-20T16:04:57Z</time>
      </trkpt>
      <trkpt lat="47.26923" lon="-1.54997">
        <ele>55</ele>
        <time>2022-01-20T16:04:58Z</time>
      </trkpt>
      <trkpt lat="47.26923" lon="-1.54999">
        <ele>55</ele>
        <time>2022-01-20T16:04:59Z</time>
      </trkpt>
      <trkpt lat="47.26923" lon="-1.55002">
        <ele>55</ele>
        <time>2022-01-20T16:05:00Z</time>
      </trkpt>
      <trkpt lat="47.26923" lon="-1.55004">
        <ele>56</ele>
        <time>2022-01-20T16:05:01Z</time>
      </trkpt>
      <trkpt lat="47.26924" lon="-1.55007">
        <ele>56</ele>
        <time>2022-01-20T16:05:02Z</time>
      </trkpt>
      <trkpt lat="47.26924" lon="-1.55009">
        <ele>57</ele>
        <time>2022-01-20T16:05:03Z</time>
      </trkpt>
      <trkpt lat="47.26925" lon="-1.55011">
        <ele>57</ele>
        <time>2022-01-20T16:05:04Z</time>
      </trkpt>
      <trkpt lat="47.26925" lon="-1.55012">
        <ele>57</ele>
        <time>2022-01-20T16:05:05Z</time>
      </trkpt>
      <trkpt lat="47.26925" lon="-1.55013">
        <ele>56</ele>
        <time>2022-01-20T16:05:06Z</time>
      </trkpt>
      <trkpt lat="47.26925" lon="-1.55015">
        <ele>56</ele>
        <time>2022-01-20T16:05:07Z</time>
      </trkpt>
      <trkpt lat="47.26926" lon="-1.55017">
        <ele>56</ele>
        <time>2022-01-20T16:05:08Z</time>
      </trkpt>
      <trkpt lat="47.26927" lon="-1.55019">
        <ele>55</ele>
        <time>2022-01-20T16:05:09Z</time>
      </trkpt>
      <trkpt lat="47.26928" lon="-1.55021">
        <ele>56</ele>
        <time>2022-01-20T16:05:10Z</time>
      </trkpt>
      <trkpt lat="47.26928" lon="-1.55023">
        <ele>56</ele>
        <time>2022-01-20T16:05:11Z</time>
      </trkpt>
      <trkpt lat="47.26928" lon="-1.55025">
        <ele>56</ele>
        <time>2022-01-20T16:05:12Z</time>
      </trkpt>
      <trkpt lat="47.26929" lon="-1.55027">
        <ele>56</ele>
        <time>2022-01-20T16:05:13Z</time>
      </trkpt>
      <trkpt lat="47.2693" lon="-1.55029">
        <ele>56</ele>
        <time>2022-01-20T16:05:14Z</time>
      </trkpt>
      <trkpt lat="47.2693" lon="-1.55031">
        <ele>56</ele>
        <time>2022-01-20T16:05:15Z</time>
      </trkpt>
      <trkpt lat="47.2693" lon="-1.55032">
        <ele>56</ele>
        <time>2022-01-20T16:05:16Z</time>
      </trkpt>
      <trkpt lat="47.26931" lon="-1.55034">
        <ele>56</ele>
        <time>2022-01-20T16:05:17Z</time>
      </trkpt>
      <trkpt lat="47.26931" lon="-1.55035">
        <ele>56</ele>
        <time>2022-01-20T16:05:18Z</time>
      </trkpt>
      <trkpt lat="47.26931" lon="-1.55035">
        <ele>56</ele>
        <time>2022-01-20T16:05:19Z</time>
      </trkpt>
      <trkpt lat="47.26932" lon="-1.55036">
        <ele>56</ele>
        <time>2022-01-20T16:05:20Z</time>
      </trkpt>
      <trkpt lat="47.26933" lon="-1.55038">
        <ele>56</ele>
        <time>2022-01-20T16:05:21Z</time>
      </trkpt>
      <trkpt lat="47.26933" lon="-1.55039">
        <ele>55</ele>
        <time>2022-01-20T16:05:22Z</time>
      </trkpt>
      <trkpt lat="47.26934" lon="-1.55042">
        <ele>55</ele>
        <time>2022-01-20T16:05:23Z</time>
      </trkpt>
      <trkpt lat="47.26934" lon="-1.55044">
        <ele>55</ele>
        <time>2022-01-20T16:05:24Z</time>
      </trkpt>
      <trkpt lat="47.26935" lon="-1.55046">
        <ele>55</ele>
        <time>2022-01-20T16:05:25Z</time>
      </trkpt>
      <trkpt lat="47.26936" lon="-1.55047">
        <ele>55</ele>
        <time>2022-01-20T16:05:26Z</time>
      </trkpt>
      <trkpt lat="47.26936" lon="-1.55049">
        <ele>54</ele>
        <time>2022-01-20T16:05:27Z</time>
      </trkpt>
      <trkpt lat="47.26936" lon="-1.55051">
        <ele>54</ele>
        <time>2022-01-20T16:05:28Z</time>
      </trkpt>
      <trkpt lat="47.26938" lon="-1.55053">
        <ele>55</ele>
        <time>2022-01-20T16:05:29Z</time>
      </trkpt>
      <trkpt lat="47.26938" lon="-1.55055">
        <ele>55</ele>
        <time>2022-01-20T16:05:30Z</time>
      </trkpt>
      <trkpt lat="47.26939" lon="-1.55056">
        <ele>54</ele>
        <time>2022-01-20T16:05:31Z</time>
      </trkpt>
      <trkpt lat="47.26939" lon="-1.55059">
        <ele>55</ele>
        <time>2022-01-20T16:05:32Z</time>
      </trkpt>
      <trkpt lat="47.26939" lon="-1.55061">
        <ele>55</ele>
        <time>2022-01-20T16:05:33Z</time>
      </trkpt>
      <trkpt lat="47.26939" lon="-1.55063">
        <ele>55</ele>
        <time>2022-01-20T16:05:34Z</time>
      </trkpt>
      <trkpt lat="47.2694" lon="-1.55064">
        <ele>55</ele>
        <time>2022-01-20T16:05:35Z</time>
      </trkpt>
      <trkpt lat="47.26941" lon="-1.55066">
        <ele>54</ele>
        <time>2022-01-20T16:05:36Z</time>
      </trkpt>
      <trkpt lat="47.26942" lon="-1.55067">
        <ele>54</ele>
        <time>2022-01-20T16:05:37Z</time>
      </trkpt>
      <trkpt lat="47.26942" lon="-1.55069">
        <ele>54</ele>
        <time>2022-01-20T16:05:38Z</time>
      </trkpt>
      <trkpt lat="47.26943" lon="-1.55071">
        <ele>54</ele>
        <time>2022-01-20T16:05:39Z</time>
      </trkpt>
      <trkpt lat="47.26944" lon="-1.55073">
        <ele>54</ele>
        <time>2022-01-20T16:05:40Z</time>
      </trkpt>
      <trkpt lat="47.26944" lon="-1.55075">
        <ele>54</ele>
        <time>2022-01-20T16:05:41Z</time>
      </trkpt>
      <trkpt lat="47.26944" lon="-1.55077">
        <ele>54</ele>
        <time>2022-01-20T16:05:42Z</time>
      </trkpt>
      <trkpt lat="47.26945" lon="-1.55079">
        <ele>54</ele>
        <time>2022-01-20T16:05:43Z</time>
      </trkpt>
      <trkpt lat="47.26945" lon="-1.55081">
        <ele>55</ele>
        <time>2022-01-20T16:05:44Z</time>
      </trkpt>
      <trkpt lat="47.26945" lon="-1.55083">
        <ele>55</ele>
        <time>2022-01-20T16:05:45Z</time>
      </trkpt>
      <trkpt lat="47.26945" lon="-1.55085">
        <ele>55</ele>
        <time>2022-01-20T16:05:46Z</time>
      </trkpt>
      <trkpt lat="47.26945" lon="-1.55087">
        <ele>55</ele>
        <time>2022-01-20T16:05:47Z</time>
      </trkpt>
      <trkpt lat="47.26945" lon="-1.55089">
        <ele>55</ele>
        <time>2022-01-20T16:05:48Z</time>
      </trkpt>
      <trkpt lat="47.26944" lon="-1.55092">
        <ele>56</ele>
        <time>2022-01-20T16:05:49Z</time>
      </trkpt>
      <trkpt lat="47.26944" lon="-1.55095">
        <ele>56</ele>
        <time>2022-01-20T16:05:50Z</time>
      </trkpt>
      <trkpt lat="47.26944" lon="-1.55098">
        <ele>56</ele>
        <time>2022-01-20T16:05:51Z</time>
      </trkpt>
      <trkpt lat="47.26945" lon="-1.551">
        <ele>56</ele>
        <time>2022-01-20T16:05:52Z</time>
      </trkpt>
      <trkpt lat="47.26945" lon="-1.55102">
        <ele>57</ele>
        <time>2022-01-20T16:05:53Z</time>
      </trkpt>
      <trkpt lat="47.26945" lon="-1.55104">
        <ele>58</ele>
        <time>2022-01-20T16:05:54Z</time>
      </trkpt>
      <trkpt lat="47.26946" lon="-1.55106">
        <ele>58</ele>
        <time>2022-01-20T16:05:55Z</time>
      </trkpt>
      <trkpt lat="47.26946" lon="-1.55108">
        <ele>58</ele>
        <time>2022-01-20T16:05:56Z</time>
      </trkpt>
      <trkpt lat="47.26946" lon="-1.5511">
        <ele>57</ele>
        <time>2022-01-20T16:05:57Z</time>
      </trkpt>
      <trkpt lat="47.26947" lon="-1.55111">
        <ele>57</ele>
        <time>2022-01-20T16:05:58Z</time>
      </trkpt>
      <trkpt lat="47.26948" lon="-1.55113">
        <ele>58</ele>
        <time>2022-01-20T16:05:59Z</time>
      </trkpt>
      <trkpt lat="47.26949" lon="-1.55114">
        <ele>58</ele>
        <time>2022-01-20T16:06:00Z</time>
      </trkpt>
      <trkpt lat="47.26949" lon="-1.55114">
        <ele>58</ele>
        <time>2022-01-20T16:06:01Z</time>
      </trkpt>
      <trkpt lat="47.26949" lon="-1.55116">
        <ele>58</ele>
        <time>2022-01-20T16:06:02Z</time>
      </trkpt>
      <trkpt lat="47.2695" lon="-1.55118">
        <ele>57</ele>
        <time>2022-01-20T16:06:03Z</time>
      </trkpt>
      <trkpt lat="47.26951" lon="-1.5512">
        <ele>57</ele>
        <time>2022-01-20T16:06:04Z</time>
      </trkpt>
      <trkpt lat="47.26951" lon="-1.55122">
        <ele>57</ele>
        <time>2022-01-20T16:06:05Z</time>
      </trkpt>
      <trkpt lat="47.26951" lon="-1.55124">
        <ele>57</ele>
        <time>2022-01-20T16:06:06Z</time>
      </trkpt>
      <trkpt lat="47.26951" lon="-1.55126">
        <ele>57</ele>
        <time>2022-01-20T16:06:07Z</time>
      </trkpt>
      <trkpt lat="47.26952" lon="-1.55127">
        <ele>57</ele>
        <time>2022-01-20T16:06:08Z</time>
      </trkpt>
      <trkpt lat="47.26952" lon="-1.55129">
        <ele>57</ele>
        <time>2022-01-20T16:06:09Z</time>
      </trkpt>
      <trkpt lat="47.26951" lon="-1.55131">
        <ele>57</ele>
        <time>2022-01-20T16:06:10Z</time>
      </trkpt>
      <trkpt lat="47.26951" lon="-1.55133">
        <ele>57</ele>
        <time>2022-01-20T16:06:11Z</time>
      </trkpt>
      <trkpt lat="47.26951" lon="-1.55135">
        <ele>57</ele>
        <time>2022-01-20T16:06:12Z</time>
      </trkpt>
      <trkpt lat="47.26951" lon="-1.55137">
        <ele>56</ele>
        <time>2022-01-20T16:06:13Z</time>
      </trkpt>
      <trkpt lat="47.26951" lon="-1.55139">
        <ele>57</ele>
        <time>2022-01-20T16:06:14Z</time>
      </trkpt>
      <trkpt lat="47.26951" lon="-1.55141">
        <ele>58</ele>
        <time>2022-01-20T16:06:15Z</time>
      </trkpt>
      <trkpt lat="47.26952" lon="-1.55143">
        <ele>58</ele>
        <time>2022-01-20T16:06:16Z</time>
      </trkpt>
      <trkpt lat="47.26952" lon="-1.55145">
        <ele>58</ele>
        <time>2022-01-20T16:06:17Z</time>
      </trkpt>
      <trkpt lat="47.26952" lon="-1.55147">
        <ele>58</ele>
        <time>2022-01-20T16:06:18Z</time>
      </trkpt>
      <trkpt lat="47.26952" lon="-1.55148">
        <ele>58</ele>
        <time>2022-01-20T16:06:19Z</time>
      </trkpt>
      <trkpt lat="47.26952" lon="-1.5515">
        <ele>58</ele>
        <time>2022-01-20T16:06:20Z</time>
      </trkpt>
      <trkpt lat="47.26952" lon="-1.55151">
        <ele>58</ele>
        <time>2022-01-20T16:06:21Z</time>
      </trkpt>
      <trkpt lat="47.26953" lon="-1.55152">
        <ele>58</ele>
        <time>2022-01-20T16:06:22Z</time>
      </trkpt>
      <trkpt lat="47.26954" lon="-1.55153">
        <ele>57</ele>
        <time>2022-01-20T16:06:23Z</time>
      </trkpt>
      <trkpt lat="47.26955" lon="-1.55155">
        <ele>57</ele>
        <time>2022-01-20T16:06:24Z</time>
      </trkpt>
      <trkpt lat="47.26955" lon="-1.55156">
        <ele>58</ele>
        <time>2022-01-20T16:06:25Z</time>
      </trkpt>
      <trkpt lat="47.26956" lon="-1.55159">
        <ele>58</ele>
        <time>2022-01-20T16:06:26Z</time>
      </trkpt>
      <trkpt lat="47.26957" lon="-1.5516">
        <ele>58</ele>
        <time>2022-01-20T16:06:27Z</time>
      </trkpt>
      <trkpt lat="47.26958" lon="-1.55162">
        <ele>58</ele>
        <time>2022-01-20T16:06:28Z</time>
      </trkpt>
      <trkpt lat="47.26958" lon="-1.55164">
        <ele>58</ele>
        <time>2022-01-20T16:06:29Z</time>
      </trkpt>
      <trkpt lat="47.26958" lon="-1.55167">
        <ele>59</ele>
        <time>2022-01-20T16:06:30Z</time>
      </trkpt>
      <trkpt lat="47.26958" lon="-1.55169">
        <ele>59</ele>
        <time>2022-01-20T16:06:31Z</time>
      </trkpt>
      <trkpt lat="47.26958" lon="-1.55171">
        <ele>59</ele>
        <time>2022-01-20T16:06:32Z</time>
      </trkpt>
      <trkpt lat="47.26958" lon="-1.55172">
        <ele>59</ele>
        <time>2022-01-20T16:06:33Z</time>
      </trkpt>
      <trkpt lat="47.26958" lon="-1.55174">
        <ele>59</ele>
        <time>2022-01-20T16:06:34Z</time>
      </trkpt>
      <trkpt lat="47.26958" lon="-1.55176">
        <ele>59</ele>
        <time>2022-01-20T16:06:35Z</time>
      </trkpt>
      <trkpt lat="47.26959" lon="-1.55179">
        <ele>59</ele>
        <time>2022-01-20T16:06:36Z</time>
      </trkpt>
      <trkpt lat="47.26959" lon="-1.55181">
        <ele>59</ele>
        <time>2022-01-20T16:06:37Z</time>
      </trkpt>
      <trkpt lat="47.2696" lon="-1.55183">
        <ele>59</ele>
        <time>2022-01-20T16:06:38Z</time>
      </trkpt>
      <trkpt lat="47.2696" lon="-1.55184">
        <ele>58</ele>
        <time>2022-01-20T16:06:39Z</time>
      </trkpt>
      <trkpt lat="47.2696" lon="-1.55185">
        <ele>58</ele>
        <time>2022-01-20T16:06:40Z</time>
      </trkpt>
      <trkpt lat="47.2696" lon="-1.55187">
        <ele>58</ele>
        <time>2022-01-20T16:06:41Z</time>
      </trkpt>
      <trkpt lat="47.26961" lon="-1.55188">
        <ele>58</ele>
        <time>2022-01-20T16:06:42Z</time>
      </trkpt>
      <trkpt lat="47.26962" lon="-1.55188">
        <ele>58</ele>
        <time>2022-01-20T16:06:43Z</time>
      </trkpt>
      <trkpt lat="47.26962" lon="-1.55188">
        <ele>58</ele>
        <time>2022-01-20T16:06:44Z</time>
      </trkpt>
      <trkpt lat="47.26963" lon="-1.55189">
        <ele>58</ele>
        <time>2022-01-20T16:06:45Z</time>
      </trkpt>
      <trkpt lat="47.26964" lon="-1.55189">
        <ele>58</ele>
        <time>2022-01-20T16:06:46Z</time>
      </trkpt>
      <trkpt lat="47.26965" lon="-1.5519">
        <ele>58</ele>
        <time>2022-01-20T16:06:47Z</time>
      </trkpt>
      <trkpt lat="47.26966" lon="-1.5519">
        <ele>58</ele>
        <time>2022-01-20T16:06:48Z</time>
      </trkpt>
      <trkpt lat="47.26967" lon="-1.5519">
        <ele>58</ele>
        <time>2022-01-20T16:06:49Z</time>
      </trkpt>
      <trkpt lat="47.26968" lon="-1.55191">
        <ele>58</ele>
        <time>2022-01-20T16:06:50Z</time>
      </trkpt>
      <trkpt lat="47.2697" lon="-1.55191">
        <ele>58</ele>
        <time>2022-01-20T16:06:51Z</time>
      </trkpt>
      <trkpt lat="47.26971" lon="-1.55191">
        <ele>59</ele>
        <time>2022-01-20T16:06:52Z</time>
      </trkpt>
      <trkpt lat="47.26971" lon="-1.55192">
        <ele>58</ele>
        <time>2022-01-20T16:06:53Z</time>
      </trkpt>
      <trkpt lat="47.26973" lon="-1.55194">
        <ele>57</ele>
        <time>2022-01-20T16:06:54Z</time>
      </trkpt>
      <trkpt lat="47.26973" lon="-1.55194">
        <ele>57</ele>
        <time>2022-01-20T16:06:55Z</time>
      </trkpt>
      <trkpt lat="47.26974" lon="-1.55195">
        <ele>58</ele>
        <time>2022-01-20T16:06:56Z</time>
      </trkpt>
      <trkpt lat="47.26974" lon="-1.55195">
        <ele>59</ele>
        <time>2022-01-20T16:06:57Z</time>
      </trkpt>
      <trkpt lat="47.26975" lon="-1.55194">
        <ele>59</ele>
        <time>2022-01-20T16:06:58Z</time>
      </trkpt>
      <trkpt lat="47.26975" lon="-1.55195">
        <ele>59</ele>
        <time>2022-01-20T16:06:59Z</time>
      </trkpt>
      <trkpt lat="47.26976" lon="-1.55196">
        <ele>59</ele>
        <time>2022-01-20T16:07:00Z</time>
      </trkpt>
      <trkpt lat="47.26976" lon="-1.55196">
        <ele>59</ele>
        <time>2022-01-20T16:07:01Z</time>
      </trkpt>
      <trkpt lat="47.26977" lon="-1.55198">
        <ele>60</ele>
        <time>2022-01-20T16:07:02Z</time>
      </trkpt>
      <trkpt lat="47.26978" lon="-1.55199">
        <ele>60</ele>
        <time>2022-01-20T16:07:03Z</time>
      </trkpt>
      <trkpt lat="47.26979" lon="-1.55201">
        <ele>60</ele>
        <time>2022-01-20T16:07:04Z</time>
      </trkpt>
      <trkpt lat="47.26981" lon="-1.55204">
        <ele>60</ele>
        <time>2022-01-20T16:07:05Z</time>
      </trkpt>
      <trkpt lat="47.26981" lon="-1.55206">
        <ele>61</ele>
        <time>2022-01-20T16:07:06Z</time>
      </trkpt>
      <trkpt lat="47.26982" lon="-1.55207">
        <ele>62</ele>
        <time>2022-01-20T16:07:07Z</time>
      </trkpt>
      <trkpt lat="47.26982" lon="-1.55209">
        <ele>63</ele>
        <time>2022-01-20T16:07:08Z</time>
      </trkpt>
      <trkpt lat="47.26982" lon="-1.55211">
        <ele>63</ele>
        <time>2022-01-20T16:07:09Z</time>
      </trkpt>
      <trkpt lat="47.26983" lon="-1.55214">
        <ele>63</ele>
        <time>2022-01-20T16:07:10Z</time>
      </trkpt>
      <trkpt lat="47.26983" lon="-1.55215">
        <ele>65</ele>
        <time>2022-01-20T16:07:11Z</time>
      </trkpt>
      <trkpt lat="47.26984" lon="-1.55217">
        <ele>66</ele>
        <time>2022-01-20T16:07:12Z</time>
      </trkpt>
      <trkpt lat="47.26984" lon="-1.55219">
        <ele>67</ele>
        <time>2022-01-20T16:07:13Z</time>
      </trkpt>
      <trkpt lat="47.26985" lon="-1.5522">
        <ele>67</ele>
        <time>2022-01-20T16:07:14Z</time>
      </trkpt>
      <trkpt lat="47.26985" lon="-1.55221">
        <ele>68</ele>
        <time>2022-01-20T16:07:15Z</time>
      </trkpt>
      <trkpt lat="47.26985" lon="-1.55221">
        <ele>68</ele>
        <time>2022-01-20T16:07:16Z</time>
      </trkpt>
      <trkpt lat="47.26985" lon="-1.55221">
        <ele>68</ele>
        <time>2022-01-20T16:07:17Z</time>
      </trkpt>
      <trkpt lat="47.26985" lon="-1.55221">
        <ele>68</ele>
        <time>2022-01-20T16:07:18Z</time>
      </trkpt>
      <trkpt lat="47.26985" lon="-1.55221">
        <ele>68</ele>
        <time>2022-01-20T16:07:18Z</time>
      </trkpt>
      <trkpt lat="47.26985" lon="-1.55221">
        <ele>68</ele>
        <time>2022-01-20T16:07:18Z</time>
      </trkpt>
      <trkpt lat="47.26988" lon="-1.5522">
        <ele>67</ele>
        <time>2022-01-20T16:07:25Z</time>
      </trkpt>
      <trkpt lat="47.26989" lon="-1.5522">
        <ele>67</ele>
        <time>2022-01-20T16:07:26Z</time>
      </trkpt>
      <trkpt lat="47.26989" lon="-1.5522">
        <ele>67</ele>
        <time>2022-01-20T16:07:27Z</time>
      </trkpt>
      <trkpt lat="47.26989" lon="-1.5522">
        <ele>67</ele>
        <time>2022-01-20T16:07:28Z</time>
      </trkpt>
      <trkpt lat="47.26989" lon="-1.5522">
        <ele>67</ele>
        <time>2022-01-20T16:07:28Z</time>
      </trkpt>
      <trkpt lat="47.26989" lon="-1.5522">
        <ele>67</ele>
        <time>2022-01-20T16:07:28Z</time>
      </trkpt>
    </trkseg>
  </trk>
</gpx>